<?xml version="1.0" encoding="UTF-8" standalone="no" ?>
<gpx xmlns="http://www.topografix.com/GPX/1/1" xmlns:xsi="http://www.w3.org/2001/XMLSchema-instance" xsi:schemaLocation="http://www.topografix.com/GPX/1/1 http://www.topografix.com/GPX/1/1/gpx.xsd" version="1.1" creator="VisuGPX - https://www.visugpx.com">
  <metadata>
    <name>3eme jour st Martin de Nigelle - Briis 2010</name>
  </metadata>
  <trk>
    <name><![CDATA[003-2010/05/15-09:22:41]]></name>
    <trkseg>
      <trkpt lat="48.60964" lon="1.61164">
        <ele>112</ele>
        <time>2010-05-15T07:22:41Z</time>
      </trkpt>
      <trkpt lat="48.60953" lon="1.61125">
        <ele>118</ele>
        <time>2010-05-15T07:24:29Z</time>
      </trkpt>
      <trkpt lat="48.60952" lon="1.61123">
        <ele>118</ele>
        <time>2010-05-15T07:24:31Z</time>
      </trkpt>
      <trkpt lat="48.6095" lon="1.6112">
        <ele>118</ele>
        <time>2010-05-15T07:24:33Z</time>
      </trkpt>
      <trkpt lat="48.60949" lon="1.61118">
        <ele>118</ele>
        <time>2010-05-15T07:24:35Z</time>
      </trkpt>
      <trkpt lat="48.60948" lon="1.61114">
        <ele>118</ele>
        <time>2010-05-15T07:24:37Z</time>
      </trkpt>
      <trkpt lat="48.60948" lon="1.61113">
        <ele>118</ele>
        <time>2010-05-15T07:24:38Z</time>
      </trkpt>
      <trkpt lat="48.60948" lon="1.61111">
        <ele>118</ele>
        <time>2010-05-15T07:24:39Z</time>
      </trkpt>
      <trkpt lat="48.60948" lon="1.61109">
        <ele>118</ele>
        <time>2010-05-15T07:24:40Z</time>
      </trkpt>
      <trkpt lat="48.60948" lon="1.61106">
        <ele>118</ele>
        <time>2010-05-15T07:24:42Z</time>
      </trkpt>
      <trkpt lat="48.60949" lon="1.61103">
        <ele>118</ele>
        <time>2010-05-15T07:24:44Z</time>
      </trkpt>
      <trkpt lat="48.6095" lon="1.611">
        <ele>118</ele>
        <time>2010-05-15T07:24:46Z</time>
      </trkpt>
      <trkpt lat="48.60952" lon="1.61098">
        <ele>118</ele>
        <time>2010-05-15T07:24:48Z</time>
      </trkpt>
      <trkpt lat="48.60953" lon="1.61095">
        <ele>118</ele>
        <time>2010-05-15T07:24:50Z</time>
      </trkpt>
      <trkpt lat="48.60954" lon="1.61092">
        <ele>118</ele>
        <time>2010-05-15T07:24:52Z</time>
      </trkpt>
      <trkpt lat="48.60955" lon="1.6109">
        <ele>118</ele>
        <time>2010-05-15T07:24:53Z</time>
      </trkpt>
      <trkpt lat="48.60955" lon="1.61089">
        <ele>118</ele>
        <time>2010-05-15T07:24:54Z</time>
      </trkpt>
      <trkpt lat="48.60957" lon="1.61085">
        <ele>118</ele>
        <time>2010-05-15T07:24:56Z</time>
      </trkpt>
      <trkpt lat="48.60957" lon="1.61084">
        <ele>118</ele>
        <time>2010-05-15T07:24:57Z</time>
      </trkpt>
      <trkpt lat="48.60959" lon="1.61081">
        <ele>118</ele>
        <time>2010-05-15T07:24:59Z</time>
      </trkpt>
      <trkpt lat="48.6096" lon="1.61078">
        <ele>118</ele>
        <time>2010-05-15T07:25:01Z</time>
      </trkpt>
      <trkpt lat="48.60962" lon="1.61075">
        <ele>118</ele>
        <time>2010-05-15T07:25:03Z</time>
      </trkpt>
      <trkpt lat="48.60963" lon="1.61072">
        <ele>118</ele>
        <time>2010-05-15T07:25:05Z</time>
      </trkpt>
      <trkpt lat="48.60965" lon="1.6107">
        <ele>118</ele>
        <time>2010-05-15T07:25:07Z</time>
      </trkpt>
      <trkpt lat="48.60966" lon="1.61067">
        <ele>118</ele>
        <time>2010-05-15T07:25:09Z</time>
      </trkpt>
      <trkpt lat="48.60968" lon="1.61065">
        <ele>118</ele>
        <time>2010-05-15T07:25:11Z</time>
      </trkpt>
      <trkpt lat="48.6097" lon="1.61065">
        <ele>118</ele>
        <time>2010-05-15T07:25:13Z</time>
      </trkpt>
      <trkpt lat="48.60973" lon="1.61066">
        <ele>118</ele>
        <time>2010-05-15T07:25:15Z</time>
      </trkpt>
      <trkpt lat="48.60974" lon="1.61067">
        <ele>118</ele>
        <time>2010-05-15T07:25:16Z</time>
      </trkpt>
      <trkpt lat="48.60976" lon="1.6107">
        <ele>118</ele>
        <time>2010-05-15T07:25:18Z</time>
      </trkpt>
      <trkpt lat="48.60977" lon="1.61071">
        <ele>117</ele>
        <time>2010-05-15T07:25:19Z</time>
      </trkpt>
      <trkpt lat="48.60978" lon="1.61072">
        <ele>117</ele>
        <time>2010-05-15T07:25:20Z</time>
      </trkpt>
      <trkpt lat="48.6098" lon="1.61073">
        <ele>117</ele>
        <time>2010-05-15T07:25:21Z</time>
      </trkpt>
      <trkpt lat="48.60981" lon="1.61074">
        <ele>117</ele>
        <time>2010-05-15T07:25:22Z</time>
      </trkpt>
      <trkpt lat="48.60982" lon="1.61075">
        <ele>117</ele>
        <time>2010-05-15T07:25:23Z</time>
      </trkpt>
      <trkpt lat="48.60983" lon="1.61077">
        <ele>117</ele>
        <time>2010-05-15T07:25:24Z</time>
      </trkpt>
      <trkpt lat="48.60985" lon="1.61079">
        <ele>117</ele>
        <time>2010-05-15T07:25:26Z</time>
      </trkpt>
      <trkpt lat="48.60987" lon="1.6108">
        <ele>117</ele>
        <time>2010-05-15T07:25:27Z</time>
      </trkpt>
      <trkpt lat="48.60988" lon="1.61081">
        <ele>117</ele>
        <time>2010-05-15T07:25:28Z</time>
      </trkpt>
      <trkpt lat="48.60989" lon="1.61082">
        <ele>116</ele>
        <time>2010-05-15T07:25:29Z</time>
      </trkpt>
      <trkpt lat="48.6099" lon="1.61083">
        <ele>116</ele>
        <time>2010-05-15T07:25:30Z</time>
      </trkpt>
      <trkpt lat="48.60992" lon="1.61085">
        <ele>116</ele>
        <time>2010-05-15T07:25:32Z</time>
      </trkpt>
      <trkpt lat="48.60994" lon="1.61087">
        <ele>116</ele>
        <time>2010-05-15T07:25:34Z</time>
      </trkpt>
      <trkpt lat="48.60996" lon="1.61089">
        <ele>116</ele>
        <time>2010-05-15T07:25:36Z</time>
      </trkpt>
      <trkpt lat="48.60998" lon="1.61092">
        <ele>116</ele>
        <time>2010-05-15T07:25:38Z</time>
      </trkpt>
      <trkpt lat="48.61" lon="1.61094">
        <ele>116</ele>
        <time>2010-05-15T07:25:40Z</time>
      </trkpt>
      <trkpt lat="48.61002" lon="1.61096">
        <ele>115</ele>
        <time>2010-05-15T07:25:42Z</time>
      </trkpt>
      <trkpt lat="48.61003" lon="1.61097">
        <ele>115</ele>
        <time>2010-05-15T07:25:43Z</time>
      </trkpt>
      <trkpt lat="48.61005" lon="1.611">
        <ele>115</ele>
        <time>2010-05-15T07:25:45Z</time>
      </trkpt>
      <trkpt lat="48.61006" lon="1.61102">
        <ele>114</ele>
        <time>2010-05-15T07:25:47Z</time>
      </trkpt>
      <trkpt lat="48.61008" lon="1.61104">
        <ele>114</ele>
        <time>2010-05-15T07:25:49Z</time>
      </trkpt>
      <trkpt lat="48.6101" lon="1.61107">
        <ele>114</ele>
        <time>2010-05-15T07:25:51Z</time>
      </trkpt>
      <trkpt lat="48.61011" lon="1.61108">
        <ele>114</ele>
        <time>2010-05-15T07:25:52Z</time>
      </trkpt>
      <trkpt lat="48.61013" lon="1.6111">
        <ele>114</ele>
        <time>2010-05-15T07:25:54Z</time>
      </trkpt>
      <trkpt lat="48.61015" lon="1.61112">
        <ele>114</ele>
        <time>2010-05-15T07:25:56Z</time>
      </trkpt>
      <trkpt lat="48.61017" lon="1.61114">
        <ele>114</ele>
        <time>2010-05-15T07:25:58Z</time>
      </trkpt>
      <trkpt lat="48.61019" lon="1.61117">
        <ele>114</ele>
        <time>2010-05-15T07:26:00Z</time>
      </trkpt>
      <trkpt lat="48.61021" lon="1.6112">
        <ele>113</ele>
        <time>2010-05-15T07:26:02Z</time>
      </trkpt>
      <trkpt lat="48.61022" lon="1.61121">
        <ele>113</ele>
        <time>2010-05-15T07:26:03Z</time>
      </trkpt>
      <trkpt lat="48.61024" lon="1.61124">
        <ele>113</ele>
        <time>2010-05-15T07:26:05Z</time>
      </trkpt>
      <trkpt lat="48.61027" lon="1.61126">
        <ele>113</ele>
        <time>2010-05-15T07:26:07Z</time>
      </trkpt>
      <trkpt lat="48.61028" lon="1.61127">
        <ele>113</ele>
        <time>2010-05-15T07:26:08Z</time>
      </trkpt>
      <trkpt lat="48.6103" lon="1.6113">
        <ele>113</ele>
        <time>2010-05-15T07:26:10Z</time>
      </trkpt>
      <trkpt lat="48.61031" lon="1.61132">
        <ele>113</ele>
        <time>2010-05-15T07:26:11Z</time>
      </trkpt>
      <trkpt lat="48.61033" lon="1.61135">
        <ele>113</ele>
        <time>2010-05-15T07:26:13Z</time>
      </trkpt>
      <trkpt lat="48.61035" lon="1.61138">
        <ele>113</ele>
        <time>2010-05-15T07:26:15Z</time>
      </trkpt>
      <trkpt lat="48.61037" lon="1.6114">
        <ele>113</ele>
        <time>2010-05-15T07:26:17Z</time>
      </trkpt>
      <trkpt lat="48.61039" lon="1.61142">
        <ele>113</ele>
        <time>2010-05-15T07:26:19Z</time>
      </trkpt>
      <trkpt lat="48.6104" lon="1.61145">
        <ele>113</ele>
        <time>2010-05-15T07:26:21Z</time>
      </trkpt>
      <trkpt lat="48.61042" lon="1.61147">
        <ele>113</ele>
        <time>2010-05-15T07:26:23Z</time>
      </trkpt>
      <trkpt lat="48.61044" lon="1.61149">
        <ele>113</ele>
        <time>2010-05-15T07:26:25Z</time>
      </trkpt>
      <trkpt lat="48.61046" lon="1.61152">
        <ele>113</ele>
        <time>2010-05-15T07:26:27Z</time>
      </trkpt>
      <trkpt lat="48.61047" lon="1.61154">
        <ele>113</ele>
        <time>2010-05-15T07:26:28Z</time>
      </trkpt>
      <trkpt lat="48.61047" lon="1.61156">
        <ele>113</ele>
        <time>2010-05-15T07:26:29Z</time>
      </trkpt>
      <trkpt lat="48.61048" lon="1.61157">
        <ele>113</ele>
        <time>2010-05-15T07:26:30Z</time>
      </trkpt>
      <trkpt lat="48.6105" lon="1.6116">
        <ele>113</ele>
        <time>2010-05-15T07:26:32Z</time>
      </trkpt>
      <trkpt lat="48.61051" lon="1.61161">
        <ele>113</ele>
        <time>2010-05-15T07:26:33Z</time>
      </trkpt>
      <trkpt lat="48.61053" lon="1.61163">
        <ele>113</ele>
        <time>2010-05-15T07:26:35Z</time>
      </trkpt>
      <trkpt lat="48.61055" lon="1.61166">
        <ele>113</ele>
        <time>2010-05-15T07:26:37Z</time>
      </trkpt>
      <trkpt lat="48.61057" lon="1.61168">
        <ele>113</ele>
        <time>2010-05-15T07:26:39Z</time>
      </trkpt>
      <trkpt lat="48.61058" lon="1.61169">
        <ele>113</ele>
        <time>2010-05-15T07:26:40Z</time>
      </trkpt>
      <trkpt lat="48.6106" lon="1.6117">
        <ele>113</ele>
        <time>2010-05-15T07:26:42Z</time>
      </trkpt>
      <trkpt lat="48.61062" lon="1.61172">
        <ele>113</ele>
        <time>2010-05-15T07:26:44Z</time>
      </trkpt>
      <trkpt lat="48.61063" lon="1.61174">
        <ele>113</ele>
        <time>2010-05-15T07:26:46Z</time>
      </trkpt>
      <trkpt lat="48.61065" lon="1.61176">
        <ele>114</ele>
        <time>2010-05-15T07:26:48Z</time>
      </trkpt>
      <trkpt lat="48.61067" lon="1.61178">
        <ele>114</ele>
        <time>2010-05-15T07:26:50Z</time>
      </trkpt>
      <trkpt lat="48.61069" lon="1.61181">
        <ele>114</ele>
        <time>2010-05-15T07:26:52Z</time>
      </trkpt>
      <trkpt lat="48.61071" lon="1.61183">
        <ele>115</ele>
        <time>2010-05-15T07:26:54Z</time>
      </trkpt>
      <trkpt lat="48.61072" lon="1.61185">
        <ele>115</ele>
        <time>2010-05-15T07:26:56Z</time>
      </trkpt>
      <trkpt lat="48.61073" lon="1.61189">
        <ele>116</ele>
        <time>2010-05-15T07:26:58Z</time>
      </trkpt>
      <trkpt lat="48.61074" lon="1.61192">
        <ele>116</ele>
        <time>2010-05-15T07:27:00Z</time>
      </trkpt>
      <trkpt lat="48.61074" lon="1.61194">
        <ele>116</ele>
        <time>2010-05-15T07:27:01Z</time>
      </trkpt>
      <trkpt lat="48.61075" lon="1.61197">
        <ele>116</ele>
        <time>2010-05-15T07:27:03Z</time>
      </trkpt>
      <trkpt lat="48.61075" lon="1.61199">
        <ele>116</ele>
        <time>2010-05-15T07:27:04Z</time>
      </trkpt>
      <trkpt lat="48.61075" lon="1.61202">
        <ele>117</ele>
        <time>2010-05-15T07:27:06Z</time>
      </trkpt>
      <trkpt lat="48.61074" lon="1.61204">
        <ele>117</ele>
        <time>2010-05-15T07:27:07Z</time>
      </trkpt>
      <trkpt lat="48.61074" lon="1.61207">
        <ele>117</ele>
        <time>2010-05-15T07:27:09Z</time>
      </trkpt>
      <trkpt lat="48.61074" lon="1.61209">
        <ele>117</ele>
        <time>2010-05-15T07:27:10Z</time>
      </trkpt>
      <trkpt lat="48.61074" lon="1.6121">
        <ele>117</ele>
        <time>2010-05-15T07:27:11Z</time>
      </trkpt>
      <trkpt lat="48.61074" lon="1.61212">
        <ele>117</ele>
        <time>2010-05-15T07:27:12Z</time>
      </trkpt>
      <trkpt lat="48.61074" lon="1.61214">
        <ele>117</ele>
        <time>2010-05-15T07:27:13Z</time>
      </trkpt>
      <trkpt lat="48.61074" lon="1.61216">
        <ele>117</ele>
        <time>2010-05-15T07:27:14Z</time>
      </trkpt>
      <trkpt lat="48.61074" lon="1.61218">
        <ele>117</ele>
        <time>2010-05-15T07:27:15Z</time>
      </trkpt>
      <trkpt lat="48.61074" lon="1.61219">
        <ele>117</ele>
        <time>2010-05-15T07:27:16Z</time>
      </trkpt>
      <trkpt lat="48.61074" lon="1.61222">
        <ele>117</ele>
        <time>2010-05-15T07:27:17Z</time>
      </trkpt>
      <trkpt lat="48.61074" lon="1.61224">
        <ele>117</ele>
        <time>2010-05-15T07:27:19Z</time>
      </trkpt>
      <trkpt lat="48.61074" lon="1.61226">
        <ele>117</ele>
        <time>2010-05-15T07:27:20Z</time>
      </trkpt>
      <trkpt lat="48.61074" lon="1.61228">
        <ele>118</ele>
        <time>2010-05-15T07:27:21Z</time>
      </trkpt>
      <trkpt lat="48.61073" lon="1.61231">
        <ele>118</ele>
        <time>2010-05-15T07:27:22Z</time>
      </trkpt>
      <trkpt lat="48.61073" lon="1.61233">
        <ele>118</ele>
        <time>2010-05-15T07:27:23Z</time>
      </trkpt>
      <trkpt lat="48.61073" lon="1.61235">
        <ele>119</ele>
        <time>2010-05-15T07:27:24Z</time>
      </trkpt>
      <trkpt lat="48.61072" lon="1.61237">
        <ele>119</ele>
        <time>2010-05-15T07:27:25Z</time>
      </trkpt>
      <trkpt lat="48.61072" lon="1.61239">
        <ele>120</ele>
        <time>2010-05-15T07:27:26Z</time>
      </trkpt>
      <trkpt lat="48.61072" lon="1.61241">
        <ele>120</ele>
        <time>2010-05-15T07:27:27Z</time>
      </trkpt>
      <trkpt lat="48.61073" lon="1.61243">
        <ele>121</ele>
        <time>2010-05-15T07:27:29Z</time>
      </trkpt>
      <trkpt lat="48.61074" lon="1.61246">
        <ele>122</ele>
        <time>2010-05-15T07:27:31Z</time>
      </trkpt>
      <trkpt lat="48.61074" lon="1.61248">
        <ele>122</ele>
        <time>2010-05-15T07:27:32Z</time>
      </trkpt>
      <trkpt lat="48.61073" lon="1.6125">
        <ele>123</ele>
        <time>2010-05-15T07:27:33Z</time>
      </trkpt>
      <trkpt lat="48.61072" lon="1.61252">
        <ele>123</ele>
        <time>2010-05-15T07:27:34Z</time>
      </trkpt>
      <trkpt lat="48.61071" lon="1.61256">
        <ele>123</ele>
        <time>2010-05-15T07:27:36Z</time>
      </trkpt>
      <trkpt lat="48.61071" lon="1.61259">
        <ele>123</ele>
        <time>2010-05-15T07:27:38Z</time>
      </trkpt>
      <trkpt lat="48.61071" lon="1.61261">
        <ele>123</ele>
        <time>2010-05-15T07:27:39Z</time>
      </trkpt>
      <trkpt lat="48.61072" lon="1.61263">
        <ele>123</ele>
        <time>2010-05-15T07:27:40Z</time>
      </trkpt>
      <trkpt lat="48.61072" lon="1.61265">
        <ele>123</ele>
        <time>2010-05-15T07:27:41Z</time>
      </trkpt>
      <trkpt lat="48.61072" lon="1.61266">
        <ele>123</ele>
        <time>2010-05-15T07:27:42Z</time>
      </trkpt>
      <trkpt lat="48.61072" lon="1.61268">
        <ele>123</ele>
        <time>2010-05-15T07:27:43Z</time>
      </trkpt>
      <trkpt lat="48.61072" lon="1.6127">
        <ele>123</ele>
        <time>2010-05-15T07:27:44Z</time>
      </trkpt>
      <trkpt lat="48.61072" lon="1.61272">
        <ele>123</ele>
        <time>2010-05-15T07:27:45Z</time>
      </trkpt>
      <trkpt lat="48.61072" lon="1.61274">
        <ele>123</ele>
        <time>2010-05-15T07:27:46Z</time>
      </trkpt>
      <trkpt lat="48.61072" lon="1.61275">
        <ele>123</ele>
        <time>2010-05-15T07:27:47Z</time>
      </trkpt>
      <trkpt lat="48.61071" lon="1.61278">
        <ele>123</ele>
        <time>2010-05-15T07:27:49Z</time>
      </trkpt>
      <trkpt lat="48.61071" lon="1.6128">
        <ele>123</ele>
        <time>2010-05-15T07:27:50Z</time>
      </trkpt>
      <trkpt lat="48.61071" lon="1.61282">
        <ele>123</ele>
        <time>2010-05-15T07:27:51Z</time>
      </trkpt>
      <trkpt lat="48.61071" lon="1.61284">
        <ele>123</ele>
        <time>2010-05-15T07:27:52Z</time>
      </trkpt>
      <trkpt lat="48.61072" lon="1.61286">
        <ele>123</ele>
        <time>2010-05-15T07:27:53Z</time>
      </trkpt>
      <trkpt lat="48.61072" lon="1.61287">
        <ele>123</ele>
        <time>2010-05-15T07:27:54Z</time>
      </trkpt>
      <trkpt lat="48.61072" lon="1.61289">
        <ele>123</ele>
        <time>2010-05-15T07:27:55Z</time>
      </trkpt>
      <trkpt lat="48.61072" lon="1.61291">
        <ele>123</ele>
        <time>2010-05-15T07:27:56Z</time>
      </trkpt>
      <trkpt lat="48.61072" lon="1.61293">
        <ele>123</ele>
        <time>2010-05-15T07:27:57Z</time>
      </trkpt>
      <trkpt lat="48.61072" lon="1.61295">
        <ele>123</ele>
        <time>2010-05-15T07:27:58Z</time>
      </trkpt>
      <trkpt lat="48.61073" lon="1.61297">
        <ele>123</ele>
        <time>2010-05-15T07:27:59Z</time>
      </trkpt>
      <trkpt lat="48.61073" lon="1.61298">
        <ele>123</ele>
        <time>2010-05-15T07:28:00Z</time>
      </trkpt>
      <trkpt lat="48.61074" lon="1.613">
        <ele>123</ele>
        <time>2010-05-15T07:28:01Z</time>
      </trkpt>
      <trkpt lat="48.61074" lon="1.61302">
        <ele>123</ele>
        <time>2010-05-15T07:28:02Z</time>
      </trkpt>
      <trkpt lat="48.61075" lon="1.61305">
        <ele>123</ele>
        <time>2010-05-15T07:28:04Z</time>
      </trkpt>
      <trkpt lat="48.61075" lon="1.61307">
        <ele>123</ele>
        <time>2010-05-15T07:28:05Z</time>
      </trkpt>
      <trkpt lat="48.61076" lon="1.61309">
        <ele>123</ele>
        <time>2010-05-15T07:28:06Z</time>
      </trkpt>
      <trkpt lat="48.61076" lon="1.6131">
        <ele>123</ele>
        <time>2010-05-15T07:28:07Z</time>
      </trkpt>
      <trkpt lat="48.61077" lon="1.61314">
        <ele>123</ele>
        <time>2010-05-15T07:28:09Z</time>
      </trkpt>
      <trkpt lat="48.61077" lon="1.61315">
        <ele>123</ele>
        <time>2010-05-15T07:28:10Z</time>
      </trkpt>
      <trkpt lat="48.61077" lon="1.61317">
        <ele>123</ele>
        <time>2010-05-15T07:28:11Z</time>
      </trkpt>
      <trkpt lat="48.61078" lon="1.61319">
        <ele>123</ele>
        <time>2010-05-15T07:28:12Z</time>
      </trkpt>
      <trkpt lat="48.61079" lon="1.61322">
        <ele>123</ele>
        <time>2010-05-15T07:28:14Z</time>
      </trkpt>
      <trkpt lat="48.6108" lon="1.61325">
        <ele>124</ele>
        <time>2010-05-15T07:28:16Z</time>
      </trkpt>
      <trkpt lat="48.6108" lon="1.61326">
        <ele>124</ele>
        <time>2010-05-15T07:28:17Z</time>
      </trkpt>
      <trkpt lat="48.6108" lon="1.61328">
        <ele>124</ele>
        <time>2010-05-15T07:28:18Z</time>
      </trkpt>
      <trkpt lat="48.61081" lon="1.61331">
        <ele>124</ele>
        <time>2010-05-15T07:28:20Z</time>
      </trkpt>
      <trkpt lat="48.61082" lon="1.61333">
        <ele>124</ele>
        <time>2010-05-15T07:28:21Z</time>
      </trkpt>
      <trkpt lat="48.61082" lon="1.61335">
        <ele>124</ele>
        <time>2010-05-15T07:28:22Z</time>
      </trkpt>
      <trkpt lat="48.61083" lon="1.61336">
        <ele>124</ele>
        <time>2010-05-15T07:28:23Z</time>
      </trkpt>
      <trkpt lat="48.61083" lon="1.61338">
        <ele>124</ele>
        <time>2010-05-15T07:28:24Z</time>
      </trkpt>
      <trkpt lat="48.61084" lon="1.6134">
        <ele>124</ele>
        <time>2010-05-15T07:28:25Z</time>
      </trkpt>
      <trkpt lat="48.61084" lon="1.61342">
        <ele>124</ele>
        <time>2010-05-15T07:28:26Z</time>
      </trkpt>
      <trkpt lat="48.61084" lon="1.61343">
        <ele>124</ele>
        <time>2010-05-15T07:28:27Z</time>
      </trkpt>
      <trkpt lat="48.61085" lon="1.61345">
        <ele>124</ele>
        <time>2010-05-15T07:28:28Z</time>
      </trkpt>
      <trkpt lat="48.61085" lon="1.61347">
        <ele>124</ele>
        <time>2010-05-15T07:28:29Z</time>
      </trkpt>
      <trkpt lat="48.61086" lon="1.61349">
        <ele>124</ele>
        <time>2010-05-15T07:28:30Z</time>
      </trkpt>
      <trkpt lat="48.61086" lon="1.61351">
        <ele>124</ele>
        <time>2010-05-15T07:28:31Z</time>
      </trkpt>
      <trkpt lat="48.61086" lon="1.61353">
        <ele>124</ele>
        <time>2010-05-15T07:28:32Z</time>
      </trkpt>
      <trkpt lat="48.61087" lon="1.61354">
        <ele>124</ele>
        <time>2010-05-15T07:28:33Z</time>
      </trkpt>
      <trkpt lat="48.61087" lon="1.61356">
        <ele>124</ele>
        <time>2010-05-15T07:28:34Z</time>
      </trkpt>
      <trkpt lat="48.61088" lon="1.61359">
        <ele>124</ele>
        <time>2010-05-15T07:28:36Z</time>
      </trkpt>
      <trkpt lat="48.61089" lon="1.61361">
        <ele>124</ele>
        <time>2010-05-15T07:28:37Z</time>
      </trkpt>
      <trkpt lat="48.61089" lon="1.61363">
        <ele>124</ele>
        <time>2010-05-15T07:28:38Z</time>
      </trkpt>
      <trkpt lat="48.6109" lon="1.61365">
        <ele>124</ele>
        <time>2010-05-15T07:28:39Z</time>
      </trkpt>
      <trkpt lat="48.61091" lon="1.61368">
        <ele>124</ele>
        <time>2010-05-15T07:28:41Z</time>
      </trkpt>
      <trkpt lat="48.61091" lon="1.6137">
        <ele>124</ele>
        <time>2010-05-15T07:28:42Z</time>
      </trkpt>
      <trkpt lat="48.61093" lon="1.61373">
        <ele>124</ele>
        <time>2010-05-15T07:28:44Z</time>
      </trkpt>
      <trkpt lat="48.61093" lon="1.61375">
        <ele>124</ele>
        <time>2010-05-15T07:28:45Z</time>
      </trkpt>
      <trkpt lat="48.61095" lon="1.61378">
        <ele>124</ele>
        <time>2010-05-15T07:28:47Z</time>
      </trkpt>
      <trkpt lat="48.61096" lon="1.61381">
        <ele>124</ele>
        <time>2010-05-15T07:28:49Z</time>
      </trkpt>
      <trkpt lat="48.61097" lon="1.61383">
        <ele>124</ele>
        <time>2010-05-15T07:28:50Z</time>
      </trkpt>
      <trkpt lat="48.61098" lon="1.61384">
        <ele>124</ele>
        <time>2010-05-15T07:28:51Z</time>
      </trkpt>
      <trkpt lat="48.61098" lon="1.61386">
        <ele>124</ele>
        <time>2010-05-15T07:28:52Z</time>
      </trkpt>
      <trkpt lat="48.61099" lon="1.61388">
        <ele>124</ele>
        <time>2010-05-15T07:28:53Z</time>
      </trkpt>
      <trkpt lat="48.611" lon="1.61391">
        <ele>124</ele>
        <time>2010-05-15T07:28:55Z</time>
      </trkpt>
      <trkpt lat="48.61102" lon="1.61394">
        <ele>124</ele>
        <time>2010-05-15T07:28:57Z</time>
      </trkpt>
      <trkpt lat="48.61103" lon="1.61397">
        <ele>124</ele>
        <time>2010-05-15T07:28:59Z</time>
      </trkpt>
      <trkpt lat="48.61104" lon="1.61398">
        <ele>124</ele>
        <time>2010-05-15T07:29:00Z</time>
      </trkpt>
      <trkpt lat="48.61104" lon="1.614">
        <ele>124</ele>
        <time>2010-05-15T07:29:01Z</time>
      </trkpt>
      <trkpt lat="48.61105" lon="1.61403">
        <ele>124</ele>
        <time>2010-05-15T07:29:03Z</time>
      </trkpt>
      <trkpt lat="48.61107" lon="1.61406">
        <ele>124</ele>
        <time>2010-05-15T07:29:05Z</time>
      </trkpt>
      <trkpt lat="48.61107" lon="1.61408">
        <ele>124</ele>
        <time>2010-05-15T07:29:06Z</time>
      </trkpt>
      <trkpt lat="48.61107" lon="1.6141">
        <ele>124</ele>
        <time>2010-05-15T07:29:07Z</time>
      </trkpt>
      <trkpt lat="48.61108" lon="1.61412">
        <ele>124</ele>
        <time>2010-05-15T07:29:08Z</time>
      </trkpt>
      <trkpt lat="48.61108" lon="1.61414">
        <ele>124</ele>
        <time>2010-05-15T07:29:09Z</time>
      </trkpt>
      <trkpt lat="48.61109" lon="1.61416">
        <ele>124</ele>
        <time>2010-05-15T07:29:10Z</time>
      </trkpt>
      <trkpt lat="48.6111" lon="1.61418">
        <ele>124</ele>
        <time>2010-05-15T07:29:12Z</time>
      </trkpt>
      <trkpt lat="48.61111" lon="1.6142">
        <ele>124</ele>
        <time>2010-05-15T07:29:13Z</time>
      </trkpt>
      <trkpt lat="48.61111" lon="1.61422">
        <ele>124</ele>
        <time>2010-05-15T07:29:14Z</time>
      </trkpt>
      <trkpt lat="48.61112" lon="1.61424">
        <ele>124</ele>
        <time>2010-05-15T07:29:15Z</time>
      </trkpt>
      <trkpt lat="48.61112" lon="1.61426">
        <ele>124</ele>
        <time>2010-05-15T07:29:16Z</time>
      </trkpt>
      <trkpt lat="48.61113" lon="1.61428">
        <ele>124</ele>
        <time>2010-05-15T07:29:17Z</time>
      </trkpt>
      <trkpt lat="48.61113" lon="1.61429">
        <ele>124</ele>
        <time>2010-05-15T07:29:18Z</time>
      </trkpt>
      <trkpt lat="48.61114" lon="1.61431">
        <ele>124</ele>
        <time>2010-05-15T07:29:19Z</time>
      </trkpt>
      <trkpt lat="48.61115" lon="1.61433">
        <ele>124</ele>
        <time>2010-05-15T07:29:20Z</time>
      </trkpt>
      <trkpt lat="48.61115" lon="1.61435">
        <ele>124</ele>
        <time>2010-05-15T07:29:21Z</time>
      </trkpt>
      <trkpt lat="48.61116" lon="1.61436">
        <ele>124</ele>
        <time>2010-05-15T07:29:22Z</time>
      </trkpt>
      <trkpt lat="48.61117" lon="1.61438">
        <ele>124</ele>
        <time>2010-05-15T07:29:23Z</time>
      </trkpt>
      <trkpt lat="48.61117" lon="1.6144">
        <ele>124</ele>
        <time>2010-05-15T07:29:24Z</time>
      </trkpt>
      <trkpt lat="48.61118" lon="1.61441">
        <ele>124</ele>
        <time>2010-05-15T07:29:25Z</time>
      </trkpt>
      <trkpt lat="48.61119" lon="1.61443">
        <ele>124</ele>
        <time>2010-05-15T07:29:26Z</time>
      </trkpt>
      <trkpt lat="48.61119" lon="1.61445">
        <ele>124</ele>
        <time>2010-05-15T07:29:27Z</time>
      </trkpt>
      <trkpt lat="48.6112" lon="1.61446">
        <ele>124</ele>
        <time>2010-05-15T07:29:28Z</time>
      </trkpt>
      <trkpt lat="48.61121" lon="1.61448">
        <ele>124</ele>
        <time>2010-05-15T07:29:29Z</time>
      </trkpt>
      <trkpt lat="48.61122" lon="1.61451">
        <ele>124</ele>
        <time>2010-05-15T07:29:31Z</time>
      </trkpt>
      <trkpt lat="48.61123" lon="1.61453">
        <ele>124</ele>
        <time>2010-05-15T07:29:32Z</time>
      </trkpt>
      <trkpt lat="48.61123" lon="1.61455">
        <ele>124</ele>
        <time>2010-05-15T07:29:33Z</time>
      </trkpt>
      <trkpt lat="48.61124" lon="1.61456">
        <ele>124</ele>
        <time>2010-05-15T07:29:34Z</time>
      </trkpt>
      <trkpt lat="48.61125" lon="1.61458">
        <ele>124</ele>
        <time>2010-05-15T07:29:35Z</time>
      </trkpt>
      <trkpt lat="48.61125" lon="1.6146">
        <ele>124</ele>
        <time>2010-05-15T07:29:36Z</time>
      </trkpt>
      <trkpt lat="48.61126" lon="1.61461">
        <ele>124</ele>
        <time>2010-05-15T07:29:37Z</time>
      </trkpt>
      <trkpt lat="48.61127" lon="1.61465">
        <ele>124</ele>
        <time>2010-05-15T07:29:39Z</time>
      </trkpt>
      <trkpt lat="48.61128" lon="1.61466">
        <ele>124</ele>
        <time>2010-05-15T07:29:40Z</time>
      </trkpt>
      <trkpt lat="48.61129" lon="1.61468">
        <ele>124</ele>
        <time>2010-05-15T07:29:41Z</time>
      </trkpt>
      <trkpt lat="48.6113" lon="1.61471">
        <ele>124</ele>
        <time>2010-05-15T07:29:43Z</time>
      </trkpt>
      <trkpt lat="48.61131" lon="1.61473">
        <ele>124</ele>
        <time>2010-05-15T07:29:44Z</time>
      </trkpt>
      <trkpt lat="48.61131" lon="1.61474">
        <ele>124</ele>
        <time>2010-05-15T07:29:45Z</time>
      </trkpt>
      <trkpt lat="48.61132" lon="1.61476">
        <ele>124</ele>
        <time>2010-05-15T07:29:48Z</time>
      </trkpt>
      <trkpt lat="48.61134" lon="1.61478">
        <ele>124</ele>
        <time>2010-05-15T07:29:51Z</time>
      </trkpt>
      <trkpt lat="48.61135" lon="1.61481">
        <ele>124</ele>
        <time>2010-05-15T07:29:53Z</time>
      </trkpt>
      <trkpt lat="48.61137" lon="1.61484">
        <ele>124</ele>
        <time>2010-05-15T07:29:55Z</time>
      </trkpt>
      <trkpt lat="48.61137" lon="1.61485">
        <ele>124</ele>
        <time>2010-05-15T07:29:56Z</time>
      </trkpt>
      <trkpt lat="48.61138" lon="1.61487">
        <ele>124</ele>
        <time>2010-05-15T07:29:57Z</time>
      </trkpt>
      <trkpt lat="48.6114" lon="1.6149">
        <ele>124</ele>
        <time>2010-05-15T07:29:59Z</time>
      </trkpt>
      <trkpt lat="48.6114" lon="1.61492">
        <ele>124</ele>
        <time>2010-05-15T07:30:00Z</time>
      </trkpt>
      <trkpt lat="48.61141" lon="1.61495">
        <ele>124</ele>
        <time>2010-05-15T07:30:02Z</time>
      </trkpt>
      <trkpt lat="48.61142" lon="1.61496">
        <ele>124</ele>
        <time>2010-05-15T07:30:03Z</time>
      </trkpt>
      <trkpt lat="48.61143" lon="1.61499">
        <ele>124</ele>
        <time>2010-05-15T07:30:05Z</time>
      </trkpt>
      <trkpt lat="48.61145" lon="1.61503">
        <ele>124</ele>
        <time>2010-05-15T07:30:07Z</time>
      </trkpt>
      <trkpt lat="48.61145" lon="1.61504">
        <ele>124</ele>
        <time>2010-05-15T07:30:08Z</time>
      </trkpt>
      <trkpt lat="48.61146" lon="1.61506">
        <ele>124</ele>
        <time>2010-05-15T07:30:09Z</time>
      </trkpt>
      <trkpt lat="48.61147" lon="1.61508">
        <ele>124</ele>
        <time>2010-05-15T07:30:10Z</time>
      </trkpt>
      <trkpt lat="48.61147" lon="1.61509">
        <ele>124</ele>
        <time>2010-05-15T07:30:11Z</time>
      </trkpt>
      <trkpt lat="48.61148" lon="1.61511">
        <ele>124</ele>
        <time>2010-05-15T07:30:12Z</time>
      </trkpt>
      <trkpt lat="48.61148" lon="1.61513">
        <ele>124</ele>
        <time>2010-05-15T07:30:13Z</time>
      </trkpt>
      <trkpt lat="48.61149" lon="1.61515">
        <ele>124</ele>
        <time>2010-05-15T07:30:14Z</time>
      </trkpt>
      <trkpt lat="48.61149" lon="1.61517">
        <ele>124</ele>
        <time>2010-05-15T07:30:15Z</time>
      </trkpt>
      <trkpt lat="48.6115" lon="1.61519">
        <ele>124</ele>
        <time>2010-05-15T07:30:16Z</time>
      </trkpt>
      <trkpt lat="48.6115" lon="1.61521">
        <ele>124</ele>
        <time>2010-05-15T07:30:17Z</time>
      </trkpt>
      <trkpt lat="48.61151" lon="1.61522">
        <ele>124</ele>
        <time>2010-05-15T07:30:18Z</time>
      </trkpt>
      <trkpt lat="48.61151" lon="1.61524">
        <ele>124</ele>
        <time>2010-05-15T07:30:19Z</time>
      </trkpt>
      <trkpt lat="48.61152" lon="1.61526">
        <ele>124</ele>
        <time>2010-05-15T07:30:20Z</time>
      </trkpt>
      <trkpt lat="48.61152" lon="1.61528">
        <ele>124</ele>
        <time>2010-05-15T07:30:21Z</time>
      </trkpt>
      <trkpt lat="48.61153" lon="1.6153">
        <ele>124</ele>
        <time>2010-05-15T07:30:22Z</time>
      </trkpt>
      <trkpt lat="48.61153" lon="1.61531">
        <ele>124</ele>
        <time>2010-05-15T07:30:23Z</time>
      </trkpt>
      <trkpt lat="48.61155" lon="1.61534">
        <ele>124</ele>
        <time>2010-05-15T07:30:25Z</time>
      </trkpt>
      <trkpt lat="48.61156" lon="1.61537">
        <ele>124</ele>
        <time>2010-05-15T07:30:27Z</time>
      </trkpt>
      <trkpt lat="48.61157" lon="1.61539">
        <ele>124</ele>
        <time>2010-05-15T07:30:28Z</time>
      </trkpt>
      <trkpt lat="48.61158" lon="1.61541">
        <ele>124</ele>
        <time>2010-05-15T07:30:29Z</time>
      </trkpt>
      <trkpt lat="48.61158" lon="1.61543">
        <ele>124</ele>
        <time>2010-05-15T07:30:30Z</time>
      </trkpt>
      <trkpt lat="48.61159" lon="1.61545">
        <ele>124</ele>
        <time>2010-05-15T07:30:31Z</time>
      </trkpt>
      <trkpt lat="48.6116" lon="1.61547">
        <ele>124</ele>
        <time>2010-05-15T07:30:32Z</time>
      </trkpt>
      <trkpt lat="48.6116" lon="1.61548">
        <ele>124</ele>
        <time>2010-05-15T07:30:33Z</time>
      </trkpt>
      <trkpt lat="48.61161" lon="1.6155">
        <ele>124</ele>
        <time>2010-05-15T07:30:34Z</time>
      </trkpt>
      <trkpt lat="48.61162" lon="1.61552">
        <ele>124</ele>
        <time>2010-05-15T07:30:35Z</time>
      </trkpt>
      <trkpt lat="48.61163" lon="1.61554">
        <ele>124</ele>
        <time>2010-05-15T07:30:36Z</time>
      </trkpt>
      <trkpt lat="48.61163" lon="1.61556">
        <ele>124</ele>
        <time>2010-05-15T07:30:37Z</time>
      </trkpt>
      <trkpt lat="48.61164" lon="1.61557">
        <ele>124</ele>
        <time>2010-05-15T07:30:38Z</time>
      </trkpt>
      <trkpt lat="48.61165" lon="1.61559">
        <ele>124</ele>
        <time>2010-05-15T07:30:39Z</time>
      </trkpt>
      <trkpt lat="48.61165" lon="1.61561">
        <ele>125</ele>
        <time>2010-05-15T07:30:40Z</time>
      </trkpt>
      <trkpt lat="48.61166" lon="1.61562">
        <ele>125</ele>
        <time>2010-05-15T07:30:41Z</time>
      </trkpt>
      <trkpt lat="48.61166" lon="1.61564">
        <ele>125</ele>
        <time>2010-05-15T07:30:42Z</time>
      </trkpt>
      <trkpt lat="48.61167" lon="1.61566">
        <ele>125</ele>
        <time>2010-05-15T07:30:43Z</time>
      </trkpt>
      <trkpt lat="48.61169" lon="1.61569">
        <ele>126</ele>
        <time>2010-05-15T07:30:45Z</time>
      </trkpt>
      <trkpt lat="48.61169" lon="1.61571">
        <ele>126</ele>
        <time>2010-05-15T07:30:46Z</time>
      </trkpt>
      <trkpt lat="48.6117" lon="1.61573">
        <ele>126</ele>
        <time>2010-05-15T07:30:47Z</time>
      </trkpt>
      <trkpt lat="48.6117" lon="1.61574">
        <ele>126</ele>
        <time>2010-05-15T07:30:48Z</time>
      </trkpt>
      <trkpt lat="48.61171" lon="1.61576">
        <ele>126</ele>
        <time>2010-05-15T07:30:49Z</time>
      </trkpt>
      <trkpt lat="48.61172" lon="1.61578">
        <ele>126</ele>
        <time>2010-05-15T07:30:50Z</time>
      </trkpt>
      <trkpt lat="48.61174" lon="1.61581">
        <ele>126</ele>
        <time>2010-05-15T07:30:52Z</time>
      </trkpt>
      <trkpt lat="48.61175" lon="1.61584">
        <ele>126</ele>
        <time>2010-05-15T07:30:54Z</time>
      </trkpt>
      <trkpt lat="48.61177" lon="1.61586">
        <ele>126</ele>
        <time>2010-05-15T07:30:56Z</time>
      </trkpt>
      <trkpt lat="48.61179" lon="1.61589">
        <ele>126</ele>
        <time>2010-05-15T07:30:58Z</time>
      </trkpt>
      <trkpt lat="48.61181" lon="1.61592">
        <ele>126</ele>
        <time>2010-05-15T07:31:00Z</time>
      </trkpt>
      <trkpt lat="48.61183" lon="1.61595">
        <ele>126</ele>
        <time>2010-05-15T07:31:02Z</time>
      </trkpt>
      <trkpt lat="48.61183" lon="1.61596">
        <ele>126</ele>
        <time>2010-05-15T07:31:03Z</time>
      </trkpt>
      <trkpt lat="48.61184" lon="1.61598">
        <ele>126</ele>
        <time>2010-05-15T07:31:04Z</time>
      </trkpt>
      <trkpt lat="48.61185" lon="1.616">
        <ele>126</ele>
        <time>2010-05-15T07:31:05Z</time>
      </trkpt>
      <trkpt lat="48.61186" lon="1.61602">
        <ele>126</ele>
        <time>2010-05-15T07:31:06Z</time>
      </trkpt>
      <trkpt lat="48.61187" lon="1.61603">
        <ele>126</ele>
        <time>2010-05-15T07:31:07Z</time>
      </trkpt>
      <trkpt lat="48.61187" lon="1.61605">
        <ele>126</ele>
        <time>2010-05-15T07:31:08Z</time>
      </trkpt>
      <trkpt lat="48.61188" lon="1.61607">
        <ele>126</ele>
        <time>2010-05-15T07:31:09Z</time>
      </trkpt>
      <trkpt lat="48.61189" lon="1.61608">
        <ele>126</ele>
        <time>2010-05-15T07:31:10Z</time>
      </trkpt>
      <trkpt lat="48.6119" lon="1.6161">
        <ele>126</ele>
        <time>2010-05-15T07:31:11Z</time>
      </trkpt>
      <trkpt lat="48.61191" lon="1.61612">
        <ele>126</ele>
        <time>2010-05-15T07:31:12Z</time>
      </trkpt>
      <trkpt lat="48.61192" lon="1.61614">
        <ele>126</ele>
        <time>2010-05-15T07:31:13Z</time>
      </trkpt>
      <trkpt lat="48.61194" lon="1.61617">
        <ele>126</ele>
        <time>2010-05-15T07:31:15Z</time>
      </trkpt>
      <trkpt lat="48.61196" lon="1.6162">
        <ele>126</ele>
        <time>2010-05-15T07:31:17Z</time>
      </trkpt>
      <trkpt lat="48.61196" lon="1.61622">
        <ele>126</ele>
        <time>2010-05-15T07:31:18Z</time>
      </trkpt>
      <trkpt lat="48.61198" lon="1.61625">
        <ele>126</ele>
        <time>2010-05-15T07:31:20Z</time>
      </trkpt>
      <trkpt lat="48.61199" lon="1.61627">
        <ele>126</ele>
        <time>2010-05-15T07:31:21Z</time>
      </trkpt>
      <trkpt lat="48.612" lon="1.61628">
        <ele>126</ele>
        <time>2010-05-15T07:31:22Z</time>
      </trkpt>
      <trkpt lat="48.612" lon="1.6163">
        <ele>126</ele>
        <time>2010-05-15T07:31:23Z</time>
      </trkpt>
      <trkpt lat="48.61201" lon="1.61632">
        <ele>126</ele>
        <time>2010-05-15T07:31:24Z</time>
      </trkpt>
      <trkpt lat="48.61203" lon="1.61635">
        <ele>126</ele>
        <time>2010-05-15T07:31:26Z</time>
      </trkpt>
      <trkpt lat="48.61205" lon="1.61637">
        <ele>126</ele>
        <time>2010-05-15T07:31:28Z</time>
      </trkpt>
      <trkpt lat="48.61207" lon="1.6164">
        <ele>126</ele>
        <time>2010-05-15T07:31:30Z</time>
      </trkpt>
      <trkpt lat="48.61208" lon="1.61642">
        <ele>126</ele>
        <time>2010-05-15T07:31:31Z</time>
      </trkpt>
      <trkpt lat="48.61208" lon="1.61644">
        <ele>126</ele>
        <time>2010-05-15T07:31:32Z</time>
      </trkpt>
      <trkpt lat="48.6121" lon="1.61647">
        <ele>126</ele>
        <time>2010-05-15T07:31:34Z</time>
      </trkpt>
      <trkpt lat="48.61212" lon="1.6165">
        <ele>126</ele>
        <time>2010-05-15T07:31:36Z</time>
      </trkpt>
      <trkpt lat="48.61212" lon="1.61652">
        <ele>126</ele>
        <time>2010-05-15T07:31:37Z</time>
      </trkpt>
      <trkpt lat="48.61213" lon="1.61653">
        <ele>126</ele>
        <time>2010-05-15T07:31:38Z</time>
      </trkpt>
      <trkpt lat="48.61214" lon="1.61656">
        <ele>126</ele>
        <time>2010-05-15T07:31:40Z</time>
      </trkpt>
      <trkpt lat="48.61216" lon="1.61659">
        <ele>126</ele>
        <time>2010-05-15T07:31:42Z</time>
      </trkpt>
      <trkpt lat="48.61216" lon="1.61661">
        <ele>126</ele>
        <time>2010-05-15T07:31:43Z</time>
      </trkpt>
      <trkpt lat="48.61217" lon="1.61663">
        <ele>126</ele>
        <time>2010-05-15T07:31:44Z</time>
      </trkpt>
      <trkpt lat="48.61218" lon="1.61664">
        <ele>126</ele>
        <time>2010-05-15T07:31:45Z</time>
      </trkpt>
      <trkpt lat="48.61218" lon="1.61666">
        <ele>126</ele>
        <time>2010-05-15T07:31:46Z</time>
      </trkpt>
      <trkpt lat="48.61219" lon="1.61668">
        <ele>126</ele>
        <time>2010-05-15T07:31:47Z</time>
      </trkpt>
      <trkpt lat="48.61221" lon="1.61671">
        <ele>126</ele>
        <time>2010-05-15T07:31:49Z</time>
      </trkpt>
      <trkpt lat="48.61222" lon="1.61674">
        <ele>126</ele>
        <time>2010-05-15T07:31:51Z</time>
      </trkpt>
      <trkpt lat="48.61224" lon="1.61677">
        <ele>126</ele>
        <time>2010-05-15T07:31:53Z</time>
      </trkpt>
      <trkpt lat="48.61226" lon="1.61679">
        <ele>126</ele>
        <time>2010-05-15T07:31:55Z</time>
      </trkpt>
      <trkpt lat="48.61226" lon="1.61681">
        <ele>126</ele>
        <time>2010-05-15T07:31:56Z</time>
      </trkpt>
      <trkpt lat="48.61227" lon="1.61683">
        <ele>126</ele>
        <time>2010-05-15T07:31:57Z</time>
      </trkpt>
      <trkpt lat="48.61228" lon="1.61685">
        <ele>126</ele>
        <time>2010-05-15T07:31:58Z</time>
      </trkpt>
      <trkpt lat="48.61228" lon="1.61687">
        <ele>126</ele>
        <time>2010-05-15T07:31:59Z</time>
      </trkpt>
      <trkpt lat="48.6123" lon="1.6169">
        <ele>126</ele>
        <time>2010-05-15T07:32:01Z</time>
      </trkpt>
      <trkpt lat="48.61231" lon="1.61691">
        <ele>126</ele>
        <time>2010-05-15T07:32:02Z</time>
      </trkpt>
      <trkpt lat="48.61231" lon="1.61693">
        <ele>126</ele>
        <time>2010-05-15T07:32:03Z</time>
      </trkpt>
      <trkpt lat="48.61232" lon="1.61695">
        <ele>126</ele>
        <time>2010-05-15T07:32:04Z</time>
      </trkpt>
      <trkpt lat="48.61233" lon="1.61697">
        <ele>126</ele>
        <time>2010-05-15T07:32:05Z</time>
      </trkpt>
      <trkpt lat="48.61234" lon="1.617">
        <ele>126</ele>
        <time>2010-05-15T07:32:07Z</time>
      </trkpt>
      <trkpt lat="48.61235" lon="1.61701">
        <ele>126</ele>
        <time>2010-05-15T07:32:08Z</time>
      </trkpt>
      <trkpt lat="48.61236" lon="1.61703">
        <ele>126</ele>
        <time>2010-05-15T07:32:09Z</time>
      </trkpt>
      <trkpt lat="48.61237" lon="1.61706">
        <ele>126</ele>
        <time>2010-05-15T07:32:11Z</time>
      </trkpt>
      <trkpt lat="48.61238" lon="1.61708">
        <ele>126</ele>
        <time>2010-05-15T07:32:12Z</time>
      </trkpt>
      <trkpt lat="48.6124" lon="1.61711">
        <ele>126</ele>
        <time>2010-05-15T07:32:14Z</time>
      </trkpt>
      <trkpt lat="48.61241" lon="1.61712">
        <ele>126</ele>
        <time>2010-05-15T07:32:15Z</time>
      </trkpt>
      <trkpt lat="48.61242" lon="1.61714">
        <ele>126</ele>
        <time>2010-05-15T07:32:16Z</time>
      </trkpt>
      <trkpt lat="48.61242" lon="1.61716">
        <ele>126</ele>
        <time>2010-05-15T07:32:17Z</time>
      </trkpt>
      <trkpt lat="48.61243" lon="1.61719">
        <ele>126</ele>
        <time>2010-05-15T07:32:19Z</time>
      </trkpt>
      <trkpt lat="48.61244" lon="1.61721">
        <ele>126</ele>
        <time>2010-05-15T07:32:20Z</time>
      </trkpt>
      <trkpt lat="48.61244" lon="1.61723">
        <ele>126</ele>
        <time>2010-05-15T07:32:21Z</time>
      </trkpt>
      <trkpt lat="48.61245" lon="1.61724">
        <ele>126</ele>
        <time>2010-05-15T07:32:22Z</time>
      </trkpt>
      <trkpt lat="48.61246" lon="1.61726">
        <ele>126</ele>
        <time>2010-05-15T07:32:23Z</time>
      </trkpt>
      <trkpt lat="48.61246" lon="1.61728">
        <ele>126</ele>
        <time>2010-05-15T07:32:24Z</time>
      </trkpt>
      <trkpt lat="48.61247" lon="1.6173">
        <ele>126</ele>
        <time>2010-05-15T07:32:25Z</time>
      </trkpt>
      <trkpt lat="48.61248" lon="1.61731">
        <ele>126</ele>
        <time>2010-05-15T07:32:26Z</time>
      </trkpt>
      <trkpt lat="48.61249" lon="1.61733">
        <ele>126</ele>
        <time>2010-05-15T07:32:27Z</time>
      </trkpt>
      <trkpt lat="48.6125" lon="1.61736">
        <ele>126</ele>
        <time>2010-05-15T07:32:29Z</time>
      </trkpt>
      <trkpt lat="48.61251" lon="1.61737">
        <ele>126</ele>
        <time>2010-05-15T07:32:30Z</time>
      </trkpt>
      <trkpt lat="48.61252" lon="1.61739">
        <ele>126</ele>
        <time>2010-05-15T07:32:31Z</time>
      </trkpt>
      <trkpt lat="48.61253" lon="1.61741">
        <ele>126</ele>
        <time>2010-05-15T07:32:32Z</time>
      </trkpt>
      <trkpt lat="48.61254" lon="1.61744">
        <ele>126</ele>
        <time>2010-05-15T07:32:34Z</time>
      </trkpt>
      <trkpt lat="48.61254" lon="1.61746">
        <ele>126</ele>
        <time>2010-05-15T07:32:35Z</time>
      </trkpt>
      <trkpt lat="48.61255" lon="1.61749">
        <ele>126</ele>
        <time>2010-05-15T07:32:37Z</time>
      </trkpt>
      <trkpt lat="48.61256" lon="1.61751">
        <ele>126</ele>
        <time>2010-05-15T07:32:38Z</time>
      </trkpt>
      <trkpt lat="48.61256" lon="1.61753">
        <ele>126</ele>
        <time>2010-05-15T07:32:39Z</time>
      </trkpt>
      <trkpt lat="48.61258" lon="1.61756">
        <ele>126</ele>
        <time>2010-05-15T07:32:41Z</time>
      </trkpt>
      <trkpt lat="48.61258" lon="1.61757">
        <ele>126</ele>
        <time>2010-05-15T07:32:42Z</time>
      </trkpt>
      <trkpt lat="48.6126" lon="1.6176">
        <ele>126</ele>
        <time>2010-05-15T07:32:44Z</time>
      </trkpt>
      <trkpt lat="48.6126" lon="1.61762">
        <ele>126</ele>
        <time>2010-05-15T07:32:45Z</time>
      </trkpt>
      <trkpt lat="48.61261" lon="1.61764">
        <ele>126</ele>
        <time>2010-05-15T07:32:46Z</time>
      </trkpt>
      <trkpt lat="48.61262" lon="1.61766">
        <ele>126</ele>
        <time>2010-05-15T07:32:47Z</time>
      </trkpt>
      <trkpt lat="48.61262" lon="1.61767">
        <ele>126</ele>
        <time>2010-05-15T07:32:48Z</time>
      </trkpt>
      <trkpt lat="48.61263" lon="1.61769">
        <ele>126</ele>
        <time>2010-05-15T07:32:49Z</time>
      </trkpt>
      <trkpt lat="48.61263" lon="1.61771">
        <ele>126</ele>
        <time>2010-05-15T07:32:50Z</time>
      </trkpt>
      <trkpt lat="48.61264" lon="1.61773">
        <ele>126</ele>
        <time>2010-05-15T07:32:51Z</time>
      </trkpt>
      <trkpt lat="48.61264" lon="1.61774">
        <ele>126</ele>
        <time>2010-05-15T07:32:52Z</time>
      </trkpt>
      <trkpt lat="48.61265" lon="1.61776">
        <ele>126</ele>
        <time>2010-05-15T07:32:53Z</time>
      </trkpt>
      <trkpt lat="48.61265" lon="1.61778">
        <ele>126</ele>
        <time>2010-05-15T07:32:54Z</time>
      </trkpt>
      <trkpt lat="48.61266" lon="1.6178">
        <ele>126</ele>
        <time>2010-05-15T07:32:55Z</time>
      </trkpt>
      <trkpt lat="48.61266" lon="1.61782">
        <ele>126</ele>
        <time>2010-05-15T07:32:56Z</time>
      </trkpt>
      <trkpt lat="48.61267" lon="1.61784">
        <ele>126</ele>
        <time>2010-05-15T07:32:57Z</time>
      </trkpt>
      <trkpt lat="48.61267" lon="1.61785">
        <ele>126</ele>
        <time>2010-05-15T07:32:58Z</time>
      </trkpt>
      <trkpt lat="48.61268" lon="1.61787">
        <ele>126</ele>
        <time>2010-05-15T07:32:59Z</time>
      </trkpt>
      <trkpt lat="48.61268" lon="1.61789">
        <ele>126</ele>
        <time>2010-05-15T07:33:00Z</time>
      </trkpt>
      <trkpt lat="48.61269" lon="1.61791">
        <ele>126</ele>
        <time>2010-05-15T07:33:01Z</time>
      </trkpt>
      <trkpt lat="48.61269" lon="1.61793">
        <ele>126</ele>
        <time>2010-05-15T07:33:02Z</time>
      </trkpt>
      <trkpt lat="48.6127" lon="1.61794">
        <ele>126</ele>
        <time>2010-05-15T07:33:03Z</time>
      </trkpt>
      <trkpt lat="48.6127" lon="1.61796">
        <ele>126</ele>
        <time>2010-05-15T07:33:04Z</time>
      </trkpt>
      <trkpt lat="48.61271" lon="1.61798">
        <ele>126</ele>
        <time>2010-05-15T07:33:05Z</time>
      </trkpt>
      <trkpt lat="48.61271" lon="1.618">
        <ele>126</ele>
        <time>2010-05-15T07:33:06Z</time>
      </trkpt>
      <trkpt lat="48.61271" lon="1.61802">
        <ele>126</ele>
        <time>2010-05-15T07:33:07Z</time>
      </trkpt>
      <trkpt lat="48.61272" lon="1.61804">
        <ele>126</ele>
        <time>2010-05-15T07:33:08Z</time>
      </trkpt>
      <trkpt lat="48.61272" lon="1.61806">
        <ele>126</ele>
        <time>2010-05-15T07:33:09Z</time>
      </trkpt>
      <trkpt lat="48.61272" lon="1.61807">
        <ele>126</ele>
        <time>2010-05-15T07:33:10Z</time>
      </trkpt>
      <trkpt lat="48.61273" lon="1.61809">
        <ele>126</ele>
        <time>2010-05-15T07:33:11Z</time>
      </trkpt>
      <trkpt lat="48.61273" lon="1.61811">
        <ele>126</ele>
        <time>2010-05-15T07:33:12Z</time>
      </trkpt>
      <trkpt lat="48.61274" lon="1.61813">
        <ele>126</ele>
        <time>2010-05-15T07:33:13Z</time>
      </trkpt>
      <trkpt lat="48.61274" lon="1.61815">
        <ele>126</ele>
        <time>2010-05-15T07:33:14Z</time>
      </trkpt>
      <trkpt lat="48.61275" lon="1.61817">
        <ele>126</ele>
        <time>2010-05-15T07:33:15Z</time>
      </trkpt>
      <trkpt lat="48.61276" lon="1.61818">
        <ele>126</ele>
        <time>2010-05-15T07:33:16Z</time>
      </trkpt>
      <trkpt lat="48.61276" lon="1.6182">
        <ele>126</ele>
        <time>2010-05-15T07:33:17Z</time>
      </trkpt>
      <trkpt lat="48.61277" lon="1.61822">
        <ele>126</ele>
        <time>2010-05-15T07:33:18Z</time>
      </trkpt>
      <trkpt lat="48.61277" lon="1.61824">
        <ele>126</ele>
        <time>2010-05-15T07:33:19Z</time>
      </trkpt>
      <trkpt lat="48.61278" lon="1.61826">
        <ele>126</ele>
        <time>2010-05-15T07:33:20Z</time>
      </trkpt>
      <trkpt lat="48.61278" lon="1.61828">
        <ele>126</ele>
        <time>2010-05-15T07:33:21Z</time>
      </trkpt>
      <trkpt lat="48.61279" lon="1.6183">
        <ele>126</ele>
        <time>2010-05-15T07:33:22Z</time>
      </trkpt>
      <trkpt lat="48.61279" lon="1.61832">
        <ele>126</ele>
        <time>2010-05-15T07:33:23Z</time>
      </trkpt>
      <trkpt lat="48.6128" lon="1.61833">
        <ele>126</ele>
        <time>2010-05-15T07:33:24Z</time>
      </trkpt>
      <trkpt lat="48.6128" lon="1.61835">
        <ele>126</ele>
        <time>2010-05-15T07:33:25Z</time>
      </trkpt>
      <trkpt lat="48.6128" lon="1.61837">
        <ele>126</ele>
        <time>2010-05-15T07:33:26Z</time>
      </trkpt>
      <trkpt lat="48.61281" lon="1.61839">
        <ele>126</ele>
        <time>2010-05-15T07:33:27Z</time>
      </trkpt>
      <trkpt lat="48.61281" lon="1.61841">
        <ele>126</ele>
        <time>2010-05-15T07:33:28Z</time>
      </trkpt>
      <trkpt lat="48.61281" lon="1.61843">
        <ele>126</ele>
        <time>2010-05-15T07:33:29Z</time>
      </trkpt>
      <trkpt lat="48.61282" lon="1.61845">
        <ele>126</ele>
        <time>2010-05-15T07:33:30Z</time>
      </trkpt>
      <trkpt lat="48.61282" lon="1.61847">
        <ele>126</ele>
        <time>2010-05-15T07:33:31Z</time>
      </trkpt>
      <trkpt lat="48.61282" lon="1.61848">
        <ele>126</ele>
        <time>2010-05-15T07:33:32Z</time>
      </trkpt>
      <trkpt lat="48.61283" lon="1.6185">
        <ele>126</ele>
        <time>2010-05-15T07:33:33Z</time>
      </trkpt>
      <trkpt lat="48.61283" lon="1.61852">
        <ele>126</ele>
        <time>2010-05-15T07:33:34Z</time>
      </trkpt>
      <trkpt lat="48.61284" lon="1.61854">
        <ele>126</ele>
        <time>2010-05-15T07:33:35Z</time>
      </trkpt>
      <trkpt lat="48.61284" lon="1.61855">
        <ele>126</ele>
        <time>2010-05-15T07:33:36Z</time>
      </trkpt>
      <trkpt lat="48.61284" lon="1.61857">
        <ele>126</ele>
        <time>2010-05-15T07:33:37Z</time>
      </trkpt>
      <trkpt lat="48.61284" lon="1.61859">
        <ele>126</ele>
        <time>2010-05-15T07:33:38Z</time>
      </trkpt>
      <trkpt lat="48.61285" lon="1.61861">
        <ele>126</ele>
        <time>2010-05-15T07:33:39Z</time>
      </trkpt>
      <trkpt lat="48.61285" lon="1.61863">
        <ele>126</ele>
        <time>2010-05-15T07:33:40Z</time>
      </trkpt>
      <trkpt lat="48.61285" lon="1.61865">
        <ele>126</ele>
        <time>2010-05-15T07:33:41Z</time>
      </trkpt>
      <trkpt lat="48.61285" lon="1.61867">
        <ele>126</ele>
        <time>2010-05-15T07:33:42Z</time>
      </trkpt>
      <trkpt lat="48.61285" lon="1.61869">
        <ele>126</ele>
        <time>2010-05-15T07:33:43Z</time>
      </trkpt>
      <trkpt lat="48.61285" lon="1.61871">
        <ele>126</ele>
        <time>2010-05-15T07:33:44Z</time>
      </trkpt>
      <trkpt lat="48.61285" lon="1.61873">
        <ele>126</ele>
        <time>2010-05-15T07:33:45Z</time>
      </trkpt>
      <trkpt lat="48.61285" lon="1.61875">
        <ele>126</ele>
        <time>2010-05-15T07:33:46Z</time>
      </trkpt>
      <trkpt lat="48.61286" lon="1.61877">
        <ele>126</ele>
        <time>2010-05-15T07:33:47Z</time>
      </trkpt>
      <trkpt lat="48.61286" lon="1.61879">
        <ele>126</ele>
        <time>2010-05-15T07:33:48Z</time>
      </trkpt>
      <trkpt lat="48.61286" lon="1.6188">
        <ele>126</ele>
        <time>2010-05-15T07:33:49Z</time>
      </trkpt>
      <trkpt lat="48.61286" lon="1.61882">
        <ele>126</ele>
        <time>2010-05-15T07:33:50Z</time>
      </trkpt>
      <trkpt lat="48.61286" lon="1.61884">
        <ele>126</ele>
        <time>2010-05-15T07:33:51Z</time>
      </trkpt>
      <trkpt lat="48.61286" lon="1.61886">
        <ele>126</ele>
        <time>2010-05-15T07:33:52Z</time>
      </trkpt>
      <trkpt lat="48.61286" lon="1.61888">
        <ele>126</ele>
        <time>2010-05-15T07:33:53Z</time>
      </trkpt>
      <trkpt lat="48.61286" lon="1.6189">
        <ele>126</ele>
        <time>2010-05-15T07:33:54Z</time>
      </trkpt>
      <trkpt lat="48.61286" lon="1.61892">
        <ele>126</ele>
        <time>2010-05-15T07:33:55Z</time>
      </trkpt>
      <trkpt lat="48.61286" lon="1.61894">
        <ele>126</ele>
        <time>2010-05-15T07:33:56Z</time>
      </trkpt>
      <trkpt lat="48.61286" lon="1.61896">
        <ele>126</ele>
        <time>2010-05-15T07:33:57Z</time>
      </trkpt>
      <trkpt lat="48.61286" lon="1.61898">
        <ele>126</ele>
        <time>2010-05-15T07:33:58Z</time>
      </trkpt>
      <trkpt lat="48.61286" lon="1.619">
        <ele>126</ele>
        <time>2010-05-15T07:33:59Z</time>
      </trkpt>
      <trkpt lat="48.61286" lon="1.61902">
        <ele>126</ele>
        <time>2010-05-15T07:34:00Z</time>
      </trkpt>
      <trkpt lat="48.61286" lon="1.61904">
        <ele>126</ele>
        <time>2010-05-15T07:34:01Z</time>
      </trkpt>
      <trkpt lat="48.61286" lon="1.61906">
        <ele>126</ele>
        <time>2010-05-15T07:34:02Z</time>
      </trkpt>
      <trkpt lat="48.61286" lon="1.61908">
        <ele>126</ele>
        <time>2010-05-15T07:34:03Z</time>
      </trkpt>
      <trkpt lat="48.61286" lon="1.6191">
        <ele>126</ele>
        <time>2010-05-15T07:34:04Z</time>
      </trkpt>
      <trkpt lat="48.61286" lon="1.61912">
        <ele>126</ele>
        <time>2010-05-15T07:34:05Z</time>
      </trkpt>
      <trkpt lat="48.61286" lon="1.61914">
        <ele>126</ele>
        <time>2010-05-15T07:34:06Z</time>
      </trkpt>
      <trkpt lat="48.61286" lon="1.61915">
        <ele>126</ele>
        <time>2010-05-15T07:34:07Z</time>
      </trkpt>
      <trkpt lat="48.61286" lon="1.61917">
        <ele>126</ele>
        <time>2010-05-15T07:34:08Z</time>
      </trkpt>
      <trkpt lat="48.61286" lon="1.61919">
        <ele>126</ele>
        <time>2010-05-15T07:34:09Z</time>
      </trkpt>
      <trkpt lat="48.61286" lon="1.61921">
        <ele>126</ele>
        <time>2010-05-15T07:34:10Z</time>
      </trkpt>
      <trkpt lat="48.61286" lon="1.61923">
        <ele>126</ele>
        <time>2010-05-15T07:34:11Z</time>
      </trkpt>
      <trkpt lat="48.61286" lon="1.61925">
        <ele>126</ele>
        <time>2010-05-15T07:34:12Z</time>
      </trkpt>
      <trkpt lat="48.61286" lon="1.61927">
        <ele>126</ele>
        <time>2010-05-15T07:34:13Z</time>
      </trkpt>
      <trkpt lat="48.61286" lon="1.61929">
        <ele>126</ele>
        <time>2010-05-15T07:34:14Z</time>
      </trkpt>
      <trkpt lat="48.61286" lon="1.61931">
        <ele>126</ele>
        <time>2010-05-15T07:34:15Z</time>
      </trkpt>
      <trkpt lat="48.61286" lon="1.61933">
        <ele>126</ele>
        <time>2010-05-15T07:34:16Z</time>
      </trkpt>
      <trkpt lat="48.61286" lon="1.61935">
        <ele>126</ele>
        <time>2010-05-15T07:34:17Z</time>
      </trkpt>
      <trkpt lat="48.61286" lon="1.61937">
        <ele>126</ele>
        <time>2010-05-15T07:34:18Z</time>
      </trkpt>
      <trkpt lat="48.61286" lon="1.61939">
        <ele>126</ele>
        <time>2010-05-15T07:34:19Z</time>
      </trkpt>
      <trkpt lat="48.61286" lon="1.61941">
        <ele>126</ele>
        <time>2010-05-15T07:34:20Z</time>
      </trkpt>
      <trkpt lat="48.61286" lon="1.61943">
        <ele>126</ele>
        <time>2010-05-15T07:34:21Z</time>
      </trkpt>
      <trkpt lat="48.61286" lon="1.61945">
        <ele>126</ele>
        <time>2010-05-15T07:34:22Z</time>
      </trkpt>
      <trkpt lat="48.61286" lon="1.61947">
        <ele>126</ele>
        <time>2010-05-15T07:34:23Z</time>
      </trkpt>
      <trkpt lat="48.61286" lon="1.61949">
        <ele>126</ele>
        <time>2010-05-15T07:34:24Z</time>
      </trkpt>
      <trkpt lat="48.61286" lon="1.6195">
        <ele>126</ele>
        <time>2010-05-15T07:34:25Z</time>
      </trkpt>
      <trkpt lat="48.61286" lon="1.61952">
        <ele>126</ele>
        <time>2010-05-15T07:34:26Z</time>
      </trkpt>
      <trkpt lat="48.61286" lon="1.61954">
        <ele>126</ele>
        <time>2010-05-15T07:34:27Z</time>
      </trkpt>
      <trkpt lat="48.61286" lon="1.61956">
        <ele>126</ele>
        <time>2010-05-15T07:34:28Z</time>
      </trkpt>
      <trkpt lat="48.61286" lon="1.61958">
        <ele>126</ele>
        <time>2010-05-15T07:34:29Z</time>
      </trkpt>
      <trkpt lat="48.61286" lon="1.6196">
        <ele>126</ele>
        <time>2010-05-15T07:34:30Z</time>
      </trkpt>
      <trkpt lat="48.61286" lon="1.61962">
        <ele>126</ele>
        <time>2010-05-15T07:34:31Z</time>
      </trkpt>
      <trkpt lat="48.61286" lon="1.61963">
        <ele>126</ele>
        <time>2010-05-15T07:34:32Z</time>
      </trkpt>
      <trkpt lat="48.61287" lon="1.61965">
        <ele>126</ele>
        <time>2010-05-15T07:34:33Z</time>
      </trkpt>
      <trkpt lat="48.61287" lon="1.61967">
        <ele>126</ele>
        <time>2010-05-15T07:34:34Z</time>
      </trkpt>
      <trkpt lat="48.61287" lon="1.61969">
        <ele>126</ele>
        <time>2010-05-15T07:34:35Z</time>
      </trkpt>
      <trkpt lat="48.61287" lon="1.61971">
        <ele>126</ele>
        <time>2010-05-15T07:34:36Z</time>
      </trkpt>
      <trkpt lat="48.61287" lon="1.61973">
        <ele>126</ele>
        <time>2010-05-15T07:34:37Z</time>
      </trkpt>
      <trkpt lat="48.61287" lon="1.61975">
        <ele>126</ele>
        <time>2010-05-15T07:34:38Z</time>
      </trkpt>
      <trkpt lat="48.61287" lon="1.61976">
        <ele>126</ele>
        <time>2010-05-15T07:34:39Z</time>
      </trkpt>
      <trkpt lat="48.61287" lon="1.61978">
        <ele>126</ele>
        <time>2010-05-15T07:34:40Z</time>
      </trkpt>
      <trkpt lat="48.61287" lon="1.6198">
        <ele>126</ele>
        <time>2010-05-15T07:34:41Z</time>
      </trkpt>
      <trkpt lat="48.61287" lon="1.61982">
        <ele>126</ele>
        <time>2010-05-15T07:34:42Z</time>
      </trkpt>
      <trkpt lat="48.61287" lon="1.61983">
        <ele>126</ele>
        <time>2010-05-15T07:34:43Z</time>
      </trkpt>
      <trkpt lat="48.61287" lon="1.61985">
        <ele>126</ele>
        <time>2010-05-15T07:34:44Z</time>
      </trkpt>
      <trkpt lat="48.61287" lon="1.61987">
        <ele>126</ele>
        <time>2010-05-15T07:34:45Z</time>
      </trkpt>
      <trkpt lat="48.61287" lon="1.61989">
        <ele>126</ele>
        <time>2010-05-15T07:34:46Z</time>
      </trkpt>
      <trkpt lat="48.61287" lon="1.61991">
        <ele>126</ele>
        <time>2010-05-15T07:34:47Z</time>
      </trkpt>
      <trkpt lat="48.61287" lon="1.61993">
        <ele>126</ele>
        <time>2010-05-15T07:34:48Z</time>
      </trkpt>
      <trkpt lat="48.61287" lon="1.61994">
        <ele>126</ele>
        <time>2010-05-15T07:34:49Z</time>
      </trkpt>
      <trkpt lat="48.61288" lon="1.61996">
        <ele>126</ele>
        <time>2010-05-15T07:34:50Z</time>
      </trkpt>
      <trkpt lat="48.61288" lon="1.61998">
        <ele>126</ele>
        <time>2010-05-15T07:34:51Z</time>
      </trkpt>
      <trkpt lat="48.61288" lon="1.62">
        <ele>126</ele>
        <time>2010-05-15T07:34:52Z</time>
      </trkpt>
      <trkpt lat="48.61288" lon="1.62002">
        <ele>126</ele>
        <time>2010-05-15T07:34:53Z</time>
      </trkpt>
      <trkpt lat="48.61288" lon="1.62004">
        <ele>126</ele>
        <time>2010-05-15T07:34:54Z</time>
      </trkpt>
      <trkpt lat="48.61288" lon="1.62005">
        <ele>126</ele>
        <time>2010-05-15T07:34:55Z</time>
      </trkpt>
      <trkpt lat="48.61288" lon="1.62007">
        <ele>126</ele>
        <time>2010-05-15T07:34:56Z</time>
      </trkpt>
      <trkpt lat="48.61288" lon="1.62009">
        <ele>126</ele>
        <time>2010-05-15T07:34:57Z</time>
      </trkpt>
      <trkpt lat="48.61288" lon="1.62011">
        <ele>126</ele>
        <time>2010-05-15T07:34:58Z</time>
      </trkpt>
      <trkpt lat="48.61289" lon="1.62013">
        <ele>126</ele>
        <time>2010-05-15T07:34:59Z</time>
      </trkpt>
      <trkpt lat="48.61289" lon="1.62014">
        <ele>126</ele>
        <time>2010-05-15T07:35:00Z</time>
      </trkpt>
      <trkpt lat="48.61289" lon="1.62016">
        <ele>126</ele>
        <time>2010-05-15T07:35:01Z</time>
      </trkpt>
      <trkpt lat="48.61289" lon="1.62018">
        <ele>126</ele>
        <time>2010-05-15T07:35:02Z</time>
      </trkpt>
      <trkpt lat="48.61289" lon="1.6202">
        <ele>126</ele>
        <time>2010-05-15T07:35:03Z</time>
      </trkpt>
      <trkpt lat="48.61289" lon="1.62022">
        <ele>126</ele>
        <time>2010-05-15T07:35:04Z</time>
      </trkpt>
      <trkpt lat="48.61289" lon="1.62024">
        <ele>126</ele>
        <time>2010-05-15T07:35:05Z</time>
      </trkpt>
      <trkpt lat="48.61289" lon="1.62026">
        <ele>126</ele>
        <time>2010-05-15T07:35:06Z</time>
      </trkpt>
      <trkpt lat="48.61289" lon="1.62028">
        <ele>126</ele>
        <time>2010-05-15T07:35:07Z</time>
      </trkpt>
      <trkpt lat="48.61289" lon="1.6203">
        <ele>126</ele>
        <time>2010-05-15T07:35:08Z</time>
      </trkpt>
      <trkpt lat="48.61289" lon="1.62032">
        <ele>126</ele>
        <time>2010-05-15T07:35:09Z</time>
      </trkpt>
      <trkpt lat="48.61289" lon="1.62033">
        <ele>126</ele>
        <time>2010-05-15T07:35:10Z</time>
      </trkpt>
      <trkpt lat="48.61289" lon="1.62035">
        <ele>126</ele>
        <time>2010-05-15T07:35:11Z</time>
      </trkpt>
      <trkpt lat="48.6129" lon="1.62037">
        <ele>126</ele>
        <time>2010-05-15T07:35:12Z</time>
      </trkpt>
      <trkpt lat="48.6129" lon="1.62039">
        <ele>126</ele>
        <time>2010-05-15T07:35:13Z</time>
      </trkpt>
      <trkpt lat="48.6129" lon="1.62041">
        <ele>126</ele>
        <time>2010-05-15T07:35:14Z</time>
      </trkpt>
      <trkpt lat="48.6129" lon="1.62043">
        <ele>126</ele>
        <time>2010-05-15T07:35:15Z</time>
      </trkpt>
      <trkpt lat="48.6129" lon="1.62044">
        <ele>126</ele>
        <time>2010-05-15T07:35:16Z</time>
      </trkpt>
      <trkpt lat="48.6129" lon="1.62046">
        <ele>126</ele>
        <time>2010-05-15T07:35:17Z</time>
      </trkpt>
      <trkpt lat="48.6129" lon="1.62048">
        <ele>126</ele>
        <time>2010-05-15T07:35:18Z</time>
      </trkpt>
      <trkpt lat="48.6129" lon="1.6205">
        <ele>126</ele>
        <time>2010-05-15T07:35:19Z</time>
      </trkpt>
      <trkpt lat="48.6129" lon="1.62052">
        <ele>126</ele>
        <time>2010-05-15T07:35:20Z</time>
      </trkpt>
      <trkpt lat="48.6129" lon="1.62054">
        <ele>126</ele>
        <time>2010-05-15T07:35:21Z</time>
      </trkpt>
      <trkpt lat="48.6129" lon="1.62056">
        <ele>126</ele>
        <time>2010-05-15T07:35:22Z</time>
      </trkpt>
      <trkpt lat="48.61289" lon="1.62058">
        <ele>126</ele>
        <time>2010-05-15T07:35:23Z</time>
      </trkpt>
      <trkpt lat="48.61289" lon="1.6206">
        <ele>126</ele>
        <time>2010-05-15T07:35:24Z</time>
      </trkpt>
      <trkpt lat="48.61289" lon="1.62061">
        <ele>126</ele>
        <time>2010-05-15T07:35:25Z</time>
      </trkpt>
      <trkpt lat="48.61289" lon="1.62065">
        <ele>126</ele>
        <time>2010-05-15T07:35:27Z</time>
      </trkpt>
      <trkpt lat="48.61289" lon="1.62067">
        <ele>126</ele>
        <time>2010-05-15T07:35:28Z</time>
      </trkpt>
      <trkpt lat="48.61289" lon="1.62069">
        <ele>126</ele>
        <time>2010-05-15T07:35:29Z</time>
      </trkpt>
      <trkpt lat="48.61289" lon="1.6207">
        <ele>126</ele>
        <time>2010-05-15T07:35:30Z</time>
      </trkpt>
      <trkpt lat="48.61289" lon="1.62073">
        <ele>125</ele>
        <time>2010-05-15T07:35:32Z</time>
      </trkpt>
      <trkpt lat="48.61289" lon="1.62075">
        <ele>125</ele>
        <time>2010-05-15T07:35:33Z</time>
      </trkpt>
      <trkpt lat="48.61289" lon="1.62077">
        <ele>125</ele>
        <time>2010-05-15T07:35:34Z</time>
      </trkpt>
      <trkpt lat="48.61288" lon="1.62079">
        <ele>125</ele>
        <time>2010-05-15T07:35:35Z</time>
      </trkpt>
      <trkpt lat="48.61288" lon="1.6208">
        <ele>124</ele>
        <time>2010-05-15T07:35:36Z</time>
      </trkpt>
      <trkpt lat="48.61288" lon="1.62082">
        <ele>124</ele>
        <time>2010-05-15T07:35:37Z</time>
      </trkpt>
      <trkpt lat="48.61288" lon="1.62084">
        <ele>124</ele>
        <time>2010-05-15T07:35:38Z</time>
      </trkpt>
      <trkpt lat="48.61288" lon="1.62086">
        <ele>124</ele>
        <time>2010-05-15T07:35:39Z</time>
      </trkpt>
      <trkpt lat="48.61288" lon="1.62088">
        <ele>124</ele>
        <time>2010-05-15T07:35:40Z</time>
      </trkpt>
      <trkpt lat="48.61288" lon="1.6209">
        <ele>124</ele>
        <time>2010-05-15T07:35:41Z</time>
      </trkpt>
      <trkpt lat="48.61288" lon="1.62092">
        <ele>123</ele>
        <time>2010-05-15T07:35:42Z</time>
      </trkpt>
      <trkpt lat="48.61288" lon="1.62094">
        <ele>123</ele>
        <time>2010-05-15T07:35:43Z</time>
      </trkpt>
      <trkpt lat="48.61287" lon="1.62096">
        <ele>123</ele>
        <time>2010-05-15T07:35:44Z</time>
      </trkpt>
      <trkpt lat="48.61287" lon="1.62098">
        <ele>122</ele>
        <time>2010-05-15T07:35:45Z</time>
      </trkpt>
      <trkpt lat="48.61287" lon="1.621">
        <ele>122</ele>
        <time>2010-05-15T07:35:46Z</time>
      </trkpt>
      <trkpt lat="48.61287" lon="1.62102">
        <ele>122</ele>
        <time>2010-05-15T07:35:47Z</time>
      </trkpt>
      <trkpt lat="48.61287" lon="1.62104">
        <ele>122</ele>
        <time>2010-05-15T07:35:48Z</time>
      </trkpt>
      <trkpt lat="48.61287" lon="1.62106">
        <ele>122</ele>
        <time>2010-05-15T07:35:49Z</time>
      </trkpt>
      <trkpt lat="48.61287" lon="1.62108">
        <ele>122</ele>
        <time>2010-05-15T07:35:50Z</time>
      </trkpt>
      <trkpt lat="48.61287" lon="1.6211">
        <ele>122</ele>
        <time>2010-05-15T07:35:51Z</time>
      </trkpt>
      <trkpt lat="48.61287" lon="1.62112">
        <ele>122</ele>
        <time>2010-05-15T07:35:52Z</time>
      </trkpt>
      <trkpt lat="48.61287" lon="1.62114">
        <ele>121</ele>
        <time>2010-05-15T07:35:53Z</time>
      </trkpt>
      <trkpt lat="48.61286" lon="1.62116">
        <ele>121</ele>
        <time>2010-05-15T07:35:54Z</time>
      </trkpt>
      <trkpt lat="48.61286" lon="1.62118">
        <ele>121</ele>
        <time>2010-05-15T07:35:55Z</time>
      </trkpt>
      <trkpt lat="48.61286" lon="1.6212">
        <ele>121</ele>
        <time>2010-05-15T07:35:56Z</time>
      </trkpt>
      <trkpt lat="48.61286" lon="1.62122">
        <ele>121</ele>
        <time>2010-05-15T07:35:57Z</time>
      </trkpt>
      <trkpt lat="48.61286" lon="1.62124">
        <ele>121</ele>
        <time>2010-05-15T07:35:58Z</time>
      </trkpt>
      <trkpt lat="48.61286" lon="1.62126">
        <ele>121</ele>
        <time>2010-05-15T07:35:59Z</time>
      </trkpt>
      <trkpt lat="48.61287" lon="1.62128">
        <ele>121</ele>
        <time>2010-05-15T07:36:00Z</time>
      </trkpt>
      <trkpt lat="48.61287" lon="1.6213">
        <ele>121</ele>
        <time>2010-05-15T07:36:01Z</time>
      </trkpt>
      <trkpt lat="48.61287" lon="1.62131">
        <ele>121</ele>
        <time>2010-05-15T07:36:02Z</time>
      </trkpt>
      <trkpt lat="48.61287" lon="1.62133">
        <ele>121</ele>
        <time>2010-05-15T07:36:03Z</time>
      </trkpt>
      <trkpt lat="48.61288" lon="1.62135">
        <ele>121</ele>
        <time>2010-05-15T07:36:04Z</time>
      </trkpt>
      <trkpt lat="48.61288" lon="1.62138">
        <ele>121</ele>
        <time>2010-05-15T07:36:06Z</time>
      </trkpt>
      <trkpt lat="48.61288" lon="1.6214">
        <ele>121</ele>
        <time>2010-05-15T07:36:08Z</time>
      </trkpt>
      <trkpt lat="48.61289" lon="1.62143">
        <ele>121</ele>
        <time>2010-05-15T07:36:10Z</time>
      </trkpt>
      <trkpt lat="48.6129" lon="1.62145">
        <ele>121</ele>
        <time>2010-05-15T07:36:12Z</time>
      </trkpt>
      <trkpt lat="48.6129" lon="1.62148">
        <ele>120</ele>
        <time>2010-05-15T07:36:14Z</time>
      </trkpt>
      <trkpt lat="48.61291" lon="1.6215">
        <ele>120</ele>
        <time>2010-05-15T07:36:18Z</time>
      </trkpt>
      <trkpt lat="48.61292" lon="1.62153">
        <ele>120</ele>
        <time>2010-05-15T07:36:20Z</time>
      </trkpt>
      <trkpt lat="48.61293" lon="1.62156">
        <ele>120</ele>
        <time>2010-05-15T07:36:22Z</time>
      </trkpt>
      <trkpt lat="48.61294" lon="1.62159">
        <ele>120</ele>
        <time>2010-05-15T07:36:24Z</time>
      </trkpt>
      <trkpt lat="48.61295" lon="1.62161">
        <ele>120</ele>
        <time>2010-05-15T07:36:26Z</time>
      </trkpt>
      <trkpt lat="48.61295" lon="1.62163">
        <ele>120</ele>
        <time>2010-05-15T07:36:27Z</time>
      </trkpt>
      <trkpt lat="48.61297" lon="1.62166">
        <ele>120</ele>
        <time>2010-05-15T07:36:29Z</time>
      </trkpt>
      <trkpt lat="48.61298" lon="1.62169">
        <ele>120</ele>
        <time>2010-05-15T07:36:31Z</time>
      </trkpt>
      <trkpt lat="48.61298" lon="1.62171">
        <ele>120</ele>
        <time>2010-05-15T07:36:32Z</time>
      </trkpt>
      <trkpt lat="48.61299" lon="1.62172">
        <ele>120</ele>
        <time>2010-05-15T07:36:33Z</time>
      </trkpt>
      <trkpt lat="48.613" lon="1.62174">
        <ele>120</ele>
        <time>2010-05-15T07:36:34Z</time>
      </trkpt>
      <trkpt lat="48.613" lon="1.62176">
        <ele>120</ele>
        <time>2010-05-15T07:36:35Z</time>
      </trkpt>
      <trkpt lat="48.61301" lon="1.62177">
        <ele>120</ele>
        <time>2010-05-15T07:36:36Z</time>
      </trkpt>
      <trkpt lat="48.61302" lon="1.62179">
        <ele>120</ele>
        <time>2010-05-15T07:36:37Z</time>
      </trkpt>
      <trkpt lat="48.61302" lon="1.62181">
        <ele>120</ele>
        <time>2010-05-15T07:36:38Z</time>
      </trkpt>
      <trkpt lat="48.61303" lon="1.62183">
        <ele>120</ele>
        <time>2010-05-15T07:36:39Z</time>
      </trkpt>
      <trkpt lat="48.61303" lon="1.62184">
        <ele>120</ele>
        <time>2010-05-15T07:36:40Z</time>
      </trkpt>
      <trkpt lat="48.61304" lon="1.62186">
        <ele>120</ele>
        <time>2010-05-15T07:36:41Z</time>
      </trkpt>
      <trkpt lat="48.61304" lon="1.62188">
        <ele>120</ele>
        <time>2010-05-15T07:36:42Z</time>
      </trkpt>
      <trkpt lat="48.61304" lon="1.6219">
        <ele>120</ele>
        <time>2010-05-15T07:36:43Z</time>
      </trkpt>
      <trkpt lat="48.61305" lon="1.62192">
        <ele>120</ele>
        <time>2010-05-15T07:36:44Z</time>
      </trkpt>
      <trkpt lat="48.61305" lon="1.62194">
        <ele>120</ele>
        <time>2010-05-15T07:36:45Z</time>
      </trkpt>
      <trkpt lat="48.61306" lon="1.62196">
        <ele>120</ele>
        <time>2010-05-15T07:36:46Z</time>
      </trkpt>
      <trkpt lat="48.61307" lon="1.62198">
        <ele>120</ele>
        <time>2010-05-15T07:36:47Z</time>
      </trkpt>
      <trkpt lat="48.61307" lon="1.622">
        <ele>120</ele>
        <time>2010-05-15T07:36:48Z</time>
      </trkpt>
      <trkpt lat="48.61308" lon="1.62202">
        <ele>120</ele>
        <time>2010-05-15T07:36:49Z</time>
      </trkpt>
      <trkpt lat="48.61308" lon="1.62204">
        <ele>120</ele>
        <time>2010-05-15T07:36:50Z</time>
      </trkpt>
      <trkpt lat="48.61308" lon="1.62206">
        <ele>120</ele>
        <time>2010-05-15T07:36:51Z</time>
      </trkpt>
      <trkpt lat="48.61309" lon="1.62208">
        <ele>119</ele>
        <time>2010-05-15T07:36:52Z</time>
      </trkpt>
      <trkpt lat="48.61309" lon="1.62209">
        <ele>119</ele>
        <time>2010-05-15T07:36:53Z</time>
      </trkpt>
      <trkpt lat="48.6131" lon="1.62211">
        <ele>119</ele>
        <time>2010-05-15T07:36:54Z</time>
      </trkpt>
      <trkpt lat="48.6131" lon="1.62213">
        <ele>119</ele>
        <time>2010-05-15T07:36:55Z</time>
      </trkpt>
      <trkpt lat="48.61311" lon="1.62215">
        <ele>119</ele>
        <time>2010-05-15T07:36:56Z</time>
      </trkpt>
      <trkpt lat="48.61311" lon="1.62217">
        <ele>119</ele>
        <time>2010-05-15T07:36:57Z</time>
      </trkpt>
      <trkpt lat="48.61312" lon="1.62218">
        <ele>119</ele>
        <time>2010-05-15T07:36:58Z</time>
      </trkpt>
      <trkpt lat="48.61312" lon="1.6222">
        <ele>118</ele>
        <time>2010-05-15T07:36:59Z</time>
      </trkpt>
      <trkpt lat="48.61313" lon="1.62222">
        <ele>118</ele>
        <time>2010-05-15T07:37:00Z</time>
      </trkpt>
      <trkpt lat="48.61313" lon="1.62224">
        <ele>118</ele>
        <time>2010-05-15T07:37:01Z</time>
      </trkpt>
      <trkpt lat="48.61314" lon="1.62226">
        <ele>118</ele>
        <time>2010-05-15T07:37:02Z</time>
      </trkpt>
      <trkpt lat="48.61314" lon="1.62227">
        <ele>118</ele>
        <time>2010-05-15T07:37:03Z</time>
      </trkpt>
      <trkpt lat="48.61314" lon="1.6223">
        <ele>117</ele>
        <time>2010-05-15T07:37:04Z</time>
      </trkpt>
      <trkpt lat="48.61314" lon="1.62232">
        <ele>117</ele>
        <time>2010-05-15T07:37:05Z</time>
      </trkpt>
      <trkpt lat="48.61315" lon="1.62234">
        <ele>117</ele>
        <time>2010-05-15T07:37:06Z</time>
      </trkpt>
      <trkpt lat="48.61315" lon="1.62235">
        <ele>117</ele>
        <time>2010-05-15T07:37:07Z</time>
      </trkpt>
      <trkpt lat="48.61316" lon="1.62237">
        <ele>117</ele>
        <time>2010-05-15T07:37:08Z</time>
      </trkpt>
      <trkpt lat="48.61316" lon="1.62239">
        <ele>116</ele>
        <time>2010-05-15T07:37:09Z</time>
      </trkpt>
      <trkpt lat="48.61316" lon="1.62241">
        <ele>116</ele>
        <time>2010-05-15T07:37:10Z</time>
      </trkpt>
      <trkpt lat="48.61317" lon="1.62243">
        <ele>116</ele>
        <time>2010-05-15T07:37:11Z</time>
      </trkpt>
      <trkpt lat="48.61317" lon="1.62245">
        <ele>116</ele>
        <time>2010-05-15T07:37:12Z</time>
      </trkpt>
      <trkpt lat="48.61318" lon="1.62247">
        <ele>115</ele>
        <time>2010-05-15T07:37:13Z</time>
      </trkpt>
      <trkpt lat="48.61318" lon="1.62249">
        <ele>115</ele>
        <time>2010-05-15T07:37:14Z</time>
      </trkpt>
      <trkpt lat="48.61318" lon="1.62251">
        <ele>115</ele>
        <time>2010-05-15T07:37:15Z</time>
      </trkpt>
      <trkpt lat="48.61319" lon="1.62253">
        <ele>115</ele>
        <time>2010-05-15T07:37:16Z</time>
      </trkpt>
      <trkpt lat="48.61319" lon="1.62254">
        <ele>115</ele>
        <time>2010-05-15T07:37:17Z</time>
      </trkpt>
      <trkpt lat="48.6132" lon="1.62256">
        <ele>115</ele>
        <time>2010-05-15T07:37:18Z</time>
      </trkpt>
      <trkpt lat="48.6132" lon="1.62258">
        <ele>115</ele>
        <time>2010-05-15T07:37:19Z</time>
      </trkpt>
      <trkpt lat="48.61321" lon="1.6226">
        <ele>115</ele>
        <time>2010-05-15T07:37:20Z</time>
      </trkpt>
      <trkpt lat="48.61321" lon="1.62262">
        <ele>115</ele>
        <time>2010-05-15T07:37:21Z</time>
      </trkpt>
      <trkpt lat="48.61322" lon="1.62264">
        <ele>115</ele>
        <time>2010-05-15T07:37:22Z</time>
      </trkpt>
      <trkpt lat="48.61322" lon="1.62265">
        <ele>115</ele>
        <time>2010-05-15T07:37:23Z</time>
      </trkpt>
      <trkpt lat="48.61323" lon="1.62267">
        <ele>115</ele>
        <time>2010-05-15T07:37:24Z</time>
      </trkpt>
      <trkpt lat="48.61323" lon="1.62269">
        <ele>115</ele>
        <time>2010-05-15T07:37:25Z</time>
      </trkpt>
      <trkpt lat="48.61324" lon="1.62271">
        <ele>114</ele>
        <time>2010-05-15T07:37:26Z</time>
      </trkpt>
      <trkpt lat="48.61324" lon="1.62273">
        <ele>114</ele>
        <time>2010-05-15T07:37:27Z</time>
      </trkpt>
      <trkpt lat="48.61325" lon="1.62275">
        <ele>114</ele>
        <time>2010-05-15T07:37:28Z</time>
      </trkpt>
      <trkpt lat="48.61325" lon="1.62277">
        <ele>114</ele>
        <time>2010-05-15T07:37:29Z</time>
      </trkpt>
      <trkpt lat="48.61325" lon="1.62279">
        <ele>114</ele>
        <time>2010-05-15T07:37:30Z</time>
      </trkpt>
      <trkpt lat="48.61326" lon="1.62281">
        <ele>114</ele>
        <time>2010-05-15T07:37:31Z</time>
      </trkpt>
      <trkpt lat="48.61327" lon="1.62283">
        <ele>114</ele>
        <time>2010-05-15T07:37:32Z</time>
      </trkpt>
      <trkpt lat="48.61327" lon="1.62285">
        <ele>114</ele>
        <time>2010-05-15T07:37:33Z</time>
      </trkpt>
      <trkpt lat="48.61328" lon="1.62287">
        <ele>114</ele>
        <time>2010-05-15T07:37:34Z</time>
      </trkpt>
      <trkpt lat="48.61328" lon="1.62289">
        <ele>114</ele>
        <time>2010-05-15T07:37:35Z</time>
      </trkpt>
      <trkpt lat="48.61329" lon="1.62291">
        <ele>114</ele>
        <time>2010-05-15T07:37:36Z</time>
      </trkpt>
      <trkpt lat="48.61329" lon="1.62293">
        <ele>114</ele>
        <time>2010-05-15T07:37:37Z</time>
      </trkpt>
      <trkpt lat="48.6133" lon="1.62295">
        <ele>114</ele>
        <time>2010-05-15T07:37:38Z</time>
      </trkpt>
      <trkpt lat="48.6133" lon="1.62297">
        <ele>113</ele>
        <time>2010-05-15T07:37:39Z</time>
      </trkpt>
      <trkpt lat="48.61331" lon="1.62299">
        <ele>113</ele>
        <time>2010-05-15T07:37:40Z</time>
      </trkpt>
      <trkpt lat="48.61331" lon="1.62301">
        <ele>113</ele>
        <time>2010-05-15T07:37:41Z</time>
      </trkpt>
      <trkpt lat="48.61332" lon="1.62304">
        <ele>113</ele>
        <time>2010-05-15T07:37:42Z</time>
      </trkpt>
      <trkpt lat="48.61332" lon="1.62306">
        <ele>113</ele>
        <time>2010-05-15T07:37:43Z</time>
      </trkpt>
      <trkpt lat="48.61333" lon="1.62308">
        <ele>113</ele>
        <time>2010-05-15T07:37:44Z</time>
      </trkpt>
      <trkpt lat="48.61333" lon="1.6231">
        <ele>113</ele>
        <time>2010-05-15T07:37:45Z</time>
      </trkpt>
      <trkpt lat="48.61334" lon="1.62312">
        <ele>113</ele>
        <time>2010-05-15T07:37:46Z</time>
      </trkpt>
      <trkpt lat="48.61334" lon="1.62314">
        <ele>113</ele>
        <time>2010-05-15T07:37:47Z</time>
      </trkpt>
      <trkpt lat="48.61334" lon="1.62316">
        <ele>113</ele>
        <time>2010-05-15T07:37:48Z</time>
      </trkpt>
      <trkpt lat="48.61335" lon="1.62318">
        <ele>113</ele>
        <time>2010-05-15T07:37:49Z</time>
      </trkpt>
      <trkpt lat="48.61335" lon="1.62321">
        <ele>113</ele>
        <time>2010-05-15T07:37:50Z</time>
      </trkpt>
      <trkpt lat="48.61336" lon="1.62322">
        <ele>113</ele>
        <time>2010-05-15T07:37:51Z</time>
      </trkpt>
      <trkpt lat="48.61336" lon="1.62324">
        <ele>113</ele>
        <time>2010-05-15T07:37:52Z</time>
      </trkpt>
      <trkpt lat="48.61337" lon="1.62326">
        <ele>113</ele>
        <time>2010-05-15T07:37:53Z</time>
      </trkpt>
      <trkpt lat="48.61337" lon="1.62328">
        <ele>113</ele>
        <time>2010-05-15T07:37:54Z</time>
      </trkpt>
      <trkpt lat="48.61338" lon="1.62331">
        <ele>113</ele>
        <time>2010-05-15T07:37:55Z</time>
      </trkpt>
      <trkpt lat="48.61339" lon="1.62333">
        <ele>113</ele>
        <time>2010-05-15T07:37:56Z</time>
      </trkpt>
      <trkpt lat="48.61339" lon="1.62335">
        <ele>113</ele>
        <time>2010-05-15T07:37:57Z</time>
      </trkpt>
      <trkpt lat="48.6134" lon="1.62337">
        <ele>113</ele>
        <time>2010-05-15T07:37:58Z</time>
      </trkpt>
      <trkpt lat="48.6134" lon="1.62339">
        <ele>113</ele>
        <time>2010-05-15T07:37:59Z</time>
      </trkpt>
      <trkpt lat="48.61341" lon="1.6234">
        <ele>113</ele>
        <time>2010-05-15T07:38:00Z</time>
      </trkpt>
      <trkpt lat="48.61342" lon="1.62343">
        <ele>113</ele>
        <time>2010-05-15T07:38:01Z</time>
      </trkpt>
      <trkpt lat="48.61342" lon="1.62345">
        <ele>113</ele>
        <time>2010-05-15T07:38:02Z</time>
      </trkpt>
      <trkpt lat="48.61343" lon="1.62347">
        <ele>113</ele>
        <time>2010-05-15T07:38:03Z</time>
      </trkpt>
      <trkpt lat="48.61343" lon="1.62349">
        <ele>113</ele>
        <time>2010-05-15T07:38:04Z</time>
      </trkpt>
      <trkpt lat="48.61344" lon="1.62351">
        <ele>113</ele>
        <time>2010-05-15T07:38:05Z</time>
      </trkpt>
      <trkpt lat="48.61344" lon="1.62353">
        <ele>113</ele>
        <time>2010-05-15T07:38:06Z</time>
      </trkpt>
      <trkpt lat="48.61344" lon="1.62355">
        <ele>113</ele>
        <time>2010-05-15T07:38:07Z</time>
      </trkpt>
      <trkpt lat="48.61345" lon="1.62357">
        <ele>113</ele>
        <time>2010-05-15T07:38:08Z</time>
      </trkpt>
      <trkpt lat="48.61345" lon="1.62359">
        <ele>113</ele>
        <time>2010-05-15T07:38:09Z</time>
      </trkpt>
      <trkpt lat="48.61345" lon="1.62361">
        <ele>113</ele>
        <time>2010-05-15T07:38:10Z</time>
      </trkpt>
      <trkpt lat="48.61345" lon="1.62363">
        <ele>113</ele>
        <time>2010-05-15T07:38:11Z</time>
      </trkpt>
      <trkpt lat="48.61345" lon="1.62365">
        <ele>113</ele>
        <time>2010-05-15T07:38:12Z</time>
      </trkpt>
      <trkpt lat="48.61345" lon="1.62367">
        <ele>113</ele>
        <time>2010-05-15T07:38:13Z</time>
      </trkpt>
      <trkpt lat="48.61345" lon="1.62369">
        <ele>112</ele>
        <time>2010-05-15T07:38:14Z</time>
      </trkpt>
      <trkpt lat="48.61344" lon="1.62371">
        <ele>112</ele>
        <time>2010-05-15T07:38:15Z</time>
      </trkpt>
      <trkpt lat="48.61344" lon="1.62373">
        <ele>112</ele>
        <time>2010-05-15T07:38:16Z</time>
      </trkpt>
      <trkpt lat="48.61343" lon="1.62375">
        <ele>112</ele>
        <time>2010-05-15T07:38:17Z</time>
      </trkpt>
      <trkpt lat="48.61342" lon="1.62376">
        <ele>112</ele>
        <time>2010-05-15T07:38:18Z</time>
      </trkpt>
      <trkpt lat="48.61341" lon="1.62378">
        <ele>111</ele>
        <time>2010-05-15T07:38:19Z</time>
      </trkpt>
      <trkpt lat="48.61341" lon="1.6238">
        <ele>111</ele>
        <time>2010-05-15T07:38:20Z</time>
      </trkpt>
      <trkpt lat="48.6134" lon="1.62381">
        <ele>111</ele>
        <time>2010-05-15T07:38:21Z</time>
      </trkpt>
      <trkpt lat="48.61339" lon="1.62383">
        <ele>110</ele>
        <time>2010-05-15T07:38:22Z</time>
      </trkpt>
      <trkpt lat="48.61338" lon="1.62385">
        <ele>110</ele>
        <time>2010-05-15T07:38:23Z</time>
      </trkpt>
      <trkpt lat="48.61338" lon="1.62387">
        <ele>109</ele>
        <time>2010-05-15T07:38:24Z</time>
      </trkpt>
      <trkpt lat="48.61337" lon="1.62388">
        <ele>109</ele>
        <time>2010-05-15T07:38:25Z</time>
      </trkpt>
      <trkpt lat="48.61336" lon="1.6239">
        <ele>109</ele>
        <time>2010-05-15T07:38:26Z</time>
      </trkpt>
      <trkpt lat="48.61335" lon="1.62392">
        <ele>108</ele>
        <time>2010-05-15T07:38:27Z</time>
      </trkpt>
      <trkpt lat="48.61335" lon="1.62393">
        <ele>108</ele>
        <time>2010-05-15T07:38:28Z</time>
      </trkpt>
      <trkpt lat="48.61333" lon="1.62397">
        <ele>107</ele>
        <time>2010-05-15T07:38:30Z</time>
      </trkpt>
      <trkpt lat="48.61332" lon="1.62398">
        <ele>107</ele>
        <time>2010-05-15T07:38:31Z</time>
      </trkpt>
      <trkpt lat="48.61331" lon="1.624">
        <ele>107</ele>
        <time>2010-05-15T07:38:32Z</time>
      </trkpt>
      <trkpt lat="48.6133" lon="1.62402">
        <ele>107</ele>
        <time>2010-05-15T07:38:33Z</time>
      </trkpt>
      <trkpt lat="48.61329" lon="1.62405">
        <ele>106</ele>
        <time>2010-05-15T07:38:35Z</time>
      </trkpt>
      <trkpt lat="48.61327" lon="1.62408">
        <ele>106</ele>
        <time>2010-05-15T07:38:37Z</time>
      </trkpt>
      <trkpt lat="48.61326" lon="1.6241">
        <ele>106</ele>
        <time>2010-05-15T07:38:38Z</time>
      </trkpt>
      <trkpt lat="48.61326" lon="1.62411">
        <ele>106</ele>
        <time>2010-05-15T07:38:39Z</time>
      </trkpt>
      <trkpt lat="48.61325" lon="1.62413">
        <ele>106</ele>
        <time>2010-05-15T07:38:40Z</time>
      </trkpt>
      <trkpt lat="48.61324" lon="1.62415">
        <ele>105</ele>
        <time>2010-05-15T07:38:41Z</time>
      </trkpt>
      <trkpt lat="48.61323" lon="1.62416">
        <ele>105</ele>
        <time>2010-05-15T07:38:42Z</time>
      </trkpt>
      <trkpt lat="48.61323" lon="1.62418">
        <ele>105</ele>
        <time>2010-05-15T07:38:43Z</time>
      </trkpt>
      <trkpt lat="48.61322" lon="1.6242">
        <ele>105</ele>
        <time>2010-05-15T07:38:44Z</time>
      </trkpt>
      <trkpt lat="48.61322" lon="1.62422">
        <ele>105</ele>
        <time>2010-05-15T07:38:45Z</time>
      </trkpt>
      <trkpt lat="48.61321" lon="1.62424">
        <ele>105</ele>
        <time>2010-05-15T07:38:46Z</time>
      </trkpt>
      <trkpt lat="48.61321" lon="1.62426">
        <ele>105</ele>
        <time>2010-05-15T07:38:46Z</time>
      </trkpt>
      <trkpt lat="48.61321" lon="1.62428">
        <ele>105</ele>
        <time>2010-05-15T07:38:48Z</time>
      </trkpt>
      <trkpt lat="48.6132" lon="1.6243">
        <ele>105</ele>
        <time>2010-05-15T07:38:49Z</time>
      </trkpt>
      <trkpt lat="48.6132" lon="1.62432">
        <ele>105</ele>
        <time>2010-05-15T07:38:50Z</time>
      </trkpt>
      <trkpt lat="48.61321" lon="1.62434">
        <ele>105</ele>
        <time>2010-05-15T07:38:51Z</time>
      </trkpt>
      <trkpt lat="48.61321" lon="1.62436">
        <ele>105</ele>
        <time>2010-05-15T07:38:52Z</time>
      </trkpt>
      <trkpt lat="48.61322" lon="1.62437">
        <ele>105</ele>
        <time>2010-05-15T07:38:53Z</time>
      </trkpt>
      <trkpt lat="48.61323" lon="1.6244">
        <ele>105</ele>
        <time>2010-05-15T07:38:55Z</time>
      </trkpt>
      <trkpt lat="48.61325" lon="1.62443">
        <ele>105</ele>
        <time>2010-05-15T07:38:57Z</time>
      </trkpt>
      <trkpt lat="48.61327" lon="1.62445">
        <ele>105</ele>
        <time>2010-05-15T07:38:59Z</time>
      </trkpt>
      <trkpt lat="48.61329" lon="1.62447">
        <ele>105</ele>
        <time>2010-05-15T07:39:01Z</time>
      </trkpt>
      <trkpt lat="48.61331" lon="1.62449">
        <ele>105</ele>
        <time>2010-05-15T07:39:02Z</time>
      </trkpt>
      <trkpt lat="48.61333" lon="1.6245">
        <ele>105</ele>
        <time>2010-05-15T07:39:04Z</time>
      </trkpt>
      <trkpt lat="48.61334" lon="1.6245">
        <ele>105</ele>
        <time>2010-05-15T07:39:05Z</time>
      </trkpt>
      <trkpt lat="48.61336" lon="1.62452">
        <ele>105</ele>
        <time>2010-05-15T07:39:07Z</time>
      </trkpt>
      <trkpt lat="48.61338" lon="1.62453">
        <ele>105</ele>
        <time>2010-05-15T07:39:09Z</time>
      </trkpt>
      <trkpt lat="48.61339" lon="1.62454">
        <ele>105</ele>
        <time>2010-05-15T07:39:10Z</time>
      </trkpt>
      <trkpt lat="48.61341" lon="1.62455">
        <ele>105</ele>
        <time>2010-05-15T07:39:12Z</time>
      </trkpt>
      <trkpt lat="48.61343" lon="1.62456">
        <ele>105</ele>
        <time>2010-05-15T07:39:14Z</time>
      </trkpt>
      <trkpt lat="48.61344" lon="1.62457">
        <ele>105</ele>
        <time>2010-05-15T07:39:14Z</time>
      </trkpt>
      <trkpt lat="48.61345" lon="1.62457">
        <ele>105</ele>
        <time>2010-05-15T07:39:16Z</time>
      </trkpt>
      <trkpt lat="48.61347" lon="1.62458">
        <ele>105</ele>
        <time>2010-05-15T07:39:17Z</time>
      </trkpt>
      <trkpt lat="48.61348" lon="1.62459">
        <ele>105</ele>
        <time>2010-05-15T07:39:18Z</time>
      </trkpt>
      <trkpt lat="48.6135" lon="1.6246">
        <ele>105</ele>
        <time>2010-05-15T07:39:20Z</time>
      </trkpt>
      <trkpt lat="48.61351" lon="1.6246">
        <ele>105</ele>
        <time>2010-05-15T07:39:21Z</time>
      </trkpt>
      <trkpt lat="48.61353" lon="1.62461">
        <ele>105</ele>
        <time>2010-05-15T07:39:22Z</time>
      </trkpt>
      <trkpt lat="48.61354" lon="1.62463">
        <ele>105</ele>
        <time>2010-05-15T07:39:24Z</time>
      </trkpt>
      <trkpt lat="48.61356" lon="1.62463">
        <ele>105</ele>
        <time>2010-05-15T07:39:25Z</time>
      </trkpt>
      <trkpt lat="48.61358" lon="1.62465">
        <ele>105</ele>
        <time>2010-05-15T07:39:26Z</time>
      </trkpt>
      <trkpt lat="48.61359" lon="1.62466">
        <ele>105</ele>
        <time>2010-05-15T07:39:28Z</time>
      </trkpt>
      <trkpt lat="48.61361" lon="1.62467">
        <ele>105</ele>
        <time>2010-05-15T07:39:30Z</time>
      </trkpt>
      <trkpt lat="48.61364" lon="1.62468">
        <ele>105</ele>
        <time>2010-05-15T07:39:32Z</time>
      </trkpt>
      <trkpt lat="48.61365" lon="1.62469">
        <ele>105</ele>
        <time>2010-05-15T07:39:33Z</time>
      </trkpt>
      <trkpt lat="48.61366" lon="1.62469">
        <ele>105</ele>
        <time>2010-05-15T07:39:34Z</time>
      </trkpt>
      <trkpt lat="48.61367" lon="1.6247">
        <ele>105</ele>
        <time>2010-05-15T07:39:34Z</time>
      </trkpt>
      <trkpt lat="48.61369" lon="1.62472">
        <ele>105</ele>
        <time>2010-05-15T07:39:37Z</time>
      </trkpt>
      <trkpt lat="48.61371" lon="1.62472">
        <ele>105</ele>
        <time>2010-05-15T07:39:38Z</time>
      </trkpt>
      <trkpt lat="48.61373" lon="1.62474">
        <ele>105</ele>
        <time>2010-05-15T07:39:40Z</time>
      </trkpt>
      <trkpt lat="48.61374" lon="1.62475">
        <ele>105</ele>
        <time>2010-05-15T07:39:41Z</time>
      </trkpt>
      <trkpt lat="48.61375" lon="1.62476">
        <ele>105</ele>
        <time>2010-05-15T07:39:42Z</time>
      </trkpt>
      <trkpt lat="48.61376" lon="1.62477">
        <ele>105</ele>
        <time>2010-05-15T07:39:42Z</time>
      </trkpt>
      <trkpt lat="48.61378" lon="1.62478">
        <ele>105</ele>
        <time>2010-05-15T07:39:44Z</time>
      </trkpt>
      <trkpt lat="48.61379" lon="1.62478">
        <ele>105</ele>
        <time>2010-05-15T07:39:45Z</time>
      </trkpt>
      <trkpt lat="48.61381" lon="1.62481">
        <ele>105</ele>
        <time>2010-05-15T07:39:46Z</time>
      </trkpt>
      <trkpt lat="48.61382" lon="1.62481">
        <ele>105</ele>
        <time>2010-05-15T07:39:48Z</time>
      </trkpt>
      <trkpt lat="48.61383" lon="1.62483">
        <ele>105</ele>
        <time>2010-05-15T07:39:49Z</time>
      </trkpt>
      <trkpt lat="48.61385" lon="1.62484">
        <ele>105</ele>
        <time>2010-05-15T07:39:51Z</time>
      </trkpt>
      <trkpt lat="48.61387" lon="1.62485">
        <ele>105</ele>
        <time>2010-05-15T07:39:52Z</time>
      </trkpt>
      <trkpt lat="48.61388" lon="1.62486">
        <ele>105</ele>
        <time>2010-05-15T07:39:53Z</time>
      </trkpt>
      <trkpt lat="48.61389" lon="1.62486">
        <ele>105</ele>
        <time>2010-05-15T07:39:54Z</time>
      </trkpt>
      <trkpt lat="48.6139" lon="1.62487">
        <ele>105</ele>
        <time>2010-05-15T07:39:55Z</time>
      </trkpt>
      <trkpt lat="48.61393" lon="1.6249">
        <ele>105</ele>
        <time>2010-05-15T07:39:57Z</time>
      </trkpt>
      <trkpt lat="48.61394" lon="1.6249">
        <ele>105</ele>
        <time>2010-05-15T07:39:58Z</time>
      </trkpt>
      <trkpt lat="48.61395" lon="1.62491">
        <ele>105</ele>
        <time>2010-05-15T07:39:58Z</time>
      </trkpt>
      <trkpt lat="48.61396" lon="1.62493">
        <ele>105</ele>
        <time>2010-05-15T07:40:00Z</time>
      </trkpt>
      <trkpt lat="48.61397" lon="1.62494">
        <ele>105</ele>
        <time>2010-05-15T07:40:01Z</time>
      </trkpt>
      <trkpt lat="48.61399" lon="1.62496">
        <ele>105</ele>
        <time>2010-05-15T07:40:02Z</time>
      </trkpt>
      <trkpt lat="48.61402" lon="1.62498">
        <ele>105</ele>
        <time>2010-05-15T07:40:05Z</time>
      </trkpt>
      <trkpt lat="48.61403" lon="1.62501">
        <ele>105</ele>
        <time>2010-05-15T07:40:06Z</time>
      </trkpt>
      <trkpt lat="48.61405" lon="1.62503">
        <ele>105</ele>
        <time>2010-05-15T07:40:09Z</time>
      </trkpt>
      <trkpt lat="48.61406" lon="1.62505">
        <ele>105</ele>
        <time>2010-05-15T07:40:10Z</time>
      </trkpt>
      <trkpt lat="48.61407" lon="1.62506">
        <ele>105</ele>
        <time>2010-05-15T07:40:10Z</time>
      </trkpt>
      <trkpt lat="48.61409" lon="1.62508">
        <ele>105</ele>
        <time>2010-05-15T07:40:13Z</time>
      </trkpt>
      <trkpt lat="48.6141" lon="1.62509">
        <ele>105</ele>
        <time>2010-05-15T07:40:14Z</time>
      </trkpt>
      <trkpt lat="48.61412" lon="1.62511">
        <ele>105</ele>
        <time>2010-05-15T07:40:16Z</time>
      </trkpt>
      <trkpt lat="48.61415" lon="1.62513">
        <ele>105</ele>
        <time>2010-05-15T07:40:17Z</time>
      </trkpt>
      <trkpt lat="48.61417" lon="1.62515">
        <ele>105</ele>
        <time>2010-05-15T07:40:20Z</time>
      </trkpt>
      <trkpt lat="48.61418" lon="1.62516">
        <ele>105</ele>
        <time>2010-05-15T07:40:21Z</time>
      </trkpt>
      <trkpt lat="48.6142" lon="1.62518">
        <ele>105</ele>
        <time>2010-05-15T07:40:23Z</time>
      </trkpt>
      <trkpt lat="48.61421" lon="1.62519">
        <ele>105</ele>
        <time>2010-05-15T07:40:24Z</time>
      </trkpt>
      <trkpt lat="48.61423" lon="1.62521">
        <ele>105</ele>
        <time>2010-05-15T07:40:26Z</time>
      </trkpt>
      <trkpt lat="48.61424" lon="1.62522">
        <ele>105</ele>
        <time>2010-05-15T07:40:26Z</time>
      </trkpt>
      <trkpt lat="48.61426" lon="1.62525">
        <ele>105</ele>
        <time>2010-05-15T07:40:29Z</time>
      </trkpt>
      <trkpt lat="48.61429" lon="1.62527">
        <ele>105</ele>
        <time>2010-05-15T07:40:30Z</time>
      </trkpt>
      <trkpt lat="48.6143" lon="1.62528">
        <ele>105</ele>
        <time>2010-05-15T07:40:32Z</time>
      </trkpt>
      <trkpt lat="48.61432" lon="1.6253">
        <ele>105</ele>
        <time>2010-05-15T07:40:34Z</time>
      </trkpt>
      <trkpt lat="48.61434" lon="1.62533">
        <ele>105</ele>
        <time>2010-05-15T07:40:35Z</time>
      </trkpt>
      <trkpt lat="48.61436" lon="1.62535">
        <ele>105</ele>
        <time>2010-05-15T07:40:38Z</time>
      </trkpt>
      <trkpt lat="48.61437" lon="1.62536">
        <ele>105</ele>
        <time>2010-05-15T07:40:38Z</time>
      </trkpt>
      <trkpt lat="48.61439" lon="1.62538">
        <ele>105</ele>
        <time>2010-05-15T07:40:41Z</time>
      </trkpt>
      <trkpt lat="48.6144" lon="1.62539">
        <ele>105</ele>
        <time>2010-05-15T07:40:42Z</time>
      </trkpt>
      <trkpt lat="48.61442" lon="1.62542">
        <ele>105</ele>
        <time>2010-05-15T07:40:44Z</time>
      </trkpt>
      <trkpt lat="48.61445" lon="1.62544">
        <ele>105</ele>
        <time>2010-05-15T07:40:45Z</time>
      </trkpt>
      <trkpt lat="48.61447" lon="1.62546">
        <ele>105</ele>
        <time>2010-05-15T07:40:47Z</time>
      </trkpt>
      <trkpt lat="48.61449" lon="1.62548">
        <ele>105</ele>
        <time>2010-05-15T07:40:50Z</time>
      </trkpt>
      <trkpt lat="48.61451" lon="1.6255">
        <ele>105</ele>
        <time>2010-05-15T07:40:51Z</time>
      </trkpt>
      <trkpt lat="48.61452" lon="1.62551">
        <ele>105</ele>
        <time>2010-05-15T07:40:53Z</time>
      </trkpt>
      <trkpt lat="48.61454" lon="1.62553">
        <ele>105</ele>
        <time>2010-05-15T07:40:54Z</time>
      </trkpt>
      <trkpt lat="48.61455" lon="1.62554">
        <ele>105</ele>
        <time>2010-05-15T07:40:56Z</time>
      </trkpt>
      <trkpt lat="48.61458" lon="1.62556">
        <ele>105</ele>
        <time>2010-05-15T07:40:58Z</time>
      </trkpt>
      <trkpt lat="48.6146" lon="1.62559">
        <ele>105</ele>
        <time>2010-05-15T07:40:59Z</time>
      </trkpt>
      <trkpt lat="48.61462" lon="1.62561">
        <ele>105</ele>
        <time>2010-05-15T07:41:02Z</time>
      </trkpt>
      <trkpt lat="48.61464" lon="1.62563">
        <ele>105</ele>
        <time>2010-05-15T07:41:04Z</time>
      </trkpt>
      <trkpt lat="48.61466" lon="1.62565">
        <ele>105</ele>
        <time>2010-05-15T07:41:06Z</time>
      </trkpt>
      <trkpt lat="48.61468" lon="1.62568">
        <ele>105</ele>
        <time>2010-05-15T07:41:08Z</time>
      </trkpt>
      <trkpt lat="48.6147" lon="1.6257">
        <ele>105</ele>
        <time>2010-05-15T07:41:10Z</time>
      </trkpt>
      <trkpt lat="48.61472" lon="1.62573">
        <ele>105</ele>
        <time>2010-05-15T07:41:12Z</time>
      </trkpt>
      <trkpt lat="48.61474" lon="1.62575">
        <ele>105</ele>
        <time>2010-05-15T07:41:14Z</time>
      </trkpt>
      <trkpt lat="48.61476" lon="1.62577">
        <ele>105</ele>
        <time>2010-05-15T07:41:15Z</time>
      </trkpt>
      <trkpt lat="48.61478" lon="1.6258">
        <ele>105</ele>
        <time>2010-05-15T07:41:18Z</time>
      </trkpt>
      <trkpt lat="48.61478" lon="1.62582">
        <ele>105</ele>
        <time>2010-05-15T07:41:18Z</time>
      </trkpt>
      <trkpt lat="48.61479" lon="1.62584">
        <ele>105</ele>
        <time>2010-05-15T07:41:20Z</time>
      </trkpt>
      <trkpt lat="48.61481" lon="1.62587">
        <ele>105</ele>
        <time>2010-05-15T07:41:22Z</time>
      </trkpt>
      <trkpt lat="48.61482" lon="1.6259">
        <ele>105</ele>
        <time>2010-05-15T07:41:23Z</time>
      </trkpt>
      <trkpt lat="48.61483" lon="1.62592">
        <ele>105</ele>
        <time>2010-05-15T07:41:24Z</time>
      </trkpt>
      <trkpt lat="48.61484" lon="1.62593">
        <ele>105</ele>
        <time>2010-05-15T07:41:26Z</time>
      </trkpt>
      <trkpt lat="48.61485" lon="1.62596">
        <ele>105</ele>
        <time>2010-05-15T07:41:27Z</time>
      </trkpt>
      <trkpt lat="48.61486" lon="1.62598">
        <ele>105</ele>
        <time>2010-05-15T07:41:29Z</time>
      </trkpt>
      <trkpt lat="48.61486" lon="1.626">
        <ele>105</ele>
        <time>2010-05-15T07:41:30Z</time>
      </trkpt>
      <trkpt lat="48.61486" lon="1.62602">
        <ele>105</ele>
        <time>2010-05-15T07:41:31Z</time>
      </trkpt>
      <trkpt lat="48.61487" lon="1.62603">
        <ele>106</ele>
        <time>2010-05-15T07:41:32Z</time>
      </trkpt>
      <trkpt lat="48.61487" lon="1.62607">
        <ele>106</ele>
        <time>2010-05-15T07:41:34Z</time>
      </trkpt>
      <trkpt lat="48.61488" lon="1.62608">
        <ele>106</ele>
        <time>2010-05-15T07:41:34Z</time>
      </trkpt>
      <trkpt lat="48.61488" lon="1.6261">
        <ele>106</ele>
        <time>2010-05-15T07:41:36Z</time>
      </trkpt>
      <trkpt lat="48.61488" lon="1.62612">
        <ele>106</ele>
        <time>2010-05-15T07:41:37Z</time>
      </trkpt>
      <trkpt lat="48.61488" lon="1.62614">
        <ele>106</ele>
        <time>2010-05-15T07:41:38Z</time>
      </trkpt>
      <trkpt lat="48.61487" lon="1.62616">
        <ele>106</ele>
        <time>2010-05-15T07:41:38Z</time>
      </trkpt>
      <trkpt lat="48.61487" lon="1.62617">
        <ele>106</ele>
        <time>2010-05-15T07:41:39Z</time>
      </trkpt>
      <trkpt lat="48.61487" lon="1.62619">
        <ele>106</ele>
        <time>2010-05-15T07:41:41Z</time>
      </trkpt>
      <trkpt lat="48.61487" lon="1.62621">
        <ele>106</ele>
        <time>2010-05-15T07:41:42Z</time>
      </trkpt>
      <trkpt lat="48.61486" lon="1.62623">
        <ele>106</ele>
        <time>2010-05-15T07:41:42Z</time>
      </trkpt>
      <trkpt lat="48.61486" lon="1.62626">
        <ele>106</ele>
        <time>2010-05-15T07:41:45Z</time>
      </trkpt>
      <trkpt lat="48.61485" lon="1.62629">
        <ele>106</ele>
        <time>2010-05-15T07:41:47Z</time>
      </trkpt>
      <trkpt lat="48.61485" lon="1.62631">
        <ele>106</ele>
        <time>2010-05-15T07:41:47Z</time>
      </trkpt>
      <trkpt lat="48.61484" lon="1.62634">
        <ele>106</ele>
        <time>2010-05-15T07:41:50Z</time>
      </trkpt>
      <trkpt lat="48.61484" lon="1.62635">
        <ele>106</ele>
        <time>2010-05-15T07:41:50Z</time>
      </trkpt>
      <trkpt lat="48.61483" lon="1.62638">
        <ele>106</ele>
        <time>2010-05-15T07:41:53Z</time>
      </trkpt>
      <trkpt lat="48.61483" lon="1.6264">
        <ele>106</ele>
        <time>2010-05-15T07:41:54Z</time>
      </trkpt>
      <trkpt lat="48.61482" lon="1.62642">
        <ele>106</ele>
        <time>2010-05-15T07:41:54Z</time>
      </trkpt>
      <trkpt lat="48.61482" lon="1.62644">
        <ele>106</ele>
        <time>2010-05-15T07:41:55Z</time>
      </trkpt>
      <trkpt lat="48.61482" lon="1.62645">
        <ele>106</ele>
        <time>2010-05-15T07:41:57Z</time>
      </trkpt>
      <trkpt lat="48.61481" lon="1.62647">
        <ele>106</ele>
        <time>2010-05-15T07:41:58Z</time>
      </trkpt>
      <trkpt lat="48.61481" lon="1.62649">
        <ele>106</ele>
        <time>2010-05-15T07:41:58Z</time>
      </trkpt>
      <trkpt lat="48.61481" lon="1.62651">
        <ele>106</ele>
        <time>2010-05-15T07:41:59Z</time>
      </trkpt>
      <trkpt lat="48.6148" lon="1.62653">
        <ele>106</ele>
        <time>2010-05-15T07:42:01Z</time>
      </trkpt>
      <trkpt lat="48.6148" lon="1.62654">
        <ele>106</ele>
        <time>2010-05-15T07:42:02Z</time>
      </trkpt>
      <trkpt lat="48.61479" lon="1.62656">
        <ele>106</ele>
        <time>2010-05-15T07:42:03Z</time>
      </trkpt>
      <trkpt lat="48.61479" lon="1.62658">
        <ele>106</ele>
        <time>2010-05-15T07:42:04Z</time>
      </trkpt>
      <trkpt lat="48.61479" lon="1.6266">
        <ele>106</ele>
        <time>2010-05-15T07:42:05Z</time>
      </trkpt>
      <trkpt lat="48.61478" lon="1.62661">
        <ele>106</ele>
        <time>2010-05-15T07:42:06Z</time>
      </trkpt>
      <trkpt lat="48.61478" lon="1.62663">
        <ele>106</ele>
        <time>2010-05-15T07:42:06Z</time>
      </trkpt>
      <trkpt lat="48.61477" lon="1.62665">
        <ele>106</ele>
        <time>2010-05-15T07:42:07Z</time>
      </trkpt>
      <trkpt lat="48.61477" lon="1.62666">
        <ele>106</ele>
        <time>2010-05-15T07:42:09Z</time>
      </trkpt>
      <trkpt lat="48.61476" lon="1.62668">
        <ele>106</ele>
        <time>2010-05-15T07:42:10Z</time>
      </trkpt>
      <trkpt lat="48.61476" lon="1.6267">
        <ele>106</ele>
        <time>2010-05-15T07:42:10Z</time>
      </trkpt>
      <trkpt lat="48.61476" lon="1.62672">
        <ele>106</ele>
        <time>2010-05-15T07:42:11Z</time>
      </trkpt>
      <trkpt lat="48.61475" lon="1.62673">
        <ele>106</ele>
        <time>2010-05-15T07:42:12Z</time>
      </trkpt>
      <trkpt lat="48.61475" lon="1.62675">
        <ele>106</ele>
        <time>2010-05-15T07:42:14Z</time>
      </trkpt>
      <trkpt lat="48.61474" lon="1.62677">
        <ele>106</ele>
        <time>2010-05-15T07:42:14Z</time>
      </trkpt>
      <trkpt lat="48.61474" lon="1.62679">
        <ele>106</ele>
        <time>2010-05-15T07:42:15Z</time>
      </trkpt>
      <trkpt lat="48.61474" lon="1.62681">
        <ele>106</ele>
        <time>2010-05-15T07:42:16Z</time>
      </trkpt>
      <trkpt lat="48.61474" lon="1.62682">
        <ele>106</ele>
        <time>2010-05-15T07:42:17Z</time>
      </trkpt>
      <trkpt lat="48.61474" lon="1.62684">
        <ele>106</ele>
        <time>2010-05-15T07:42:18Z</time>
      </trkpt>
      <trkpt lat="48.61474" lon="1.62686">
        <ele>106</ele>
        <time>2010-05-15T07:42:20Z</time>
      </trkpt>
      <trkpt lat="48.61474" lon="1.62688">
        <ele>106</ele>
        <time>2010-05-15T07:42:20Z</time>
      </trkpt>
      <trkpt lat="48.61474" lon="1.62689">
        <ele>106</ele>
        <time>2010-05-15T07:42:22Z</time>
      </trkpt>
      <trkpt lat="48.61474" lon="1.62691">
        <ele>106</ele>
        <time>2010-05-15T07:42:22Z</time>
      </trkpt>
      <trkpt lat="48.61474" lon="1.62693">
        <ele>107</ele>
        <time>2010-05-15T07:42:23Z</time>
      </trkpt>
      <trkpt lat="48.61474" lon="1.62695">
        <ele>107</ele>
        <time>2010-05-15T07:42:26Z</time>
      </trkpt>
      <trkpt lat="48.61474" lon="1.62699">
        <ele>107</ele>
        <time>2010-05-15T07:42:27Z</time>
      </trkpt>
      <trkpt lat="48.61474" lon="1.627">
        <ele>107</ele>
        <time>2010-05-15T07:42:28Z</time>
      </trkpt>
      <trkpt lat="48.61474" lon="1.62702">
        <ele>108</ele>
        <time>2010-05-15T07:42:29Z</time>
      </trkpt>
      <trkpt lat="48.61474" lon="1.62704">
        <ele>108</ele>
        <time>2010-05-15T07:42:30Z</time>
      </trkpt>
      <trkpt lat="48.61474" lon="1.62706">
        <ele>108</ele>
        <time>2010-05-15T07:42:32Z</time>
      </trkpt>
      <trkpt lat="48.61474" lon="1.62707">
        <ele>108</ele>
        <time>2010-05-15T07:42:32Z</time>
      </trkpt>
      <trkpt lat="48.61475" lon="1.62711">
        <ele>108</ele>
        <time>2010-05-15T07:42:34Z</time>
      </trkpt>
      <trkpt lat="48.61475" lon="1.62713">
        <ele>108</ele>
        <time>2010-05-15T07:42:35Z</time>
      </trkpt>
      <trkpt lat="48.61475" lon="1.62715">
        <ele>108</ele>
        <time>2010-05-15T07:42:37Z</time>
      </trkpt>
      <trkpt lat="48.61475" lon="1.62716">
        <ele>108</ele>
        <time>2010-05-15T07:42:38Z</time>
      </trkpt>
      <trkpt lat="48.61476" lon="1.62719">
        <ele>108</ele>
        <time>2010-05-15T07:42:39Z</time>
      </trkpt>
      <trkpt lat="48.61476" lon="1.62721">
        <ele>108</ele>
        <time>2010-05-15T07:42:40Z</time>
      </trkpt>
      <trkpt lat="48.61476" lon="1.62723">
        <ele>108</ele>
        <time>2010-05-15T07:42:42Z</time>
      </trkpt>
      <trkpt lat="48.61477" lon="1.62726">
        <ele>108</ele>
        <time>2010-05-15T07:42:44Z</time>
      </trkpt>
      <trkpt lat="48.61478" lon="1.62728">
        <ele>108</ele>
        <time>2010-05-15T07:42:44Z</time>
      </trkpt>
      <trkpt lat="48.61478" lon="1.6273">
        <ele>108</ele>
        <time>2010-05-15T07:42:45Z</time>
      </trkpt>
      <trkpt lat="48.61478" lon="1.62731">
        <ele>108</ele>
        <time>2010-05-15T07:42:46Z</time>
      </trkpt>
      <trkpt lat="48.61479" lon="1.62733">
        <ele>108</ele>
        <time>2010-05-15T07:42:48Z</time>
      </trkpt>
      <trkpt lat="48.61479" lon="1.62735">
        <ele>108</ele>
        <time>2010-05-15T07:42:49Z</time>
      </trkpt>
      <trkpt lat="48.6148" lon="1.62738">
        <ele>108</ele>
        <time>2010-05-15T07:42:50Z</time>
      </trkpt>
      <trkpt lat="48.61481" lon="1.62741">
        <ele>108</ele>
        <time>2010-05-15T07:42:53Z</time>
      </trkpt>
      <trkpt lat="48.61481" lon="1.62743">
        <ele>108</ele>
        <time>2010-05-15T07:42:54Z</time>
      </trkpt>
      <trkpt lat="48.61483" lon="1.62746">
        <ele>108</ele>
        <time>2010-05-15T07:42:55Z</time>
      </trkpt>
      <trkpt lat="48.61484" lon="1.62749">
        <ele>108</ele>
        <time>2010-05-15T07:42:58Z</time>
      </trkpt>
      <trkpt lat="48.61485" lon="1.62752">
        <ele>108</ele>
        <time>2010-05-15T07:42:59Z</time>
      </trkpt>
      <trkpt lat="48.61486" lon="1.62755">
        <ele>108</ele>
        <time>2010-05-15T07:43:01Z</time>
      </trkpt>
      <trkpt lat="48.61488" lon="1.62757">
        <ele>108</ele>
        <time>2010-05-15T07:43:04Z</time>
      </trkpt>
      <trkpt lat="48.6149" lon="1.6276">
        <ele>108</ele>
        <time>2010-05-15T07:43:05Z</time>
      </trkpt>
      <trkpt lat="48.61491" lon="1.62762">
        <ele>108</ele>
        <time>2010-05-15T07:43:07Z</time>
      </trkpt>
      <trkpt lat="48.61493" lon="1.62765">
        <ele>108</ele>
        <time>2010-05-15T07:43:10Z</time>
      </trkpt>
      <trkpt lat="48.61493" lon="1.62766">
        <ele>108</ele>
        <time>2010-05-15T07:43:10Z</time>
      </trkpt>
      <trkpt lat="48.61495" lon="1.62769">
        <ele>108</ele>
        <time>2010-05-15T07:43:12Z</time>
      </trkpt>
      <trkpt lat="48.61495" lon="1.62773">
        <ele>108</ele>
        <time>2010-05-15T07:43:15Z</time>
      </trkpt>
      <trkpt lat="48.61496" lon="1.62775">
        <ele>108</ele>
        <time>2010-05-15T07:43:16Z</time>
      </trkpt>
      <trkpt lat="48.61498" lon="1.62778">
        <ele>108</ele>
        <time>2010-05-15T07:43:18Z</time>
      </trkpt>
      <trkpt lat="48.615" lon="1.6278">
        <ele>108</ele>
        <time>2010-05-15T07:43:21Z</time>
      </trkpt>
      <trkpt lat="48.61501" lon="1.62783">
        <ele>108</ele>
        <time>2010-05-15T07:43:22Z</time>
      </trkpt>
      <trkpt lat="48.61503" lon="1.62785">
        <ele>108</ele>
        <time>2010-05-15T07:43:24Z</time>
      </trkpt>
      <trkpt lat="48.61504" lon="1.62788">
        <ele>108</ele>
        <time>2010-05-15T07:43:27Z</time>
      </trkpt>
      <trkpt lat="48.61506" lon="1.6279">
        <ele>108</ele>
        <time>2010-05-15T07:43:28Z</time>
      </trkpt>
      <trkpt lat="48.61508" lon="1.62792">
        <ele>108</ele>
        <time>2010-05-15T07:43:30Z</time>
      </trkpt>
      <trkpt lat="48.6151" lon="1.62795">
        <ele>108</ele>
        <time>2010-05-15T07:43:33Z</time>
      </trkpt>
      <trkpt lat="48.61511" lon="1.62796">
        <ele>108</ele>
        <time>2010-05-15T07:43:33Z</time>
      </trkpt>
      <trkpt lat="48.61513" lon="1.62797">
        <ele>108</ele>
        <time>2010-05-15T07:43:34Z</time>
      </trkpt>
      <trkpt lat="48.61515" lon="1.62799">
        <ele>108</ele>
        <time>2010-05-15T07:43:36Z</time>
      </trkpt>
      <trkpt lat="48.61517" lon="1.62801">
        <ele>108</ele>
        <time>2010-05-15T07:43:39Z</time>
      </trkpt>
      <trkpt lat="48.61519" lon="1.62803">
        <ele>108</ele>
        <time>2010-05-15T07:43:40Z</time>
      </trkpt>
      <trkpt lat="48.6152" lon="1.62805">
        <ele>108</ele>
        <time>2010-05-15T07:43:42Z</time>
      </trkpt>
      <trkpt lat="48.61522" lon="1.62808">
        <ele>108</ele>
        <time>2010-05-15T07:43:45Z</time>
      </trkpt>
      <trkpt lat="48.61524" lon="1.6281">
        <ele>108</ele>
        <time>2010-05-15T07:43:46Z</time>
      </trkpt>
      <trkpt lat="48.61526" lon="1.62812">
        <ele>108</ele>
        <time>2010-05-15T07:43:48Z</time>
      </trkpt>
      <trkpt lat="48.61528" lon="1.62815">
        <ele>108</ele>
        <time>2010-05-15T07:43:51Z</time>
      </trkpt>
      <trkpt lat="48.61529" lon="1.62816">
        <ele>108</ele>
        <time>2010-05-15T07:43:51Z</time>
      </trkpt>
      <trkpt lat="48.61531" lon="1.62818">
        <ele>108</ele>
        <time>2010-05-15T07:43:53Z</time>
      </trkpt>
      <trkpt lat="48.61532" lon="1.6282">
        <ele>108</ele>
        <time>2010-05-15T07:43:56Z</time>
      </trkpt>
      <trkpt lat="48.61534" lon="1.62821">
        <ele>108</ele>
        <time>2010-05-15T07:43:57Z</time>
      </trkpt>
      <trkpt lat="48.61536" lon="1.62821">
        <ele>108</ele>
        <time>2010-05-15T07:43:58Z</time>
      </trkpt>
      <trkpt lat="48.61537" lon="1.62822">
        <ele>108</ele>
        <time>2010-05-15T07:43:59Z</time>
      </trkpt>
      <trkpt lat="48.61538" lon="1.62823">
        <ele>108</ele>
        <time>2010-05-15T07:44:01Z</time>
      </trkpt>
      <trkpt lat="48.61539" lon="1.62823">
        <ele>108</ele>
        <time>2010-05-15T07:44:02Z</time>
      </trkpt>
      <trkpt lat="48.6154" lon="1.62823">
        <ele>108</ele>
        <time>2010-05-15T07:44:02Z</time>
      </trkpt>
      <trkpt lat="48.61541" lon="1.62824">
        <ele>108</ele>
        <time>2010-05-15T07:44:03Z</time>
      </trkpt>
      <trkpt lat="48.61543" lon="1.62824">
        <ele>108</ele>
        <time>2010-05-15T07:44:04Z</time>
      </trkpt>
      <trkpt lat="48.61544" lon="1.62824">
        <ele>108</ele>
        <time>2010-05-15T07:44:06Z</time>
      </trkpt>
      <trkpt lat="48.61545" lon="1.62824">
        <ele>108</ele>
        <time>2010-05-15T07:44:06Z</time>
      </trkpt>
      <trkpt lat="48.61546" lon="1.62824">
        <ele>108</ele>
        <time>2010-05-15T07:44:07Z</time>
      </trkpt>
      <trkpt lat="48.61547" lon="1.62824">
        <ele>108</ele>
        <time>2010-05-15T07:44:08Z</time>
      </trkpt>
      <trkpt lat="48.61549" lon="1.62824">
        <ele>108</ele>
        <time>2010-05-15T07:44:11Z</time>
      </trkpt>
      <trkpt lat="48.61551" lon="1.62823">
        <ele>108</ele>
        <time>2010-05-15T07:44:12Z</time>
      </trkpt>
      <trkpt lat="48.61554" lon="1.62822">
        <ele>108</ele>
        <time>2010-05-15T07:44:14Z</time>
      </trkpt>
      <trkpt lat="48.61555" lon="1.62822">
        <ele>108</ele>
        <time>2010-05-15T07:44:16Z</time>
      </trkpt>
      <trkpt lat="48.61556" lon="1.62822">
        <ele>108</ele>
        <time>2010-05-15T07:44:16Z</time>
      </trkpt>
      <trkpt lat="48.61557" lon="1.62822">
        <ele>108</ele>
        <time>2010-05-15T07:44:17Z</time>
      </trkpt>
      <trkpt lat="48.61559" lon="1.62822">
        <ele>108</ele>
        <time>2010-05-15T07:44:18Z</time>
      </trkpt>
      <trkpt lat="48.6156" lon="1.62822">
        <ele>108</ele>
        <time>2010-05-15T07:44:19Z</time>
      </trkpt>
      <trkpt lat="48.61561" lon="1.62822">
        <ele>108</ele>
        <time>2010-05-15T07:44:21Z</time>
      </trkpt>
      <trkpt lat="48.61562" lon="1.62822">
        <ele>108</ele>
        <time>2010-05-15T07:44:21Z</time>
      </trkpt>
      <trkpt lat="48.61564" lon="1.62822">
        <ele>109</ele>
        <time>2010-05-15T07:44:23Z</time>
      </trkpt>
      <trkpt lat="48.61565" lon="1.62823">
        <ele>109</ele>
        <time>2010-05-15T07:44:26Z</time>
      </trkpt>
      <trkpt lat="48.61567" lon="1.62824">
        <ele>109</ele>
        <time>2010-05-15T07:44:38Z</time>
      </trkpt>
      <trkpt lat="48.61568" lon="1.62823">
        <ele>111</ele>
        <time>2010-05-15T07:44:45Z</time>
      </trkpt>
      <trkpt lat="48.61568" lon="1.62821">
        <ele>112</ele>
        <time>2010-05-15T07:44:52Z</time>
      </trkpt>
      <trkpt lat="48.61568" lon="1.62823">
        <ele>112</ele>
        <time>2010-05-15T07:44:55Z</time>
      </trkpt>
      <trkpt lat="48.61568" lon="1.62825">
        <ele>112</ele>
        <time>2010-05-15T07:45:04Z</time>
      </trkpt>
      <trkpt lat="48.61567" lon="1.62825">
        <ele>112</ele>
        <time>2010-05-15T07:45:23Z</time>
      </trkpt>
      <trkpt lat="48.61566" lon="1.62825">
        <ele>112</ele>
        <time>2010-05-15T07:45:59Z</time>
      </trkpt>
      <trkpt lat="48.61567" lon="1.62825">
        <ele>112</ele>
        <time>2010-05-15T07:46:08Z</time>
      </trkpt>
      <trkpt lat="48.61565" lon="1.62823">
        <ele>112</ele>
        <time>2010-05-15T07:46:11Z</time>
      </trkpt>
      <trkpt lat="48.61564" lon="1.62823">
        <ele>112</ele>
        <time>2010-05-15T07:46:13Z</time>
      </trkpt>
      <trkpt lat="48.61562" lon="1.62821">
        <ele>112</ele>
        <time>2010-05-15T07:46:14Z</time>
      </trkpt>
      <trkpt lat="48.61561" lon="1.6282">
        <ele>112</ele>
        <time>2010-05-15T07:46:21Z</time>
      </trkpt>
      <trkpt lat="48.61562" lon="1.62819">
        <ele>112</ele>
        <time>2010-05-15T07:46:37Z</time>
      </trkpt>
      <trkpt lat="48.61564" lon="1.6282">
        <ele>112</ele>
        <time>2010-05-15T07:46:38Z</time>
      </trkpt>
      <trkpt lat="48.61566" lon="1.62821">
        <ele>112</ele>
        <time>2010-05-15T07:46:40Z</time>
      </trkpt>
      <trkpt lat="48.61568" lon="1.62822">
        <ele>112</ele>
        <time>2010-05-15T07:46:42Z</time>
      </trkpt>
      <trkpt lat="48.61569" lon="1.62822">
        <ele>112</ele>
        <time>2010-05-15T07:46:44Z</time>
      </trkpt>
      <trkpt lat="48.61568" lon="1.62824">
        <ele>112</ele>
        <time>2010-05-15T07:47:06Z</time>
      </trkpt>
      <trkpt lat="48.61567" lon="1.62826">
        <ele>113</ele>
        <time>2010-05-15T07:47:10Z</time>
      </trkpt>
      <trkpt lat="48.61569" lon="1.62825">
        <ele>113</ele>
        <time>2010-05-15T07:47:21Z</time>
      </trkpt>
      <trkpt lat="48.61571" lon="1.62826">
        <ele>113</ele>
        <time>2010-05-15T07:47:23Z</time>
      </trkpt>
      <trkpt lat="48.61572" lon="1.62827">
        <ele>113</ele>
        <time>2010-05-15T07:47:25Z</time>
      </trkpt>
      <trkpt lat="48.61574" lon="1.62828">
        <ele>113</ele>
        <time>2010-05-15T07:47:28Z</time>
      </trkpt>
      <trkpt lat="48.61575" lon="1.62828">
        <ele>113</ele>
        <time>2010-05-15T07:47:32Z</time>
      </trkpt>
      <trkpt lat="48.61575" lon="1.62826">
        <ele>113</ele>
        <time>2010-05-15T07:47:44Z</time>
      </trkpt>
      <trkpt lat="48.61577" lon="1.62826">
        <ele>113</ele>
        <time>2010-05-15T07:47:47Z</time>
      </trkpt>
      <trkpt lat="48.61578" lon="1.62827">
        <ele>113</ele>
        <time>2010-05-15T07:47:49Z</time>
      </trkpt>
      <trkpt lat="48.6158" lon="1.62829">
        <ele>113</ele>
        <time>2010-05-15T07:47:51Z</time>
      </trkpt>
      <trkpt lat="48.61582" lon="1.62829">
        <ele>113</ele>
        <time>2010-05-15T07:47:53Z</time>
      </trkpt>
      <trkpt lat="48.61584" lon="1.6283">
        <ele>113</ele>
        <time>2010-05-15T07:47:55Z</time>
      </trkpt>
      <trkpt lat="48.61585" lon="1.62832">
        <ele>113</ele>
        <time>2010-05-15T07:47:58Z</time>
      </trkpt>
      <trkpt lat="48.61585" lon="1.62834">
        <ele>113</ele>
        <time>2010-05-15T07:48:03Z</time>
      </trkpt>
      <trkpt lat="48.61587" lon="1.62836">
        <ele>113</ele>
        <time>2010-05-15T07:48:05Z</time>
      </trkpt>
      <trkpt lat="48.61587" lon="1.62838">
        <ele>113</ele>
        <time>2010-05-15T07:48:06Z</time>
      </trkpt>
      <trkpt lat="48.61588" lon="1.62841">
        <ele>113</ele>
        <time>2010-05-15T07:48:08Z</time>
      </trkpt>
      <trkpt lat="48.6159" lon="1.62844">
        <ele>113</ele>
        <time>2010-05-15T07:48:10Z</time>
      </trkpt>
      <trkpt lat="48.61591" lon="1.62846">
        <ele>113</ele>
        <time>2010-05-15T07:48:12Z</time>
      </trkpt>
      <trkpt lat="48.61591" lon="1.62848">
        <ele>113</ele>
        <time>2010-05-15T07:48:15Z</time>
      </trkpt>
      <trkpt lat="48.61591" lon="1.6285">
        <ele>113</ele>
        <time>2010-05-15T07:48:16Z</time>
      </trkpt>
      <trkpt lat="48.61591" lon="1.62852">
        <ele>113</ele>
        <time>2010-05-15T07:48:17Z</time>
      </trkpt>
      <trkpt lat="48.6159" lon="1.62854">
        <ele>113</ele>
        <time>2010-05-15T07:48:18Z</time>
      </trkpt>
      <trkpt lat="48.6159" lon="1.62856">
        <ele>113</ele>
        <time>2010-05-15T07:48:19Z</time>
      </trkpt>
      <trkpt lat="48.6159" lon="1.62858">
        <ele>113</ele>
        <time>2010-05-15T07:48:21Z</time>
      </trkpt>
      <trkpt lat="48.61589" lon="1.6286">
        <ele>113</ele>
        <time>2010-05-15T07:48:21Z</time>
      </trkpt>
      <trkpt lat="48.61589" lon="1.62862">
        <ele>113</ele>
        <time>2010-05-15T07:48:22Z</time>
      </trkpt>
      <trkpt lat="48.61589" lon="1.62864">
        <ele>113</ele>
        <time>2010-05-15T07:48:23Z</time>
      </trkpt>
      <trkpt lat="48.61588" lon="1.62866">
        <ele>113</ele>
        <time>2010-05-15T07:48:24Z</time>
      </trkpt>
      <trkpt lat="48.61588" lon="1.62868">
        <ele>113</ele>
        <time>2010-05-15T07:48:26Z</time>
      </trkpt>
      <trkpt lat="48.61588" lon="1.62871">
        <ele>113</ele>
        <time>2010-05-15T07:48:26Z</time>
      </trkpt>
      <trkpt lat="48.61588" lon="1.62873">
        <ele>113</ele>
        <time>2010-05-15T07:48:27Z</time>
      </trkpt>
      <trkpt lat="48.61588" lon="1.62875">
        <ele>113</ele>
        <time>2010-05-15T07:48:28Z</time>
      </trkpt>
      <trkpt lat="48.61588" lon="1.62877">
        <ele>113</ele>
        <time>2010-05-15T07:48:29Z</time>
      </trkpt>
      <trkpt lat="48.61588" lon="1.62879">
        <ele>113</ele>
        <time>2010-05-15T07:48:30Z</time>
      </trkpt>
      <trkpt lat="48.61587" lon="1.62882">
        <ele>113</ele>
        <time>2010-05-15T07:48:31Z</time>
      </trkpt>
      <trkpt lat="48.61587" lon="1.62884">
        <ele>113</ele>
        <time>2010-05-15T07:48:32Z</time>
      </trkpt>
      <trkpt lat="48.61587" lon="1.62886">
        <ele>113</ele>
        <time>2010-05-15T07:48:33Z</time>
      </trkpt>
      <trkpt lat="48.61587" lon="1.62888">
        <ele>113</ele>
        <time>2010-05-15T07:48:34Z</time>
      </trkpt>
      <trkpt lat="48.61587" lon="1.62891">
        <ele>113</ele>
        <time>2010-05-15T07:48:36Z</time>
      </trkpt>
      <trkpt lat="48.61586" lon="1.62893">
        <ele>113</ele>
        <time>2010-05-15T07:48:36Z</time>
      </trkpt>
      <trkpt lat="48.61586" lon="1.62895">
        <ele>113</ele>
        <time>2010-05-15T07:48:37Z</time>
      </trkpt>
      <trkpt lat="48.61586" lon="1.62897">
        <ele>113</ele>
        <time>2010-05-15T07:48:38Z</time>
      </trkpt>
      <trkpt lat="48.61586" lon="1.62899">
        <ele>113</ele>
        <time>2010-05-15T07:48:39Z</time>
      </trkpt>
      <trkpt lat="48.61586" lon="1.62901">
        <ele>113</ele>
        <time>2010-05-15T07:48:41Z</time>
      </trkpt>
      <trkpt lat="48.61585" lon="1.62903">
        <ele>113</ele>
        <time>2010-05-15T07:48:41Z</time>
      </trkpt>
      <trkpt lat="48.61585" lon="1.62905">
        <ele>113</ele>
        <time>2010-05-15T07:48:42Z</time>
      </trkpt>
      <trkpt lat="48.61585" lon="1.62907">
        <ele>113</ele>
        <time>2010-05-15T07:48:43Z</time>
      </trkpt>
      <trkpt lat="48.61584" lon="1.62909">
        <ele>113</ele>
        <time>2010-05-15T07:48:44Z</time>
      </trkpt>
      <trkpt lat="48.61583" lon="1.62911">
        <ele>113</ele>
        <time>2010-05-15T07:48:46Z</time>
      </trkpt>
      <trkpt lat="48.61582" lon="1.62914">
        <ele>113</ele>
        <time>2010-05-15T07:48:47Z</time>
      </trkpt>
      <trkpt lat="48.61582" lon="1.62915">
        <ele>113</ele>
        <time>2010-05-15T07:48:48Z</time>
      </trkpt>
      <trkpt lat="48.61581" lon="1.62917">
        <ele>113</ele>
        <time>2010-05-15T07:48:49Z</time>
      </trkpt>
      <trkpt lat="48.6158" lon="1.62919">
        <ele>113</ele>
        <time>2010-05-15T07:48:50Z</time>
      </trkpt>
      <trkpt lat="48.6158" lon="1.62921">
        <ele>113</ele>
        <time>2010-05-15T07:48:51Z</time>
      </trkpt>
      <trkpt lat="48.61579" lon="1.62923">
        <ele>113</ele>
        <time>2010-05-15T07:48:52Z</time>
      </trkpt>
      <trkpt lat="48.61579" lon="1.62925">
        <ele>114</ele>
        <time>2010-05-15T07:48:53Z</time>
      </trkpt>
      <trkpt lat="48.61578" lon="1.62927">
        <ele>114</ele>
        <time>2010-05-15T07:48:54Z</time>
      </trkpt>
      <trkpt lat="48.61577" lon="1.62929">
        <ele>114</ele>
        <time>2010-05-15T07:48:56Z</time>
      </trkpt>
      <trkpt lat="48.61577" lon="1.62931">
        <ele>114</ele>
        <time>2010-05-15T07:48:56Z</time>
      </trkpt>
      <trkpt lat="48.61576" lon="1.62933">
        <ele>114</ele>
        <time>2010-05-15T07:48:57Z</time>
      </trkpt>
      <trkpt lat="48.61575" lon="1.62935">
        <ele>114</ele>
        <time>2010-05-15T07:48:58Z</time>
      </trkpt>
      <trkpt lat="48.61574" lon="1.62938">
        <ele>114</ele>
        <time>2010-05-15T07:48:59Z</time>
      </trkpt>
      <trkpt lat="48.61573" lon="1.6294">
        <ele>114</ele>
        <time>2010-05-15T07:49:00Z</time>
      </trkpt>
      <trkpt lat="48.61572" lon="1.62943">
        <ele>114</ele>
        <time>2010-05-15T07:49:01Z</time>
      </trkpt>
      <trkpt lat="48.61571" lon="1.62946">
        <ele>114</ele>
        <time>2010-05-15T07:49:02Z</time>
      </trkpt>
      <trkpt lat="48.61571" lon="1.62949">
        <ele>114</ele>
        <time>2010-05-15T07:49:03Z</time>
      </trkpt>
      <trkpt lat="48.6157" lon="1.62951">
        <ele>114</ele>
        <time>2010-05-15T07:49:04Z</time>
      </trkpt>
      <trkpt lat="48.61569" lon="1.62953">
        <ele>114</ele>
        <time>2010-05-15T07:49:05Z</time>
      </trkpt>
      <trkpt lat="48.61569" lon="1.62955">
        <ele>114</ele>
        <time>2010-05-15T07:49:06Z</time>
      </trkpt>
      <trkpt lat="48.61568" lon="1.62957">
        <ele>114</ele>
        <time>2010-05-15T07:49:07Z</time>
      </trkpt>
      <trkpt lat="48.61567" lon="1.62959">
        <ele>115</ele>
        <time>2010-05-15T07:49:08Z</time>
      </trkpt>
      <trkpt lat="48.61566" lon="1.6296">
        <ele>115</ele>
        <time>2010-05-15T07:49:09Z</time>
      </trkpt>
      <trkpt lat="48.61566" lon="1.62962">
        <ele>115</ele>
        <time>2010-05-15T07:49:10Z</time>
      </trkpt>
      <trkpt lat="48.61565" lon="1.62964">
        <ele>115</ele>
        <time>2010-05-15T07:49:11Z</time>
      </trkpt>
      <trkpt lat="48.61564" lon="1.62966">
        <ele>115</ele>
        <time>2010-05-15T07:49:12Z</time>
      </trkpt>
      <trkpt lat="48.61564" lon="1.62968">
        <ele>115</ele>
        <time>2010-05-15T07:49:13Z</time>
      </trkpt>
      <trkpt lat="48.61563" lon="1.6297">
        <ele>116</ele>
        <time>2010-05-15T07:49:14Z</time>
      </trkpt>
      <trkpt lat="48.61562" lon="1.62971">
        <ele>116</ele>
        <time>2010-05-15T07:49:15Z</time>
      </trkpt>
      <trkpt lat="48.61562" lon="1.62973">
        <ele>116</ele>
        <time>2010-05-15T07:49:16Z</time>
      </trkpt>
      <trkpt lat="48.61561" lon="1.62975">
        <ele>116</ele>
        <time>2010-05-15T07:49:17Z</time>
      </trkpt>
      <trkpt lat="48.6156" lon="1.62977">
        <ele>116</ele>
        <time>2010-05-15T07:49:18Z</time>
      </trkpt>
      <trkpt lat="48.6156" lon="1.62979">
        <ele>116</ele>
        <time>2010-05-15T07:49:19Z</time>
      </trkpt>
      <trkpt lat="48.61559" lon="1.62981">
        <ele>116</ele>
        <time>2010-05-15T07:49:20Z</time>
      </trkpt>
      <trkpt lat="48.61558" lon="1.62983">
        <ele>116</ele>
        <time>2010-05-15T07:49:21Z</time>
      </trkpt>
      <trkpt lat="48.61558" lon="1.62985">
        <ele>116</ele>
        <time>2010-05-15T07:49:22Z</time>
      </trkpt>
      <trkpt lat="48.61557" lon="1.62986">
        <ele>116</ele>
        <time>2010-05-15T07:49:23Z</time>
      </trkpt>
      <trkpt lat="48.61557" lon="1.62988">
        <ele>116</ele>
        <time>2010-05-15T07:49:24Z</time>
      </trkpt>
      <trkpt lat="48.61556" lon="1.6299">
        <ele>116</ele>
        <time>2010-05-15T07:49:26Z</time>
      </trkpt>
      <trkpt lat="48.61555" lon="1.62992">
        <ele>116</ele>
        <time>2010-05-15T07:49:26Z</time>
      </trkpt>
      <trkpt lat="48.61555" lon="1.62994">
        <ele>116</ele>
        <time>2010-05-15T07:49:27Z</time>
      </trkpt>
      <trkpt lat="48.61554" lon="1.62996">
        <ele>116</ele>
        <time>2010-05-15T07:49:28Z</time>
      </trkpt>
      <trkpt lat="48.61554" lon="1.62998">
        <ele>116</ele>
        <time>2010-05-15T07:49:29Z</time>
      </trkpt>
      <trkpt lat="48.61553" lon="1.63">
        <ele>116</ele>
        <time>2010-05-15T07:49:30Z</time>
      </trkpt>
      <trkpt lat="48.61552" lon="1.63002">
        <ele>116</ele>
        <time>2010-05-15T07:49:31Z</time>
      </trkpt>
      <trkpt lat="48.61552" lon="1.63004">
        <ele>116</ele>
        <time>2010-05-15T07:49:32Z</time>
      </trkpt>
      <trkpt lat="48.61551" lon="1.63005">
        <ele>116</ele>
        <time>2010-05-15T07:49:33Z</time>
      </trkpt>
      <trkpt lat="48.6155" lon="1.63007">
        <ele>116</ele>
        <time>2010-05-15T07:49:34Z</time>
      </trkpt>
      <trkpt lat="48.6155" lon="1.63009">
        <ele>116</ele>
        <time>2010-05-15T07:49:35Z</time>
      </trkpt>
      <trkpt lat="48.61549" lon="1.63011">
        <ele>116</ele>
        <time>2010-05-15T07:49:36Z</time>
      </trkpt>
      <trkpt lat="48.61549" lon="1.63013">
        <ele>116</ele>
        <time>2010-05-15T07:49:37Z</time>
      </trkpt>
      <trkpt lat="48.61548" lon="1.63016">
        <ele>116</ele>
        <time>2010-05-15T07:49:38Z</time>
      </trkpt>
      <trkpt lat="48.61548" lon="1.63018">
        <ele>116</ele>
        <time>2010-05-15T07:49:39Z</time>
      </trkpt>
      <trkpt lat="48.61547" lon="1.6302">
        <ele>116</ele>
        <time>2010-05-15T07:49:40Z</time>
      </trkpt>
      <trkpt lat="48.61547" lon="1.63022">
        <ele>116</ele>
        <time>2010-05-15T07:49:41Z</time>
      </trkpt>
      <trkpt lat="48.61546" lon="1.63024">
        <ele>116</ele>
        <time>2010-05-15T07:49:42Z</time>
      </trkpt>
      <trkpt lat="48.61546" lon="1.63026">
        <ele>116</ele>
        <time>2010-05-15T07:49:43Z</time>
      </trkpt>
      <trkpt lat="48.61545" lon="1.63028">
        <ele>116</ele>
        <time>2010-05-15T07:49:44Z</time>
      </trkpt>
      <trkpt lat="48.61545" lon="1.6303">
        <ele>117</ele>
        <time>2010-05-15T07:49:46Z</time>
      </trkpt>
      <trkpt lat="48.61545" lon="1.63032">
        <ele>117</ele>
        <time>2010-05-15T07:49:46Z</time>
      </trkpt>
      <trkpt lat="48.61544" lon="1.63033">
        <ele>117</ele>
        <time>2010-05-15T07:49:47Z</time>
      </trkpt>
      <trkpt lat="48.61544" lon="1.63035">
        <ele>118</ele>
        <time>2010-05-15T07:49:48Z</time>
      </trkpt>
      <trkpt lat="48.61543" lon="1.63037">
        <ele>118</ele>
        <time>2010-05-15T07:49:49Z</time>
      </trkpt>
      <trkpt lat="48.61542" lon="1.6304">
        <ele>118</ele>
        <time>2010-05-15T07:49:50Z</time>
      </trkpt>
      <trkpt lat="48.61542" lon="1.63042">
        <ele>118</ele>
        <time>2010-05-15T07:49:51Z</time>
      </trkpt>
      <trkpt lat="48.61542" lon="1.63045">
        <ele>118</ele>
        <time>2010-05-15T07:49:52Z</time>
      </trkpt>
      <trkpt lat="48.61541" lon="1.63048">
        <ele>118</ele>
        <time>2010-05-15T07:49:53Z</time>
      </trkpt>
      <trkpt lat="48.61541" lon="1.6305">
        <ele>118</ele>
        <time>2010-05-15T07:49:54Z</time>
      </trkpt>
      <trkpt lat="48.6154" lon="1.63053">
        <ele>118</ele>
        <time>2010-05-15T07:49:55Z</time>
      </trkpt>
      <trkpt lat="48.61539" lon="1.63057">
        <ele>118</ele>
        <time>2010-05-15T07:49:56Z</time>
      </trkpt>
      <trkpt lat="48.61539" lon="1.63059">
        <ele>118</ele>
        <time>2010-05-15T07:49:57Z</time>
      </trkpt>
      <trkpt lat="48.61539" lon="1.63062">
        <ele>118</ele>
        <time>2010-05-15T07:49:58Z</time>
      </trkpt>
      <trkpt lat="48.61539" lon="1.63065">
        <ele>118</ele>
        <time>2010-05-15T07:49:59Z</time>
      </trkpt>
      <trkpt lat="48.61538" lon="1.63068">
        <ele>118</ele>
        <time>2010-05-15T07:50:00Z</time>
      </trkpt>
      <trkpt lat="48.61538" lon="1.6307">
        <ele>118</ele>
        <time>2010-05-15T07:50:01Z</time>
      </trkpt>
      <trkpt lat="48.61538" lon="1.63073">
        <ele>118</ele>
        <time>2010-05-15T07:50:02Z</time>
      </trkpt>
      <trkpt lat="48.61537" lon="1.63075">
        <ele>118</ele>
        <time>2010-05-15T07:50:03Z</time>
      </trkpt>
      <trkpt lat="48.61537" lon="1.63077">
        <ele>119</ele>
        <time>2010-05-15T07:50:04Z</time>
      </trkpt>
      <trkpt lat="48.61537" lon="1.63079">
        <ele>119</ele>
        <time>2010-05-15T07:50:05Z</time>
      </trkpt>
      <trkpt lat="48.61536" lon="1.63081">
        <ele>119</ele>
        <time>2010-05-15T07:50:06Z</time>
      </trkpt>
      <trkpt lat="48.61536" lon="1.63083">
        <ele>119</ele>
        <time>2010-05-15T07:50:07Z</time>
      </trkpt>
      <trkpt lat="48.61536" lon="1.63085">
        <ele>119</ele>
        <time>2010-05-15T07:50:08Z</time>
      </trkpt>
      <trkpt lat="48.61535" lon="1.63087">
        <ele>119</ele>
        <time>2010-05-15T07:50:09Z</time>
      </trkpt>
      <trkpt lat="48.61535" lon="1.63089">
        <ele>119</ele>
        <time>2010-05-15T07:50:10Z</time>
      </trkpt>
      <trkpt lat="48.61535" lon="1.63092">
        <ele>119</ele>
        <time>2010-05-15T07:50:11Z</time>
      </trkpt>
      <trkpt lat="48.61534" lon="1.63094">
        <ele>119</ele>
        <time>2010-05-15T07:50:12Z</time>
      </trkpt>
      <trkpt lat="48.61534" lon="1.63096">
        <ele>119</ele>
        <time>2010-05-15T07:50:13Z</time>
      </trkpt>
      <trkpt lat="48.61534" lon="1.63098">
        <ele>119</ele>
        <time>2010-05-15T07:50:14Z</time>
      </trkpt>
      <trkpt lat="48.61533" lon="1.631">
        <ele>119</ele>
        <time>2010-05-15T07:50:15Z</time>
      </trkpt>
      <trkpt lat="48.61533" lon="1.63102">
        <ele>119</ele>
        <time>2010-05-15T07:50:16Z</time>
      </trkpt>
      <trkpt lat="48.61533" lon="1.63104">
        <ele>120</ele>
        <time>2010-05-15T07:50:17Z</time>
      </trkpt>
      <trkpt lat="48.61532" lon="1.63106">
        <ele>120</ele>
        <time>2010-05-15T07:50:18Z</time>
      </trkpt>
      <trkpt lat="48.61532" lon="1.63108">
        <ele>120</ele>
        <time>2010-05-15T07:50:19Z</time>
      </trkpt>
      <trkpt lat="48.61532" lon="1.6311">
        <ele>120</ele>
        <time>2010-05-15T07:50:20Z</time>
      </trkpt>
      <trkpt lat="48.61531" lon="1.63112">
        <ele>120</ele>
        <time>2010-05-15T07:50:21Z</time>
      </trkpt>
      <trkpt lat="48.61531" lon="1.63114">
        <ele>120</ele>
        <time>2010-05-15T07:50:22Z</time>
      </trkpt>
      <trkpt lat="48.61531" lon="1.63116">
        <ele>121</ele>
        <time>2010-05-15T07:50:23Z</time>
      </trkpt>
      <trkpt lat="48.6153" lon="1.63118">
        <ele>121</ele>
        <time>2010-05-15T07:50:24Z</time>
      </trkpt>
      <trkpt lat="48.6153" lon="1.6312">
        <ele>121</ele>
        <time>2010-05-15T07:50:25Z</time>
      </trkpt>
      <trkpt lat="48.6153" lon="1.63122">
        <ele>121</ele>
        <time>2010-05-15T07:50:26Z</time>
      </trkpt>
      <trkpt lat="48.6153" lon="1.63124">
        <ele>121</ele>
        <time>2010-05-15T07:50:27Z</time>
      </trkpt>
      <trkpt lat="48.61529" lon="1.63126">
        <ele>121</ele>
        <time>2010-05-15T07:50:28Z</time>
      </trkpt>
      <trkpt lat="48.61529" lon="1.63128">
        <ele>122</ele>
        <time>2010-05-15T07:50:29Z</time>
      </trkpt>
      <trkpt lat="48.61529" lon="1.6313">
        <ele>122</ele>
        <time>2010-05-15T07:50:30Z</time>
      </trkpt>
      <trkpt lat="48.61528" lon="1.63133">
        <ele>122</ele>
        <time>2010-05-15T07:50:31Z</time>
      </trkpt>
      <trkpt lat="48.61528" lon="1.63135">
        <ele>122</ele>
        <time>2010-05-15T07:50:32Z</time>
      </trkpt>
      <trkpt lat="48.61527" lon="1.63137">
        <ele>122</ele>
        <time>2010-05-15T07:50:33Z</time>
      </trkpt>
      <trkpt lat="48.61527" lon="1.63139">
        <ele>122</ele>
        <time>2010-05-15T07:50:34Z</time>
      </trkpt>
      <trkpt lat="48.61527" lon="1.63141">
        <ele>122</ele>
        <time>2010-05-15T07:50:35Z</time>
      </trkpt>
      <trkpt lat="48.61526" lon="1.63143">
        <ele>122</ele>
        <time>2010-05-15T07:50:36Z</time>
      </trkpt>
      <trkpt lat="48.61526" lon="1.63145">
        <ele>123</ele>
        <time>2010-05-15T07:50:37Z</time>
      </trkpt>
      <trkpt lat="48.61526" lon="1.63147">
        <ele>123</ele>
        <time>2010-05-15T07:50:38Z</time>
      </trkpt>
      <trkpt lat="48.61525" lon="1.6315">
        <ele>123</ele>
        <time>2010-05-15T07:50:39Z</time>
      </trkpt>
      <trkpt lat="48.61525" lon="1.63152">
        <ele>123</ele>
        <time>2010-05-15T07:50:40Z</time>
      </trkpt>
      <trkpt lat="48.61524" lon="1.63154">
        <ele>123</ele>
        <time>2010-05-15T07:50:41Z</time>
      </trkpt>
      <trkpt lat="48.61524" lon="1.63156">
        <ele>124</ele>
        <time>2010-05-15T07:50:42Z</time>
      </trkpt>
      <trkpt lat="48.61523" lon="1.63158">
        <ele>124</ele>
        <time>2010-05-15T07:50:43Z</time>
      </trkpt>
      <trkpt lat="48.61523" lon="1.6316">
        <ele>124</ele>
        <time>2010-05-15T07:50:44Z</time>
      </trkpt>
      <trkpt lat="48.61522" lon="1.63161">
        <ele>124</ele>
        <time>2010-05-15T07:50:45Z</time>
      </trkpt>
      <trkpt lat="48.61522" lon="1.63164">
        <ele>125</ele>
        <time>2010-05-15T07:50:46Z</time>
      </trkpt>
      <trkpt lat="48.61521" lon="1.63166">
        <ele>125</ele>
        <time>2010-05-15T07:50:47Z</time>
      </trkpt>
      <trkpt lat="48.61521" lon="1.63168">
        <ele>125</ele>
        <time>2010-05-15T07:50:48Z</time>
      </trkpt>
      <trkpt lat="48.61521" lon="1.6317">
        <ele>125</ele>
        <time>2010-05-15T07:50:49Z</time>
      </trkpt>
      <trkpt lat="48.6152" lon="1.63172">
        <ele>125</ele>
        <time>2010-05-15T07:50:50Z</time>
      </trkpt>
      <trkpt lat="48.6152" lon="1.63174">
        <ele>125</ele>
        <time>2010-05-15T07:50:51Z</time>
      </trkpt>
      <trkpt lat="48.61519" lon="1.63176">
        <ele>125</ele>
        <time>2010-05-15T07:50:52Z</time>
      </trkpt>
      <trkpt lat="48.61519" lon="1.63178">
        <ele>125</ele>
        <time>2010-05-15T07:50:53Z</time>
      </trkpt>
      <trkpt lat="48.61519" lon="1.6318">
        <ele>126</ele>
        <time>2010-05-15T07:50:54Z</time>
      </trkpt>
      <trkpt lat="48.61518" lon="1.63182">
        <ele>126</ele>
        <time>2010-05-15T07:50:55Z</time>
      </trkpt>
      <trkpt lat="48.61518" lon="1.63185">
        <ele>126</ele>
        <time>2010-05-15T07:50:56Z</time>
      </trkpt>
      <trkpt lat="48.61517" lon="1.63188">
        <ele>126</ele>
        <time>2010-05-15T07:50:57Z</time>
      </trkpt>
      <trkpt lat="48.61516" lon="1.63191">
        <ele>126</ele>
        <time>2010-05-15T07:50:58Z</time>
      </trkpt>
      <trkpt lat="48.61516" lon="1.63194">
        <ele>126</ele>
        <time>2010-05-15T07:50:59Z</time>
      </trkpt>
      <trkpt lat="48.61515" lon="1.63198">
        <ele>126</ele>
        <time>2010-05-15T07:51:00Z</time>
      </trkpt>
      <trkpt lat="48.61515" lon="1.63201">
        <ele>126</ele>
        <time>2010-05-15T07:51:01Z</time>
      </trkpt>
      <trkpt lat="48.61514" lon="1.63204">
        <ele>126</ele>
        <time>2010-05-15T07:51:02Z</time>
      </trkpt>
      <trkpt lat="48.61514" lon="1.63207">
        <ele>126</ele>
        <time>2010-05-15T07:51:03Z</time>
      </trkpt>
      <trkpt lat="48.61513" lon="1.63209">
        <ele>126</ele>
        <time>2010-05-15T07:51:04Z</time>
      </trkpt>
      <trkpt lat="48.61513" lon="1.63212">
        <ele>126</ele>
        <time>2010-05-15T07:51:05Z</time>
      </trkpt>
      <trkpt lat="48.61512" lon="1.63214">
        <ele>126</ele>
        <time>2010-05-15T07:51:06Z</time>
      </trkpt>
      <trkpt lat="48.61512" lon="1.63217">
        <ele>126</ele>
        <time>2010-05-15T07:51:07Z</time>
      </trkpt>
      <trkpt lat="48.61511" lon="1.63219">
        <ele>126</ele>
        <time>2010-05-15T07:51:08Z</time>
      </trkpt>
      <trkpt lat="48.61511" lon="1.63222">
        <ele>126</ele>
        <time>2010-05-15T07:51:09Z</time>
      </trkpt>
      <trkpt lat="48.6151" lon="1.63224">
        <ele>126</ele>
        <time>2010-05-15T07:51:10Z</time>
      </trkpt>
      <trkpt lat="48.6151" lon="1.63226">
        <ele>126</ele>
        <time>2010-05-15T07:51:11Z</time>
      </trkpt>
      <trkpt lat="48.61509" lon="1.63228">
        <ele>126</ele>
        <time>2010-05-15T07:51:12Z</time>
      </trkpt>
      <trkpt lat="48.61509" lon="1.6323">
        <ele>126</ele>
        <time>2010-05-15T07:51:13Z</time>
      </trkpt>
      <trkpt lat="48.61509" lon="1.63232">
        <ele>126</ele>
        <time>2010-05-15T07:51:14Z</time>
      </trkpt>
      <trkpt lat="48.61508" lon="1.63234">
        <ele>126</ele>
        <time>2010-05-15T07:51:15Z</time>
      </trkpt>
      <trkpt lat="48.61508" lon="1.63236">
        <ele>126</ele>
        <time>2010-05-15T07:51:16Z</time>
      </trkpt>
      <trkpt lat="48.61508" lon="1.63238">
        <ele>126</ele>
        <time>2010-05-15T07:51:17Z</time>
      </trkpt>
      <trkpt lat="48.61507" lon="1.6324">
        <ele>126</ele>
        <time>2010-05-15T07:51:19Z</time>
      </trkpt>
      <trkpt lat="48.61507" lon="1.63242">
        <ele>126</ele>
        <time>2010-05-15T07:51:19Z</time>
      </trkpt>
      <trkpt lat="48.61507" lon="1.63244">
        <ele>126</ele>
        <time>2010-05-15T07:51:20Z</time>
      </trkpt>
      <trkpt lat="48.61506" lon="1.63246">
        <ele>126</ele>
        <time>2010-05-15T07:51:21Z</time>
      </trkpt>
      <trkpt lat="48.61506" lon="1.63248">
        <ele>126</ele>
        <time>2010-05-15T07:51:22Z</time>
      </trkpt>
      <trkpt lat="48.61505" lon="1.6325">
        <ele>126</ele>
        <time>2010-05-15T07:51:23Z</time>
      </trkpt>
      <trkpt lat="48.61505" lon="1.63252">
        <ele>126</ele>
        <time>2010-05-15T07:51:24Z</time>
      </trkpt>
      <trkpt lat="48.61504" lon="1.63254">
        <ele>126</ele>
        <time>2010-05-15T07:51:25Z</time>
      </trkpt>
      <trkpt lat="48.61504" lon="1.63256">
        <ele>126</ele>
        <time>2010-05-15T07:51:26Z</time>
      </trkpt>
      <trkpt lat="48.61503" lon="1.63258">
        <ele>126</ele>
        <time>2010-05-15T07:51:27Z</time>
      </trkpt>
      <trkpt lat="48.61503" lon="1.6326">
        <ele>126</ele>
        <time>2010-05-15T07:51:28Z</time>
      </trkpt>
      <trkpt lat="48.61503" lon="1.63263">
        <ele>126</ele>
        <time>2010-05-15T07:51:29Z</time>
      </trkpt>
      <trkpt lat="48.61502" lon="1.63265">
        <ele>126</ele>
        <time>2010-05-15T07:51:30Z</time>
      </trkpt>
      <trkpt lat="48.61502" lon="1.63267">
        <ele>126</ele>
        <time>2010-05-15T07:51:31Z</time>
      </trkpt>
      <trkpt lat="48.61502" lon="1.63269">
        <ele>126</ele>
        <time>2010-05-15T07:51:32Z</time>
      </trkpt>
      <trkpt lat="48.61501" lon="1.63271">
        <ele>126</ele>
        <time>2010-05-15T07:51:33Z</time>
      </trkpt>
      <trkpt lat="48.61501" lon="1.63273">
        <ele>126</ele>
        <time>2010-05-15T07:51:34Z</time>
      </trkpt>
      <trkpt lat="48.615" lon="1.63276">
        <ele>126</ele>
        <time>2010-05-15T07:51:35Z</time>
      </trkpt>
      <trkpt lat="48.615" lon="1.63278">
        <ele>126</ele>
        <time>2010-05-15T07:51:36Z</time>
      </trkpt>
      <trkpt lat="48.615" lon="1.6328">
        <ele>126</ele>
        <time>2010-05-15T07:51:37Z</time>
      </trkpt>
      <trkpt lat="48.61499" lon="1.63282">
        <ele>126</ele>
        <time>2010-05-15T07:51:38Z</time>
      </trkpt>
      <trkpt lat="48.61499" lon="1.63284">
        <ele>126</ele>
        <time>2010-05-15T07:51:39Z</time>
      </trkpt>
      <trkpt lat="48.61498" lon="1.63286">
        <ele>126</ele>
        <time>2010-05-15T07:51:40Z</time>
      </trkpt>
      <trkpt lat="48.61498" lon="1.63288">
        <ele>126</ele>
        <time>2010-05-15T07:51:41Z</time>
      </trkpt>
      <trkpt lat="48.61498" lon="1.63291">
        <ele>126</ele>
        <time>2010-05-15T07:51:42Z</time>
      </trkpt>
      <trkpt lat="48.61497" lon="1.63293">
        <ele>126</ele>
        <time>2010-05-15T07:51:43Z</time>
      </trkpt>
      <trkpt lat="48.61497" lon="1.63295">
        <ele>126</ele>
        <time>2010-05-15T07:51:44Z</time>
      </trkpt>
      <trkpt lat="48.61496" lon="1.63297">
        <ele>126</ele>
        <time>2010-05-15T07:51:45Z</time>
      </trkpt>
      <trkpt lat="48.61496" lon="1.63299">
        <ele>126</ele>
        <time>2010-05-15T07:51:46Z</time>
      </trkpt>
      <trkpt lat="48.61496" lon="1.63301">
        <ele>126</ele>
        <time>2010-05-15T07:51:47Z</time>
      </trkpt>
      <trkpt lat="48.61495" lon="1.63304">
        <ele>126</ele>
        <time>2010-05-15T07:51:48Z</time>
      </trkpt>
      <trkpt lat="48.61495" lon="1.63306">
        <ele>126</ele>
        <time>2010-05-15T07:51:49Z</time>
      </trkpt>
      <trkpt lat="48.61494" lon="1.63308">
        <ele>126</ele>
        <time>2010-05-15T07:51:50Z</time>
      </trkpt>
      <trkpt lat="48.61494" lon="1.6331">
        <ele>126</ele>
        <time>2010-05-15T07:51:51Z</time>
      </trkpt>
      <trkpt lat="48.61493" lon="1.63312">
        <ele>126</ele>
        <time>2010-05-15T07:51:52Z</time>
      </trkpt>
      <trkpt lat="48.61493" lon="1.63314">
        <ele>126</ele>
        <time>2010-05-15T07:51:53Z</time>
      </trkpt>
      <trkpt lat="48.61493" lon="1.63316">
        <ele>126</ele>
        <time>2010-05-15T07:51:54Z</time>
      </trkpt>
      <trkpt lat="48.61492" lon="1.63318">
        <ele>126</ele>
        <time>2010-05-15T07:51:55Z</time>
      </trkpt>
      <trkpt lat="48.61492" lon="1.6332">
        <ele>126</ele>
        <time>2010-05-15T07:51:56Z</time>
      </trkpt>
      <trkpt lat="48.61491" lon="1.63323">
        <ele>126</ele>
        <time>2010-05-15T07:51:57Z</time>
      </trkpt>
      <trkpt lat="48.61491" lon="1.63325">
        <ele>126</ele>
        <time>2010-05-15T07:51:58Z</time>
      </trkpt>
      <trkpt lat="48.6149" lon="1.63327">
        <ele>126</ele>
        <time>2010-05-15T07:51:59Z</time>
      </trkpt>
      <trkpt lat="48.6149" lon="1.63329">
        <ele>126</ele>
        <time>2010-05-15T07:52:00Z</time>
      </trkpt>
      <trkpt lat="48.61489" lon="1.63331">
        <ele>126</ele>
        <time>2010-05-15T07:52:01Z</time>
      </trkpt>
      <trkpt lat="48.61489" lon="1.63333">
        <ele>126</ele>
        <time>2010-05-15T07:52:02Z</time>
      </trkpt>
      <trkpt lat="48.61488" lon="1.63335">
        <ele>126</ele>
        <time>2010-05-15T07:52:03Z</time>
      </trkpt>
      <trkpt lat="48.61488" lon="1.63338">
        <ele>126</ele>
        <time>2010-05-15T07:52:04Z</time>
      </trkpt>
      <trkpt lat="48.61488" lon="1.6334">
        <ele>126</ele>
        <time>2010-05-15T07:52:05Z</time>
      </trkpt>
      <trkpt lat="48.61488" lon="1.63342">
        <ele>126</ele>
        <time>2010-05-15T07:52:06Z</time>
      </trkpt>
      <trkpt lat="48.61487" lon="1.63344">
        <ele>126</ele>
        <time>2010-05-15T07:52:07Z</time>
      </trkpt>
      <trkpt lat="48.61487" lon="1.63346">
        <ele>126</ele>
        <time>2010-05-15T07:52:08Z</time>
      </trkpt>
      <trkpt lat="48.61486" lon="1.63348">
        <ele>126</ele>
        <time>2010-05-15T07:52:09Z</time>
      </trkpt>
      <trkpt lat="48.61486" lon="1.6335">
        <ele>126</ele>
        <time>2010-05-15T07:52:10Z</time>
      </trkpt>
      <trkpt lat="48.61485" lon="1.63352">
        <ele>126</ele>
        <time>2010-05-15T07:52:11Z</time>
      </trkpt>
      <trkpt lat="48.61485" lon="1.63354">
        <ele>126</ele>
        <time>2010-05-15T07:52:12Z</time>
      </trkpt>
      <trkpt lat="48.61484" lon="1.63357">
        <ele>126</ele>
        <time>2010-05-15T07:52:13Z</time>
      </trkpt>
      <trkpt lat="48.61484" lon="1.63359">
        <ele>126</ele>
        <time>2010-05-15T07:52:14Z</time>
      </trkpt>
      <trkpt lat="48.61484" lon="1.63361">
        <ele>126</ele>
        <time>2010-05-15T07:52:15Z</time>
      </trkpt>
      <trkpt lat="48.61483" lon="1.63363">
        <ele>126</ele>
        <time>2010-05-15T07:52:16Z</time>
      </trkpt>
      <trkpt lat="48.61483" lon="1.63365">
        <ele>126</ele>
        <time>2010-05-15T07:52:17Z</time>
      </trkpt>
      <trkpt lat="48.61482" lon="1.63368">
        <ele>126</ele>
        <time>2010-05-15T07:52:18Z</time>
      </trkpt>
      <trkpt lat="48.61482" lon="1.6337">
        <ele>126</ele>
        <time>2010-05-15T07:52:19Z</time>
      </trkpt>
      <trkpt lat="48.61481" lon="1.63372">
        <ele>126</ele>
        <time>2010-05-15T07:52:20Z</time>
      </trkpt>
      <trkpt lat="48.61481" lon="1.63374">
        <ele>126</ele>
        <time>2010-05-15T07:52:21Z</time>
      </trkpt>
      <trkpt lat="48.6148" lon="1.63376">
        <ele>126</ele>
        <time>2010-05-15T07:52:22Z</time>
      </trkpt>
      <trkpt lat="48.6148" lon="1.63378">
        <ele>126</ele>
        <time>2010-05-15T07:52:23Z</time>
      </trkpt>
      <trkpt lat="48.61479" lon="1.6338">
        <ele>126</ele>
        <time>2010-05-15T07:52:24Z</time>
      </trkpt>
      <trkpt lat="48.61479" lon="1.63382">
        <ele>126</ele>
        <time>2010-05-15T07:52:25Z</time>
      </trkpt>
      <trkpt lat="48.61478" lon="1.63384">
        <ele>126</ele>
        <time>2010-05-15T07:52:26Z</time>
      </trkpt>
      <trkpt lat="48.61478" lon="1.63386">
        <ele>126</ele>
        <time>2010-05-15T07:52:27Z</time>
      </trkpt>
      <trkpt lat="48.61477" lon="1.63388">
        <ele>126</ele>
        <time>2010-05-15T07:52:28Z</time>
      </trkpt>
      <trkpt lat="48.61477" lon="1.6339">
        <ele>126</ele>
        <time>2010-05-15T07:52:29Z</time>
      </trkpt>
      <trkpt lat="48.61476" lon="1.63392">
        <ele>126</ele>
        <time>2010-05-15T07:52:30Z</time>
      </trkpt>
      <trkpt lat="48.61476" lon="1.63394">
        <ele>126</ele>
        <time>2010-05-15T07:52:31Z</time>
      </trkpt>
      <trkpt lat="48.61475" lon="1.63397">
        <ele>126</ele>
        <time>2010-05-15T07:52:32Z</time>
      </trkpt>
      <trkpt lat="48.61474" lon="1.63399">
        <ele>126</ele>
        <time>2010-05-15T07:52:33Z</time>
      </trkpt>
      <trkpt lat="48.61474" lon="1.63402">
        <ele>126</ele>
        <time>2010-05-15T07:52:34Z</time>
      </trkpt>
      <trkpt lat="48.61473" lon="1.63405">
        <ele>126</ele>
        <time>2010-05-15T07:52:35Z</time>
      </trkpt>
      <trkpt lat="48.61472" lon="1.6341">
        <ele>126</ele>
        <time>2010-05-15T07:52:36Z</time>
      </trkpt>
      <trkpt lat="48.61471" lon="1.63414">
        <ele>126</ele>
        <time>2010-05-15T07:52:37Z</time>
      </trkpt>
      <trkpt lat="48.6147" lon="1.63419">
        <ele>126</ele>
        <time>2010-05-15T07:52:38Z</time>
      </trkpt>
      <trkpt lat="48.6147" lon="1.63423">
        <ele>126</ele>
        <time>2010-05-15T07:52:39Z</time>
      </trkpt>
      <trkpt lat="48.61469" lon="1.63427">
        <ele>126</ele>
        <time>2010-05-15T07:52:40Z</time>
      </trkpt>
      <trkpt lat="48.61468" lon="1.63431">
        <ele>126</ele>
        <time>2010-05-15T07:52:41Z</time>
      </trkpt>
      <trkpt lat="48.61468" lon="1.63434">
        <ele>126</ele>
        <time>2010-05-15T07:52:42Z</time>
      </trkpt>
      <trkpt lat="48.61468" lon="1.63436">
        <ele>126</ele>
        <time>2010-05-15T07:52:43Z</time>
      </trkpt>
      <trkpt lat="48.61468" lon="1.63438">
        <ele>126</ele>
        <time>2010-05-15T07:52:44Z</time>
      </trkpt>
      <trkpt lat="48.61467" lon="1.6344">
        <ele>126</ele>
        <time>2010-05-15T07:52:45Z</time>
      </trkpt>
      <trkpt lat="48.61467" lon="1.63442">
        <ele>126</ele>
        <time>2010-05-15T07:52:46Z</time>
      </trkpt>
      <trkpt lat="48.61467" lon="1.63444">
        <ele>126</ele>
        <time>2010-05-15T07:52:47Z</time>
      </trkpt>
      <trkpt lat="48.61466" lon="1.63446">
        <ele>126</ele>
        <time>2010-05-15T07:52:48Z</time>
      </trkpt>
      <trkpt lat="48.61466" lon="1.63449">
        <ele>126</ele>
        <time>2010-05-15T07:52:49Z</time>
      </trkpt>
      <trkpt lat="48.61466" lon="1.63451">
        <ele>126</ele>
        <time>2010-05-15T07:52:50Z</time>
      </trkpt>
      <trkpt lat="48.61466" lon="1.63453">
        <ele>126</ele>
        <time>2010-05-15T07:52:51Z</time>
      </trkpt>
      <trkpt lat="48.61466" lon="1.63456">
        <ele>126</ele>
        <time>2010-05-15T07:52:52Z</time>
      </trkpt>
      <trkpt lat="48.61465" lon="1.63458">
        <ele>126</ele>
        <time>2010-05-15T07:52:53Z</time>
      </trkpt>
      <trkpt lat="48.61465" lon="1.6346">
        <ele>126</ele>
        <time>2010-05-15T07:52:54Z</time>
      </trkpt>
      <trkpt lat="48.61465" lon="1.63463">
        <ele>126</ele>
        <time>2010-05-15T07:52:55Z</time>
      </trkpt>
      <trkpt lat="48.61464" lon="1.63465">
        <ele>126</ele>
        <time>2010-05-15T07:52:56Z</time>
      </trkpt>
      <trkpt lat="48.61464" lon="1.63467">
        <ele>126</ele>
        <time>2010-05-15T07:52:57Z</time>
      </trkpt>
      <trkpt lat="48.61464" lon="1.63469">
        <ele>126</ele>
        <time>2010-05-15T07:52:58Z</time>
      </trkpt>
      <trkpt lat="48.61463" lon="1.63472">
        <ele>126</ele>
        <time>2010-05-15T07:52:59Z</time>
      </trkpt>
      <trkpt lat="48.61463" lon="1.63475">
        <ele>126</ele>
        <time>2010-05-15T07:53:00Z</time>
      </trkpt>
      <trkpt lat="48.61463" lon="1.63477">
        <ele>126</ele>
        <time>2010-05-15T07:53:01Z</time>
      </trkpt>
      <trkpt lat="48.61463" lon="1.6348">
        <ele>126</ele>
        <time>2010-05-15T07:53:02Z</time>
      </trkpt>
      <trkpt lat="48.61462" lon="1.63483">
        <ele>126</ele>
        <time>2010-05-15T07:53:03Z</time>
      </trkpt>
      <trkpt lat="48.61462" lon="1.63486">
        <ele>126</ele>
        <time>2010-05-15T07:53:04Z</time>
      </trkpt>
      <trkpt lat="48.61462" lon="1.63489">
        <ele>126</ele>
        <time>2010-05-15T07:53:05Z</time>
      </trkpt>
      <trkpt lat="48.61462" lon="1.63492">
        <ele>126</ele>
        <time>2010-05-15T07:53:06Z</time>
      </trkpt>
      <trkpt lat="48.61461" lon="1.63495">
        <ele>126</ele>
        <time>2010-05-15T07:53:07Z</time>
      </trkpt>
      <trkpt lat="48.61461" lon="1.63498">
        <ele>126</ele>
        <time>2010-05-15T07:53:08Z</time>
      </trkpt>
      <trkpt lat="48.6146" lon="1.63501">
        <ele>126</ele>
        <time>2010-05-15T07:53:09Z</time>
      </trkpt>
      <trkpt lat="48.6146" lon="1.63503">
        <ele>126</ele>
        <time>2010-05-15T07:53:10Z</time>
      </trkpt>
      <trkpt lat="48.61459" lon="1.63506">
        <ele>126</ele>
        <time>2010-05-15T07:53:11Z</time>
      </trkpt>
      <trkpt lat="48.61459" lon="1.63509">
        <ele>126</ele>
        <time>2010-05-15T07:53:12Z</time>
      </trkpt>
      <trkpt lat="48.61459" lon="1.63511">
        <ele>126</ele>
        <time>2010-05-15T07:53:13Z</time>
      </trkpt>
      <trkpt lat="48.61458" lon="1.63514">
        <ele>126</ele>
        <time>2010-05-15T07:53:14Z</time>
      </trkpt>
      <trkpt lat="48.61457" lon="1.63517">
        <ele>126</ele>
        <time>2010-05-15T07:53:15Z</time>
      </trkpt>
      <trkpt lat="48.61457" lon="1.63519">
        <ele>126</ele>
        <time>2010-05-15T07:53:16Z</time>
      </trkpt>
      <trkpt lat="48.61456" lon="1.63521">
        <ele>126</ele>
        <time>2010-05-15T07:53:17Z</time>
      </trkpt>
      <trkpt lat="48.61456" lon="1.63524">
        <ele>126</ele>
        <time>2010-05-15T07:53:18Z</time>
      </trkpt>
      <trkpt lat="48.61456" lon="1.63526">
        <ele>126</ele>
        <time>2010-05-15T07:53:19Z</time>
      </trkpt>
      <trkpt lat="48.61455" lon="1.63528">
        <ele>126</ele>
        <time>2010-05-15T07:53:20Z</time>
      </trkpt>
      <trkpt lat="48.61455" lon="1.6353">
        <ele>126</ele>
        <time>2010-05-15T07:53:21Z</time>
      </trkpt>
      <trkpt lat="48.61455" lon="1.63532">
        <ele>126</ele>
        <time>2010-05-15T07:53:22Z</time>
      </trkpt>
      <trkpt lat="48.61454" lon="1.63534">
        <ele>126</ele>
        <time>2010-05-15T07:53:23Z</time>
      </trkpt>
      <trkpt lat="48.61454" lon="1.63536">
        <ele>126</ele>
        <time>2010-05-15T07:53:24Z</time>
      </trkpt>
      <trkpt lat="48.61454" lon="1.63538">
        <ele>126</ele>
        <time>2010-05-15T07:53:25Z</time>
      </trkpt>
      <trkpt lat="48.61453" lon="1.6354">
        <ele>126</ele>
        <time>2010-05-15T07:53:26Z</time>
      </trkpt>
      <trkpt lat="48.61453" lon="1.63542">
        <ele>126</ele>
        <time>2010-05-15T07:53:27Z</time>
      </trkpt>
      <trkpt lat="48.61452" lon="1.63544">
        <ele>126</ele>
        <time>2010-05-15T07:53:28Z</time>
      </trkpt>
      <trkpt lat="48.61452" lon="1.63546">
        <ele>126</ele>
        <time>2010-05-15T07:53:29Z</time>
      </trkpt>
      <trkpt lat="48.61452" lon="1.63548">
        <ele>126</ele>
        <time>2010-05-15T07:53:30Z</time>
      </trkpt>
      <trkpt lat="48.61452" lon="1.6355">
        <ele>126</ele>
        <time>2010-05-15T07:53:31Z</time>
      </trkpt>
      <trkpt lat="48.61451" lon="1.63553">
        <ele>126</ele>
        <time>2010-05-15T07:53:32Z</time>
      </trkpt>
      <trkpt lat="48.6145" lon="1.63556">
        <ele>126</ele>
        <time>2010-05-15T07:53:33Z</time>
      </trkpt>
      <trkpt lat="48.6145" lon="1.63559">
        <ele>126</ele>
        <time>2010-05-15T07:53:34Z</time>
      </trkpt>
      <trkpt lat="48.61449" lon="1.63564">
        <ele>126</ele>
        <time>2010-05-15T07:53:35Z</time>
      </trkpt>
      <trkpt lat="48.61448" lon="1.63568">
        <ele>126</ele>
        <time>2010-05-15T07:53:36Z</time>
      </trkpt>
      <trkpt lat="48.61447" lon="1.63572">
        <ele>126</ele>
        <time>2010-05-15T07:53:37Z</time>
      </trkpt>
      <trkpt lat="48.61447" lon="1.63576">
        <ele>126</ele>
        <time>2010-05-15T07:53:38Z</time>
      </trkpt>
      <trkpt lat="48.61446" lon="1.6358">
        <ele>126</ele>
        <time>2010-05-15T07:53:39Z</time>
      </trkpt>
      <trkpt lat="48.61445" lon="1.63584">
        <ele>126</ele>
        <time>2010-05-15T07:53:40Z</time>
      </trkpt>
      <trkpt lat="48.61444" lon="1.63588">
        <ele>126</ele>
        <time>2010-05-15T07:53:41Z</time>
      </trkpt>
      <trkpt lat="48.61444" lon="1.63592">
        <ele>126</ele>
        <time>2010-05-15T07:53:42Z</time>
      </trkpt>
      <trkpt lat="48.61443" lon="1.63595">
        <ele>126</ele>
        <time>2010-05-15T07:53:43Z</time>
      </trkpt>
      <trkpt lat="48.61442" lon="1.63598">
        <ele>126</ele>
        <time>2010-05-15T07:53:44Z</time>
      </trkpt>
      <trkpt lat="48.61441" lon="1.63601">
        <ele>126</ele>
        <time>2010-05-15T07:53:45Z</time>
      </trkpt>
      <trkpt lat="48.61441" lon="1.63604">
        <ele>126</ele>
        <time>2010-05-15T07:53:46Z</time>
      </trkpt>
      <trkpt lat="48.6144" lon="1.63606">
        <ele>126</ele>
        <time>2010-05-15T07:53:47Z</time>
      </trkpt>
      <trkpt lat="48.61439" lon="1.63608">
        <ele>126</ele>
        <time>2010-05-15T07:53:48Z</time>
      </trkpt>
      <trkpt lat="48.61439" lon="1.6361">
        <ele>126</ele>
        <time>2010-05-15T07:53:49Z</time>
      </trkpt>
      <trkpt lat="48.61438" lon="1.63612">
        <ele>126</ele>
        <time>2010-05-15T07:53:50Z</time>
      </trkpt>
      <trkpt lat="48.61438" lon="1.63614">
        <ele>126</ele>
        <time>2010-05-15T07:53:51Z</time>
      </trkpt>
      <trkpt lat="48.61438" lon="1.63616">
        <ele>126</ele>
        <time>2010-05-15T07:53:52Z</time>
      </trkpt>
      <trkpt lat="48.61438" lon="1.63618">
        <ele>126</ele>
        <time>2010-05-15T07:53:53Z</time>
      </trkpt>
      <trkpt lat="48.61437" lon="1.6362">
        <ele>126</ele>
        <time>2010-05-15T07:53:54Z</time>
      </trkpt>
      <trkpt lat="48.61437" lon="1.63622">
        <ele>126</ele>
        <time>2010-05-15T07:53:55Z</time>
      </trkpt>
      <trkpt lat="48.61436" lon="1.63624">
        <ele>126</ele>
        <time>2010-05-15T07:53:56Z</time>
      </trkpt>
      <trkpt lat="48.61436" lon="1.63626">
        <ele>126</ele>
        <time>2010-05-15T07:53:57Z</time>
      </trkpt>
      <trkpt lat="48.61435" lon="1.63628">
        <ele>126</ele>
        <time>2010-05-15T07:53:58Z</time>
      </trkpt>
      <trkpt lat="48.61435" lon="1.6363">
        <ele>126</ele>
        <time>2010-05-15T07:53:59Z</time>
      </trkpt>
      <trkpt lat="48.61434" lon="1.63632">
        <ele>126</ele>
        <time>2010-05-15T07:54:00Z</time>
      </trkpt>
      <trkpt lat="48.61434" lon="1.63635">
        <ele>126</ele>
        <time>2010-05-15T07:54:01Z</time>
      </trkpt>
      <trkpt lat="48.61433" lon="1.63637">
        <ele>126</ele>
        <time>2010-05-15T07:54:02Z</time>
      </trkpt>
      <trkpt lat="48.61433" lon="1.63639">
        <ele>126</ele>
        <time>2010-05-15T07:54:03Z</time>
      </trkpt>
      <trkpt lat="48.61433" lon="1.63641">
        <ele>126</ele>
        <time>2010-05-15T07:54:04Z</time>
      </trkpt>
      <trkpt lat="48.61432" lon="1.63643">
        <ele>126</ele>
        <time>2010-05-15T07:54:05Z</time>
      </trkpt>
      <trkpt lat="48.61432" lon="1.63645">
        <ele>126</ele>
        <time>2010-05-15T07:54:06Z</time>
      </trkpt>
      <trkpt lat="48.61431" lon="1.63647">
        <ele>126</ele>
        <time>2010-05-15T07:54:07Z</time>
      </trkpt>
      <trkpt lat="48.61431" lon="1.63649">
        <ele>126</ele>
        <time>2010-05-15T07:54:08Z</time>
      </trkpt>
      <trkpt lat="48.61431" lon="1.63652">
        <ele>126</ele>
        <time>2010-05-15T07:54:09Z</time>
      </trkpt>
      <trkpt lat="48.6143" lon="1.63654">
        <ele>126</ele>
        <time>2010-05-15T07:54:10Z</time>
      </trkpt>
      <trkpt lat="48.6143" lon="1.63656">
        <ele>126</ele>
        <time>2010-05-15T07:54:11Z</time>
      </trkpt>
      <trkpt lat="48.61429" lon="1.63658">
        <ele>126</ele>
        <time>2010-05-15T07:54:12Z</time>
      </trkpt>
      <trkpt lat="48.61429" lon="1.6366">
        <ele>126</ele>
        <time>2010-05-15T07:54:13Z</time>
      </trkpt>
      <trkpt lat="48.61428" lon="1.63663">
        <ele>126</ele>
        <time>2010-05-15T07:54:14Z</time>
      </trkpt>
      <trkpt lat="48.61428" lon="1.63665">
        <ele>126</ele>
        <time>2010-05-15T07:54:15Z</time>
      </trkpt>
      <trkpt lat="48.61428" lon="1.63667">
        <ele>126</ele>
        <time>2010-05-15T07:54:16Z</time>
      </trkpt>
      <trkpt lat="48.61428" lon="1.63669">
        <ele>126</ele>
        <time>2010-05-15T07:54:17Z</time>
      </trkpt>
      <trkpt lat="48.61427" lon="1.63671">
        <ele>126</ele>
        <time>2010-05-15T07:54:18Z</time>
      </trkpt>
      <trkpt lat="48.61427" lon="1.63673">
        <ele>126</ele>
        <time>2010-05-15T07:54:19Z</time>
      </trkpt>
      <trkpt lat="48.61426" lon="1.63675">
        <ele>126</ele>
        <time>2010-05-15T07:54:20Z</time>
      </trkpt>
      <trkpt lat="48.61426" lon="1.63677">
        <ele>126</ele>
        <time>2010-05-15T07:54:21Z</time>
      </trkpt>
      <trkpt lat="48.61425" lon="1.63679">
        <ele>126</ele>
        <time>2010-05-15T07:54:22Z</time>
      </trkpt>
      <trkpt lat="48.61425" lon="1.63682">
        <ele>126</ele>
        <time>2010-05-15T07:54:23Z</time>
      </trkpt>
      <trkpt lat="48.61424" lon="1.63685">
        <ele>126</ele>
        <time>2010-05-15T07:54:24Z</time>
      </trkpt>
      <trkpt lat="48.61423" lon="1.63689">
        <ele>126</ele>
        <time>2010-05-15T07:54:25Z</time>
      </trkpt>
      <trkpt lat="48.61423" lon="1.63692">
        <ele>126</ele>
        <time>2010-05-15T07:54:26Z</time>
      </trkpt>
      <trkpt lat="48.61422" lon="1.63694">
        <ele>126</ele>
        <time>2010-05-15T07:54:27Z</time>
      </trkpt>
      <trkpt lat="48.61422" lon="1.63697">
        <ele>126</ele>
        <time>2010-05-15T07:54:28Z</time>
      </trkpt>
      <trkpt lat="48.61421" lon="1.63699">
        <ele>126</ele>
        <time>2010-05-15T07:54:29Z</time>
      </trkpt>
      <trkpt lat="48.61421" lon="1.63702">
        <ele>126</ele>
        <time>2010-05-15T07:54:30Z</time>
      </trkpt>
      <trkpt lat="48.6142" lon="1.63704">
        <ele>126</ele>
        <time>2010-05-15T07:54:31Z</time>
      </trkpt>
      <trkpt lat="48.6142" lon="1.63706">
        <ele>126</ele>
        <time>2010-05-15T07:54:32Z</time>
      </trkpt>
      <trkpt lat="48.6142" lon="1.63708">
        <ele>126</ele>
        <time>2010-05-15T07:54:33Z</time>
      </trkpt>
      <trkpt lat="48.61419" lon="1.63711">
        <ele>126</ele>
        <time>2010-05-15T07:54:34Z</time>
      </trkpt>
      <trkpt lat="48.61419" lon="1.63713">
        <ele>126</ele>
        <time>2010-05-15T07:54:35Z</time>
      </trkpt>
      <trkpt lat="48.61418" lon="1.63715">
        <ele>126</ele>
        <time>2010-05-15T07:54:36Z</time>
      </trkpt>
      <trkpt lat="48.61418" lon="1.63718">
        <ele>126</ele>
        <time>2010-05-15T07:54:37Z</time>
      </trkpt>
      <trkpt lat="48.61417" lon="1.6372">
        <ele>126</ele>
        <time>2010-05-15T07:54:38Z</time>
      </trkpt>
      <trkpt lat="48.61417" lon="1.63722">
        <ele>126</ele>
        <time>2010-05-15T07:54:39Z</time>
      </trkpt>
      <trkpt lat="48.61416" lon="1.63724">
        <ele>126</ele>
        <time>2010-05-15T07:54:40Z</time>
      </trkpt>
      <trkpt lat="48.61416" lon="1.63727">
        <ele>126</ele>
        <time>2010-05-15T07:54:41Z</time>
      </trkpt>
      <trkpt lat="48.61415" lon="1.63729">
        <ele>126</ele>
        <time>2010-05-15T07:54:42Z</time>
      </trkpt>
      <trkpt lat="48.61415" lon="1.63731">
        <ele>126</ele>
        <time>2010-05-15T07:54:43Z</time>
      </trkpt>
      <trkpt lat="48.61415" lon="1.63733">
        <ele>126</ele>
        <time>2010-05-15T07:54:44Z</time>
      </trkpt>
      <trkpt lat="48.61415" lon="1.63736">
        <ele>126</ele>
        <time>2010-05-15T07:54:45Z</time>
      </trkpt>
      <trkpt lat="48.61414" lon="1.63738">
        <ele>126</ele>
        <time>2010-05-15T07:54:46Z</time>
      </trkpt>
      <trkpt lat="48.61414" lon="1.6374">
        <ele>126</ele>
        <time>2010-05-15T07:54:47Z</time>
      </trkpt>
      <trkpt lat="48.61413" lon="1.63742">
        <ele>126</ele>
        <time>2010-05-15T07:54:48Z</time>
      </trkpt>
      <trkpt lat="48.61413" lon="1.63744">
        <ele>126</ele>
        <time>2010-05-15T07:54:49Z</time>
      </trkpt>
      <trkpt lat="48.61413" lon="1.63746">
        <ele>126</ele>
        <time>2010-05-15T07:54:50Z</time>
      </trkpt>
      <trkpt lat="48.61412" lon="1.63749">
        <ele>126</ele>
        <time>2010-05-15T07:54:51Z</time>
      </trkpt>
      <trkpt lat="48.61412" lon="1.63751">
        <ele>126</ele>
        <time>2010-05-15T07:54:52Z</time>
      </trkpt>
      <trkpt lat="48.61412" lon="1.63753">
        <ele>126</ele>
        <time>2010-05-15T07:54:53Z</time>
      </trkpt>
      <trkpt lat="48.61412" lon="1.63755">
        <ele>126</ele>
        <time>2010-05-15T07:54:54Z</time>
      </trkpt>
      <trkpt lat="48.61412" lon="1.63757">
        <ele>126</ele>
        <time>2010-05-15T07:54:55Z</time>
      </trkpt>
      <trkpt lat="48.61412" lon="1.63759">
        <ele>126</ele>
        <time>2010-05-15T07:54:56Z</time>
      </trkpt>
      <trkpt lat="48.61411" lon="1.63762">
        <ele>126</ele>
        <time>2010-05-15T07:54:57Z</time>
      </trkpt>
      <trkpt lat="48.61411" lon="1.63764">
        <ele>126</ele>
        <time>2010-05-15T07:54:58Z</time>
      </trkpt>
      <trkpt lat="48.61411" lon="1.63767">
        <ele>126</ele>
        <time>2010-05-15T07:54:59Z</time>
      </trkpt>
      <trkpt lat="48.6141" lon="1.63771">
        <ele>126</ele>
        <time>2010-05-15T07:55:00Z</time>
      </trkpt>
      <trkpt lat="48.6141" lon="1.63774">
        <ele>126</ele>
        <time>2010-05-15T07:55:01Z</time>
      </trkpt>
      <trkpt lat="48.61409" lon="1.63778">
        <ele>126</ele>
        <time>2010-05-15T07:55:02Z</time>
      </trkpt>
      <trkpt lat="48.61409" lon="1.6378">
        <ele>126</ele>
        <time>2010-05-15T07:55:03Z</time>
      </trkpt>
      <trkpt lat="48.61408" lon="1.63783">
        <ele>126</ele>
        <time>2010-05-15T07:55:04Z</time>
      </trkpt>
      <trkpt lat="48.61408" lon="1.63785">
        <ele>126</ele>
        <time>2010-05-15T07:55:05Z</time>
      </trkpt>
      <trkpt lat="48.61408" lon="1.63788">
        <ele>126</ele>
        <time>2010-05-15T07:55:06Z</time>
      </trkpt>
      <trkpt lat="48.61408" lon="1.63791">
        <ele>126</ele>
        <time>2010-05-15T07:55:07Z</time>
      </trkpt>
      <trkpt lat="48.61407" lon="1.63794">
        <ele>126</ele>
        <time>2010-05-15T07:55:08Z</time>
      </trkpt>
      <trkpt lat="48.61407" lon="1.63796">
        <ele>126</ele>
        <time>2010-05-15T07:55:09Z</time>
      </trkpt>
      <trkpt lat="48.61407" lon="1.63799">
        <ele>126</ele>
        <time>2010-05-15T07:55:10Z</time>
      </trkpt>
      <trkpt lat="48.61406" lon="1.63801">
        <ele>126</ele>
        <time>2010-05-15T07:55:11Z</time>
      </trkpt>
      <trkpt lat="48.61406" lon="1.63803">
        <ele>126</ele>
        <time>2010-05-15T07:55:12Z</time>
      </trkpt>
      <trkpt lat="48.61406" lon="1.63805">
        <ele>126</ele>
        <time>2010-05-15T07:55:13Z</time>
      </trkpt>
      <trkpt lat="48.61406" lon="1.63807">
        <ele>126</ele>
        <time>2010-05-15T07:55:14Z</time>
      </trkpt>
      <trkpt lat="48.61406" lon="1.6381">
        <ele>126</ele>
        <time>2010-05-15T07:55:15Z</time>
      </trkpt>
      <trkpt lat="48.61406" lon="1.63812">
        <ele>126</ele>
        <time>2010-05-15T07:55:16Z</time>
      </trkpt>
      <trkpt lat="48.61405" lon="1.63814">
        <ele>126</ele>
        <time>2010-05-15T07:55:17Z</time>
      </trkpt>
      <trkpt lat="48.61405" lon="1.63816">
        <ele>126</ele>
        <time>2010-05-15T07:55:18Z</time>
      </trkpt>
      <trkpt lat="48.61405" lon="1.63818">
        <ele>126</ele>
        <time>2010-05-15T07:55:19Z</time>
      </trkpt>
      <trkpt lat="48.61405" lon="1.6382">
        <ele>126</ele>
        <time>2010-05-15T07:55:20Z</time>
      </trkpt>
      <trkpt lat="48.61404" lon="1.63822">
        <ele>126</ele>
        <time>2010-05-15T07:55:21Z</time>
      </trkpt>
      <trkpt lat="48.61404" lon="1.63824">
        <ele>126</ele>
        <time>2010-05-15T07:55:22Z</time>
      </trkpt>
      <trkpt lat="48.61404" lon="1.63826">
        <ele>126</ele>
        <time>2010-05-15T07:55:23Z</time>
      </trkpt>
      <trkpt lat="48.61403" lon="1.63829">
        <ele>126</ele>
        <time>2010-05-15T07:55:24Z</time>
      </trkpt>
      <trkpt lat="48.61403" lon="1.6383">
        <ele>126</ele>
        <time>2010-05-15T07:55:25Z</time>
      </trkpt>
      <trkpt lat="48.61403" lon="1.63832">
        <ele>126</ele>
        <time>2010-05-15T07:55:26Z</time>
      </trkpt>
      <trkpt lat="48.61402" lon="1.63834">
        <ele>126</ele>
        <time>2010-05-15T07:55:27Z</time>
      </trkpt>
      <trkpt lat="48.61402" lon="1.63837">
        <ele>126</ele>
        <time>2010-05-15T07:55:28Z</time>
      </trkpt>
      <trkpt lat="48.61402" lon="1.6384">
        <ele>126</ele>
        <time>2010-05-15T07:55:29Z</time>
      </trkpt>
      <trkpt lat="48.61402" lon="1.63843">
        <ele>127</ele>
        <time>2010-05-15T07:55:30Z</time>
      </trkpt>
      <trkpt lat="48.61401" lon="1.63846">
        <ele>127</ele>
        <time>2010-05-15T07:55:31Z</time>
      </trkpt>
      <trkpt lat="48.61401" lon="1.63848">
        <ele>128</ele>
        <time>2010-05-15T07:55:32Z</time>
      </trkpt>
      <trkpt lat="48.61401" lon="1.63851">
        <ele>128</ele>
        <time>2010-05-15T07:55:33Z</time>
      </trkpt>
      <trkpt lat="48.614" lon="1.63854">
        <ele>128</ele>
        <time>2010-05-15T07:55:34Z</time>
      </trkpt>
      <trkpt lat="48.61399" lon="1.63857">
        <ele>128</ele>
        <time>2010-05-15T07:55:35Z</time>
      </trkpt>
      <trkpt lat="48.61398" lon="1.6386">
        <ele>129</ele>
        <time>2010-05-15T07:55:36Z</time>
      </trkpt>
      <trkpt lat="48.61398" lon="1.63863">
        <ele>129</ele>
        <time>2010-05-15T07:55:37Z</time>
      </trkpt>
      <trkpt lat="48.61397" lon="1.63866">
        <ele>129</ele>
        <time>2010-05-15T07:55:38Z</time>
      </trkpt>
      <trkpt lat="48.61397" lon="1.63868">
        <ele>129</ele>
        <time>2010-05-15T07:55:39Z</time>
      </trkpt>
      <trkpt lat="48.61397" lon="1.6387">
        <ele>129</ele>
        <time>2010-05-15T07:55:40Z</time>
      </trkpt>
      <trkpt lat="48.61396" lon="1.63873">
        <ele>129</ele>
        <time>2010-05-15T07:55:41Z</time>
      </trkpt>
      <trkpt lat="48.61396" lon="1.63876">
        <ele>129</ele>
        <time>2010-05-15T07:55:42Z</time>
      </trkpt>
      <trkpt lat="48.61396" lon="1.63878">
        <ele>129</ele>
        <time>2010-05-15T07:55:43Z</time>
      </trkpt>
      <trkpt lat="48.61396" lon="1.63881">
        <ele>129</ele>
        <time>2010-05-15T07:55:45Z</time>
      </trkpt>
      <trkpt lat="48.61396" lon="1.63883">
        <ele>129</ele>
        <time>2010-05-15T07:55:46Z</time>
      </trkpt>
      <trkpt lat="48.61396" lon="1.63885">
        <ele>129</ele>
        <time>2010-05-15T07:55:47Z</time>
      </trkpt>
      <trkpt lat="48.61395" lon="1.63887">
        <ele>129</ele>
        <time>2010-05-15T07:55:48Z</time>
      </trkpt>
      <trkpt lat="48.61395" lon="1.6389">
        <ele>129</ele>
        <time>2010-05-15T07:55:49Z</time>
      </trkpt>
      <trkpt lat="48.61395" lon="1.63893">
        <ele>129</ele>
        <time>2010-05-15T07:55:50Z</time>
      </trkpt>
      <trkpt lat="48.61395" lon="1.63895">
        <ele>129</ele>
        <time>2010-05-15T07:55:51Z</time>
      </trkpt>
      <trkpt lat="48.61394" lon="1.63898">
        <ele>129</ele>
        <time>2010-05-15T07:55:52Z</time>
      </trkpt>
      <trkpt lat="48.61394" lon="1.639">
        <ele>129</ele>
        <time>2010-05-15T07:55:53Z</time>
      </trkpt>
      <trkpt lat="48.61394" lon="1.63902">
        <ele>129</ele>
        <time>2010-05-15T07:55:54Z</time>
      </trkpt>
      <trkpt lat="48.61394" lon="1.63904">
        <ele>129</ele>
        <time>2010-05-15T07:55:55Z</time>
      </trkpt>
      <trkpt lat="48.61394" lon="1.63906">
        <ele>129</ele>
        <time>2010-05-15T07:55:56Z</time>
      </trkpt>
      <trkpt lat="48.61393" lon="1.63907">
        <ele>129</ele>
        <time>2010-05-15T07:55:57Z</time>
      </trkpt>
      <trkpt lat="48.61393" lon="1.63909">
        <ele>129</ele>
        <time>2010-05-15T07:55:58Z</time>
      </trkpt>
      <trkpt lat="48.61393" lon="1.63911">
        <ele>129</ele>
        <time>2010-05-15T07:55:59Z</time>
      </trkpt>
      <trkpt lat="48.61393" lon="1.63913">
        <ele>129</ele>
        <time>2010-05-15T07:56:00Z</time>
      </trkpt>
      <trkpt lat="48.61393" lon="1.63916">
        <ele>129</ele>
        <time>2010-05-15T07:56:01Z</time>
      </trkpt>
      <trkpt lat="48.61393" lon="1.63919">
        <ele>129</ele>
        <time>2010-05-15T07:56:02Z</time>
      </trkpt>
      <trkpt lat="48.61393" lon="1.63922">
        <ele>129</ele>
        <time>2010-05-15T07:56:03Z</time>
      </trkpt>
      <trkpt lat="48.61392" lon="1.63925">
        <ele>129</ele>
        <time>2010-05-15T07:56:04Z</time>
      </trkpt>
      <trkpt lat="48.61391" lon="1.63929">
        <ele>129</ele>
        <time>2010-05-15T07:56:05Z</time>
      </trkpt>
      <trkpt lat="48.61391" lon="1.63932">
        <ele>129</ele>
        <time>2010-05-15T07:56:06Z</time>
      </trkpt>
      <trkpt lat="48.61391" lon="1.63934">
        <ele>129</ele>
        <time>2010-05-15T07:56:07Z</time>
      </trkpt>
      <trkpt lat="48.61391" lon="1.63936">
        <ele>129</ele>
        <time>2010-05-15T07:56:08Z</time>
      </trkpt>
      <trkpt lat="48.6139" lon="1.63939">
        <ele>129</ele>
        <time>2010-05-15T07:56:09Z</time>
      </trkpt>
      <trkpt lat="48.6139" lon="1.63942">
        <ele>129</ele>
        <time>2010-05-15T07:56:10Z</time>
      </trkpt>
      <trkpt lat="48.6139" lon="1.63944">
        <ele>129</ele>
        <time>2010-05-15T07:56:11Z</time>
      </trkpt>
      <trkpt lat="48.61389" lon="1.63947">
        <ele>129</ele>
        <time>2010-05-15T07:56:12Z</time>
      </trkpt>
      <trkpt lat="48.61389" lon="1.63949">
        <ele>129</ele>
        <time>2010-05-15T07:56:13Z</time>
      </trkpt>
      <trkpt lat="48.61389" lon="1.63952">
        <ele>129</ele>
        <time>2010-05-15T07:56:14Z</time>
      </trkpt>
      <trkpt lat="48.61388" lon="1.63954">
        <ele>129</ele>
        <time>2010-05-15T07:56:15Z</time>
      </trkpt>
      <trkpt lat="48.61388" lon="1.63957">
        <ele>129</ele>
        <time>2010-05-15T07:56:16Z</time>
      </trkpt>
      <trkpt lat="48.61388" lon="1.63959">
        <ele>129</ele>
        <time>2010-05-15T07:56:17Z</time>
      </trkpt>
      <trkpt lat="48.61388" lon="1.63961">
        <ele>129</ele>
        <time>2010-05-15T07:56:18Z</time>
      </trkpt>
      <trkpt lat="48.61388" lon="1.63964">
        <ele>129</ele>
        <time>2010-05-15T07:56:19Z</time>
      </trkpt>
      <trkpt lat="48.61387" lon="1.63966">
        <ele>129</ele>
        <time>2010-05-15T07:56:20Z</time>
      </trkpt>
      <trkpt lat="48.61387" lon="1.63968">
        <ele>129</ele>
        <time>2010-05-15T07:56:21Z</time>
      </trkpt>
      <trkpt lat="48.61387" lon="1.6397">
        <ele>129</ele>
        <time>2010-05-15T07:56:22Z</time>
      </trkpt>
      <trkpt lat="48.61387" lon="1.63973">
        <ele>129</ele>
        <time>2010-05-15T07:56:23Z</time>
      </trkpt>
      <trkpt lat="48.61387" lon="1.63976">
        <ele>129</ele>
        <time>2010-05-15T07:56:24Z</time>
      </trkpt>
      <trkpt lat="48.61386" lon="1.63979">
        <ele>129</ele>
        <time>2010-05-15T07:56:25Z</time>
      </trkpt>
      <trkpt lat="48.61386" lon="1.63981">
        <ele>129</ele>
        <time>2010-05-15T07:56:26Z</time>
      </trkpt>
      <trkpt lat="48.61386" lon="1.63983">
        <ele>129</ele>
        <time>2010-05-15T07:56:27Z</time>
      </trkpt>
      <trkpt lat="48.61386" lon="1.63985">
        <ele>129</ele>
        <time>2010-05-15T07:56:28Z</time>
      </trkpt>
      <trkpt lat="48.61386" lon="1.63988">
        <ele>129</ele>
        <time>2010-05-15T07:56:29Z</time>
      </trkpt>
      <trkpt lat="48.61385" lon="1.6399">
        <ele>129</ele>
        <time>2010-05-15T07:56:30Z</time>
      </trkpt>
      <trkpt lat="48.61385" lon="1.63993">
        <ele>129</ele>
        <time>2010-05-15T07:56:31Z</time>
      </trkpt>
      <trkpt lat="48.61385" lon="1.63996">
        <ele>129</ele>
        <time>2010-05-15T07:56:32Z</time>
      </trkpt>
      <trkpt lat="48.61385" lon="1.63998">
        <ele>129</ele>
        <time>2010-05-15T07:56:33Z</time>
      </trkpt>
      <trkpt lat="48.61385" lon="1.64">
        <ele>129</ele>
        <time>2010-05-15T07:56:34Z</time>
      </trkpt>
      <trkpt lat="48.61385" lon="1.64002">
        <ele>129</ele>
        <time>2010-05-15T07:56:35Z</time>
      </trkpt>
      <trkpt lat="48.61384" lon="1.64005">
        <ele>128</ele>
        <time>2010-05-15T07:56:36Z</time>
      </trkpt>
      <trkpt lat="48.61384" lon="1.64008">
        <ele>128</ele>
        <time>2010-05-15T07:56:37Z</time>
      </trkpt>
      <trkpt lat="48.61383" lon="1.64011">
        <ele>128</ele>
        <time>2010-05-15T07:56:38Z</time>
      </trkpt>
      <trkpt lat="48.61382" lon="1.64013">
        <ele>128</ele>
        <time>2010-05-15T07:56:39Z</time>
      </trkpt>
      <trkpt lat="48.61382" lon="1.64015">
        <ele>128</ele>
        <time>2010-05-15T07:56:40Z</time>
      </trkpt>
      <trkpt lat="48.61382" lon="1.64018">
        <ele>128</ele>
        <time>2010-05-15T07:56:41Z</time>
      </trkpt>
      <trkpt lat="48.61381" lon="1.64022">
        <ele>128</ele>
        <time>2010-05-15T07:56:42Z</time>
      </trkpt>
      <trkpt lat="48.6138" lon="1.64025">
        <ele>128</ele>
        <time>2010-05-15T07:56:43Z</time>
      </trkpt>
      <trkpt lat="48.6138" lon="1.64029">
        <ele>128</ele>
        <time>2010-05-15T07:56:44Z</time>
      </trkpt>
      <trkpt lat="48.61379" lon="1.64032">
        <ele>128</ele>
        <time>2010-05-15T07:56:45Z</time>
      </trkpt>
      <trkpt lat="48.61379" lon="1.64034">
        <ele>128</ele>
        <time>2010-05-15T07:56:46Z</time>
      </trkpt>
      <trkpt lat="48.61378" lon="1.64037">
        <ele>128</ele>
        <time>2010-05-15T07:56:47Z</time>
      </trkpt>
      <trkpt lat="48.61378" lon="1.64039">
        <ele>128</ele>
        <time>2010-05-15T07:56:48Z</time>
      </trkpt>
      <trkpt lat="48.61378" lon="1.64042">
        <ele>128</ele>
        <time>2010-05-15T07:56:49Z</time>
      </trkpt>
      <trkpt lat="48.61377" lon="1.64045">
        <ele>128</ele>
        <time>2010-05-15T07:56:50Z</time>
      </trkpt>
      <trkpt lat="48.61377" lon="1.64048">
        <ele>128</ele>
        <time>2010-05-15T07:56:51Z</time>
      </trkpt>
      <trkpt lat="48.61376" lon="1.64052">
        <ele>128</ele>
        <time>2010-05-15T07:56:52Z</time>
      </trkpt>
      <trkpt lat="48.61376" lon="1.64054">
        <ele>128</ele>
        <time>2010-05-15T07:56:53Z</time>
      </trkpt>
      <trkpt lat="48.61375" lon="1.64056">
        <ele>128</ele>
        <time>2010-05-15T07:56:54Z</time>
      </trkpt>
      <trkpt lat="48.61375" lon="1.64059">
        <ele>128</ele>
        <time>2010-05-15T07:56:55Z</time>
      </trkpt>
      <trkpt lat="48.61374" lon="1.64061">
        <ele>128</ele>
        <time>2010-05-15T07:56:56Z</time>
      </trkpt>
      <trkpt lat="48.61374" lon="1.64063">
        <ele>128</ele>
        <time>2010-05-15T07:56:57Z</time>
      </trkpt>
      <trkpt lat="48.61374" lon="1.64065">
        <ele>128</ele>
        <time>2010-05-15T07:56:58Z</time>
      </trkpt>
      <trkpt lat="48.61373" lon="1.64068">
        <ele>128</ele>
        <time>2010-05-15T07:56:59Z</time>
      </trkpt>
      <trkpt lat="48.61373" lon="1.6407">
        <ele>128</ele>
        <time>2010-05-15T07:57:00Z</time>
      </trkpt>
      <trkpt lat="48.61373" lon="1.64072">
        <ele>128</ele>
        <time>2010-05-15T07:57:01Z</time>
      </trkpt>
      <trkpt lat="48.61372" lon="1.64074">
        <ele>128</ele>
        <time>2010-05-15T07:57:02Z</time>
      </trkpt>
      <trkpt lat="48.61372" lon="1.64077">
        <ele>128</ele>
        <time>2010-05-15T07:57:03Z</time>
      </trkpt>
      <trkpt lat="48.61371" lon="1.64079">
        <ele>128</ele>
        <time>2010-05-15T07:57:04Z</time>
      </trkpt>
      <trkpt lat="48.61371" lon="1.64081">
        <ele>128</ele>
        <time>2010-05-15T07:57:05Z</time>
      </trkpt>
      <trkpt lat="48.61371" lon="1.64084">
        <ele>128</ele>
        <time>2010-05-15T07:57:06Z</time>
      </trkpt>
      <trkpt lat="48.6137" lon="1.64086">
        <ele>128</ele>
        <time>2010-05-15T07:57:07Z</time>
      </trkpt>
      <trkpt lat="48.6137" lon="1.64088">
        <ele>128</ele>
        <time>2010-05-15T07:57:08Z</time>
      </trkpt>
      <trkpt lat="48.61369" lon="1.64091">
        <ele>128</ele>
        <time>2010-05-15T07:57:09Z</time>
      </trkpt>
      <trkpt lat="48.61369" lon="1.64094">
        <ele>128</ele>
        <time>2010-05-15T07:57:10Z</time>
      </trkpt>
      <trkpt lat="48.61369" lon="1.64097">
        <ele>128</ele>
        <time>2010-05-15T07:57:11Z</time>
      </trkpt>
      <trkpt lat="48.61369" lon="1.64099">
        <ele>128</ele>
        <time>2010-05-15T07:57:12Z</time>
      </trkpt>
      <trkpt lat="48.61368" lon="1.64102">
        <ele>128</ele>
        <time>2010-05-15T07:57:13Z</time>
      </trkpt>
      <trkpt lat="48.61367" lon="1.64105">
        <ele>128</ele>
        <time>2010-05-15T07:57:14Z</time>
      </trkpt>
      <trkpt lat="48.61367" lon="1.64107">
        <ele>128</ele>
        <time>2010-05-15T07:57:15Z</time>
      </trkpt>
      <trkpt lat="48.61366" lon="1.64109">
        <ele>128</ele>
        <time>2010-05-15T07:57:16Z</time>
      </trkpt>
      <trkpt lat="48.61366" lon="1.64111">
        <ele>128</ele>
        <time>2010-05-15T07:57:17Z</time>
      </trkpt>
      <trkpt lat="48.61366" lon="1.64114">
        <ele>128</ele>
        <time>2010-05-15T07:57:18Z</time>
      </trkpt>
      <trkpt lat="48.61366" lon="1.64116">
        <ele>128</ele>
        <time>2010-05-15T07:57:19Z</time>
      </trkpt>
      <trkpt lat="48.61365" lon="1.64118">
        <ele>128</ele>
        <time>2010-05-15T07:57:20Z</time>
      </trkpt>
      <trkpt lat="48.61365" lon="1.6412">
        <ele>128</ele>
        <time>2010-05-15T07:57:21Z</time>
      </trkpt>
      <trkpt lat="48.61365" lon="1.64123">
        <ele>128</ele>
        <time>2010-05-15T07:57:22Z</time>
      </trkpt>
      <trkpt lat="48.61365" lon="1.64125">
        <ele>128</ele>
        <time>2010-05-15T07:57:23Z</time>
      </trkpt>
      <trkpt lat="48.61365" lon="1.64127">
        <ele>128</ele>
        <time>2010-05-15T07:57:24Z</time>
      </trkpt>
      <trkpt lat="48.61364" lon="1.64129">
        <ele>128</ele>
        <time>2010-05-15T07:57:25Z</time>
      </trkpt>
      <trkpt lat="48.61364" lon="1.64132">
        <ele>128</ele>
        <time>2010-05-15T07:57:26Z</time>
      </trkpt>
      <trkpt lat="48.61364" lon="1.64134">
        <ele>128</ele>
        <time>2010-05-15T07:57:27Z</time>
      </trkpt>
      <trkpt lat="48.61363" lon="1.64136">
        <ele>128</ele>
        <time>2010-05-15T07:57:28Z</time>
      </trkpt>
      <trkpt lat="48.61363" lon="1.64138">
        <ele>128</ele>
        <time>2010-05-15T07:57:29Z</time>
      </trkpt>
      <trkpt lat="48.61363" lon="1.6414">
        <ele>128</ele>
        <time>2010-05-15T07:57:30Z</time>
      </trkpt>
      <trkpt lat="48.61362" lon="1.64143">
        <ele>128</ele>
        <time>2010-05-15T07:57:31Z</time>
      </trkpt>
      <trkpt lat="48.61362" lon="1.64146">
        <ele>128</ele>
        <time>2010-05-15T07:57:32Z</time>
      </trkpt>
      <trkpt lat="48.61362" lon="1.64149">
        <ele>128</ele>
        <time>2010-05-15T07:57:33Z</time>
      </trkpt>
      <trkpt lat="48.61362" lon="1.64152">
        <ele>128</ele>
        <time>2010-05-15T07:57:34Z</time>
      </trkpt>
      <trkpt lat="48.61361" lon="1.64156">
        <ele>128</ele>
        <time>2010-05-15T07:57:35Z</time>
      </trkpt>
      <trkpt lat="48.61361" lon="1.6416">
        <ele>128</ele>
        <time>2010-05-15T07:57:36Z</time>
      </trkpt>
      <trkpt lat="48.61361" lon="1.64164">
        <ele>128</ele>
        <time>2010-05-15T07:57:37Z</time>
      </trkpt>
      <trkpt lat="48.61361" lon="1.64167">
        <ele>128</ele>
        <time>2010-05-15T07:57:38Z</time>
      </trkpt>
      <trkpt lat="48.61361" lon="1.64172">
        <ele>128</ele>
        <time>2010-05-15T07:57:39Z</time>
      </trkpt>
      <trkpt lat="48.6136" lon="1.64176">
        <ele>128</ele>
        <time>2010-05-15T07:57:40Z</time>
      </trkpt>
      <trkpt lat="48.61359" lon="1.64181">
        <ele>128</ele>
        <time>2010-05-15T07:57:41Z</time>
      </trkpt>
      <trkpt lat="48.61358" lon="1.64185">
        <ele>128</ele>
        <time>2010-05-15T07:57:42Z</time>
      </trkpt>
      <trkpt lat="48.61358" lon="1.6419">
        <ele>128</ele>
        <time>2010-05-15T07:57:43Z</time>
      </trkpt>
      <trkpt lat="48.61357" lon="1.64194">
        <ele>128</ele>
        <time>2010-05-15T07:57:44Z</time>
      </trkpt>
      <trkpt lat="48.61357" lon="1.64198">
        <ele>128</ele>
        <time>2010-05-15T07:57:45Z</time>
      </trkpt>
      <trkpt lat="48.61356" lon="1.64202">
        <ele>128</ele>
        <time>2010-05-15T07:57:46Z</time>
      </trkpt>
      <trkpt lat="48.61356" lon="1.64207">
        <ele>128</ele>
        <time>2010-05-15T07:57:47Z</time>
      </trkpt>
      <trkpt lat="48.61355" lon="1.64212">
        <ele>128</ele>
        <time>2010-05-15T07:57:48Z</time>
      </trkpt>
      <trkpt lat="48.61355" lon="1.64217">
        <ele>128</ele>
        <time>2010-05-15T07:57:49Z</time>
      </trkpt>
      <trkpt lat="48.61354" lon="1.64223">
        <ele>128</ele>
        <time>2010-05-15T07:57:50Z</time>
      </trkpt>
      <trkpt lat="48.61353" lon="1.64229">
        <ele>128</ele>
        <time>2010-05-15T07:57:51Z</time>
      </trkpt>
      <trkpt lat="48.61353" lon="1.64234">
        <ele>128</ele>
        <time>2010-05-15T07:57:52Z</time>
      </trkpt>
      <trkpt lat="48.61353" lon="1.64239">
        <ele>128</ele>
        <time>2010-05-15T07:57:53Z</time>
      </trkpt>
      <trkpt lat="48.61352" lon="1.64243">
        <ele>128</ele>
        <time>2010-05-15T07:57:54Z</time>
      </trkpt>
      <trkpt lat="48.61352" lon="1.64247">
        <ele>128</ele>
        <time>2010-05-15T07:57:55Z</time>
      </trkpt>
      <trkpt lat="48.61352" lon="1.64251">
        <ele>128</ele>
        <time>2010-05-15T07:57:56Z</time>
      </trkpt>
      <trkpt lat="48.61352" lon="1.64256">
        <ele>128</ele>
        <time>2010-05-15T07:57:57Z</time>
      </trkpt>
      <trkpt lat="48.61351" lon="1.6426">
        <ele>128</ele>
        <time>2010-05-15T07:57:58Z</time>
      </trkpt>
      <trkpt lat="48.61351" lon="1.64266">
        <ele>128</ele>
        <time>2010-05-15T07:57:59Z</time>
      </trkpt>
      <trkpt lat="48.61351" lon="1.64271">
        <ele>128</ele>
        <time>2010-05-15T07:58:00Z</time>
      </trkpt>
      <trkpt lat="48.61351" lon="1.64276">
        <ele>128</ele>
        <time>2010-05-15T07:58:01Z</time>
      </trkpt>
      <trkpt lat="48.61351" lon="1.64281">
        <ele>128</ele>
        <time>2010-05-15T07:58:02Z</time>
      </trkpt>
      <trkpt lat="48.61351" lon="1.64287">
        <ele>128</ele>
        <time>2010-05-15T07:58:03Z</time>
      </trkpt>
      <trkpt lat="48.61351" lon="1.64292">
        <ele>128</ele>
        <time>2010-05-15T07:58:04Z</time>
      </trkpt>
      <trkpt lat="48.61351" lon="1.64297">
        <ele>128</ele>
        <time>2010-05-15T07:58:05Z</time>
      </trkpt>
      <trkpt lat="48.6135" lon="1.64302">
        <ele>128</ele>
        <time>2010-05-15T07:58:06Z</time>
      </trkpt>
      <trkpt lat="48.6135" lon="1.64307">
        <ele>128</ele>
        <time>2010-05-15T07:58:07Z</time>
      </trkpt>
      <trkpt lat="48.61349" lon="1.64313">
        <ele>128</ele>
        <time>2010-05-15T07:58:08Z</time>
      </trkpt>
      <trkpt lat="48.61349" lon="1.64319">
        <ele>129</ele>
        <time>2010-05-15T07:58:09Z</time>
      </trkpt>
      <trkpt lat="48.61349" lon="1.64325">
        <ele>129</ele>
        <time>2010-05-15T07:58:10Z</time>
      </trkpt>
      <trkpt lat="48.61349" lon="1.64331">
        <ele>129</ele>
        <time>2010-05-15T07:58:11Z</time>
      </trkpt>
      <trkpt lat="48.6135" lon="1.64336">
        <ele>130</ele>
        <time>2010-05-15T07:58:12Z</time>
      </trkpt>
      <trkpt lat="48.6135" lon="1.64342">
        <ele>130</ele>
        <time>2010-05-15T07:58:13Z</time>
      </trkpt>
      <trkpt lat="48.6135" lon="1.64349">
        <ele>130</ele>
        <time>2010-05-15T07:58:14Z</time>
      </trkpt>
      <trkpt lat="48.6135" lon="1.64355">
        <ele>131</ele>
        <time>2010-05-15T07:58:15Z</time>
      </trkpt>
      <trkpt lat="48.6135" lon="1.64362">
        <ele>131</ele>
        <time>2010-05-15T07:58:16Z</time>
      </trkpt>
      <trkpt lat="48.6135" lon="1.64368">
        <ele>131</ele>
        <time>2010-05-15T07:58:17Z</time>
      </trkpt>
      <trkpt lat="48.61351" lon="1.64374">
        <ele>131</ele>
        <time>2010-05-15T07:58:18Z</time>
      </trkpt>
      <trkpt lat="48.61351" lon="1.64381">
        <ele>132</ele>
        <time>2010-05-15T07:58:19Z</time>
      </trkpt>
      <trkpt lat="48.61352" lon="1.64388">
        <ele>132</ele>
        <time>2010-05-15T07:58:20Z</time>
      </trkpt>
      <trkpt lat="48.61352" lon="1.64395">
        <ele>132</ele>
        <time>2010-05-15T07:58:21Z</time>
      </trkpt>
      <trkpt lat="48.61352" lon="1.64401">
        <ele>133</ele>
        <time>2010-05-15T07:58:22Z</time>
      </trkpt>
      <trkpt lat="48.61352" lon="1.64408">
        <ele>133</ele>
        <time>2010-05-15T07:58:23Z</time>
      </trkpt>
      <trkpt lat="48.61352" lon="1.64415">
        <ele>133</ele>
        <time>2010-05-15T07:58:24Z</time>
      </trkpt>
      <trkpt lat="48.61352" lon="1.64422">
        <ele>133</ele>
        <time>2010-05-15T07:58:25Z</time>
      </trkpt>
      <trkpt lat="48.61352" lon="1.64429">
        <ele>134</ele>
        <time>2010-05-15T07:58:26Z</time>
      </trkpt>
      <trkpt lat="48.61353" lon="1.64436">
        <ele>134</ele>
        <time>2010-05-15T07:58:27Z</time>
      </trkpt>
      <trkpt lat="48.61353" lon="1.64443">
        <ele>134</ele>
        <time>2010-05-15T07:58:28Z</time>
      </trkpt>
      <trkpt lat="48.61354" lon="1.6445">
        <ele>134</ele>
        <time>2010-05-15T07:58:29Z</time>
      </trkpt>
      <trkpt lat="48.61354" lon="1.64455">
        <ele>134</ele>
        <time>2010-05-15T07:58:30Z</time>
      </trkpt>
      <trkpt lat="48.61354" lon="1.64462">
        <ele>134</ele>
        <time>2010-05-15T07:58:31Z</time>
      </trkpt>
      <trkpt lat="48.61354" lon="1.64466">
        <ele>134</ele>
        <time>2010-05-15T07:58:32Z</time>
      </trkpt>
      <trkpt lat="48.61354" lon="1.64471">
        <ele>134</ele>
        <time>2010-05-15T07:58:33Z</time>
      </trkpt>
      <trkpt lat="48.61354" lon="1.64476">
        <ele>134</ele>
        <time>2010-05-15T07:58:34Z</time>
      </trkpt>
      <trkpt lat="48.61355" lon="1.6448">
        <ele>134</ele>
        <time>2010-05-15T07:58:35Z</time>
      </trkpt>
      <trkpt lat="48.61355" lon="1.64485">
        <ele>134</ele>
        <time>2010-05-15T07:58:36Z</time>
      </trkpt>
      <trkpt lat="48.61356" lon="1.6449">
        <ele>134</ele>
        <time>2010-05-15T07:58:37Z</time>
      </trkpt>
      <trkpt lat="48.61356" lon="1.64496">
        <ele>134</ele>
        <time>2010-05-15T07:58:38Z</time>
      </trkpt>
      <trkpt lat="48.61357" lon="1.64501">
        <ele>134</ele>
        <time>2010-05-15T07:58:39Z</time>
      </trkpt>
      <trkpt lat="48.61357" lon="1.64506">
        <ele>134</ele>
        <time>2010-05-15T07:58:40Z</time>
      </trkpt>
      <trkpt lat="48.61358" lon="1.64511">
        <ele>134</ele>
        <time>2010-05-15T07:58:41Z</time>
      </trkpt>
      <trkpt lat="48.61359" lon="1.64517">
        <ele>135</ele>
        <time>2010-05-15T07:58:42Z</time>
      </trkpt>
      <trkpt lat="48.6136" lon="1.64522">
        <ele>135</ele>
        <time>2010-05-15T07:58:43Z</time>
      </trkpt>
      <trkpt lat="48.6136" lon="1.64526">
        <ele>135</ele>
        <time>2010-05-15T07:58:44Z</time>
      </trkpt>
      <trkpt lat="48.61361" lon="1.6453">
        <ele>135</ele>
        <time>2010-05-15T07:58:45Z</time>
      </trkpt>
      <trkpt lat="48.61362" lon="1.64534">
        <ele>135</ele>
        <time>2010-05-15T07:58:46Z</time>
      </trkpt>
      <trkpt lat="48.61363" lon="1.64538">
        <ele>135</ele>
        <time>2010-05-15T07:58:47Z</time>
      </trkpt>
      <trkpt lat="48.61363" lon="1.64543">
        <ele>135</ele>
        <time>2010-05-15T07:58:48Z</time>
      </trkpt>
      <trkpt lat="48.61364" lon="1.64548">
        <ele>135</ele>
        <time>2010-05-15T07:58:49Z</time>
      </trkpt>
      <trkpt lat="48.61365" lon="1.64554">
        <ele>135</ele>
        <time>2010-05-15T07:58:50Z</time>
      </trkpt>
      <trkpt lat="48.61365" lon="1.6456">
        <ele>135</ele>
        <time>2010-05-15T07:58:51Z</time>
      </trkpt>
      <trkpt lat="48.61366" lon="1.64566">
        <ele>135</ele>
        <time>2010-05-15T07:58:52Z</time>
      </trkpt>
      <trkpt lat="48.61367" lon="1.64572">
        <ele>135</ele>
        <time>2010-05-15T07:58:53Z</time>
      </trkpt>
      <trkpt lat="48.61367" lon="1.64578">
        <ele>135</ele>
        <time>2010-05-15T07:58:54Z</time>
      </trkpt>
      <trkpt lat="48.61368" lon="1.64584">
        <ele>135</ele>
        <time>2010-05-15T07:58:55Z</time>
      </trkpt>
      <trkpt lat="48.61368" lon="1.6459">
        <ele>135</ele>
        <time>2010-05-15T07:58:56Z</time>
      </trkpt>
      <trkpt lat="48.61369" lon="1.64596">
        <ele>136</ele>
        <time>2010-05-15T07:58:57Z</time>
      </trkpt>
      <trkpt lat="48.6137" lon="1.64602">
        <ele>136</ele>
        <time>2010-05-15T07:58:58Z</time>
      </trkpt>
      <trkpt lat="48.6137" lon="1.64609">
        <ele>136</ele>
        <time>2010-05-15T07:58:59Z</time>
      </trkpt>
      <trkpt lat="48.61371" lon="1.64615">
        <ele>136</ele>
        <time>2010-05-15T07:59:00Z</time>
      </trkpt>
      <trkpt lat="48.61372" lon="1.64621">
        <ele>136</ele>
        <time>2010-05-15T07:59:01Z</time>
      </trkpt>
      <trkpt lat="48.61372" lon="1.64628">
        <ele>137</ele>
        <time>2010-05-15T07:59:02Z</time>
      </trkpt>
      <trkpt lat="48.61373" lon="1.64634">
        <ele>137</ele>
        <time>2010-05-15T07:59:03Z</time>
      </trkpt>
      <trkpt lat="48.61374" lon="1.6464">
        <ele>137</ele>
        <time>2010-05-15T07:59:04Z</time>
      </trkpt>
      <trkpt lat="48.61374" lon="1.64646">
        <ele>137</ele>
        <time>2010-05-15T07:59:05Z</time>
      </trkpt>
      <trkpt lat="48.61375" lon="1.64652">
        <ele>137</ele>
        <time>2010-05-15T07:59:06Z</time>
      </trkpt>
      <trkpt lat="48.61376" lon="1.64658">
        <ele>137</ele>
        <time>2010-05-15T07:59:07Z</time>
      </trkpt>
      <trkpt lat="48.61376" lon="1.64664">
        <ele>137</ele>
        <time>2010-05-15T07:59:08Z</time>
      </trkpt>
      <trkpt lat="48.61376" lon="1.64669">
        <ele>137</ele>
        <time>2010-05-15T07:59:09Z</time>
      </trkpt>
      <trkpt lat="48.61377" lon="1.64675">
        <ele>137</ele>
        <time>2010-05-15T07:59:10Z</time>
      </trkpt>
      <trkpt lat="48.61377" lon="1.64681">
        <ele>137</ele>
        <time>2010-05-15T07:59:11Z</time>
      </trkpt>
      <trkpt lat="48.61378" lon="1.64686">
        <ele>137</ele>
        <time>2010-05-15T07:59:12Z</time>
      </trkpt>
      <trkpt lat="48.61379" lon="1.64692">
        <ele>137</ele>
        <time>2010-05-15T07:59:13Z</time>
      </trkpt>
      <trkpt lat="48.61379" lon="1.64698">
        <ele>137</ele>
        <time>2010-05-15T07:59:14Z</time>
      </trkpt>
      <trkpt lat="48.6138" lon="1.64704">
        <ele>137</ele>
        <time>2010-05-15T07:59:15Z</time>
      </trkpt>
      <trkpt lat="48.61381" lon="1.64709">
        <ele>137</ele>
        <time>2010-05-15T07:59:16Z</time>
      </trkpt>
      <trkpt lat="48.61381" lon="1.64715">
        <ele>137</ele>
        <time>2010-05-15T07:59:17Z</time>
      </trkpt>
      <trkpt lat="48.61382" lon="1.6472">
        <ele>137</ele>
        <time>2010-05-15T07:59:18Z</time>
      </trkpt>
      <trkpt lat="48.61383" lon="1.64725">
        <ele>137</ele>
        <time>2010-05-15T07:59:19Z</time>
      </trkpt>
      <trkpt lat="48.61383" lon="1.6473">
        <ele>137</ele>
        <time>2010-05-15T07:59:20Z</time>
      </trkpt>
      <trkpt lat="48.61384" lon="1.64735">
        <ele>137</ele>
        <time>2010-05-15T07:59:21Z</time>
      </trkpt>
      <trkpt lat="48.61386" lon="1.6474">
        <ele>136</ele>
        <time>2010-05-15T07:59:22Z</time>
      </trkpt>
      <trkpt lat="48.61386" lon="1.64746">
        <ele>136</ele>
        <time>2010-05-15T07:59:23Z</time>
      </trkpt>
      <trkpt lat="48.61387" lon="1.64752">
        <ele>135</ele>
        <time>2010-05-15T07:59:24Z</time>
      </trkpt>
      <trkpt lat="48.61388" lon="1.64758">
        <ele>135</ele>
        <time>2010-05-15T07:59:25Z</time>
      </trkpt>
      <trkpt lat="48.61389" lon="1.64765">
        <ele>134</ele>
        <time>2010-05-15T07:59:26Z</time>
      </trkpt>
      <trkpt lat="48.61389" lon="1.64771">
        <ele>133</ele>
        <time>2010-05-15T07:59:27Z</time>
      </trkpt>
      <trkpt lat="48.61387" lon="1.64779">
        <ele>133</ele>
        <time>2010-05-15T07:59:28Z</time>
      </trkpt>
      <trkpt lat="48.61388" lon="1.64786">
        <ele>132</ele>
        <time>2010-05-15T07:59:29Z</time>
      </trkpt>
      <trkpt lat="48.61388" lon="1.64792">
        <ele>132</ele>
        <time>2010-05-15T07:59:30Z</time>
      </trkpt>
      <trkpt lat="48.61389" lon="1.64798">
        <ele>132</ele>
        <time>2010-05-15T07:59:31Z</time>
      </trkpt>
      <trkpt lat="48.6139" lon="1.64804">
        <ele>132</ele>
        <time>2010-05-15T07:59:32Z</time>
      </trkpt>
      <trkpt lat="48.61391" lon="1.6481">
        <ele>131</ele>
        <time>2010-05-15T07:59:33Z</time>
      </trkpt>
      <trkpt lat="48.61393" lon="1.64816">
        <ele>131</ele>
        <time>2010-05-15T07:59:34Z</time>
      </trkpt>
      <trkpt lat="48.61392" lon="1.64826">
        <ele>131</ele>
        <time>2010-05-15T07:59:35Z</time>
      </trkpt>
      <trkpt lat="48.6139" lon="1.64837">
        <ele>131</ele>
        <time>2010-05-15T07:59:36Z</time>
      </trkpt>
      <trkpt lat="48.61389" lon="1.64846">
        <ele>131</ele>
        <time>2010-05-15T07:59:37Z</time>
      </trkpt>
      <trkpt lat="48.61387" lon="1.64855">
        <ele>131</ele>
        <time>2010-05-15T07:59:38Z</time>
      </trkpt>
      <trkpt lat="48.61385" lon="1.64864">
        <ele>131</ele>
        <time>2010-05-15T07:59:39Z</time>
      </trkpt>
      <trkpt lat="48.61384" lon="1.6487">
        <ele>131</ele>
        <time>2010-05-15T07:59:40Z</time>
      </trkpt>
      <trkpt lat="48.61384" lon="1.64876">
        <ele>131</ele>
        <time>2010-05-15T07:59:41Z</time>
      </trkpt>
      <trkpt lat="48.61383" lon="1.64883">
        <ele>131</ele>
        <time>2010-05-15T07:59:42Z</time>
      </trkpt>
      <trkpt lat="48.61383" lon="1.64889">
        <ele>131</ele>
        <time>2010-05-15T07:59:43Z</time>
      </trkpt>
      <trkpt lat="48.61384" lon="1.64897">
        <ele>131</ele>
        <time>2010-05-15T07:59:44Z</time>
      </trkpt>
      <trkpt lat="48.61382" lon="1.64906">
        <ele>131</ele>
        <time>2010-05-15T07:59:45Z</time>
      </trkpt>
      <trkpt lat="48.61381" lon="1.64914">
        <ele>131</ele>
        <time>2010-05-15T07:59:46Z</time>
      </trkpt>
      <trkpt lat="48.6138" lon="1.6492">
        <ele>131</ele>
        <time>2010-05-15T07:59:47Z</time>
      </trkpt>
      <trkpt lat="48.6138" lon="1.64927">
        <ele>131</ele>
        <time>2010-05-15T07:59:48Z</time>
      </trkpt>
      <trkpt lat="48.6138" lon="1.64934">
        <ele>132</ele>
        <time>2010-05-15T07:59:49Z</time>
      </trkpt>
      <trkpt lat="48.61382" lon="1.64941">
        <ele>133</ele>
        <time>2010-05-15T07:59:50Z</time>
      </trkpt>
      <trkpt lat="48.61383" lon="1.64949">
        <ele>134</ele>
        <time>2010-05-15T07:59:51Z</time>
      </trkpt>
      <trkpt lat="48.61384" lon="1.64955">
        <ele>135</ele>
        <time>2010-05-15T07:59:52Z</time>
      </trkpt>
      <trkpt lat="48.61385" lon="1.64962">
        <ele>135</ele>
        <time>2010-05-15T07:59:53Z</time>
      </trkpt>
      <trkpt lat="48.61386" lon="1.64968">
        <ele>136</ele>
        <time>2010-05-15T07:59:54Z</time>
      </trkpt>
      <trkpt lat="48.61387" lon="1.64975">
        <ele>137</ele>
        <time>2010-05-15T07:59:55Z</time>
      </trkpt>
      <trkpt lat="48.61388" lon="1.64982">
        <ele>137</ele>
        <time>2010-05-15T07:59:56Z</time>
      </trkpt>
      <trkpt lat="48.61389" lon="1.64989">
        <ele>137</ele>
        <time>2010-05-15T07:59:57Z</time>
      </trkpt>
      <trkpt lat="48.6139" lon="1.64996">
        <ele>138</ele>
        <time>2010-05-15T07:59:58Z</time>
      </trkpt>
      <trkpt lat="48.61392" lon="1.65003">
        <ele>138</ele>
        <time>2010-05-15T07:59:59Z</time>
      </trkpt>
      <trkpt lat="48.61393" lon="1.6501">
        <ele>138</ele>
        <time>2010-05-15T08:00:00Z</time>
      </trkpt>
      <trkpt lat="48.61394" lon="1.65017">
        <ele>138</ele>
        <time>2010-05-15T08:00:01Z</time>
      </trkpt>
      <trkpt lat="48.61395" lon="1.65025">
        <ele>138</ele>
        <time>2010-05-15T08:00:02Z</time>
      </trkpt>
      <trkpt lat="48.61396" lon="1.65033">
        <ele>138</ele>
        <time>2010-05-15T08:00:03Z</time>
      </trkpt>
      <trkpt lat="48.61398" lon="1.65042">
        <ele>138</ele>
        <time>2010-05-15T08:00:04Z</time>
      </trkpt>
      <trkpt lat="48.61399" lon="1.65051">
        <ele>138</ele>
        <time>2010-05-15T08:00:05Z</time>
      </trkpt>
      <trkpt lat="48.614" lon="1.65059">
        <ele>138</ele>
        <time>2010-05-15T08:00:06Z</time>
      </trkpt>
      <trkpt lat="48.614" lon="1.65067">
        <ele>138</ele>
        <time>2010-05-15T08:00:07Z</time>
      </trkpt>
      <trkpt lat="48.61402" lon="1.65075">
        <ele>138</ele>
        <time>2010-05-15T08:00:08Z</time>
      </trkpt>
      <trkpt lat="48.61403" lon="1.65082">
        <ele>139</ele>
        <time>2010-05-15T08:00:09Z</time>
      </trkpt>
      <trkpt lat="48.61404" lon="1.65089">
        <ele>139</ele>
        <time>2010-05-15T08:00:10Z</time>
      </trkpt>
      <trkpt lat="48.61405" lon="1.65096">
        <ele>139</ele>
        <time>2010-05-15T08:00:11Z</time>
      </trkpt>
      <trkpt lat="48.61405" lon="1.65104">
        <ele>139</ele>
        <time>2010-05-15T08:00:12Z</time>
      </trkpt>
      <trkpt lat="48.61406" lon="1.65111">
        <ele>139</ele>
        <time>2010-05-15T08:00:13Z</time>
      </trkpt>
      <trkpt lat="48.61408" lon="1.65116">
        <ele>139</ele>
        <time>2010-05-15T08:00:14Z</time>
      </trkpt>
      <trkpt lat="48.61409" lon="1.65123">
        <ele>139</ele>
        <time>2010-05-15T08:00:15Z</time>
      </trkpt>
      <trkpt lat="48.61409" lon="1.65129">
        <ele>139</ele>
        <time>2010-05-15T08:00:16Z</time>
      </trkpt>
      <trkpt lat="48.61411" lon="1.65135">
        <ele>140</ele>
        <time>2010-05-15T08:00:17Z</time>
      </trkpt>
      <trkpt lat="48.61412" lon="1.65142">
        <ele>140</ele>
        <time>2010-05-15T08:00:18Z</time>
      </trkpt>
      <trkpt lat="48.61413" lon="1.65149">
        <ele>140</ele>
        <time>2010-05-15T08:00:19Z</time>
      </trkpt>
      <trkpt lat="48.61414" lon="1.65156">
        <ele>140</ele>
        <time>2010-05-15T08:00:20Z</time>
      </trkpt>
      <trkpt lat="48.61415" lon="1.65163">
        <ele>140</ele>
        <time>2010-05-15T08:00:21Z</time>
      </trkpt>
      <trkpt lat="48.61417" lon="1.6517">
        <ele>140</ele>
        <time>2010-05-15T08:00:22Z</time>
      </trkpt>
      <trkpt lat="48.61418" lon="1.65177">
        <ele>140</ele>
        <time>2010-05-15T08:00:23Z</time>
      </trkpt>
      <trkpt lat="48.61419" lon="1.65185">
        <ele>140</ele>
        <time>2010-05-15T08:00:24Z</time>
      </trkpt>
      <trkpt lat="48.6142" lon="1.65193">
        <ele>140</ele>
        <time>2010-05-15T08:00:25Z</time>
      </trkpt>
      <trkpt lat="48.61421" lon="1.65201">
        <ele>140</ele>
        <time>2010-05-15T08:00:26Z</time>
      </trkpt>
      <trkpt lat="48.61422" lon="1.65209">
        <ele>140</ele>
        <time>2010-05-15T08:00:27Z</time>
      </trkpt>
      <trkpt lat="48.61423" lon="1.65217">
        <ele>140</ele>
        <time>2010-05-15T08:00:28Z</time>
      </trkpt>
      <trkpt lat="48.61423" lon="1.65225">
        <ele>140</ele>
        <time>2010-05-15T08:00:29Z</time>
      </trkpt>
      <trkpt lat="48.61424" lon="1.65233">
        <ele>141</ele>
        <time>2010-05-15T08:00:30Z</time>
      </trkpt>
      <trkpt lat="48.61424" lon="1.65241">
        <ele>141</ele>
        <time>2010-05-15T08:00:31Z</time>
      </trkpt>
      <trkpt lat="48.61424" lon="1.65249">
        <ele>141</ele>
        <time>2010-05-15T08:00:32Z</time>
      </trkpt>
      <trkpt lat="48.61424" lon="1.65257">
        <ele>141</ele>
        <time>2010-05-15T08:00:33Z</time>
      </trkpt>
      <trkpt lat="48.61423" lon="1.65265">
        <ele>141</ele>
        <time>2010-05-15T08:00:34Z</time>
      </trkpt>
      <trkpt lat="48.61422" lon="1.65273">
        <ele>141</ele>
        <time>2010-05-15T08:00:35Z</time>
      </trkpt>
      <trkpt lat="48.61422" lon="1.65282">
        <ele>141</ele>
        <time>2010-05-15T08:00:36Z</time>
      </trkpt>
      <trkpt lat="48.61421" lon="1.65291">
        <ele>142</ele>
        <time>2010-05-15T08:00:37Z</time>
      </trkpt>
      <trkpt lat="48.6142" lon="1.65299">
        <ele>142</ele>
        <time>2010-05-15T08:00:38Z</time>
      </trkpt>
      <trkpt lat="48.61419" lon="1.65307">
        <ele>142</ele>
        <time>2010-05-15T08:00:39Z</time>
      </trkpt>
      <trkpt lat="48.61419" lon="1.65317">
        <ele>142</ele>
        <time>2010-05-15T08:00:40Z</time>
      </trkpt>
      <trkpt lat="48.61418" lon="1.65327">
        <ele>142</ele>
        <time>2010-05-15T08:00:41Z</time>
      </trkpt>
      <trkpt lat="48.61417" lon="1.65336">
        <ele>142</ele>
        <time>2010-05-15T08:00:42Z</time>
      </trkpt>
      <trkpt lat="48.61416" lon="1.65346">
        <ele>142</ele>
        <time>2010-05-15T08:00:43Z</time>
      </trkpt>
      <trkpt lat="48.61415" lon="1.65356">
        <ele>142</ele>
        <time>2010-05-15T08:00:44Z</time>
      </trkpt>
      <trkpt lat="48.61414" lon="1.65366">
        <ele>142</ele>
        <time>2010-05-15T08:00:45Z</time>
      </trkpt>
      <trkpt lat="48.61413" lon="1.65376">
        <ele>142</ele>
        <time>2010-05-15T08:00:46Z</time>
      </trkpt>
      <trkpt lat="48.61412" lon="1.65385">
        <ele>142</ele>
        <time>2010-05-15T08:00:47Z</time>
      </trkpt>
      <trkpt lat="48.61412" lon="1.65394">
        <ele>142</ele>
        <time>2010-05-15T08:00:48Z</time>
      </trkpt>
      <trkpt lat="48.61411" lon="1.65403">
        <ele>143</ele>
        <time>2010-05-15T08:00:49Z</time>
      </trkpt>
      <trkpt lat="48.6141" lon="1.65412">
        <ele>143</ele>
        <time>2010-05-15T08:00:50Z</time>
      </trkpt>
      <trkpt lat="48.6141" lon="1.6542">
        <ele>143</ele>
        <time>2010-05-15T08:00:51Z</time>
      </trkpt>
      <trkpt lat="48.61409" lon="1.65428">
        <ele>143</ele>
        <time>2010-05-15T08:00:52Z</time>
      </trkpt>
      <trkpt lat="48.61409" lon="1.65435">
        <ele>144</ele>
        <time>2010-05-15T08:00:53Z</time>
      </trkpt>
      <trkpt lat="48.61408" lon="1.65442">
        <ele>144</ele>
        <time>2010-05-15T08:00:54Z</time>
      </trkpt>
      <trkpt lat="48.61407" lon="1.6545">
        <ele>144</ele>
        <time>2010-05-15T08:00:55Z</time>
      </trkpt>
      <trkpt lat="48.61407" lon="1.65459">
        <ele>144</ele>
        <time>2010-05-15T08:00:56Z</time>
      </trkpt>
      <trkpt lat="48.61406" lon="1.65468">
        <ele>144</ele>
        <time>2010-05-15T08:00:57Z</time>
      </trkpt>
      <trkpt lat="48.61405" lon="1.65476">
        <ele>144</ele>
        <time>2010-05-15T08:00:58Z</time>
      </trkpt>
      <trkpt lat="48.61404" lon="1.65485">
        <ele>144</ele>
        <time>2010-05-15T08:00:59Z</time>
      </trkpt>
      <trkpt lat="48.61404" lon="1.65494">
        <ele>144</ele>
        <time>2010-05-15T08:01:00Z</time>
      </trkpt>
      <trkpt lat="48.61403" lon="1.65503">
        <ele>144</ele>
        <time>2010-05-15T08:01:01Z</time>
      </trkpt>
      <trkpt lat="48.61402" lon="1.65512">
        <ele>144</ele>
        <time>2010-05-15T08:01:02Z</time>
      </trkpt>
      <trkpt lat="48.614" lon="1.65521">
        <ele>144</ele>
        <time>2010-05-15T08:01:03Z</time>
      </trkpt>
      <trkpt lat="48.61399" lon="1.65531">
        <ele>144</ele>
        <time>2010-05-15T08:01:04Z</time>
      </trkpt>
      <trkpt lat="48.61398" lon="1.6554">
        <ele>144</ele>
        <time>2010-05-15T08:01:05Z</time>
      </trkpt>
      <trkpt lat="48.61397" lon="1.6555">
        <ele>144</ele>
        <time>2010-05-15T08:01:06Z</time>
      </trkpt>
      <trkpt lat="48.61396" lon="1.6556">
        <ele>144</ele>
        <time>2010-05-15T08:01:07Z</time>
      </trkpt>
      <trkpt lat="48.61395" lon="1.65569">
        <ele>144</ele>
        <time>2010-05-15T08:01:08Z</time>
      </trkpt>
      <trkpt lat="48.61394" lon="1.65579">
        <ele>144</ele>
        <time>2010-05-15T08:01:09Z</time>
      </trkpt>
      <trkpt lat="48.61392" lon="1.65588">
        <ele>145</ele>
        <time>2010-05-15T08:01:10Z</time>
      </trkpt>
      <trkpt lat="48.61391" lon="1.65597">
        <ele>145</ele>
        <time>2010-05-15T08:01:11Z</time>
      </trkpt>
      <trkpt lat="48.6139" lon="1.65607">
        <ele>145</ele>
        <time>2010-05-15T08:01:12Z</time>
      </trkpt>
      <trkpt lat="48.61389" lon="1.65615">
        <ele>146</ele>
        <time>2010-05-15T08:01:13Z</time>
      </trkpt>
      <trkpt lat="48.61388" lon="1.65624">
        <ele>146</ele>
        <time>2010-05-15T08:01:14Z</time>
      </trkpt>
      <trkpt lat="48.61386" lon="1.65633">
        <ele>147</ele>
        <time>2010-05-15T08:01:15Z</time>
      </trkpt>
      <trkpt lat="48.61385" lon="1.65642">
        <ele>147</ele>
        <time>2010-05-15T08:01:16Z</time>
      </trkpt>
      <trkpt lat="48.61383" lon="1.65651">
        <ele>147</ele>
        <time>2010-05-15T08:01:17Z</time>
      </trkpt>
      <trkpt lat="48.61381" lon="1.6566">
        <ele>148</ele>
        <time>2010-05-15T08:01:18Z</time>
      </trkpt>
      <trkpt lat="48.6138" lon="1.65667">
        <ele>148</ele>
        <time>2010-05-15T08:01:19Z</time>
      </trkpt>
      <trkpt lat="48.61379" lon="1.65674">
        <ele>149</ele>
        <time>2010-05-15T08:01:20Z</time>
      </trkpt>
      <trkpt lat="48.61377" lon="1.65681">
        <ele>149</ele>
        <time>2010-05-15T08:01:21Z</time>
      </trkpt>
      <trkpt lat="48.61376" lon="1.65687">
        <ele>150</ele>
        <time>2010-05-15T08:01:22Z</time>
      </trkpt>
      <trkpt lat="48.61375" lon="1.65693">
        <ele>150</ele>
        <time>2010-05-15T08:01:23Z</time>
      </trkpt>
      <trkpt lat="48.61374" lon="1.65698">
        <ele>150</ele>
        <time>2010-05-15T08:01:24Z</time>
      </trkpt>
      <trkpt lat="48.61373" lon="1.65703">
        <ele>150</ele>
        <time>2010-05-15T08:01:25Z</time>
      </trkpt>
      <trkpt lat="48.61373" lon="1.65707">
        <ele>150</ele>
        <time>2010-05-15T08:01:26Z</time>
      </trkpt>
      <trkpt lat="48.61372" lon="1.65712">
        <ele>150</ele>
        <time>2010-05-15T08:01:27Z</time>
      </trkpt>
      <trkpt lat="48.61371" lon="1.65717">
        <ele>150</ele>
        <time>2010-05-15T08:01:28Z</time>
      </trkpt>
      <trkpt lat="48.6137" lon="1.65721">
        <ele>150</ele>
        <time>2010-05-15T08:01:29Z</time>
      </trkpt>
      <trkpt lat="48.61369" lon="1.65725">
        <ele>150</ele>
        <time>2010-05-15T08:01:30Z</time>
      </trkpt>
      <trkpt lat="48.61369" lon="1.65728">
        <ele>150</ele>
        <time>2010-05-15T08:01:31Z</time>
      </trkpt>
      <trkpt lat="48.61368" lon="1.65732">
        <ele>150</ele>
        <time>2010-05-15T08:01:32Z</time>
      </trkpt>
      <trkpt lat="48.61367" lon="1.65735">
        <ele>150</ele>
        <time>2010-05-15T08:01:33Z</time>
      </trkpt>
      <trkpt lat="48.61366" lon="1.65738">
        <ele>150</ele>
        <time>2010-05-15T08:01:34Z</time>
      </trkpt>
      <trkpt lat="48.61365" lon="1.65739">
        <ele>150</ele>
        <time>2010-05-15T08:01:35Z</time>
      </trkpt>
      <trkpt lat="48.61365" lon="1.65742">
        <ele>150</ele>
        <time>2010-05-15T08:01:36Z</time>
      </trkpt>
      <trkpt lat="48.61364" lon="1.65745">
        <ele>150</ele>
        <time>2010-05-15T08:01:37Z</time>
      </trkpt>
      <trkpt lat="48.61363" lon="1.65748">
        <ele>150</ele>
        <time>2010-05-15T08:01:38Z</time>
      </trkpt>
      <trkpt lat="48.61362" lon="1.65751">
        <ele>150</ele>
        <time>2010-05-15T08:01:39Z</time>
      </trkpt>
      <trkpt lat="48.61362" lon="1.65753">
        <ele>150</ele>
        <time>2010-05-15T08:01:40Z</time>
      </trkpt>
      <trkpt lat="48.61361" lon="1.65755">
        <ele>150</ele>
        <time>2010-05-15T08:01:41Z</time>
      </trkpt>
      <trkpt lat="48.6136" lon="1.65757">
        <ele>150</ele>
        <time>2010-05-15T08:01:42Z</time>
      </trkpt>
      <trkpt lat="48.6136" lon="1.65759">
        <ele>150</ele>
        <time>2010-05-15T08:01:43Z</time>
      </trkpt>
      <trkpt lat="48.6136" lon="1.65761">
        <ele>150</ele>
        <time>2010-05-15T08:01:44Z</time>
      </trkpt>
      <trkpt lat="48.61359" lon="1.65763">
        <ele>150</ele>
        <time>2010-05-15T08:01:45Z</time>
      </trkpt>
      <trkpt lat="48.61358" lon="1.65765">
        <ele>150</ele>
        <time>2010-05-15T08:01:46Z</time>
      </trkpt>
      <trkpt lat="48.61358" lon="1.65767">
        <ele>150</ele>
        <time>2010-05-15T08:01:47Z</time>
      </trkpt>
      <trkpt lat="48.61357" lon="1.6577">
        <ele>150</ele>
        <time>2010-05-15T08:01:48Z</time>
      </trkpt>
      <trkpt lat="48.61356" lon="1.65773">
        <ele>150</ele>
        <time>2010-05-15T08:01:49Z</time>
      </trkpt>
      <trkpt lat="48.61355" lon="1.65775">
        <ele>150</ele>
        <time>2010-05-15T08:01:50Z</time>
      </trkpt>
      <trkpt lat="48.61354" lon="1.65778">
        <ele>150</ele>
        <time>2010-05-15T08:01:51Z</time>
      </trkpt>
      <trkpt lat="48.61353" lon="1.65779">
        <ele>150</ele>
        <time>2010-05-15T08:01:52Z</time>
      </trkpt>
      <trkpt lat="48.61352" lon="1.65781">
        <ele>150</ele>
        <time>2010-05-15T08:01:53Z</time>
      </trkpt>
      <trkpt lat="48.61352" lon="1.65783">
        <ele>150</ele>
        <time>2010-05-15T08:01:54Z</time>
      </trkpt>
      <trkpt lat="48.61351" lon="1.65785">
        <ele>150</ele>
        <time>2010-05-15T08:01:55Z</time>
      </trkpt>
      <trkpt lat="48.61351" lon="1.65787">
        <ele>150</ele>
        <time>2010-05-15T08:01:56Z</time>
      </trkpt>
      <trkpt lat="48.6135" lon="1.65789">
        <ele>150</ele>
        <time>2010-05-15T08:01:57Z</time>
      </trkpt>
      <trkpt lat="48.6135" lon="1.65792">
        <ele>150</ele>
        <time>2010-05-15T08:01:58Z</time>
      </trkpt>
      <trkpt lat="48.61349" lon="1.65795">
        <ele>150</ele>
        <time>2010-05-15T08:01:59Z</time>
      </trkpt>
      <trkpt lat="48.61349" lon="1.65798">
        <ele>150</ele>
        <time>2010-05-15T08:02:00Z</time>
      </trkpt>
      <trkpt lat="48.61348" lon="1.65801">
        <ele>150</ele>
        <time>2010-05-15T08:02:01Z</time>
      </trkpt>
      <trkpt lat="48.61347" lon="1.65803">
        <ele>150</ele>
        <time>2010-05-15T08:02:02Z</time>
      </trkpt>
      <trkpt lat="48.61347" lon="1.65806">
        <ele>150</ele>
        <time>2010-05-15T08:02:03Z</time>
      </trkpt>
      <trkpt lat="48.61346" lon="1.65809">
        <ele>150</ele>
        <time>2010-05-15T08:02:04Z</time>
      </trkpt>
      <trkpt lat="48.61346" lon="1.65811">
        <ele>150</ele>
        <time>2010-05-15T08:02:05Z</time>
      </trkpt>
      <trkpt lat="48.61346" lon="1.65814">
        <ele>150</ele>
        <time>2010-05-15T08:02:06Z</time>
      </trkpt>
      <trkpt lat="48.61345" lon="1.65816">
        <ele>150</ele>
        <time>2010-05-15T08:02:07Z</time>
      </trkpt>
      <trkpt lat="48.61345" lon="1.65818">
        <ele>150</ele>
        <time>2010-05-15T08:02:08Z</time>
      </trkpt>
      <trkpt lat="48.61345" lon="1.6582">
        <ele>150</ele>
        <time>2010-05-15T08:02:09Z</time>
      </trkpt>
      <trkpt lat="48.61345" lon="1.65822">
        <ele>150</ele>
        <time>2010-05-15T08:02:10Z</time>
      </trkpt>
      <trkpt lat="48.61344" lon="1.65825">
        <ele>150</ele>
        <time>2010-05-15T08:02:11Z</time>
      </trkpt>
      <trkpt lat="48.61343" lon="1.65828">
        <ele>150</ele>
        <time>2010-05-15T08:02:12Z</time>
      </trkpt>
      <trkpt lat="48.61342" lon="1.6583">
        <ele>150</ele>
        <time>2010-05-15T08:02:13Z</time>
      </trkpt>
      <trkpt lat="48.61342" lon="1.65832">
        <ele>150</ele>
        <time>2010-05-15T08:02:15Z</time>
      </trkpt>
      <trkpt lat="48.61341" lon="1.65835">
        <ele>151</ele>
        <time>2010-05-15T08:02:23Z</time>
      </trkpt>
      <trkpt lat="48.61341" lon="1.65837">
        <ele>151</ele>
        <time>2010-05-15T08:02:24Z</time>
      </trkpt>
      <trkpt lat="48.6134" lon="1.65839">
        <ele>151</ele>
        <time>2010-05-15T08:02:25Z</time>
      </trkpt>
      <trkpt lat="48.61341" lon="1.65841">
        <ele>151</ele>
        <time>2010-05-15T08:02:26Z</time>
      </trkpt>
      <trkpt lat="48.6134" lon="1.65843">
        <ele>151</ele>
        <time>2010-05-15T08:02:27Z</time>
      </trkpt>
      <trkpt lat="48.6134" lon="1.65845">
        <ele>151</ele>
        <time>2010-05-15T08:02:28Z</time>
      </trkpt>
      <trkpt lat="48.6134" lon="1.65847">
        <ele>151</ele>
        <time>2010-05-15T08:02:29Z</time>
      </trkpt>
      <trkpt lat="48.6134" lon="1.65849">
        <ele>151</ele>
        <time>2010-05-15T08:02:30Z</time>
      </trkpt>
      <trkpt lat="48.6134" lon="1.65851">
        <ele>151</ele>
        <time>2010-05-15T08:02:31Z</time>
      </trkpt>
      <trkpt lat="48.6134" lon="1.65853">
        <ele>151</ele>
        <time>2010-05-15T08:02:32Z</time>
      </trkpt>
      <trkpt lat="48.6134" lon="1.65854">
        <ele>151</ele>
        <time>2010-05-15T08:02:33Z</time>
      </trkpt>
      <trkpt lat="48.6134" lon="1.65856">
        <ele>151</ele>
        <time>2010-05-15T08:02:34Z</time>
      </trkpt>
      <trkpt lat="48.61339" lon="1.65858">
        <ele>151</ele>
        <time>2010-05-15T08:02:35Z</time>
      </trkpt>
      <trkpt lat="48.61339" lon="1.6586">
        <ele>151</ele>
        <time>2010-05-15T08:02:36Z</time>
      </trkpt>
      <trkpt lat="48.61339" lon="1.65862">
        <ele>151</ele>
        <time>2010-05-15T08:02:37Z</time>
      </trkpt>
      <trkpt lat="48.61339" lon="1.65864">
        <ele>151</ele>
        <time>2010-05-15T08:02:38Z</time>
      </trkpt>
      <trkpt lat="48.61339" lon="1.65866">
        <ele>151</ele>
        <time>2010-05-15T08:02:39Z</time>
      </trkpt>
      <trkpt lat="48.61339" lon="1.65869">
        <ele>151</ele>
        <time>2010-05-15T08:02:40Z</time>
      </trkpt>
      <trkpt lat="48.61339" lon="1.65871">
        <ele>151</ele>
        <time>2010-05-15T08:02:41Z</time>
      </trkpt>
      <trkpt lat="48.6134" lon="1.65875">
        <ele>151</ele>
        <time>2010-05-15T08:02:43Z</time>
      </trkpt>
      <trkpt lat="48.6134" lon="1.65877">
        <ele>151</ele>
        <time>2010-05-15T08:02:44Z</time>
      </trkpt>
      <trkpt lat="48.6134" lon="1.6588">
        <ele>151</ele>
        <time>2010-05-15T08:02:45Z</time>
      </trkpt>
      <trkpt lat="48.6134" lon="1.65882">
        <ele>151</ele>
        <time>2010-05-15T08:02:46Z</time>
      </trkpt>
      <trkpt lat="48.6134" lon="1.65884">
        <ele>151</ele>
        <time>2010-05-15T08:02:47Z</time>
      </trkpt>
      <trkpt lat="48.6134" lon="1.65887">
        <ele>151</ele>
        <time>2010-05-15T08:02:48Z</time>
      </trkpt>
      <trkpt lat="48.61341" lon="1.65889">
        <ele>151</ele>
        <time>2010-05-15T08:02:49Z</time>
      </trkpt>
      <trkpt lat="48.6134" lon="1.65892">
        <ele>151</ele>
        <time>2010-05-15T08:02:50Z</time>
      </trkpt>
      <trkpt lat="48.6134" lon="1.65895">
        <ele>151</ele>
        <time>2010-05-15T08:02:51Z</time>
      </trkpt>
      <trkpt lat="48.61341" lon="1.65898">
        <ele>151</ele>
        <time>2010-05-15T08:02:52Z</time>
      </trkpt>
      <trkpt lat="48.61341" lon="1.659">
        <ele>151</ele>
        <time>2010-05-15T08:02:53Z</time>
      </trkpt>
      <trkpt lat="48.61341" lon="1.65902">
        <ele>151</ele>
        <time>2010-05-15T08:02:54Z</time>
      </trkpt>
      <trkpt lat="48.61341" lon="1.65904">
        <ele>151</ele>
        <time>2010-05-15T08:02:55Z</time>
      </trkpt>
      <trkpt lat="48.61341" lon="1.65906">
        <ele>151</ele>
        <time>2010-05-15T08:02:56Z</time>
      </trkpt>
      <trkpt lat="48.61341" lon="1.65909">
        <ele>151</ele>
        <time>2010-05-15T08:02:57Z</time>
      </trkpt>
      <trkpt lat="48.61341" lon="1.65911">
        <ele>151</ele>
        <time>2010-05-15T08:02:58Z</time>
      </trkpt>
      <trkpt lat="48.61341" lon="1.65913">
        <ele>151</ele>
        <time>2010-05-15T08:02:59Z</time>
      </trkpt>
      <trkpt lat="48.61341" lon="1.65916">
        <ele>151</ele>
        <time>2010-05-15T08:03:00Z</time>
      </trkpt>
      <trkpt lat="48.61341" lon="1.65918">
        <ele>151</ele>
        <time>2010-05-15T08:03:01Z</time>
      </trkpt>
      <trkpt lat="48.61342" lon="1.6592">
        <ele>151</ele>
        <time>2010-05-15T08:03:02Z</time>
      </trkpt>
      <trkpt lat="48.61342" lon="1.65922">
        <ele>151</ele>
        <time>2010-05-15T08:03:03Z</time>
      </trkpt>
      <trkpt lat="48.61343" lon="1.65923">
        <ele>151</ele>
        <time>2010-05-15T08:03:04Z</time>
      </trkpt>
      <trkpt lat="48.61344" lon="1.65925">
        <ele>151</ele>
        <time>2010-05-15T08:03:05Z</time>
      </trkpt>
      <trkpt lat="48.61343" lon="1.65927">
        <ele>151</ele>
        <time>2010-05-15T08:03:06Z</time>
      </trkpt>
      <trkpt lat="48.61343" lon="1.65929">
        <ele>151</ele>
        <time>2010-05-15T08:03:07Z</time>
      </trkpt>
      <trkpt lat="48.61343" lon="1.65932">
        <ele>151</ele>
        <time>2010-05-15T08:03:08Z</time>
      </trkpt>
      <trkpt lat="48.61343" lon="1.65934">
        <ele>151</ele>
        <time>2010-05-15T08:03:09Z</time>
      </trkpt>
      <trkpt lat="48.61343" lon="1.65937">
        <ele>151</ele>
        <time>2010-05-15T08:03:10Z</time>
      </trkpt>
      <trkpt lat="48.61343" lon="1.65939">
        <ele>151</ele>
        <time>2010-05-15T08:03:11Z</time>
      </trkpt>
      <trkpt lat="48.61343" lon="1.65941">
        <ele>151</ele>
        <time>2010-05-15T08:03:12Z</time>
      </trkpt>
      <trkpt lat="48.61343" lon="1.65944">
        <ele>151</ele>
        <time>2010-05-15T08:03:13Z</time>
      </trkpt>
      <trkpt lat="48.61344" lon="1.65946">
        <ele>151</ele>
        <time>2010-05-15T08:03:14Z</time>
      </trkpt>
      <trkpt lat="48.61344" lon="1.65951">
        <ele>151</ele>
        <time>2010-05-15T08:03:17Z</time>
      </trkpt>
      <trkpt lat="48.61343" lon="1.65955">
        <ele>151</ele>
        <time>2010-05-15T08:03:18Z</time>
      </trkpt>
      <trkpt lat="48.61343" lon="1.65958">
        <ele>151</ele>
        <time>2010-05-15T08:03:19Z</time>
      </trkpt>
      <trkpt lat="48.61343" lon="1.6596">
        <ele>151</ele>
        <time>2010-05-15T08:03:20Z</time>
      </trkpt>
      <trkpt lat="48.61343" lon="1.65963">
        <ele>151</ele>
        <time>2010-05-15T08:03:21Z</time>
      </trkpt>
      <trkpt lat="48.61344" lon="1.65965">
        <ele>151</ele>
        <time>2010-05-15T08:03:22Z</time>
      </trkpt>
      <trkpt lat="48.61344" lon="1.65968">
        <ele>151</ele>
        <time>2010-05-15T08:03:23Z</time>
      </trkpt>
      <trkpt lat="48.61344" lon="1.65971">
        <ele>151</ele>
        <time>2010-05-15T08:03:24Z</time>
      </trkpt>
      <trkpt lat="48.61344" lon="1.65974">
        <ele>151</ele>
        <time>2010-05-15T08:03:25Z</time>
      </trkpt>
      <trkpt lat="48.61344" lon="1.65976">
        <ele>151</ele>
        <time>2010-05-15T08:03:26Z</time>
      </trkpt>
      <trkpt lat="48.61344" lon="1.65978">
        <ele>151</ele>
        <time>2010-05-15T08:03:27Z</time>
      </trkpt>
      <trkpt lat="48.61343" lon="1.65981">
        <ele>151</ele>
        <time>2010-05-15T08:03:28Z</time>
      </trkpt>
      <trkpt lat="48.61343" lon="1.65984">
        <ele>151</ele>
        <time>2010-05-15T08:03:29Z</time>
      </trkpt>
      <trkpt lat="48.61343" lon="1.65986">
        <ele>151</ele>
        <time>2010-05-15T08:03:30Z</time>
      </trkpt>
      <trkpt lat="48.61343" lon="1.65989">
        <ele>151</ele>
        <time>2010-05-15T08:03:31Z</time>
      </trkpt>
      <trkpt lat="48.61343" lon="1.65992">
        <ele>151</ele>
        <time>2010-05-15T08:03:32Z</time>
      </trkpt>
      <trkpt lat="48.61343" lon="1.65995">
        <ele>151</ele>
        <time>2010-05-15T08:03:33Z</time>
      </trkpt>
      <trkpt lat="48.61342" lon="1.65998">
        <ele>151</ele>
        <time>2010-05-15T08:03:35Z</time>
      </trkpt>
      <trkpt lat="48.61342" lon="1.66">
        <ele>151</ele>
        <time>2010-05-15T08:03:35Z</time>
      </trkpt>
      <trkpt lat="48.61341" lon="1.66003">
        <ele>151</ele>
        <time>2010-05-15T08:03:36Z</time>
      </trkpt>
      <trkpt lat="48.61342" lon="1.66005">
        <ele>151</ele>
        <time>2010-05-15T08:03:37Z</time>
      </trkpt>
      <trkpt lat="48.61341" lon="1.66008">
        <ele>151</ele>
        <time>2010-05-15T08:03:39Z</time>
      </trkpt>
      <trkpt lat="48.6134" lon="1.6601">
        <ele>151</ele>
        <time>2010-05-15T08:03:40Z</time>
      </trkpt>
      <trkpt lat="48.61341" lon="1.66013">
        <ele>151</ele>
        <time>2010-05-15T08:03:41Z</time>
      </trkpt>
      <trkpt lat="48.61341" lon="1.66015">
        <ele>151</ele>
        <time>2010-05-15T08:03:42Z</time>
      </trkpt>
      <trkpt lat="48.61342" lon="1.66018">
        <ele>151</ele>
        <time>2010-05-15T08:03:44Z</time>
      </trkpt>
      <trkpt lat="48.61341" lon="1.66021">
        <ele>151</ele>
        <time>2010-05-15T08:03:45Z</time>
      </trkpt>
      <trkpt lat="48.61341" lon="1.66024">
        <ele>151</ele>
        <time>2010-05-15T08:03:46Z</time>
      </trkpt>
      <trkpt lat="48.6134" lon="1.66027">
        <ele>151</ele>
        <time>2010-05-15T08:03:47Z</time>
      </trkpt>
      <trkpt lat="48.61339" lon="1.6603">
        <ele>151</ele>
        <time>2010-05-15T08:03:48Z</time>
      </trkpt>
      <trkpt lat="48.61339" lon="1.66033">
        <ele>151</ele>
        <time>2010-05-15T08:03:49Z</time>
      </trkpt>
      <trkpt lat="48.61339" lon="1.66035">
        <ele>151</ele>
        <time>2010-05-15T08:03:50Z</time>
      </trkpt>
      <trkpt lat="48.61339" lon="1.66037">
        <ele>151</ele>
        <time>2010-05-15T08:03:51Z</time>
      </trkpt>
      <trkpt lat="48.61339" lon="1.66039">
        <ele>151</ele>
        <time>2010-05-15T08:03:52Z</time>
      </trkpt>
      <trkpt lat="48.61339" lon="1.66042">
        <ele>151</ele>
        <time>2010-05-15T08:03:53Z</time>
      </trkpt>
      <trkpt lat="48.61339" lon="1.66044">
        <ele>151</ele>
        <time>2010-05-15T08:03:54Z</time>
      </trkpt>
      <trkpt lat="48.61338" lon="1.66046">
        <ele>151</ele>
        <time>2010-05-15T08:03:55Z</time>
      </trkpt>
      <trkpt lat="48.61338" lon="1.66049">
        <ele>151</ele>
        <time>2010-05-15T08:03:57Z</time>
      </trkpt>
      <trkpt lat="48.61337" lon="1.66051">
        <ele>151</ele>
        <time>2010-05-15T08:03:58Z</time>
      </trkpt>
      <trkpt lat="48.61336" lon="1.66053">
        <ele>151</ele>
        <time>2010-05-15T08:03:59Z</time>
      </trkpt>
      <trkpt lat="48.61336" lon="1.66056">
        <ele>151</ele>
        <time>2010-05-15T08:04:00Z</time>
      </trkpt>
      <trkpt lat="48.61335" lon="1.66058">
        <ele>151</ele>
        <time>2010-05-15T08:04:01Z</time>
      </trkpt>
      <trkpt lat="48.61335" lon="1.6606">
        <ele>151</ele>
        <time>2010-05-15T08:04:02Z</time>
      </trkpt>
      <trkpt lat="48.61334" lon="1.66062">
        <ele>151</ele>
        <time>2010-05-15T08:04:03Z</time>
      </trkpt>
      <trkpt lat="48.61334" lon="1.66064">
        <ele>151</ele>
        <time>2010-05-15T08:04:04Z</time>
      </trkpt>
      <trkpt lat="48.61334" lon="1.66066">
        <ele>151</ele>
        <time>2010-05-15T08:04:05Z</time>
      </trkpt>
      <trkpt lat="48.61333" lon="1.66069">
        <ele>151</ele>
        <time>2010-05-15T08:04:06Z</time>
      </trkpt>
      <trkpt lat="48.61332" lon="1.66071">
        <ele>151</ele>
        <time>2010-05-15T08:04:07Z</time>
      </trkpt>
      <trkpt lat="48.61331" lon="1.66074">
        <ele>151</ele>
        <time>2010-05-15T08:04:09Z</time>
      </trkpt>
      <trkpt lat="48.6133" lon="1.66076">
        <ele>151</ele>
        <time>2010-05-15T08:04:10Z</time>
      </trkpt>
      <trkpt lat="48.6133" lon="1.66078">
        <ele>151</ele>
        <time>2010-05-15T08:04:11Z</time>
      </trkpt>
      <trkpt lat="48.6133" lon="1.6608">
        <ele>151</ele>
        <time>2010-05-15T08:04:12Z</time>
      </trkpt>
      <trkpt lat="48.61329" lon="1.66083">
        <ele>151</ele>
        <time>2010-05-15T08:04:13Z</time>
      </trkpt>
      <trkpt lat="48.61328" lon="1.66085">
        <ele>151</ele>
        <time>2010-05-15T08:04:14Z</time>
      </trkpt>
      <trkpt lat="48.61328" lon="1.66087">
        <ele>151</ele>
        <time>2010-05-15T08:04:15Z</time>
      </trkpt>
      <trkpt lat="48.61327" lon="1.66089">
        <ele>151</ele>
        <time>2010-05-15T08:04:16Z</time>
      </trkpt>
      <trkpt lat="48.61326" lon="1.66091">
        <ele>151</ele>
        <time>2010-05-15T08:04:17Z</time>
      </trkpt>
      <trkpt lat="48.61326" lon="1.66093">
        <ele>151</ele>
        <time>2010-05-15T08:04:18Z</time>
      </trkpt>
      <trkpt lat="48.61326" lon="1.66095">
        <ele>151</ele>
        <time>2010-05-15T08:04:19Z</time>
      </trkpt>
      <trkpt lat="48.61325" lon="1.66097">
        <ele>151</ele>
        <time>2010-05-15T08:04:20Z</time>
      </trkpt>
      <trkpt lat="48.61325" lon="1.66099">
        <ele>151</ele>
        <time>2010-05-15T08:04:21Z</time>
      </trkpt>
      <trkpt lat="48.61325" lon="1.66102">
        <ele>151</ele>
        <time>2010-05-15T08:04:22Z</time>
      </trkpt>
      <trkpt lat="48.61324" lon="1.66105">
        <ele>151</ele>
        <time>2010-05-15T08:04:23Z</time>
      </trkpt>
      <trkpt lat="48.61323" lon="1.66107">
        <ele>151</ele>
        <time>2010-05-15T08:04:24Z</time>
      </trkpt>
      <trkpt lat="48.61323" lon="1.66109">
        <ele>151</ele>
        <time>2010-05-15T08:04:25Z</time>
      </trkpt>
      <trkpt lat="48.61322" lon="1.66112">
        <ele>151</ele>
        <time>2010-05-15T08:04:26Z</time>
      </trkpt>
      <trkpt lat="48.61321" lon="1.66114">
        <ele>151</ele>
        <time>2010-05-15T08:04:27Z</time>
      </trkpt>
      <trkpt lat="48.6132" lon="1.66116">
        <ele>151</ele>
        <time>2010-05-15T08:04:28Z</time>
      </trkpt>
      <trkpt lat="48.61319" lon="1.66118">
        <ele>151</ele>
        <time>2010-05-15T08:04:29Z</time>
      </trkpt>
      <trkpt lat="48.61319" lon="1.6612">
        <ele>151</ele>
        <time>2010-05-15T08:04:30Z</time>
      </trkpt>
      <trkpt lat="48.61318" lon="1.66122">
        <ele>151</ele>
        <time>2010-05-15T08:04:32Z</time>
      </trkpt>
      <trkpt lat="48.61317" lon="1.66124">
        <ele>151</ele>
        <time>2010-05-15T08:04:36Z</time>
      </trkpt>
      <trkpt lat="48.61317" lon="1.66126">
        <ele>151</ele>
        <time>2010-05-15T08:04:39Z</time>
      </trkpt>
      <trkpt lat="48.61317" lon="1.66128">
        <ele>152</ele>
        <time>2010-05-15T08:04:42Z</time>
      </trkpt>
      <trkpt lat="48.61317" lon="1.6613">
        <ele>153</ele>
        <time>2010-05-15T08:04:43Z</time>
      </trkpt>
      <trkpt lat="48.61316" lon="1.66132">
        <ele>153</ele>
        <time>2010-05-15T08:04:44Z</time>
      </trkpt>
      <trkpt lat="48.61316" lon="1.66134">
        <ele>153</ele>
        <time>2010-05-15T08:04:45Z</time>
      </trkpt>
      <trkpt lat="48.61316" lon="1.66136">
        <ele>153</ele>
        <time>2010-05-15T08:04:46Z</time>
      </trkpt>
      <trkpt lat="48.61315" lon="1.66137">
        <ele>154</ele>
        <time>2010-05-15T08:04:47Z</time>
      </trkpt>
      <trkpt lat="48.61315" lon="1.66139">
        <ele>154</ele>
        <time>2010-05-15T08:04:48Z</time>
      </trkpt>
      <trkpt lat="48.61314" lon="1.66141">
        <ele>154</ele>
        <time>2010-05-15T08:04:49Z</time>
      </trkpt>
      <trkpt lat="48.61314" lon="1.66143">
        <ele>154</ele>
        <time>2010-05-15T08:04:50Z</time>
      </trkpt>
      <trkpt lat="48.61313" lon="1.66145">
        <ele>154</ele>
        <time>2010-05-15T08:04:51Z</time>
      </trkpt>
      <trkpt lat="48.61313" lon="1.66147">
        <ele>154</ele>
        <time>2010-05-15T08:04:52Z</time>
      </trkpt>
      <trkpt lat="48.61313" lon="1.66148">
        <ele>154</ele>
        <time>2010-05-15T08:04:53Z</time>
      </trkpt>
      <trkpt lat="48.61313" lon="1.6615">
        <ele>154</ele>
        <time>2010-05-15T08:04:54Z</time>
      </trkpt>
      <trkpt lat="48.61312" lon="1.66152">
        <ele>154</ele>
        <time>2010-05-15T08:04:55Z</time>
      </trkpt>
      <trkpt lat="48.61311" lon="1.66154">
        <ele>154</ele>
        <time>2010-05-15T08:04:56Z</time>
      </trkpt>
      <trkpt lat="48.6131" lon="1.66155">
        <ele>154</ele>
        <time>2010-05-15T08:04:57Z</time>
      </trkpt>
      <trkpt lat="48.61309" lon="1.66157">
        <ele>154</ele>
        <time>2010-05-15T08:04:58Z</time>
      </trkpt>
      <trkpt lat="48.61308" lon="1.6616">
        <ele>154</ele>
        <time>2010-05-15T08:04:59Z</time>
      </trkpt>
      <trkpt lat="48.61307" lon="1.66163">
        <ele>154</ele>
        <time>2010-05-15T08:05:00Z</time>
      </trkpt>
      <trkpt lat="48.61306" lon="1.66166">
        <ele>154</ele>
        <time>2010-05-15T08:05:01Z</time>
      </trkpt>
      <trkpt lat="48.61305" lon="1.66169">
        <ele>154</ele>
        <time>2010-05-15T08:05:02Z</time>
      </trkpt>
      <trkpt lat="48.61304" lon="1.66171">
        <ele>154</ele>
        <time>2010-05-15T08:05:03Z</time>
      </trkpt>
      <trkpt lat="48.61303" lon="1.66172">
        <ele>154</ele>
        <time>2010-05-15T08:05:04Z</time>
      </trkpt>
      <trkpt lat="48.61302" lon="1.66174">
        <ele>154</ele>
        <time>2010-05-15T08:05:05Z</time>
      </trkpt>
      <trkpt lat="48.61301" lon="1.66177">
        <ele>154</ele>
        <time>2010-05-15T08:05:06Z</time>
      </trkpt>
      <trkpt lat="48.613" lon="1.66179">
        <ele>154</ele>
        <time>2010-05-15T08:05:07Z</time>
      </trkpt>
      <trkpt lat="48.61299" lon="1.66182">
        <ele>154</ele>
        <time>2010-05-15T08:05:09Z</time>
      </trkpt>
      <trkpt lat="48.61298" lon="1.66185">
        <ele>154</ele>
        <time>2010-05-15T08:05:11Z</time>
      </trkpt>
      <trkpt lat="48.61298" lon="1.66187">
        <ele>154</ele>
        <time>2010-05-15T08:05:12Z</time>
      </trkpt>
      <trkpt lat="48.61297" lon="1.66189">
        <ele>154</ele>
        <time>2010-05-15T08:05:13Z</time>
      </trkpt>
      <trkpt lat="48.61296" lon="1.66191">
        <ele>154</ele>
        <time>2010-05-15T08:05:14Z</time>
      </trkpt>
      <trkpt lat="48.61296" lon="1.66194">
        <ele>154</ele>
        <time>2010-05-15T08:05:15Z</time>
      </trkpt>
      <trkpt lat="48.61295" lon="1.66196">
        <ele>154</ele>
        <time>2010-05-15T08:05:16Z</time>
      </trkpt>
      <trkpt lat="48.61294" lon="1.66198">
        <ele>154</ele>
        <time>2010-05-15T08:05:17Z</time>
      </trkpt>
      <trkpt lat="48.61293" lon="1.662">
        <ele>154</ele>
        <time>2010-05-15T08:05:18Z</time>
      </trkpt>
      <trkpt lat="48.61292" lon="1.66202">
        <ele>154</ele>
        <time>2010-05-15T08:05:19Z</time>
      </trkpt>
      <trkpt lat="48.61291" lon="1.66204">
        <ele>154</ele>
        <time>2010-05-15T08:05:20Z</time>
      </trkpt>
      <trkpt lat="48.6129" lon="1.66207">
        <ele>154</ele>
        <time>2010-05-15T08:05:21Z</time>
      </trkpt>
      <trkpt lat="48.61289" lon="1.66209">
        <ele>154</ele>
        <time>2010-05-15T08:05:22Z</time>
      </trkpt>
      <trkpt lat="48.61288" lon="1.66211">
        <ele>154</ele>
        <time>2010-05-15T08:05:23Z</time>
      </trkpt>
      <trkpt lat="48.61287" lon="1.66213">
        <ele>154</ele>
        <time>2010-05-15T08:05:24Z</time>
      </trkpt>
      <trkpt lat="48.61286" lon="1.66216">
        <ele>154</ele>
        <time>2010-05-15T08:05:26Z</time>
      </trkpt>
      <trkpt lat="48.61286" lon="1.66218">
        <ele>154</ele>
        <time>2010-05-15T08:05:27Z</time>
      </trkpt>
      <trkpt lat="48.61285" lon="1.6622">
        <ele>154</ele>
        <time>2010-05-15T08:05:28Z</time>
      </trkpt>
      <trkpt lat="48.61284" lon="1.66222">
        <ele>154</ele>
        <time>2010-05-15T08:05:29Z</time>
      </trkpt>
      <trkpt lat="48.61283" lon="1.66225">
        <ele>154</ele>
        <time>2010-05-15T08:05:30Z</time>
      </trkpt>
      <trkpt lat="48.61282" lon="1.66227">
        <ele>154</ele>
        <time>2010-05-15T08:05:31Z</time>
      </trkpt>
      <trkpt lat="48.6128" lon="1.66229">
        <ele>154</ele>
        <time>2010-05-15T08:05:32Z</time>
      </trkpt>
      <trkpt lat="48.61279" lon="1.66233">
        <ele>154</ele>
        <time>2010-05-15T08:05:34Z</time>
      </trkpt>
      <trkpt lat="48.61278" lon="1.66235">
        <ele>154</ele>
        <time>2010-05-15T08:05:35Z</time>
      </trkpt>
      <trkpt lat="48.61277" lon="1.66237">
        <ele>154</ele>
        <time>2010-05-15T08:05:36Z</time>
      </trkpt>
      <trkpt lat="48.61277" lon="1.66239">
        <ele>154</ele>
        <time>2010-05-15T08:05:37Z</time>
      </trkpt>
      <trkpt lat="48.61276" lon="1.66241">
        <ele>154</ele>
        <time>2010-05-15T08:05:38Z</time>
      </trkpt>
      <trkpt lat="48.61276" lon="1.66243">
        <ele>154</ele>
        <time>2010-05-15T08:05:39Z</time>
      </trkpt>
      <trkpt lat="48.61275" lon="1.66245">
        <ele>154</ele>
        <time>2010-05-15T08:05:40Z</time>
      </trkpt>
      <trkpt lat="48.61275" lon="1.66246">
        <ele>154</ele>
        <time>2010-05-15T08:05:41Z</time>
      </trkpt>
      <trkpt lat="48.61273" lon="1.6625">
        <ele>154</ele>
        <time>2010-05-15T08:05:43Z</time>
      </trkpt>
      <trkpt lat="48.61272" lon="1.66253">
        <ele>154</ele>
        <time>2010-05-15T08:05:45Z</time>
      </trkpt>
      <trkpt lat="48.61271" lon="1.66256">
        <ele>154</ele>
        <time>2010-05-15T08:05:47Z</time>
      </trkpt>
      <trkpt lat="48.6127" lon="1.66259">
        <ele>154</ele>
        <time>2010-05-15T08:05:49Z</time>
      </trkpt>
      <trkpt lat="48.61269" lon="1.66261">
        <ele>154</ele>
        <time>2010-05-15T08:05:50Z</time>
      </trkpt>
      <trkpt lat="48.61268" lon="1.66263">
        <ele>154</ele>
        <time>2010-05-15T08:05:51Z</time>
      </trkpt>
      <trkpt lat="48.61267" lon="1.66265">
        <ele>154</ele>
        <time>2010-05-15T08:05:52Z</time>
      </trkpt>
      <trkpt lat="48.61266" lon="1.66267">
        <ele>154</ele>
        <time>2010-05-15T08:05:53Z</time>
      </trkpt>
      <trkpt lat="48.61265" lon="1.66269">
        <ele>154</ele>
        <time>2010-05-15T08:05:54Z</time>
      </trkpt>
      <trkpt lat="48.61264" lon="1.66272">
        <ele>154</ele>
        <time>2010-05-15T08:05:55Z</time>
      </trkpt>
      <trkpt lat="48.61263" lon="1.66274">
        <ele>154</ele>
        <time>2010-05-15T08:05:56Z</time>
      </trkpt>
      <trkpt lat="48.61262" lon="1.66278">
        <ele>154</ele>
        <time>2010-05-15T08:05:57Z</time>
      </trkpt>
      <trkpt lat="48.61261" lon="1.66281">
        <ele>154</ele>
        <time>2010-05-15T08:05:58Z</time>
      </trkpt>
      <trkpt lat="48.6126" lon="1.66284">
        <ele>154</ele>
        <time>2010-05-15T08:05:59Z</time>
      </trkpt>
      <trkpt lat="48.61258" lon="1.66288">
        <ele>154</ele>
        <time>2010-05-15T08:06:00Z</time>
      </trkpt>
      <trkpt lat="48.61257" lon="1.6629">
        <ele>154</ele>
        <time>2010-05-15T08:06:01Z</time>
      </trkpt>
      <trkpt lat="48.61256" lon="1.66292">
        <ele>154</ele>
        <time>2010-05-15T08:06:02Z</time>
      </trkpt>
      <trkpt lat="48.61255" lon="1.66294">
        <ele>154</ele>
        <time>2010-05-15T08:06:03Z</time>
      </trkpt>
      <trkpt lat="48.61254" lon="1.66296">
        <ele>154</ele>
        <time>2010-05-15T08:06:04Z</time>
      </trkpt>
      <trkpt lat="48.61253" lon="1.66299">
        <ele>154</ele>
        <time>2010-05-15T08:06:06Z</time>
      </trkpt>
      <trkpt lat="48.61251" lon="1.66302">
        <ele>154</ele>
        <time>2010-05-15T08:06:08Z</time>
      </trkpt>
      <trkpt lat="48.6125" lon="1.66304">
        <ele>154</ele>
        <time>2010-05-15T08:06:09Z</time>
      </trkpt>
      <trkpt lat="48.61249" lon="1.66306">
        <ele>154</ele>
        <time>2010-05-15T08:06:10Z</time>
      </trkpt>
      <trkpt lat="48.61248" lon="1.66308">
        <ele>154</ele>
        <time>2010-05-15T08:06:11Z</time>
      </trkpt>
      <trkpt lat="48.61247" lon="1.6631">
        <ele>154</ele>
        <time>2010-05-15T08:06:12Z</time>
      </trkpt>
      <trkpt lat="48.61246" lon="1.66312">
        <ele>154</ele>
        <time>2010-05-15T08:06:13Z</time>
      </trkpt>
      <trkpt lat="48.61246" lon="1.66314">
        <ele>154</ele>
        <time>2010-05-15T08:06:14Z</time>
      </trkpt>
      <trkpt lat="48.61245" lon="1.66316">
        <ele>154</ele>
        <time>2010-05-15T08:06:15Z</time>
      </trkpt>
      <trkpt lat="48.61244" lon="1.66318">
        <ele>154</ele>
        <time>2010-05-15T08:06:16Z</time>
      </trkpt>
      <trkpt lat="48.61244" lon="1.6632">
        <ele>154</ele>
        <time>2010-05-15T08:06:17Z</time>
      </trkpt>
      <trkpt lat="48.61243" lon="1.66322">
        <ele>154</ele>
        <time>2010-05-15T08:06:18Z</time>
      </trkpt>
      <trkpt lat="48.61243" lon="1.66324">
        <ele>154</ele>
        <time>2010-05-15T08:06:19Z</time>
      </trkpt>
      <trkpt lat="48.61242" lon="1.66326">
        <ele>154</ele>
        <time>2010-05-15T08:06:20Z</time>
      </trkpt>
      <trkpt lat="48.61241" lon="1.66328">
        <ele>154</ele>
        <time>2010-05-15T08:06:21Z</time>
      </trkpt>
      <trkpt lat="48.6124" lon="1.6633">
        <ele>154</ele>
        <time>2010-05-15T08:06:22Z</time>
      </trkpt>
      <trkpt lat="48.61239" lon="1.66333">
        <ele>154</ele>
        <time>2010-05-15T08:06:23Z</time>
      </trkpt>
      <trkpt lat="48.61238" lon="1.66335">
        <ele>154</ele>
        <time>2010-05-15T08:06:24Z</time>
      </trkpt>
      <trkpt lat="48.61237" lon="1.66337">
        <ele>154</ele>
        <time>2010-05-15T08:06:25Z</time>
      </trkpt>
      <trkpt lat="48.61236" lon="1.66341">
        <ele>154</ele>
        <time>2010-05-15T08:06:27Z</time>
      </trkpt>
      <trkpt lat="48.61236" lon="1.66343">
        <ele>154</ele>
        <time>2010-05-15T08:06:28Z</time>
      </trkpt>
      <trkpt lat="48.61235" lon="1.66345">
        <ele>154</ele>
        <time>2010-05-15T08:06:29Z</time>
      </trkpt>
      <trkpt lat="48.61234" lon="1.66348">
        <ele>154</ele>
        <time>2010-05-15T08:06:31Z</time>
      </trkpt>
      <trkpt lat="48.61233" lon="1.66349">
        <ele>154</ele>
        <time>2010-05-15T08:06:32Z</time>
      </trkpt>
      <trkpt lat="48.61233" lon="1.66351">
        <ele>154</ele>
        <time>2010-05-15T08:06:33Z</time>
      </trkpt>
      <trkpt lat="48.61232" lon="1.66354">
        <ele>154</ele>
        <time>2010-05-15T08:06:34Z</time>
      </trkpt>
      <trkpt lat="48.61231" lon="1.66356">
        <ele>154</ele>
        <time>2010-05-15T08:06:35Z</time>
      </trkpt>
      <trkpt lat="48.61231" lon="1.66358">
        <ele>154</ele>
        <time>2010-05-15T08:06:36Z</time>
      </trkpt>
      <trkpt lat="48.6123" lon="1.6636">
        <ele>154</ele>
        <time>2010-05-15T08:06:37Z</time>
      </trkpt>
      <trkpt lat="48.61229" lon="1.66363">
        <ele>154</ele>
        <time>2010-05-15T08:06:38Z</time>
      </trkpt>
      <trkpt lat="48.61228" lon="1.66365">
        <ele>154</ele>
        <time>2010-05-15T08:06:39Z</time>
      </trkpt>
      <trkpt lat="48.61226" lon="1.66368">
        <ele>154</ele>
        <time>2010-05-15T08:06:41Z</time>
      </trkpt>
      <trkpt lat="48.61225" lon="1.6637">
        <ele>154</ele>
        <time>2010-05-15T08:06:42Z</time>
      </trkpt>
      <trkpt lat="48.61225" lon="1.66372">
        <ele>154</ele>
        <time>2010-05-15T08:06:43Z</time>
      </trkpt>
      <trkpt lat="48.61224" lon="1.66374">
        <ele>154</ele>
        <time>2010-05-15T08:06:44Z</time>
      </trkpt>
      <trkpt lat="48.61224" lon="1.66376">
        <ele>154</ele>
        <time>2010-05-15T08:06:45Z</time>
      </trkpt>
      <trkpt lat="48.61224" lon="1.66378">
        <ele>154</ele>
        <time>2010-05-15T08:06:46Z</time>
      </trkpt>
      <trkpt lat="48.61224" lon="1.6638">
        <ele>154</ele>
        <time>2010-05-15T08:06:47Z</time>
      </trkpt>
      <trkpt lat="48.61223" lon="1.66382">
        <ele>154</ele>
        <time>2010-05-15T08:06:48Z</time>
      </trkpt>
      <trkpt lat="48.61222" lon="1.66384">
        <ele>154</ele>
        <time>2010-05-15T08:06:49Z</time>
      </trkpt>
      <trkpt lat="48.61221" lon="1.66386">
        <ele>154</ele>
        <time>2010-05-15T08:06:50Z</time>
      </trkpt>
      <trkpt lat="48.61221" lon="1.66388">
        <ele>154</ele>
        <time>2010-05-15T08:06:51Z</time>
      </trkpt>
      <trkpt lat="48.6122" lon="1.6639">
        <ele>154</ele>
        <time>2010-05-15T08:06:52Z</time>
      </trkpt>
      <trkpt lat="48.61219" lon="1.66392">
        <ele>154</ele>
        <time>2010-05-15T08:06:53Z</time>
      </trkpt>
      <trkpt lat="48.61218" lon="1.66394">
        <ele>154</ele>
        <time>2010-05-15T08:06:54Z</time>
      </trkpt>
      <trkpt lat="48.61217" lon="1.66396">
        <ele>154</ele>
        <time>2010-05-15T08:06:55Z</time>
      </trkpt>
      <trkpt lat="48.61217" lon="1.66398">
        <ele>154</ele>
        <time>2010-05-15T08:06:56Z</time>
      </trkpt>
      <trkpt lat="48.61216" lon="1.664">
        <ele>154</ele>
        <time>2010-05-15T08:06:57Z</time>
      </trkpt>
      <trkpt lat="48.61216" lon="1.66402">
        <ele>154</ele>
        <time>2010-05-15T08:06:58Z</time>
      </trkpt>
      <trkpt lat="48.61215" lon="1.66404">
        <ele>154</ele>
        <time>2010-05-15T08:06:59Z</time>
      </trkpt>
      <trkpt lat="48.61214" lon="1.66407">
        <ele>154</ele>
        <time>2010-05-15T08:07:00Z</time>
      </trkpt>
      <trkpt lat="48.61213" lon="1.66409">
        <ele>154</ele>
        <time>2010-05-15T08:07:01Z</time>
      </trkpt>
      <trkpt lat="48.61212" lon="1.66412">
        <ele>154</ele>
        <time>2010-05-15T08:07:02Z</time>
      </trkpt>
      <trkpt lat="48.61211" lon="1.66413">
        <ele>154</ele>
        <time>2010-05-15T08:07:03Z</time>
      </trkpt>
      <trkpt lat="48.61211" lon="1.66415">
        <ele>154</ele>
        <time>2010-05-15T08:07:04Z</time>
      </trkpt>
      <trkpt lat="48.61211" lon="1.66417">
        <ele>154</ele>
        <time>2010-05-15T08:07:05Z</time>
      </trkpt>
      <trkpt lat="48.6121" lon="1.66419">
        <ele>154</ele>
        <time>2010-05-15T08:07:06Z</time>
      </trkpt>
      <trkpt lat="48.61209" lon="1.66422">
        <ele>154</ele>
        <time>2010-05-15T08:07:07Z</time>
      </trkpt>
      <trkpt lat="48.61208" lon="1.66425">
        <ele>154</ele>
        <time>2010-05-15T08:07:08Z</time>
      </trkpt>
      <trkpt lat="48.61207" lon="1.66427">
        <ele>154</ele>
        <time>2010-05-15T08:07:09Z</time>
      </trkpt>
      <trkpt lat="48.61206" lon="1.6643">
        <ele>154</ele>
        <time>2010-05-15T08:07:10Z</time>
      </trkpt>
      <trkpt lat="48.61205" lon="1.66433">
        <ele>154</ele>
        <time>2010-05-15T08:07:11Z</time>
      </trkpt>
      <trkpt lat="48.61204" lon="1.66435">
        <ele>154</ele>
        <time>2010-05-15T08:07:12Z</time>
      </trkpt>
      <trkpt lat="48.61203" lon="1.66437">
        <ele>154</ele>
        <time>2010-05-15T08:07:13Z</time>
      </trkpt>
      <trkpt lat="48.61202" lon="1.66439">
        <ele>154</ele>
        <time>2010-05-15T08:07:14Z</time>
      </trkpt>
      <trkpt lat="48.61201" lon="1.66442">
        <ele>154</ele>
        <time>2010-05-15T08:07:15Z</time>
      </trkpt>
      <trkpt lat="48.612" lon="1.66444">
        <ele>154</ele>
        <time>2010-05-15T08:07:16Z</time>
      </trkpt>
      <trkpt lat="48.61199" lon="1.66446">
        <ele>154</ele>
        <time>2010-05-15T08:07:17Z</time>
      </trkpt>
      <trkpt lat="48.61198" lon="1.66448">
        <ele>154</ele>
        <time>2010-05-15T08:07:18Z</time>
      </trkpt>
      <trkpt lat="48.61198" lon="1.66449">
        <ele>154</ele>
        <time>2010-05-15T08:07:19Z</time>
      </trkpt>
      <trkpt lat="48.61197" lon="1.66451">
        <ele>154</ele>
        <time>2010-05-15T08:07:20Z</time>
      </trkpt>
      <trkpt lat="48.61196" lon="1.66453">
        <ele>154</ele>
        <time>2010-05-15T08:07:21Z</time>
      </trkpt>
      <trkpt lat="48.61194" lon="1.66456">
        <ele>154</ele>
        <time>2010-05-15T08:07:23Z</time>
      </trkpt>
      <trkpt lat="48.61193" lon="1.66459">
        <ele>154</ele>
        <time>2010-05-15T08:07:24Z</time>
      </trkpt>
      <trkpt lat="48.61192" lon="1.66461">
        <ele>154</ele>
        <time>2010-05-15T08:07:25Z</time>
      </trkpt>
      <trkpt lat="48.61191" lon="1.66463">
        <ele>154</ele>
        <time>2010-05-15T08:07:26Z</time>
      </trkpt>
      <trkpt lat="48.61189" lon="1.66466">
        <ele>154</ele>
        <time>2010-05-15T08:07:28Z</time>
      </trkpt>
      <trkpt lat="48.61189" lon="1.66468">
        <ele>154</ele>
        <time>2010-05-15T08:07:29Z</time>
      </trkpt>
      <trkpt lat="48.61188" lon="1.66471">
        <ele>154</ele>
        <time>2010-05-15T08:07:30Z</time>
      </trkpt>
      <trkpt lat="48.61187" lon="1.66472">
        <ele>154</ele>
        <time>2010-05-15T08:07:31Z</time>
      </trkpt>
      <trkpt lat="48.61186" lon="1.66475">
        <ele>154</ele>
        <time>2010-05-15T08:07:33Z</time>
      </trkpt>
      <trkpt lat="48.61186" lon="1.66477">
        <ele>154</ele>
        <time>2010-05-15T08:07:35Z</time>
      </trkpt>
      <trkpt lat="48.61185" lon="1.66479">
        <ele>154</ele>
        <time>2010-05-15T08:07:37Z</time>
      </trkpt>
      <trkpt lat="48.61185" lon="1.6648">
        <ele>154</ele>
        <time>2010-05-15T08:07:38Z</time>
      </trkpt>
      <trkpt lat="48.61184" lon="1.66482">
        <ele>154</ele>
        <time>2010-05-15T08:07:39Z</time>
      </trkpt>
      <trkpt lat="48.61183" lon="1.66485">
        <ele>154</ele>
        <time>2010-05-15T08:07:41Z</time>
      </trkpt>
      <trkpt lat="48.61182" lon="1.66488">
        <ele>154</ele>
        <time>2010-05-15T08:07:42Z</time>
      </trkpt>
      <trkpt lat="48.61181" lon="1.6649">
        <ele>154</ele>
        <time>2010-05-15T08:07:43Z</time>
      </trkpt>
      <trkpt lat="48.6118" lon="1.66493">
        <ele>154</ele>
        <time>2010-05-15T08:07:44Z</time>
      </trkpt>
      <trkpt lat="48.61178" lon="1.66496">
        <ele>154</ele>
        <time>2010-05-15T08:07:45Z</time>
      </trkpt>
      <trkpt lat="48.61177" lon="1.665">
        <ele>154</ele>
        <time>2010-05-15T08:07:46Z</time>
      </trkpt>
      <trkpt lat="48.61176" lon="1.66504">
        <ele>154</ele>
        <time>2010-05-15T08:07:47Z</time>
      </trkpt>
      <trkpt lat="48.61174" lon="1.66508">
        <ele>154</ele>
        <time>2010-05-15T08:07:48Z</time>
      </trkpt>
      <trkpt lat="48.61173" lon="1.66512">
        <ele>154</ele>
        <time>2010-05-15T08:07:49Z</time>
      </trkpt>
      <trkpt lat="48.61171" lon="1.66517">
        <ele>154</ele>
        <time>2010-05-15T08:07:50Z</time>
      </trkpt>
      <trkpt lat="48.61169" lon="1.66521">
        <ele>154</ele>
        <time>2010-05-15T08:07:51Z</time>
      </trkpt>
      <trkpt lat="48.61167" lon="1.66525">
        <ele>154</ele>
        <time>2010-05-15T08:07:52Z</time>
      </trkpt>
      <trkpt lat="48.61165" lon="1.66528">
        <ele>154</ele>
        <time>2010-05-15T08:07:53Z</time>
      </trkpt>
      <trkpt lat="48.61165" lon="1.66529">
        <ele>154</ele>
        <time>2010-05-15T08:07:54Z</time>
      </trkpt>
      <trkpt lat="48.61165" lon="1.66531">
        <ele>154</ele>
        <time>2010-05-15T08:07:55Z</time>
      </trkpt>
      <trkpt lat="48.61164" lon="1.66533">
        <ele>154</ele>
        <time>2010-05-15T08:07:56Z</time>
      </trkpt>
      <trkpt lat="48.61163" lon="1.66536">
        <ele>154</ele>
        <time>2010-05-15T08:07:57Z</time>
      </trkpt>
      <trkpt lat="48.61162" lon="1.66538">
        <ele>154</ele>
        <time>2010-05-15T08:07:58Z</time>
      </trkpt>
      <trkpt lat="48.61162" lon="1.6654">
        <ele>154</ele>
        <time>2010-05-15T08:07:59Z</time>
      </trkpt>
      <trkpt lat="48.61161" lon="1.66542">
        <ele>154</ele>
        <time>2010-05-15T08:08:00Z</time>
      </trkpt>
      <trkpt lat="48.6116" lon="1.66544">
        <ele>153</ele>
        <time>2010-05-15T08:08:01Z</time>
      </trkpt>
      <trkpt lat="48.61159" lon="1.66547">
        <ele>153</ele>
        <time>2010-05-15T08:08:03Z</time>
      </trkpt>
      <trkpt lat="48.61159" lon="1.66549">
        <ele>153</ele>
        <time>2010-05-15T08:08:04Z</time>
      </trkpt>
      <trkpt lat="48.61158" lon="1.66551">
        <ele>153</ele>
        <time>2010-05-15T08:08:05Z</time>
      </trkpt>
      <trkpt lat="48.61157" lon="1.66553">
        <ele>153</ele>
        <time>2010-05-15T08:08:06Z</time>
      </trkpt>
      <trkpt lat="48.61157" lon="1.66556">
        <ele>153</ele>
        <time>2010-05-15T08:08:08Z</time>
      </trkpt>
      <trkpt lat="48.61156" lon="1.66557">
        <ele>153</ele>
        <time>2010-05-15T08:08:09Z</time>
      </trkpt>
      <trkpt lat="48.61155" lon="1.6656">
        <ele>153</ele>
        <time>2010-05-15T08:08:10Z</time>
      </trkpt>
      <trkpt lat="48.61154" lon="1.66562">
        <ele>153</ele>
        <time>2010-05-15T08:08:11Z</time>
      </trkpt>
      <trkpt lat="48.61154" lon="1.66563">
        <ele>153</ele>
        <time>2010-05-15T08:08:12Z</time>
      </trkpt>
      <trkpt lat="48.61152" lon="1.66566">
        <ele>153</ele>
        <time>2010-05-15T08:08:13Z</time>
      </trkpt>
      <trkpt lat="48.61151" lon="1.66568">
        <ele>153</ele>
        <time>2010-05-15T08:08:14Z</time>
      </trkpt>
      <trkpt lat="48.6115" lon="1.6657">
        <ele>153</ele>
        <time>2010-05-15T08:08:15Z</time>
      </trkpt>
      <trkpt lat="48.61149" lon="1.66573">
        <ele>153</ele>
        <time>2010-05-15T08:08:16Z</time>
      </trkpt>
      <trkpt lat="48.61148" lon="1.66575">
        <ele>153</ele>
        <time>2010-05-15T08:08:17Z</time>
      </trkpt>
      <trkpt lat="48.61147" lon="1.66577">
        <ele>153</ele>
        <time>2010-05-15T08:08:18Z</time>
      </trkpt>
      <trkpt lat="48.61146" lon="1.6658">
        <ele>153</ele>
        <time>2010-05-15T08:08:19Z</time>
      </trkpt>
      <trkpt lat="48.61145" lon="1.66582">
        <ele>153</ele>
        <time>2010-05-15T08:08:20Z</time>
      </trkpt>
      <trkpt lat="48.61144" lon="1.66585">
        <ele>153</ele>
        <time>2010-05-15T08:08:21Z</time>
      </trkpt>
      <trkpt lat="48.61143" lon="1.66588">
        <ele>153</ele>
        <time>2010-05-15T08:08:22Z</time>
      </trkpt>
      <trkpt lat="48.61142" lon="1.6659">
        <ele>153</ele>
        <time>2010-05-15T08:08:23Z</time>
      </trkpt>
      <trkpt lat="48.61141" lon="1.66592">
        <ele>153</ele>
        <time>2010-05-15T08:08:24Z</time>
      </trkpt>
      <trkpt lat="48.61141" lon="1.66594">
        <ele>153</ele>
        <time>2010-05-15T08:08:25Z</time>
      </trkpt>
      <trkpt lat="48.6114" lon="1.66596">
        <ele>153</ele>
        <time>2010-05-15T08:08:26Z</time>
      </trkpt>
      <trkpt lat="48.61139" lon="1.66598">
        <ele>153</ele>
        <time>2010-05-15T08:08:27Z</time>
      </trkpt>
      <trkpt lat="48.61139" lon="1.666">
        <ele>153</ele>
        <time>2010-05-15T08:08:28Z</time>
      </trkpt>
      <trkpt lat="48.61138" lon="1.66603">
        <ele>152</ele>
        <time>2010-05-15T08:08:29Z</time>
      </trkpt>
      <trkpt lat="48.61137" lon="1.66605">
        <ele>152</ele>
        <time>2010-05-15T08:08:30Z</time>
      </trkpt>
      <trkpt lat="48.61137" lon="1.66608">
        <ele>152</ele>
        <time>2010-05-15T08:08:31Z</time>
      </trkpt>
      <trkpt lat="48.61136" lon="1.6661">
        <ele>152</ele>
        <time>2010-05-15T08:08:32Z</time>
      </trkpt>
      <trkpt lat="48.61135" lon="1.66613">
        <ele>152</ele>
        <time>2010-05-15T08:08:33Z</time>
      </trkpt>
      <trkpt lat="48.61135" lon="1.66615">
        <ele>152</ele>
        <time>2010-05-15T08:08:34Z</time>
      </trkpt>
      <trkpt lat="48.61134" lon="1.66617">
        <ele>152</ele>
        <time>2010-05-15T08:08:35Z</time>
      </trkpt>
      <trkpt lat="48.61134" lon="1.66619">
        <ele>152</ele>
        <time>2010-05-15T08:08:36Z</time>
      </trkpt>
      <trkpt lat="48.61133" lon="1.66621">
        <ele>152</ele>
        <time>2010-05-15T08:08:37Z</time>
      </trkpt>
      <trkpt lat="48.61133" lon="1.66624">
        <ele>152</ele>
        <time>2010-05-15T08:08:38Z</time>
      </trkpt>
      <trkpt lat="48.61132" lon="1.66626">
        <ele>152</ele>
        <time>2010-05-15T08:08:39Z</time>
      </trkpt>
      <trkpt lat="48.61132" lon="1.66628">
        <ele>152</ele>
        <time>2010-05-15T08:08:40Z</time>
      </trkpt>
      <trkpt lat="48.61131" lon="1.66631">
        <ele>152</ele>
        <time>2010-05-15T08:08:41Z</time>
      </trkpt>
      <trkpt lat="48.6113" lon="1.66633">
        <ele>152</ele>
        <time>2010-05-15T08:08:42Z</time>
      </trkpt>
      <trkpt lat="48.61129" lon="1.66635">
        <ele>152</ele>
        <time>2010-05-15T08:08:43Z</time>
      </trkpt>
      <trkpt lat="48.61128" lon="1.66637">
        <ele>152</ele>
        <time>2010-05-15T08:08:44Z</time>
      </trkpt>
      <trkpt lat="48.61128" lon="1.66639">
        <ele>152</ele>
        <time>2010-05-15T08:08:45Z</time>
      </trkpt>
      <trkpt lat="48.61127" lon="1.66642">
        <ele>152</ele>
        <time>2010-05-15T08:08:46Z</time>
      </trkpt>
      <trkpt lat="48.61126" lon="1.66644">
        <ele>152</ele>
        <time>2010-05-15T08:08:47Z</time>
      </trkpt>
      <trkpt lat="48.61126" lon="1.66646">
        <ele>152</ele>
        <time>2010-05-15T08:08:48Z</time>
      </trkpt>
      <trkpt lat="48.61125" lon="1.66648">
        <ele>152</ele>
        <time>2010-05-15T08:08:49Z</time>
      </trkpt>
      <trkpt lat="48.61124" lon="1.6665">
        <ele>152</ele>
        <time>2010-05-15T08:08:50Z</time>
      </trkpt>
      <trkpt lat="48.61124" lon="1.66652">
        <ele>152</ele>
        <time>2010-05-15T08:08:51Z</time>
      </trkpt>
      <trkpt lat="48.61123" lon="1.66654">
        <ele>152</ele>
        <time>2010-05-15T08:08:52Z</time>
      </trkpt>
      <trkpt lat="48.61123" lon="1.66656">
        <ele>152</ele>
        <time>2010-05-15T08:08:53Z</time>
      </trkpt>
      <trkpt lat="48.61122" lon="1.66658">
        <ele>152</ele>
        <time>2010-05-15T08:08:54Z</time>
      </trkpt>
      <trkpt lat="48.61121" lon="1.6666">
        <ele>152</ele>
        <time>2010-05-15T08:08:55Z</time>
      </trkpt>
      <trkpt lat="48.61121" lon="1.66662">
        <ele>152</ele>
        <time>2010-05-15T08:08:56Z</time>
      </trkpt>
      <trkpt lat="48.6112" lon="1.66665">
        <ele>152</ele>
        <time>2010-05-15T08:08:57Z</time>
      </trkpt>
      <trkpt lat="48.6112" lon="1.66667">
        <ele>152</ele>
        <time>2010-05-15T08:08:58Z</time>
      </trkpt>
      <trkpt lat="48.61119" lon="1.66669">
        <ele>152</ele>
        <time>2010-05-15T08:08:59Z</time>
      </trkpt>
      <trkpt lat="48.61119" lon="1.66671">
        <ele>152</ele>
        <time>2010-05-15T08:09:00Z</time>
      </trkpt>
      <trkpt lat="48.61118" lon="1.66672">
        <ele>152</ele>
        <time>2010-05-15T08:09:01Z</time>
      </trkpt>
      <trkpt lat="48.61118" lon="1.66674">
        <ele>152</ele>
        <time>2010-05-15T08:09:02Z</time>
      </trkpt>
      <trkpt lat="48.61118" lon="1.66677">
        <ele>152</ele>
        <time>2010-05-15T08:09:03Z</time>
      </trkpt>
      <trkpt lat="48.61117" lon="1.66679">
        <ele>152</ele>
        <time>2010-05-15T08:09:04Z</time>
      </trkpt>
      <trkpt lat="48.61116" lon="1.66681">
        <ele>152</ele>
        <time>2010-05-15T08:09:05Z</time>
      </trkpt>
      <trkpt lat="48.61115" lon="1.66683">
        <ele>152</ele>
        <time>2010-05-15T08:09:06Z</time>
      </trkpt>
      <trkpt lat="48.61114" lon="1.66685">
        <ele>152</ele>
        <time>2010-05-15T08:09:07Z</time>
      </trkpt>
      <trkpt lat="48.61113" lon="1.66687">
        <ele>152</ele>
        <time>2010-05-15T08:09:08Z</time>
      </trkpt>
      <trkpt lat="48.61112" lon="1.66689">
        <ele>152</ele>
        <time>2010-05-15T08:09:09Z</time>
      </trkpt>
      <trkpt lat="48.61111" lon="1.66691">
        <ele>152</ele>
        <time>2010-05-15T08:09:10Z</time>
      </trkpt>
      <trkpt lat="48.6111" lon="1.66693">
        <ele>152</ele>
        <time>2010-05-15T08:09:11Z</time>
      </trkpt>
      <trkpt lat="48.61109" lon="1.66695">
        <ele>152</ele>
        <time>2010-05-15T08:09:12Z</time>
      </trkpt>
      <trkpt lat="48.61109" lon="1.66698">
        <ele>152</ele>
        <time>2010-05-15T08:09:13Z</time>
      </trkpt>
      <trkpt lat="48.61108" lon="1.66699">
        <ele>152</ele>
        <time>2010-05-15T08:09:14Z</time>
      </trkpt>
      <trkpt lat="48.61107" lon="1.66702">
        <ele>152</ele>
        <time>2010-05-15T08:09:15Z</time>
      </trkpt>
      <trkpt lat="48.61106" lon="1.66704">
        <ele>152</ele>
        <time>2010-05-15T08:09:16Z</time>
      </trkpt>
      <trkpt lat="48.61104" lon="1.66707">
        <ele>152</ele>
        <time>2010-05-15T08:09:17Z</time>
      </trkpt>
      <trkpt lat="48.61103" lon="1.66709">
        <ele>152</ele>
        <time>2010-05-15T08:09:18Z</time>
      </trkpt>
      <trkpt lat="48.61103" lon="1.66712">
        <ele>152</ele>
        <time>2010-05-15T08:09:19Z</time>
      </trkpt>
      <trkpt lat="48.61102" lon="1.66714">
        <ele>152</ele>
        <time>2010-05-15T08:09:20Z</time>
      </trkpt>
      <trkpt lat="48.61101" lon="1.66716">
        <ele>152</ele>
        <time>2010-05-15T08:09:21Z</time>
      </trkpt>
      <trkpt lat="48.61101" lon="1.66718">
        <ele>152</ele>
        <time>2010-05-15T08:09:22Z</time>
      </trkpt>
      <trkpt lat="48.611" lon="1.6672">
        <ele>152</ele>
        <time>2010-05-15T08:09:23Z</time>
      </trkpt>
      <trkpt lat="48.61099" lon="1.66722">
        <ele>152</ele>
        <time>2010-05-15T08:09:24Z</time>
      </trkpt>
      <trkpt lat="48.61099" lon="1.66724">
        <ele>152</ele>
        <time>2010-05-15T08:09:25Z</time>
      </trkpt>
      <trkpt lat="48.61097" lon="1.66727">
        <ele>152</ele>
        <time>2010-05-15T08:09:26Z</time>
      </trkpt>
      <trkpt lat="48.61096" lon="1.6673">
        <ele>152</ele>
        <time>2010-05-15T08:09:27Z</time>
      </trkpt>
      <trkpt lat="48.61096" lon="1.66732">
        <ele>152</ele>
        <time>2010-05-15T08:09:28Z</time>
      </trkpt>
      <trkpt lat="48.61095" lon="1.66735">
        <ele>152</ele>
        <time>2010-05-15T08:09:29Z</time>
      </trkpt>
      <trkpt lat="48.61094" lon="1.66737">
        <ele>152</ele>
        <time>2010-05-15T08:09:30Z</time>
      </trkpt>
      <trkpt lat="48.61093" lon="1.6674">
        <ele>152</ele>
        <time>2010-05-15T08:09:31Z</time>
      </trkpt>
      <trkpt lat="48.61093" lon="1.66742">
        <ele>152</ele>
        <time>2010-05-15T08:09:32Z</time>
      </trkpt>
      <trkpt lat="48.61092" lon="1.66744">
        <ele>152</ele>
        <time>2010-05-15T08:09:33Z</time>
      </trkpt>
      <trkpt lat="48.61091" lon="1.66746">
        <ele>152</ele>
        <time>2010-05-15T08:09:34Z</time>
      </trkpt>
      <trkpt lat="48.6109" lon="1.66748">
        <ele>152</ele>
        <time>2010-05-15T08:09:35Z</time>
      </trkpt>
      <trkpt lat="48.61089" lon="1.6675">
        <ele>152</ele>
        <time>2010-05-15T08:09:36Z</time>
      </trkpt>
      <trkpt lat="48.61088" lon="1.66753">
        <ele>152</ele>
        <time>2010-05-15T08:09:37Z</time>
      </trkpt>
      <trkpt lat="48.61087" lon="1.66756">
        <ele>152</ele>
        <time>2010-05-15T08:09:38Z</time>
      </trkpt>
      <trkpt lat="48.61087" lon="1.66758">
        <ele>152</ele>
        <time>2010-05-15T08:09:39Z</time>
      </trkpt>
      <trkpt lat="48.61085" lon="1.6676">
        <ele>152</ele>
        <time>2010-05-15T08:09:40Z</time>
      </trkpt>
      <trkpt lat="48.61085" lon="1.66763">
        <ele>152</ele>
        <time>2010-05-15T08:09:42Z</time>
      </trkpt>
      <trkpt lat="48.61084" lon="1.66766">
        <ele>152</ele>
        <time>2010-05-15T08:09:43Z</time>
      </trkpt>
      <trkpt lat="48.61084" lon="1.66768">
        <ele>152</ele>
        <time>2010-05-15T08:09:44Z</time>
      </trkpt>
      <trkpt lat="48.61082" lon="1.6677">
        <ele>152</ele>
        <time>2010-05-15T08:09:45Z</time>
      </trkpt>
      <trkpt lat="48.61081" lon="1.66773">
        <ele>152</ele>
        <time>2010-05-15T08:09:46Z</time>
      </trkpt>
      <trkpt lat="48.61079" lon="1.66776">
        <ele>152</ele>
        <time>2010-05-15T08:09:47Z</time>
      </trkpt>
      <trkpt lat="48.61078" lon="1.66778">
        <ele>152</ele>
        <time>2010-05-15T08:09:48Z</time>
      </trkpt>
      <trkpt lat="48.61076" lon="1.66781">
        <ele>152</ele>
        <time>2010-05-15T08:09:49Z</time>
      </trkpt>
      <trkpt lat="48.61075" lon="1.66783">
        <ele>152</ele>
        <time>2010-05-15T08:09:50Z</time>
      </trkpt>
      <trkpt lat="48.61073" lon="1.66786">
        <ele>152</ele>
        <time>2010-05-15T08:09:52Z</time>
      </trkpt>
      <trkpt lat="48.61072" lon="1.66788">
        <ele>152</ele>
        <time>2010-05-15T08:09:53Z</time>
      </trkpt>
      <trkpt lat="48.61071" lon="1.6679">
        <ele>152</ele>
        <time>2010-05-15T08:09:54Z</time>
      </trkpt>
      <trkpt lat="48.61071" lon="1.66792">
        <ele>152</ele>
        <time>2010-05-15T08:09:55Z</time>
      </trkpt>
      <trkpt lat="48.61069" lon="1.66794">
        <ele>152</ele>
        <time>2010-05-15T08:09:56Z</time>
      </trkpt>
      <trkpt lat="48.61069" lon="1.66796">
        <ele>151</ele>
        <time>2010-05-15T08:09:57Z</time>
      </trkpt>
      <trkpt lat="48.61068" lon="1.66798">
        <ele>151</ele>
        <time>2010-05-15T08:09:58Z</time>
      </trkpt>
      <trkpt lat="48.61067" lon="1.66801">
        <ele>151</ele>
        <time>2010-05-15T08:09:59Z</time>
      </trkpt>
      <trkpt lat="48.61067" lon="1.66802">
        <ele>151</ele>
        <time>2010-05-15T08:10:00Z</time>
      </trkpt>
      <trkpt lat="48.61066" lon="1.66804">
        <ele>151</ele>
        <time>2010-05-15T08:10:01Z</time>
      </trkpt>
      <trkpt lat="48.61065" lon="1.66807">
        <ele>151</ele>
        <time>2010-05-15T08:10:02Z</time>
      </trkpt>
      <trkpt lat="48.61064" lon="1.66809">
        <ele>151</ele>
        <time>2010-05-15T08:10:03Z</time>
      </trkpt>
      <trkpt lat="48.61064" lon="1.66811">
        <ele>150</ele>
        <time>2010-05-15T08:10:04Z</time>
      </trkpt>
      <trkpt lat="48.61063" lon="1.66813">
        <ele>150</ele>
        <time>2010-05-15T08:10:05Z</time>
      </trkpt>
      <trkpt lat="48.61063" lon="1.66814">
        <ele>150</ele>
        <time>2010-05-15T08:10:06Z</time>
      </trkpt>
      <trkpt lat="48.61062" lon="1.66817">
        <ele>150</ele>
        <time>2010-05-15T08:10:07Z</time>
      </trkpt>
      <trkpt lat="48.61061" lon="1.66819">
        <ele>150</ele>
        <time>2010-05-15T08:10:08Z</time>
      </trkpt>
      <trkpt lat="48.61059" lon="1.66821">
        <ele>150</ele>
        <time>2010-05-15T08:10:09Z</time>
      </trkpt>
      <trkpt lat="48.61059" lon="1.66823">
        <ele>150</ele>
        <time>2010-05-15T08:10:10Z</time>
      </trkpt>
      <trkpt lat="48.61058" lon="1.66825">
        <ele>149</ele>
        <time>2010-05-15T08:10:11Z</time>
      </trkpt>
      <trkpt lat="48.61058" lon="1.66827">
        <ele>149</ele>
        <time>2010-05-15T08:10:12Z</time>
      </trkpt>
      <trkpt lat="48.61057" lon="1.66829">
        <ele>149</ele>
        <time>2010-05-15T08:10:13Z</time>
      </trkpt>
      <trkpt lat="48.61057" lon="1.66831">
        <ele>149</ele>
        <time>2010-05-15T08:10:14Z</time>
      </trkpt>
      <trkpt lat="48.61056" lon="1.66834">
        <ele>148</ele>
        <time>2010-05-15T08:10:15Z</time>
      </trkpt>
      <trkpt lat="48.61056" lon="1.66837">
        <ele>148</ele>
        <time>2010-05-15T08:10:16Z</time>
      </trkpt>
      <trkpt lat="48.61055" lon="1.66839">
        <ele>148</ele>
        <time>2010-05-15T08:10:17Z</time>
      </trkpt>
      <trkpt lat="48.61055" lon="1.66842">
        <ele>148</ele>
        <time>2010-05-15T08:10:18Z</time>
      </trkpt>
      <trkpt lat="48.61055" lon="1.66844">
        <ele>148</ele>
        <time>2010-05-15T08:10:19Z</time>
      </trkpt>
      <trkpt lat="48.61055" lon="1.66847">
        <ele>148</ele>
        <time>2010-05-15T08:10:20Z</time>
      </trkpt>
      <trkpt lat="48.61055" lon="1.66849">
        <ele>147</ele>
        <time>2010-05-15T08:10:21Z</time>
      </trkpt>
      <trkpt lat="48.61055" lon="1.66851">
        <ele>147</ele>
        <time>2010-05-15T08:10:22Z</time>
      </trkpt>
      <trkpt lat="48.61056" lon="1.66854">
        <ele>147</ele>
        <time>2010-05-15T08:10:23Z</time>
      </trkpt>
      <trkpt lat="48.61056" lon="1.66856">
        <ele>147</ele>
        <time>2010-05-15T08:10:24Z</time>
      </trkpt>
      <trkpt lat="48.61057" lon="1.66857">
        <ele>147</ele>
        <time>2010-05-15T08:10:25Z</time>
      </trkpt>
      <trkpt lat="48.61058" lon="1.66859">
        <ele>146</ele>
        <time>2010-05-15T08:10:26Z</time>
      </trkpt>
      <trkpt lat="48.61059" lon="1.66861">
        <ele>146</ele>
        <time>2010-05-15T08:10:27Z</time>
      </trkpt>
      <trkpt lat="48.6106" lon="1.66863">
        <ele>146</ele>
        <time>2010-05-15T08:10:28Z</time>
      </trkpt>
      <trkpt lat="48.61062" lon="1.66866">
        <ele>145</ele>
        <time>2010-05-15T08:10:30Z</time>
      </trkpt>
      <trkpt lat="48.61063" lon="1.66869">
        <ele>144</ele>
        <time>2010-05-15T08:10:32Z</time>
      </trkpt>
      <trkpt lat="48.61064" lon="1.66872">
        <ele>143</ele>
        <time>2010-05-15T08:10:34Z</time>
      </trkpt>
      <trkpt lat="48.61066" lon="1.66875">
        <ele>142</ele>
        <time>2010-05-15T08:10:36Z</time>
      </trkpt>
      <trkpt lat="48.61068" lon="1.66878">
        <ele>142</ele>
        <time>2010-05-15T08:10:38Z</time>
      </trkpt>
      <trkpt lat="48.61069" lon="1.6688">
        <ele>142</ele>
        <time>2010-05-15T08:10:39Z</time>
      </trkpt>
      <trkpt lat="48.61069" lon="1.66883">
        <ele>142</ele>
        <time>2010-05-15T08:10:40Z</time>
      </trkpt>
      <trkpt lat="48.6107" lon="1.66885">
        <ele>142</ele>
        <time>2010-05-15T08:10:41Z</time>
      </trkpt>
      <trkpt lat="48.61071" lon="1.66887">
        <ele>142</ele>
        <time>2010-05-15T08:10:42Z</time>
      </trkpt>
      <trkpt lat="48.61071" lon="1.66889">
        <ele>142</ele>
        <time>2010-05-15T08:10:43Z</time>
      </trkpt>
      <trkpt lat="48.61071" lon="1.66891">
        <ele>142</ele>
        <time>2010-05-15T08:10:44Z</time>
      </trkpt>
      <trkpt lat="48.61071" lon="1.66893">
        <ele>142</ele>
        <time>2010-05-15T08:10:45Z</time>
      </trkpt>
      <trkpt lat="48.61071" lon="1.66896">
        <ele>141</ele>
        <time>2010-05-15T08:10:46Z</time>
      </trkpt>
      <trkpt lat="48.61071" lon="1.66898">
        <ele>141</ele>
        <time>2010-05-15T08:10:47Z</time>
      </trkpt>
      <trkpt lat="48.6107" lon="1.66899">
        <ele>141</ele>
        <time>2010-05-15T08:10:48Z</time>
      </trkpt>
      <trkpt lat="48.61069" lon="1.66901">
        <ele>141</ele>
        <time>2010-05-15T08:10:49Z</time>
      </trkpt>
      <trkpt lat="48.61067" lon="1.66904">
        <ele>140</ele>
        <time>2010-05-15T08:10:51Z</time>
      </trkpt>
      <trkpt lat="48.61066" lon="1.66906">
        <ele>140</ele>
        <time>2010-05-15T08:10:52Z</time>
      </trkpt>
      <trkpt lat="48.61064" lon="1.66909">
        <ele>139</ele>
        <time>2010-05-15T08:10:54Z</time>
      </trkpt>
      <trkpt lat="48.61062" lon="1.66911">
        <ele>138</ele>
        <time>2010-05-15T08:10:56Z</time>
      </trkpt>
      <trkpt lat="48.61061" lon="1.66913">
        <ele>138</ele>
        <time>2010-05-15T08:10:57Z</time>
      </trkpt>
      <trkpt lat="48.6106" lon="1.66915">
        <ele>138</ele>
        <time>2010-05-15T08:10:58Z</time>
      </trkpt>
      <trkpt lat="48.61059" lon="1.66917">
        <ele>138</ele>
        <time>2010-05-15T08:10:59Z</time>
      </trkpt>
      <trkpt lat="48.61058" lon="1.66919">
        <ele>138</ele>
        <time>2010-05-15T08:11:00Z</time>
      </trkpt>
      <trkpt lat="48.61057" lon="1.66921">
        <ele>138</ele>
        <time>2010-05-15T08:11:01Z</time>
      </trkpt>
      <trkpt lat="48.61056" lon="1.66923">
        <ele>138</ele>
        <time>2010-05-15T08:11:02Z</time>
      </trkpt>
      <trkpt lat="48.61055" lon="1.66925">
        <ele>138</ele>
        <time>2010-05-15T08:11:03Z</time>
      </trkpt>
      <trkpt lat="48.61054" lon="1.66927">
        <ele>138</ele>
        <time>2010-05-15T08:11:04Z</time>
      </trkpt>
      <trkpt lat="48.61052" lon="1.66929">
        <ele>138</ele>
        <time>2010-05-15T08:11:05Z</time>
      </trkpt>
      <trkpt lat="48.61051" lon="1.66931">
        <ele>138</ele>
        <time>2010-05-15T08:11:06Z</time>
      </trkpt>
      <trkpt lat="48.6105" lon="1.66933">
        <ele>138</ele>
        <time>2010-05-15T08:11:07Z</time>
      </trkpt>
      <trkpt lat="48.61049" lon="1.66935">
        <ele>138</ele>
        <time>2010-05-15T08:11:08Z</time>
      </trkpt>
      <trkpt lat="48.61048" lon="1.66937">
        <ele>138</ele>
        <time>2010-05-15T08:11:09Z</time>
      </trkpt>
      <trkpt lat="48.61047" lon="1.6694">
        <ele>138</ele>
        <time>2010-05-15T08:11:10Z</time>
      </trkpt>
      <trkpt lat="48.61046" lon="1.66942">
        <ele>138</ele>
        <time>2010-05-15T08:11:11Z</time>
      </trkpt>
      <trkpt lat="48.61046" lon="1.66944">
        <ele>137</ele>
        <time>2010-05-15T08:11:12Z</time>
      </trkpt>
      <trkpt lat="48.61045" lon="1.66946">
        <ele>137</ele>
        <time>2010-05-15T08:11:13Z</time>
      </trkpt>
      <trkpt lat="48.61044" lon="1.66948">
        <ele>137</ele>
        <time>2010-05-15T08:11:14Z</time>
      </trkpt>
      <trkpt lat="48.61043" lon="1.66952">
        <ele>136</ele>
        <time>2010-05-15T08:11:16Z</time>
      </trkpt>
      <trkpt lat="48.61042" lon="1.66954">
        <ele>136</ele>
        <time>2010-05-15T08:11:17Z</time>
      </trkpt>
      <trkpt lat="48.61042" lon="1.66956">
        <ele>136</ele>
        <time>2010-05-15T08:11:18Z</time>
      </trkpt>
      <trkpt lat="48.61041" lon="1.66959">
        <ele>136</ele>
        <time>2010-05-15T08:11:19Z</time>
      </trkpt>
      <trkpt lat="48.61041" lon="1.66961">
        <ele>136</ele>
        <time>2010-05-15T08:11:20Z</time>
      </trkpt>
      <trkpt lat="48.6104" lon="1.66963">
        <ele>136</ele>
        <time>2010-05-15T08:11:21Z</time>
      </trkpt>
      <trkpt lat="48.61039" lon="1.66965">
        <ele>135</ele>
        <time>2010-05-15T08:11:22Z</time>
      </trkpt>
      <trkpt lat="48.61039" lon="1.66967">
        <ele>135</ele>
        <time>2010-05-15T08:11:23Z</time>
      </trkpt>
      <trkpt lat="48.61038" lon="1.66969">
        <ele>135</ele>
        <time>2010-05-15T08:11:24Z</time>
      </trkpt>
      <trkpt lat="48.61037" lon="1.66972">
        <ele>134</ele>
        <time>2010-05-15T08:11:26Z</time>
      </trkpt>
      <trkpt lat="48.61036" lon="1.66975">
        <ele>134</ele>
        <time>2010-05-15T08:11:28Z</time>
      </trkpt>
      <trkpt lat="48.61036" lon="1.66976">
        <ele>134</ele>
        <time>2010-05-15T08:11:29Z</time>
      </trkpt>
      <trkpt lat="48.61035" lon="1.66978">
        <ele>134</ele>
        <time>2010-05-15T08:11:30Z</time>
      </trkpt>
      <trkpt lat="48.61035" lon="1.66981">
        <ele>133</ele>
        <time>2010-05-15T08:11:32Z</time>
      </trkpt>
      <trkpt lat="48.61035" lon="1.66983">
        <ele>133</ele>
        <time>2010-05-15T08:11:34Z</time>
      </trkpt>
      <trkpt lat="48.61035" lon="1.66986">
        <ele>133</ele>
        <time>2010-05-15T08:11:36Z</time>
      </trkpt>
      <trkpt lat="48.61034" lon="1.66988">
        <ele>133</ele>
        <time>2010-05-15T08:11:40Z</time>
      </trkpt>
      <trkpt lat="48.61034" lon="1.66986">
        <ele>133</ele>
        <time>2010-05-15T08:11:45Z</time>
      </trkpt>
      <trkpt lat="48.61035" lon="1.66988">
        <ele>133</ele>
        <time>2010-05-15T08:12:03Z</time>
      </trkpt>
      <trkpt lat="48.61035" lon="1.6699">
        <ele>133</ele>
        <time>2010-05-15T08:12:08Z</time>
      </trkpt>
      <trkpt lat="48.61034" lon="1.66992">
        <ele>133</ele>
        <time>2010-05-15T08:12:10Z</time>
      </trkpt>
      <trkpt lat="48.61034" lon="1.66994">
        <ele>132</ele>
        <time>2010-05-15T08:12:11Z</time>
      </trkpt>
      <trkpt lat="48.61034" lon="1.66996">
        <ele>132</ele>
        <time>2010-05-15T08:12:12Z</time>
      </trkpt>
      <trkpt lat="48.61034" lon="1.66999">
        <ele>132</ele>
        <time>2010-05-15T08:12:13Z</time>
      </trkpt>
      <trkpt lat="48.61034" lon="1.67001">
        <ele>132</ele>
        <time>2010-05-15T08:12:14Z</time>
      </trkpt>
      <trkpt lat="48.61033" lon="1.67004">
        <ele>132</ele>
        <time>2010-05-15T08:12:15Z</time>
      </trkpt>
      <trkpt lat="48.61033" lon="1.67006">
        <ele>131</ele>
        <time>2010-05-15T08:12:16Z</time>
      </trkpt>
      <trkpt lat="48.61033" lon="1.67008">
        <ele>131</ele>
        <time>2010-05-15T08:12:17Z</time>
      </trkpt>
      <trkpt lat="48.61033" lon="1.6701">
        <ele>131</ele>
        <time>2010-05-15T08:12:18Z</time>
      </trkpt>
      <trkpt lat="48.61033" lon="1.67012">
        <ele>131</ele>
        <time>2010-05-15T08:12:19Z</time>
      </trkpt>
      <trkpt lat="48.61033" lon="1.67014">
        <ele>130</ele>
        <time>2010-05-15T08:12:20Z</time>
      </trkpt>
      <trkpt lat="48.61033" lon="1.67016">
        <ele>130</ele>
        <time>2010-05-15T08:12:21Z</time>
      </trkpt>
      <trkpt lat="48.61033" lon="1.67018">
        <ele>130</ele>
        <time>2010-05-15T08:12:22Z</time>
      </trkpt>
      <trkpt lat="48.61032" lon="1.67021">
        <ele>130</ele>
        <time>2010-05-15T08:12:23Z</time>
      </trkpt>
      <trkpt lat="48.61032" lon="1.67023">
        <ele>129</ele>
        <time>2010-05-15T08:12:24Z</time>
      </trkpt>
      <trkpt lat="48.61032" lon="1.67025">
        <ele>129</ele>
        <time>2010-05-15T08:12:25Z</time>
      </trkpt>
      <trkpt lat="48.61031" lon="1.67027">
        <ele>129</ele>
        <time>2010-05-15T08:12:26Z</time>
      </trkpt>
      <trkpt lat="48.61031" lon="1.67029">
        <ele>129</ele>
        <time>2010-05-15T08:12:27Z</time>
      </trkpt>
      <trkpt lat="48.6103" lon="1.67032">
        <ele>129</ele>
        <time>2010-05-15T08:12:28Z</time>
      </trkpt>
      <trkpt lat="48.6103" lon="1.67034">
        <ele>128</ele>
        <time>2010-05-15T08:12:29Z</time>
      </trkpt>
      <trkpt lat="48.61029" lon="1.67036">
        <ele>128</ele>
        <time>2010-05-15T08:12:30Z</time>
      </trkpt>
      <trkpt lat="48.61029" lon="1.67038">
        <ele>128</ele>
        <time>2010-05-15T08:12:31Z</time>
      </trkpt>
      <trkpt lat="48.61029" lon="1.6704">
        <ele>127</ele>
        <time>2010-05-15T08:12:32Z</time>
      </trkpt>
      <trkpt lat="48.61029" lon="1.67043">
        <ele>127</ele>
        <time>2010-05-15T08:12:33Z</time>
      </trkpt>
      <trkpt lat="48.61028" lon="1.67045">
        <ele>127</ele>
        <time>2010-05-15T08:12:34Z</time>
      </trkpt>
      <trkpt lat="48.61028" lon="1.67047">
        <ele>127</ele>
        <time>2010-05-15T08:12:35Z</time>
      </trkpt>
      <trkpt lat="48.61028" lon="1.67049">
        <ele>126</ele>
        <time>2010-05-15T08:12:36Z</time>
      </trkpt>
      <trkpt lat="48.61027" lon="1.67051">
        <ele>126</ele>
        <time>2010-05-15T08:12:37Z</time>
      </trkpt>
      <trkpt lat="48.61027" lon="1.67053">
        <ele>126</ele>
        <time>2010-05-15T08:12:38Z</time>
      </trkpt>
      <trkpt lat="48.61027" lon="1.67056">
        <ele>126</ele>
        <time>2010-05-15T08:12:39Z</time>
      </trkpt>
      <trkpt lat="48.61027" lon="1.67058">
        <ele>125</ele>
        <time>2010-05-15T08:12:40Z</time>
      </trkpt>
      <trkpt lat="48.61026" lon="1.6706">
        <ele>125</ele>
        <time>2010-05-15T08:12:41Z</time>
      </trkpt>
      <trkpt lat="48.61026" lon="1.67062">
        <ele>125</ele>
        <time>2010-05-15T08:12:42Z</time>
      </trkpt>
      <trkpt lat="48.61026" lon="1.67064">
        <ele>125</ele>
        <time>2010-05-15T08:12:43Z</time>
      </trkpt>
      <trkpt lat="48.61025" lon="1.67066">
        <ele>125</ele>
        <time>2010-05-15T08:12:44Z</time>
      </trkpt>
      <trkpt lat="48.61025" lon="1.67069">
        <ele>125</ele>
        <time>2010-05-15T08:12:45Z</time>
      </trkpt>
      <trkpt lat="48.61025" lon="1.67071">
        <ele>124</ele>
        <time>2010-05-15T08:12:46Z</time>
      </trkpt>
      <trkpt lat="48.61024" lon="1.67073">
        <ele>124</ele>
        <time>2010-05-15T08:12:47Z</time>
      </trkpt>
      <trkpt lat="48.61024" lon="1.67076">
        <ele>124</ele>
        <time>2010-05-15T08:12:48Z</time>
      </trkpt>
      <trkpt lat="48.61024" lon="1.67078">
        <ele>124</ele>
        <time>2010-05-15T08:12:49Z</time>
      </trkpt>
      <trkpt lat="48.61023" lon="1.67081">
        <ele>123</ele>
        <time>2010-05-15T08:12:50Z</time>
      </trkpt>
      <trkpt lat="48.61023" lon="1.67083">
        <ele>123</ele>
        <time>2010-05-15T08:12:51Z</time>
      </trkpt>
      <trkpt lat="48.61022" lon="1.67085">
        <ele>123</ele>
        <time>2010-05-15T08:12:52Z</time>
      </trkpt>
      <trkpt lat="48.61022" lon="1.67088">
        <ele>123</ele>
        <time>2010-05-15T08:12:53Z</time>
      </trkpt>
      <trkpt lat="48.61021" lon="1.6709">
        <ele>122</ele>
        <time>2010-05-15T08:12:54Z</time>
      </trkpt>
      <trkpt lat="48.61021" lon="1.67093">
        <ele>122</ele>
        <time>2010-05-15T08:12:55Z</time>
      </trkpt>
      <trkpt lat="48.6102" lon="1.67095">
        <ele>122</ele>
        <time>2010-05-15T08:12:56Z</time>
      </trkpt>
      <trkpt lat="48.6102" lon="1.67097">
        <ele>121</ele>
        <time>2010-05-15T08:12:57Z</time>
      </trkpt>
      <trkpt lat="48.61019" lon="1.67099">
        <ele>121</ele>
        <time>2010-05-15T08:12:58Z</time>
      </trkpt>
      <trkpt lat="48.61019" lon="1.67101">
        <ele>121</ele>
        <time>2010-05-15T08:12:59Z</time>
      </trkpt>
      <trkpt lat="48.61018" lon="1.67103">
        <ele>120</ele>
        <time>2010-05-15T08:13:00Z</time>
      </trkpt>
      <trkpt lat="48.61018" lon="1.67106">
        <ele>120</ele>
        <time>2010-05-15T08:13:01Z</time>
      </trkpt>
      <trkpt lat="48.61017" lon="1.67108">
        <ele>120</ele>
        <time>2010-05-15T08:13:02Z</time>
      </trkpt>
      <trkpt lat="48.61017" lon="1.6711">
        <ele>119</ele>
        <time>2010-05-15T08:13:03Z</time>
      </trkpt>
      <trkpt lat="48.61016" lon="1.67112">
        <ele>119</ele>
        <time>2010-05-15T08:13:04Z</time>
      </trkpt>
      <trkpt lat="48.61016" lon="1.67114">
        <ele>119</ele>
        <time>2010-05-15T08:13:05Z</time>
      </trkpt>
      <trkpt lat="48.61015" lon="1.67116">
        <ele>119</ele>
        <time>2010-05-15T08:13:06Z</time>
      </trkpt>
      <trkpt lat="48.61015" lon="1.67118">
        <ele>119</ele>
        <time>2010-05-15T08:13:07Z</time>
      </trkpt>
      <trkpt lat="48.61014" lon="1.67121">
        <ele>119</ele>
        <time>2010-05-15T08:13:08Z</time>
      </trkpt>
      <trkpt lat="48.61014" lon="1.67123">
        <ele>118</ele>
        <time>2010-05-15T08:13:09Z</time>
      </trkpt>
      <trkpt lat="48.61013" lon="1.67125">
        <ele>118</ele>
        <time>2010-05-15T08:13:10Z</time>
      </trkpt>
      <trkpt lat="48.61012" lon="1.67127">
        <ele>118</ele>
        <time>2010-05-15T08:13:11Z</time>
      </trkpt>
      <trkpt lat="48.61012" lon="1.67129">
        <ele>118</ele>
        <time>2010-05-15T08:13:12Z</time>
      </trkpt>
      <trkpt lat="48.61011" lon="1.67131">
        <ele>118</ele>
        <time>2010-05-15T08:13:13Z</time>
      </trkpt>
      <trkpt lat="48.61011" lon="1.67133">
        <ele>117</ele>
        <time>2010-05-15T08:13:14Z</time>
      </trkpt>
      <trkpt lat="48.6101" lon="1.67136">
        <ele>117</ele>
        <time>2010-05-15T08:13:15Z</time>
      </trkpt>
      <trkpt lat="48.6101" lon="1.67138">
        <ele>117</ele>
        <time>2010-05-15T08:13:16Z</time>
      </trkpt>
      <trkpt lat="48.6101" lon="1.6714">
        <ele>117</ele>
        <time>2010-05-15T08:13:17Z</time>
      </trkpt>
      <trkpt lat="48.61009" lon="1.67142">
        <ele>117</ele>
        <time>2010-05-15T08:13:18Z</time>
      </trkpt>
      <trkpt lat="48.61009" lon="1.67144">
        <ele>117</ele>
        <time>2010-05-15T08:13:19Z</time>
      </trkpt>
      <trkpt lat="48.61008" lon="1.67146">
        <ele>117</ele>
        <time>2010-05-15T08:13:21Z</time>
      </trkpt>
      <trkpt lat="48.61008" lon="1.67148">
        <ele>116</ele>
        <time>2010-05-15T08:13:23Z</time>
      </trkpt>
      <trkpt lat="48.61007" lon="1.6715">
        <ele>116</ele>
        <time>2010-05-15T08:13:25Z</time>
      </trkpt>
      <trkpt lat="48.61007" lon="1.67152">
        <ele>116</ele>
        <time>2010-05-15T08:13:26Z</time>
      </trkpt>
      <trkpt lat="48.61006" lon="1.67154">
        <ele>116</ele>
        <time>2010-05-15T08:13:27Z</time>
      </trkpt>
      <trkpt lat="48.61006" lon="1.67156">
        <ele>115</ele>
        <time>2010-05-15T08:13:28Z</time>
      </trkpt>
      <trkpt lat="48.61006" lon="1.67158">
        <ele>115</ele>
        <time>2010-05-15T08:13:29Z</time>
      </trkpt>
      <trkpt lat="48.61005" lon="1.6716">
        <ele>115</ele>
        <time>2010-05-15T08:13:30Z</time>
      </trkpt>
      <trkpt lat="48.61005" lon="1.67162">
        <ele>115</ele>
        <time>2010-05-15T08:13:31Z</time>
      </trkpt>
      <trkpt lat="48.61004" lon="1.67164">
        <ele>115</ele>
        <time>2010-05-15T08:13:32Z</time>
      </trkpt>
      <trkpt lat="48.61004" lon="1.67166">
        <ele>115</ele>
        <time>2010-05-15T08:13:33Z</time>
      </trkpt>
      <trkpt lat="48.61004" lon="1.67168">
        <ele>115</ele>
        <time>2010-05-15T08:13:34Z</time>
      </trkpt>
      <trkpt lat="48.61003" lon="1.6717">
        <ele>115</ele>
        <time>2010-05-15T08:13:35Z</time>
      </trkpt>
      <trkpt lat="48.61003" lon="1.67172">
        <ele>115</ele>
        <time>2010-05-15T08:13:36Z</time>
      </trkpt>
      <trkpt lat="48.61003" lon="1.67175">
        <ele>115</ele>
        <time>2010-05-15T08:13:37Z</time>
      </trkpt>
      <trkpt lat="48.61002" lon="1.67177">
        <ele>115</ele>
        <time>2010-05-15T08:13:38Z</time>
      </trkpt>
      <trkpt lat="48.61002" lon="1.67179">
        <ele>115</ele>
        <time>2010-05-15T08:13:39Z</time>
      </trkpt>
      <trkpt lat="48.61002" lon="1.67181">
        <ele>115</ele>
        <time>2010-05-15T08:13:40Z</time>
      </trkpt>
      <trkpt lat="48.61001" lon="1.67182">
        <ele>115</ele>
        <time>2010-05-15T08:13:41Z</time>
      </trkpt>
      <trkpt lat="48.61001" lon="1.67184">
        <ele>115</ele>
        <time>2010-05-15T08:13:42Z</time>
      </trkpt>
      <trkpt lat="48.61" lon="1.67186">
        <ele>115</ele>
        <time>2010-05-15T08:13:43Z</time>
      </trkpt>
      <trkpt lat="48.61" lon="1.67188">
        <ele>115</ele>
        <time>2010-05-15T08:13:44Z</time>
      </trkpt>
      <trkpt lat="48.60999" lon="1.6719">
        <ele>115</ele>
        <time>2010-05-15T08:13:45Z</time>
      </trkpt>
      <trkpt lat="48.60999" lon="1.67192">
        <ele>115</ele>
        <time>2010-05-15T08:13:46Z</time>
      </trkpt>
      <trkpt lat="48.60998" lon="1.67194">
        <ele>115</ele>
        <time>2010-05-15T08:13:49Z</time>
      </trkpt>
      <trkpt lat="48.60998" lon="1.67196">
        <ele>115</ele>
        <time>2010-05-15T08:13:52Z</time>
      </trkpt>
      <trkpt lat="48.60997" lon="1.67198">
        <ele>115</ele>
        <time>2010-05-15T08:13:53Z</time>
      </trkpt>
      <trkpt lat="48.60996" lon="1.672">
        <ele>115</ele>
        <time>2010-05-15T08:13:54Z</time>
      </trkpt>
      <trkpt lat="48.60995" lon="1.67202">
        <ele>115</ele>
        <time>2010-05-15T08:13:55Z</time>
      </trkpt>
      <trkpt lat="48.60994" lon="1.67205">
        <ele>114</ele>
        <time>2010-05-15T08:13:57Z</time>
      </trkpt>
      <trkpt lat="48.60993" lon="1.67207">
        <ele>114</ele>
        <time>2010-05-15T08:13:59Z</time>
      </trkpt>
      <trkpt lat="48.60991" lon="1.6721">
        <ele>113</ele>
        <time>2010-05-15T08:14:01Z</time>
      </trkpt>
      <trkpt lat="48.60989" lon="1.67213">
        <ele>113</ele>
        <time>2010-05-15T08:14:03Z</time>
      </trkpt>
      <trkpt lat="48.60988" lon="1.67215">
        <ele>113</ele>
        <time>2010-05-15T08:14:04Z</time>
      </trkpt>
      <trkpt lat="48.60987" lon="1.67216">
        <ele>113</ele>
        <time>2010-05-15T08:14:05Z</time>
      </trkpt>
      <trkpt lat="48.60986" lon="1.67218">
        <ele>113</ele>
        <time>2010-05-15T08:14:06Z</time>
      </trkpt>
      <trkpt lat="48.60984" lon="1.6722">
        <ele>113</ele>
        <time>2010-05-15T08:14:07Z</time>
      </trkpt>
      <trkpt lat="48.60983" lon="1.67223">
        <ele>113</ele>
        <time>2010-05-15T08:14:08Z</time>
      </trkpt>
      <trkpt lat="48.60982" lon="1.67225">
        <ele>113</ele>
        <time>2010-05-15T08:14:09Z</time>
      </trkpt>
      <trkpt lat="48.60982" lon="1.67227">
        <ele>113</ele>
        <time>2010-05-15T08:14:10Z</time>
      </trkpt>
      <trkpt lat="48.60982" lon="1.67229">
        <ele>113</ele>
        <time>2010-05-15T08:14:11Z</time>
      </trkpt>
      <trkpt lat="48.60982" lon="1.67232">
        <ele>113</ele>
        <time>2010-05-15T08:14:12Z</time>
      </trkpt>
      <trkpt lat="48.60982" lon="1.67234">
        <ele>113</ele>
        <time>2010-05-15T08:14:13Z</time>
      </trkpt>
      <trkpt lat="48.60982" lon="1.67236">
        <ele>113</ele>
        <time>2010-05-15T08:14:14Z</time>
      </trkpt>
      <trkpt lat="48.60982" lon="1.67238">
        <ele>113</ele>
        <time>2010-05-15T08:14:15Z</time>
      </trkpt>
      <trkpt lat="48.60983" lon="1.67241">
        <ele>113</ele>
        <time>2010-05-15T08:14:16Z</time>
      </trkpt>
      <trkpt lat="48.60983" lon="1.67243">
        <ele>113</ele>
        <time>2010-05-15T08:14:17Z</time>
      </trkpt>
      <trkpt lat="48.60983" lon="1.67245">
        <ele>113</ele>
        <time>2010-05-15T08:14:18Z</time>
      </trkpt>
      <trkpt lat="48.60983" lon="1.67247">
        <ele>113</ele>
        <time>2010-05-15T08:14:19Z</time>
      </trkpt>
      <trkpt lat="48.60983" lon="1.67249">
        <ele>113</ele>
        <time>2010-05-15T08:14:20Z</time>
      </trkpt>
      <trkpt lat="48.60983" lon="1.67252">
        <ele>113</ele>
        <time>2010-05-15T08:14:21Z</time>
      </trkpt>
      <trkpt lat="48.60984" lon="1.67254">
        <ele>113</ele>
        <time>2010-05-15T08:14:22Z</time>
      </trkpt>
      <trkpt lat="48.60984" lon="1.67256">
        <ele>113</ele>
        <time>2010-05-15T08:14:23Z</time>
      </trkpt>
      <trkpt lat="48.60984" lon="1.67258">
        <ele>113</ele>
        <time>2010-05-15T08:14:24Z</time>
      </trkpt>
      <trkpt lat="48.60984" lon="1.6726">
        <ele>113</ele>
        <time>2010-05-15T08:14:25Z</time>
      </trkpt>
      <trkpt lat="48.60985" lon="1.67263">
        <ele>113</ele>
        <time>2010-05-15T08:14:26Z</time>
      </trkpt>
      <trkpt lat="48.60985" lon="1.67265">
        <ele>113</ele>
        <time>2010-05-15T08:14:27Z</time>
      </trkpt>
      <trkpt lat="48.60985" lon="1.67267">
        <ele>113</ele>
        <time>2010-05-15T08:14:28Z</time>
      </trkpt>
      <trkpt lat="48.60985" lon="1.67269">
        <ele>113</ele>
        <time>2010-05-15T08:14:29Z</time>
      </trkpt>
      <trkpt lat="48.60985" lon="1.67272">
        <ele>113</ele>
        <time>2010-05-15T08:14:30Z</time>
      </trkpt>
      <trkpt lat="48.60985" lon="1.67274">
        <ele>113</ele>
        <time>2010-05-15T08:14:31Z</time>
      </trkpt>
      <trkpt lat="48.60985" lon="1.67276">
        <ele>113</ele>
        <time>2010-05-15T08:14:32Z</time>
      </trkpt>
      <trkpt lat="48.60985" lon="1.67279">
        <ele>113</ele>
        <time>2010-05-15T08:14:33Z</time>
      </trkpt>
      <trkpt lat="48.60986" lon="1.67281">
        <ele>113</ele>
        <time>2010-05-15T08:14:34Z</time>
      </trkpt>
      <trkpt lat="48.60986" lon="1.67284">
        <ele>113</ele>
        <time>2010-05-15T08:14:35Z</time>
      </trkpt>
      <trkpt lat="48.60987" lon="1.67286">
        <ele>113</ele>
        <time>2010-05-15T08:14:36Z</time>
      </trkpt>
      <trkpt lat="48.60987" lon="1.67289">
        <ele>113</ele>
        <time>2010-05-15T08:14:37Z</time>
      </trkpt>
      <trkpt lat="48.60987" lon="1.67291">
        <ele>113</ele>
        <time>2010-05-15T08:14:38Z</time>
      </trkpt>
      <trkpt lat="48.60987" lon="1.67294">
        <ele>113</ele>
        <time>2010-05-15T08:14:39Z</time>
      </trkpt>
      <trkpt lat="48.60987" lon="1.67296">
        <ele>113</ele>
        <time>2010-05-15T08:14:40Z</time>
      </trkpt>
      <trkpt lat="48.60986" lon="1.67298">
        <ele>113</ele>
        <time>2010-05-15T08:14:41Z</time>
      </trkpt>
      <trkpt lat="48.60986" lon="1.67301">
        <ele>113</ele>
        <time>2010-05-15T08:14:42Z</time>
      </trkpt>
      <trkpt lat="48.60986" lon="1.67303">
        <ele>113</ele>
        <time>2010-05-15T08:14:43Z</time>
      </trkpt>
      <trkpt lat="48.60986" lon="1.67306">
        <ele>113</ele>
        <time>2010-05-15T08:14:44Z</time>
      </trkpt>
      <trkpt lat="48.60986" lon="1.67308">
        <ele>113</ele>
        <time>2010-05-15T08:14:45Z</time>
      </trkpt>
      <trkpt lat="48.60986" lon="1.6731">
        <ele>113</ele>
        <time>2010-05-15T08:14:46Z</time>
      </trkpt>
      <trkpt lat="48.60987" lon="1.67313">
        <ele>113</ele>
        <time>2010-05-15T08:14:47Z</time>
      </trkpt>
      <trkpt lat="48.60987" lon="1.67314">
        <ele>113</ele>
        <time>2010-05-15T08:14:48Z</time>
      </trkpt>
      <trkpt lat="48.60987" lon="1.67317">
        <ele>113</ele>
        <time>2010-05-15T08:14:49Z</time>
      </trkpt>
      <trkpt lat="48.60988" lon="1.67319">
        <ele>113</ele>
        <time>2010-05-15T08:14:50Z</time>
      </trkpt>
      <trkpt lat="48.60989" lon="1.67321">
        <ele>113</ele>
        <time>2010-05-15T08:14:51Z</time>
      </trkpt>
      <trkpt lat="48.60989" lon="1.67323">
        <ele>113</ele>
        <time>2010-05-15T08:14:52Z</time>
      </trkpt>
      <trkpt lat="48.60989" lon="1.67325">
        <ele>113</ele>
        <time>2010-05-15T08:14:53Z</time>
      </trkpt>
      <trkpt lat="48.60989" lon="1.67327">
        <ele>113</ele>
        <time>2010-05-15T08:14:54Z</time>
      </trkpt>
      <trkpt lat="48.6099" lon="1.67329">
        <ele>113</ele>
        <time>2010-05-15T08:14:55Z</time>
      </trkpt>
      <trkpt lat="48.6099" lon="1.67331">
        <ele>113</ele>
        <time>2010-05-15T08:14:56Z</time>
      </trkpt>
      <trkpt lat="48.6099" lon="1.67334">
        <ele>113</ele>
        <time>2010-05-15T08:14:57Z</time>
      </trkpt>
      <trkpt lat="48.6099" lon="1.67336">
        <ele>113</ele>
        <time>2010-05-15T08:14:58Z</time>
      </trkpt>
      <trkpt lat="48.6099" lon="1.67338">
        <ele>113</ele>
        <time>2010-05-15T08:14:59Z</time>
      </trkpt>
      <trkpt lat="48.60989" lon="1.6734">
        <ele>113</ele>
        <time>2010-05-15T08:15:00Z</time>
      </trkpt>
      <trkpt lat="48.60989" lon="1.67342">
        <ele>113</ele>
        <time>2010-05-15T08:15:01Z</time>
      </trkpt>
      <trkpt lat="48.60989" lon="1.67344">
        <ele>113</ele>
        <time>2010-05-15T08:15:02Z</time>
      </trkpt>
      <trkpt lat="48.60989" lon="1.67346">
        <ele>113</ele>
        <time>2010-05-15T08:15:03Z</time>
      </trkpt>
      <trkpt lat="48.6099" lon="1.67349">
        <ele>113</ele>
        <time>2010-05-15T08:15:04Z</time>
      </trkpt>
      <trkpt lat="48.6099" lon="1.67352">
        <ele>113</ele>
        <time>2010-05-15T08:15:05Z</time>
      </trkpt>
      <trkpt lat="48.6099" lon="1.67354">
        <ele>113</ele>
        <time>2010-05-15T08:15:06Z</time>
      </trkpt>
      <trkpt lat="48.60991" lon="1.67357">
        <ele>113</ele>
        <time>2010-05-15T08:15:07Z</time>
      </trkpt>
      <trkpt lat="48.6099" lon="1.6736">
        <ele>113</ele>
        <time>2010-05-15T08:15:08Z</time>
      </trkpt>
      <trkpt lat="48.60991" lon="1.67363">
        <ele>113</ele>
        <time>2010-05-15T08:15:09Z</time>
      </trkpt>
      <trkpt lat="48.60991" lon="1.67365">
        <ele>113</ele>
        <time>2010-05-15T08:15:10Z</time>
      </trkpt>
      <trkpt lat="48.60991" lon="1.67367">
        <ele>113</ele>
        <time>2010-05-15T08:15:11Z</time>
      </trkpt>
      <trkpt lat="48.60991" lon="1.6737">
        <ele>113</ele>
        <time>2010-05-15T08:15:12Z</time>
      </trkpt>
      <trkpt lat="48.60991" lon="1.67372">
        <ele>113</ele>
        <time>2010-05-15T08:15:13Z</time>
      </trkpt>
      <trkpt lat="48.60991" lon="1.67374">
        <ele>113</ele>
        <time>2010-05-15T08:15:14Z</time>
      </trkpt>
      <trkpt lat="48.60992" lon="1.67376">
        <ele>113</ele>
        <time>2010-05-15T08:15:15Z</time>
      </trkpt>
      <trkpt lat="48.60992" lon="1.67378">
        <ele>113</ele>
        <time>2010-05-15T08:15:16Z</time>
      </trkpt>
      <trkpt lat="48.60991" lon="1.67381">
        <ele>113</ele>
        <time>2010-05-15T08:15:17Z</time>
      </trkpt>
      <trkpt lat="48.60991" lon="1.67383">
        <ele>113</ele>
        <time>2010-05-15T08:15:18Z</time>
      </trkpt>
      <trkpt lat="48.60991" lon="1.67385">
        <ele>113</ele>
        <time>2010-05-15T08:15:19Z</time>
      </trkpt>
      <trkpt lat="48.60991" lon="1.67387">
        <ele>113</ele>
        <time>2010-05-15T08:15:20Z</time>
      </trkpt>
      <trkpt lat="48.60991" lon="1.67389">
        <ele>113</ele>
        <time>2010-05-15T08:15:21Z</time>
      </trkpt>
      <trkpt lat="48.60992" lon="1.67392">
        <ele>113</ele>
        <time>2010-05-15T08:15:22Z</time>
      </trkpt>
      <trkpt lat="48.60992" lon="1.67394">
        <ele>113</ele>
        <time>2010-05-15T08:15:23Z</time>
      </trkpt>
      <trkpt lat="48.60992" lon="1.67396">
        <ele>113</ele>
        <time>2010-05-15T08:15:24Z</time>
      </trkpt>
      <trkpt lat="48.60992" lon="1.67398">
        <ele>113</ele>
        <time>2010-05-15T08:15:25Z</time>
      </trkpt>
      <trkpt lat="48.60992" lon="1.67401">
        <ele>113</ele>
        <time>2010-05-15T08:15:26Z</time>
      </trkpt>
      <trkpt lat="48.60991" lon="1.67403">
        <ele>113</ele>
        <time>2010-05-15T08:15:27Z</time>
      </trkpt>
      <trkpt lat="48.60991" lon="1.67405">
        <ele>113</ele>
        <time>2010-05-15T08:15:28Z</time>
      </trkpt>
      <trkpt lat="48.60991" lon="1.67407">
        <ele>113</ele>
        <time>2010-05-15T08:15:29Z</time>
      </trkpt>
      <trkpt lat="48.6099" lon="1.67409">
        <ele>113</ele>
        <time>2010-05-15T08:15:30Z</time>
      </trkpt>
      <trkpt lat="48.6099" lon="1.67412">
        <ele>113</ele>
        <time>2010-05-15T08:15:31Z</time>
      </trkpt>
      <trkpt lat="48.6099" lon="1.67414">
        <ele>113</ele>
        <time>2010-05-15T08:15:32Z</time>
      </trkpt>
      <trkpt lat="48.6099" lon="1.67416">
        <ele>113</ele>
        <time>2010-05-15T08:15:33Z</time>
      </trkpt>
      <trkpt lat="48.60991" lon="1.67418">
        <ele>113</ele>
        <time>2010-05-15T08:15:34Z</time>
      </trkpt>
      <trkpt lat="48.60992" lon="1.6742">
        <ele>113</ele>
        <time>2010-05-15T08:15:35Z</time>
      </trkpt>
      <trkpt lat="48.60992" lon="1.67422">
        <ele>113</ele>
        <time>2010-05-15T08:15:36Z</time>
      </trkpt>
      <trkpt lat="48.60993" lon="1.67425">
        <ele>113</ele>
        <time>2010-05-15T08:15:37Z</time>
      </trkpt>
      <trkpt lat="48.60993" lon="1.67427">
        <ele>113</ele>
        <time>2010-05-15T08:15:38Z</time>
      </trkpt>
      <trkpt lat="48.60993" lon="1.6743">
        <ele>113</ele>
        <time>2010-05-15T08:15:39Z</time>
      </trkpt>
      <trkpt lat="48.60993" lon="1.67432">
        <ele>113</ele>
        <time>2010-05-15T08:15:40Z</time>
      </trkpt>
      <trkpt lat="48.60992" lon="1.67435">
        <ele>113</ele>
        <time>2010-05-15T08:15:41Z</time>
      </trkpt>
      <trkpt lat="48.60992" lon="1.67437">
        <ele>113</ele>
        <time>2010-05-15T08:15:42Z</time>
      </trkpt>
      <trkpt lat="48.60992" lon="1.67439">
        <ele>113</ele>
        <time>2010-05-15T08:15:43Z</time>
      </trkpt>
      <trkpt lat="48.60992" lon="1.67441">
        <ele>113</ele>
        <time>2010-05-15T08:15:44Z</time>
      </trkpt>
      <trkpt lat="48.60992" lon="1.67443">
        <ele>113</ele>
        <time>2010-05-15T08:15:45Z</time>
      </trkpt>
      <trkpt lat="48.60992" lon="1.67445">
        <ele>113</ele>
        <time>2010-05-15T08:15:46Z</time>
      </trkpt>
      <trkpt lat="48.60992" lon="1.67447">
        <ele>113</ele>
        <time>2010-05-15T08:15:47Z</time>
      </trkpt>
      <trkpt lat="48.60993" lon="1.6745">
        <ele>113</ele>
        <time>2010-05-15T08:15:48Z</time>
      </trkpt>
      <trkpt lat="48.60994" lon="1.67452">
        <ele>113</ele>
        <time>2010-05-15T08:15:49Z</time>
      </trkpt>
      <trkpt lat="48.60994" lon="1.67454">
        <ele>113</ele>
        <time>2010-05-15T08:15:50Z</time>
      </trkpt>
      <trkpt lat="48.60995" lon="1.67457">
        <ele>113</ele>
        <time>2010-05-15T08:15:51Z</time>
      </trkpt>
      <trkpt lat="48.60995" lon="1.67459">
        <ele>113</ele>
        <time>2010-05-15T08:15:52Z</time>
      </trkpt>
      <trkpt lat="48.60996" lon="1.67462">
        <ele>113</ele>
        <time>2010-05-15T08:15:53Z</time>
      </trkpt>
      <trkpt lat="48.60996" lon="1.67464">
        <ele>113</ele>
        <time>2010-05-15T08:15:54Z</time>
      </trkpt>
      <trkpt lat="48.60996" lon="1.67466">
        <ele>113</ele>
        <time>2010-05-15T08:15:55Z</time>
      </trkpt>
      <trkpt lat="48.60997" lon="1.67469">
        <ele>113</ele>
        <time>2010-05-15T08:15:56Z</time>
      </trkpt>
      <trkpt lat="48.60997" lon="1.67471">
        <ele>113</ele>
        <time>2010-05-15T08:15:57Z</time>
      </trkpt>
      <trkpt lat="48.60998" lon="1.67474">
        <ele>113</ele>
        <time>2010-05-15T08:15:58Z</time>
      </trkpt>
      <trkpt lat="48.60998" lon="1.67476">
        <ele>113</ele>
        <time>2010-05-15T08:15:59Z</time>
      </trkpt>
      <trkpt lat="48.60998" lon="1.67478">
        <ele>113</ele>
        <time>2010-05-15T08:16:00Z</time>
      </trkpt>
      <trkpt lat="48.60998" lon="1.67481">
        <ele>114</ele>
        <time>2010-05-15T08:16:01Z</time>
      </trkpt>
      <trkpt lat="48.60998" lon="1.67483">
        <ele>114</ele>
        <time>2010-05-15T08:16:02Z</time>
      </trkpt>
      <trkpt lat="48.60998" lon="1.67485">
        <ele>114</ele>
        <time>2010-05-15T08:16:03Z</time>
      </trkpt>
      <trkpt lat="48.60997" lon="1.67487">
        <ele>114</ele>
        <time>2010-05-15T08:16:04Z</time>
      </trkpt>
      <trkpt lat="48.60997" lon="1.67489">
        <ele>114</ele>
        <time>2010-05-15T08:16:05Z</time>
      </trkpt>
      <trkpt lat="48.60997" lon="1.67492">
        <ele>114</ele>
        <time>2010-05-15T08:16:06Z</time>
      </trkpt>
      <trkpt lat="48.60996" lon="1.67494">
        <ele>114</ele>
        <time>2010-05-15T08:16:07Z</time>
      </trkpt>
      <trkpt lat="48.60995" lon="1.67496">
        <ele>114</ele>
        <time>2010-05-15T08:16:08Z</time>
      </trkpt>
      <trkpt lat="48.60994" lon="1.67498">
        <ele>114</ele>
        <time>2010-05-15T08:16:09Z</time>
      </trkpt>
      <trkpt lat="48.60993" lon="1.675">
        <ele>114</ele>
        <time>2010-05-15T08:16:10Z</time>
      </trkpt>
      <trkpt lat="48.60992" lon="1.67502">
        <ele>114</ele>
        <time>2010-05-15T08:16:11Z</time>
      </trkpt>
      <trkpt lat="48.60991" lon="1.67503">
        <ele>114</ele>
        <time>2010-05-15T08:16:12Z</time>
      </trkpt>
      <trkpt lat="48.6099" lon="1.67505">
        <ele>114</ele>
        <time>2010-05-15T08:16:13Z</time>
      </trkpt>
      <trkpt lat="48.60989" lon="1.67507">
        <ele>114</ele>
        <time>2010-05-15T08:16:14Z</time>
      </trkpt>
      <trkpt lat="48.60988" lon="1.67509">
        <ele>114</ele>
        <time>2010-05-15T08:16:15Z</time>
      </trkpt>
      <trkpt lat="48.60986" lon="1.67511">
        <ele>114</ele>
        <time>2010-05-15T08:16:16Z</time>
      </trkpt>
      <trkpt lat="48.60986" lon="1.67513">
        <ele>114</ele>
        <time>2010-05-15T08:16:17Z</time>
      </trkpt>
      <trkpt lat="48.60985" lon="1.67515">
        <ele>114</ele>
        <time>2010-05-15T08:16:18Z</time>
      </trkpt>
      <trkpt lat="48.60984" lon="1.67517">
        <ele>115</ele>
        <time>2010-05-15T08:16:19Z</time>
      </trkpt>
      <trkpt lat="48.60983" lon="1.67519">
        <ele>115</ele>
        <time>2010-05-15T08:16:20Z</time>
      </trkpt>
      <trkpt lat="48.60982" lon="1.67521">
        <ele>116</ele>
        <time>2010-05-15T08:16:21Z</time>
      </trkpt>
      <trkpt lat="48.60981" lon="1.67523">
        <ele>116</ele>
        <time>2010-05-15T08:16:22Z</time>
      </trkpt>
      <trkpt lat="48.60981" lon="1.67525">
        <ele>116</ele>
        <time>2010-05-15T08:16:23Z</time>
      </trkpt>
      <trkpt lat="48.60979" lon="1.67526">
        <ele>117</ele>
        <time>2010-05-15T08:16:24Z</time>
      </trkpt>
      <trkpt lat="48.60978" lon="1.67528">
        <ele>117</ele>
        <time>2010-05-15T08:16:25Z</time>
      </trkpt>
      <trkpt lat="48.60977" lon="1.6753">
        <ele>117</ele>
        <time>2010-05-15T08:16:26Z</time>
      </trkpt>
      <trkpt lat="48.60976" lon="1.67532">
        <ele>117</ele>
        <time>2010-05-15T08:16:27Z</time>
      </trkpt>
      <trkpt lat="48.60975" lon="1.67533">
        <ele>117</ele>
        <time>2010-05-15T08:16:28Z</time>
      </trkpt>
      <trkpt lat="48.60974" lon="1.67535">
        <ele>117</ele>
        <time>2010-05-15T08:16:29Z</time>
      </trkpt>
      <trkpt lat="48.60972" lon="1.67537">
        <ele>117</ele>
        <time>2010-05-15T08:16:30Z</time>
      </trkpt>
      <trkpt lat="48.60971" lon="1.67539">
        <ele>118</ele>
        <time>2010-05-15T08:16:31Z</time>
      </trkpt>
      <trkpt lat="48.6097" lon="1.67542">
        <ele>118</ele>
        <time>2010-05-15T08:16:32Z</time>
      </trkpt>
      <trkpt lat="48.60969" lon="1.67543">
        <ele>118</ele>
        <time>2010-05-15T08:16:33Z</time>
      </trkpt>
      <trkpt lat="48.60967" lon="1.67545">
        <ele>118</ele>
        <time>2010-05-15T08:16:34Z</time>
      </trkpt>
      <trkpt lat="48.60966" lon="1.67546">
        <ele>118</ele>
        <time>2010-05-15T08:16:35Z</time>
      </trkpt>
      <trkpt lat="48.60965" lon="1.67548">
        <ele>118</ele>
        <time>2010-05-15T08:16:36Z</time>
      </trkpt>
      <trkpt lat="48.60964" lon="1.6755">
        <ele>118</ele>
        <time>2010-05-15T08:16:37Z</time>
      </trkpt>
      <trkpt lat="48.60964" lon="1.67552">
        <ele>118</ele>
        <time>2010-05-15T08:16:38Z</time>
      </trkpt>
      <trkpt lat="48.60963" lon="1.67554">
        <ele>118</ele>
        <time>2010-05-15T08:16:39Z</time>
      </trkpt>
      <trkpt lat="48.60962" lon="1.67556">
        <ele>118</ele>
        <time>2010-05-15T08:16:41Z</time>
      </trkpt>
      <trkpt lat="48.6096" lon="1.6756">
        <ele>118</ele>
        <time>2010-05-15T08:16:43Z</time>
      </trkpt>
      <trkpt lat="48.60959" lon="1.67561">
        <ele>118</ele>
        <time>2010-05-15T08:16:44Z</time>
      </trkpt>
      <trkpt lat="48.60958" lon="1.67563">
        <ele>118</ele>
        <time>2010-05-15T08:16:45Z</time>
      </trkpt>
      <trkpt lat="48.60958" lon="1.67565">
        <ele>118</ele>
        <time>2010-05-15T08:16:46Z</time>
      </trkpt>
      <trkpt lat="48.60956" lon="1.67568">
        <ele>118</ele>
        <time>2010-05-15T08:16:48Z</time>
      </trkpt>
      <trkpt lat="48.60955" lon="1.6757">
        <ele>118</ele>
        <time>2010-05-15T08:16:49Z</time>
      </trkpt>
      <trkpt lat="48.60954" lon="1.67572">
        <ele>118</ele>
        <time>2010-05-15T08:16:50Z</time>
      </trkpt>
      <trkpt lat="48.60953" lon="1.67573">
        <ele>118</ele>
        <time>2010-05-15T08:16:51Z</time>
      </trkpt>
      <trkpt lat="48.60951" lon="1.67574">
        <ele>118</ele>
        <time>2010-05-15T08:16:52Z</time>
      </trkpt>
      <trkpt lat="48.6095" lon="1.67576">
        <ele>118</ele>
        <time>2010-05-15T08:16:53Z</time>
      </trkpt>
      <trkpt lat="48.60948" lon="1.67577">
        <ele>118</ele>
        <time>2010-05-15T08:16:54Z</time>
      </trkpt>
      <trkpt lat="48.60947" lon="1.67578">
        <ele>118</ele>
        <time>2010-05-15T08:16:55Z</time>
      </trkpt>
      <trkpt lat="48.60945" lon="1.67579">
        <ele>118</ele>
        <time>2010-05-15T08:16:56Z</time>
      </trkpt>
      <trkpt lat="48.60944" lon="1.6758">
        <ele>118</ele>
        <time>2010-05-15T08:16:57Z</time>
      </trkpt>
      <trkpt lat="48.60943" lon="1.67582">
        <ele>118</ele>
        <time>2010-05-15T08:16:58Z</time>
      </trkpt>
      <trkpt lat="48.60941" lon="1.67582">
        <ele>118</ele>
        <time>2010-05-15T08:16:59Z</time>
      </trkpt>
      <trkpt lat="48.6094" lon="1.67583">
        <ele>118</ele>
        <time>2010-05-15T08:17:00Z</time>
      </trkpt>
      <trkpt lat="48.60938" lon="1.67585">
        <ele>118</ele>
        <time>2010-05-15T08:17:02Z</time>
      </trkpt>
      <trkpt lat="48.60936" lon="1.67586">
        <ele>118</ele>
        <time>2010-05-15T08:17:03Z</time>
      </trkpt>
      <trkpt lat="48.60935" lon="1.67587">
        <ele>119</ele>
        <time>2010-05-15T08:17:04Z</time>
      </trkpt>
      <trkpt lat="48.60933" lon="1.67588">
        <ele>119</ele>
        <time>2010-05-15T08:17:05Z</time>
      </trkpt>
      <trkpt lat="48.60932" lon="1.67588">
        <ele>119</ele>
        <time>2010-05-15T08:17:06Z</time>
      </trkpt>
      <trkpt lat="48.60931" lon="1.67589">
        <ele>120</ele>
        <time>2010-05-15T08:17:07Z</time>
      </trkpt>
      <trkpt lat="48.60929" lon="1.6759">
        <ele>120</ele>
        <time>2010-05-15T08:17:08Z</time>
      </trkpt>
      <trkpt lat="48.60928" lon="1.6759">
        <ele>120</ele>
        <time>2010-05-15T08:17:09Z</time>
      </trkpt>
      <trkpt lat="48.60926" lon="1.67593">
        <ele>120</ele>
        <time>2010-05-15T08:17:11Z</time>
      </trkpt>
      <trkpt lat="48.60924" lon="1.67596">
        <ele>120</ele>
        <time>2010-05-15T08:17:13Z</time>
      </trkpt>
      <trkpt lat="48.60922" lon="1.67598">
        <ele>121</ele>
        <time>2010-05-15T08:17:15Z</time>
      </trkpt>
      <trkpt lat="48.60921" lon="1.67601">
        <ele>122</ele>
        <time>2010-05-15T08:17:17Z</time>
      </trkpt>
      <trkpt lat="48.60919" lon="1.67604">
        <ele>122</ele>
        <time>2010-05-15T08:17:19Z</time>
      </trkpt>
      <trkpt lat="48.60918" lon="1.67606">
        <ele>122</ele>
        <time>2010-05-15T08:17:20Z</time>
      </trkpt>
      <trkpt lat="48.60917" lon="1.67607">
        <ele>123</ele>
        <time>2010-05-15T08:17:21Z</time>
      </trkpt>
      <trkpt lat="48.60917" lon="1.67609">
        <ele>123</ele>
        <time>2010-05-15T08:17:22Z</time>
      </trkpt>
      <trkpt lat="48.60916" lon="1.67611">
        <ele>123</ele>
        <time>2010-05-15T08:17:23Z</time>
      </trkpt>
      <trkpt lat="48.60915" lon="1.67613">
        <ele>124</ele>
        <time>2010-05-15T08:17:24Z</time>
      </trkpt>
      <trkpt lat="48.60915" lon="1.67615">
        <ele>124</ele>
        <time>2010-05-15T08:17:25Z</time>
      </trkpt>
      <trkpt lat="48.60914" lon="1.67617">
        <ele>124</ele>
        <time>2010-05-15T08:17:26Z</time>
      </trkpt>
      <trkpt lat="48.60914" lon="1.67619">
        <ele>124</ele>
        <time>2010-05-15T08:17:27Z</time>
      </trkpt>
      <trkpt lat="48.60913" lon="1.67621">
        <ele>124</ele>
        <time>2010-05-15T08:17:28Z</time>
      </trkpt>
      <trkpt lat="48.60913" lon="1.67624">
        <ele>124</ele>
        <time>2010-05-15T08:17:29Z</time>
      </trkpt>
      <trkpt lat="48.60912" lon="1.67626">
        <ele>125</ele>
        <time>2010-05-15T08:17:30Z</time>
      </trkpt>
      <trkpt lat="48.60912" lon="1.67628">
        <ele>125</ele>
        <time>2010-05-15T08:17:31Z</time>
      </trkpt>
      <trkpt lat="48.60911" lon="1.67631">
        <ele>125</ele>
        <time>2010-05-15T08:17:33Z</time>
      </trkpt>
      <trkpt lat="48.6091" lon="1.67632">
        <ele>125</ele>
        <time>2010-05-15T08:17:34Z</time>
      </trkpt>
      <trkpt lat="48.60909" lon="1.67634">
        <ele>125</ele>
        <time>2010-05-15T08:17:35Z</time>
      </trkpt>
      <trkpt lat="48.60908" lon="1.67636">
        <ele>125</ele>
        <time>2010-05-15T08:17:36Z</time>
      </trkpt>
      <trkpt lat="48.60908" lon="1.67638">
        <ele>125</ele>
        <time>2010-05-15T08:17:37Z</time>
      </trkpt>
      <trkpt lat="48.60908" lon="1.67641">
        <ele>125</ele>
        <time>2010-05-15T08:17:38Z</time>
      </trkpt>
      <trkpt lat="48.60907" lon="1.67643">
        <ele>125</ele>
        <time>2010-05-15T08:17:39Z</time>
      </trkpt>
      <trkpt lat="48.60907" lon="1.67645">
        <ele>125</ele>
        <time>2010-05-15T08:17:40Z</time>
      </trkpt>
      <trkpt lat="48.60907" lon="1.67648">
        <ele>125</ele>
        <time>2010-05-15T08:17:41Z</time>
      </trkpt>
      <trkpt lat="48.60907" lon="1.6765">
        <ele>125</ele>
        <time>2010-05-15T08:17:42Z</time>
      </trkpt>
      <trkpt lat="48.60907" lon="1.67652">
        <ele>125</ele>
        <time>2010-05-15T08:17:43Z</time>
      </trkpt>
      <trkpt lat="48.60907" lon="1.67654">
        <ele>125</ele>
        <time>2010-05-15T08:17:44Z</time>
      </trkpt>
      <trkpt lat="48.60907" lon="1.67657">
        <ele>125</ele>
        <time>2010-05-15T08:17:45Z</time>
      </trkpt>
      <trkpt lat="48.60907" lon="1.67659">
        <ele>126</ele>
        <time>2010-05-15T08:17:46Z</time>
      </trkpt>
      <trkpt lat="48.60907" lon="1.67661">
        <ele>126</ele>
        <time>2010-05-15T08:17:47Z</time>
      </trkpt>
      <trkpt lat="48.60907" lon="1.67663">
        <ele>126</ele>
        <time>2010-05-15T08:17:48Z</time>
      </trkpt>
      <trkpt lat="48.60907" lon="1.67664">
        <ele>126</ele>
        <time>2010-05-15T08:17:49Z</time>
      </trkpt>
      <trkpt lat="48.60906" lon="1.67666">
        <ele>126</ele>
        <time>2010-05-15T08:17:50Z</time>
      </trkpt>
      <trkpt lat="48.60906" lon="1.67668">
        <ele>126</ele>
        <time>2010-05-15T08:17:51Z</time>
      </trkpt>
      <trkpt lat="48.60906" lon="1.6767">
        <ele>126</ele>
        <time>2010-05-15T08:17:52Z</time>
      </trkpt>
      <trkpt lat="48.60906" lon="1.67672">
        <ele>126</ele>
        <time>2010-05-15T08:17:53Z</time>
      </trkpt>
      <trkpt lat="48.60906" lon="1.67675">
        <ele>126</ele>
        <time>2010-05-15T08:17:54Z</time>
      </trkpt>
      <trkpt lat="48.60906" lon="1.67677">
        <ele>126</ele>
        <time>2010-05-15T08:17:55Z</time>
      </trkpt>
      <trkpt lat="48.60907" lon="1.67679">
        <ele>126</ele>
        <time>2010-05-15T08:17:56Z</time>
      </trkpt>
      <trkpt lat="48.60907" lon="1.67682">
        <ele>126</ele>
        <time>2010-05-15T08:17:57Z</time>
      </trkpt>
      <trkpt lat="48.60907" lon="1.67684">
        <ele>126</ele>
        <time>2010-05-15T08:17:58Z</time>
      </trkpt>
      <trkpt lat="48.60907" lon="1.67687">
        <ele>126</ele>
        <time>2010-05-15T08:17:59Z</time>
      </trkpt>
      <trkpt lat="48.60907" lon="1.67689">
        <ele>126</ele>
        <time>2010-05-15T08:18:00Z</time>
      </trkpt>
      <trkpt lat="48.60907" lon="1.67691">
        <ele>126</ele>
        <time>2010-05-15T08:18:01Z</time>
      </trkpt>
      <trkpt lat="48.60908" lon="1.67693">
        <ele>127</ele>
        <time>2010-05-15T08:18:02Z</time>
      </trkpt>
      <trkpt lat="48.60908" lon="1.67696">
        <ele>127</ele>
        <time>2010-05-15T08:18:03Z</time>
      </trkpt>
      <trkpt lat="48.60909" lon="1.67698">
        <ele>128</ele>
        <time>2010-05-15T08:18:04Z</time>
      </trkpt>
      <trkpt lat="48.60909" lon="1.67701">
        <ele>128</ele>
        <time>2010-05-15T08:18:05Z</time>
      </trkpt>
      <trkpt lat="48.60909" lon="1.67703">
        <ele>129</ele>
        <time>2010-05-15T08:18:06Z</time>
      </trkpt>
      <trkpt lat="48.60909" lon="1.67705">
        <ele>130</ele>
        <time>2010-05-15T08:18:07Z</time>
      </trkpt>
      <trkpt lat="48.60909" lon="1.67707">
        <ele>130</ele>
        <time>2010-05-15T08:18:08Z</time>
      </trkpt>
      <trkpt lat="48.6091" lon="1.67709">
        <ele>130</ele>
        <time>2010-05-15T08:18:09Z</time>
      </trkpt>
      <trkpt lat="48.60911" lon="1.67711">
        <ele>130</ele>
        <time>2010-05-15T08:18:10Z</time>
      </trkpt>
      <trkpt lat="48.60911" lon="1.67713">
        <ele>131</ele>
        <time>2010-05-15T08:18:11Z</time>
      </trkpt>
      <trkpt lat="48.60912" lon="1.67715">
        <ele>131</ele>
        <time>2010-05-15T08:18:12Z</time>
      </trkpt>
      <trkpt lat="48.60913" lon="1.67716">
        <ele>131</ele>
        <time>2010-05-15T08:18:13Z</time>
      </trkpt>
      <trkpt lat="48.60913" lon="1.67718">
        <ele>131</ele>
        <time>2010-05-15T08:18:15Z</time>
      </trkpt>
      <trkpt lat="48.60914" lon="1.6772">
        <ele>131</ele>
        <time>2010-05-15T08:18:17Z</time>
      </trkpt>
      <trkpt lat="48.60916" lon="1.67723">
        <ele>131</ele>
        <time>2010-05-15T08:18:19Z</time>
      </trkpt>
      <trkpt lat="48.60917" lon="1.67725">
        <ele>131</ele>
        <time>2010-05-15T08:18:21Z</time>
      </trkpt>
      <trkpt lat="48.60919" lon="1.67726">
        <ele>131</ele>
        <time>2010-05-15T08:18:23Z</time>
      </trkpt>
      <trkpt lat="48.6092" lon="1.67728">
        <ele>130</ele>
        <time>2010-05-15T08:18:25Z</time>
      </trkpt>
      <trkpt lat="48.60921" lon="1.6773">
        <ele>129</ele>
        <time>2010-05-15T08:18:27Z</time>
      </trkpt>
      <trkpt lat="48.60923" lon="1.67732">
        <ele>128</ele>
        <time>2010-05-15T08:18:29Z</time>
      </trkpt>
      <trkpt lat="48.60924" lon="1.67733">
        <ele>128</ele>
        <time>2010-05-15T08:18:30Z</time>
      </trkpt>
      <trkpt lat="48.60925" lon="1.67734">
        <ele>128</ele>
        <time>2010-05-15T08:18:32Z</time>
      </trkpt>
      <trkpt lat="48.60927" lon="1.67735">
        <ele>128</ele>
        <time>2010-05-15T08:18:34Z</time>
      </trkpt>
      <trkpt lat="48.60928" lon="1.67736">
        <ele>128</ele>
        <time>2010-05-15T08:18:38Z</time>
      </trkpt>
      <trkpt lat="48.6093" lon="1.67738">
        <ele>128</ele>
        <time>2010-05-15T08:18:40Z</time>
      </trkpt>
      <trkpt lat="48.60931" lon="1.6774">
        <ele>128</ele>
        <time>2010-05-15T08:18:41Z</time>
      </trkpt>
      <trkpt lat="48.60931" lon="1.67742">
        <ele>128</ele>
        <time>2010-05-15T08:18:42Z</time>
      </trkpt>
      <trkpt lat="48.60932" lon="1.67744">
        <ele>128</ele>
        <time>2010-05-15T08:18:43Z</time>
      </trkpt>
      <trkpt lat="48.60932" lon="1.67745">
        <ele>128</ele>
        <time>2010-05-15T08:18:44Z</time>
      </trkpt>
      <trkpt lat="48.60932" lon="1.67748">
        <ele>128</ele>
        <time>2010-05-15T08:18:45Z</time>
      </trkpt>
      <trkpt lat="48.60933" lon="1.6775">
        <ele>128</ele>
        <time>2010-05-15T08:18:46Z</time>
      </trkpt>
      <trkpt lat="48.60933" lon="1.67752">
        <ele>127</ele>
        <time>2010-05-15T08:18:47Z</time>
      </trkpt>
      <trkpt lat="48.60933" lon="1.67754">
        <ele>127</ele>
        <time>2010-05-15T08:18:48Z</time>
      </trkpt>
      <trkpt lat="48.60933" lon="1.67756">
        <ele>126</ele>
        <time>2010-05-15T08:18:49Z</time>
      </trkpt>
      <trkpt lat="48.60934" lon="1.67758">
        <ele>126</ele>
        <time>2010-05-15T08:18:50Z</time>
      </trkpt>
      <trkpt lat="48.60934" lon="1.67761">
        <ele>126</ele>
        <time>2010-05-15T08:18:51Z</time>
      </trkpt>
      <trkpt lat="48.60934" lon="1.67763">
        <ele>126</ele>
        <time>2010-05-15T08:18:52Z</time>
      </trkpt>
      <trkpt lat="48.60934" lon="1.67765">
        <ele>126</ele>
        <time>2010-05-15T08:18:53Z</time>
      </trkpt>
      <trkpt lat="48.60935" lon="1.67767">
        <ele>126</ele>
        <time>2010-05-15T08:18:54Z</time>
      </trkpt>
      <trkpt lat="48.60936" lon="1.6777">
        <ele>126</ele>
        <time>2010-05-15T08:18:55Z</time>
      </trkpt>
      <trkpt lat="48.60936" lon="1.67772">
        <ele>126</ele>
        <time>2010-05-15T08:18:56Z</time>
      </trkpt>
      <trkpt lat="48.60936" lon="1.67774">
        <ele>126</ele>
        <time>2010-05-15T08:18:57Z</time>
      </trkpt>
      <trkpt lat="48.60936" lon="1.67776">
        <ele>126</ele>
        <time>2010-05-15T08:18:58Z</time>
      </trkpt>
      <trkpt lat="48.60936" lon="1.67778">
        <ele>126</ele>
        <time>2010-05-15T08:18:59Z</time>
      </trkpt>
      <trkpt lat="48.60936" lon="1.6778">
        <ele>126</ele>
        <time>2010-05-15T08:19:00Z</time>
      </trkpt>
      <trkpt lat="48.60936" lon="1.67783">
        <ele>126</ele>
        <time>2010-05-15T08:19:01Z</time>
      </trkpt>
      <trkpt lat="48.60937" lon="1.67785">
        <ele>126</ele>
        <time>2010-05-15T08:19:02Z</time>
      </trkpt>
      <trkpt lat="48.60937" lon="1.67787">
        <ele>126</ele>
        <time>2010-05-15T08:19:03Z</time>
      </trkpt>
      <trkpt lat="48.60938" lon="1.6779">
        <ele>126</ele>
        <time>2010-05-15T08:19:04Z</time>
      </trkpt>
      <trkpt lat="48.60939" lon="1.67792">
        <ele>126</ele>
        <time>2010-05-15T08:19:05Z</time>
      </trkpt>
      <trkpt lat="48.60939" lon="1.67794">
        <ele>126</ele>
        <time>2010-05-15T08:19:06Z</time>
      </trkpt>
      <trkpt lat="48.6094" lon="1.67796">
        <ele>126</ele>
        <time>2010-05-15T08:19:07Z</time>
      </trkpt>
      <trkpt lat="48.60941" lon="1.67798">
        <ele>126</ele>
        <time>2010-05-15T08:19:08Z</time>
      </trkpt>
      <trkpt lat="48.60942" lon="1.678">
        <ele>125</ele>
        <time>2010-05-15T08:19:09Z</time>
      </trkpt>
      <trkpt lat="48.60942" lon="1.67802">
        <ele>125</ele>
        <time>2010-05-15T08:19:10Z</time>
      </trkpt>
      <trkpt lat="48.60943" lon="1.67804">
        <ele>125</ele>
        <time>2010-05-15T08:19:11Z</time>
      </trkpt>
      <trkpt lat="48.60944" lon="1.67806">
        <ele>125</ele>
        <time>2010-05-15T08:19:12Z</time>
      </trkpt>
      <trkpt lat="48.60946" lon="1.67808">
        <ele>125</ele>
        <time>2010-05-15T08:19:13Z</time>
      </trkpt>
      <trkpt lat="48.60946" lon="1.6781">
        <ele>125</ele>
        <time>2010-05-15T08:19:14Z</time>
      </trkpt>
      <trkpt lat="48.60946" lon="1.67812">
        <ele>125</ele>
        <time>2010-05-15T08:19:15Z</time>
      </trkpt>
      <trkpt lat="48.60946" lon="1.67815">
        <ele>125</ele>
        <time>2010-05-15T08:19:16Z</time>
      </trkpt>
      <trkpt lat="48.60946" lon="1.67817">
        <ele>125</ele>
        <time>2010-05-15T08:19:17Z</time>
      </trkpt>
      <trkpt lat="48.60946" lon="1.6782">
        <ele>125</ele>
        <time>2010-05-15T08:19:18Z</time>
      </trkpt>
      <trkpt lat="48.60947" lon="1.67822">
        <ele>125</ele>
        <time>2010-05-15T08:19:19Z</time>
      </trkpt>
      <trkpt lat="48.60946" lon="1.67824">
        <ele>125</ele>
        <time>2010-05-15T08:19:20Z</time>
      </trkpt>
      <trkpt lat="48.60946" lon="1.67827">
        <ele>125</ele>
        <time>2010-05-15T08:19:21Z</time>
      </trkpt>
      <trkpt lat="48.60946" lon="1.67829">
        <ele>125</ele>
        <time>2010-05-15T08:19:22Z</time>
      </trkpt>
      <trkpt lat="48.60946" lon="1.67831">
        <ele>125</ele>
        <time>2010-05-15T08:19:23Z</time>
      </trkpt>
      <trkpt lat="48.60947" lon="1.67834">
        <ele>125</ele>
        <time>2010-05-15T08:19:24Z</time>
      </trkpt>
      <trkpt lat="48.60947" lon="1.67836">
        <ele>125</ele>
        <time>2010-05-15T08:19:25Z</time>
      </trkpt>
      <trkpt lat="48.60947" lon="1.67838">
        <ele>125</ele>
        <time>2010-05-15T08:19:26Z</time>
      </trkpt>
      <trkpt lat="48.60947" lon="1.67841">
        <ele>125</ele>
        <time>2010-05-15T08:19:27Z</time>
      </trkpt>
      <trkpt lat="48.60947" lon="1.67844">
        <ele>125</ele>
        <time>2010-05-15T08:19:28Z</time>
      </trkpt>
      <trkpt lat="48.60948" lon="1.67847">
        <ele>125</ele>
        <time>2010-05-15T08:19:29Z</time>
      </trkpt>
      <trkpt lat="48.60948" lon="1.67849">
        <ele>125</ele>
        <time>2010-05-15T08:19:30Z</time>
      </trkpt>
      <trkpt lat="48.60949" lon="1.67852">
        <ele>125</ele>
        <time>2010-05-15T08:19:31Z</time>
      </trkpt>
      <trkpt lat="48.60949" lon="1.67854">
        <ele>125</ele>
        <time>2010-05-15T08:19:32Z</time>
      </trkpt>
      <trkpt lat="48.60949" lon="1.67856">
        <ele>125</ele>
        <time>2010-05-15T08:19:33Z</time>
      </trkpt>
      <trkpt lat="48.6095" lon="1.67858">
        <ele>125</ele>
        <time>2010-05-15T08:19:34Z</time>
      </trkpt>
      <trkpt lat="48.6095" lon="1.67861">
        <ele>125</ele>
        <time>2010-05-15T08:19:35Z</time>
      </trkpt>
      <trkpt lat="48.60951" lon="1.67863">
        <ele>125</ele>
        <time>2010-05-15T08:19:36Z</time>
      </trkpt>
      <trkpt lat="48.60952" lon="1.67865">
        <ele>125</ele>
        <time>2010-05-15T08:19:37Z</time>
      </trkpt>
      <trkpt lat="48.60953" lon="1.67867">
        <ele>125</ele>
        <time>2010-05-15T08:19:38Z</time>
      </trkpt>
      <trkpt lat="48.60953" lon="1.67869">
        <ele>125</ele>
        <time>2010-05-15T08:19:39Z</time>
      </trkpt>
      <trkpt lat="48.60953" lon="1.67871">
        <ele>125</ele>
        <time>2010-05-15T08:19:40Z</time>
      </trkpt>
      <trkpt lat="48.60954" lon="1.67873">
        <ele>125</ele>
        <time>2010-05-15T08:19:41Z</time>
      </trkpt>
      <trkpt lat="48.60955" lon="1.67875">
        <ele>125</ele>
        <time>2010-05-15T08:19:45Z</time>
      </trkpt>
      <trkpt lat="48.60956" lon="1.67878">
        <ele>125</ele>
        <time>2010-05-15T08:19:47Z</time>
      </trkpt>
      <trkpt lat="48.60957" lon="1.6788">
        <ele>125</ele>
        <time>2010-05-15T08:19:48Z</time>
      </trkpt>
      <trkpt lat="48.60958" lon="1.67882">
        <ele>125</ele>
        <time>2010-05-15T08:19:50Z</time>
      </trkpt>
      <trkpt lat="48.60959" lon="1.67883">
        <ele>125</ele>
        <time>2010-05-15T08:19:51Z</time>
      </trkpt>
      <trkpt lat="48.60961" lon="1.67884">
        <ele>125</ele>
        <time>2010-05-15T08:19:52Z</time>
      </trkpt>
      <trkpt lat="48.60962" lon="1.67885">
        <ele>125</ele>
        <time>2010-05-15T08:19:53Z</time>
      </trkpt>
      <trkpt lat="48.60963" lon="1.67886">
        <ele>125</ele>
        <time>2010-05-15T08:19:55Z</time>
      </trkpt>
      <trkpt lat="48.60965" lon="1.67887">
        <ele>125</ele>
        <time>2010-05-15T08:19:57Z</time>
      </trkpt>
      <trkpt lat="48.60967" lon="1.67889">
        <ele>125</ele>
        <time>2010-05-15T08:19:59Z</time>
      </trkpt>
      <trkpt lat="48.60968" lon="1.67891">
        <ele>125</ele>
        <time>2010-05-15T08:20:01Z</time>
      </trkpt>
      <trkpt lat="48.60969" lon="1.67894">
        <ele>125</ele>
        <time>2010-05-15T08:20:03Z</time>
      </trkpt>
      <trkpt lat="48.60971" lon="1.67896">
        <ele>125</ele>
        <time>2010-05-15T08:20:04Z</time>
      </trkpt>
      <trkpt lat="48.60972" lon="1.67897">
        <ele>125</ele>
        <time>2010-05-15T08:20:05Z</time>
      </trkpt>
      <trkpt lat="48.60973" lon="1.67899">
        <ele>125</ele>
        <time>2010-05-15T08:20:06Z</time>
      </trkpt>
      <trkpt lat="48.60974" lon="1.679">
        <ele>125</ele>
        <time>2010-05-15T08:20:07Z</time>
      </trkpt>
      <trkpt lat="48.60975" lon="1.67902">
        <ele>125</ele>
        <time>2010-05-15T08:20:08Z</time>
      </trkpt>
      <trkpt lat="48.60975" lon="1.67904">
        <ele>125</ele>
        <time>2010-05-15T08:20:09Z</time>
      </trkpt>
      <trkpt lat="48.60976" lon="1.67906">
        <ele>125</ele>
        <time>2010-05-15T08:20:10Z</time>
      </trkpt>
      <trkpt lat="48.60976" lon="1.67908">
        <ele>125</ele>
        <time>2010-05-15T08:20:11Z</time>
      </trkpt>
      <trkpt lat="48.60976" lon="1.6791">
        <ele>125</ele>
        <time>2010-05-15T08:20:12Z</time>
      </trkpt>
      <trkpt lat="48.60977" lon="1.67912">
        <ele>125</ele>
        <time>2010-05-15T08:20:13Z</time>
      </trkpt>
      <trkpt lat="48.60977" lon="1.67914">
        <ele>125</ele>
        <time>2010-05-15T08:20:14Z</time>
      </trkpt>
      <trkpt lat="48.60978" lon="1.67916">
        <ele>125</ele>
        <time>2010-05-15T08:20:15Z</time>
      </trkpt>
      <trkpt lat="48.60978" lon="1.67918">
        <ele>125</ele>
        <time>2010-05-15T08:20:16Z</time>
      </trkpt>
      <trkpt lat="48.60978" lon="1.6792">
        <ele>125</ele>
        <time>2010-05-15T08:20:17Z</time>
      </trkpt>
      <trkpt lat="48.60979" lon="1.67922">
        <ele>125</ele>
        <time>2010-05-15T08:20:18Z</time>
      </trkpt>
      <trkpt lat="48.60979" lon="1.67924">
        <ele>125</ele>
        <time>2010-05-15T08:20:19Z</time>
      </trkpt>
      <trkpt lat="48.6098" lon="1.67926">
        <ele>125</ele>
        <time>2010-05-15T08:20:20Z</time>
      </trkpt>
      <trkpt lat="48.6098" lon="1.67929">
        <ele>125</ele>
        <time>2010-05-15T08:20:21Z</time>
      </trkpt>
      <trkpt lat="48.60981" lon="1.67931">
        <ele>125</ele>
        <time>2010-05-15T08:20:22Z</time>
      </trkpt>
      <trkpt lat="48.60981" lon="1.67933">
        <ele>125</ele>
        <time>2010-05-15T08:20:23Z</time>
      </trkpt>
      <trkpt lat="48.60982" lon="1.67935">
        <ele>125</ele>
        <time>2010-05-15T08:20:24Z</time>
      </trkpt>
      <trkpt lat="48.60982" lon="1.67938">
        <ele>125</ele>
        <time>2010-05-15T08:20:25Z</time>
      </trkpt>
      <trkpt lat="48.60982" lon="1.6794">
        <ele>125</ele>
        <time>2010-05-15T08:20:26Z</time>
      </trkpt>
      <trkpt lat="48.60983" lon="1.67942">
        <ele>125</ele>
        <time>2010-05-15T08:20:27Z</time>
      </trkpt>
      <trkpt lat="48.60983" lon="1.67944">
        <ele>125</ele>
        <time>2010-05-15T08:20:28Z</time>
      </trkpt>
      <trkpt lat="48.60983" lon="1.67946">
        <ele>125</ele>
        <time>2010-05-15T08:20:29Z</time>
      </trkpt>
      <trkpt lat="48.60983" lon="1.67949">
        <ele>125</ele>
        <time>2010-05-15T08:20:30Z</time>
      </trkpt>
      <trkpt lat="48.60984" lon="1.67951">
        <ele>125</ele>
        <time>2010-05-15T08:20:31Z</time>
      </trkpt>
      <trkpt lat="48.60984" lon="1.67953">
        <ele>125</ele>
        <time>2010-05-15T08:20:32Z</time>
      </trkpt>
      <trkpt lat="48.60984" lon="1.67955">
        <ele>125</ele>
        <time>2010-05-15T08:20:33Z</time>
      </trkpt>
      <trkpt lat="48.60984" lon="1.67958">
        <ele>125</ele>
        <time>2010-05-15T08:20:34Z</time>
      </trkpt>
      <trkpt lat="48.60985" lon="1.6796">
        <ele>125</ele>
        <time>2010-05-15T08:20:35Z</time>
      </trkpt>
      <trkpt lat="48.60985" lon="1.67962">
        <ele>125</ele>
        <time>2010-05-15T08:20:36Z</time>
      </trkpt>
      <trkpt lat="48.60986" lon="1.67965">
        <ele>125</ele>
        <time>2010-05-15T08:20:37Z</time>
      </trkpt>
      <trkpt lat="48.60986" lon="1.67967">
        <ele>125</ele>
        <time>2010-05-15T08:20:38Z</time>
      </trkpt>
      <trkpt lat="48.60987" lon="1.6797">
        <ele>125</ele>
        <time>2010-05-15T08:20:39Z</time>
      </trkpt>
      <trkpt lat="48.60988" lon="1.67972">
        <ele>125</ele>
        <time>2010-05-15T08:20:40Z</time>
      </trkpt>
      <trkpt lat="48.60988" lon="1.67974">
        <ele>125</ele>
        <time>2010-05-15T08:20:41Z</time>
      </trkpt>
      <trkpt lat="48.60989" lon="1.67976">
        <ele>125</ele>
        <time>2010-05-15T08:20:42Z</time>
      </trkpt>
      <trkpt lat="48.60989" lon="1.67978">
        <ele>125</ele>
        <time>2010-05-15T08:20:43Z</time>
      </trkpt>
      <trkpt lat="48.60989" lon="1.6798">
        <ele>125</ele>
        <time>2010-05-15T08:20:44Z</time>
      </trkpt>
      <trkpt lat="48.6099" lon="1.67982">
        <ele>125</ele>
        <time>2010-05-15T08:20:45Z</time>
      </trkpt>
      <trkpt lat="48.6099" lon="1.67985">
        <ele>125</ele>
        <time>2010-05-15T08:20:46Z</time>
      </trkpt>
      <trkpt lat="48.6099" lon="1.67987">
        <ele>125</ele>
        <time>2010-05-15T08:20:47Z</time>
      </trkpt>
      <trkpt lat="48.6099" lon="1.67989">
        <ele>125</ele>
        <time>2010-05-15T08:20:48Z</time>
      </trkpt>
      <trkpt lat="48.6099" lon="1.67991">
        <ele>125</ele>
        <time>2010-05-15T08:20:49Z</time>
      </trkpt>
      <trkpt lat="48.60991" lon="1.67993">
        <ele>125</ele>
        <time>2010-05-15T08:20:50Z</time>
      </trkpt>
      <trkpt lat="48.60991" lon="1.67995">
        <ele>125</ele>
        <time>2010-05-15T08:20:51Z</time>
      </trkpt>
      <trkpt lat="48.60991" lon="1.67997">
        <ele>125</ele>
        <time>2010-05-15T08:20:52Z</time>
      </trkpt>
      <trkpt lat="48.60992" lon="1.67999">
        <ele>125</ele>
        <time>2010-05-15T08:20:53Z</time>
      </trkpt>
      <trkpt lat="48.60992" lon="1.68001">
        <ele>125</ele>
        <time>2010-05-15T08:20:54Z</time>
      </trkpt>
      <trkpt lat="48.60993" lon="1.68003">
        <ele>125</ele>
        <time>2010-05-15T08:20:55Z</time>
      </trkpt>
      <trkpt lat="48.60994" lon="1.68005">
        <ele>125</ele>
        <time>2010-05-15T08:20:56Z</time>
      </trkpt>
      <trkpt lat="48.60994" lon="1.68007">
        <ele>125</ele>
        <time>2010-05-15T08:20:57Z</time>
      </trkpt>
      <trkpt lat="48.60995" lon="1.68009">
        <ele>125</ele>
        <time>2010-05-15T08:20:58Z</time>
      </trkpt>
      <trkpt lat="48.60995" lon="1.68011">
        <ele>125</ele>
        <time>2010-05-15T08:20:59Z</time>
      </trkpt>
      <trkpt lat="48.60996" lon="1.68013">
        <ele>125</ele>
        <time>2010-05-15T08:21:00Z</time>
      </trkpt>
      <trkpt lat="48.60996" lon="1.68015">
        <ele>125</ele>
        <time>2010-05-15T08:21:01Z</time>
      </trkpt>
      <trkpt lat="48.60997" lon="1.68017">
        <ele>125</ele>
        <time>2010-05-15T08:21:02Z</time>
      </trkpt>
      <trkpt lat="48.60997" lon="1.6802">
        <ele>125</ele>
        <time>2010-05-15T08:21:03Z</time>
      </trkpt>
      <trkpt lat="48.60998" lon="1.68022">
        <ele>125</ele>
        <time>2010-05-15T08:21:04Z</time>
      </trkpt>
      <trkpt lat="48.60998" lon="1.68024">
        <ele>125</ele>
        <time>2010-05-15T08:21:05Z</time>
      </trkpt>
      <trkpt lat="48.60999" lon="1.68026">
        <ele>125</ele>
        <time>2010-05-15T08:21:06Z</time>
      </trkpt>
      <trkpt lat="48.60999" lon="1.68028">
        <ele>124</ele>
        <time>2010-05-15T08:21:07Z</time>
      </trkpt>
      <trkpt lat="48.60999" lon="1.6803">
        <ele>124</ele>
        <time>2010-05-15T08:21:08Z</time>
      </trkpt>
      <trkpt lat="48.61" lon="1.68033">
        <ele>124</ele>
        <time>2010-05-15T08:21:09Z</time>
      </trkpt>
      <trkpt lat="48.61" lon="1.68035">
        <ele>124</ele>
        <time>2010-05-15T08:21:10Z</time>
      </trkpt>
      <trkpt lat="48.61001" lon="1.68037">
        <ele>124</ele>
        <time>2010-05-15T08:21:11Z</time>
      </trkpt>
      <trkpt lat="48.61002" lon="1.68039">
        <ele>124</ele>
        <time>2010-05-15T08:21:12Z</time>
      </trkpt>
      <trkpt lat="48.61002" lon="1.68041">
        <ele>124</ele>
        <time>2010-05-15T08:21:13Z</time>
      </trkpt>
      <trkpt lat="48.61003" lon="1.68043">
        <ele>124</ele>
        <time>2010-05-15T08:21:14Z</time>
      </trkpt>
      <trkpt lat="48.61004" lon="1.68045">
        <ele>124</ele>
        <time>2010-05-15T08:21:15Z</time>
      </trkpt>
      <trkpt lat="48.61004" lon="1.68047">
        <ele>124</ele>
        <time>2010-05-15T08:21:16Z</time>
      </trkpt>
      <trkpt lat="48.61004" lon="1.68049">
        <ele>124</ele>
        <time>2010-05-15T08:21:17Z</time>
      </trkpt>
      <trkpt lat="48.61005" lon="1.68051">
        <ele>124</ele>
        <time>2010-05-15T08:21:18Z</time>
      </trkpt>
      <trkpt lat="48.61006" lon="1.68054">
        <ele>124</ele>
        <time>2010-05-15T08:21:19Z</time>
      </trkpt>
      <trkpt lat="48.61007" lon="1.68056">
        <ele>124</ele>
        <time>2010-05-15T08:21:20Z</time>
      </trkpt>
      <trkpt lat="48.61008" lon="1.68058">
        <ele>124</ele>
        <time>2010-05-15T08:21:21Z</time>
      </trkpt>
      <trkpt lat="48.61009" lon="1.6806">
        <ele>124</ele>
        <time>2010-05-15T08:21:22Z</time>
      </trkpt>
      <trkpt lat="48.6101" lon="1.68062">
        <ele>124</ele>
        <time>2010-05-15T08:21:23Z</time>
      </trkpt>
      <trkpt lat="48.61011" lon="1.68064">
        <ele>124</ele>
        <time>2010-05-15T08:21:24Z</time>
      </trkpt>
      <trkpt lat="48.61011" lon="1.68066">
        <ele>124</ele>
        <time>2010-05-15T08:21:25Z</time>
      </trkpt>
      <trkpt lat="48.61012" lon="1.68068">
        <ele>124</ele>
        <time>2010-05-15T08:21:26Z</time>
      </trkpt>
      <trkpt lat="48.61013" lon="1.6807">
        <ele>124</ele>
        <time>2010-05-15T08:21:27Z</time>
      </trkpt>
      <trkpt lat="48.61014" lon="1.68072">
        <ele>124</ele>
        <time>2010-05-15T08:21:28Z</time>
      </trkpt>
      <trkpt lat="48.61014" lon="1.68074">
        <ele>124</ele>
        <time>2010-05-15T08:21:29Z</time>
      </trkpt>
      <trkpt lat="48.61015" lon="1.68076">
        <ele>124</ele>
        <time>2010-05-15T08:21:30Z</time>
      </trkpt>
      <trkpt lat="48.61016" lon="1.68078">
        <ele>124</ele>
        <time>2010-05-15T08:21:31Z</time>
      </trkpt>
      <trkpt lat="48.61016" lon="1.6808">
        <ele>124</ele>
        <time>2010-05-15T08:21:32Z</time>
      </trkpt>
      <trkpt lat="48.61017" lon="1.68082">
        <ele>124</ele>
        <time>2010-05-15T08:21:33Z</time>
      </trkpt>
      <trkpt lat="48.61018" lon="1.68084">
        <ele>124</ele>
        <time>2010-05-15T08:21:34Z</time>
      </trkpt>
      <trkpt lat="48.61019" lon="1.68086">
        <ele>124</ele>
        <time>2010-05-15T08:21:35Z</time>
      </trkpt>
      <trkpt lat="48.61019" lon="1.68088">
        <ele>123</ele>
        <time>2010-05-15T08:21:36Z</time>
      </trkpt>
      <trkpt lat="48.6102" lon="1.6809">
        <ele>123</ele>
        <time>2010-05-15T08:21:37Z</time>
      </trkpt>
      <trkpt lat="48.6102" lon="1.68092">
        <ele>123</ele>
        <time>2010-05-15T08:21:38Z</time>
      </trkpt>
      <trkpt lat="48.61021" lon="1.68094">
        <ele>123</ele>
        <time>2010-05-15T08:21:39Z</time>
      </trkpt>
      <trkpt lat="48.61021" lon="1.68096">
        <ele>123</ele>
        <time>2010-05-15T08:21:40Z</time>
      </trkpt>
      <trkpt lat="48.61022" lon="1.68099">
        <ele>123</ele>
        <time>2010-05-15T08:21:41Z</time>
      </trkpt>
      <trkpt lat="48.61022" lon="1.68101">
        <ele>123</ele>
        <time>2010-05-15T08:21:42Z</time>
      </trkpt>
      <trkpt lat="48.61023" lon="1.68103">
        <ele>123</ele>
        <time>2010-05-15T08:21:43Z</time>
      </trkpt>
      <trkpt lat="48.61023" lon="1.68105">
        <ele>123</ele>
        <time>2010-05-15T08:21:44Z</time>
      </trkpt>
      <trkpt lat="48.61023" lon="1.68107">
        <ele>122</ele>
        <time>2010-05-15T08:21:45Z</time>
      </trkpt>
      <trkpt lat="48.61024" lon="1.68109">
        <ele>122</ele>
        <time>2010-05-15T08:21:46Z</time>
      </trkpt>
      <trkpt lat="48.61024" lon="1.68111">
        <ele>122</ele>
        <time>2010-05-15T08:21:47Z</time>
      </trkpt>
      <trkpt lat="48.61025" lon="1.68113">
        <ele>122</ele>
        <time>2010-05-15T08:21:48Z</time>
      </trkpt>
      <trkpt lat="48.61026" lon="1.68115">
        <ele>122</ele>
        <time>2010-05-15T08:21:49Z</time>
      </trkpt>
      <trkpt lat="48.61026" lon="1.68117">
        <ele>122</ele>
        <time>2010-05-15T08:21:50Z</time>
      </trkpt>
      <trkpt lat="48.61027" lon="1.6812">
        <ele>122</ele>
        <time>2010-05-15T08:21:51Z</time>
      </trkpt>
      <trkpt lat="48.61028" lon="1.68122">
        <ele>122</ele>
        <time>2010-05-15T08:21:52Z</time>
      </trkpt>
      <trkpt lat="48.6103" lon="1.68124">
        <ele>122</ele>
        <time>2010-05-15T08:21:53Z</time>
      </trkpt>
      <trkpt lat="48.61031" lon="1.68126">
        <ele>122</ele>
        <time>2010-05-15T08:21:54Z</time>
      </trkpt>
      <trkpt lat="48.61032" lon="1.68128">
        <ele>122</ele>
        <time>2010-05-15T08:21:55Z</time>
      </trkpt>
      <trkpt lat="48.61032" lon="1.6813">
        <ele>122</ele>
        <time>2010-05-15T08:21:56Z</time>
      </trkpt>
      <trkpt lat="48.61033" lon="1.68132">
        <ele>122</ele>
        <time>2010-05-15T08:21:57Z</time>
      </trkpt>
      <trkpt lat="48.61034" lon="1.68134">
        <ele>122</ele>
        <time>2010-05-15T08:21:58Z</time>
      </trkpt>
      <trkpt lat="48.61034" lon="1.68136">
        <ele>122</ele>
        <time>2010-05-15T08:21:59Z</time>
      </trkpt>
      <trkpt lat="48.61035" lon="1.68138">
        <ele>122</ele>
        <time>2010-05-15T08:22:00Z</time>
      </trkpt>
      <trkpt lat="48.61036" lon="1.68139">
        <ele>122</ele>
        <time>2010-05-15T08:22:01Z</time>
      </trkpt>
      <trkpt lat="48.61037" lon="1.68141">
        <ele>122</ele>
        <time>2010-05-15T08:22:02Z</time>
      </trkpt>
      <trkpt lat="48.61038" lon="1.68143">
        <ele>122</ele>
        <time>2010-05-15T08:22:03Z</time>
      </trkpt>
      <trkpt lat="48.61039" lon="1.68145">
        <ele>122</ele>
        <time>2010-05-15T08:22:04Z</time>
      </trkpt>
      <trkpt lat="48.61039" lon="1.68147">
        <ele>122</ele>
        <time>2010-05-15T08:22:05Z</time>
      </trkpt>
      <trkpt lat="48.6104" lon="1.68149">
        <ele>122</ele>
        <time>2010-05-15T08:22:06Z</time>
      </trkpt>
      <trkpt lat="48.6104" lon="1.68151">
        <ele>122</ele>
        <time>2010-05-15T08:22:07Z</time>
      </trkpt>
      <trkpt lat="48.61041" lon="1.68152">
        <ele>122</ele>
        <time>2010-05-15T08:22:08Z</time>
      </trkpt>
      <trkpt lat="48.61042" lon="1.68154">
        <ele>122</ele>
        <time>2010-05-15T08:22:09Z</time>
      </trkpt>
      <trkpt lat="48.61042" lon="1.68157">
        <ele>122</ele>
        <time>2010-05-15T08:22:10Z</time>
      </trkpt>
      <trkpt lat="48.61043" lon="1.68159">
        <ele>122</ele>
        <time>2010-05-15T08:22:11Z</time>
      </trkpt>
      <trkpt lat="48.61044" lon="1.68161">
        <ele>122</ele>
        <time>2010-05-15T08:22:12Z</time>
      </trkpt>
      <trkpt lat="48.61045" lon="1.68163">
        <ele>122</ele>
        <time>2010-05-15T08:22:13Z</time>
      </trkpt>
      <trkpt lat="48.61045" lon="1.68165">
        <ele>122</ele>
        <time>2010-05-15T08:22:14Z</time>
      </trkpt>
      <trkpt lat="48.61046" lon="1.68167">
        <ele>122</ele>
        <time>2010-05-15T08:22:15Z</time>
      </trkpt>
      <trkpt lat="48.61046" lon="1.68169">
        <ele>122</ele>
        <time>2010-05-15T08:22:16Z</time>
      </trkpt>
      <trkpt lat="48.61047" lon="1.68171">
        <ele>122</ele>
        <time>2010-05-15T08:22:17Z</time>
      </trkpt>
      <trkpt lat="48.61048" lon="1.68173">
        <ele>121</ele>
        <time>2010-05-15T08:22:18Z</time>
      </trkpt>
      <trkpt lat="48.61048" lon="1.68175">
        <ele>121</ele>
        <time>2010-05-15T08:22:19Z</time>
      </trkpt>
      <trkpt lat="48.61049" lon="1.68177">
        <ele>121</ele>
        <time>2010-05-15T08:22:20Z</time>
      </trkpt>
      <trkpt lat="48.6105" lon="1.68179">
        <ele>121</ele>
        <time>2010-05-15T08:22:21Z</time>
      </trkpt>
      <trkpt lat="48.6105" lon="1.68181">
        <ele>121</ele>
        <time>2010-05-15T08:22:22Z</time>
      </trkpt>
      <trkpt lat="48.61051" lon="1.68183">
        <ele>121</ele>
        <time>2010-05-15T08:22:23Z</time>
      </trkpt>
      <trkpt lat="48.61051" lon="1.68185">
        <ele>121</ele>
        <time>2010-05-15T08:22:24Z</time>
      </trkpt>
      <trkpt lat="48.61052" lon="1.68187">
        <ele>121</ele>
        <time>2010-05-15T08:22:25Z</time>
      </trkpt>
      <trkpt lat="48.61052" lon="1.6819">
        <ele>121</ele>
        <time>2010-05-15T08:22:26Z</time>
      </trkpt>
      <trkpt lat="48.61053" lon="1.68192">
        <ele>121</ele>
        <time>2010-05-15T08:22:27Z</time>
      </trkpt>
      <trkpt lat="48.61053" lon="1.68194">
        <ele>121</ele>
        <time>2010-05-15T08:22:29Z</time>
      </trkpt>
      <trkpt lat="48.61054" lon="1.68196">
        <ele>121</ele>
        <time>2010-05-15T08:22:32Z</time>
      </trkpt>
      <trkpt lat="48.61055" lon="1.68199">
        <ele>121</ele>
        <time>2010-05-15T08:22:34Z</time>
      </trkpt>
      <trkpt lat="48.61055" lon="1.68201">
        <ele>121</ele>
        <time>2010-05-15T08:22:35Z</time>
      </trkpt>
      <trkpt lat="48.61056" lon="1.68203">
        <ele>121</ele>
        <time>2010-05-15T08:22:36Z</time>
      </trkpt>
      <trkpt lat="48.61056" lon="1.68205">
        <ele>121</ele>
        <time>2010-05-15T08:22:37Z</time>
      </trkpt>
      <trkpt lat="48.61057" lon="1.68207">
        <ele>121</ele>
        <time>2010-05-15T08:22:38Z</time>
      </trkpt>
      <trkpt lat="48.61057" lon="1.68209">
        <ele>121</ele>
        <time>2010-05-15T08:22:39Z</time>
      </trkpt>
      <trkpt lat="48.61058" lon="1.68211">
        <ele>121</ele>
        <time>2010-05-15T08:22:40Z</time>
      </trkpt>
      <trkpt lat="48.61058" lon="1.68213">
        <ele>121</ele>
        <time>2010-05-15T08:22:41Z</time>
      </trkpt>
      <trkpt lat="48.61058" lon="1.68215">
        <ele>120</ele>
        <time>2010-05-15T08:22:42Z</time>
      </trkpt>
      <trkpt lat="48.61059" lon="1.68217">
        <ele>120</ele>
        <time>2010-05-15T08:22:43Z</time>
      </trkpt>
      <trkpt lat="48.61059" lon="1.68219">
        <ele>120</ele>
        <time>2010-05-15T08:22:44Z</time>
      </trkpt>
      <trkpt lat="48.61059" lon="1.68221">
        <ele>120</ele>
        <time>2010-05-15T08:22:45Z</time>
      </trkpt>
      <trkpt lat="48.6106" lon="1.68223">
        <ele>120</ele>
        <time>2010-05-15T08:22:46Z</time>
      </trkpt>
      <trkpt lat="48.6106" lon="1.68224">
        <ele>120</ele>
        <time>2010-05-15T08:22:47Z</time>
      </trkpt>
      <trkpt lat="48.61061" lon="1.68227">
        <ele>120</ele>
        <time>2010-05-15T08:22:49Z</time>
      </trkpt>
      <trkpt lat="48.61062" lon="1.68226">
        <ele>120</ele>
        <time>2010-05-15T08:23:06Z</time>
      </trkpt>
      <trkpt lat="48.61063" lon="1.68229">
        <ele>120</ele>
        <time>2010-05-15T08:23:23Z</time>
      </trkpt>
      <trkpt lat="48.61063" lon="1.68231">
        <ele>120</ele>
        <time>2010-05-15T08:23:25Z</time>
      </trkpt>
      <trkpt lat="48.61063" lon="1.68233">
        <ele>120</ele>
        <time>2010-05-15T08:23:27Z</time>
      </trkpt>
      <trkpt lat="48.61062" lon="1.68236">
        <ele>120</ele>
        <time>2010-05-15T08:23:31Z</time>
      </trkpt>
      <trkpt lat="48.61062" lon="1.68239">
        <ele>120</ele>
        <time>2010-05-15T08:23:33Z</time>
      </trkpt>
      <trkpt lat="48.61061" lon="1.68242">
        <ele>120</ele>
        <time>2010-05-15T08:23:35Z</time>
      </trkpt>
      <trkpt lat="48.61059" lon="1.68244">
        <ele>120</ele>
        <time>2010-05-15T08:23:37Z</time>
      </trkpt>
      <trkpt lat="48.61058" lon="1.68245">
        <ele>120</ele>
        <time>2010-05-15T08:23:38Z</time>
      </trkpt>
      <trkpt lat="48.61057" lon="1.68246">
        <ele>120</ele>
        <time>2010-05-15T08:23:39Z</time>
      </trkpt>
      <trkpt lat="48.61055" lon="1.68246">
        <ele>119</ele>
        <time>2010-05-15T08:23:40Z</time>
      </trkpt>
      <trkpt lat="48.61054" lon="1.68247">
        <ele>119</ele>
        <time>2010-05-15T08:23:41Z</time>
      </trkpt>
      <trkpt lat="48.61053" lon="1.68248">
        <ele>119</ele>
        <time>2010-05-15T08:23:42Z</time>
      </trkpt>
      <trkpt lat="48.61052" lon="1.68248">
        <ele>119</ele>
        <time>2010-05-15T08:23:43Z</time>
      </trkpt>
      <trkpt lat="48.6105" lon="1.68249">
        <ele>119</ele>
        <time>2010-05-15T08:23:44Z</time>
      </trkpt>
      <trkpt lat="48.61049" lon="1.6825">
        <ele>118</ele>
        <time>2010-05-15T08:23:45Z</time>
      </trkpt>
      <trkpt lat="48.61047" lon="1.6825">
        <ele>118</ele>
        <time>2010-05-15T08:23:46Z</time>
      </trkpt>
      <trkpt lat="48.61046" lon="1.68251">
        <ele>118</ele>
        <time>2010-05-15T08:23:47Z</time>
      </trkpt>
      <trkpt lat="48.61045" lon="1.68252">
        <ele>118</ele>
        <time>2010-05-15T08:23:48Z</time>
      </trkpt>
      <trkpt lat="48.61043" lon="1.68252">
        <ele>117</ele>
        <time>2010-05-15T08:23:49Z</time>
      </trkpt>
      <trkpt lat="48.61042" lon="1.68253">
        <ele>117</ele>
        <time>2010-05-15T08:23:50Z</time>
      </trkpt>
      <trkpt lat="48.6104" lon="1.68253">
        <ele>117</ele>
        <time>2010-05-15T08:23:51Z</time>
      </trkpt>
      <trkpt lat="48.61039" lon="1.68253">
        <ele>117</ele>
        <time>2010-05-15T08:23:52Z</time>
      </trkpt>
      <trkpt lat="48.61038" lon="1.68254">
        <ele>117</ele>
        <time>2010-05-15T08:23:53Z</time>
      </trkpt>
      <trkpt lat="48.61036" lon="1.68255">
        <ele>117</ele>
        <time>2010-05-15T08:23:54Z</time>
      </trkpt>
      <trkpt lat="48.61035" lon="1.68256">
        <ele>117</ele>
        <time>2010-05-15T08:23:55Z</time>
      </trkpt>
      <trkpt lat="48.61034" lon="1.68256">
        <ele>117</ele>
        <time>2010-05-15T08:23:56Z</time>
      </trkpt>
      <trkpt lat="48.61032" lon="1.68257">
        <ele>117</ele>
        <time>2010-05-15T08:23:57Z</time>
      </trkpt>
      <trkpt lat="48.61031" lon="1.68258">
        <ele>117</ele>
        <time>2010-05-15T08:23:58Z</time>
      </trkpt>
      <trkpt lat="48.61029" lon="1.68258">
        <ele>116</ele>
        <time>2010-05-15T08:23:59Z</time>
      </trkpt>
      <trkpt lat="48.61028" lon="1.68259">
        <ele>116</ele>
        <time>2010-05-15T08:24:00Z</time>
      </trkpt>
      <trkpt lat="48.61026" lon="1.6826">
        <ele>116</ele>
        <time>2010-05-15T08:24:01Z</time>
      </trkpt>
      <trkpt lat="48.61025" lon="1.6826">
        <ele>116</ele>
        <time>2010-05-15T08:24:02Z</time>
      </trkpt>
      <trkpt lat="48.61024" lon="1.68261">
        <ele>116</ele>
        <time>2010-05-15T08:24:03Z</time>
      </trkpt>
      <trkpt lat="48.61022" lon="1.68261">
        <ele>116</ele>
        <time>2010-05-15T08:24:04Z</time>
      </trkpt>
      <trkpt lat="48.61021" lon="1.68262">
        <ele>116</ele>
        <time>2010-05-15T08:24:05Z</time>
      </trkpt>
      <trkpt lat="48.61019" lon="1.68263">
        <ele>115</ele>
        <time>2010-05-15T08:24:06Z</time>
      </trkpt>
      <trkpt lat="48.61018" lon="1.68264">
        <ele>115</ele>
        <time>2010-05-15T08:24:07Z</time>
      </trkpt>
      <trkpt lat="48.61017" lon="1.68264">
        <ele>115</ele>
        <time>2010-05-15T08:24:08Z</time>
      </trkpt>
      <trkpt lat="48.61015" lon="1.68265">
        <ele>115</ele>
        <time>2010-05-15T08:24:09Z</time>
      </trkpt>
      <trkpt lat="48.61014" lon="1.68265">
        <ele>115</ele>
        <time>2010-05-15T08:24:10Z</time>
      </trkpt>
      <trkpt lat="48.61012" lon="1.68266">
        <ele>115</ele>
        <time>2010-05-15T08:24:11Z</time>
      </trkpt>
      <trkpt lat="48.61011" lon="1.68267">
        <ele>115</ele>
        <time>2010-05-15T08:24:12Z</time>
      </trkpt>
      <trkpt lat="48.61009" lon="1.68268">
        <ele>114</ele>
        <time>2010-05-15T08:24:13Z</time>
      </trkpt>
      <trkpt lat="48.61008" lon="1.68268">
        <ele>114</ele>
        <time>2010-05-15T08:24:14Z</time>
      </trkpt>
      <trkpt lat="48.61007" lon="1.68269">
        <ele>114</ele>
        <time>2010-05-15T08:24:15Z</time>
      </trkpt>
      <trkpt lat="48.61005" lon="1.6827">
        <ele>114</ele>
        <time>2010-05-15T08:24:16Z</time>
      </trkpt>
      <trkpt lat="48.61004" lon="1.6827">
        <ele>114</ele>
        <time>2010-05-15T08:24:17Z</time>
      </trkpt>
      <trkpt lat="48.61002" lon="1.68271">
        <ele>114</ele>
        <time>2010-05-15T08:24:18Z</time>
      </trkpt>
      <trkpt lat="48.61001" lon="1.68271">
        <ele>113</ele>
        <time>2010-05-15T08:24:19Z</time>
      </trkpt>
      <trkpt lat="48.61" lon="1.68272">
        <ele>113</ele>
        <time>2010-05-15T08:24:20Z</time>
      </trkpt>
      <trkpt lat="48.60998" lon="1.68273">
        <ele>113</ele>
        <time>2010-05-15T08:24:21Z</time>
      </trkpt>
      <trkpt lat="48.60997" lon="1.68274">
        <ele>113</ele>
        <time>2010-05-15T08:24:22Z</time>
      </trkpt>
      <trkpt lat="48.60996" lon="1.68275">
        <ele>113</ele>
        <time>2010-05-15T08:24:23Z</time>
      </trkpt>
      <trkpt lat="48.60994" lon="1.68276">
        <ele>113</ele>
        <time>2010-05-15T08:24:24Z</time>
      </trkpt>
      <trkpt lat="48.60993" lon="1.68277">
        <ele>112</ele>
        <time>2010-05-15T08:24:25Z</time>
      </trkpt>
      <trkpt lat="48.60992" lon="1.68277">
        <ele>112</ele>
        <time>2010-05-15T08:24:27Z</time>
      </trkpt>
      <trkpt lat="48.6099" lon="1.68278">
        <ele>111</ele>
        <time>2010-05-15T08:24:30Z</time>
      </trkpt>
      <trkpt lat="48.60989" lon="1.68277">
        <ele>111</ele>
        <time>2010-05-15T08:24:32Z</time>
      </trkpt>
      <trkpt lat="48.60988" lon="1.68274">
        <ele>110</ele>
        <time>2010-05-15T08:24:34Z</time>
      </trkpt>
      <trkpt lat="48.60987" lon="1.68272">
        <ele>110</ele>
        <time>2010-05-15T08:24:35Z</time>
      </trkpt>
      <trkpt lat="48.60987" lon="1.6827">
        <ele>110</ele>
        <time>2010-05-15T08:24:36Z</time>
      </trkpt>
      <trkpt lat="48.60987" lon="1.68268">
        <ele>110</ele>
        <time>2010-05-15T08:24:37Z</time>
      </trkpt>
      <trkpt lat="48.60987" lon="1.68266">
        <ele>109</ele>
        <time>2010-05-15T08:24:38Z</time>
      </trkpt>
      <trkpt lat="48.60987" lon="1.68264">
        <ele>109</ele>
        <time>2010-05-15T08:24:39Z</time>
      </trkpt>
      <trkpt lat="48.60987" lon="1.68262">
        <ele>109</ele>
        <time>2010-05-15T08:24:40Z</time>
      </trkpt>
      <trkpt lat="48.60986" lon="1.6826">
        <ele>109</ele>
        <time>2010-05-15T08:24:42Z</time>
      </trkpt>
      <trkpt lat="48.60986" lon="1.68262">
        <ele>109</ele>
        <time>2010-05-15T08:24:52Z</time>
      </trkpt>
      <trkpt lat="48.60986" lon="1.68264">
        <ele>109</ele>
        <time>2010-05-15T08:24:53Z</time>
      </trkpt>
      <trkpt lat="48.60986" lon="1.68266">
        <ele>109</ele>
        <time>2010-05-15T08:24:54Z</time>
      </trkpt>
      <trkpt lat="48.60986" lon="1.68267">
        <ele>109</ele>
        <time>2010-05-15T08:24:55Z</time>
      </trkpt>
      <trkpt lat="48.60985" lon="1.68269">
        <ele>109</ele>
        <time>2010-05-15T08:24:56Z</time>
      </trkpt>
      <trkpt lat="48.60985" lon="1.68271">
        <ele>109</ele>
        <time>2010-05-15T08:24:57Z</time>
      </trkpt>
      <trkpt lat="48.60986" lon="1.68274">
        <ele>109</ele>
        <time>2010-05-15T08:24:59Z</time>
      </trkpt>
      <trkpt lat="48.60986" lon="1.68275">
        <ele>109</ele>
        <time>2010-05-15T08:25:00Z</time>
      </trkpt>
      <trkpt lat="48.60986" lon="1.68278">
        <ele>109</ele>
        <time>2010-05-15T08:25:02Z</time>
      </trkpt>
      <trkpt lat="48.60986" lon="1.6828">
        <ele>109</ele>
        <time>2010-05-15T08:25:05Z</time>
      </trkpt>
      <trkpt lat="48.60986" lon="1.68283">
        <ele>109</ele>
        <time>2010-05-15T08:25:09Z</time>
      </trkpt>
      <trkpt lat="48.60986" lon="1.68285">
        <ele>109</ele>
        <time>2010-05-15T08:25:10Z</time>
      </trkpt>
      <trkpt lat="48.60986" lon="1.68287">
        <ele>109</ele>
        <time>2010-05-15T08:25:11Z</time>
      </trkpt>
      <trkpt lat="48.60985" lon="1.68289">
        <ele>109</ele>
        <time>2010-05-15T08:25:12Z</time>
      </trkpt>
      <trkpt lat="48.60985" lon="1.68291">
        <ele>109</ele>
        <time>2010-05-15T08:25:13Z</time>
      </trkpt>
      <trkpt lat="48.60985" lon="1.68293">
        <ele>109</ele>
        <time>2010-05-15T08:25:14Z</time>
      </trkpt>
      <trkpt lat="48.60985" lon="1.68295">
        <ele>109</ele>
        <time>2010-05-15T08:25:15Z</time>
      </trkpt>
      <trkpt lat="48.60985" lon="1.68298">
        <ele>109</ele>
        <time>2010-05-15T08:25:16Z</time>
      </trkpt>
      <trkpt lat="48.60984" lon="1.683">
        <ele>109</ele>
        <time>2010-05-15T08:25:17Z</time>
      </trkpt>
      <trkpt lat="48.60984" lon="1.68302">
        <ele>109</ele>
        <time>2010-05-15T08:25:18Z</time>
      </trkpt>
      <trkpt lat="48.60984" lon="1.68304">
        <ele>109</ele>
        <time>2010-05-15T08:25:19Z</time>
      </trkpt>
      <trkpt lat="48.60984" lon="1.68306">
        <ele>109</ele>
        <time>2010-05-15T08:25:20Z</time>
      </trkpt>
      <trkpt lat="48.60984" lon="1.68308">
        <ele>109</ele>
        <time>2010-05-15T08:25:21Z</time>
      </trkpt>
      <trkpt lat="48.60984" lon="1.6831">
        <ele>109</ele>
        <time>2010-05-15T08:25:22Z</time>
      </trkpt>
      <trkpt lat="48.60983" lon="1.68312">
        <ele>109</ele>
        <time>2010-05-15T08:25:23Z</time>
      </trkpt>
      <trkpt lat="48.60983" lon="1.68314">
        <ele>109</ele>
        <time>2010-05-15T08:25:24Z</time>
      </trkpt>
      <trkpt lat="48.60983" lon="1.68316">
        <ele>109</ele>
        <time>2010-05-15T08:25:25Z</time>
      </trkpt>
      <trkpt lat="48.60983" lon="1.68318">
        <ele>109</ele>
        <time>2010-05-15T08:25:26Z</time>
      </trkpt>
      <trkpt lat="48.60983" lon="1.6832">
        <ele>109</ele>
        <time>2010-05-15T08:25:27Z</time>
      </trkpt>
      <trkpt lat="48.60982" lon="1.68322">
        <ele>109</ele>
        <time>2010-05-15T08:25:28Z</time>
      </trkpt>
      <trkpt lat="48.60982" lon="1.68324">
        <ele>109</ele>
        <time>2010-05-15T08:25:29Z</time>
      </trkpt>
      <trkpt lat="48.60982" lon="1.68326">
        <ele>109</ele>
        <time>2010-05-15T08:25:30Z</time>
      </trkpt>
      <trkpt lat="48.60981" lon="1.68328">
        <ele>109</ele>
        <time>2010-05-15T08:25:31Z</time>
      </trkpt>
      <trkpt lat="48.60981" lon="1.6833">
        <ele>109</ele>
        <time>2010-05-15T08:25:32Z</time>
      </trkpt>
      <trkpt lat="48.60981" lon="1.68332">
        <ele>109</ele>
        <time>2010-05-15T08:25:33Z</time>
      </trkpt>
      <trkpt lat="48.60981" lon="1.68334">
        <ele>109</ele>
        <time>2010-05-15T08:25:34Z</time>
      </trkpt>
      <trkpt lat="48.60981" lon="1.68336">
        <ele>109</ele>
        <time>2010-05-15T08:25:35Z</time>
      </trkpt>
      <trkpt lat="48.60981" lon="1.68338">
        <ele>109</ele>
        <time>2010-05-15T08:25:36Z</time>
      </trkpt>
      <trkpt lat="48.6098" lon="1.6834">
        <ele>109</ele>
        <time>2010-05-15T08:25:37Z</time>
      </trkpt>
      <trkpt lat="48.6098" lon="1.68342">
        <ele>109</ele>
        <time>2010-05-15T08:25:38Z</time>
      </trkpt>
      <trkpt lat="48.60979" lon="1.68344">
        <ele>109</ele>
        <time>2010-05-15T08:25:39Z</time>
      </trkpt>
      <trkpt lat="48.60979" lon="1.68347">
        <ele>109</ele>
        <time>2010-05-15T08:25:40Z</time>
      </trkpt>
      <trkpt lat="48.60979" lon="1.68349">
        <ele>109</ele>
        <time>2010-05-15T08:25:41Z</time>
      </trkpt>
      <trkpt lat="48.60979" lon="1.68351">
        <ele>109</ele>
        <time>2010-05-15T08:25:42Z</time>
      </trkpt>
      <trkpt lat="48.60978" lon="1.68353">
        <ele>109</ele>
        <time>2010-05-15T08:25:43Z</time>
      </trkpt>
      <trkpt lat="48.60978" lon="1.68355">
        <ele>109</ele>
        <time>2010-05-15T08:25:44Z</time>
      </trkpt>
      <trkpt lat="48.60978" lon="1.68357">
        <ele>109</ele>
        <time>2010-05-15T08:25:45Z</time>
      </trkpt>
      <trkpt lat="48.60978" lon="1.68359">
        <ele>109</ele>
        <time>2010-05-15T08:25:46Z</time>
      </trkpt>
      <trkpt lat="48.60978" lon="1.68361">
        <ele>109</ele>
        <time>2010-05-15T08:25:47Z</time>
      </trkpt>
      <trkpt lat="48.60978" lon="1.68363">
        <ele>109</ele>
        <time>2010-05-15T08:25:48Z</time>
      </trkpt>
      <trkpt lat="48.60977" lon="1.68365">
        <ele>109</ele>
        <time>2010-05-15T08:25:49Z</time>
      </trkpt>
      <trkpt lat="48.60977" lon="1.68367">
        <ele>109</ele>
        <time>2010-05-15T08:25:50Z</time>
      </trkpt>
      <trkpt lat="48.60977" lon="1.68369">
        <ele>109</ele>
        <time>2010-05-15T08:25:51Z</time>
      </trkpt>
      <trkpt lat="48.60977" lon="1.68371">
        <ele>109</ele>
        <time>2010-05-15T08:25:52Z</time>
      </trkpt>
      <trkpt lat="48.60976" lon="1.68373">
        <ele>109</ele>
        <time>2010-05-15T08:25:53Z</time>
      </trkpt>
      <trkpt lat="48.60976" lon="1.68375">
        <ele>109</ele>
        <time>2010-05-15T08:25:54Z</time>
      </trkpt>
      <trkpt lat="48.60976" lon="1.68377">
        <ele>109</ele>
        <time>2010-05-15T08:25:55Z</time>
      </trkpt>
      <trkpt lat="48.60976" lon="1.6838">
        <ele>109</ele>
        <time>2010-05-15T08:25:56Z</time>
      </trkpt>
      <trkpt lat="48.60976" lon="1.68382">
        <ele>109</ele>
        <time>2010-05-15T08:25:57Z</time>
      </trkpt>
      <trkpt lat="48.60975" lon="1.68384">
        <ele>109</ele>
        <time>2010-05-15T08:25:58Z</time>
      </trkpt>
      <trkpt lat="48.60975" lon="1.68386">
        <ele>109</ele>
        <time>2010-05-15T08:25:59Z</time>
      </trkpt>
      <trkpt lat="48.60975" lon="1.68388">
        <ele>109</ele>
        <time>2010-05-15T08:26:00Z</time>
      </trkpt>
      <trkpt lat="48.60975" lon="1.68391">
        <ele>109</ele>
        <time>2010-05-15T08:26:01Z</time>
      </trkpt>
      <trkpt lat="48.60974" lon="1.68393">
        <ele>109</ele>
        <time>2010-05-15T08:26:02Z</time>
      </trkpt>
      <trkpt lat="48.60974" lon="1.68395">
        <ele>109</ele>
        <time>2010-05-15T08:26:03Z</time>
      </trkpt>
      <trkpt lat="48.60974" lon="1.68397">
        <ele>109</ele>
        <time>2010-05-15T08:26:04Z</time>
      </trkpt>
      <trkpt lat="48.60973" lon="1.68399">
        <ele>109</ele>
        <time>2010-05-15T08:26:05Z</time>
      </trkpt>
      <trkpt lat="48.60973" lon="1.68401">
        <ele>109</ele>
        <time>2010-05-15T08:26:06Z</time>
      </trkpt>
      <trkpt lat="48.60972" lon="1.68404">
        <ele>109</ele>
        <time>2010-05-15T08:26:07Z</time>
      </trkpt>
      <trkpt lat="48.60972" lon="1.68406">
        <ele>109</ele>
        <time>2010-05-15T08:26:08Z</time>
      </trkpt>
      <trkpt lat="48.60971" lon="1.68408">
        <ele>109</ele>
        <time>2010-05-15T08:26:09Z</time>
      </trkpt>
      <trkpt lat="48.60971" lon="1.6841">
        <ele>109</ele>
        <time>2010-05-15T08:26:10Z</time>
      </trkpt>
      <trkpt lat="48.6097" lon="1.68413">
        <ele>109</ele>
        <time>2010-05-15T08:26:11Z</time>
      </trkpt>
      <trkpt lat="48.6097" lon="1.68415">
        <ele>109</ele>
        <time>2010-05-15T08:26:12Z</time>
      </trkpt>
      <trkpt lat="48.60969" lon="1.68417">
        <ele>109</ele>
        <time>2010-05-15T08:26:13Z</time>
      </trkpt>
      <trkpt lat="48.60969" lon="1.68419">
        <ele>109</ele>
        <time>2010-05-15T08:26:14Z</time>
      </trkpt>
      <trkpt lat="48.60969" lon="1.68422">
        <ele>109</ele>
        <time>2010-05-15T08:26:15Z</time>
      </trkpt>
      <trkpt lat="48.60969" lon="1.68424">
        <ele>109</ele>
        <time>2010-05-15T08:26:16Z</time>
      </trkpt>
      <trkpt lat="48.60968" lon="1.68426">
        <ele>109</ele>
        <time>2010-05-15T08:26:17Z</time>
      </trkpt>
      <trkpt lat="48.60968" lon="1.68428">
        <ele>109</ele>
        <time>2010-05-15T08:26:18Z</time>
      </trkpt>
      <trkpt lat="48.60967" lon="1.6843">
        <ele>109</ele>
        <time>2010-05-15T08:26:19Z</time>
      </trkpt>
      <trkpt lat="48.60967" lon="1.68432">
        <ele>109</ele>
        <time>2010-05-15T08:26:20Z</time>
      </trkpt>
      <trkpt lat="48.60966" lon="1.68435">
        <ele>109</ele>
        <time>2010-05-15T08:26:21Z</time>
      </trkpt>
      <trkpt lat="48.60965" lon="1.68437">
        <ele>109</ele>
        <time>2010-05-15T08:26:22Z</time>
      </trkpt>
      <trkpt lat="48.60965" lon="1.68439">
        <ele>109</ele>
        <time>2010-05-15T08:26:23Z</time>
      </trkpt>
      <trkpt lat="48.60964" lon="1.68441">
        <ele>109</ele>
        <time>2010-05-15T08:26:24Z</time>
      </trkpt>
      <trkpt lat="48.60964" lon="1.68444">
        <ele>109</ele>
        <time>2010-05-15T08:26:25Z</time>
      </trkpt>
      <trkpt lat="48.60963" lon="1.68446">
        <ele>109</ele>
        <time>2010-05-15T08:26:26Z</time>
      </trkpt>
      <trkpt lat="48.60963" lon="1.68448">
        <ele>109</ele>
        <time>2010-05-15T08:26:27Z</time>
      </trkpt>
      <trkpt lat="48.60962" lon="1.6845">
        <ele>109</ele>
        <time>2010-05-15T08:26:28Z</time>
      </trkpt>
      <trkpt lat="48.60962" lon="1.68452">
        <ele>109</ele>
        <time>2010-05-15T08:26:29Z</time>
      </trkpt>
      <trkpt lat="48.60961" lon="1.68454">
        <ele>109</ele>
        <time>2010-05-15T08:26:30Z</time>
      </trkpt>
      <trkpt lat="48.6096" lon="1.68456">
        <ele>109</ele>
        <time>2010-05-15T08:26:31Z</time>
      </trkpt>
      <trkpt lat="48.60959" lon="1.68458">
        <ele>109</ele>
        <time>2010-05-15T08:26:32Z</time>
      </trkpt>
      <trkpt lat="48.60959" lon="1.6846">
        <ele>109</ele>
        <time>2010-05-15T08:26:33Z</time>
      </trkpt>
      <trkpt lat="48.60959" lon="1.68462">
        <ele>109</ele>
        <time>2010-05-15T08:26:34Z</time>
      </trkpt>
      <trkpt lat="48.60959" lon="1.68464">
        <ele>109</ele>
        <time>2010-05-15T08:26:35Z</time>
      </trkpt>
      <trkpt lat="48.60958" lon="1.68466">
        <ele>109</ele>
        <time>2010-05-15T08:26:36Z</time>
      </trkpt>
      <trkpt lat="48.60958" lon="1.68468">
        <ele>109</ele>
        <time>2010-05-15T08:26:37Z</time>
      </trkpt>
      <trkpt lat="48.60958" lon="1.6847">
        <ele>109</ele>
        <time>2010-05-15T08:26:38Z</time>
      </trkpt>
      <trkpt lat="48.60957" lon="1.68472">
        <ele>109</ele>
        <time>2010-05-15T08:26:39Z</time>
      </trkpt>
      <trkpt lat="48.60957" lon="1.68474">
        <ele>109</ele>
        <time>2010-05-15T08:26:40Z</time>
      </trkpt>
      <trkpt lat="48.60956" lon="1.68477">
        <ele>109</ele>
        <time>2010-05-15T08:26:41Z</time>
      </trkpt>
      <trkpt lat="48.60955" lon="1.68479">
        <ele>109</ele>
        <time>2010-05-15T08:26:42Z</time>
      </trkpt>
      <trkpt lat="48.60955" lon="1.68481">
        <ele>109</ele>
        <time>2010-05-15T08:26:43Z</time>
      </trkpt>
      <trkpt lat="48.60954" lon="1.68483">
        <ele>109</ele>
        <time>2010-05-15T08:26:44Z</time>
      </trkpt>
      <trkpt lat="48.60953" lon="1.68485">
        <ele>109</ele>
        <time>2010-05-15T08:26:45Z</time>
      </trkpt>
      <trkpt lat="48.60953" lon="1.68487">
        <ele>109</ele>
        <time>2010-05-15T08:26:46Z</time>
      </trkpt>
      <trkpt lat="48.60953" lon="1.68489">
        <ele>109</ele>
        <time>2010-05-15T08:26:47Z</time>
      </trkpt>
      <trkpt lat="48.60952" lon="1.68491">
        <ele>109</ele>
        <time>2010-05-15T08:26:48Z</time>
      </trkpt>
      <trkpt lat="48.60951" lon="1.68493">
        <ele>109</ele>
        <time>2010-05-15T08:26:49Z</time>
      </trkpt>
      <trkpt lat="48.60951" lon="1.68495">
        <ele>110</ele>
        <time>2010-05-15T08:26:50Z</time>
      </trkpt>
      <trkpt lat="48.6095" lon="1.68497">
        <ele>110</ele>
        <time>2010-05-15T08:26:51Z</time>
      </trkpt>
      <trkpt lat="48.60949" lon="1.68499">
        <ele>110</ele>
        <time>2010-05-15T08:26:52Z</time>
      </trkpt>
      <trkpt lat="48.60948" lon="1.68501">
        <ele>110</ele>
        <time>2010-05-15T08:26:53Z</time>
      </trkpt>
      <trkpt lat="48.60947" lon="1.68503">
        <ele>110</ele>
        <time>2010-05-15T08:26:54Z</time>
      </trkpt>
      <trkpt lat="48.60946" lon="1.68505">
        <ele>110</ele>
        <time>2010-05-15T08:26:55Z</time>
      </trkpt>
      <trkpt lat="48.60946" lon="1.68508">
        <ele>110</ele>
        <time>2010-05-15T08:26:56Z</time>
      </trkpt>
      <trkpt lat="48.60945" lon="1.6851">
        <ele>110</ele>
        <time>2010-05-15T08:26:57Z</time>
      </trkpt>
      <trkpt lat="48.60945" lon="1.68512">
        <ele>110</ele>
        <time>2010-05-15T08:26:58Z</time>
      </trkpt>
      <trkpt lat="48.60944" lon="1.68514">
        <ele>110</ele>
        <time>2010-05-15T08:26:59Z</time>
      </trkpt>
      <trkpt lat="48.60943" lon="1.68516">
        <ele>110</ele>
        <time>2010-05-15T08:27:00Z</time>
      </trkpt>
      <trkpt lat="48.60942" lon="1.68518">
        <ele>110</ele>
        <time>2010-05-15T08:27:01Z</time>
      </trkpt>
      <trkpt lat="48.60942" lon="1.6852">
        <ele>110</ele>
        <time>2010-05-15T08:27:02Z</time>
      </trkpt>
      <trkpt lat="48.60941" lon="1.68522">
        <ele>110</ele>
        <time>2010-05-15T08:27:03Z</time>
      </trkpt>
      <trkpt lat="48.6094" lon="1.68524">
        <ele>110</ele>
        <time>2010-05-15T08:27:04Z</time>
      </trkpt>
      <trkpt lat="48.60939" lon="1.68526">
        <ele>110</ele>
        <time>2010-05-15T08:27:05Z</time>
      </trkpt>
      <trkpt lat="48.60938" lon="1.68528">
        <ele>110</ele>
        <time>2010-05-15T08:27:06Z</time>
      </trkpt>
      <trkpt lat="48.60937" lon="1.6853">
        <ele>110</ele>
        <time>2010-05-15T08:27:07Z</time>
      </trkpt>
      <trkpt lat="48.60936" lon="1.68532">
        <ele>110</ele>
        <time>2010-05-15T08:27:08Z</time>
      </trkpt>
      <trkpt lat="48.60934" lon="1.68534">
        <ele>110</ele>
        <time>2010-05-15T08:27:09Z</time>
      </trkpt>
      <trkpt lat="48.60933" lon="1.68536">
        <ele>110</ele>
        <time>2010-05-15T08:27:10Z</time>
      </trkpt>
      <trkpt lat="48.60932" lon="1.68539">
        <ele>110</ele>
        <time>2010-05-15T08:27:11Z</time>
      </trkpt>
      <trkpt lat="48.60932" lon="1.6854">
        <ele>110</ele>
        <time>2010-05-15T08:27:12Z</time>
      </trkpt>
      <trkpt lat="48.6093" lon="1.68542">
        <ele>110</ele>
        <time>2010-05-15T08:27:13Z</time>
      </trkpt>
      <trkpt lat="48.60929" lon="1.68545">
        <ele>110</ele>
        <time>2010-05-15T08:27:14Z</time>
      </trkpt>
      <trkpt lat="48.60928" lon="1.68549">
        <ele>110</ele>
        <time>2010-05-15T08:27:15Z</time>
      </trkpt>
      <trkpt lat="48.60928" lon="1.68552">
        <ele>110</ele>
        <time>2010-05-15T08:27:16Z</time>
      </trkpt>
      <trkpt lat="48.60928" lon="1.68557">
        <ele>110</ele>
        <time>2010-05-15T08:27:17Z</time>
      </trkpt>
      <trkpt lat="48.60929" lon="1.68561">
        <ele>110</ele>
        <time>2010-05-15T08:27:18Z</time>
      </trkpt>
      <trkpt lat="48.60928" lon="1.68564">
        <ele>110</ele>
        <time>2010-05-15T08:27:19Z</time>
      </trkpt>
      <trkpt lat="48.60928" lon="1.68565">
        <ele>110</ele>
        <time>2010-05-15T08:27:20Z</time>
      </trkpt>
      <trkpt lat="48.60926" lon="1.68567">
        <ele>110</ele>
        <time>2010-05-15T08:27:22Z</time>
      </trkpt>
      <trkpt lat="48.60925" lon="1.68568">
        <ele>110</ele>
        <time>2010-05-15T08:27:23Z</time>
      </trkpt>
      <trkpt lat="48.60923" lon="1.6857">
        <ele>110</ele>
        <time>2010-05-15T08:27:25Z</time>
      </trkpt>
      <trkpt lat="48.60921" lon="1.68573">
        <ele>110</ele>
        <time>2010-05-15T08:27:27Z</time>
      </trkpt>
      <trkpt lat="48.60919" lon="1.68574">
        <ele>110</ele>
        <time>2010-05-15T08:27:28Z</time>
      </trkpt>
      <trkpt lat="48.60918" lon="1.68575">
        <ele>110</ele>
        <time>2010-05-15T08:27:29Z</time>
      </trkpt>
      <trkpt lat="48.60917" lon="1.68576">
        <ele>110</ele>
        <time>2010-05-15T08:27:30Z</time>
      </trkpt>
      <trkpt lat="48.60915" lon="1.68578">
        <ele>110</ele>
        <time>2010-05-15T08:27:31Z</time>
      </trkpt>
      <trkpt lat="48.60914" lon="1.68579">
        <ele>110</ele>
        <time>2010-05-15T08:27:32Z</time>
      </trkpt>
      <trkpt lat="48.60912" lon="1.6858">
        <ele>110</ele>
        <time>2010-05-15T08:27:33Z</time>
      </trkpt>
      <trkpt lat="48.60911" lon="1.68581">
        <ele>110</ele>
        <time>2010-05-15T08:27:34Z</time>
      </trkpt>
      <trkpt lat="48.60909" lon="1.68582">
        <ele>110</ele>
        <time>2010-05-15T08:27:35Z</time>
      </trkpt>
      <trkpt lat="48.60908" lon="1.68584">
        <ele>110</ele>
        <time>2010-05-15T08:27:36Z</time>
      </trkpt>
      <trkpt lat="48.60907" lon="1.68585">
        <ele>110</ele>
        <time>2010-05-15T08:27:37Z</time>
      </trkpt>
      <trkpt lat="48.60905" lon="1.68588">
        <ele>110</ele>
        <time>2010-05-15T08:27:39Z</time>
      </trkpt>
      <trkpt lat="48.60903" lon="1.68589">
        <ele>110</ele>
        <time>2010-05-15T08:27:40Z</time>
      </trkpt>
      <trkpt lat="48.60902" lon="1.6859">
        <ele>110</ele>
        <time>2010-05-15T08:27:41Z</time>
      </trkpt>
      <trkpt lat="48.60901" lon="1.68591">
        <ele>110</ele>
        <time>2010-05-15T08:27:42Z</time>
      </trkpt>
      <trkpt lat="48.60899" lon="1.68592">
        <ele>110</ele>
        <time>2010-05-15T08:27:43Z</time>
      </trkpt>
      <trkpt lat="48.60897" lon="1.68592">
        <ele>110</ele>
        <time>2010-05-15T08:27:44Z</time>
      </trkpt>
      <trkpt lat="48.60896" lon="1.68593">
        <ele>110</ele>
        <time>2010-05-15T08:27:45Z</time>
      </trkpt>
      <trkpt lat="48.60894" lon="1.68594">
        <ele>110</ele>
        <time>2010-05-15T08:27:46Z</time>
      </trkpt>
      <trkpt lat="48.60893" lon="1.68595">
        <ele>110</ele>
        <time>2010-05-15T08:27:47Z</time>
      </trkpt>
      <trkpt lat="48.60891" lon="1.68596">
        <ele>110</ele>
        <time>2010-05-15T08:27:48Z</time>
      </trkpt>
      <trkpt lat="48.6089" lon="1.68597">
        <ele>110</ele>
        <time>2010-05-15T08:27:49Z</time>
      </trkpt>
      <trkpt lat="48.60888" lon="1.68598">
        <ele>110</ele>
        <time>2010-05-15T08:27:50Z</time>
      </trkpt>
      <trkpt lat="48.60887" lon="1.68599">
        <ele>110</ele>
        <time>2010-05-15T08:27:51Z</time>
      </trkpt>
      <trkpt lat="48.60885" lon="1.68599">
        <ele>110</ele>
        <time>2010-05-15T08:27:52Z</time>
      </trkpt>
      <trkpt lat="48.60884" lon="1.686">
        <ele>110</ele>
        <time>2010-05-15T08:27:53Z</time>
      </trkpt>
      <trkpt lat="48.60882" lon="1.68601">
        <ele>110</ele>
        <time>2010-05-15T08:27:54Z</time>
      </trkpt>
      <trkpt lat="48.60881" lon="1.68602">
        <ele>110</ele>
        <time>2010-05-15T08:27:55Z</time>
      </trkpt>
      <trkpt lat="48.60879" lon="1.68604">
        <ele>110</ele>
        <time>2010-05-15T08:27:56Z</time>
      </trkpt>
      <trkpt lat="48.60878" lon="1.68605">
        <ele>110</ele>
        <time>2010-05-15T08:27:57Z</time>
      </trkpt>
      <trkpt lat="48.60877" lon="1.68607">
        <ele>110</ele>
        <time>2010-05-15T08:27:58Z</time>
      </trkpt>
      <trkpt lat="48.60876" lon="1.68609">
        <ele>110</ele>
        <time>2010-05-15T08:27:59Z</time>
      </trkpt>
      <trkpt lat="48.60875" lon="1.68611">
        <ele>110</ele>
        <time>2010-05-15T08:28:00Z</time>
      </trkpt>
      <trkpt lat="48.60874" lon="1.68614">
        <ele>110</ele>
        <time>2010-05-15T08:28:01Z</time>
      </trkpt>
      <trkpt lat="48.60873" lon="1.68618">
        <ele>110</ele>
        <time>2010-05-15T08:28:02Z</time>
      </trkpt>
      <trkpt lat="48.60872" lon="1.68622">
        <ele>110</ele>
        <time>2010-05-15T08:28:03Z</time>
      </trkpt>
      <trkpt lat="48.60871" lon="1.68627">
        <ele>110</ele>
        <time>2010-05-15T08:28:04Z</time>
      </trkpt>
      <trkpt lat="48.60871" lon="1.68631">
        <ele>110</ele>
        <time>2010-05-15T08:28:05Z</time>
      </trkpt>
      <trkpt lat="48.6087" lon="1.68636">
        <ele>110</ele>
        <time>2010-05-15T08:28:06Z</time>
      </trkpt>
      <trkpt lat="48.60869" lon="1.6864">
        <ele>110</ele>
        <time>2010-05-15T08:28:07Z</time>
      </trkpt>
      <trkpt lat="48.60868" lon="1.68644">
        <ele>110</ele>
        <time>2010-05-15T08:28:08Z</time>
      </trkpt>
      <trkpt lat="48.60867" lon="1.68648">
        <ele>110</ele>
        <time>2010-05-15T08:28:09Z</time>
      </trkpt>
      <trkpt lat="48.60867" lon="1.68651">
        <ele>110</ele>
        <time>2010-05-15T08:28:10Z</time>
      </trkpt>
      <trkpt lat="48.60867" lon="1.68654">
        <ele>110</ele>
        <time>2010-05-15T08:28:11Z</time>
      </trkpt>
      <trkpt lat="48.60867" lon="1.68657">
        <ele>110</ele>
        <time>2010-05-15T08:28:12Z</time>
      </trkpt>
      <trkpt lat="48.60866" lon="1.6866">
        <ele>110</ele>
        <time>2010-05-15T08:28:13Z</time>
      </trkpt>
      <trkpt lat="48.60866" lon="1.68663">
        <ele>110</ele>
        <time>2010-05-15T08:28:14Z</time>
      </trkpt>
      <trkpt lat="48.60865" lon="1.68665">
        <ele>110</ele>
        <time>2010-05-15T08:28:15Z</time>
      </trkpt>
      <trkpt lat="48.60865" lon="1.68668">
        <ele>110</ele>
        <time>2010-05-15T08:28:16Z</time>
      </trkpt>
      <trkpt lat="48.60865" lon="1.6867">
        <ele>110</ele>
        <time>2010-05-15T08:28:17Z</time>
      </trkpt>
      <trkpt lat="48.60864" lon="1.68673">
        <ele>110</ele>
        <time>2010-05-15T08:28:18Z</time>
      </trkpt>
      <trkpt lat="48.60864" lon="1.68675">
        <ele>110</ele>
        <time>2010-05-15T08:28:19Z</time>
      </trkpt>
      <trkpt lat="48.60863" lon="1.68678">
        <ele>110</ele>
        <time>2010-05-15T08:28:20Z</time>
      </trkpt>
      <trkpt lat="48.60863" lon="1.6868">
        <ele>110</ele>
        <time>2010-05-15T08:28:21Z</time>
      </trkpt>
      <trkpt lat="48.60862" lon="1.68682">
        <ele>110</ele>
        <time>2010-05-15T08:28:22Z</time>
      </trkpt>
      <trkpt lat="48.60862" lon="1.68684">
        <ele>110</ele>
        <time>2010-05-15T08:28:23Z</time>
      </trkpt>
      <trkpt lat="48.60861" lon="1.68686">
        <ele>110</ele>
        <time>2010-05-15T08:28:24Z</time>
      </trkpt>
      <trkpt lat="48.6086" lon="1.68688">
        <ele>110</ele>
        <time>2010-05-15T08:28:25Z</time>
      </trkpt>
      <trkpt lat="48.6086" lon="1.6869">
        <ele>111</ele>
        <time>2010-05-15T08:28:26Z</time>
      </trkpt>
      <trkpt lat="48.60859" lon="1.68692">
        <ele>111</ele>
        <time>2010-05-15T08:28:27Z</time>
      </trkpt>
      <trkpt lat="48.60859" lon="1.68694">
        <ele>111</ele>
        <time>2010-05-15T08:28:28Z</time>
      </trkpt>
      <trkpt lat="48.60858" lon="1.68696">
        <ele>111</ele>
        <time>2010-05-15T08:28:29Z</time>
      </trkpt>
      <trkpt lat="48.60857" lon="1.68698">
        <ele>111</ele>
        <time>2010-05-15T08:28:30Z</time>
      </trkpt>
      <trkpt lat="48.60857" lon="1.687">
        <ele>111</ele>
        <time>2010-05-15T08:28:31Z</time>
      </trkpt>
      <trkpt lat="48.60856" lon="1.68702">
        <ele>111</ele>
        <time>2010-05-15T08:28:32Z</time>
      </trkpt>
      <trkpt lat="48.60855" lon="1.68703">
        <ele>111</ele>
        <time>2010-05-15T08:28:33Z</time>
      </trkpt>
      <trkpt lat="48.60854" lon="1.68705">
        <ele>111</ele>
        <time>2010-05-15T08:28:34Z</time>
      </trkpt>
      <trkpt lat="48.60853" lon="1.68707">
        <ele>111</ele>
        <time>2010-05-15T08:28:35Z</time>
      </trkpt>
      <trkpt lat="48.60853" lon="1.68709">
        <ele>111</ele>
        <time>2010-05-15T08:28:36Z</time>
      </trkpt>
      <trkpt lat="48.60852" lon="1.6871">
        <ele>111</ele>
        <time>2010-05-15T08:28:37Z</time>
      </trkpt>
      <trkpt lat="48.60851" lon="1.68712">
        <ele>111</ele>
        <time>2010-05-15T08:28:38Z</time>
      </trkpt>
      <trkpt lat="48.6085" lon="1.68714">
        <ele>111</ele>
        <time>2010-05-15T08:28:39Z</time>
      </trkpt>
      <trkpt lat="48.60849" lon="1.68716">
        <ele>111</ele>
        <time>2010-05-15T08:28:40Z</time>
      </trkpt>
      <trkpt lat="48.60849" lon="1.68717">
        <ele>111</ele>
        <time>2010-05-15T08:28:41Z</time>
      </trkpt>
      <trkpt lat="48.60848" lon="1.68719">
        <ele>111</ele>
        <time>2010-05-15T08:28:42Z</time>
      </trkpt>
      <trkpt lat="48.60847" lon="1.68721">
        <ele>111</ele>
        <time>2010-05-15T08:28:43Z</time>
      </trkpt>
      <trkpt lat="48.60846" lon="1.68723">
        <ele>111</ele>
        <time>2010-05-15T08:28:44Z</time>
      </trkpt>
      <trkpt lat="48.60845" lon="1.68725">
        <ele>111</ele>
        <time>2010-05-15T08:28:45Z</time>
      </trkpt>
      <trkpt lat="48.60844" lon="1.68726">
        <ele>111</ele>
        <time>2010-05-15T08:28:46Z</time>
      </trkpt>
      <trkpt lat="48.60843" lon="1.68728">
        <ele>111</ele>
        <time>2010-05-15T08:28:47Z</time>
      </trkpt>
      <trkpt lat="48.60842" lon="1.6873">
        <ele>111</ele>
        <time>2010-05-15T08:28:48Z</time>
      </trkpt>
      <trkpt lat="48.60841" lon="1.68732">
        <ele>111</ele>
        <time>2010-05-15T08:28:49Z</time>
      </trkpt>
      <trkpt lat="48.6084" lon="1.68734">
        <ele>111</ele>
        <time>2010-05-15T08:28:50Z</time>
      </trkpt>
      <trkpt lat="48.60839" lon="1.68736">
        <ele>111</ele>
        <time>2010-05-15T08:28:51Z</time>
      </trkpt>
      <trkpt lat="48.60838" lon="1.68738">
        <ele>111</ele>
        <time>2010-05-15T08:28:52Z</time>
      </trkpt>
      <trkpt lat="48.60837" lon="1.6874">
        <ele>111</ele>
        <time>2010-05-15T08:28:53Z</time>
      </trkpt>
      <trkpt lat="48.60836" lon="1.68742">
        <ele>111</ele>
        <time>2010-05-15T08:28:54Z</time>
      </trkpt>
      <trkpt lat="48.60835" lon="1.68744">
        <ele>111</ele>
        <time>2010-05-15T08:28:55Z</time>
      </trkpt>
      <trkpt lat="48.60834" lon="1.68747">
        <ele>111</ele>
        <time>2010-05-15T08:28:56Z</time>
      </trkpt>
      <trkpt lat="48.60832" lon="1.6875">
        <ele>111</ele>
        <time>2010-05-15T08:28:57Z</time>
      </trkpt>
      <trkpt lat="48.60831" lon="1.68752">
        <ele>111</ele>
        <time>2010-05-15T08:28:58Z</time>
      </trkpt>
      <trkpt lat="48.60829" lon="1.68755">
        <ele>111</ele>
        <time>2010-05-15T08:28:59Z</time>
      </trkpt>
      <trkpt lat="48.60827" lon="1.68757">
        <ele>111</ele>
        <time>2010-05-15T08:29:00Z</time>
      </trkpt>
      <trkpt lat="48.60826" lon="1.6876">
        <ele>111</ele>
        <time>2010-05-15T08:29:01Z</time>
      </trkpt>
      <trkpt lat="48.60824" lon="1.68762">
        <ele>111</ele>
        <time>2010-05-15T08:29:02Z</time>
      </trkpt>
      <trkpt lat="48.60823" lon="1.68764">
        <ele>111</ele>
        <time>2010-05-15T08:29:03Z</time>
      </trkpt>
      <trkpt lat="48.60822" lon="1.68766">
        <ele>111</ele>
        <time>2010-05-15T08:29:04Z</time>
      </trkpt>
      <trkpt lat="48.6082" lon="1.68768">
        <ele>111</ele>
        <time>2010-05-15T08:29:05Z</time>
      </trkpt>
      <trkpt lat="48.60819" lon="1.6877">
        <ele>111</ele>
        <time>2010-05-15T08:29:06Z</time>
      </trkpt>
      <trkpt lat="48.60817" lon="1.68773">
        <ele>111</ele>
        <time>2010-05-15T08:29:08Z</time>
      </trkpt>
      <trkpt lat="48.60815" lon="1.68775">
        <ele>111</ele>
        <time>2010-05-15T08:29:10Z</time>
      </trkpt>
      <trkpt lat="48.60814" lon="1.68777">
        <ele>111</ele>
        <time>2010-05-15T08:29:11Z</time>
      </trkpt>
      <trkpt lat="48.60813" lon="1.68778">
        <ele>111</ele>
        <time>2010-05-15T08:29:12Z</time>
      </trkpt>
      <trkpt lat="48.60812" lon="1.6878">
        <ele>111</ele>
        <time>2010-05-15T08:29:13Z</time>
      </trkpt>
      <trkpt lat="48.6081" lon="1.68782">
        <ele>112</ele>
        <time>2010-05-15T08:29:14Z</time>
      </trkpt>
      <trkpt lat="48.60809" lon="1.68783">
        <ele>112</ele>
        <time>2010-05-15T08:29:15Z</time>
      </trkpt>
      <trkpt lat="48.60808" lon="1.68785">
        <ele>112</ele>
        <time>2010-05-15T08:29:16Z</time>
      </trkpt>
      <trkpt lat="48.60806" lon="1.68787">
        <ele>112</ele>
        <time>2010-05-15T08:29:17Z</time>
      </trkpt>
      <trkpt lat="48.60805" lon="1.68788">
        <ele>112</ele>
        <time>2010-05-15T08:29:18Z</time>
      </trkpt>
      <trkpt lat="48.60804" lon="1.6879">
        <ele>112</ele>
        <time>2010-05-15T08:29:19Z</time>
      </trkpt>
      <trkpt lat="48.60803" lon="1.68792">
        <ele>112</ele>
        <time>2010-05-15T08:29:20Z</time>
      </trkpt>
      <trkpt lat="48.60802" lon="1.68794">
        <ele>112</ele>
        <time>2010-05-15T08:29:21Z</time>
      </trkpt>
      <trkpt lat="48.60801" lon="1.68796">
        <ele>113</ele>
        <time>2010-05-15T08:29:22Z</time>
      </trkpt>
      <trkpt lat="48.608" lon="1.68798">
        <ele>113</ele>
        <time>2010-05-15T08:29:23Z</time>
      </trkpt>
      <trkpt lat="48.60799" lon="1.68799">
        <ele>113</ele>
        <time>2010-05-15T08:29:24Z</time>
      </trkpt>
      <trkpt lat="48.60797" lon="1.68801">
        <ele>113</ele>
        <time>2010-05-15T08:29:25Z</time>
      </trkpt>
      <trkpt lat="48.60796" lon="1.68803">
        <ele>114</ele>
        <time>2010-05-15T08:29:26Z</time>
      </trkpt>
      <trkpt lat="48.60795" lon="1.68804">
        <ele>114</ele>
        <time>2010-05-15T08:29:27Z</time>
      </trkpt>
      <trkpt lat="48.60794" lon="1.68806">
        <ele>114</ele>
        <time>2010-05-15T08:29:28Z</time>
      </trkpt>
      <trkpt lat="48.60793" lon="1.68809">
        <ele>114</ele>
        <time>2010-05-15T08:29:30Z</time>
      </trkpt>
      <trkpt lat="48.60791" lon="1.68812">
        <ele>114</ele>
        <time>2010-05-15T08:29:32Z</time>
      </trkpt>
      <trkpt lat="48.60791" lon="1.68814">
        <ele>114</ele>
        <time>2010-05-15T08:29:33Z</time>
      </trkpt>
      <trkpt lat="48.6079" lon="1.68816">
        <ele>114</ele>
        <time>2010-05-15T08:29:34Z</time>
      </trkpt>
      <trkpt lat="48.60788" lon="1.68819">
        <ele>114</ele>
        <time>2010-05-15T08:29:36Z</time>
      </trkpt>
      <trkpt lat="48.60787" lon="1.6882">
        <ele>114</ele>
        <time>2010-05-15T08:29:37Z</time>
      </trkpt>
      <trkpt lat="48.60785" lon="1.68824">
        <ele>114</ele>
        <time>2010-05-15T08:29:39Z</time>
      </trkpt>
      <trkpt lat="48.60784" lon="1.68826">
        <ele>114</ele>
        <time>2010-05-15T08:29:40Z</time>
      </trkpt>
      <trkpt lat="48.60783" lon="1.68828">
        <ele>114</ele>
        <time>2010-05-15T08:29:41Z</time>
      </trkpt>
      <trkpt lat="48.60782" lon="1.6883">
        <ele>114</ele>
        <time>2010-05-15T08:29:42Z</time>
      </trkpt>
      <trkpt lat="48.60781" lon="1.68832">
        <ele>114</ele>
        <time>2010-05-15T08:29:43Z</time>
      </trkpt>
      <trkpt lat="48.6078" lon="1.68834">
        <ele>114</ele>
        <time>2010-05-15T08:29:44Z</time>
      </trkpt>
      <trkpt lat="48.60779" lon="1.68836">
        <ele>114</ele>
        <time>2010-05-15T08:29:45Z</time>
      </trkpt>
      <trkpt lat="48.60778" lon="1.68839">
        <ele>114</ele>
        <time>2010-05-15T08:29:46Z</time>
      </trkpt>
      <trkpt lat="48.60777" lon="1.68841">
        <ele>114</ele>
        <time>2010-05-15T08:29:47Z</time>
      </trkpt>
      <trkpt lat="48.60776" lon="1.68843">
        <ele>114</ele>
        <time>2010-05-15T08:29:48Z</time>
      </trkpt>
      <trkpt lat="48.60775" lon="1.68845">
        <ele>114</ele>
        <time>2010-05-15T08:29:49Z</time>
      </trkpt>
      <trkpt lat="48.60774" lon="1.68847">
        <ele>114</ele>
        <time>2010-05-15T08:29:50Z</time>
      </trkpt>
      <trkpt lat="48.60773" lon="1.68849">
        <ele>114</ele>
        <time>2010-05-15T08:29:51Z</time>
      </trkpt>
      <trkpt lat="48.60772" lon="1.68851">
        <ele>114</ele>
        <time>2010-05-15T08:29:52Z</time>
      </trkpt>
      <trkpt lat="48.60772" lon="1.68854">
        <ele>114</ele>
        <time>2010-05-15T08:29:53Z</time>
      </trkpt>
      <trkpt lat="48.60771" lon="1.68856">
        <ele>114</ele>
        <time>2010-05-15T08:29:54Z</time>
      </trkpt>
      <trkpt lat="48.6077" lon="1.68859">
        <ele>114</ele>
        <time>2010-05-15T08:29:55Z</time>
      </trkpt>
      <trkpt lat="48.60769" lon="1.68861">
        <ele>114</ele>
        <time>2010-05-15T08:29:56Z</time>
      </trkpt>
      <trkpt lat="48.60768" lon="1.68863">
        <ele>114</ele>
        <time>2010-05-15T08:29:57Z</time>
      </trkpt>
      <trkpt lat="48.60767" lon="1.68866">
        <ele>114</ele>
        <time>2010-05-15T08:29:58Z</time>
      </trkpt>
      <trkpt lat="48.60766" lon="1.68868">
        <ele>114</ele>
        <time>2010-05-15T08:29:59Z</time>
      </trkpt>
      <trkpt lat="48.60765" lon="1.68871">
        <ele>114</ele>
        <time>2010-05-15T08:30:00Z</time>
      </trkpt>
      <trkpt lat="48.60764" lon="1.68875">
        <ele>114</ele>
        <time>2010-05-15T08:30:01Z</time>
      </trkpt>
      <trkpt lat="48.60764" lon="1.68878">
        <ele>114</ele>
        <time>2010-05-15T08:30:02Z</time>
      </trkpt>
      <trkpt lat="48.60762" lon="1.68882">
        <ele>114</ele>
        <time>2010-05-15T08:30:03Z</time>
      </trkpt>
      <trkpt lat="48.60761" lon="1.68885">
        <ele>114</ele>
        <time>2010-05-15T08:30:04Z</time>
      </trkpt>
      <trkpt lat="48.6076" lon="1.68887">
        <ele>114</ele>
        <time>2010-05-15T08:30:05Z</time>
      </trkpt>
      <trkpt lat="48.60759" lon="1.6889">
        <ele>114</ele>
        <time>2010-05-15T08:30:06Z</time>
      </trkpt>
      <trkpt lat="48.60759" lon="1.68892">
        <ele>114</ele>
        <time>2010-05-15T08:30:07Z</time>
      </trkpt>
      <trkpt lat="48.60758" lon="1.68894">
        <ele>114</ele>
        <time>2010-05-15T08:30:08Z</time>
      </trkpt>
      <trkpt lat="48.60758" lon="1.68896">
        <ele>114</ele>
        <time>2010-05-15T08:30:09Z</time>
      </trkpt>
      <trkpt lat="48.60757" lon="1.68898">
        <ele>114</ele>
        <time>2010-05-15T08:30:10Z</time>
      </trkpt>
      <trkpt lat="48.60756" lon="1.689">
        <ele>114</ele>
        <time>2010-05-15T08:30:11Z</time>
      </trkpt>
      <trkpt lat="48.60756" lon="1.68902">
        <ele>114</ele>
        <time>2010-05-15T08:30:12Z</time>
      </trkpt>
      <trkpt lat="48.60755" lon="1.68904">
        <ele>114</ele>
        <time>2010-05-15T08:30:13Z</time>
      </trkpt>
      <trkpt lat="48.60755" lon="1.68906">
        <ele>114</ele>
        <time>2010-05-15T08:30:14Z</time>
      </trkpt>
      <trkpt lat="48.60754" lon="1.68908">
        <ele>114</ele>
        <time>2010-05-15T08:30:15Z</time>
      </trkpt>
      <trkpt lat="48.60754" lon="1.6891">
        <ele>114</ele>
        <time>2010-05-15T08:30:16Z</time>
      </trkpt>
      <trkpt lat="48.60753" lon="1.68912">
        <ele>114</ele>
        <time>2010-05-15T08:30:17Z</time>
      </trkpt>
      <trkpt lat="48.60752" lon="1.68914">
        <ele>114</ele>
        <time>2010-05-15T08:30:18Z</time>
      </trkpt>
      <trkpt lat="48.60752" lon="1.68916">
        <ele>114</ele>
        <time>2010-05-15T08:30:19Z</time>
      </trkpt>
      <trkpt lat="48.60751" lon="1.68918">
        <ele>114</ele>
        <time>2010-05-15T08:30:20Z</time>
      </trkpt>
      <trkpt lat="48.6075" lon="1.6892">
        <ele>114</ele>
        <time>2010-05-15T08:30:21Z</time>
      </trkpt>
      <trkpt lat="48.60749" lon="1.68922">
        <ele>115</ele>
        <time>2010-05-15T08:30:22Z</time>
      </trkpt>
      <trkpt lat="48.60749" lon="1.68924">
        <ele>115</ele>
        <time>2010-05-15T08:30:23Z</time>
      </trkpt>
      <trkpt lat="48.60748" lon="1.68926">
        <ele>115</ele>
        <time>2010-05-15T08:30:24Z</time>
      </trkpt>
      <trkpt lat="48.60747" lon="1.68928">
        <ele>115</ele>
        <time>2010-05-15T08:30:25Z</time>
      </trkpt>
      <trkpt lat="48.60747" lon="1.6893">
        <ele>115</ele>
        <time>2010-05-15T08:30:26Z</time>
      </trkpt>
      <trkpt lat="48.60746" lon="1.68932">
        <ele>115</ele>
        <time>2010-05-15T08:30:27Z</time>
      </trkpt>
      <trkpt lat="48.60745" lon="1.68934">
        <ele>116</ele>
        <time>2010-05-15T08:30:28Z</time>
      </trkpt>
      <trkpt lat="48.60744" lon="1.68936">
        <ele>116</ele>
        <time>2010-05-15T08:30:29Z</time>
      </trkpt>
      <trkpt lat="48.60744" lon="1.68939">
        <ele>116</ele>
        <time>2010-05-15T08:30:30Z</time>
      </trkpt>
      <trkpt lat="48.60743" lon="1.68941">
        <ele>116</ele>
        <time>2010-05-15T08:30:31Z</time>
      </trkpt>
      <trkpt lat="48.60742" lon="1.68943">
        <ele>116</ele>
        <time>2010-05-15T08:30:32Z</time>
      </trkpt>
      <trkpt lat="48.60741" lon="1.68945">
        <ele>116</ele>
        <time>2010-05-15T08:30:33Z</time>
      </trkpt>
      <trkpt lat="48.60741" lon="1.68947">
        <ele>116</ele>
        <time>2010-05-15T08:30:34Z</time>
      </trkpt>
      <trkpt lat="48.6074" lon="1.68949">
        <ele>116</ele>
        <time>2010-05-15T08:30:35Z</time>
      </trkpt>
      <trkpt lat="48.60739" lon="1.68951">
        <ele>116</ele>
        <time>2010-05-15T08:30:36Z</time>
      </trkpt>
      <trkpt lat="48.60739" lon="1.68953">
        <ele>116</ele>
        <time>2010-05-15T08:30:37Z</time>
      </trkpt>
      <trkpt lat="48.60738" lon="1.68956">
        <ele>116</ele>
        <time>2010-05-15T08:30:38Z</time>
      </trkpt>
      <trkpt lat="48.60738" lon="1.68958">
        <ele>116</ele>
        <time>2010-05-15T08:30:39Z</time>
      </trkpt>
      <trkpt lat="48.60737" lon="1.6896">
        <ele>116</ele>
        <time>2010-05-15T08:30:40Z</time>
      </trkpt>
      <trkpt lat="48.60736" lon="1.68962">
        <ele>116</ele>
        <time>2010-05-15T08:30:41Z</time>
      </trkpt>
      <trkpt lat="48.60736" lon="1.68964">
        <ele>116</ele>
        <time>2010-05-15T08:30:42Z</time>
      </trkpt>
      <trkpt lat="48.60735" lon="1.68966">
        <ele>116</ele>
        <time>2010-05-15T08:30:43Z</time>
      </trkpt>
      <trkpt lat="48.60735" lon="1.68968">
        <ele>116</ele>
        <time>2010-05-15T08:30:44Z</time>
      </trkpt>
      <trkpt lat="48.60734" lon="1.6897">
        <ele>116</ele>
        <time>2010-05-15T08:30:45Z</time>
      </trkpt>
      <trkpt lat="48.60733" lon="1.68972">
        <ele>116</ele>
        <time>2010-05-15T08:30:46Z</time>
      </trkpt>
      <trkpt lat="48.60732" lon="1.68974">
        <ele>116</ele>
        <time>2010-05-15T08:30:47Z</time>
      </trkpt>
      <trkpt lat="48.60732" lon="1.68976">
        <ele>116</ele>
        <time>2010-05-15T08:30:48Z</time>
      </trkpt>
      <trkpt lat="48.60731" lon="1.68979">
        <ele>116</ele>
        <time>2010-05-15T08:30:49Z</time>
      </trkpt>
      <trkpt lat="48.6073" lon="1.68981">
        <ele>116</ele>
        <time>2010-05-15T08:30:50Z</time>
      </trkpt>
      <trkpt lat="48.60728" lon="1.68983">
        <ele>116</ele>
        <time>2010-05-15T08:30:51Z</time>
      </trkpt>
      <trkpt lat="48.60727" lon="1.68985">
        <ele>116</ele>
        <time>2010-05-15T08:30:52Z</time>
      </trkpt>
      <trkpt lat="48.60727" lon="1.68987">
        <ele>116</ele>
        <time>2010-05-15T08:30:53Z</time>
      </trkpt>
      <trkpt lat="48.60726" lon="1.68989">
        <ele>116</ele>
        <time>2010-05-15T08:30:54Z</time>
      </trkpt>
      <trkpt lat="48.60725" lon="1.6899">
        <ele>116</ele>
        <time>2010-05-15T08:30:55Z</time>
      </trkpt>
      <trkpt lat="48.60724" lon="1.68992">
        <ele>116</ele>
        <time>2010-05-15T08:30:56Z</time>
      </trkpt>
      <trkpt lat="48.60723" lon="1.68994">
        <ele>116</ele>
        <time>2010-05-15T08:30:57Z</time>
      </trkpt>
      <trkpt lat="48.60722" lon="1.68996">
        <ele>116</ele>
        <time>2010-05-15T08:30:58Z</time>
      </trkpt>
      <trkpt lat="48.60721" lon="1.68998">
        <ele>116</ele>
        <time>2010-05-15T08:30:59Z</time>
      </trkpt>
      <trkpt lat="48.6072" lon="1.69">
        <ele>116</ele>
        <time>2010-05-15T08:31:00Z</time>
      </trkpt>
      <trkpt lat="48.60719" lon="1.69002">
        <ele>116</ele>
        <time>2010-05-15T08:31:01Z</time>
      </trkpt>
      <trkpt lat="48.60718" lon="1.69004">
        <ele>116</ele>
        <time>2010-05-15T08:31:02Z</time>
      </trkpt>
      <trkpt lat="48.60717" lon="1.69006">
        <ele>116</ele>
        <time>2010-05-15T08:31:03Z</time>
      </trkpt>
      <trkpt lat="48.60716" lon="1.69008">
        <ele>116</ele>
        <time>2010-05-15T08:31:04Z</time>
      </trkpt>
      <trkpt lat="48.60715" lon="1.6901">
        <ele>116</ele>
        <time>2010-05-15T08:31:05Z</time>
      </trkpt>
      <trkpt lat="48.60714" lon="1.69012">
        <ele>116</ele>
        <time>2010-05-15T08:31:06Z</time>
      </trkpt>
      <trkpt lat="48.60713" lon="1.69013">
        <ele>116</ele>
        <time>2010-05-15T08:31:07Z</time>
      </trkpt>
      <trkpt lat="48.60712" lon="1.69015">
        <ele>116</ele>
        <time>2010-05-15T08:31:08Z</time>
      </trkpt>
      <trkpt lat="48.60711" lon="1.69017">
        <ele>116</ele>
        <time>2010-05-15T08:31:09Z</time>
      </trkpt>
      <trkpt lat="48.6071" lon="1.69019">
        <ele>116</ele>
        <time>2010-05-15T08:31:10Z</time>
      </trkpt>
      <trkpt lat="48.60709" lon="1.69021">
        <ele>116</ele>
        <time>2010-05-15T08:31:11Z</time>
      </trkpt>
      <trkpt lat="48.60708" lon="1.69022">
        <ele>116</ele>
        <time>2010-05-15T08:31:12Z</time>
      </trkpt>
      <trkpt lat="48.60706" lon="1.69024">
        <ele>116</ele>
        <time>2010-05-15T08:31:13Z</time>
      </trkpt>
      <trkpt lat="48.60705" lon="1.69026">
        <ele>116</ele>
        <time>2010-05-15T08:31:14Z</time>
      </trkpt>
      <trkpt lat="48.60703" lon="1.69029">
        <ele>116</ele>
        <time>2010-05-15T08:31:16Z</time>
      </trkpt>
      <trkpt lat="48.60702" lon="1.69031">
        <ele>116</ele>
        <time>2010-05-15T08:31:17Z</time>
      </trkpt>
      <trkpt lat="48.60701" lon="1.69032">
        <ele>116</ele>
        <time>2010-05-15T08:31:18Z</time>
      </trkpt>
      <trkpt lat="48.607" lon="1.69034">
        <ele>116</ele>
        <time>2010-05-15T08:31:19Z</time>
      </trkpt>
      <trkpt lat="48.60698" lon="1.69037">
        <ele>116</ele>
        <time>2010-05-15T08:31:21Z</time>
      </trkpt>
      <trkpt lat="48.60697" lon="1.69039">
        <ele>116</ele>
        <time>2010-05-15T08:31:22Z</time>
      </trkpt>
      <trkpt lat="48.60697" lon="1.69041">
        <ele>116</ele>
        <time>2010-05-15T08:31:23Z</time>
      </trkpt>
      <trkpt lat="48.60696" lon="1.69044">
        <ele>116</ele>
        <time>2010-05-15T08:31:24Z</time>
      </trkpt>
      <trkpt lat="48.60695" lon="1.69046">
        <ele>116</ele>
        <time>2010-05-15T08:31:25Z</time>
      </trkpt>
      <trkpt lat="48.60695" lon="1.69048">
        <ele>116</ele>
        <time>2010-05-15T08:31:26Z</time>
      </trkpt>
      <trkpt lat="48.60694" lon="1.69051">
        <ele>116</ele>
        <time>2010-05-15T08:31:27Z</time>
      </trkpt>
      <trkpt lat="48.60693" lon="1.69053">
        <ele>116</ele>
        <time>2010-05-15T08:31:28Z</time>
      </trkpt>
      <trkpt lat="48.60692" lon="1.69056">
        <ele>116</ele>
        <time>2010-05-15T08:31:29Z</time>
      </trkpt>
      <trkpt lat="48.60692" lon="1.69059">
        <ele>116</ele>
        <time>2010-05-15T08:31:30Z</time>
      </trkpt>
      <trkpt lat="48.60691" lon="1.69062">
        <ele>116</ele>
        <time>2010-05-15T08:31:31Z</time>
      </trkpt>
      <trkpt lat="48.60691" lon="1.69065">
        <ele>116</ele>
        <time>2010-05-15T08:31:32Z</time>
      </trkpt>
      <trkpt lat="48.6069" lon="1.69069">
        <ele>116</ele>
        <time>2010-05-15T08:31:33Z</time>
      </trkpt>
      <trkpt lat="48.60691" lon="1.69071">
        <ele>116</ele>
        <time>2010-05-15T08:31:34Z</time>
      </trkpt>
      <trkpt lat="48.60691" lon="1.69074">
        <ele>116</ele>
        <time>2010-05-15T08:31:35Z</time>
      </trkpt>
      <trkpt lat="48.60691" lon="1.69076">
        <ele>116</ele>
        <time>2010-05-15T08:31:36Z</time>
      </trkpt>
      <trkpt lat="48.60691" lon="1.69079">
        <ele>116</ele>
        <time>2010-05-15T08:31:37Z</time>
      </trkpt>
      <trkpt lat="48.60691" lon="1.69082">
        <ele>116</ele>
        <time>2010-05-15T08:31:38Z</time>
      </trkpt>
      <trkpt lat="48.6069" lon="1.69085">
        <ele>116</ele>
        <time>2010-05-15T08:31:39Z</time>
      </trkpt>
      <trkpt lat="48.6069" lon="1.69088">
        <ele>116</ele>
        <time>2010-05-15T08:31:40Z</time>
      </trkpt>
      <trkpt lat="48.6069" lon="1.69091">
        <ele>117</ele>
        <time>2010-05-15T08:31:41Z</time>
      </trkpt>
      <trkpt lat="48.60689" lon="1.69093">
        <ele>117</ele>
        <time>2010-05-15T08:31:42Z</time>
      </trkpt>
      <trkpt lat="48.60689" lon="1.69096">
        <ele>117</ele>
        <time>2010-05-15T08:31:43Z</time>
      </trkpt>
      <trkpt lat="48.60689" lon="1.69099">
        <ele>118</ele>
        <time>2010-05-15T08:31:44Z</time>
      </trkpt>
      <trkpt lat="48.60689" lon="1.69101">
        <ele>118</ele>
        <time>2010-05-15T08:31:45Z</time>
      </trkpt>
      <trkpt lat="48.60689" lon="1.69104">
        <ele>118</ele>
        <time>2010-05-15T08:31:46Z</time>
      </trkpt>
      <trkpt lat="48.60689" lon="1.69106">
        <ele>119</ele>
        <time>2010-05-15T08:31:47Z</time>
      </trkpt>
      <trkpt lat="48.60689" lon="1.69109">
        <ele>119</ele>
        <time>2010-05-15T08:31:48Z</time>
      </trkpt>
      <trkpt lat="48.60688" lon="1.69111">
        <ele>119</ele>
        <time>2010-05-15T08:31:49Z</time>
      </trkpt>
      <trkpt lat="48.60688" lon="1.69113">
        <ele>119</ele>
        <time>2010-05-15T08:31:50Z</time>
      </trkpt>
      <trkpt lat="48.60688" lon="1.69116">
        <ele>119</ele>
        <time>2010-05-15T08:31:51Z</time>
      </trkpt>
      <trkpt lat="48.60687" lon="1.69118">
        <ele>119</ele>
        <time>2010-05-15T08:31:52Z</time>
      </trkpt>
      <trkpt lat="48.60687" lon="1.6912">
        <ele>119</ele>
        <time>2010-05-15T08:31:53Z</time>
      </trkpt>
      <trkpt lat="48.60686" lon="1.69123">
        <ele>119</ele>
        <time>2010-05-15T08:31:54Z</time>
      </trkpt>
      <trkpt lat="48.60686" lon="1.69125">
        <ele>119</ele>
        <time>2010-05-15T08:31:55Z</time>
      </trkpt>
      <trkpt lat="48.60686" lon="1.69127">
        <ele>119</ele>
        <time>2010-05-15T08:31:56Z</time>
      </trkpt>
      <trkpt lat="48.60685" lon="1.69129">
        <ele>119</ele>
        <time>2010-05-15T08:31:57Z</time>
      </trkpt>
      <trkpt lat="48.60685" lon="1.6913">
        <ele>119</ele>
        <time>2010-05-15T08:31:58Z</time>
      </trkpt>
      <trkpt lat="48.60685" lon="1.69132">
        <ele>119</ele>
        <time>2010-05-15T08:31:59Z</time>
      </trkpt>
      <trkpt lat="48.60685" lon="1.69134">
        <ele>119</ele>
        <time>2010-05-15T08:32:00Z</time>
      </trkpt>
      <trkpt lat="48.60684" lon="1.69136">
        <ele>119</ele>
        <time>2010-05-15T08:32:01Z</time>
      </trkpt>
      <trkpt lat="48.60684" lon="1.69138">
        <ele>119</ele>
        <time>2010-05-15T08:32:02Z</time>
      </trkpt>
      <trkpt lat="48.60683" lon="1.6914">
        <ele>119</ele>
        <time>2010-05-15T08:32:03Z</time>
      </trkpt>
      <trkpt lat="48.60683" lon="1.69142">
        <ele>119</ele>
        <time>2010-05-15T08:32:04Z</time>
      </trkpt>
      <trkpt lat="48.60682" lon="1.69143">
        <ele>119</ele>
        <time>2010-05-15T08:32:05Z</time>
      </trkpt>
      <trkpt lat="48.60682" lon="1.69145">
        <ele>119</ele>
        <time>2010-05-15T08:32:08Z</time>
      </trkpt>
      <trkpt lat="48.60682" lon="1.69143">
        <ele>119</ele>
        <time>2010-05-15T08:32:13Z</time>
      </trkpt>
      <trkpt lat="48.60682" lon="1.69141">
        <ele>119</ele>
        <time>2010-05-15T08:32:28Z</time>
      </trkpt>
      <trkpt lat="48.60683" lon="1.6914">
        <ele>119</ele>
        <time>2010-05-15T08:32:39Z</time>
      </trkpt>
      <trkpt lat="48.60683" lon="1.69138">
        <ele>119</ele>
        <time>2010-05-15T08:32:43Z</time>
      </trkpt>
      <trkpt lat="48.60684" lon="1.69136">
        <ele>119</ele>
        <time>2010-05-15T08:32:57Z</time>
      </trkpt>
      <trkpt lat="48.60683" lon="1.69134">
        <ele>123</ele>
        <time>2010-05-15T08:33:16Z</time>
      </trkpt>
      <trkpt lat="48.60683" lon="1.69132">
        <ele>123</ele>
        <time>2010-05-15T08:33:18Z</time>
      </trkpt>
      <trkpt lat="48.60682" lon="1.69135">
        <ele>123</ele>
        <time>2010-05-15T08:33:22Z</time>
      </trkpt>
      <trkpt lat="48.60682" lon="1.69136">
        <ele>123</ele>
        <time>2010-05-15T08:33:23Z</time>
      </trkpt>
      <trkpt lat="48.60681" lon="1.69138">
        <ele>123</ele>
        <time>2010-05-15T08:33:24Z</time>
      </trkpt>
      <trkpt lat="48.60681" lon="1.6914">
        <ele>123</ele>
        <time>2010-05-15T08:33:25Z</time>
      </trkpt>
      <trkpt lat="48.6068" lon="1.69142">
        <ele>123</ele>
        <time>2010-05-15T08:33:26Z</time>
      </trkpt>
      <trkpt lat="48.60679" lon="1.69144">
        <ele>123</ele>
        <time>2010-05-15T08:33:27Z</time>
      </trkpt>
      <trkpt lat="48.60679" lon="1.69147">
        <ele>123</ele>
        <time>2010-05-15T08:33:28Z</time>
      </trkpt>
      <trkpt lat="48.60678" lon="1.69149">
        <ele>123</ele>
        <time>2010-05-15T08:33:29Z</time>
      </trkpt>
      <trkpt lat="48.60677" lon="1.69151">
        <ele>123</ele>
        <time>2010-05-15T08:33:30Z</time>
      </trkpt>
      <trkpt lat="48.60677" lon="1.69153">
        <ele>123</ele>
        <time>2010-05-15T08:33:31Z</time>
      </trkpt>
      <trkpt lat="48.60676" lon="1.69155">
        <ele>123</ele>
        <time>2010-05-15T08:33:32Z</time>
      </trkpt>
      <trkpt lat="48.60676" lon="1.69157">
        <ele>123</ele>
        <time>2010-05-15T08:33:33Z</time>
      </trkpt>
      <trkpt lat="48.60675" lon="1.69159">
        <ele>123</ele>
        <time>2010-05-15T08:33:34Z</time>
      </trkpt>
      <trkpt lat="48.60674" lon="1.69161">
        <ele>123</ele>
        <time>2010-05-15T08:33:35Z</time>
      </trkpt>
      <trkpt lat="48.60674" lon="1.69163">
        <ele>123</ele>
        <time>2010-05-15T08:33:36Z</time>
      </trkpt>
      <trkpt lat="48.60673" lon="1.69165">
        <ele>123</ele>
        <time>2010-05-15T08:33:37Z</time>
      </trkpt>
      <trkpt lat="48.60673" lon="1.69167">
        <ele>123</ele>
        <time>2010-05-15T08:33:38Z</time>
      </trkpt>
      <trkpt lat="48.60672" lon="1.69169">
        <ele>123</ele>
        <time>2010-05-15T08:33:39Z</time>
      </trkpt>
      <trkpt lat="48.60671" lon="1.69172">
        <ele>123</ele>
        <time>2010-05-15T08:33:40Z</time>
      </trkpt>
      <trkpt lat="48.6067" lon="1.69173">
        <ele>123</ele>
        <time>2010-05-15T08:33:41Z</time>
      </trkpt>
      <trkpt lat="48.60669" lon="1.69175">
        <ele>123</ele>
        <time>2010-05-15T08:33:42Z</time>
      </trkpt>
      <trkpt lat="48.60668" lon="1.69177">
        <ele>123</ele>
        <time>2010-05-15T08:33:43Z</time>
      </trkpt>
      <trkpt lat="48.60668" lon="1.69179">
        <ele>123</ele>
        <time>2010-05-15T08:33:44Z</time>
      </trkpt>
      <trkpt lat="48.60667" lon="1.69181">
        <ele>123</ele>
        <time>2010-05-15T08:33:45Z</time>
      </trkpt>
      <trkpt lat="48.60666" lon="1.69184">
        <ele>123</ele>
        <time>2010-05-15T08:33:46Z</time>
      </trkpt>
      <trkpt lat="48.60666" lon="1.69186">
        <ele>123</ele>
        <time>2010-05-15T08:33:47Z</time>
      </trkpt>
      <trkpt lat="48.60665" lon="1.69188">
        <ele>123</ele>
        <time>2010-05-15T08:33:48Z</time>
      </trkpt>
      <trkpt lat="48.60664" lon="1.69191">
        <ele>123</ele>
        <time>2010-05-15T08:33:49Z</time>
      </trkpt>
      <trkpt lat="48.60664" lon="1.69193">
        <ele>123</ele>
        <time>2010-05-15T08:33:50Z</time>
      </trkpt>
      <trkpt lat="48.60663" lon="1.69195">
        <ele>123</ele>
        <time>2010-05-15T08:33:51Z</time>
      </trkpt>
      <trkpt lat="48.60663" lon="1.69198">
        <ele>123</ele>
        <time>2010-05-15T08:33:52Z</time>
      </trkpt>
      <trkpt lat="48.60662" lon="1.692">
        <ele>123</ele>
        <time>2010-05-15T08:33:53Z</time>
      </trkpt>
      <trkpt lat="48.60661" lon="1.69202">
        <ele>123</ele>
        <time>2010-05-15T08:33:54Z</time>
      </trkpt>
      <trkpt lat="48.60661" lon="1.69204">
        <ele>123</ele>
        <time>2010-05-15T08:33:55Z</time>
      </trkpt>
      <trkpt lat="48.6066" lon="1.69207">
        <ele>123</ele>
        <time>2010-05-15T08:33:56Z</time>
      </trkpt>
      <trkpt lat="48.60659" lon="1.69209">
        <ele>123</ele>
        <time>2010-05-15T08:33:57Z</time>
      </trkpt>
      <trkpt lat="48.60659" lon="1.69211">
        <ele>123</ele>
        <time>2010-05-15T08:33:58Z</time>
      </trkpt>
      <trkpt lat="48.60659" lon="1.69213">
        <ele>123</ele>
        <time>2010-05-15T08:33:59Z</time>
      </trkpt>
      <trkpt lat="48.60658" lon="1.69216">
        <ele>123</ele>
        <time>2010-05-15T08:34:01Z</time>
      </trkpt>
      <trkpt lat="48.60657" lon="1.69218">
        <ele>123</ele>
        <time>2010-05-15T08:34:02Z</time>
      </trkpt>
      <trkpt lat="48.60657" lon="1.6922">
        <ele>123</ele>
        <time>2010-05-15T08:34:03Z</time>
      </trkpt>
      <trkpt lat="48.60657" lon="1.69222">
        <ele>123</ele>
        <time>2010-05-15T08:34:04Z</time>
      </trkpt>
      <trkpt lat="48.60656" lon="1.69225">
        <ele>123</ele>
        <time>2010-05-15T08:34:05Z</time>
      </trkpt>
      <trkpt lat="48.60656" lon="1.69227">
        <ele>123</ele>
        <time>2010-05-15T08:34:06Z</time>
      </trkpt>
      <trkpt lat="48.60655" lon="1.6923">
        <ele>123</ele>
        <time>2010-05-15T08:34:07Z</time>
      </trkpt>
      <trkpt lat="48.60654" lon="1.69232">
        <ele>123</ele>
        <time>2010-05-15T08:34:08Z</time>
      </trkpt>
      <trkpt lat="48.60654" lon="1.69235">
        <ele>123</ele>
        <time>2010-05-15T08:34:09Z</time>
      </trkpt>
      <trkpt lat="48.60653" lon="1.69237">
        <ele>123</ele>
        <time>2010-05-15T08:34:10Z</time>
      </trkpt>
      <trkpt lat="48.60652" lon="1.69239">
        <ele>123</ele>
        <time>2010-05-15T08:34:11Z</time>
      </trkpt>
      <trkpt lat="48.60652" lon="1.69242">
        <ele>123</ele>
        <time>2010-05-15T08:34:12Z</time>
      </trkpt>
      <trkpt lat="48.60651" lon="1.69244">
        <ele>123</ele>
        <time>2010-05-15T08:34:13Z</time>
      </trkpt>
      <trkpt lat="48.6065" lon="1.69246">
        <ele>123</ele>
        <time>2010-05-15T08:34:14Z</time>
      </trkpt>
      <trkpt lat="48.6065" lon="1.69249">
        <ele>123</ele>
        <time>2010-05-15T08:34:15Z</time>
      </trkpt>
      <trkpt lat="48.60649" lon="1.69251">
        <ele>123</ele>
        <time>2010-05-15T08:34:16Z</time>
      </trkpt>
      <trkpt lat="48.60649" lon="1.69254">
        <ele>123</ele>
        <time>2010-05-15T08:34:17Z</time>
      </trkpt>
      <trkpt lat="48.60648" lon="1.69256">
        <ele>123</ele>
        <time>2010-05-15T08:34:18Z</time>
      </trkpt>
      <trkpt lat="48.60648" lon="1.69259">
        <ele>123</ele>
        <time>2010-05-15T08:34:19Z</time>
      </trkpt>
      <trkpt lat="48.60647" lon="1.69261">
        <ele>123</ele>
        <time>2010-05-15T08:34:20Z</time>
      </trkpt>
      <trkpt lat="48.60646" lon="1.69263">
        <ele>123</ele>
        <time>2010-05-15T08:34:21Z</time>
      </trkpt>
      <trkpt lat="48.60644" lon="1.69266">
        <ele>123</ele>
        <time>2010-05-15T08:34:22Z</time>
      </trkpt>
      <trkpt lat="48.60643" lon="1.69269">
        <ele>123</ele>
        <time>2010-05-15T08:34:23Z</time>
      </trkpt>
      <trkpt lat="48.60642" lon="1.69272">
        <ele>123</ele>
        <time>2010-05-15T08:34:24Z</time>
      </trkpt>
      <trkpt lat="48.60641" lon="1.69275">
        <ele>123</ele>
        <time>2010-05-15T08:34:25Z</time>
      </trkpt>
      <trkpt lat="48.6064" lon="1.69278">
        <ele>124</ele>
        <time>2010-05-15T08:34:26Z</time>
      </trkpt>
      <trkpt lat="48.60638" lon="1.69281">
        <ele>125</ele>
        <time>2010-05-15T08:34:27Z</time>
      </trkpt>
      <trkpt lat="48.60638" lon="1.69283">
        <ele>126</ele>
        <time>2010-05-15T08:34:28Z</time>
      </trkpt>
      <trkpt lat="48.60638" lon="1.69285">
        <ele>126</ele>
        <time>2010-05-15T08:34:29Z</time>
      </trkpt>
      <trkpt lat="48.60638" lon="1.69287">
        <ele>127</ele>
        <time>2010-05-15T08:34:30Z</time>
      </trkpt>
      <trkpt lat="48.60638" lon="1.6929">
        <ele>127</ele>
        <time>2010-05-15T08:34:31Z</time>
      </trkpt>
      <trkpt lat="48.60638" lon="1.69292">
        <ele>127</ele>
        <time>2010-05-15T08:34:32Z</time>
      </trkpt>
      <trkpt lat="48.60638" lon="1.69294">
        <ele>127</ele>
        <time>2010-05-15T08:34:33Z</time>
      </trkpt>
      <trkpt lat="48.60637" lon="1.69296">
        <ele>127</ele>
        <time>2010-05-15T08:34:34Z</time>
      </trkpt>
      <trkpt lat="48.60637" lon="1.69298">
        <ele>128</ele>
        <time>2010-05-15T08:34:35Z</time>
      </trkpt>
      <trkpt lat="48.60637" lon="1.693">
        <ele>128</ele>
        <time>2010-05-15T08:34:36Z</time>
      </trkpt>
      <trkpt lat="48.60636" lon="1.69302">
        <ele>128</ele>
        <time>2010-05-15T08:34:37Z</time>
      </trkpt>
      <trkpt lat="48.60636" lon="1.69304">
        <ele>128</ele>
        <time>2010-05-15T08:34:38Z</time>
      </trkpt>
      <trkpt lat="48.60636" lon="1.69307">
        <ele>128</ele>
        <time>2010-05-15T08:34:39Z</time>
      </trkpt>
      <trkpt lat="48.60636" lon="1.69309">
        <ele>128</ele>
        <time>2010-05-15T08:34:40Z</time>
      </trkpt>
      <trkpt lat="48.60636" lon="1.69311">
        <ele>128</ele>
        <time>2010-05-15T08:34:41Z</time>
      </trkpt>
      <trkpt lat="48.60635" lon="1.69313">
        <ele>128</ele>
        <time>2010-05-15T08:34:42Z</time>
      </trkpt>
      <trkpt lat="48.60635" lon="1.69315">
        <ele>128</ele>
        <time>2010-05-15T08:34:43Z</time>
      </trkpt>
      <trkpt lat="48.60634" lon="1.69317">
        <ele>128</ele>
        <time>2010-05-15T08:34:44Z</time>
      </trkpt>
      <trkpt lat="48.60634" lon="1.69319">
        <ele>128</ele>
        <time>2010-05-15T08:34:45Z</time>
      </trkpt>
      <trkpt lat="48.60633" lon="1.69322">
        <ele>129</ele>
        <time>2010-05-15T08:34:47Z</time>
      </trkpt>
      <trkpt lat="48.60633" lon="1.69324">
        <ele>129</ele>
        <time>2010-05-15T08:34:48Z</time>
      </trkpt>
      <trkpt lat="48.60633" lon="1.69326">
        <ele>129</ele>
        <time>2010-05-15T08:34:49Z</time>
      </trkpt>
      <trkpt lat="48.60632" lon="1.69329">
        <ele>130</ele>
        <time>2010-05-15T08:34:50Z</time>
      </trkpt>
      <trkpt lat="48.60632" lon="1.69331">
        <ele>130</ele>
        <time>2010-05-15T08:34:51Z</time>
      </trkpt>
      <trkpt lat="48.60631" lon="1.69334">
        <ele>130</ele>
        <time>2010-05-15T08:34:52Z</time>
      </trkpt>
      <trkpt lat="48.60631" lon="1.69336">
        <ele>130</ele>
        <time>2010-05-15T08:34:53Z</time>
      </trkpt>
      <trkpt lat="48.6063" lon="1.69339">
        <ele>130</ele>
        <time>2010-05-15T08:34:54Z</time>
      </trkpt>
      <trkpt lat="48.60631" lon="1.69341">
        <ele>130</ele>
        <time>2010-05-15T08:34:55Z</time>
      </trkpt>
      <trkpt lat="48.6063" lon="1.69343">
        <ele>130</ele>
        <time>2010-05-15T08:34:56Z</time>
      </trkpt>
      <trkpt lat="48.6063" lon="1.69345">
        <ele>130</ele>
        <time>2010-05-15T08:34:57Z</time>
      </trkpt>
      <trkpt lat="48.6063" lon="1.69347">
        <ele>130</ele>
        <time>2010-05-15T08:34:58Z</time>
      </trkpt>
      <trkpt lat="48.6063" lon="1.69349">
        <ele>130</ele>
        <time>2010-05-15T08:34:59Z</time>
      </trkpt>
      <trkpt lat="48.60629" lon="1.69352">
        <ele>130</ele>
        <time>2010-05-15T08:35:00Z</time>
      </trkpt>
      <trkpt lat="48.60629" lon="1.69354">
        <ele>130</ele>
        <time>2010-05-15T08:35:01Z</time>
      </trkpt>
      <trkpt lat="48.60628" lon="1.69357">
        <ele>130</ele>
        <time>2010-05-15T08:35:02Z</time>
      </trkpt>
      <trkpt lat="48.60627" lon="1.69359">
        <ele>130</ele>
        <time>2010-05-15T08:35:03Z</time>
      </trkpt>
      <trkpt lat="48.60627" lon="1.69361">
        <ele>131</ele>
        <time>2010-05-15T08:35:04Z</time>
      </trkpt>
      <trkpt lat="48.60626" lon="1.69363">
        <ele>131</ele>
        <time>2010-05-15T08:35:05Z</time>
      </trkpt>
      <trkpt lat="48.60625" lon="1.69364">
        <ele>131</ele>
        <time>2010-05-15T08:35:06Z</time>
      </trkpt>
      <trkpt lat="48.60624" lon="1.69366">
        <ele>131</ele>
        <time>2010-05-15T08:35:07Z</time>
      </trkpt>
      <trkpt lat="48.60623" lon="1.69368">
        <ele>132</ele>
        <time>2010-05-15T08:35:08Z</time>
      </trkpt>
      <trkpt lat="48.60622" lon="1.6937">
        <ele>132</ele>
        <time>2010-05-15T08:35:09Z</time>
      </trkpt>
      <trkpt lat="48.60621" lon="1.69372">
        <ele>133</ele>
        <time>2010-05-15T08:35:10Z</time>
      </trkpt>
      <trkpt lat="48.6062" lon="1.69374">
        <ele>133</ele>
        <time>2010-05-15T08:35:11Z</time>
      </trkpt>
      <trkpt lat="48.6062" lon="1.69376">
        <ele>133</ele>
        <time>2010-05-15T08:35:12Z</time>
      </trkpt>
      <trkpt lat="48.60619" lon="1.69378">
        <ele>133</ele>
        <time>2010-05-15T08:35:13Z</time>
      </trkpt>
      <trkpt lat="48.60618" lon="1.6938">
        <ele>133</ele>
        <time>2010-05-15T08:35:14Z</time>
      </trkpt>
      <trkpt lat="48.60618" lon="1.69382">
        <ele>133</ele>
        <time>2010-05-15T08:35:15Z</time>
      </trkpt>
      <trkpt lat="48.60617" lon="1.69384">
        <ele>133</ele>
        <time>2010-05-15T08:35:16Z</time>
      </trkpt>
      <trkpt lat="48.60616" lon="1.69387">
        <ele>133</ele>
        <time>2010-05-15T08:35:17Z</time>
      </trkpt>
      <trkpt lat="48.60616" lon="1.6939">
        <ele>134</ele>
        <time>2010-05-15T08:35:18Z</time>
      </trkpt>
      <trkpt lat="48.60615" lon="1.69393">
        <ele>134</ele>
        <time>2010-05-15T08:35:19Z</time>
      </trkpt>
      <trkpt lat="48.60614" lon="1.69396">
        <ele>135</ele>
        <time>2010-05-15T08:35:20Z</time>
      </trkpt>
      <trkpt lat="48.60614" lon="1.69399">
        <ele>136</ele>
        <time>2010-05-15T08:35:21Z</time>
      </trkpt>
      <trkpt lat="48.60613" lon="1.69402">
        <ele>136</ele>
        <time>2010-05-15T08:35:22Z</time>
      </trkpt>
      <trkpt lat="48.60612" lon="1.69405">
        <ele>137</ele>
        <time>2010-05-15T08:35:23Z</time>
      </trkpt>
      <trkpt lat="48.60611" lon="1.69408">
        <ele>137</ele>
        <time>2010-05-15T08:35:24Z</time>
      </trkpt>
      <trkpt lat="48.60611" lon="1.69411">
        <ele>138</ele>
        <time>2010-05-15T08:35:25Z</time>
      </trkpt>
      <trkpt lat="48.6061" lon="1.69413">
        <ele>138</ele>
        <time>2010-05-15T08:35:26Z</time>
      </trkpt>
      <trkpt lat="48.6061" lon="1.69416">
        <ele>138</ele>
        <time>2010-05-15T08:35:27Z</time>
      </trkpt>
      <trkpt lat="48.60609" lon="1.69418">
        <ele>138</ele>
        <time>2010-05-15T08:35:28Z</time>
      </trkpt>
      <trkpt lat="48.60608" lon="1.6942">
        <ele>138</ele>
        <time>2010-05-15T08:35:29Z</time>
      </trkpt>
      <trkpt lat="48.60607" lon="1.69421">
        <ele>138</ele>
        <time>2010-05-15T08:35:30Z</time>
      </trkpt>
      <trkpt lat="48.60607" lon="1.69424">
        <ele>138</ele>
        <time>2010-05-15T08:35:31Z</time>
      </trkpt>
      <trkpt lat="48.60606" lon="1.69426">
        <ele>138</ele>
        <time>2010-05-15T08:35:32Z</time>
      </trkpt>
      <trkpt lat="48.60605" lon="1.69428">
        <ele>138</ele>
        <time>2010-05-15T08:35:34Z</time>
      </trkpt>
      <trkpt lat="48.60605" lon="1.6943">
        <ele>138</ele>
        <time>2010-05-15T08:35:35Z</time>
      </trkpt>
      <trkpt lat="48.60604" lon="1.69432">
        <ele>138</ele>
        <time>2010-05-15T08:35:36Z</time>
      </trkpt>
      <trkpt lat="48.60603" lon="1.69435">
        <ele>138</ele>
        <time>2010-05-15T08:35:37Z</time>
      </trkpt>
      <trkpt lat="48.60601" lon="1.69437">
        <ele>138</ele>
        <time>2010-05-15T08:35:38Z</time>
      </trkpt>
      <trkpt lat="48.606" lon="1.69438">
        <ele>138</ele>
        <time>2010-05-15T08:35:39Z</time>
      </trkpt>
      <trkpt lat="48.60599" lon="1.69441">
        <ele>138</ele>
        <time>2010-05-15T08:35:40Z</time>
      </trkpt>
      <trkpt lat="48.60599" lon="1.69442">
        <ele>138</ele>
        <time>2010-05-15T08:35:41Z</time>
      </trkpt>
      <trkpt lat="48.60598" lon="1.69444">
        <ele>138</ele>
        <time>2010-05-15T08:35:42Z</time>
      </trkpt>
      <trkpt lat="48.60597" lon="1.69447">
        <ele>138</ele>
        <time>2010-05-15T08:35:43Z</time>
      </trkpt>
      <trkpt lat="48.60596" lon="1.69449">
        <ele>138</ele>
        <time>2010-05-15T08:35:44Z</time>
      </trkpt>
      <trkpt lat="48.60595" lon="1.69451">
        <ele>138</ele>
        <time>2010-05-15T08:35:45Z</time>
      </trkpt>
      <trkpt lat="48.60593" lon="1.69454">
        <ele>138</ele>
        <time>2010-05-15T08:35:46Z</time>
      </trkpt>
      <trkpt lat="48.60592" lon="1.69455">
        <ele>138</ele>
        <time>2010-05-15T08:35:47Z</time>
      </trkpt>
      <trkpt lat="48.60591" lon="1.69457">
        <ele>138</ele>
        <time>2010-05-15T08:35:48Z</time>
      </trkpt>
      <trkpt lat="48.6059" lon="1.69459">
        <ele>138</ele>
        <time>2010-05-15T08:35:49Z</time>
      </trkpt>
      <trkpt lat="48.60589" lon="1.69461">
        <ele>138</ele>
        <time>2010-05-15T08:35:50Z</time>
      </trkpt>
      <trkpt lat="48.60588" lon="1.69463">
        <ele>138</ele>
        <time>2010-05-15T08:35:51Z</time>
      </trkpt>
      <trkpt lat="48.60586" lon="1.69466">
        <ele>138</ele>
        <time>2010-05-15T08:35:52Z</time>
      </trkpt>
      <trkpt lat="48.60584" lon="1.69468">
        <ele>138</ele>
        <time>2010-05-15T08:35:53Z</time>
      </trkpt>
      <trkpt lat="48.60582" lon="1.6947">
        <ele>138</ele>
        <time>2010-05-15T08:35:54Z</time>
      </trkpt>
      <trkpt lat="48.60581" lon="1.69472">
        <ele>138</ele>
        <time>2010-05-15T08:35:55Z</time>
      </trkpt>
      <trkpt lat="48.60579" lon="1.69475">
        <ele>138</ele>
        <time>2010-05-15T08:35:57Z</time>
      </trkpt>
      <trkpt lat="48.60576" lon="1.69478">
        <ele>138</ele>
        <time>2010-05-15T08:35:58Z</time>
      </trkpt>
      <trkpt lat="48.60575" lon="1.6948">
        <ele>138</ele>
        <time>2010-05-15T08:35:59Z</time>
      </trkpt>
      <trkpt lat="48.60572" lon="1.69483">
        <ele>139</ele>
        <time>2010-05-15T08:36:01Z</time>
      </trkpt>
      <trkpt lat="48.6057" lon="1.69486">
        <ele>139</ele>
        <time>2010-05-15T08:36:02Z</time>
      </trkpt>
      <trkpt lat="48.60568" lon="1.69489">
        <ele>139</ele>
        <time>2010-05-15T08:36:04Z</time>
      </trkpt>
      <trkpt lat="48.60568" lon="1.69493">
        <ele>139</ele>
        <time>2010-05-15T08:36:06Z</time>
      </trkpt>
      <trkpt lat="48.60567" lon="1.69495">
        <ele>139</ele>
        <time>2010-05-15T08:36:07Z</time>
      </trkpt>
      <trkpt lat="48.60568" lon="1.69497">
        <ele>139</ele>
        <time>2010-05-15T08:36:09Z</time>
      </trkpt>
      <trkpt lat="48.60567" lon="1.69499">
        <ele>139</ele>
        <time>2010-05-15T08:36:10Z</time>
      </trkpt>
      <trkpt lat="48.60567" lon="1.69501">
        <ele>139</ele>
        <time>2010-05-15T08:36:11Z</time>
      </trkpt>
      <trkpt lat="48.60565" lon="1.69504">
        <ele>139</ele>
        <time>2010-05-15T08:36:13Z</time>
      </trkpt>
      <trkpt lat="48.60565" lon="1.69506">
        <ele>139</ele>
        <time>2010-05-15T08:36:15Z</time>
      </trkpt>
      <trkpt lat="48.60563" lon="1.69509">
        <ele>139</ele>
        <time>2010-05-15T08:36:16Z</time>
      </trkpt>
      <trkpt lat="48.60561" lon="1.69512">
        <ele>139</ele>
        <time>2010-05-15T08:36:17Z</time>
      </trkpt>
      <trkpt lat="48.6056" lon="1.69514">
        <ele>139</ele>
        <time>2010-05-15T08:36:18Z</time>
      </trkpt>
      <trkpt lat="48.60559" lon="1.69516">
        <ele>139</ele>
        <time>2010-05-15T08:36:19Z</time>
      </trkpt>
      <trkpt lat="48.60556" lon="1.69519">
        <ele>139</ele>
        <time>2010-05-15T08:36:21Z</time>
      </trkpt>
      <trkpt lat="48.60556" lon="1.69522">
        <ele>139</ele>
        <time>2010-05-15T08:36:22Z</time>
      </trkpt>
      <trkpt lat="48.60554" lon="1.69524">
        <ele>139</ele>
        <time>2010-05-15T08:36:23Z</time>
      </trkpt>
      <trkpt lat="48.60553" lon="1.69526">
        <ele>139</ele>
        <time>2010-05-15T08:36:24Z</time>
      </trkpt>
      <trkpt lat="48.60552" lon="1.69528">
        <ele>139</ele>
        <time>2010-05-15T08:36:25Z</time>
      </trkpt>
      <trkpt lat="48.6055" lon="1.69531">
        <ele>139</ele>
        <time>2010-05-15T08:36:27Z</time>
      </trkpt>
      <trkpt lat="48.60549" lon="1.69533">
        <ele>139</ele>
        <time>2010-05-15T08:36:28Z</time>
      </trkpt>
      <trkpt lat="48.60547" lon="1.69537">
        <ele>139</ele>
        <time>2010-05-15T08:36:29Z</time>
      </trkpt>
      <trkpt lat="48.60546" lon="1.6954">
        <ele>139</ele>
        <time>2010-05-15T08:36:30Z</time>
      </trkpt>
      <trkpt lat="48.60545" lon="1.69543">
        <ele>139</ele>
        <time>2010-05-15T08:36:31Z</time>
      </trkpt>
      <trkpt lat="48.60544" lon="1.69546">
        <ele>139</ele>
        <time>2010-05-15T08:36:32Z</time>
      </trkpt>
      <trkpt lat="48.60542" lon="1.69549">
        <ele>139</ele>
        <time>2010-05-15T08:36:33Z</time>
      </trkpt>
      <trkpt lat="48.60541" lon="1.69551">
        <ele>139</ele>
        <time>2010-05-15T08:36:34Z</time>
      </trkpt>
      <trkpt lat="48.6054" lon="1.69554">
        <ele>139</ele>
        <time>2010-05-15T08:36:35Z</time>
      </trkpt>
      <trkpt lat="48.60538" lon="1.69556">
        <ele>139</ele>
        <time>2010-05-15T08:36:36Z</time>
      </trkpt>
      <trkpt lat="48.60537" lon="1.69558">
        <ele>139</ele>
        <time>2010-05-15T08:36:37Z</time>
      </trkpt>
      <trkpt lat="48.60536" lon="1.6956">
        <ele>139</ele>
        <time>2010-05-15T08:36:38Z</time>
      </trkpt>
      <trkpt lat="48.60535" lon="1.69562">
        <ele>139</ele>
        <time>2010-05-15T08:36:39Z</time>
      </trkpt>
      <trkpt lat="48.60534" lon="1.69564">
        <ele>139</ele>
        <time>2010-05-15T08:36:40Z</time>
      </trkpt>
      <trkpt lat="48.60534" lon="1.69566">
        <ele>139</ele>
        <time>2010-05-15T08:36:41Z</time>
      </trkpt>
      <trkpt lat="48.60532" lon="1.69568">
        <ele>139</ele>
        <time>2010-05-15T08:36:42Z</time>
      </trkpt>
      <trkpt lat="48.60531" lon="1.69571">
        <ele>139</ele>
        <time>2010-05-15T08:36:43Z</time>
      </trkpt>
      <trkpt lat="48.60529" lon="1.69573">
        <ele>139</ele>
        <time>2010-05-15T08:36:44Z</time>
      </trkpt>
      <trkpt lat="48.60528" lon="1.69575">
        <ele>139</ele>
        <time>2010-05-15T08:36:45Z</time>
      </trkpt>
      <trkpt lat="48.60528" lon="1.69577">
        <ele>139</ele>
        <time>2010-05-15T08:36:46Z</time>
      </trkpt>
      <trkpt lat="48.60527" lon="1.69579">
        <ele>139</ele>
        <time>2010-05-15T08:36:47Z</time>
      </trkpt>
      <trkpt lat="48.60526" lon="1.69581">
        <ele>139</ele>
        <time>2010-05-15T08:36:48Z</time>
      </trkpt>
      <trkpt lat="48.60525" lon="1.69583">
        <ele>139</ele>
        <time>2010-05-15T08:36:49Z</time>
      </trkpt>
      <trkpt lat="48.60524" lon="1.69585">
        <ele>139</ele>
        <time>2010-05-15T08:36:50Z</time>
      </trkpt>
      <trkpt lat="48.60524" lon="1.69587">
        <ele>139</ele>
        <time>2010-05-15T08:36:51Z</time>
      </trkpt>
      <trkpt lat="48.60524" lon="1.69589">
        <ele>138</ele>
        <time>2010-05-15T08:36:52Z</time>
      </trkpt>
      <trkpt lat="48.60523" lon="1.69591">
        <ele>138</ele>
        <time>2010-05-15T08:36:53Z</time>
      </trkpt>
      <trkpt lat="48.60523" lon="1.69593">
        <ele>137</ele>
        <time>2010-05-15T08:36:54Z</time>
      </trkpt>
      <trkpt lat="48.60521" lon="1.69596">
        <ele>136</ele>
        <time>2010-05-15T08:36:56Z</time>
      </trkpt>
      <trkpt lat="48.6052" lon="1.69598">
        <ele>136</ele>
        <time>2010-05-15T08:36:57Z</time>
      </trkpt>
      <trkpt lat="48.60518" lon="1.69601">
        <ele>135</ele>
        <time>2010-05-15T08:36:59Z</time>
      </trkpt>
      <trkpt lat="48.60517" lon="1.69603">
        <ele>135</ele>
        <time>2010-05-15T08:37:00Z</time>
      </trkpt>
      <trkpt lat="48.60515" lon="1.69604">
        <ele>134</ele>
        <time>2010-05-15T08:37:01Z</time>
      </trkpt>
      <trkpt lat="48.60514" lon="1.69606">
        <ele>134</ele>
        <time>2010-05-15T08:37:02Z</time>
      </trkpt>
      <trkpt lat="48.60513" lon="1.69608">
        <ele>134</ele>
        <time>2010-05-15T08:37:03Z</time>
      </trkpt>
      <trkpt lat="48.60511" lon="1.69611">
        <ele>134</ele>
        <time>2010-05-15T08:37:04Z</time>
      </trkpt>
      <trkpt lat="48.60509" lon="1.69614">
        <ele>134</ele>
        <time>2010-05-15T08:37:05Z</time>
      </trkpt>
      <trkpt lat="48.60506" lon="1.69617">
        <ele>134</ele>
        <time>2010-05-15T08:37:06Z</time>
      </trkpt>
      <trkpt lat="48.60506" lon="1.69619">
        <ele>134</ele>
        <time>2010-05-15T08:37:07Z</time>
      </trkpt>
      <trkpt lat="48.60504" lon="1.69622">
        <ele>134</ele>
        <time>2010-05-15T08:37:08Z</time>
      </trkpt>
      <trkpt lat="48.60503" lon="1.69625">
        <ele>134</ele>
        <time>2010-05-15T08:37:09Z</time>
      </trkpt>
      <trkpt lat="48.60502" lon="1.69628">
        <ele>134</ele>
        <time>2010-05-15T08:37:10Z</time>
      </trkpt>
      <trkpt lat="48.605" lon="1.6963">
        <ele>134</ele>
        <time>2010-05-15T08:37:11Z</time>
      </trkpt>
      <trkpt lat="48.60499" lon="1.69632">
        <ele>134</ele>
        <time>2010-05-15T08:37:12Z</time>
      </trkpt>
      <trkpt lat="48.60498" lon="1.69634">
        <ele>134</ele>
        <time>2010-05-15T08:37:13Z</time>
      </trkpt>
      <trkpt lat="48.60498" lon="1.69636">
        <ele>134</ele>
        <time>2010-05-15T08:37:14Z</time>
      </trkpt>
      <trkpt lat="48.60497" lon="1.69638">
        <ele>134</ele>
        <time>2010-05-15T08:37:15Z</time>
      </trkpt>
      <trkpt lat="48.60497" lon="1.6964">
        <ele>134</ele>
        <time>2010-05-15T08:37:16Z</time>
      </trkpt>
      <trkpt lat="48.60496" lon="1.69644">
        <ele>134</ele>
        <time>2010-05-15T08:37:18Z</time>
      </trkpt>
      <trkpt lat="48.60495" lon="1.69646">
        <ele>134</ele>
        <time>2010-05-15T08:37:19Z</time>
      </trkpt>
      <trkpt lat="48.60494" lon="1.69648">
        <ele>134</ele>
        <time>2010-05-15T08:37:20Z</time>
      </trkpt>
      <trkpt lat="48.60493" lon="1.6965">
        <ele>134</ele>
        <time>2010-05-15T08:37:21Z</time>
      </trkpt>
      <trkpt lat="48.60492" lon="1.69653">
        <ele>134</ele>
        <time>2010-05-15T08:37:22Z</time>
      </trkpt>
      <trkpt lat="48.60491" lon="1.69655">
        <ele>134</ele>
        <time>2010-05-15T08:37:23Z</time>
      </trkpt>
      <trkpt lat="48.6049" lon="1.69657">
        <ele>134</ele>
        <time>2010-05-15T08:37:24Z</time>
      </trkpt>
      <trkpt lat="48.6049" lon="1.6966">
        <ele>134</ele>
        <time>2010-05-15T08:37:25Z</time>
      </trkpt>
      <trkpt lat="48.60489" lon="1.69662">
        <ele>134</ele>
        <time>2010-05-15T08:37:26Z</time>
      </trkpt>
      <trkpt lat="48.60488" lon="1.69666">
        <ele>134</ele>
        <time>2010-05-15T08:37:27Z</time>
      </trkpt>
      <trkpt lat="48.60487" lon="1.69668">
        <ele>134</ele>
        <time>2010-05-15T08:37:28Z</time>
      </trkpt>
      <trkpt lat="48.60486" lon="1.6967">
        <ele>134</ele>
        <time>2010-05-15T08:37:29Z</time>
      </trkpt>
      <trkpt lat="48.60485" lon="1.69673">
        <ele>134</ele>
        <time>2010-05-15T08:37:30Z</time>
      </trkpt>
      <trkpt lat="48.60485" lon="1.69675">
        <ele>134</ele>
        <time>2010-05-15T08:37:31Z</time>
      </trkpt>
      <trkpt lat="48.60484" lon="1.69677">
        <ele>134</ele>
        <time>2010-05-15T08:37:32Z</time>
      </trkpt>
      <trkpt lat="48.60483" lon="1.69679">
        <ele>134</ele>
        <time>2010-05-15T08:37:33Z</time>
      </trkpt>
      <trkpt lat="48.60483" lon="1.69681">
        <ele>134</ele>
        <time>2010-05-15T08:37:34Z</time>
      </trkpt>
      <trkpt lat="48.60482" lon="1.69683">
        <ele>134</ele>
        <time>2010-05-15T08:37:35Z</time>
      </trkpt>
      <trkpt lat="48.60481" lon="1.69686">
        <ele>134</ele>
        <time>2010-05-15T08:37:36Z</time>
      </trkpt>
      <trkpt lat="48.60481" lon="1.69688">
        <ele>134</ele>
        <time>2010-05-15T08:37:37Z</time>
      </trkpt>
      <trkpt lat="48.6048" lon="1.6969">
        <ele>134</ele>
        <time>2010-05-15T08:37:38Z</time>
      </trkpt>
      <trkpt lat="48.6048" lon="1.69693">
        <ele>134</ele>
        <time>2010-05-15T08:37:39Z</time>
      </trkpt>
      <trkpt lat="48.60479" lon="1.69695">
        <ele>134</ele>
        <time>2010-05-15T08:37:40Z</time>
      </trkpt>
      <trkpt lat="48.60479" lon="1.69698">
        <ele>134</ele>
        <time>2010-05-15T08:37:41Z</time>
      </trkpt>
      <trkpt lat="48.60478" lon="1.69701">
        <ele>134</ele>
        <time>2010-05-15T08:37:42Z</time>
      </trkpt>
      <trkpt lat="48.60478" lon="1.69703">
        <ele>134</ele>
        <time>2010-05-15T08:37:43Z</time>
      </trkpt>
      <trkpt lat="48.60478" lon="1.69706">
        <ele>134</ele>
        <time>2010-05-15T08:37:44Z</time>
      </trkpt>
      <trkpt lat="48.60478" lon="1.69708">
        <ele>134</ele>
        <time>2010-05-15T08:37:45Z</time>
      </trkpt>
      <trkpt lat="48.60478" lon="1.69711">
        <ele>134</ele>
        <time>2010-05-15T08:37:46Z</time>
      </trkpt>
      <trkpt lat="48.60477" lon="1.69713">
        <ele>134</ele>
        <time>2010-05-15T08:37:47Z</time>
      </trkpt>
      <trkpt lat="48.60477" lon="1.69715">
        <ele>134</ele>
        <time>2010-05-15T08:37:48Z</time>
      </trkpt>
      <trkpt lat="48.60476" lon="1.69718">
        <ele>134</ele>
        <time>2010-05-15T08:37:50Z</time>
      </trkpt>
      <trkpt lat="48.60475" lon="1.69721">
        <ele>134</ele>
        <time>2010-05-15T08:37:51Z</time>
      </trkpt>
      <trkpt lat="48.60474" lon="1.69724">
        <ele>134</ele>
        <time>2010-05-15T08:37:52Z</time>
      </trkpt>
      <trkpt lat="48.60474" lon="1.69726">
        <ele>134</ele>
        <time>2010-05-15T08:37:53Z</time>
      </trkpt>
      <trkpt lat="48.60474" lon="1.69728">
        <ele>134</ele>
        <time>2010-05-15T08:37:54Z</time>
      </trkpt>
      <trkpt lat="48.60474" lon="1.6973">
        <ele>134</ele>
        <time>2010-05-15T08:37:55Z</time>
      </trkpt>
      <trkpt lat="48.60474" lon="1.69732">
        <ele>134</ele>
        <time>2010-05-15T08:37:56Z</time>
      </trkpt>
      <trkpt lat="48.60473" lon="1.69735">
        <ele>134</ele>
        <time>2010-05-15T08:37:57Z</time>
      </trkpt>
      <trkpt lat="48.60473" lon="1.69737">
        <ele>134</ele>
        <time>2010-05-15T08:37:58Z</time>
      </trkpt>
      <trkpt lat="48.60472" lon="1.6974">
        <ele>134</ele>
        <time>2010-05-15T08:37:59Z</time>
      </trkpt>
      <trkpt lat="48.60472" lon="1.69742">
        <ele>134</ele>
        <time>2010-05-15T08:38:00Z</time>
      </trkpt>
      <trkpt lat="48.60471" lon="1.69744">
        <ele>134</ele>
        <time>2010-05-15T08:38:01Z</time>
      </trkpt>
      <trkpt lat="48.60471" lon="1.69746">
        <ele>134</ele>
        <time>2010-05-15T08:38:02Z</time>
      </trkpt>
      <trkpt lat="48.6047" lon="1.69748">
        <ele>134</ele>
        <time>2010-05-15T08:38:03Z</time>
      </trkpt>
      <trkpt lat="48.60469" lon="1.6975">
        <ele>134</ele>
        <time>2010-05-15T08:38:04Z</time>
      </trkpt>
      <trkpt lat="48.60469" lon="1.69752">
        <ele>134</ele>
        <time>2010-05-15T08:38:05Z</time>
      </trkpt>
      <trkpt lat="48.60468" lon="1.69754">
        <ele>134</ele>
        <time>2010-05-15T08:38:06Z</time>
      </trkpt>
      <trkpt lat="48.60468" lon="1.69756">
        <ele>134</ele>
        <time>2010-05-15T08:38:07Z</time>
      </trkpt>
      <trkpt lat="48.60468" lon="1.69758">
        <ele>134</ele>
        <time>2010-05-15T08:38:08Z</time>
      </trkpt>
      <trkpt lat="48.60467" lon="1.69761">
        <ele>134</ele>
        <time>2010-05-15T08:38:09Z</time>
      </trkpt>
      <trkpt lat="48.60465" lon="1.69763">
        <ele>134</ele>
        <time>2010-05-15T08:38:10Z</time>
      </trkpt>
      <trkpt lat="48.60463" lon="1.69766">
        <ele>134</ele>
        <time>2010-05-15T08:38:11Z</time>
      </trkpt>
      <trkpt lat="48.60462" lon="1.69769">
        <ele>134</ele>
        <time>2010-05-15T08:38:12Z</time>
      </trkpt>
      <trkpt lat="48.60461" lon="1.69772">
        <ele>134</ele>
        <time>2010-05-15T08:38:13Z</time>
      </trkpt>
      <trkpt lat="48.60461" lon="1.69774">
        <ele>134</ele>
        <time>2010-05-15T08:38:14Z</time>
      </trkpt>
      <trkpt lat="48.60461" lon="1.69777">
        <ele>134</ele>
        <time>2010-05-15T08:38:15Z</time>
      </trkpt>
      <trkpt lat="48.6046" lon="1.6978">
        <ele>134</ele>
        <time>2010-05-15T08:38:16Z</time>
      </trkpt>
      <trkpt lat="48.6046" lon="1.69783">
        <ele>134</ele>
        <time>2010-05-15T08:38:17Z</time>
      </trkpt>
      <trkpt lat="48.60459" lon="1.69785">
        <ele>134</ele>
        <time>2010-05-15T08:38:18Z</time>
      </trkpt>
      <trkpt lat="48.60459" lon="1.69788">
        <ele>135</ele>
        <time>2010-05-15T08:38:19Z</time>
      </trkpt>
      <trkpt lat="48.60458" lon="1.6979">
        <ele>136</ele>
        <time>2010-05-15T08:38:20Z</time>
      </trkpt>
      <trkpt lat="48.60457" lon="1.69793">
        <ele>136</ele>
        <time>2010-05-15T08:38:21Z</time>
      </trkpt>
      <trkpt lat="48.60456" lon="1.69795">
        <ele>137</ele>
        <time>2010-05-15T08:38:22Z</time>
      </trkpt>
      <trkpt lat="48.60455" lon="1.69798">
        <ele>137</ele>
        <time>2010-05-15T08:38:23Z</time>
      </trkpt>
      <trkpt lat="48.60454" lon="1.698">
        <ele>137</ele>
        <time>2010-05-15T08:38:24Z</time>
      </trkpt>
      <trkpt lat="48.60453" lon="1.69803">
        <ele>138</ele>
        <time>2010-05-15T08:38:25Z</time>
      </trkpt>
      <trkpt lat="48.60452" lon="1.69805">
        <ele>138</ele>
        <time>2010-05-15T08:38:26Z</time>
      </trkpt>
      <trkpt lat="48.60451" lon="1.69808">
        <ele>139</ele>
        <time>2010-05-15T08:38:27Z</time>
      </trkpt>
      <trkpt lat="48.6045" lon="1.69811">
        <ele>139</ele>
        <time>2010-05-15T08:38:28Z</time>
      </trkpt>
      <trkpt lat="48.60449" lon="1.69814">
        <ele>139</ele>
        <time>2010-05-15T08:38:29Z</time>
      </trkpt>
      <trkpt lat="48.60449" lon="1.69816">
        <ele>140</ele>
        <time>2010-05-15T08:38:30Z</time>
      </trkpt>
      <trkpt lat="48.60448" lon="1.6982">
        <ele>140</ele>
        <time>2010-05-15T08:38:31Z</time>
      </trkpt>
      <trkpt lat="48.60447" lon="1.69823">
        <ele>140</ele>
        <time>2010-05-15T08:38:32Z</time>
      </trkpt>
      <trkpt lat="48.60447" lon="1.69826">
        <ele>140</ele>
        <time>2010-05-15T08:38:33Z</time>
      </trkpt>
      <trkpt lat="48.60447" lon="1.69828">
        <ele>140</ele>
        <time>2010-05-15T08:38:34Z</time>
      </trkpt>
      <trkpt lat="48.60446" lon="1.6983">
        <ele>140</ele>
        <time>2010-05-15T08:38:35Z</time>
      </trkpt>
      <trkpt lat="48.60446" lon="1.69833">
        <ele>140</ele>
        <time>2010-05-15T08:38:36Z</time>
      </trkpt>
      <trkpt lat="48.60446" lon="1.69835">
        <ele>140</ele>
        <time>2010-05-15T08:38:37Z</time>
      </trkpt>
      <trkpt lat="48.60444" lon="1.69839">
        <ele>140</ele>
        <time>2010-05-15T08:38:39Z</time>
      </trkpt>
      <trkpt lat="48.60444" lon="1.69841">
        <ele>140</ele>
        <time>2010-05-15T08:38:40Z</time>
      </trkpt>
      <trkpt lat="48.60443" lon="1.69843">
        <ele>140</ele>
        <time>2010-05-15T08:38:41Z</time>
      </trkpt>
      <trkpt lat="48.60442" lon="1.69845">
        <ele>140</ele>
        <time>2010-05-15T08:38:42Z</time>
      </trkpt>
      <trkpt lat="48.60441" lon="1.69847">
        <ele>140</ele>
        <time>2010-05-15T08:38:43Z</time>
      </trkpt>
      <trkpt lat="48.6044" lon="1.69851">
        <ele>140</ele>
        <time>2010-05-15T08:38:45Z</time>
      </trkpt>
      <trkpt lat="48.60439" lon="1.69853">
        <ele>140</ele>
        <time>2010-05-15T08:38:46Z</time>
      </trkpt>
      <trkpt lat="48.60437" lon="1.69857">
        <ele>140</ele>
        <time>2010-05-15T08:38:48Z</time>
      </trkpt>
      <trkpt lat="48.60437" lon="1.69859">
        <ele>140</ele>
        <time>2010-05-15T08:38:49Z</time>
      </trkpt>
      <trkpt lat="48.60436" lon="1.69861">
        <ele>140</ele>
        <time>2010-05-15T08:38:50Z</time>
      </trkpt>
      <trkpt lat="48.60435" lon="1.69863">
        <ele>140</ele>
        <time>2010-05-15T08:38:51Z</time>
      </trkpt>
      <trkpt lat="48.60435" lon="1.69865">
        <ele>140</ele>
        <time>2010-05-15T08:38:52Z</time>
      </trkpt>
      <trkpt lat="48.60435" lon="1.69868">
        <ele>140</ele>
        <time>2010-05-15T08:38:53Z</time>
      </trkpt>
      <trkpt lat="48.60434" lon="1.69869">
        <ele>140</ele>
        <time>2010-05-15T08:38:54Z</time>
      </trkpt>
      <trkpt lat="48.60433" lon="1.69871">
        <ele>140</ele>
        <time>2010-05-15T08:38:55Z</time>
      </trkpt>
      <trkpt lat="48.60432" lon="1.69874">
        <ele>140</ele>
        <time>2010-05-15T08:38:56Z</time>
      </trkpt>
      <trkpt lat="48.60432" lon="1.69878">
        <ele>140</ele>
        <time>2010-05-15T08:38:57Z</time>
      </trkpt>
      <trkpt lat="48.60431" lon="1.6988">
        <ele>140</ele>
        <time>2010-05-15T08:38:58Z</time>
      </trkpt>
      <trkpt lat="48.60431" lon="1.69883">
        <ele>140</ele>
        <time>2010-05-15T08:38:59Z</time>
      </trkpt>
      <trkpt lat="48.6043" lon="1.69886">
        <ele>140</ele>
        <time>2010-05-15T08:39:00Z</time>
      </trkpt>
      <trkpt lat="48.6043" lon="1.69888">
        <ele>140</ele>
        <time>2010-05-15T08:39:01Z</time>
      </trkpt>
      <trkpt lat="48.60429" lon="1.6989">
        <ele>140</ele>
        <time>2010-05-15T08:39:02Z</time>
      </trkpt>
      <trkpt lat="48.60428" lon="1.69892">
        <ele>140</ele>
        <time>2010-05-15T08:39:03Z</time>
      </trkpt>
      <trkpt lat="48.60428" lon="1.69893">
        <ele>140</ele>
        <time>2010-05-15T08:39:04Z</time>
      </trkpt>
      <trkpt lat="48.60428" lon="1.69895">
        <ele>139</ele>
        <time>2010-05-15T08:39:05Z</time>
      </trkpt>
      <trkpt lat="48.60428" lon="1.69897">
        <ele>139</ele>
        <time>2010-05-15T08:39:06Z</time>
      </trkpt>
      <trkpt lat="48.60428" lon="1.69899">
        <ele>139</ele>
        <time>2010-05-15T08:39:07Z</time>
      </trkpt>
      <trkpt lat="48.60427" lon="1.69902">
        <ele>139</ele>
        <time>2010-05-15T08:39:09Z</time>
      </trkpt>
      <trkpt lat="48.60426" lon="1.69904">
        <ele>139</ele>
        <time>2010-05-15T08:39:10Z</time>
      </trkpt>
      <trkpt lat="48.60425" lon="1.69906">
        <ele>139</ele>
        <time>2010-05-15T08:39:11Z</time>
      </trkpt>
      <trkpt lat="48.60424" lon="1.69909">
        <ele>139</ele>
        <time>2010-05-15T08:39:12Z</time>
      </trkpt>
      <trkpt lat="48.60423" lon="1.69912">
        <ele>139</ele>
        <time>2010-05-15T08:39:13Z</time>
      </trkpt>
      <trkpt lat="48.60423" lon="1.69915">
        <ele>139</ele>
        <time>2010-05-15T08:39:14Z</time>
      </trkpt>
      <trkpt lat="48.60422" lon="1.69917">
        <ele>139</ele>
        <time>2010-05-15T08:39:15Z</time>
      </trkpt>
      <trkpt lat="48.60422" lon="1.6992">
        <ele>139</ele>
        <time>2010-05-15T08:39:16Z</time>
      </trkpt>
      <trkpt lat="48.60422" lon="1.69922">
        <ele>139</ele>
        <time>2010-05-15T08:39:17Z</time>
      </trkpt>
      <trkpt lat="48.6042" lon="1.69925">
        <ele>138</ele>
        <time>2010-05-15T08:39:19Z</time>
      </trkpt>
      <trkpt lat="48.60419" lon="1.69927">
        <ele>138</ele>
        <time>2010-05-15T08:39:20Z</time>
      </trkpt>
      <trkpt lat="48.60418" lon="1.69928">
        <ele>138</ele>
        <time>2010-05-15T08:39:21Z</time>
      </trkpt>
      <trkpt lat="48.60417" lon="1.6993">
        <ele>138</ele>
        <time>2010-05-15T08:39:22Z</time>
      </trkpt>
      <trkpt lat="48.60416" lon="1.69933">
        <ele>138</ele>
        <time>2010-05-15T08:39:23Z</time>
      </trkpt>
      <trkpt lat="48.60415" lon="1.69935">
        <ele>138</ele>
        <time>2010-05-15T08:39:24Z</time>
      </trkpt>
      <trkpt lat="48.60414" lon="1.69938">
        <ele>137</ele>
        <time>2010-05-15T08:39:25Z</time>
      </trkpt>
      <trkpt lat="48.60413" lon="1.6994">
        <ele>137</ele>
        <time>2010-05-15T08:39:26Z</time>
      </trkpt>
      <trkpt lat="48.60412" lon="1.69943">
        <ele>137</ele>
        <time>2010-05-15T08:39:27Z</time>
      </trkpt>
      <trkpt lat="48.60412" lon="1.69945">
        <ele>137</ele>
        <time>2010-05-15T08:39:28Z</time>
      </trkpt>
      <trkpt lat="48.60412" lon="1.69948">
        <ele>137</ele>
        <time>2010-05-15T08:39:29Z</time>
      </trkpt>
      <trkpt lat="48.60412" lon="1.69951">
        <ele>137</ele>
        <time>2010-05-15T08:39:30Z</time>
      </trkpt>
      <trkpt lat="48.60411" lon="1.69954">
        <ele>137</ele>
        <time>2010-05-15T08:39:31Z</time>
      </trkpt>
      <trkpt lat="48.6041" lon="1.69958">
        <ele>137</ele>
        <time>2010-05-15T08:39:32Z</time>
      </trkpt>
      <trkpt lat="48.6041" lon="1.6996">
        <ele>137</ele>
        <time>2010-05-15T08:39:33Z</time>
      </trkpt>
      <trkpt lat="48.60409" lon="1.69962">
        <ele>137</ele>
        <time>2010-05-15T08:39:34Z</time>
      </trkpt>
      <trkpt lat="48.60408" lon="1.69964">
        <ele>137</ele>
        <time>2010-05-15T08:39:35Z</time>
      </trkpt>
      <trkpt lat="48.60407" lon="1.69966">
        <ele>137</ele>
        <time>2010-05-15T08:39:36Z</time>
      </trkpt>
      <trkpt lat="48.60407" lon="1.69968">
        <ele>137</ele>
        <time>2010-05-15T08:39:37Z</time>
      </trkpt>
      <trkpt lat="48.60406" lon="1.6997">
        <ele>137</ele>
        <time>2010-05-15T08:39:38Z</time>
      </trkpt>
      <trkpt lat="48.60405" lon="1.69972">
        <ele>137</ele>
        <time>2010-05-15T08:39:39Z</time>
      </trkpt>
      <trkpt lat="48.60405" lon="1.69975">
        <ele>137</ele>
        <time>2010-05-15T08:39:40Z</time>
      </trkpt>
      <trkpt lat="48.60404" lon="1.69977">
        <ele>137</ele>
        <time>2010-05-15T08:39:41Z</time>
      </trkpt>
      <trkpt lat="48.60404" lon="1.69979">
        <ele>137</ele>
        <time>2010-05-15T08:39:42Z</time>
      </trkpt>
      <trkpt lat="48.60403" lon="1.69981">
        <ele>137</ele>
        <time>2010-05-15T08:39:43Z</time>
      </trkpt>
      <trkpt lat="48.60403" lon="1.69984">
        <ele>137</ele>
        <time>2010-05-15T08:39:44Z</time>
      </trkpt>
      <trkpt lat="48.60402" lon="1.69985">
        <ele>136</ele>
        <time>2010-05-15T08:39:45Z</time>
      </trkpt>
      <trkpt lat="48.604" lon="1.69989">
        <ele>136</ele>
        <time>2010-05-15T08:39:47Z</time>
      </trkpt>
      <trkpt lat="48.604" lon="1.69991">
        <ele>136</ele>
        <time>2010-05-15T08:39:48Z</time>
      </trkpt>
      <trkpt lat="48.60399" lon="1.69993">
        <ele>136</ele>
        <time>2010-05-15T08:39:49Z</time>
      </trkpt>
      <trkpt lat="48.60398" lon="1.69996">
        <ele>135</ele>
        <time>2010-05-15T08:39:50Z</time>
      </trkpt>
      <trkpt lat="48.60397" lon="1.69999">
        <ele>135</ele>
        <time>2010-05-15T08:39:51Z</time>
      </trkpt>
      <trkpt lat="48.60396" lon="1.70001">
        <ele>135</ele>
        <time>2010-05-15T08:39:52Z</time>
      </trkpt>
      <trkpt lat="48.60395" lon="1.70004">
        <ele>134</ele>
        <time>2010-05-15T08:39:53Z</time>
      </trkpt>
      <trkpt lat="48.60395" lon="1.70006">
        <ele>134</ele>
        <time>2010-05-15T08:39:54Z</time>
      </trkpt>
      <trkpt lat="48.60394" lon="1.70009">
        <ele>133</ele>
        <time>2010-05-15T08:39:56Z</time>
      </trkpt>
      <trkpt lat="48.60392" lon="1.70011">
        <ele>133</ele>
        <time>2010-05-15T08:39:57Z</time>
      </trkpt>
      <trkpt lat="48.60391" lon="1.70014">
        <ele>133</ele>
        <time>2010-05-15T08:39:58Z</time>
      </trkpt>
      <trkpt lat="48.6039" lon="1.70016">
        <ele>133</ele>
        <time>2010-05-15T08:39:59Z</time>
      </trkpt>
      <trkpt lat="48.60389" lon="1.70019">
        <ele>133</ele>
        <time>2010-05-15T08:40:00Z</time>
      </trkpt>
      <trkpt lat="48.60388" lon="1.70021">
        <ele>133</ele>
        <time>2010-05-15T08:40:01Z</time>
      </trkpt>
      <trkpt lat="48.60387" lon="1.70023">
        <ele>133</ele>
        <time>2010-05-15T08:40:02Z</time>
      </trkpt>
      <trkpt lat="48.60386" lon="1.70026">
        <ele>133</ele>
        <time>2010-05-15T08:40:03Z</time>
      </trkpt>
      <trkpt lat="48.60385" lon="1.70028">
        <ele>133</ele>
        <time>2010-05-15T08:40:04Z</time>
      </trkpt>
      <trkpt lat="48.60384" lon="1.70031">
        <ele>133</ele>
        <time>2010-05-15T08:40:05Z</time>
      </trkpt>
      <trkpt lat="48.60383" lon="1.70033">
        <ele>133</ele>
        <time>2010-05-15T08:40:06Z</time>
      </trkpt>
      <trkpt lat="48.60382" lon="1.70036">
        <ele>133</ele>
        <time>2010-05-15T08:40:07Z</time>
      </trkpt>
      <trkpt lat="48.60382" lon="1.70038">
        <ele>133</ele>
        <time>2010-05-15T08:40:08Z</time>
      </trkpt>
      <trkpt lat="48.60381" lon="1.7004">
        <ele>133</ele>
        <time>2010-05-15T08:40:09Z</time>
      </trkpt>
      <trkpt lat="48.6038" lon="1.70042">
        <ele>133</ele>
        <time>2010-05-15T08:40:10Z</time>
      </trkpt>
      <trkpt lat="48.60379" lon="1.70044">
        <ele>133</ele>
        <time>2010-05-15T08:40:11Z</time>
      </trkpt>
      <trkpt lat="48.60379" lon="1.70046">
        <ele>133</ele>
        <time>2010-05-15T08:40:12Z</time>
      </trkpt>
      <trkpt lat="48.60378" lon="1.70048">
        <ele>133</ele>
        <time>2010-05-15T08:40:13Z</time>
      </trkpt>
      <trkpt lat="48.60377" lon="1.70051">
        <ele>133</ele>
        <time>2010-05-15T08:40:15Z</time>
      </trkpt>
      <trkpt lat="48.60376" lon="1.70053">
        <ele>133</ele>
        <time>2010-05-15T08:40:16Z</time>
      </trkpt>
      <trkpt lat="48.60375" lon="1.70054">
        <ele>133</ele>
        <time>2010-05-15T08:40:17Z</time>
      </trkpt>
      <trkpt lat="48.60374" lon="1.70056">
        <ele>133</ele>
        <time>2010-05-15T08:40:18Z</time>
      </trkpt>
      <trkpt lat="48.60373" lon="1.70058">
        <ele>133</ele>
        <time>2010-05-15T08:40:19Z</time>
      </trkpt>
      <trkpt lat="48.60372" lon="1.70059">
        <ele>133</ele>
        <time>2010-05-15T08:40:20Z</time>
      </trkpt>
      <trkpt lat="48.6037" lon="1.70061">
        <ele>133</ele>
        <time>2010-05-15T08:40:21Z</time>
      </trkpt>
      <trkpt lat="48.60369" lon="1.70063">
        <ele>133</ele>
        <time>2010-05-15T08:40:22Z</time>
      </trkpt>
      <trkpt lat="48.60367" lon="1.70065">
        <ele>133</ele>
        <time>2010-05-15T08:40:23Z</time>
      </trkpt>
      <trkpt lat="48.60365" lon="1.70066">
        <ele>133</ele>
        <time>2010-05-15T08:40:24Z</time>
      </trkpt>
      <trkpt lat="48.60364" lon="1.70067">
        <ele>133</ele>
        <time>2010-05-15T08:40:25Z</time>
      </trkpt>
      <trkpt lat="48.60362" lon="1.70069">
        <ele>133</ele>
        <time>2010-05-15T08:40:26Z</time>
      </trkpt>
      <trkpt lat="48.60361" lon="1.7007">
        <ele>133</ele>
        <time>2010-05-15T08:40:27Z</time>
      </trkpt>
      <trkpt lat="48.60359" lon="1.70073">
        <ele>133</ele>
        <time>2010-05-15T08:40:29Z</time>
      </trkpt>
      <trkpt lat="48.60358" lon="1.70075">
        <ele>133</ele>
        <time>2010-05-15T08:40:30Z</time>
      </trkpt>
      <trkpt lat="48.60356" lon="1.70077">
        <ele>133</ele>
        <time>2010-05-15T08:40:32Z</time>
      </trkpt>
      <trkpt lat="48.60356" lon="1.70079">
        <ele>133</ele>
        <time>2010-05-15T08:40:33Z</time>
      </trkpt>
      <trkpt lat="48.60354" lon="1.70081">
        <ele>133</ele>
        <time>2010-05-15T08:40:34Z</time>
      </trkpt>
      <trkpt lat="48.60353" lon="1.70084">
        <ele>133</ele>
        <time>2010-05-15T08:40:35Z</time>
      </trkpt>
      <trkpt lat="48.60352" lon="1.70086">
        <ele>133</ele>
        <time>2010-05-15T08:40:36Z</time>
      </trkpt>
      <trkpt lat="48.60351" lon="1.70088">
        <ele>133</ele>
        <time>2010-05-15T08:40:37Z</time>
      </trkpt>
      <trkpt lat="48.60349" lon="1.70091">
        <ele>133</ele>
        <time>2010-05-15T08:40:38Z</time>
      </trkpt>
      <trkpt lat="48.60347" lon="1.70094">
        <ele>133</ele>
        <time>2010-05-15T08:40:39Z</time>
      </trkpt>
      <trkpt lat="48.60346" lon="1.70096">
        <ele>133</ele>
        <time>2010-05-15T08:40:40Z</time>
      </trkpt>
      <trkpt lat="48.60345" lon="1.70098">
        <ele>133</ele>
        <time>2010-05-15T08:40:41Z</time>
      </trkpt>
      <trkpt lat="48.60344" lon="1.701">
        <ele>133</ele>
        <time>2010-05-15T08:40:42Z</time>
      </trkpt>
      <trkpt lat="48.60343" lon="1.70101">
        <ele>133</ele>
        <time>2010-05-15T08:40:43Z</time>
      </trkpt>
      <trkpt lat="48.60341" lon="1.70104">
        <ele>133</ele>
        <time>2010-05-15T08:40:45Z</time>
      </trkpt>
      <trkpt lat="48.6034" lon="1.70106">
        <ele>133</ele>
        <time>2010-05-15T08:40:46Z</time>
      </trkpt>
      <trkpt lat="48.60339" lon="1.70107">
        <ele>133</ele>
        <time>2010-05-15T08:40:47Z</time>
      </trkpt>
      <trkpt lat="48.60338" lon="1.7011">
        <ele>133</ele>
        <time>2010-05-15T08:40:48Z</time>
      </trkpt>
      <trkpt lat="48.60337" lon="1.70112">
        <ele>134</ele>
        <time>2010-05-15T08:40:49Z</time>
      </trkpt>
      <trkpt lat="48.60336" lon="1.70113">
        <ele>134</ele>
        <time>2010-05-15T08:40:50Z</time>
      </trkpt>
      <trkpt lat="48.60335" lon="1.70115">
        <ele>134</ele>
        <time>2010-05-15T08:40:51Z</time>
      </trkpt>
      <trkpt lat="48.60333" lon="1.70118">
        <ele>134</ele>
        <time>2010-05-15T08:40:53Z</time>
      </trkpt>
      <trkpt lat="48.60332" lon="1.7012">
        <ele>134</ele>
        <time>2010-05-15T08:40:54Z</time>
      </trkpt>
      <trkpt lat="48.60331" lon="1.70121">
        <ele>135</ele>
        <time>2010-05-15T08:40:55Z</time>
      </trkpt>
      <trkpt lat="48.6033" lon="1.70123">
        <ele>135</ele>
        <time>2010-05-15T08:40:56Z</time>
      </trkpt>
      <trkpt lat="48.60328" lon="1.70124">
        <ele>135</ele>
        <time>2010-05-15T08:40:57Z</time>
      </trkpt>
      <trkpt lat="48.60327" lon="1.70126">
        <ele>135</ele>
        <time>2010-05-15T08:40:58Z</time>
      </trkpt>
      <trkpt lat="48.60327" lon="1.70128">
        <ele>135</ele>
        <time>2010-05-15T08:40:59Z</time>
      </trkpt>
      <trkpt lat="48.60326" lon="1.7013">
        <ele>135</ele>
        <time>2010-05-15T08:41:00Z</time>
      </trkpt>
      <trkpt lat="48.60325" lon="1.70131">
        <ele>135</ele>
        <time>2010-05-15T08:41:01Z</time>
      </trkpt>
      <trkpt lat="48.60323" lon="1.70133">
        <ele>135</ele>
        <time>2010-05-15T08:41:02Z</time>
      </trkpt>
      <trkpt lat="48.60322" lon="1.70135">
        <ele>135</ele>
        <time>2010-05-15T08:41:03Z</time>
      </trkpt>
      <trkpt lat="48.60321" lon="1.70137">
        <ele>135</ele>
        <time>2010-05-15T08:41:04Z</time>
      </trkpt>
      <trkpt lat="48.60319" lon="1.70138">
        <ele>135</ele>
        <time>2010-05-15T08:41:05Z</time>
      </trkpt>
      <trkpt lat="48.60318" lon="1.7014">
        <ele>136</ele>
        <time>2010-05-15T08:41:06Z</time>
      </trkpt>
      <trkpt lat="48.60317" lon="1.70142">
        <ele>136</ele>
        <time>2010-05-15T08:41:07Z</time>
      </trkpt>
      <trkpt lat="48.60316" lon="1.70144">
        <ele>136</ele>
        <time>2010-05-15T08:41:08Z</time>
      </trkpt>
      <trkpt lat="48.60315" lon="1.70146">
        <ele>136</ele>
        <time>2010-05-15T08:41:09Z</time>
      </trkpt>
      <trkpt lat="48.60314" lon="1.70148">
        <ele>137</ele>
        <time>2010-05-15T08:41:10Z</time>
      </trkpt>
      <trkpt lat="48.60314" lon="1.7015">
        <ele>137</ele>
        <time>2010-05-15T08:41:11Z</time>
      </trkpt>
      <trkpt lat="48.60313" lon="1.70152">
        <ele>137</ele>
        <time>2010-05-15T08:41:12Z</time>
      </trkpt>
      <trkpt lat="48.60313" lon="1.70153">
        <ele>137</ele>
        <time>2010-05-15T08:41:13Z</time>
      </trkpt>
      <trkpt lat="48.60312" lon="1.70155">
        <ele>137</ele>
        <time>2010-05-15T08:41:14Z</time>
      </trkpt>
      <trkpt lat="48.60311" lon="1.70158">
        <ele>137</ele>
        <time>2010-05-15T08:41:15Z</time>
      </trkpt>
      <trkpt lat="48.60311" lon="1.7016">
        <ele>137</ele>
        <time>2010-05-15T08:41:16Z</time>
      </trkpt>
      <trkpt lat="48.6031" lon="1.70162">
        <ele>137</ele>
        <time>2010-05-15T08:41:17Z</time>
      </trkpt>
      <trkpt lat="48.6031" lon="1.70165">
        <ele>137</ele>
        <time>2010-05-15T08:41:18Z</time>
      </trkpt>
      <trkpt lat="48.60309" lon="1.70167">
        <ele>137</ele>
        <time>2010-05-15T08:41:19Z</time>
      </trkpt>
      <trkpt lat="48.60309" lon="1.70169">
        <ele>137</ele>
        <time>2010-05-15T08:41:20Z</time>
      </trkpt>
      <trkpt lat="48.60308" lon="1.70171">
        <ele>137</ele>
        <time>2010-05-15T08:41:21Z</time>
      </trkpt>
      <trkpt lat="48.60308" lon="1.70173">
        <ele>137</ele>
        <time>2010-05-15T08:41:23Z</time>
      </trkpt>
      <trkpt lat="48.60307" lon="1.70176">
        <ele>137</ele>
        <time>2010-05-15T08:41:25Z</time>
      </trkpt>
      <trkpt lat="48.60305" lon="1.70179">
        <ele>137</ele>
        <time>2010-05-15T08:41:27Z</time>
      </trkpt>
      <trkpt lat="48.60304" lon="1.70181">
        <ele>137</ele>
        <time>2010-05-15T08:41:28Z</time>
      </trkpt>
      <trkpt lat="48.60303" lon="1.70183">
        <ele>137</ele>
        <time>2010-05-15T08:41:29Z</time>
      </trkpt>
      <trkpt lat="48.60302" lon="1.70185">
        <ele>137</ele>
        <time>2010-05-15T08:41:30Z</time>
      </trkpt>
      <trkpt lat="48.603" lon="1.70187">
        <ele>137</ele>
        <time>2010-05-15T08:41:31Z</time>
      </trkpt>
      <trkpt lat="48.60299" lon="1.70189">
        <ele>137</ele>
        <time>2010-05-15T08:41:32Z</time>
      </trkpt>
      <trkpt lat="48.60298" lon="1.70191">
        <ele>137</ele>
        <time>2010-05-15T08:41:33Z</time>
      </trkpt>
      <trkpt lat="48.60297" lon="1.70193">
        <ele>137</ele>
        <time>2010-05-15T08:41:34Z</time>
      </trkpt>
      <trkpt lat="48.60295" lon="1.70196">
        <ele>137</ele>
        <time>2010-05-15T08:41:35Z</time>
      </trkpt>
      <trkpt lat="48.60294" lon="1.70198">
        <ele>137</ele>
        <time>2010-05-15T08:41:36Z</time>
      </trkpt>
      <trkpt lat="48.60293" lon="1.702">
        <ele>137</ele>
        <time>2010-05-15T08:41:37Z</time>
      </trkpt>
      <trkpt lat="48.60292" lon="1.70202">
        <ele>137</ele>
        <time>2010-05-15T08:41:38Z</time>
      </trkpt>
      <trkpt lat="48.60291" lon="1.70204">
        <ele>137</ele>
        <time>2010-05-15T08:41:39Z</time>
      </trkpt>
      <trkpt lat="48.60291" lon="1.70206">
        <ele>137</ele>
        <time>2010-05-15T08:41:40Z</time>
      </trkpt>
      <trkpt lat="48.6029" lon="1.70208">
        <ele>137</ele>
        <time>2010-05-15T08:41:41Z</time>
      </trkpt>
      <trkpt lat="48.60289" lon="1.7021">
        <ele>137</ele>
        <time>2010-05-15T08:41:42Z</time>
      </trkpt>
      <trkpt lat="48.60288" lon="1.70212">
        <ele>137</ele>
        <time>2010-05-15T08:41:43Z</time>
      </trkpt>
      <trkpt lat="48.60286" lon="1.70215">
        <ele>137</ele>
        <time>2010-05-15T08:41:45Z</time>
      </trkpt>
      <trkpt lat="48.60285" lon="1.70217">
        <ele>137</ele>
        <time>2010-05-15T08:41:46Z</time>
      </trkpt>
      <trkpt lat="48.60284" lon="1.70219">
        <ele>137</ele>
        <time>2010-05-15T08:41:47Z</time>
      </trkpt>
      <trkpt lat="48.60283" lon="1.70221">
        <ele>137</ele>
        <time>2010-05-15T08:41:48Z</time>
      </trkpt>
      <trkpt lat="48.60282" lon="1.70223">
        <ele>137</ele>
        <time>2010-05-15T08:41:49Z</time>
      </trkpt>
      <trkpt lat="48.60281" lon="1.70225">
        <ele>137</ele>
        <time>2010-05-15T08:41:50Z</time>
      </trkpt>
      <trkpt lat="48.60281" lon="1.70226">
        <ele>137</ele>
        <time>2010-05-15T08:41:51Z</time>
      </trkpt>
      <trkpt lat="48.60279" lon="1.70229">
        <ele>137</ele>
        <time>2010-05-15T08:41:52Z</time>
      </trkpt>
      <trkpt lat="48.60278" lon="1.7023">
        <ele>137</ele>
        <time>2010-05-15T08:41:53Z</time>
      </trkpt>
      <trkpt lat="48.60277" lon="1.70232">
        <ele>137</ele>
        <time>2010-05-15T08:41:54Z</time>
      </trkpt>
      <trkpt lat="48.60276" lon="1.70234">
        <ele>137</ele>
        <time>2010-05-15T08:41:55Z</time>
      </trkpt>
      <trkpt lat="48.60275" lon="1.70236">
        <ele>137</ele>
        <time>2010-05-15T08:41:56Z</time>
      </trkpt>
      <trkpt lat="48.60274" lon="1.70238">
        <ele>137</ele>
        <time>2010-05-15T08:41:57Z</time>
      </trkpt>
      <trkpt lat="48.60273" lon="1.7024">
        <ele>137</ele>
        <time>2010-05-15T08:41:58Z</time>
      </trkpt>
      <trkpt lat="48.60272" lon="1.70241">
        <ele>137</ele>
        <time>2010-05-15T08:41:59Z</time>
      </trkpt>
      <trkpt lat="48.60271" lon="1.70243">
        <ele>137</ele>
        <time>2010-05-15T08:42:00Z</time>
      </trkpt>
      <trkpt lat="48.60269" lon="1.70246">
        <ele>136</ele>
        <time>2010-05-15T08:42:02Z</time>
      </trkpt>
      <trkpt lat="48.60267" lon="1.70248">
        <ele>136</ele>
        <time>2010-05-15T08:42:04Z</time>
      </trkpt>
      <trkpt lat="48.60266" lon="1.7025">
        <ele>136</ele>
        <time>2010-05-15T08:42:05Z</time>
      </trkpt>
      <trkpt lat="48.60265" lon="1.70251">
        <ele>136</ele>
        <time>2010-05-15T08:42:06Z</time>
      </trkpt>
      <trkpt lat="48.60263" lon="1.70253">
        <ele>136</ele>
        <time>2010-05-15T08:42:07Z</time>
      </trkpt>
      <trkpt lat="48.60262" lon="1.70254">
        <ele>136</ele>
        <time>2010-05-15T08:42:08Z</time>
      </trkpt>
      <trkpt lat="48.60261" lon="1.70256">
        <ele>136</ele>
        <time>2010-05-15T08:42:09Z</time>
      </trkpt>
      <trkpt lat="48.60259" lon="1.70257">
        <ele>136</ele>
        <time>2010-05-15T08:42:10Z</time>
      </trkpt>
      <trkpt lat="48.60258" lon="1.70259">
        <ele>136</ele>
        <time>2010-05-15T08:42:11Z</time>
      </trkpt>
      <trkpt lat="48.60257" lon="1.7026">
        <ele>136</ele>
        <time>2010-05-15T08:42:12Z</time>
      </trkpt>
      <trkpt lat="48.60256" lon="1.70262">
        <ele>136</ele>
        <time>2010-05-15T08:42:13Z</time>
      </trkpt>
      <trkpt lat="48.60254" lon="1.70263">
        <ele>136</ele>
        <time>2010-05-15T08:42:14Z</time>
      </trkpt>
      <trkpt lat="48.60253" lon="1.70265">
        <ele>136</ele>
        <time>2010-05-15T08:42:15Z</time>
      </trkpt>
      <trkpt lat="48.60252" lon="1.70266">
        <ele>136</ele>
        <time>2010-05-15T08:42:16Z</time>
      </trkpt>
      <trkpt lat="48.6025" lon="1.70267">
        <ele>136</ele>
        <time>2010-05-15T08:42:17Z</time>
      </trkpt>
      <trkpt lat="48.60249" lon="1.70269">
        <ele>136</ele>
        <time>2010-05-15T08:42:18Z</time>
      </trkpt>
      <trkpt lat="48.60247" lon="1.7027">
        <ele>136</ele>
        <time>2010-05-15T08:42:19Z</time>
      </trkpt>
      <trkpt lat="48.60246" lon="1.70271">
        <ele>136</ele>
        <time>2010-05-15T08:42:20Z</time>
      </trkpt>
      <trkpt lat="48.60245" lon="1.70272">
        <ele>136</ele>
        <time>2010-05-15T08:42:21Z</time>
      </trkpt>
      <trkpt lat="48.60243" lon="1.70274">
        <ele>136</ele>
        <time>2010-05-15T08:42:23Z</time>
      </trkpt>
      <trkpt lat="48.60241" lon="1.70276">
        <ele>136</ele>
        <time>2010-05-15T08:42:24Z</time>
      </trkpt>
      <trkpt lat="48.6024" lon="1.70278">
        <ele>136</ele>
        <time>2010-05-15T08:42:25Z</time>
      </trkpt>
      <trkpt lat="48.60239" lon="1.70279">
        <ele>136</ele>
        <time>2010-05-15T08:42:26Z</time>
      </trkpt>
      <trkpt lat="48.60237" lon="1.70281">
        <ele>136</ele>
        <time>2010-05-15T08:42:28Z</time>
      </trkpt>
      <trkpt lat="48.60236" lon="1.70283">
        <ele>136</ele>
        <time>2010-05-15T08:42:29Z</time>
      </trkpt>
      <trkpt lat="48.60235" lon="1.70286">
        <ele>136</ele>
        <time>2010-05-15T08:42:31Z</time>
      </trkpt>
      <trkpt lat="48.60234" lon="1.70288">
        <ele>136</ele>
        <time>2010-05-15T08:42:32Z</time>
      </trkpt>
      <trkpt lat="48.60233" lon="1.7029">
        <ele>136</ele>
        <time>2010-05-15T08:42:33Z</time>
      </trkpt>
      <trkpt lat="48.60231" lon="1.70291">
        <ele>136</ele>
        <time>2010-05-15T08:42:34Z</time>
      </trkpt>
      <trkpt lat="48.6023" lon="1.70293">
        <ele>136</ele>
        <time>2010-05-15T08:42:36Z</time>
      </trkpt>
      <trkpt lat="48.60228" lon="1.70296">
        <ele>135</ele>
        <time>2010-05-15T08:42:38Z</time>
      </trkpt>
      <trkpt lat="48.60226" lon="1.70296">
        <ele>135</ele>
        <time>2010-05-15T08:42:40Z</time>
      </trkpt>
      <trkpt lat="48.60225" lon="1.70296">
        <ele>135</ele>
        <time>2010-05-15T08:42:41Z</time>
      </trkpt>
      <trkpt lat="48.60224" lon="1.70296">
        <ele>135</ele>
        <time>2010-05-15T08:42:42Z</time>
      </trkpt>
      <trkpt lat="48.60221" lon="1.70295">
        <ele>134</ele>
        <time>2010-05-15T08:42:44Z</time>
      </trkpt>
      <trkpt lat="48.60219" lon="1.70293">
        <ele>133</ele>
        <time>2010-05-15T08:42:46Z</time>
      </trkpt>
      <trkpt lat="48.60217" lon="1.70293">
        <ele>133</ele>
        <time>2010-05-15T08:42:47Z</time>
      </trkpt>
      <trkpt lat="48.60216" lon="1.70292">
        <ele>133</ele>
        <time>2010-05-15T08:42:48Z</time>
      </trkpt>
      <trkpt lat="48.60214" lon="1.70291">
        <ele>133</ele>
        <time>2010-05-15T08:42:49Z</time>
      </trkpt>
      <trkpt lat="48.60212" lon="1.7029">
        <ele>133</ele>
        <time>2010-05-15T08:42:50Z</time>
      </trkpt>
      <trkpt lat="48.6021" lon="1.70289">
        <ele>133</ele>
        <time>2010-05-15T08:42:51Z</time>
      </trkpt>
      <trkpt lat="48.60208" lon="1.70288">
        <ele>133</ele>
        <time>2010-05-15T08:42:52Z</time>
      </trkpt>
      <trkpt lat="48.60206" lon="1.70287">
        <ele>132</ele>
        <time>2010-05-15T08:42:54Z</time>
      </trkpt>
      <trkpt lat="48.60204" lon="1.70287">
        <ele>132</ele>
        <time>2010-05-15T08:42:56Z</time>
      </trkpt>
      <trkpt lat="48.60203" lon="1.70287">
        <ele>131</ele>
        <time>2010-05-15T08:42:57Z</time>
      </trkpt>
      <trkpt lat="48.602" lon="1.70286">
        <ele>131</ele>
        <time>2010-05-15T08:42:59Z</time>
      </trkpt>
      <trkpt lat="48.60199" lon="1.70284">
        <ele>131</ele>
        <time>2010-05-15T08:43:00Z</time>
      </trkpt>
      <trkpt lat="48.60197" lon="1.70283">
        <ele>130</ele>
        <time>2010-05-15T08:43:01Z</time>
      </trkpt>
      <trkpt lat="48.60195" lon="1.70282">
        <ele>130</ele>
        <time>2010-05-15T08:43:02Z</time>
      </trkpt>
      <trkpt lat="48.60194" lon="1.70281">
        <ele>130</ele>
        <time>2010-05-15T08:43:03Z</time>
      </trkpt>
      <trkpt lat="48.60192" lon="1.70281">
        <ele>129</ele>
        <time>2010-05-15T08:43:04Z</time>
      </trkpt>
      <trkpt lat="48.60191" lon="1.70281">
        <ele>129</ele>
        <time>2010-05-15T08:43:05Z</time>
      </trkpt>
      <trkpt lat="48.60189" lon="1.7028">
        <ele>129</ele>
        <time>2010-05-15T08:43:06Z</time>
      </trkpt>
      <trkpt lat="48.60188" lon="1.70279">
        <ele>128</ele>
        <time>2010-05-15T08:43:07Z</time>
      </trkpt>
      <trkpt lat="48.60187" lon="1.70279">
        <ele>128</ele>
        <time>2010-05-15T08:43:08Z</time>
      </trkpt>
      <trkpt lat="48.60185" lon="1.70278">
        <ele>128</ele>
        <time>2010-05-15T08:43:09Z</time>
      </trkpt>
      <trkpt lat="48.60183" lon="1.70278">
        <ele>128</ele>
        <time>2010-05-15T08:43:10Z</time>
      </trkpt>
      <trkpt lat="48.60181" lon="1.70279">
        <ele>127</ele>
        <time>2010-05-15T08:43:11Z</time>
      </trkpt>
      <trkpt lat="48.60179" lon="1.70279">
        <ele>127</ele>
        <time>2010-05-15T08:43:12Z</time>
      </trkpt>
      <trkpt lat="48.60177" lon="1.70278">
        <ele>127</ele>
        <time>2010-05-15T08:43:13Z</time>
      </trkpt>
      <trkpt lat="48.60176" lon="1.70279">
        <ele>127</ele>
        <time>2010-05-15T08:43:14Z</time>
      </trkpt>
      <trkpt lat="48.60174" lon="1.70279">
        <ele>126</ele>
        <time>2010-05-15T08:43:15Z</time>
      </trkpt>
      <trkpt lat="48.60173" lon="1.70279">
        <ele>126</ele>
        <time>2010-05-15T08:43:16Z</time>
      </trkpt>
      <trkpt lat="48.60171" lon="1.70279">
        <ele>125</ele>
        <time>2010-05-15T08:43:17Z</time>
      </trkpt>
      <trkpt lat="48.6017" lon="1.7028">
        <ele>125</ele>
        <time>2010-05-15T08:43:18Z</time>
      </trkpt>
      <trkpt lat="48.60169" lon="1.7028">
        <ele>124</ele>
        <time>2010-05-15T08:43:19Z</time>
      </trkpt>
      <trkpt lat="48.60167" lon="1.70279">
        <ele>124</ele>
        <time>2010-05-15T08:43:20Z</time>
      </trkpt>
      <trkpt lat="48.60166" lon="1.70279">
        <ele>123</ele>
        <time>2010-05-15T08:43:21Z</time>
      </trkpt>
      <trkpt lat="48.60164" lon="1.70278">
        <ele>123</ele>
        <time>2010-05-15T08:43:22Z</time>
      </trkpt>
      <trkpt lat="48.60162" lon="1.70277">
        <ele>123</ele>
        <time>2010-05-15T08:43:23Z</time>
      </trkpt>
      <trkpt lat="48.6016" lon="1.70278">
        <ele>122</ele>
        <time>2010-05-15T08:43:24Z</time>
      </trkpt>
      <trkpt lat="48.60159" lon="1.70281">
        <ele>122</ele>
        <time>2010-05-15T08:43:26Z</time>
      </trkpt>
      <trkpt lat="48.60158" lon="1.70283">
        <ele>121</ele>
        <time>2010-05-15T08:43:27Z</time>
      </trkpt>
      <trkpt lat="48.60157" lon="1.70285">
        <ele>121</ele>
        <time>2010-05-15T08:43:28Z</time>
      </trkpt>
      <trkpt lat="48.60156" lon="1.70288">
        <ele>121</ele>
        <time>2010-05-15T08:43:29Z</time>
      </trkpt>
      <trkpt lat="48.60155" lon="1.7029">
        <ele>121</ele>
        <time>2010-05-15T08:43:30Z</time>
      </trkpt>
      <trkpt lat="48.60155" lon="1.70293">
        <ele>121</ele>
        <time>2010-05-15T08:43:31Z</time>
      </trkpt>
      <trkpt lat="48.60154" lon="1.70295">
        <ele>121</ele>
        <time>2010-05-15T08:43:32Z</time>
      </trkpt>
      <trkpt lat="48.60154" lon="1.70297">
        <ele>121</ele>
        <time>2010-05-15T08:43:33Z</time>
      </trkpt>
      <trkpt lat="48.60153" lon="1.703">
        <ele>121</ele>
        <time>2010-05-15T08:43:34Z</time>
      </trkpt>
      <trkpt lat="48.60153" lon="1.70302">
        <ele>121</ele>
        <time>2010-05-15T08:43:35Z</time>
      </trkpt>
      <trkpt lat="48.60153" lon="1.70305">
        <ele>121</ele>
        <time>2010-05-15T08:43:36Z</time>
      </trkpt>
      <trkpt lat="48.60152" lon="1.70307">
        <ele>121</ele>
        <time>2010-05-15T08:43:37Z</time>
      </trkpt>
      <trkpt lat="48.60152" lon="1.70309">
        <ele>121</ele>
        <time>2010-05-15T08:43:38Z</time>
      </trkpt>
      <trkpt lat="48.60151" lon="1.70311">
        <ele>121</ele>
        <time>2010-05-15T08:43:39Z</time>
      </trkpt>
      <trkpt lat="48.6015" lon="1.70314">
        <ele>121</ele>
        <time>2010-05-15T08:43:40Z</time>
      </trkpt>
      <trkpt lat="48.6015" lon="1.70316">
        <ele>121</ele>
        <time>2010-05-15T08:43:41Z</time>
      </trkpt>
      <trkpt lat="48.60149" lon="1.70317">
        <ele>121</ele>
        <time>2010-05-15T08:43:42Z</time>
      </trkpt>
      <trkpt lat="48.60148" lon="1.70319">
        <ele>121</ele>
        <time>2010-05-15T08:43:43Z</time>
      </trkpt>
      <trkpt lat="48.60146" lon="1.7032">
        <ele>121</ele>
        <time>2010-05-15T08:43:45Z</time>
      </trkpt>
      <trkpt lat="48.60144" lon="1.7032">
        <ele>121</ele>
        <time>2010-05-15T08:43:46Z</time>
      </trkpt>
      <trkpt lat="48.60143" lon="1.70319">
        <ele>121</ele>
        <time>2010-05-15T08:43:47Z</time>
      </trkpt>
      <trkpt lat="48.60142" lon="1.70317">
        <ele>121</ele>
        <time>2010-05-15T08:43:48Z</time>
      </trkpt>
      <trkpt lat="48.60141" lon="1.70315">
        <ele>121</ele>
        <time>2010-05-15T08:43:49Z</time>
      </trkpt>
      <trkpt lat="48.6014" lon="1.70313">
        <ele>121</ele>
        <time>2010-05-15T08:43:50Z</time>
      </trkpt>
      <trkpt lat="48.60139" lon="1.70311">
        <ele>121</ele>
        <time>2010-05-15T08:43:51Z</time>
      </trkpt>
      <trkpt lat="48.60138" lon="1.70309">
        <ele>121</ele>
        <time>2010-05-15T08:43:52Z</time>
      </trkpt>
      <trkpt lat="48.60137" lon="1.70307">
        <ele>121</ele>
        <time>2010-05-15T08:43:53Z</time>
      </trkpt>
      <trkpt lat="48.60137" lon="1.70305">
        <ele>121</ele>
        <time>2010-05-15T08:43:54Z</time>
      </trkpt>
      <trkpt lat="48.60136" lon="1.70303">
        <ele>121</ele>
        <time>2010-05-15T08:43:55Z</time>
      </trkpt>
      <trkpt lat="48.60136" lon="1.70301">
        <ele>121</ele>
        <time>2010-05-15T08:43:56Z</time>
      </trkpt>
      <trkpt lat="48.60135" lon="1.70298">
        <ele>121</ele>
        <time>2010-05-15T08:43:57Z</time>
      </trkpt>
      <trkpt lat="48.60135" lon="1.70296">
        <ele>121</ele>
        <time>2010-05-15T08:43:58Z</time>
      </trkpt>
      <trkpt lat="48.60134" lon="1.70294">
        <ele>121</ele>
        <time>2010-05-15T08:43:59Z</time>
      </trkpt>
      <trkpt lat="48.60134" lon="1.70293">
        <ele>121</ele>
        <time>2010-05-15T08:44:00Z</time>
      </trkpt>
      <trkpt lat="48.60133" lon="1.7029">
        <ele>121</ele>
        <time>2010-05-15T08:44:02Z</time>
      </trkpt>
      <trkpt lat="48.60135" lon="1.70289">
        <ele>121</ele>
        <time>2010-05-15T08:44:04Z</time>
      </trkpt>
      <trkpt lat="48.60136" lon="1.70289">
        <ele>121</ele>
        <time>2010-05-15T08:44:06Z</time>
      </trkpt>
      <trkpt lat="48.60137" lon="1.70291">
        <ele>121</ele>
        <time>2010-05-15T08:44:10Z</time>
      </trkpt>
      <trkpt lat="48.60138" lon="1.70294">
        <ele>121</ele>
        <time>2010-05-15T08:44:12Z</time>
      </trkpt>
      <trkpt lat="48.60138" lon="1.70296">
        <ele>121</ele>
        <time>2010-05-15T08:44:14Z</time>
      </trkpt>
      <trkpt lat="48.60136" lon="1.70298">
        <ele>121</ele>
        <time>2010-05-15T08:44:17Z</time>
      </trkpt>
      <trkpt lat="48.60137" lon="1.703">
        <ele>121</ele>
        <time>2010-05-15T08:44:23Z</time>
      </trkpt>
      <trkpt lat="48.60137" lon="1.70302">
        <ele>121</ele>
        <time>2010-05-15T08:44:25Z</time>
      </trkpt>
      <trkpt lat="48.60139" lon="1.70302">
        <ele>121</ele>
        <time>2010-05-15T08:44:32Z</time>
      </trkpt>
      <trkpt lat="48.60138" lon="1.70304">
        <ele>121</ele>
        <time>2010-05-15T08:44:57Z</time>
      </trkpt>
      <trkpt lat="48.6014" lon="1.70304">
        <ele>121</ele>
        <time>2010-05-15T08:45:06Z</time>
      </trkpt>
      <trkpt lat="48.6014" lon="1.70302">
        <ele>121</ele>
        <time>2010-05-15T08:45:27Z</time>
      </trkpt>
      <trkpt lat="48.60141" lon="1.703">
        <ele>121</ele>
        <time>2010-05-15T08:45:29Z</time>
      </trkpt>
      <trkpt lat="48.6014" lon="1.70298">
        <ele>121</ele>
        <time>2010-05-15T08:45:31Z</time>
      </trkpt>
      <trkpt lat="48.6014" lon="1.70296">
        <ele>121</ele>
        <time>2010-05-15T08:45:33Z</time>
      </trkpt>
      <trkpt lat="48.60139" lon="1.70293">
        <ele>121</ele>
        <time>2010-05-15T08:45:35Z</time>
      </trkpt>
      <trkpt lat="48.60137" lon="1.70291">
        <ele>121</ele>
        <time>2010-05-15T08:45:36Z</time>
      </trkpt>
      <trkpt lat="48.60135" lon="1.7029">
        <ele>121</ele>
        <time>2010-05-15T08:45:37Z</time>
      </trkpt>
      <trkpt lat="48.60134" lon="1.70289">
        <ele>121</ele>
        <time>2010-05-15T08:45:38Z</time>
      </trkpt>
      <trkpt lat="48.60132" lon="1.70289">
        <ele>121</ele>
        <time>2010-05-15T08:45:39Z</time>
      </trkpt>
      <trkpt lat="48.60131" lon="1.70291">
        <ele>121</ele>
        <time>2010-05-15T08:45:41Z</time>
      </trkpt>
      <trkpt lat="48.60131" lon="1.70293">
        <ele>121</ele>
        <time>2010-05-15T08:45:42Z</time>
      </trkpt>
      <trkpt lat="48.60131" lon="1.70295">
        <ele>121</ele>
        <time>2010-05-15T08:45:43Z</time>
      </trkpt>
      <trkpt lat="48.60131" lon="1.70297">
        <ele>121</ele>
        <time>2010-05-15T08:45:44Z</time>
      </trkpt>
      <trkpt lat="48.60131" lon="1.70299">
        <ele>121</ele>
        <time>2010-05-15T08:45:45Z</time>
      </trkpt>
      <trkpt lat="48.60132" lon="1.70301">
        <ele>121</ele>
        <time>2010-05-15T08:45:46Z</time>
      </trkpt>
      <trkpt lat="48.60133" lon="1.70303">
        <ele>121</ele>
        <time>2010-05-15T08:45:47Z</time>
      </trkpt>
      <trkpt lat="48.60134" lon="1.70305">
        <ele>121</ele>
        <time>2010-05-15T08:45:48Z</time>
      </trkpt>
      <trkpt lat="48.60134" lon="1.70307">
        <ele>121</ele>
        <time>2010-05-15T08:45:49Z</time>
      </trkpt>
      <trkpt lat="48.60135" lon="1.70309">
        <ele>121</ele>
        <time>2010-05-15T08:45:50Z</time>
      </trkpt>
      <trkpt lat="48.60136" lon="1.70311">
        <ele>121</ele>
        <time>2010-05-15T08:45:51Z</time>
      </trkpt>
      <trkpt lat="48.60137" lon="1.70313">
        <ele>121</ele>
        <time>2010-05-15T08:45:52Z</time>
      </trkpt>
      <trkpt lat="48.60138" lon="1.70315">
        <ele>121</ele>
        <time>2010-05-15T08:45:53Z</time>
      </trkpt>
      <trkpt lat="48.60139" lon="1.70317">
        <ele>121</ele>
        <time>2010-05-15T08:45:54Z</time>
      </trkpt>
      <trkpt lat="48.6014" lon="1.70319">
        <ele>122</ele>
        <time>2010-05-15T08:45:55Z</time>
      </trkpt>
      <trkpt lat="48.60141" lon="1.70321">
        <ele>122</ele>
        <time>2010-05-15T08:45:56Z</time>
      </trkpt>
      <trkpt lat="48.60142" lon="1.70323">
        <ele>122</ele>
        <time>2010-05-15T08:45:57Z</time>
      </trkpt>
      <trkpt lat="48.60143" lon="1.70325">
        <ele>123</ele>
        <time>2010-05-15T08:45:58Z</time>
      </trkpt>
      <trkpt lat="48.60143" lon="1.70327">
        <ele>123</ele>
        <time>2010-05-15T08:45:59Z</time>
      </trkpt>
      <trkpt lat="48.60143" lon="1.70329">
        <ele>123</ele>
        <time>2010-05-15T08:46:00Z</time>
      </trkpt>
      <trkpt lat="48.60143" lon="1.70331">
        <ele>124</ele>
        <time>2010-05-15T08:46:01Z</time>
      </trkpt>
      <trkpt lat="48.60144" lon="1.70333">
        <ele>124</ele>
        <time>2010-05-15T08:46:02Z</time>
      </trkpt>
      <trkpt lat="48.60144" lon="1.70336">
        <ele>124</ele>
        <time>2010-05-15T08:46:03Z</time>
      </trkpt>
      <trkpt lat="48.60143" lon="1.70338">
        <ele>124</ele>
        <time>2010-05-15T08:46:04Z</time>
      </trkpt>
      <trkpt lat="48.60143" lon="1.7034">
        <ele>125</ele>
        <time>2010-05-15T08:46:05Z</time>
      </trkpt>
      <trkpt lat="48.60143" lon="1.70343">
        <ele>125</ele>
        <time>2010-05-15T08:46:06Z</time>
      </trkpt>
      <trkpt lat="48.60142" lon="1.70346">
        <ele>125</ele>
        <time>2010-05-15T08:46:07Z</time>
      </trkpt>
      <trkpt lat="48.60142" lon="1.70348">
        <ele>125</ele>
        <time>2010-05-15T08:46:08Z</time>
      </trkpt>
      <trkpt lat="48.60142" lon="1.70351">
        <ele>125</ele>
        <time>2010-05-15T08:46:09Z</time>
      </trkpt>
      <trkpt lat="48.60142" lon="1.70352">
        <ele>125</ele>
        <time>2010-05-15T08:46:10Z</time>
      </trkpt>
      <trkpt lat="48.60143" lon="1.70355">
        <ele>125</ele>
        <time>2010-05-15T08:46:11Z</time>
      </trkpt>
      <trkpt lat="48.60142" lon="1.70357">
        <ele>125</ele>
        <time>2010-05-15T08:46:12Z</time>
      </trkpt>
      <trkpt lat="48.60142" lon="1.70359">
        <ele>125</ele>
        <time>2010-05-15T08:46:13Z</time>
      </trkpt>
      <trkpt lat="48.60142" lon="1.70361">
        <ele>125</ele>
        <time>2010-05-15T08:46:14Z</time>
      </trkpt>
      <trkpt lat="48.60142" lon="1.70362">
        <ele>125</ele>
        <time>2010-05-15T08:46:15Z</time>
      </trkpt>
      <trkpt lat="48.60142" lon="1.70364">
        <ele>125</ele>
        <time>2010-05-15T08:46:16Z</time>
      </trkpt>
      <trkpt lat="48.60142" lon="1.70366">
        <ele>125</ele>
        <time>2010-05-15T08:46:17Z</time>
      </trkpt>
      <trkpt lat="48.60143" lon="1.70368">
        <ele>125</ele>
        <time>2010-05-15T08:46:18Z</time>
      </trkpt>
      <trkpt lat="48.60143" lon="1.7037">
        <ele>125</ele>
        <time>2010-05-15T08:46:19Z</time>
      </trkpt>
      <trkpt lat="48.60143" lon="1.70372">
        <ele>125</ele>
        <time>2010-05-15T08:46:20Z</time>
      </trkpt>
      <trkpt lat="48.60143" lon="1.70374">
        <ele>125</ele>
        <time>2010-05-15T08:46:21Z</time>
      </trkpt>
      <trkpt lat="48.60143" lon="1.70376">
        <ele>125</ele>
        <time>2010-05-15T08:46:22Z</time>
      </trkpt>
      <trkpt lat="48.60143" lon="1.70378">
        <ele>125</ele>
        <time>2010-05-15T08:46:23Z</time>
      </trkpt>
      <trkpt lat="48.60142" lon="1.70381">
        <ele>125</ele>
        <time>2010-05-15T08:46:24Z</time>
      </trkpt>
      <trkpt lat="48.60142" lon="1.70383">
        <ele>125</ele>
        <time>2010-05-15T08:46:25Z</time>
      </trkpt>
      <trkpt lat="48.60141" lon="1.70385">
        <ele>125</ele>
        <time>2010-05-15T08:46:27Z</time>
      </trkpt>
      <trkpt lat="48.6014" lon="1.70387">
        <ele>125</ele>
        <time>2010-05-15T08:46:27Z</time>
      </trkpt>
      <trkpt lat="48.60139" lon="1.70389">
        <ele>125</ele>
        <time>2010-05-15T08:46:28Z</time>
      </trkpt>
      <trkpt lat="48.60138" lon="1.70391">
        <ele>125</ele>
        <time>2010-05-15T08:46:29Z</time>
      </trkpt>
      <trkpt lat="48.60137" lon="1.70393">
        <ele>125</ele>
        <time>2010-05-15T08:46:30Z</time>
      </trkpt>
      <trkpt lat="48.60136" lon="1.70395">
        <ele>125</ele>
        <time>2010-05-15T08:46:31Z</time>
      </trkpt>
      <trkpt lat="48.60135" lon="1.70397">
        <ele>125</ele>
        <time>2010-05-15T08:46:32Z</time>
      </trkpt>
      <trkpt lat="48.60134" lon="1.70399">
        <ele>125</ele>
        <time>2010-05-15T08:46:33Z</time>
      </trkpt>
      <trkpt lat="48.60133" lon="1.70401">
        <ele>125</ele>
        <time>2010-05-15T08:46:34Z</time>
      </trkpt>
      <trkpt lat="48.60132" lon="1.70403">
        <ele>125</ele>
        <time>2010-05-15T08:46:35Z</time>
      </trkpt>
      <trkpt lat="48.60131" lon="1.70405">
        <ele>125</ele>
        <time>2010-05-15T08:46:36Z</time>
      </trkpt>
      <trkpt lat="48.6013" lon="1.70407">
        <ele>125</ele>
        <time>2010-05-15T08:46:37Z</time>
      </trkpt>
      <trkpt lat="48.6013" lon="1.70409">
        <ele>125</ele>
        <time>2010-05-15T08:46:38Z</time>
      </trkpt>
      <trkpt lat="48.60129" lon="1.70411">
        <ele>125</ele>
        <time>2010-05-15T08:46:39Z</time>
      </trkpt>
      <trkpt lat="48.60128" lon="1.70413">
        <ele>125</ele>
        <time>2010-05-15T08:46:40Z</time>
      </trkpt>
      <trkpt lat="48.60127" lon="1.70415">
        <ele>125</ele>
        <time>2010-05-15T08:46:41Z</time>
      </trkpt>
      <trkpt lat="48.60126" lon="1.70417">
        <ele>125</ele>
        <time>2010-05-15T08:46:42Z</time>
      </trkpt>
      <trkpt lat="48.60125" lon="1.70419">
        <ele>125</ele>
        <time>2010-05-15T08:46:43Z</time>
      </trkpt>
      <trkpt lat="48.60125" lon="1.70421">
        <ele>125</ele>
        <time>2010-05-15T08:46:44Z</time>
      </trkpt>
      <trkpt lat="48.60124" lon="1.70423">
        <ele>125</ele>
        <time>2010-05-15T08:46:45Z</time>
      </trkpt>
      <trkpt lat="48.60124" lon="1.70425">
        <ele>125</ele>
        <time>2010-05-15T08:46:46Z</time>
      </trkpt>
      <trkpt lat="48.60124" lon="1.70427">
        <ele>125</ele>
        <time>2010-05-15T08:46:47Z</time>
      </trkpt>
      <trkpt lat="48.60123" lon="1.70429">
        <ele>125</ele>
        <time>2010-05-15T08:46:48Z</time>
      </trkpt>
      <trkpt lat="48.60123" lon="1.70431">
        <ele>125</ele>
        <time>2010-05-15T08:46:49Z</time>
      </trkpt>
      <trkpt lat="48.60123" lon="1.70434">
        <ele>125</ele>
        <time>2010-05-15T08:46:50Z</time>
      </trkpt>
      <trkpt lat="48.60122" lon="1.70436">
        <ele>125</ele>
        <time>2010-05-15T08:46:51Z</time>
      </trkpt>
      <trkpt lat="48.60121" lon="1.70438">
        <ele>125</ele>
        <time>2010-05-15T08:46:52Z</time>
      </trkpt>
      <trkpt lat="48.6012" lon="1.7044">
        <ele>125</ele>
        <time>2010-05-15T08:46:53Z</time>
      </trkpt>
      <trkpt lat="48.60119" lon="1.70443">
        <ele>125</ele>
        <time>2010-05-15T08:46:54Z</time>
      </trkpt>
      <trkpt lat="48.60118" lon="1.70446">
        <ele>126</ele>
        <time>2010-05-15T08:46:55Z</time>
      </trkpt>
      <trkpt lat="48.60117" lon="1.70448">
        <ele>126</ele>
        <time>2010-05-15T08:46:56Z</time>
      </trkpt>
      <trkpt lat="48.60116" lon="1.7045">
        <ele>126</ele>
        <time>2010-05-15T08:46:57Z</time>
      </trkpt>
      <trkpt lat="48.60115" lon="1.70452">
        <ele>126</ele>
        <time>2010-05-15T08:46:58Z</time>
      </trkpt>
      <trkpt lat="48.60114" lon="1.70454">
        <ele>126</ele>
        <time>2010-05-15T08:46:59Z</time>
      </trkpt>
      <trkpt lat="48.60113" lon="1.70456">
        <ele>126</ele>
        <time>2010-05-15T08:47:00Z</time>
      </trkpt>
      <trkpt lat="48.60112" lon="1.70458">
        <ele>126</ele>
        <time>2010-05-15T08:47:01Z</time>
      </trkpt>
      <trkpt lat="48.6011" lon="1.7046">
        <ele>127</ele>
        <time>2010-05-15T08:47:02Z</time>
      </trkpt>
      <trkpt lat="48.60109" lon="1.70462">
        <ele>127</ele>
        <time>2010-05-15T08:47:03Z</time>
      </trkpt>
      <trkpt lat="48.60108" lon="1.70464">
        <ele>127</ele>
        <time>2010-05-15T08:47:04Z</time>
      </trkpt>
      <trkpt lat="48.60106" lon="1.70466">
        <ele>127</ele>
        <time>2010-05-15T08:47:05Z</time>
      </trkpt>
      <trkpt lat="48.60105" lon="1.70467">
        <ele>127</ele>
        <time>2010-05-15T08:47:06Z</time>
      </trkpt>
      <trkpt lat="48.60103" lon="1.70469">
        <ele>128</ele>
        <time>2010-05-15T08:47:07Z</time>
      </trkpt>
      <trkpt lat="48.60101" lon="1.70472">
        <ele>128</ele>
        <time>2010-05-15T08:47:09Z</time>
      </trkpt>
      <trkpt lat="48.601" lon="1.70473">
        <ele>128</ele>
        <time>2010-05-15T08:47:10Z</time>
      </trkpt>
      <trkpt lat="48.60099" lon="1.70475">
        <ele>128</ele>
        <time>2010-05-15T08:47:11Z</time>
      </trkpt>
      <trkpt lat="48.60098" lon="1.70477">
        <ele>129</ele>
        <time>2010-05-15T08:47:12Z</time>
      </trkpt>
      <trkpt lat="48.60096" lon="1.70478">
        <ele>129</ele>
        <time>2010-05-15T08:47:13Z</time>
      </trkpt>
      <trkpt lat="48.60095" lon="1.7048">
        <ele>129</ele>
        <time>2010-05-15T08:47:14Z</time>
      </trkpt>
      <trkpt lat="48.60094" lon="1.70481">
        <ele>129</ele>
        <time>2010-05-15T08:47:15Z</time>
      </trkpt>
      <trkpt lat="48.60092" lon="1.70483">
        <ele>129</ele>
        <time>2010-05-15T08:47:16Z</time>
      </trkpt>
      <trkpt lat="48.60091" lon="1.70485">
        <ele>129</ele>
        <time>2010-05-15T08:47:17Z</time>
      </trkpt>
      <trkpt lat="48.6009" lon="1.70486">
        <ele>129</ele>
        <time>2010-05-15T08:47:18Z</time>
      </trkpt>
      <trkpt lat="48.60089" lon="1.70488">
        <ele>129</ele>
        <time>2010-05-15T08:47:19Z</time>
      </trkpt>
      <trkpt lat="48.60087" lon="1.7049">
        <ele>129</ele>
        <time>2010-05-15T08:47:20Z</time>
      </trkpt>
      <trkpt lat="48.60086" lon="1.70491">
        <ele>129</ele>
        <time>2010-05-15T08:47:21Z</time>
      </trkpt>
      <trkpt lat="48.60085" lon="1.70493">
        <ele>129</ele>
        <time>2010-05-15T08:47:22Z</time>
      </trkpt>
      <trkpt lat="48.60084" lon="1.70495">
        <ele>129</ele>
        <time>2010-05-15T08:47:23Z</time>
      </trkpt>
      <trkpt lat="48.60082" lon="1.70497">
        <ele>129</ele>
        <time>2010-05-15T08:47:24Z</time>
      </trkpt>
      <trkpt lat="48.60081" lon="1.70499">
        <ele>129</ele>
        <time>2010-05-15T08:47:25Z</time>
      </trkpt>
      <trkpt lat="48.60079" lon="1.70502">
        <ele>129</ele>
        <time>2010-05-15T08:47:27Z</time>
      </trkpt>
      <trkpt lat="48.60078" lon="1.70504">
        <ele>129</ele>
        <time>2010-05-15T08:47:28Z</time>
      </trkpt>
      <trkpt lat="48.60077" lon="1.70505">
        <ele>129</ele>
        <time>2010-05-15T08:47:29Z</time>
      </trkpt>
      <trkpt lat="48.60076" lon="1.70507">
        <ele>129</ele>
        <time>2010-05-15T08:47:30Z</time>
      </trkpt>
      <trkpt lat="48.60075" lon="1.70509">
        <ele>129</ele>
        <time>2010-05-15T08:47:31Z</time>
      </trkpt>
      <trkpt lat="48.60074" lon="1.70511">
        <ele>129</ele>
        <time>2010-05-15T08:47:32Z</time>
      </trkpt>
      <trkpt lat="48.60073" lon="1.70513">
        <ele>129</ele>
        <time>2010-05-15T08:47:33Z</time>
      </trkpt>
      <trkpt lat="48.60072" lon="1.70515">
        <ele>129</ele>
        <time>2010-05-15T08:47:34Z</time>
      </trkpt>
      <trkpt lat="48.60071" lon="1.70517">
        <ele>129</ele>
        <time>2010-05-15T08:47:35Z</time>
      </trkpt>
      <trkpt lat="48.6007" lon="1.70519">
        <ele>129</ele>
        <time>2010-05-15T08:47:36Z</time>
      </trkpt>
      <trkpt lat="48.60069" lon="1.7052">
        <ele>129</ele>
        <time>2010-05-15T08:47:37Z</time>
      </trkpt>
      <trkpt lat="48.60068" lon="1.70522">
        <ele>129</ele>
        <time>2010-05-15T08:47:38Z</time>
      </trkpt>
      <trkpt lat="48.60067" lon="1.70524">
        <ele>129</ele>
        <time>2010-05-15T08:47:39Z</time>
      </trkpt>
      <trkpt lat="48.60066" lon="1.70526">
        <ele>129</ele>
        <time>2010-05-15T08:47:40Z</time>
      </trkpt>
      <trkpt lat="48.60065" lon="1.70527">
        <ele>129</ele>
        <time>2010-05-15T08:47:41Z</time>
      </trkpt>
      <trkpt lat="48.60064" lon="1.70529">
        <ele>129</ele>
        <time>2010-05-15T08:47:42Z</time>
      </trkpt>
      <trkpt lat="48.60063" lon="1.70532">
        <ele>129</ele>
        <time>2010-05-15T08:47:43Z</time>
      </trkpt>
      <trkpt lat="48.60061" lon="1.70534">
        <ele>129</ele>
        <time>2010-05-15T08:47:44Z</time>
      </trkpt>
      <trkpt lat="48.6006" lon="1.70536">
        <ele>129</ele>
        <time>2010-05-15T08:47:45Z</time>
      </trkpt>
      <trkpt lat="48.60059" lon="1.70538">
        <ele>129</ele>
        <time>2010-05-15T08:47:46Z</time>
      </trkpt>
      <trkpt lat="48.60058" lon="1.7054">
        <ele>129</ele>
        <time>2010-05-15T08:47:47Z</time>
      </trkpt>
      <trkpt lat="48.60057" lon="1.70543">
        <ele>129</ele>
        <time>2010-05-15T08:47:48Z</time>
      </trkpt>
      <trkpt lat="48.60056" lon="1.70545">
        <ele>129</ele>
        <time>2010-05-15T08:47:49Z</time>
      </trkpt>
      <trkpt lat="48.60054" lon="1.70547">
        <ele>129</ele>
        <time>2010-05-15T08:47:50Z</time>
      </trkpt>
      <trkpt lat="48.60054" lon="1.70549">
        <ele>129</ele>
        <time>2010-05-15T08:47:51Z</time>
      </trkpt>
      <trkpt lat="48.60053" lon="1.70551">
        <ele>129</ele>
        <time>2010-05-15T08:47:52Z</time>
      </trkpt>
      <trkpt lat="48.60052" lon="1.70553">
        <ele>129</ele>
        <time>2010-05-15T08:47:53Z</time>
      </trkpt>
      <trkpt lat="48.60051" lon="1.70555">
        <ele>129</ele>
        <time>2010-05-15T08:47:54Z</time>
      </trkpt>
      <trkpt lat="48.60051" lon="1.70557">
        <ele>129</ele>
        <time>2010-05-15T08:47:55Z</time>
      </trkpt>
      <trkpt lat="48.6005" lon="1.70559">
        <ele>129</ele>
        <time>2010-05-15T08:47:56Z</time>
      </trkpt>
      <trkpt lat="48.60049" lon="1.70561">
        <ele>129</ele>
        <time>2010-05-15T08:47:58Z</time>
      </trkpt>
      <trkpt lat="48.60048" lon="1.70562">
        <ele>129</ele>
        <time>2010-05-15T08:48:09Z</time>
      </trkpt>
      <trkpt lat="48.60047" lon="1.70564">
        <ele>129</ele>
        <time>2010-05-15T08:48:12Z</time>
      </trkpt>
      <trkpt lat="48.60047" lon="1.70567">
        <ele>129</ele>
        <time>2010-05-15T08:48:22Z</time>
      </trkpt>
      <trkpt lat="48.60047" lon="1.7057">
        <ele>129</ele>
        <time>2010-05-15T08:48:24Z</time>
      </trkpt>
      <trkpt lat="48.60046" lon="1.70572">
        <ele>129</ele>
        <time>2010-05-15T08:48:25Z</time>
      </trkpt>
      <trkpt lat="48.60046" lon="1.70574">
        <ele>129</ele>
        <time>2010-05-15T08:48:26Z</time>
      </trkpt>
      <trkpt lat="48.60046" lon="1.70575">
        <ele>129</ele>
        <time>2010-05-15T08:48:27Z</time>
      </trkpt>
      <trkpt lat="48.60046" lon="1.70577">
        <ele>129</ele>
        <time>2010-05-15T08:48:28Z</time>
      </trkpt>
      <trkpt lat="48.60045" lon="1.70579">
        <ele>129</ele>
        <time>2010-05-15T08:48:29Z</time>
      </trkpt>
      <trkpt lat="48.60044" lon="1.70581">
        <ele>129</ele>
        <time>2010-05-15T08:48:30Z</time>
      </trkpt>
      <trkpt lat="48.60044" lon="1.70582">
        <ele>129</ele>
        <time>2010-05-15T08:48:31Z</time>
      </trkpt>
      <trkpt lat="48.60044" lon="1.70584">
        <ele>129</ele>
        <time>2010-05-15T08:48:32Z</time>
      </trkpt>
      <trkpt lat="48.60043" lon="1.70586">
        <ele>129</ele>
        <time>2010-05-15T08:48:33Z</time>
      </trkpt>
      <trkpt lat="48.60043" lon="1.70588">
        <ele>129</ele>
        <time>2010-05-15T08:48:34Z</time>
      </trkpt>
      <trkpt lat="48.60042" lon="1.7059">
        <ele>129</ele>
        <time>2010-05-15T08:48:35Z</time>
      </trkpt>
      <trkpt lat="48.60042" lon="1.70592">
        <ele>129</ele>
        <time>2010-05-15T08:48:36Z</time>
      </trkpt>
      <trkpt lat="48.60041" lon="1.70594">
        <ele>129</ele>
        <time>2010-05-15T08:48:37Z</time>
      </trkpt>
      <trkpt lat="48.60041" lon="1.70596">
        <ele>129</ele>
        <time>2010-05-15T08:48:38Z</time>
      </trkpt>
      <trkpt lat="48.6004" lon="1.70599">
        <ele>129</ele>
        <time>2010-05-15T08:48:39Z</time>
      </trkpt>
      <trkpt lat="48.60039" lon="1.70601">
        <ele>129</ele>
        <time>2010-05-15T08:48:40Z</time>
      </trkpt>
      <trkpt lat="48.60039" lon="1.70603">
        <ele>129</ele>
        <time>2010-05-15T08:48:41Z</time>
      </trkpt>
      <trkpt lat="48.60038" lon="1.70605">
        <ele>129</ele>
        <time>2010-05-15T08:48:42Z</time>
      </trkpt>
      <trkpt lat="48.60038" lon="1.70607">
        <ele>129</ele>
        <time>2010-05-15T08:48:43Z</time>
      </trkpt>
      <trkpt lat="48.60037" lon="1.7061">
        <ele>129</ele>
        <time>2010-05-15T08:48:44Z</time>
      </trkpt>
      <trkpt lat="48.60037" lon="1.70612">
        <ele>129</ele>
        <time>2010-05-15T08:48:45Z</time>
      </trkpt>
      <trkpt lat="48.60036" lon="1.70614">
        <ele>129</ele>
        <time>2010-05-15T08:48:46Z</time>
      </trkpt>
      <trkpt lat="48.60035" lon="1.70617">
        <ele>129</ele>
        <time>2010-05-15T08:48:47Z</time>
      </trkpt>
      <trkpt lat="48.60035" lon="1.70619">
        <ele>129</ele>
        <time>2010-05-15T08:48:48Z</time>
      </trkpt>
      <trkpt lat="48.60034" lon="1.70622">
        <ele>129</ele>
        <time>2010-05-15T08:48:49Z</time>
      </trkpt>
      <trkpt lat="48.60034" lon="1.70623">
        <ele>129</ele>
        <time>2010-05-15T08:48:50Z</time>
      </trkpt>
      <trkpt lat="48.60034" lon="1.70625">
        <ele>129</ele>
        <time>2010-05-15T08:48:51Z</time>
      </trkpt>
      <trkpt lat="48.60033" lon="1.70627">
        <ele>130</ele>
        <time>2010-05-15T08:48:52Z</time>
      </trkpt>
      <trkpt lat="48.60032" lon="1.7063">
        <ele>130</ele>
        <time>2010-05-15T08:48:53Z</time>
      </trkpt>
      <trkpt lat="48.60032" lon="1.70632">
        <ele>131</ele>
        <time>2010-05-15T08:48:54Z</time>
      </trkpt>
      <trkpt lat="48.60032" lon="1.70633">
        <ele>131</ele>
        <time>2010-05-15T08:48:55Z</time>
      </trkpt>
      <trkpt lat="48.60032" lon="1.70635">
        <ele>132</ele>
        <time>2010-05-15T08:48:56Z</time>
      </trkpt>
      <trkpt lat="48.60032" lon="1.70637">
        <ele>132</ele>
        <time>2010-05-15T08:48:57Z</time>
      </trkpt>
      <trkpt lat="48.60032" lon="1.70639">
        <ele>132</ele>
        <time>2010-05-15T08:48:58Z</time>
      </trkpt>
      <trkpt lat="48.60031" lon="1.70641">
        <ele>132</ele>
        <time>2010-05-15T08:48:59Z</time>
      </trkpt>
      <trkpt lat="48.60031" lon="1.70643">
        <ele>133</ele>
        <time>2010-05-15T08:49:00Z</time>
      </trkpt>
      <trkpt lat="48.60031" lon="1.70645">
        <ele>133</ele>
        <time>2010-05-15T08:49:01Z</time>
      </trkpt>
      <trkpt lat="48.60032" lon="1.70647">
        <ele>133</ele>
        <time>2010-05-15T08:49:02Z</time>
      </trkpt>
      <trkpt lat="48.60032" lon="1.70649">
        <ele>133</ele>
        <time>2010-05-15T08:49:03Z</time>
      </trkpt>
      <trkpt lat="48.60032" lon="1.70651">
        <ele>134</ele>
        <time>2010-05-15T08:49:04Z</time>
      </trkpt>
      <trkpt lat="48.60033" lon="1.70653">
        <ele>134</ele>
        <time>2010-05-15T08:49:05Z</time>
      </trkpt>
      <trkpt lat="48.60034" lon="1.70654">
        <ele>134</ele>
        <time>2010-05-15T08:49:06Z</time>
      </trkpt>
      <trkpt lat="48.60036" lon="1.70657">
        <ele>134</ele>
        <time>2010-05-15T08:49:08Z</time>
      </trkpt>
      <trkpt lat="48.60037" lon="1.70659">
        <ele>134</ele>
        <time>2010-05-15T08:49:09Z</time>
      </trkpt>
      <trkpt lat="48.60039" lon="1.7066">
        <ele>134</ele>
        <time>2010-05-15T08:49:11Z</time>
      </trkpt>
      <trkpt lat="48.6004" lon="1.70661">
        <ele>134</ele>
        <time>2010-05-15T08:49:12Z</time>
      </trkpt>
      <trkpt lat="48.60042" lon="1.70661">
        <ele>134</ele>
        <time>2010-05-15T08:49:13Z</time>
      </trkpt>
      <trkpt lat="48.60043" lon="1.70661">
        <ele>134</ele>
        <time>2010-05-15T08:49:14Z</time>
      </trkpt>
      <trkpt lat="48.60046" lon="1.70661">
        <ele>134</ele>
        <time>2010-05-15T08:49:15Z</time>
      </trkpt>
      <trkpt lat="48.60047" lon="1.7066">
        <ele>134</ele>
        <time>2010-05-15T08:49:16Z</time>
      </trkpt>
      <trkpt lat="48.60049" lon="1.70659">
        <ele>134</ele>
        <time>2010-05-15T08:49:17Z</time>
      </trkpt>
      <trkpt lat="48.60051" lon="1.70657">
        <ele>134</ele>
        <time>2010-05-15T08:49:18Z</time>
      </trkpt>
      <trkpt lat="48.60053" lon="1.70656">
        <ele>134</ele>
        <time>2010-05-15T08:49:19Z</time>
      </trkpt>
      <trkpt lat="48.60055" lon="1.70654">
        <ele>134</ele>
        <time>2010-05-15T08:49:20Z</time>
      </trkpt>
      <trkpt lat="48.60056" lon="1.70653">
        <ele>134</ele>
        <time>2010-05-15T08:49:21Z</time>
      </trkpt>
      <trkpt lat="48.60058" lon="1.70651">
        <ele>134</ele>
        <time>2010-05-15T08:49:22Z</time>
      </trkpt>
      <trkpt lat="48.60059" lon="1.70649">
        <ele>134</ele>
        <time>2010-05-15T08:49:23Z</time>
      </trkpt>
      <trkpt lat="48.6006" lon="1.70647">
        <ele>134</ele>
        <time>2010-05-15T08:49:24Z</time>
      </trkpt>
      <trkpt lat="48.60061" lon="1.70646">
        <ele>134</ele>
        <time>2010-05-15T08:49:25Z</time>
      </trkpt>
      <trkpt lat="48.60062" lon="1.70644">
        <ele>135</ele>
        <time>2010-05-15T08:49:26Z</time>
      </trkpt>
      <trkpt lat="48.60063" lon="1.70642">
        <ele>135</ele>
        <time>2010-05-15T08:49:27Z</time>
      </trkpt>
      <trkpt lat="48.60064" lon="1.7064">
        <ele>135</ele>
        <time>2010-05-15T08:49:28Z</time>
      </trkpt>
      <trkpt lat="48.60065" lon="1.70638">
        <ele>135</ele>
        <time>2010-05-15T08:49:29Z</time>
      </trkpt>
      <trkpt lat="48.60066" lon="1.70636">
        <ele>135</ele>
        <time>2010-05-15T08:49:30Z</time>
      </trkpt>
      <trkpt lat="48.60068" lon="1.70633">
        <ele>135</ele>
        <time>2010-05-15T08:49:32Z</time>
      </trkpt>
      <trkpt lat="48.6007" lon="1.70632">
        <ele>135</ele>
        <time>2010-05-15T08:49:34Z</time>
      </trkpt>
      <trkpt lat="48.60071" lon="1.70633">
        <ele>135</ele>
        <time>2010-05-15T08:49:35Z</time>
      </trkpt>
      <trkpt lat="48.60073" lon="1.70634">
        <ele>135</ele>
        <time>2010-05-15T08:49:36Z</time>
      </trkpt>
      <trkpt lat="48.60073" lon="1.70636">
        <ele>135</ele>
        <time>2010-05-15T08:49:37Z</time>
      </trkpt>
      <trkpt lat="48.60074" lon="1.70639">
        <ele>135</ele>
        <time>2010-05-15T08:49:38Z</time>
      </trkpt>
      <trkpt lat="48.60074" lon="1.70641">
        <ele>135</ele>
        <time>2010-05-15T08:49:39Z</time>
      </trkpt>
      <trkpt lat="48.60075" lon="1.70644">
        <ele>135</ele>
        <time>2010-05-15T08:49:40Z</time>
      </trkpt>
      <trkpt lat="48.60074" lon="1.70646">
        <ele>135</ele>
        <time>2010-05-15T08:49:41Z</time>
      </trkpt>
      <trkpt lat="48.60074" lon="1.70648">
        <ele>135</ele>
        <time>2010-05-15T08:49:42Z</time>
      </trkpt>
      <trkpt lat="48.60074" lon="1.7065">
        <ele>135</ele>
        <time>2010-05-15T08:49:43Z</time>
      </trkpt>
      <trkpt lat="48.60074" lon="1.70652">
        <ele>135</ele>
        <time>2010-05-15T08:49:44Z</time>
      </trkpt>
      <trkpt lat="48.60074" lon="1.70654">
        <ele>136</ele>
        <time>2010-05-15T08:49:45Z</time>
      </trkpt>
      <trkpt lat="48.60074" lon="1.70656">
        <ele>136</ele>
        <time>2010-05-15T08:49:46Z</time>
      </trkpt>
      <trkpt lat="48.60075" lon="1.70658">
        <ele>136</ele>
        <time>2010-05-15T08:49:47Z</time>
      </trkpt>
      <trkpt lat="48.60075" lon="1.7066">
        <ele>136</ele>
        <time>2010-05-15T08:49:48Z</time>
      </trkpt>
      <trkpt lat="48.60076" lon="1.70662">
        <ele>136</ele>
        <time>2010-05-15T08:49:49Z</time>
      </trkpt>
      <trkpt lat="48.60077" lon="1.70664">
        <ele>136</ele>
        <time>2010-05-15T08:49:50Z</time>
      </trkpt>
      <trkpt lat="48.60077" lon="1.70667">
        <ele>136</ele>
        <time>2010-05-15T08:49:51Z</time>
      </trkpt>
      <trkpt lat="48.60077" lon="1.70669">
        <ele>136</ele>
        <time>2010-05-15T08:49:52Z</time>
      </trkpt>
      <trkpt lat="48.60077" lon="1.70672">
        <ele>136</ele>
        <time>2010-05-15T08:49:53Z</time>
      </trkpt>
      <trkpt lat="48.60077" lon="1.70675">
        <ele>137</ele>
        <time>2010-05-15T08:49:54Z</time>
      </trkpt>
      <trkpt lat="48.60077" lon="1.70678">
        <ele>138</ele>
        <time>2010-05-15T08:49:55Z</time>
      </trkpt>
      <trkpt lat="48.60076" lon="1.70681">
        <ele>139</ele>
        <time>2010-05-15T08:49:56Z</time>
      </trkpt>
      <trkpt lat="48.60076" lon="1.70683">
        <ele>140</ele>
        <time>2010-05-15T08:49:57Z</time>
      </trkpt>
      <trkpt lat="48.60076" lon="1.70686">
        <ele>140</ele>
        <time>2010-05-15T08:49:58Z</time>
      </trkpt>
      <trkpt lat="48.60076" lon="1.70689">
        <ele>141</ele>
        <time>2010-05-15T08:49:59Z</time>
      </trkpt>
      <trkpt lat="48.60076" lon="1.70691">
        <ele>142</ele>
        <time>2010-05-15T08:50:00Z</time>
      </trkpt>
      <trkpt lat="48.60076" lon="1.70693">
        <ele>142</ele>
        <time>2010-05-15T08:50:01Z</time>
      </trkpt>
      <trkpt lat="48.60076" lon="1.70696">
        <ele>142</ele>
        <time>2010-05-15T08:50:02Z</time>
      </trkpt>
      <trkpt lat="48.60076" lon="1.70698">
        <ele>143</ele>
        <time>2010-05-15T08:50:03Z</time>
      </trkpt>
      <trkpt lat="48.60076" lon="1.707">
        <ele>143</ele>
        <time>2010-05-15T08:50:04Z</time>
      </trkpt>
      <trkpt lat="48.60076" lon="1.70703">
        <ele>143</ele>
        <time>2010-05-15T08:50:05Z</time>
      </trkpt>
      <trkpt lat="48.60075" lon="1.70705">
        <ele>143</ele>
        <time>2010-05-15T08:50:06Z</time>
      </trkpt>
      <trkpt lat="48.60075" lon="1.70708">
        <ele>143</ele>
        <time>2010-05-15T08:50:07Z</time>
      </trkpt>
      <trkpt lat="48.60075" lon="1.7071">
        <ele>144</ele>
        <time>2010-05-15T08:50:08Z</time>
      </trkpt>
      <trkpt lat="48.60074" lon="1.70712">
        <ele>145</ele>
        <time>2010-05-15T08:50:09Z</time>
      </trkpt>
      <trkpt lat="48.60074" lon="1.70715">
        <ele>146</ele>
        <time>2010-05-15T08:50:10Z</time>
      </trkpt>
      <trkpt lat="48.60074" lon="1.70717">
        <ele>146</ele>
        <time>2010-05-15T08:50:11Z</time>
      </trkpt>
      <trkpt lat="48.60073" lon="1.7072">
        <ele>147</ele>
        <time>2010-05-15T08:50:12Z</time>
      </trkpt>
      <trkpt lat="48.60073" lon="1.70722">
        <ele>148</ele>
        <time>2010-05-15T08:50:13Z</time>
      </trkpt>
      <trkpt lat="48.60073" lon="1.70725">
        <ele>148</ele>
        <time>2010-05-15T08:50:14Z</time>
      </trkpt>
      <trkpt lat="48.60072" lon="1.70727">
        <ele>149</ele>
        <time>2010-05-15T08:50:15Z</time>
      </trkpt>
      <trkpt lat="48.60072" lon="1.70729">
        <ele>149</ele>
        <time>2010-05-15T08:50:16Z</time>
      </trkpt>
      <trkpt lat="48.60071" lon="1.70732">
        <ele>149</ele>
        <time>2010-05-15T08:50:18Z</time>
      </trkpt>
      <trkpt lat="48.60071" lon="1.70736">
        <ele>150</ele>
        <time>2010-05-15T08:50:20Z</time>
      </trkpt>
      <trkpt lat="48.6007" lon="1.70738">
        <ele>150</ele>
        <time>2010-05-15T08:50:21Z</time>
      </trkpt>
      <trkpt lat="48.6007" lon="1.70739">
        <ele>150</ele>
        <time>2010-05-15T08:50:22Z</time>
      </trkpt>
      <trkpt lat="48.60069" lon="1.70743">
        <ele>150</ele>
        <time>2010-05-15T08:50:24Z</time>
      </trkpt>
      <trkpt lat="48.60069" lon="1.70744">
        <ele>150</ele>
        <time>2010-05-15T08:50:25Z</time>
      </trkpt>
      <trkpt lat="48.60069" lon="1.70747">
        <ele>150</ele>
        <time>2010-05-15T08:50:26Z</time>
      </trkpt>
      <trkpt lat="48.60069" lon="1.70749">
        <ele>150</ele>
        <time>2010-05-15T08:50:27Z</time>
      </trkpt>
      <trkpt lat="48.60069" lon="1.70751">
        <ele>150</ele>
        <time>2010-05-15T08:50:28Z</time>
      </trkpt>
      <trkpt lat="48.60068" lon="1.70753">
        <ele>150</ele>
        <time>2010-05-15T08:50:29Z</time>
      </trkpt>
      <trkpt lat="48.60068" lon="1.70755">
        <ele>150</ele>
        <time>2010-05-15T08:50:30Z</time>
      </trkpt>
      <trkpt lat="48.60068" lon="1.70757">
        <ele>150</ele>
        <time>2010-05-15T08:50:31Z</time>
      </trkpt>
      <trkpt lat="48.60067" lon="1.70759">
        <ele>150</ele>
        <time>2010-05-15T08:50:32Z</time>
      </trkpt>
      <trkpt lat="48.60067" lon="1.70761">
        <ele>150</ele>
        <time>2010-05-15T08:50:33Z</time>
      </trkpt>
      <trkpt lat="48.60066" lon="1.70763">
        <ele>150</ele>
        <time>2010-05-15T08:50:34Z</time>
      </trkpt>
      <trkpt lat="48.60066" lon="1.70765">
        <ele>150</ele>
        <time>2010-05-15T08:50:35Z</time>
      </trkpt>
      <trkpt lat="48.60064" lon="1.70769">
        <ele>150</ele>
        <time>2010-05-15T08:50:37Z</time>
      </trkpt>
      <trkpt lat="48.60063" lon="1.70773">
        <ele>150</ele>
        <time>2010-05-15T08:50:38Z</time>
      </trkpt>
      <trkpt lat="48.60062" lon="1.70777">
        <ele>150</ele>
        <time>2010-05-15T08:50:39Z</time>
      </trkpt>
      <trkpt lat="48.60062" lon="1.7078">
        <ele>150</ele>
        <time>2010-05-15T08:50:40Z</time>
      </trkpt>
      <trkpt lat="48.60061" lon="1.70784">
        <ele>150</ele>
        <time>2010-05-15T08:50:41Z</time>
      </trkpt>
      <trkpt lat="48.6006" lon="1.70787">
        <ele>150</ele>
        <time>2010-05-15T08:50:42Z</time>
      </trkpt>
      <trkpt lat="48.60059" lon="1.7079">
        <ele>150</ele>
        <time>2010-05-15T08:50:43Z</time>
      </trkpt>
      <trkpt lat="48.60058" lon="1.70793">
        <ele>150</ele>
        <time>2010-05-15T08:50:44Z</time>
      </trkpt>
      <trkpt lat="48.60057" lon="1.70796">
        <ele>151</ele>
        <time>2010-05-15T08:50:45Z</time>
      </trkpt>
      <trkpt lat="48.60057" lon="1.70799">
        <ele>151</ele>
        <time>2010-05-15T08:50:46Z</time>
      </trkpt>
      <trkpt lat="48.60056" lon="1.70801">
        <ele>151</ele>
        <time>2010-05-15T08:50:47Z</time>
      </trkpt>
      <trkpt lat="48.60055" lon="1.70804">
        <ele>151</ele>
        <time>2010-05-15T08:50:48Z</time>
      </trkpt>
      <trkpt lat="48.60055" lon="1.70806">
        <ele>151</ele>
        <time>2010-05-15T08:50:49Z</time>
      </trkpt>
      <trkpt lat="48.60055" lon="1.70808">
        <ele>151</ele>
        <time>2010-05-15T08:50:50Z</time>
      </trkpt>
      <trkpt lat="48.60055" lon="1.7081">
        <ele>152</ele>
        <time>2010-05-15T08:50:51Z</time>
      </trkpt>
      <trkpt lat="48.60054" lon="1.70812">
        <ele>152</ele>
        <time>2010-05-15T08:50:52Z</time>
      </trkpt>
      <trkpt lat="48.60054" lon="1.70814">
        <ele>152</ele>
        <time>2010-05-15T08:50:53Z</time>
      </trkpt>
      <trkpt lat="48.60054" lon="1.70816">
        <ele>152</ele>
        <time>2010-05-15T08:50:54Z</time>
      </trkpt>
      <trkpt lat="48.60054" lon="1.70818">
        <ele>152</ele>
        <time>2010-05-15T08:50:55Z</time>
      </trkpt>
      <trkpt lat="48.60054" lon="1.70819">
        <ele>152</ele>
        <time>2010-05-15T08:50:56Z</time>
      </trkpt>
      <trkpt lat="48.60053" lon="1.70822">
        <ele>152</ele>
        <time>2010-05-15T08:50:57Z</time>
      </trkpt>
      <trkpt lat="48.60052" lon="1.70825">
        <ele>152</ele>
        <time>2010-05-15T08:50:58Z</time>
      </trkpt>
      <trkpt lat="48.60051" lon="1.70828">
        <ele>152</ele>
        <time>2010-05-15T08:50:59Z</time>
      </trkpt>
      <trkpt lat="48.6005" lon="1.70832">
        <ele>152</ele>
        <time>2010-05-15T08:51:00Z</time>
      </trkpt>
      <trkpt lat="48.60049" lon="1.70835">
        <ele>152</ele>
        <time>2010-05-15T08:51:01Z</time>
      </trkpt>
      <trkpt lat="48.60048" lon="1.70839">
        <ele>152</ele>
        <time>2010-05-15T08:51:02Z</time>
      </trkpt>
      <trkpt lat="48.60047" lon="1.70843">
        <ele>152</ele>
        <time>2010-05-15T08:51:03Z</time>
      </trkpt>
      <trkpt lat="48.60046" lon="1.70847">
        <ele>152</ele>
        <time>2010-05-15T08:51:04Z</time>
      </trkpt>
      <trkpt lat="48.60046" lon="1.7085">
        <ele>152</ele>
        <time>2010-05-15T08:51:05Z</time>
      </trkpt>
      <trkpt lat="48.60047" lon="1.70852">
        <ele>152</ele>
        <time>2010-05-15T08:51:06Z</time>
      </trkpt>
      <trkpt lat="48.60046" lon="1.70854">
        <ele>153</ele>
        <time>2010-05-15T08:51:07Z</time>
      </trkpt>
      <trkpt lat="48.60047" lon="1.70856">
        <ele>153</ele>
        <time>2010-05-15T08:51:08Z</time>
      </trkpt>
      <trkpt lat="48.60046" lon="1.70859">
        <ele>153</ele>
        <time>2010-05-15T08:51:09Z</time>
      </trkpt>
      <trkpt lat="48.60045" lon="1.70862">
        <ele>153</ele>
        <time>2010-05-15T08:51:11Z</time>
      </trkpt>
      <trkpt lat="48.60044" lon="1.70864">
        <ele>153</ele>
        <time>2010-05-15T08:51:12Z</time>
      </trkpt>
      <trkpt lat="48.60043" lon="1.70866">
        <ele>153</ele>
        <time>2010-05-15T08:51:13Z</time>
      </trkpt>
      <trkpt lat="48.6004" lon="1.70869">
        <ele>154</ele>
        <time>2010-05-15T08:51:15Z</time>
      </trkpt>
      <trkpt lat="48.6004" lon="1.70871">
        <ele>154</ele>
        <time>2010-05-15T08:51:16Z</time>
      </trkpt>
      <trkpt lat="48.60039" lon="1.70874">
        <ele>154</ele>
        <time>2010-05-15T08:51:17Z</time>
      </trkpt>
      <trkpt lat="48.60038" lon="1.70876">
        <ele>155</ele>
        <time>2010-05-15T08:51:18Z</time>
      </trkpt>
      <trkpt lat="48.60038" lon="1.70878">
        <ele>155</ele>
        <time>2010-05-15T08:51:19Z</time>
      </trkpt>
      <trkpt lat="48.60037" lon="1.70881">
        <ele>155</ele>
        <time>2010-05-15T08:51:20Z</time>
      </trkpt>
      <trkpt lat="48.60037" lon="1.70884">
        <ele>155</ele>
        <time>2010-05-15T08:51:21Z</time>
      </trkpt>
      <trkpt lat="48.60036" lon="1.70886">
        <ele>155</ele>
        <time>2010-05-15T08:51:22Z</time>
      </trkpt>
      <trkpt lat="48.60036" lon="1.70888">
        <ele>156</ele>
        <time>2010-05-15T08:51:23Z</time>
      </trkpt>
      <trkpt lat="48.60035" lon="1.70891">
        <ele>156</ele>
        <time>2010-05-15T08:51:24Z</time>
      </trkpt>
      <trkpt lat="48.60035" lon="1.70893">
        <ele>156</ele>
        <time>2010-05-15T08:51:25Z</time>
      </trkpt>
      <trkpt lat="48.60035" lon="1.70896">
        <ele>156</ele>
        <time>2010-05-15T08:51:27Z</time>
      </trkpt>
      <trkpt lat="48.60034" lon="1.70898">
        <ele>156</ele>
        <time>2010-05-15T08:51:28Z</time>
      </trkpt>
      <trkpt lat="48.60034" lon="1.709">
        <ele>157</ele>
        <time>2010-05-15T08:51:29Z</time>
      </trkpt>
      <trkpt lat="48.60034" lon="1.70902">
        <ele>157</ele>
        <time>2010-05-15T08:51:30Z</time>
      </trkpt>
      <trkpt lat="48.60033" lon="1.70905">
        <ele>157</ele>
        <time>2010-05-15T08:51:31Z</time>
      </trkpt>
      <trkpt lat="48.60033" lon="1.70907">
        <ele>157</ele>
        <time>2010-05-15T08:51:32Z</time>
      </trkpt>
      <trkpt lat="48.60033" lon="1.70909">
        <ele>157</ele>
        <time>2010-05-15T08:51:33Z</time>
      </trkpt>
      <trkpt lat="48.60033" lon="1.70911">
        <ele>158</ele>
        <time>2010-05-15T08:51:34Z</time>
      </trkpt>
      <trkpt lat="48.60033" lon="1.70913">
        <ele>158</ele>
        <time>2010-05-15T08:51:35Z</time>
      </trkpt>
      <trkpt lat="48.60034" lon="1.70915">
        <ele>158</ele>
        <time>2010-05-15T08:51:36Z</time>
      </trkpt>
      <trkpt lat="48.60034" lon="1.70917">
        <ele>159</ele>
        <time>2010-05-15T08:51:37Z</time>
      </trkpt>
      <trkpt lat="48.60035" lon="1.70919">
        <ele>159</ele>
        <time>2010-05-15T08:51:38Z</time>
      </trkpt>
      <trkpt lat="48.60035" lon="1.70921">
        <ele>159</ele>
        <time>2010-05-15T08:51:39Z</time>
      </trkpt>
      <trkpt lat="48.60036" lon="1.70923">
        <ele>159</ele>
        <time>2010-05-15T08:51:40Z</time>
      </trkpt>
      <trkpt lat="48.60036" lon="1.70925">
        <ele>159</ele>
        <time>2010-05-15T08:51:41Z</time>
      </trkpt>
      <trkpt lat="48.60037" lon="1.70929">
        <ele>160</ele>
        <time>2010-05-15T08:51:42Z</time>
      </trkpt>
      <trkpt lat="48.60039" lon="1.70932">
        <ele>160</ele>
        <time>2010-05-15T08:51:43Z</time>
      </trkpt>
      <trkpt lat="48.6004" lon="1.70934">
        <ele>160</ele>
        <time>2010-05-15T08:51:44Z</time>
      </trkpt>
      <trkpt lat="48.60042" lon="1.70937">
        <ele>160</ele>
        <time>2010-05-15T08:51:45Z</time>
      </trkpt>
      <trkpt lat="48.60043" lon="1.7094">
        <ele>161</ele>
        <time>2010-05-15T08:51:46Z</time>
      </trkpt>
      <trkpt lat="48.60044" lon="1.70943">
        <ele>161</ele>
        <time>2010-05-15T08:51:47Z</time>
      </trkpt>
      <trkpt lat="48.60044" lon="1.70946">
        <ele>161</ele>
        <time>2010-05-15T08:51:48Z</time>
      </trkpt>
      <trkpt lat="48.60044" lon="1.70949">
        <ele>161</ele>
        <time>2010-05-15T08:51:49Z</time>
      </trkpt>
      <trkpt lat="48.60045" lon="1.70951">
        <ele>161</ele>
        <time>2010-05-15T08:51:50Z</time>
      </trkpt>
      <trkpt lat="48.60044" lon="1.70954">
        <ele>162</ele>
        <time>2010-05-15T08:51:51Z</time>
      </trkpt>
      <trkpt lat="48.60045" lon="1.70957">
        <ele>162</ele>
        <time>2010-05-15T08:51:52Z</time>
      </trkpt>
      <trkpt lat="48.60045" lon="1.70959">
        <ele>162</ele>
        <time>2010-05-15T08:51:53Z</time>
      </trkpt>
      <trkpt lat="48.60045" lon="1.70962">
        <ele>163</ele>
        <time>2010-05-15T08:51:54Z</time>
      </trkpt>
      <trkpt lat="48.60045" lon="1.70965">
        <ele>163</ele>
        <time>2010-05-15T08:51:55Z</time>
      </trkpt>
      <trkpt lat="48.60045" lon="1.70967">
        <ele>164</ele>
        <time>2010-05-15T08:51:56Z</time>
      </trkpt>
      <trkpt lat="48.60046" lon="1.7097">
        <ele>165</ele>
        <time>2010-05-15T08:51:57Z</time>
      </trkpt>
      <trkpt lat="48.60046" lon="1.70972">
        <ele>165</ele>
        <time>2010-05-15T08:51:58Z</time>
      </trkpt>
      <trkpt lat="48.60047" lon="1.70974">
        <ele>166</ele>
        <time>2010-05-15T08:51:59Z</time>
      </trkpt>
      <trkpt lat="48.60048" lon="1.70976">
        <ele>166</ele>
        <time>2010-05-15T08:52:00Z</time>
      </trkpt>
      <trkpt lat="48.60048" lon="1.70979">
        <ele>166</ele>
        <time>2010-05-15T08:52:01Z</time>
      </trkpt>
      <trkpt lat="48.60049" lon="1.70981">
        <ele>166</ele>
        <time>2010-05-15T08:52:02Z</time>
      </trkpt>
      <trkpt lat="48.60049" lon="1.70983">
        <ele>166</ele>
        <time>2010-05-15T08:52:03Z</time>
      </trkpt>
      <trkpt lat="48.60049" lon="1.70985">
        <ele>166</ele>
        <time>2010-05-15T08:52:04Z</time>
      </trkpt>
      <trkpt lat="48.60048" lon="1.70988">
        <ele>166</ele>
        <time>2010-05-15T08:52:05Z</time>
      </trkpt>
      <trkpt lat="48.60048" lon="1.70991">
        <ele>166</ele>
        <time>2010-05-15T08:52:06Z</time>
      </trkpt>
      <trkpt lat="48.60048" lon="1.70994">
        <ele>166</ele>
        <time>2010-05-15T08:52:07Z</time>
      </trkpt>
      <trkpt lat="48.60047" lon="1.70997">
        <ele>166</ele>
        <time>2010-05-15T08:52:08Z</time>
      </trkpt>
      <trkpt lat="48.60047" lon="1.70999">
        <ele>166</ele>
        <time>2010-05-15T08:52:09Z</time>
      </trkpt>
      <trkpt lat="48.60046" lon="1.71002">
        <ele>166</ele>
        <time>2010-05-15T08:52:10Z</time>
      </trkpt>
      <trkpt lat="48.60046" lon="1.71005">
        <ele>166</ele>
        <time>2010-05-15T08:52:11Z</time>
      </trkpt>
      <trkpt lat="48.60046" lon="1.71007">
        <ele>166</ele>
        <time>2010-05-15T08:52:12Z</time>
      </trkpt>
      <trkpt lat="48.60045" lon="1.71009">
        <ele>166</ele>
        <time>2010-05-15T08:52:13Z</time>
      </trkpt>
      <trkpt lat="48.60045" lon="1.7101">
        <ele>166</ele>
        <time>2010-05-15T08:52:14Z</time>
      </trkpt>
      <trkpt lat="48.60045" lon="1.71012">
        <ele>166</ele>
        <time>2010-05-15T08:52:15Z</time>
      </trkpt>
      <trkpt lat="48.60044" lon="1.71015">
        <ele>166</ele>
        <time>2010-05-15T08:52:16Z</time>
      </trkpt>
      <trkpt lat="48.60044" lon="1.71017">
        <ele>166</ele>
        <time>2010-05-15T08:52:17Z</time>
      </trkpt>
      <trkpt lat="48.60044" lon="1.71019">
        <ele>166</ele>
        <time>2010-05-15T08:52:18Z</time>
      </trkpt>
      <trkpt lat="48.60043" lon="1.71021">
        <ele>166</ele>
        <time>2010-05-15T08:52:19Z</time>
      </trkpt>
      <trkpt lat="48.60043" lon="1.71024">
        <ele>166</ele>
        <time>2010-05-15T08:52:20Z</time>
      </trkpt>
      <trkpt lat="48.60043" lon="1.71026">
        <ele>166</ele>
        <time>2010-05-15T08:52:21Z</time>
      </trkpt>
      <trkpt lat="48.60043" lon="1.71028">
        <ele>166</ele>
        <time>2010-05-15T08:52:22Z</time>
      </trkpt>
      <trkpt lat="48.60043" lon="1.71031">
        <ele>166</ele>
        <time>2010-05-15T08:52:23Z</time>
      </trkpt>
      <trkpt lat="48.60042" lon="1.71034">
        <ele>166</ele>
        <time>2010-05-15T08:52:24Z</time>
      </trkpt>
      <trkpt lat="48.60041" lon="1.71036">
        <ele>166</ele>
        <time>2010-05-15T08:52:25Z</time>
      </trkpt>
      <trkpt lat="48.60041" lon="1.71039">
        <ele>166</ele>
        <time>2010-05-15T08:52:26Z</time>
      </trkpt>
      <trkpt lat="48.60041" lon="1.71041">
        <ele>166</ele>
        <time>2010-05-15T08:52:27Z</time>
      </trkpt>
      <trkpt lat="48.60041" lon="1.71043">
        <ele>166</ele>
        <time>2010-05-15T08:52:28Z</time>
      </trkpt>
      <trkpt lat="48.60041" lon="1.71046">
        <ele>166</ele>
        <time>2010-05-15T08:52:29Z</time>
      </trkpt>
      <trkpt lat="48.60041" lon="1.7105">
        <ele>166</ele>
        <time>2010-05-15T08:52:30Z</time>
      </trkpt>
      <trkpt lat="48.60041" lon="1.71053">
        <ele>166</ele>
        <time>2010-05-15T08:52:31Z</time>
      </trkpt>
      <trkpt lat="48.60042" lon="1.71055">
        <ele>166</ele>
        <time>2010-05-15T08:52:32Z</time>
      </trkpt>
      <trkpt lat="48.60043" lon="1.71057">
        <ele>166</ele>
        <time>2010-05-15T08:52:33Z</time>
      </trkpt>
      <trkpt lat="48.60044" lon="1.7106">
        <ele>166</ele>
        <time>2010-05-15T08:52:34Z</time>
      </trkpt>
      <trkpt lat="48.60045" lon="1.71063">
        <ele>166</ele>
        <time>2010-05-15T08:52:35Z</time>
      </trkpt>
      <trkpt lat="48.60046" lon="1.71065">
        <ele>166</ele>
        <time>2010-05-15T08:52:36Z</time>
      </trkpt>
      <trkpt lat="48.60047" lon="1.71068">
        <ele>166</ele>
        <time>2010-05-15T08:52:37Z</time>
      </trkpt>
      <trkpt lat="48.60049" lon="1.7107">
        <ele>166</ele>
        <time>2010-05-15T08:52:38Z</time>
      </trkpt>
      <trkpt lat="48.60051" lon="1.71071">
        <ele>166</ele>
        <time>2010-05-15T08:52:39Z</time>
      </trkpt>
      <trkpt lat="48.60053" lon="1.71072">
        <ele>166</ele>
        <time>2010-05-15T08:52:40Z</time>
      </trkpt>
      <trkpt lat="48.60055" lon="1.71073">
        <ele>166</ele>
        <time>2010-05-15T08:52:41Z</time>
      </trkpt>
      <trkpt lat="48.60056" lon="1.71073">
        <ele>166</ele>
        <time>2010-05-15T08:52:42Z</time>
      </trkpt>
      <trkpt lat="48.60057" lon="1.71077">
        <ele>166</ele>
        <time>2010-05-15T08:52:44Z</time>
      </trkpt>
      <trkpt lat="48.60059" lon="1.71079">
        <ele>166</ele>
        <time>2010-05-15T08:52:45Z</time>
      </trkpt>
      <trkpt lat="48.6006" lon="1.7108">
        <ele>166</ele>
        <time>2010-05-15T08:52:46Z</time>
      </trkpt>
      <trkpt lat="48.60061" lon="1.71081">
        <ele>166</ele>
        <time>2010-05-15T08:52:47Z</time>
      </trkpt>
      <trkpt lat="48.60063" lon="1.71084">
        <ele>166</ele>
        <time>2010-05-15T08:52:49Z</time>
      </trkpt>
      <trkpt lat="48.60063" lon="1.71085">
        <ele>166</ele>
        <time>2010-05-15T08:52:50Z</time>
      </trkpt>
      <trkpt lat="48.60065" lon="1.71088">
        <ele>166</ele>
        <time>2010-05-15T08:52:52Z</time>
      </trkpt>
      <trkpt lat="48.60066" lon="1.71089">
        <ele>166</ele>
        <time>2010-05-15T08:52:53Z</time>
      </trkpt>
      <trkpt lat="48.60069" lon="1.7109">
        <ele>166</ele>
        <time>2010-05-15T08:52:54Z</time>
      </trkpt>
      <trkpt lat="48.6007" lon="1.71091">
        <ele>166</ele>
        <time>2010-05-15T08:52:55Z</time>
      </trkpt>
      <trkpt lat="48.60071" lon="1.71093">
        <ele>166</ele>
        <time>2010-05-15T08:52:56Z</time>
      </trkpt>
      <trkpt lat="48.60072" lon="1.71095">
        <ele>166</ele>
        <time>2010-05-15T08:52:57Z</time>
      </trkpt>
      <trkpt lat="48.60072" lon="1.71097">
        <ele>166</ele>
        <time>2010-05-15T08:52:58Z</time>
      </trkpt>
      <trkpt lat="48.60073" lon="1.71099">
        <ele>166</ele>
        <time>2010-05-15T08:52:59Z</time>
      </trkpt>
      <trkpt lat="48.60075" lon="1.711">
        <ele>166</ele>
        <time>2010-05-15T08:53:00Z</time>
      </trkpt>
      <trkpt lat="48.60076" lon="1.711">
        <ele>166</ele>
        <time>2010-05-15T08:53:01Z</time>
      </trkpt>
      <trkpt lat="48.60078" lon="1.71101">
        <ele>166</ele>
        <time>2010-05-15T08:53:02Z</time>
      </trkpt>
      <trkpt lat="48.6008" lon="1.71104">
        <ele>166</ele>
        <time>2010-05-15T08:53:04Z</time>
      </trkpt>
      <trkpt lat="48.60082" lon="1.71105">
        <ele>166</ele>
        <time>2010-05-15T08:53:05Z</time>
      </trkpt>
      <trkpt lat="48.60084" lon="1.71107">
        <ele>166</ele>
        <time>2010-05-15T08:53:06Z</time>
      </trkpt>
      <trkpt lat="48.60085" lon="1.71108">
        <ele>166</ele>
        <time>2010-05-15T08:53:07Z</time>
      </trkpt>
      <trkpt lat="48.60085" lon="1.7111">
        <ele>166</ele>
        <time>2010-05-15T08:53:08Z</time>
      </trkpt>
      <trkpt lat="48.60086" lon="1.71112">
        <ele>166</ele>
        <time>2010-05-15T08:53:09Z</time>
      </trkpt>
      <trkpt lat="48.60086" lon="1.71114">
        <ele>166</ele>
        <time>2010-05-15T08:53:10Z</time>
      </trkpt>
      <trkpt lat="48.60086" lon="1.71115">
        <ele>166</ele>
        <time>2010-05-15T08:53:11Z</time>
      </trkpt>
      <trkpt lat="48.60086" lon="1.71117">
        <ele>166</ele>
        <time>2010-05-15T08:53:12Z</time>
      </trkpt>
      <trkpt lat="48.60085" lon="1.7112">
        <ele>166</ele>
        <time>2010-05-15T08:53:13Z</time>
      </trkpt>
      <trkpt lat="48.60084" lon="1.71122">
        <ele>166</ele>
        <time>2010-05-15T08:53:14Z</time>
      </trkpt>
      <trkpt lat="48.60083" lon="1.71124">
        <ele>166</ele>
        <time>2010-05-15T08:53:15Z</time>
      </trkpt>
      <trkpt lat="48.60082" lon="1.71126">
        <ele>166</ele>
        <time>2010-05-15T08:53:16Z</time>
      </trkpt>
      <trkpt lat="48.6008" lon="1.71128">
        <ele>166</ele>
        <time>2010-05-15T08:53:17Z</time>
      </trkpt>
      <trkpt lat="48.60079" lon="1.71131">
        <ele>166</ele>
        <time>2010-05-15T08:53:18Z</time>
      </trkpt>
      <trkpt lat="48.60078" lon="1.71133">
        <ele>166</ele>
        <time>2010-05-15T08:53:19Z</time>
      </trkpt>
      <trkpt lat="48.60077" lon="1.71135">
        <ele>166</ele>
        <time>2010-05-15T08:53:20Z</time>
      </trkpt>
      <trkpt lat="48.60076" lon="1.71137">
        <ele>166</ele>
        <time>2010-05-15T08:53:21Z</time>
      </trkpt>
      <trkpt lat="48.60076" lon="1.71139">
        <ele>166</ele>
        <time>2010-05-15T08:53:22Z</time>
      </trkpt>
      <trkpt lat="48.60075" lon="1.71142">
        <ele>166</ele>
        <time>2010-05-15T08:53:23Z</time>
      </trkpt>
      <trkpt lat="48.60074" lon="1.71144">
        <ele>166</ele>
        <time>2010-05-15T08:53:24Z</time>
      </trkpt>
      <trkpt lat="48.60073" lon="1.71146">
        <ele>166</ele>
        <time>2010-05-15T08:53:25Z</time>
      </trkpt>
      <trkpt lat="48.60072" lon="1.71148">
        <ele>166</ele>
        <time>2010-05-15T08:53:26Z</time>
      </trkpt>
      <trkpt lat="48.60072" lon="1.7115">
        <ele>166</ele>
        <time>2010-05-15T08:53:27Z</time>
      </trkpt>
      <trkpt lat="48.60071" lon="1.71152">
        <ele>166</ele>
        <time>2010-05-15T08:53:28Z</time>
      </trkpt>
      <trkpt lat="48.60071" lon="1.71153">
        <ele>166</ele>
        <time>2010-05-15T08:53:29Z</time>
      </trkpt>
      <trkpt lat="48.6007" lon="1.71156">
        <ele>166</ele>
        <time>2010-05-15T08:53:30Z</time>
      </trkpt>
      <trkpt lat="48.60069" lon="1.71159">
        <ele>166</ele>
        <time>2010-05-15T08:53:31Z</time>
      </trkpt>
      <trkpt lat="48.60068" lon="1.71161">
        <ele>166</ele>
        <time>2010-05-15T08:53:32Z</time>
      </trkpt>
      <trkpt lat="48.60067" lon="1.71163">
        <ele>166</ele>
        <time>2010-05-15T08:53:33Z</time>
      </trkpt>
      <trkpt lat="48.60066" lon="1.71166">
        <ele>166</ele>
        <time>2010-05-15T08:53:35Z</time>
      </trkpt>
      <trkpt lat="48.60066" lon="1.71168">
        <ele>166</ele>
        <time>2010-05-15T08:53:36Z</time>
      </trkpt>
      <trkpt lat="48.60065" lon="1.7117">
        <ele>166</ele>
        <time>2010-05-15T08:53:37Z</time>
      </trkpt>
      <trkpt lat="48.60065" lon="1.71172">
        <ele>166</ele>
        <time>2010-05-15T08:53:38Z</time>
      </trkpt>
      <trkpt lat="48.60065" lon="1.71173">
        <ele>166</ele>
        <time>2010-05-15T08:53:39Z</time>
      </trkpt>
      <trkpt lat="48.60064" lon="1.71176">
        <ele>166</ele>
        <time>2010-05-15T08:53:40Z</time>
      </trkpt>
      <trkpt lat="48.60062" lon="1.71179">
        <ele>166</ele>
        <time>2010-05-15T08:53:42Z</time>
      </trkpt>
      <trkpt lat="48.60061" lon="1.71182">
        <ele>166</ele>
        <time>2010-05-15T08:53:44Z</time>
      </trkpt>
      <trkpt lat="48.60061" lon="1.71184">
        <ele>166</ele>
        <time>2010-05-15T08:53:46Z</time>
      </trkpt>
      <trkpt lat="48.60059" lon="1.71187">
        <ele>166</ele>
        <time>2010-05-15T08:53:48Z</time>
      </trkpt>
      <trkpt lat="48.60057" lon="1.71189">
        <ele>166</ele>
        <time>2010-05-15T08:53:49Z</time>
      </trkpt>
      <trkpt lat="48.60056" lon="1.7119">
        <ele>166</ele>
        <time>2010-05-15T08:53:50Z</time>
      </trkpt>
      <trkpt lat="48.60055" lon="1.71191">
        <ele>166</ele>
        <time>2010-05-15T08:53:51Z</time>
      </trkpt>
      <trkpt lat="48.60053" lon="1.71194">
        <ele>166</ele>
        <time>2010-05-15T08:53:52Z</time>
      </trkpt>
      <trkpt lat="48.60051" lon="1.71197">
        <ele>166</ele>
        <time>2010-05-15T08:53:53Z</time>
      </trkpt>
      <trkpt lat="48.6005" lon="1.71199">
        <ele>166</ele>
        <time>2010-05-15T08:53:54Z</time>
      </trkpt>
      <trkpt lat="48.60049" lon="1.71201">
        <ele>166</ele>
        <time>2010-05-15T08:53:55Z</time>
      </trkpt>
      <trkpt lat="48.60047" lon="1.71203">
        <ele>166</ele>
        <time>2010-05-15T08:53:56Z</time>
      </trkpt>
      <trkpt lat="48.60047" lon="1.71205">
        <ele>166</ele>
        <time>2010-05-15T08:53:57Z</time>
      </trkpt>
      <trkpt lat="48.60046" lon="1.71207">
        <ele>166</ele>
        <time>2010-05-15T08:53:58Z</time>
      </trkpt>
      <trkpt lat="48.60044" lon="1.7121">
        <ele>166</ele>
        <time>2010-05-15T08:54:00Z</time>
      </trkpt>
      <trkpt lat="48.60043" lon="1.71213">
        <ele>166</ele>
        <time>2010-05-15T08:54:02Z</time>
      </trkpt>
      <trkpt lat="48.60041" lon="1.71216">
        <ele>166</ele>
        <time>2010-05-15T08:54:04Z</time>
      </trkpt>
      <trkpt lat="48.60039" lon="1.71219">
        <ele>166</ele>
        <time>2010-05-15T08:54:06Z</time>
      </trkpt>
      <trkpt lat="48.60038" lon="1.71221">
        <ele>166</ele>
        <time>2010-05-15T08:54:07Z</time>
      </trkpt>
      <trkpt lat="48.60037" lon="1.71222">
        <ele>166</ele>
        <time>2010-05-15T08:54:08Z</time>
      </trkpt>
      <trkpt lat="48.60036" lon="1.71224">
        <ele>166</ele>
        <time>2010-05-15T08:54:09Z</time>
      </trkpt>
      <trkpt lat="48.60035" lon="1.71226">
        <ele>166</ele>
        <time>2010-05-15T08:54:10Z</time>
      </trkpt>
      <trkpt lat="48.60033" lon="1.71229">
        <ele>166</ele>
        <time>2010-05-15T08:54:12Z</time>
      </trkpt>
      <trkpt lat="48.60031" lon="1.71232">
        <ele>166</ele>
        <time>2010-05-15T08:54:14Z</time>
      </trkpt>
      <trkpt lat="48.6003" lon="1.71233">
        <ele>166</ele>
        <time>2010-05-15T08:54:15Z</time>
      </trkpt>
      <trkpt lat="48.60028" lon="1.71234">
        <ele>166</ele>
        <time>2010-05-15T08:54:16Z</time>
      </trkpt>
      <trkpt lat="48.60027" lon="1.71236">
        <ele>166</ele>
        <time>2010-05-15T08:54:17Z</time>
      </trkpt>
      <trkpt lat="48.60025" lon="1.71238">
        <ele>166</ele>
        <time>2010-05-15T08:54:18Z</time>
      </trkpt>
      <trkpt lat="48.60023" lon="1.71239">
        <ele>166</ele>
        <time>2010-05-15T08:54:19Z</time>
      </trkpt>
      <trkpt lat="48.60022" lon="1.71241">
        <ele>166</ele>
        <time>2010-05-15T08:54:20Z</time>
      </trkpt>
      <trkpt lat="48.6002" lon="1.71243">
        <ele>166</ele>
        <time>2010-05-15T08:54:21Z</time>
      </trkpt>
      <trkpt lat="48.60019" lon="1.71244">
        <ele>166</ele>
        <time>2010-05-15T08:54:22Z</time>
      </trkpt>
      <trkpt lat="48.60018" lon="1.71246">
        <ele>166</ele>
        <time>2010-05-15T08:54:23Z</time>
      </trkpt>
      <trkpt lat="48.60016" lon="1.71247">
        <ele>166</ele>
        <time>2010-05-15T08:54:24Z</time>
      </trkpt>
      <trkpt lat="48.60015" lon="1.71248">
        <ele>166</ele>
        <time>2010-05-15T08:54:25Z</time>
      </trkpt>
      <trkpt lat="48.60013" lon="1.7125">
        <ele>166</ele>
        <time>2010-05-15T08:54:26Z</time>
      </trkpt>
      <trkpt lat="48.60012" lon="1.71251">
        <ele>166</ele>
        <time>2010-05-15T08:54:27Z</time>
      </trkpt>
      <trkpt lat="48.60009" lon="1.71253">
        <ele>166</ele>
        <time>2010-05-15T08:54:29Z</time>
      </trkpt>
      <trkpt lat="48.60008" lon="1.71254">
        <ele>166</ele>
        <time>2010-05-15T08:54:30Z</time>
      </trkpt>
      <trkpt lat="48.60007" lon="1.71255">
        <ele>166</ele>
        <time>2010-05-15T08:54:31Z</time>
      </trkpt>
      <trkpt lat="48.60005" lon="1.71256">
        <ele>166</ele>
        <time>2010-05-15T08:54:32Z</time>
      </trkpt>
      <trkpt lat="48.60004" lon="1.71257">
        <ele>166</ele>
        <time>2010-05-15T08:54:33Z</time>
      </trkpt>
      <trkpt lat="48.60002" lon="1.71258">
        <ele>166</ele>
        <time>2010-05-15T08:54:34Z</time>
      </trkpt>
      <trkpt lat="48.60001" lon="1.7126">
        <ele>166</ele>
        <time>2010-05-15T08:54:35Z</time>
      </trkpt>
      <trkpt lat="48.60001" lon="1.71262">
        <ele>166</ele>
        <time>2010-05-15T08:54:36Z</time>
      </trkpt>
      <trkpt lat="48.6" lon="1.71263">
        <ele>166</ele>
        <time>2010-05-15T08:54:37Z</time>
      </trkpt>
      <trkpt lat="48.59999" lon="1.71265">
        <ele>166</ele>
        <time>2010-05-15T08:54:38Z</time>
      </trkpt>
      <trkpt lat="48.59998" lon="1.71267">
        <ele>166</ele>
        <time>2010-05-15T08:54:39Z</time>
      </trkpt>
      <trkpt lat="48.59997" lon="1.71268">
        <ele>166</ele>
        <time>2010-05-15T08:54:40Z</time>
      </trkpt>
      <trkpt lat="48.59995" lon="1.71269">
        <ele>166</ele>
        <time>2010-05-15T08:54:41Z</time>
      </trkpt>
      <trkpt lat="48.59994" lon="1.7127">
        <ele>166</ele>
        <time>2010-05-15T08:54:42Z</time>
      </trkpt>
      <trkpt lat="48.59992" lon="1.7127">
        <ele>166</ele>
        <time>2010-05-15T08:54:43Z</time>
      </trkpt>
      <trkpt lat="48.5999" lon="1.71269">
        <ele>165</ele>
        <time>2010-05-15T08:54:45Z</time>
      </trkpt>
      <trkpt lat="48.59989" lon="1.7127">
        <ele>165</ele>
        <time>2010-05-15T08:54:46Z</time>
      </trkpt>
      <trkpt lat="48.59987" lon="1.71271">
        <ele>164</ele>
        <time>2010-05-15T08:54:47Z</time>
      </trkpt>
      <trkpt lat="48.59986" lon="1.71272">
        <ele>164</ele>
        <time>2010-05-15T08:54:48Z</time>
      </trkpt>
      <trkpt lat="48.59985" lon="1.71275">
        <ele>163</ele>
        <time>2010-05-15T08:54:50Z</time>
      </trkpt>
      <trkpt lat="48.59983" lon="1.71277">
        <ele>163</ele>
        <time>2010-05-15T08:54:51Z</time>
      </trkpt>
      <trkpt lat="48.59982" lon="1.71278">
        <ele>163</ele>
        <time>2010-05-15T08:54:52Z</time>
      </trkpt>
      <trkpt lat="48.59981" lon="1.71279">
        <ele>162</ele>
        <time>2010-05-15T08:54:53Z</time>
      </trkpt>
      <trkpt lat="48.59979" lon="1.71282">
        <ele>162</ele>
        <time>2010-05-15T08:54:55Z</time>
      </trkpt>
      <trkpt lat="48.59979" lon="1.71284">
        <ele>161</ele>
        <time>2010-05-15T08:54:56Z</time>
      </trkpt>
      <trkpt lat="48.59976" lon="1.71287">
        <ele>161</ele>
        <time>2010-05-15T08:54:58Z</time>
      </trkpt>
      <trkpt lat="48.59975" lon="1.71288">
        <ele>160</ele>
        <time>2010-05-15T08:54:59Z</time>
      </trkpt>
      <trkpt lat="48.59973" lon="1.71289">
        <ele>160</ele>
        <time>2010-05-15T08:55:00Z</time>
      </trkpt>
      <trkpt lat="48.59971" lon="1.71291">
        <ele>160</ele>
        <time>2010-05-15T08:55:01Z</time>
      </trkpt>
      <trkpt lat="48.59969" lon="1.71292">
        <ele>160</ele>
        <time>2010-05-15T08:55:02Z</time>
      </trkpt>
      <trkpt lat="48.59966" lon="1.71294">
        <ele>159</ele>
        <time>2010-05-15T08:55:03Z</time>
      </trkpt>
      <trkpt lat="48.59964" lon="1.71295">
        <ele>159</ele>
        <time>2010-05-15T08:55:04Z</time>
      </trkpt>
      <trkpt lat="48.59962" lon="1.71297">
        <ele>159</ele>
        <time>2010-05-15T08:55:05Z</time>
      </trkpt>
      <trkpt lat="48.5996" lon="1.713">
        <ele>159</ele>
        <time>2010-05-15T08:55:07Z</time>
      </trkpt>
      <trkpt lat="48.59959" lon="1.71302">
        <ele>159</ele>
        <time>2010-05-15T08:55:08Z</time>
      </trkpt>
      <trkpt lat="48.59957" lon="1.71305">
        <ele>159</ele>
        <time>2010-05-15T08:55:10Z</time>
      </trkpt>
      <trkpt lat="48.59956" lon="1.71307">
        <ele>159</ele>
        <time>2010-05-15T08:55:11Z</time>
      </trkpt>
      <trkpt lat="48.59955" lon="1.7131">
        <ele>159</ele>
        <time>2010-05-15T08:55:13Z</time>
      </trkpt>
      <trkpt lat="48.59953" lon="1.71312">
        <ele>159</ele>
        <time>2010-05-15T08:55:14Z</time>
      </trkpt>
      <trkpt lat="48.59952" lon="1.71314">
        <ele>159</ele>
        <time>2010-05-15T08:55:15Z</time>
      </trkpt>
      <trkpt lat="48.59951" lon="1.71316">
        <ele>159</ele>
        <time>2010-05-15T08:55:16Z</time>
      </trkpt>
      <trkpt lat="48.59949" lon="1.71318">
        <ele>159</ele>
        <time>2010-05-15T08:55:17Z</time>
      </trkpt>
      <trkpt lat="48.59948" lon="1.71319">
        <ele>159</ele>
        <time>2010-05-15T08:55:18Z</time>
      </trkpt>
      <trkpt lat="48.59946" lon="1.7132">
        <ele>159</ele>
        <time>2010-05-15T08:55:19Z</time>
      </trkpt>
      <trkpt lat="48.59944" lon="1.71321">
        <ele>159</ele>
        <time>2010-05-15T08:55:20Z</time>
      </trkpt>
      <trkpt lat="48.59943" lon="1.71322">
        <ele>159</ele>
        <time>2010-05-15T08:55:21Z</time>
      </trkpt>
      <trkpt lat="48.59941" lon="1.71323">
        <ele>159</ele>
        <time>2010-05-15T08:55:22Z</time>
      </trkpt>
      <trkpt lat="48.5994" lon="1.71325">
        <ele>159</ele>
        <time>2010-05-15T08:55:23Z</time>
      </trkpt>
      <trkpt lat="48.59938" lon="1.71326">
        <ele>159</ele>
        <time>2010-05-15T08:55:24Z</time>
      </trkpt>
      <trkpt lat="48.59936" lon="1.71327">
        <ele>159</ele>
        <time>2010-05-15T08:55:25Z</time>
      </trkpt>
      <trkpt lat="48.59933" lon="1.71327">
        <ele>159</ele>
        <time>2010-05-15T08:55:26Z</time>
      </trkpt>
      <trkpt lat="48.59932" lon="1.71328">
        <ele>159</ele>
        <time>2010-05-15T08:55:27Z</time>
      </trkpt>
      <trkpt lat="48.5993" lon="1.71329">
        <ele>159</ele>
        <time>2010-05-15T08:55:28Z</time>
      </trkpt>
      <trkpt lat="48.59929" lon="1.7133">
        <ele>159</ele>
        <time>2010-05-15T08:55:29Z</time>
      </trkpt>
      <trkpt lat="48.59928" lon="1.71331">
        <ele>159</ele>
        <time>2010-05-15T08:55:30Z</time>
      </trkpt>
      <trkpt lat="48.59926" lon="1.71333">
        <ele>159</ele>
        <time>2010-05-15T08:55:31Z</time>
      </trkpt>
      <trkpt lat="48.59924" lon="1.71334">
        <ele>159</ele>
        <time>2010-05-15T08:55:32Z</time>
      </trkpt>
      <trkpt lat="48.59922" lon="1.71336">
        <ele>159</ele>
        <time>2010-05-15T08:55:33Z</time>
      </trkpt>
      <trkpt lat="48.59921" lon="1.71337">
        <ele>159</ele>
        <time>2010-05-15T08:55:34Z</time>
      </trkpt>
      <trkpt lat="48.5992" lon="1.71339">
        <ele>159</ele>
        <time>2010-05-15T08:55:35Z</time>
      </trkpt>
      <trkpt lat="48.59918" lon="1.71341">
        <ele>159</ele>
        <time>2010-05-15T08:55:36Z</time>
      </trkpt>
      <trkpt lat="48.59916" lon="1.71343">
        <ele>159</ele>
        <time>2010-05-15T08:55:38Z</time>
      </trkpt>
      <trkpt lat="48.59915" lon="1.71345">
        <ele>159</ele>
        <time>2010-05-15T08:55:39Z</time>
      </trkpt>
      <trkpt lat="48.59914" lon="1.71347">
        <ele>159</ele>
        <time>2010-05-15T08:55:40Z</time>
      </trkpt>
      <trkpt lat="48.59913" lon="1.71348">
        <ele>159</ele>
        <time>2010-05-15T08:55:41Z</time>
      </trkpt>
      <trkpt lat="48.59911" lon="1.7135">
        <ele>159</ele>
        <time>2010-05-15T08:55:42Z</time>
      </trkpt>
      <trkpt lat="48.5991" lon="1.71352">
        <ele>159</ele>
        <time>2010-05-15T08:55:43Z</time>
      </trkpt>
      <trkpt lat="48.59909" lon="1.71355">
        <ele>159</ele>
        <time>2010-05-15T08:55:44Z</time>
      </trkpt>
      <trkpt lat="48.59908" lon="1.71357">
        <ele>159</ele>
        <time>2010-05-15T08:55:45Z</time>
      </trkpt>
      <trkpt lat="48.59907" lon="1.71359">
        <ele>159</ele>
        <time>2010-05-15T08:55:46Z</time>
      </trkpt>
      <trkpt lat="48.59907" lon="1.71362">
        <ele>159</ele>
        <time>2010-05-15T08:55:47Z</time>
      </trkpt>
      <trkpt lat="48.59907" lon="1.71364">
        <ele>159</ele>
        <time>2010-05-15T08:55:48Z</time>
      </trkpt>
      <trkpt lat="48.59907" lon="1.71367">
        <ele>159</ele>
        <time>2010-05-15T08:55:49Z</time>
      </trkpt>
      <trkpt lat="48.59907" lon="1.71369">
        <ele>159</ele>
        <time>2010-05-15T08:55:50Z</time>
      </trkpt>
      <trkpt lat="48.59906" lon="1.71371">
        <ele>159</ele>
        <time>2010-05-15T08:55:51Z</time>
      </trkpt>
      <trkpt lat="48.59906" lon="1.71373">
        <ele>159</ele>
        <time>2010-05-15T08:55:52Z</time>
      </trkpt>
      <trkpt lat="48.59906" lon="1.71376">
        <ele>159</ele>
        <time>2010-05-15T08:55:53Z</time>
      </trkpt>
      <trkpt lat="48.59906" lon="1.71378">
        <ele>159</ele>
        <time>2010-05-15T08:55:54Z</time>
      </trkpt>
      <trkpt lat="48.59905" lon="1.7138">
        <ele>159</ele>
        <time>2010-05-15T08:55:56Z</time>
      </trkpt>
      <trkpt lat="48.59903" lon="1.71383">
        <ele>159</ele>
        <time>2010-05-15T08:55:58Z</time>
      </trkpt>
      <trkpt lat="48.59902" lon="1.71385">
        <ele>159</ele>
        <time>2010-05-15T08:55:59Z</time>
      </trkpt>
      <trkpt lat="48.59901" lon="1.71388">
        <ele>159</ele>
        <time>2010-05-15T08:56:00Z</time>
      </trkpt>
      <trkpt lat="48.59901" lon="1.71391">
        <ele>159</ele>
        <time>2010-05-15T08:56:01Z</time>
      </trkpt>
      <trkpt lat="48.59903" lon="1.71392">
        <ele>159</ele>
        <time>2010-05-15T08:56:03Z</time>
      </trkpt>
      <trkpt lat="48.59905" lon="1.71392">
        <ele>159</ele>
        <time>2010-05-15T08:56:04Z</time>
      </trkpt>
      <trkpt lat="48.59906" lon="1.71392">
        <ele>159</ele>
        <time>2010-05-15T08:56:05Z</time>
      </trkpt>
      <trkpt lat="48.59907" lon="1.71394">
        <ele>158</ele>
        <time>2010-05-15T08:56:06Z</time>
      </trkpt>
      <trkpt lat="48.59907" lon="1.71396">
        <ele>158</ele>
        <time>2010-05-15T08:56:07Z</time>
      </trkpt>
      <trkpt lat="48.59907" lon="1.71399">
        <ele>158</ele>
        <time>2010-05-15T08:56:08Z</time>
      </trkpt>
      <trkpt lat="48.59907" lon="1.71402">
        <ele>158</ele>
        <time>2010-05-15T08:56:09Z</time>
      </trkpt>
      <trkpt lat="48.59906" lon="1.71405">
        <ele>158</ele>
        <time>2010-05-15T08:56:10Z</time>
      </trkpt>
      <trkpt lat="48.59907" lon="1.71406">
        <ele>158</ele>
        <time>2010-05-15T08:56:11Z</time>
      </trkpt>
      <trkpt lat="48.59907" lon="1.71408">
        <ele>158</ele>
        <time>2010-05-15T08:56:12Z</time>
      </trkpt>
      <trkpt lat="48.59907" lon="1.71411">
        <ele>158</ele>
        <time>2010-05-15T08:56:13Z</time>
      </trkpt>
      <trkpt lat="48.59907" lon="1.71413">
        <ele>158</ele>
        <time>2010-05-15T08:56:14Z</time>
      </trkpt>
      <trkpt lat="48.59906" lon="1.71416">
        <ele>158</ele>
        <time>2010-05-15T08:56:15Z</time>
      </trkpt>
      <trkpt lat="48.59905" lon="1.71418">
        <ele>158</ele>
        <time>2010-05-15T08:56:16Z</time>
      </trkpt>
      <trkpt lat="48.59904" lon="1.71421">
        <ele>158</ele>
        <time>2010-05-15T08:56:17Z</time>
      </trkpt>
      <trkpt lat="48.59903" lon="1.71423">
        <ele>158</ele>
        <time>2010-05-15T08:56:18Z</time>
      </trkpt>
      <trkpt lat="48.59902" lon="1.71425">
        <ele>158</ele>
        <time>2010-05-15T08:56:19Z</time>
      </trkpt>
      <trkpt lat="48.59902" lon="1.71427">
        <ele>158</ele>
        <time>2010-05-15T08:56:20Z</time>
      </trkpt>
      <trkpt lat="48.599" lon="1.7143">
        <ele>158</ele>
        <time>2010-05-15T08:56:22Z</time>
      </trkpt>
      <trkpt lat="48.59899" lon="1.71431">
        <ele>158</ele>
        <time>2010-05-15T08:56:23Z</time>
      </trkpt>
      <trkpt lat="48.59898" lon="1.71433">
        <ele>158</ele>
        <time>2010-05-15T08:56:24Z</time>
      </trkpt>
      <trkpt lat="48.59897" lon="1.71435">
        <ele>158</ele>
        <time>2010-05-15T08:56:26Z</time>
      </trkpt>
      <trkpt lat="48.59895" lon="1.71437">
        <ele>158</ele>
        <time>2010-05-15T08:56:28Z</time>
      </trkpt>
      <trkpt lat="48.59893" lon="1.71439">
        <ele>158</ele>
        <time>2010-05-15T08:56:30Z</time>
      </trkpt>
      <trkpt lat="48.59892" lon="1.7144">
        <ele>158</ele>
        <time>2010-05-15T08:56:31Z</time>
      </trkpt>
      <trkpt lat="48.5989" lon="1.71441">
        <ele>158</ele>
        <time>2010-05-15T08:56:32Z</time>
      </trkpt>
      <trkpt lat="48.59888" lon="1.71441">
        <ele>158</ele>
        <time>2010-05-15T08:56:33Z</time>
      </trkpt>
      <trkpt lat="48.59887" lon="1.71441">
        <ele>158</ele>
        <time>2010-05-15T08:56:34Z</time>
      </trkpt>
      <trkpt lat="48.59886" lon="1.71441">
        <ele>158</ele>
        <time>2010-05-15T08:56:35Z</time>
      </trkpt>
      <trkpt lat="48.59885" lon="1.71441">
        <ele>158</ele>
        <time>2010-05-15T08:56:36Z</time>
      </trkpt>
      <trkpt lat="48.59883" lon="1.71442">
        <ele>157</ele>
        <time>2010-05-15T08:56:37Z</time>
      </trkpt>
      <trkpt lat="48.59882" lon="1.71442">
        <ele>157</ele>
        <time>2010-05-15T08:56:38Z</time>
      </trkpt>
      <trkpt lat="48.59881" lon="1.71442">
        <ele>157</ele>
        <time>2010-05-15T08:56:39Z</time>
      </trkpt>
      <trkpt lat="48.59879" lon="1.71441">
        <ele>156</ele>
        <time>2010-05-15T08:56:40Z</time>
      </trkpt>
      <trkpt lat="48.59878" lon="1.71441">
        <ele>156</ele>
        <time>2010-05-15T08:56:41Z</time>
      </trkpt>
      <trkpt lat="48.59876" lon="1.7144">
        <ele>155</ele>
        <time>2010-05-15T08:56:43Z</time>
      </trkpt>
      <trkpt lat="48.59874" lon="1.7144">
        <ele>155</ele>
        <time>2010-05-15T08:56:44Z</time>
      </trkpt>
      <trkpt lat="48.59873" lon="1.71439">
        <ele>155</ele>
        <time>2010-05-15T08:56:45Z</time>
      </trkpt>
      <trkpt lat="48.59871" lon="1.71439">
        <ele>155</ele>
        <time>2010-05-15T08:56:46Z</time>
      </trkpt>
      <trkpt lat="48.5987" lon="1.71438">
        <ele>154</ele>
        <time>2010-05-15T08:56:47Z</time>
      </trkpt>
      <trkpt lat="48.59868" lon="1.71438">
        <ele>154</ele>
        <time>2010-05-15T08:56:48Z</time>
      </trkpt>
      <trkpt lat="48.59866" lon="1.71438">
        <ele>154</ele>
        <time>2010-05-15T08:56:49Z</time>
      </trkpt>
      <trkpt lat="48.59865" lon="1.71437">
        <ele>154</ele>
        <time>2010-05-15T08:56:50Z</time>
      </trkpt>
      <trkpt lat="48.59864" lon="1.71437">
        <ele>154</ele>
        <time>2010-05-15T08:56:51Z</time>
      </trkpt>
      <trkpt lat="48.59862" lon="1.71437">
        <ele>154</ele>
        <time>2010-05-15T08:56:52Z</time>
      </trkpt>
      <trkpt lat="48.59861" lon="1.71436">
        <ele>154</ele>
        <time>2010-05-15T08:56:53Z</time>
      </trkpt>
      <trkpt lat="48.59859" lon="1.71436">
        <ele>154</ele>
        <time>2010-05-15T08:56:54Z</time>
      </trkpt>
      <trkpt lat="48.59857" lon="1.71436">
        <ele>154</ele>
        <time>2010-05-15T08:56:55Z</time>
      </trkpt>
      <trkpt lat="48.59856" lon="1.71435">
        <ele>153</ele>
        <time>2010-05-15T08:56:56Z</time>
      </trkpt>
      <trkpt lat="48.59854" lon="1.71435">
        <ele>153</ele>
        <time>2010-05-15T08:56:57Z</time>
      </trkpt>
      <trkpt lat="48.59852" lon="1.71435">
        <ele>153</ele>
        <time>2010-05-15T08:56:58Z</time>
      </trkpt>
      <trkpt lat="48.59851" lon="1.71434">
        <ele>153</ele>
        <time>2010-05-15T08:56:59Z</time>
      </trkpt>
      <trkpt lat="48.59849" lon="1.71433">
        <ele>153</ele>
        <time>2010-05-15T08:57:00Z</time>
      </trkpt>
      <trkpt lat="48.59848" lon="1.71433">
        <ele>152</ele>
        <time>2010-05-15T08:57:01Z</time>
      </trkpt>
      <trkpt lat="48.59847" lon="1.71432">
        <ele>152</ele>
        <time>2010-05-15T08:57:02Z</time>
      </trkpt>
      <trkpt lat="48.59845" lon="1.71432">
        <ele>152</ele>
        <time>2010-05-15T08:57:03Z</time>
      </trkpt>
      <trkpt lat="48.59843" lon="1.71431">
        <ele>152</ele>
        <time>2010-05-15T08:57:04Z</time>
      </trkpt>
      <trkpt lat="48.59841" lon="1.71431">
        <ele>151</ele>
        <time>2010-05-15T08:57:05Z</time>
      </trkpt>
      <trkpt lat="48.59839" lon="1.71431">
        <ele>151</ele>
        <time>2010-05-15T08:57:06Z</time>
      </trkpt>
      <trkpt lat="48.59838" lon="1.71432">
        <ele>151</ele>
        <time>2010-05-15T08:57:07Z</time>
      </trkpt>
      <trkpt lat="48.59836" lon="1.71432">
        <ele>151</ele>
        <time>2010-05-15T08:57:08Z</time>
      </trkpt>
      <trkpt lat="48.59834" lon="1.71433">
        <ele>150</ele>
        <time>2010-05-15T08:57:09Z</time>
      </trkpt>
      <trkpt lat="48.59833" lon="1.71433">
        <ele>150</ele>
        <time>2010-05-15T08:57:10Z</time>
      </trkpt>
      <trkpt lat="48.59831" lon="1.71434">
        <ele>150</ele>
        <time>2010-05-15T08:57:11Z</time>
      </trkpt>
      <trkpt lat="48.5983" lon="1.71434">
        <ele>150</ele>
        <time>2010-05-15T08:57:12Z</time>
      </trkpt>
      <trkpt lat="48.59828" lon="1.71435">
        <ele>150</ele>
        <time>2010-05-15T08:57:13Z</time>
      </trkpt>
      <trkpt lat="48.59827" lon="1.71436">
        <ele>149</ele>
        <time>2010-05-15T08:57:14Z</time>
      </trkpt>
      <trkpt lat="48.59825" lon="1.71437">
        <ele>149</ele>
        <time>2010-05-15T08:57:15Z</time>
      </trkpt>
      <trkpt lat="48.59824" lon="1.71438">
        <ele>149</ele>
        <time>2010-05-15T08:57:16Z</time>
      </trkpt>
      <trkpt lat="48.59823" lon="1.71439">
        <ele>149</ele>
        <time>2010-05-15T08:57:17Z</time>
      </trkpt>
      <trkpt lat="48.59821" lon="1.7144">
        <ele>148</ele>
        <time>2010-05-15T08:57:18Z</time>
      </trkpt>
      <trkpt lat="48.5982" lon="1.71441">
        <ele>148</ele>
        <time>2010-05-15T08:57:19Z</time>
      </trkpt>
      <trkpt lat="48.59819" lon="1.71442">
        <ele>148</ele>
        <time>2010-05-15T08:57:20Z</time>
      </trkpt>
      <trkpt lat="48.59818" lon="1.71444">
        <ele>148</ele>
        <time>2010-05-15T08:57:22Z</time>
      </trkpt>
      <trkpt lat="48.59817" lon="1.71446">
        <ele>147</ele>
        <time>2010-05-15T08:57:25Z</time>
      </trkpt>
      <trkpt lat="48.59816" lon="1.71449">
        <ele>146</ele>
        <time>2010-05-15T08:57:28Z</time>
      </trkpt>
      <trkpt lat="48.59814" lon="1.71451">
        <ele>146</ele>
        <time>2010-05-15T08:57:30Z</time>
      </trkpt>
      <trkpt lat="48.59812" lon="1.71453">
        <ele>145</ele>
        <time>2010-05-15T08:57:32Z</time>
      </trkpt>
      <trkpt lat="48.5981" lon="1.71454">
        <ele>145</ele>
        <time>2010-05-15T08:57:33Z</time>
      </trkpt>
      <trkpt lat="48.59809" lon="1.71455">
        <ele>144</ele>
        <time>2010-05-15T08:57:34Z</time>
      </trkpt>
      <trkpt lat="48.59808" lon="1.71455">
        <ele>144</ele>
        <time>2010-05-15T08:57:35Z</time>
      </trkpt>
      <trkpt lat="48.59807" lon="1.71456">
        <ele>143</ele>
        <time>2010-05-15T08:57:36Z</time>
      </trkpt>
      <trkpt lat="48.59805" lon="1.71457">
        <ele>143</ele>
        <time>2010-05-15T08:57:37Z</time>
      </trkpt>
      <trkpt lat="48.59804" lon="1.71459">
        <ele>142</ele>
        <time>2010-05-15T08:57:39Z</time>
      </trkpt>
      <trkpt lat="48.59802" lon="1.71461">
        <ele>140</ele>
        <time>2010-05-15T08:57:43Z</time>
      </trkpt>
      <trkpt lat="48.59801" lon="1.71461">
        <ele>139</ele>
        <time>2010-05-15T08:57:44Z</time>
      </trkpt>
      <trkpt lat="48.59799" lon="1.71461">
        <ele>139</ele>
        <time>2010-05-15T08:57:45Z</time>
      </trkpt>
      <trkpt lat="48.59797" lon="1.71461">
        <ele>138</ele>
        <time>2010-05-15T08:57:47Z</time>
      </trkpt>
      <trkpt lat="48.59795" lon="1.71461">
        <ele>138</ele>
        <time>2010-05-15T08:57:48Z</time>
      </trkpt>
      <trkpt lat="48.59793" lon="1.71461">
        <ele>138</ele>
        <time>2010-05-15T08:57:49Z</time>
      </trkpt>
      <trkpt lat="48.59792" lon="1.7146">
        <ele>137</ele>
        <time>2010-05-15T08:57:50Z</time>
      </trkpt>
      <trkpt lat="48.5979" lon="1.71459">
        <ele>137</ele>
        <time>2010-05-15T08:57:52Z</time>
      </trkpt>
      <trkpt lat="48.59788" lon="1.71459">
        <ele>137</ele>
        <time>2010-05-15T08:57:53Z</time>
      </trkpt>
      <trkpt lat="48.59786" lon="1.71459">
        <ele>137</ele>
        <time>2010-05-15T08:57:54Z</time>
      </trkpt>
      <trkpt lat="48.59785" lon="1.71459">
        <ele>137</ele>
        <time>2010-05-15T08:57:55Z</time>
      </trkpt>
      <trkpt lat="48.59783" lon="1.71459">
        <ele>137</ele>
        <time>2010-05-15T08:57:56Z</time>
      </trkpt>
      <trkpt lat="48.59781" lon="1.71459">
        <ele>137</ele>
        <time>2010-05-15T08:57:57Z</time>
      </trkpt>
      <trkpt lat="48.59779" lon="1.71459">
        <ele>137</ele>
        <time>2010-05-15T08:57:58Z</time>
      </trkpt>
      <trkpt lat="48.59778" lon="1.7146">
        <ele>137</ele>
        <time>2010-05-15T08:57:59Z</time>
      </trkpt>
      <trkpt lat="48.59776" lon="1.7146">
        <ele>137</ele>
        <time>2010-05-15T08:58:00Z</time>
      </trkpt>
      <trkpt lat="48.59774" lon="1.71461">
        <ele>137</ele>
        <time>2010-05-15T08:58:01Z</time>
      </trkpt>
      <trkpt lat="48.59772" lon="1.71462">
        <ele>137</ele>
        <time>2010-05-15T08:58:02Z</time>
      </trkpt>
      <trkpt lat="48.5977" lon="1.71463">
        <ele>137</ele>
        <time>2010-05-15T08:58:03Z</time>
      </trkpt>
      <trkpt lat="48.59768" lon="1.71464">
        <ele>137</ele>
        <time>2010-05-15T08:58:04Z</time>
      </trkpt>
      <trkpt lat="48.59767" lon="1.71465">
        <ele>137</ele>
        <time>2010-05-15T08:58:05Z</time>
      </trkpt>
      <trkpt lat="48.59765" lon="1.71465">
        <ele>137</ele>
        <time>2010-05-15T08:58:06Z</time>
      </trkpt>
      <trkpt lat="48.59763" lon="1.71466">
        <ele>137</ele>
        <time>2010-05-15T08:58:07Z</time>
      </trkpt>
      <trkpt lat="48.59761" lon="1.71467">
        <ele>137</ele>
        <time>2010-05-15T08:58:08Z</time>
      </trkpt>
      <trkpt lat="48.59758" lon="1.71468">
        <ele>137</ele>
        <time>2010-05-15T08:58:09Z</time>
      </trkpt>
      <trkpt lat="48.59756" lon="1.71469">
        <ele>137</ele>
        <time>2010-05-15T08:58:10Z</time>
      </trkpt>
      <trkpt lat="48.59755" lon="1.7147">
        <ele>138</ele>
        <time>2010-05-15T08:58:11Z</time>
      </trkpt>
      <trkpt lat="48.59753" lon="1.71472">
        <ele>138</ele>
        <time>2010-05-15T08:58:12Z</time>
      </trkpt>
      <trkpt lat="48.59752" lon="1.71473">
        <ele>139</ele>
        <time>2010-05-15T08:58:13Z</time>
      </trkpt>
      <trkpt lat="48.5975" lon="1.71475">
        <ele>139</ele>
        <time>2010-05-15T08:58:14Z</time>
      </trkpt>
      <trkpt lat="48.59748" lon="1.71476">
        <ele>139</ele>
        <time>2010-05-15T08:58:15Z</time>
      </trkpt>
      <trkpt lat="48.59747" lon="1.71477">
        <ele>139</ele>
        <time>2010-05-15T08:58:16Z</time>
      </trkpt>
      <trkpt lat="48.59746" lon="1.71478">
        <ele>139</ele>
        <time>2010-05-15T08:58:17Z</time>
      </trkpt>
      <trkpt lat="48.59744" lon="1.7148">
        <ele>139</ele>
        <time>2010-05-15T08:58:18Z</time>
      </trkpt>
      <trkpt lat="48.59743" lon="1.71481">
        <ele>139</ele>
        <time>2010-05-15T08:58:19Z</time>
      </trkpt>
      <trkpt lat="48.59742" lon="1.71482">
        <ele>139</ele>
        <time>2010-05-15T08:58:20Z</time>
      </trkpt>
      <trkpt lat="48.5974" lon="1.71484">
        <ele>139</ele>
        <time>2010-05-15T08:58:21Z</time>
      </trkpt>
      <trkpt lat="48.59739" lon="1.71485">
        <ele>139</ele>
        <time>2010-05-15T08:58:22Z</time>
      </trkpt>
      <trkpt lat="48.59738" lon="1.71487">
        <ele>139</ele>
        <time>2010-05-15T08:58:23Z</time>
      </trkpt>
      <trkpt lat="48.59737" lon="1.71488">
        <ele>139</ele>
        <time>2010-05-15T08:58:24Z</time>
      </trkpt>
      <trkpt lat="48.59735" lon="1.7149">
        <ele>139</ele>
        <time>2010-05-15T08:58:26Z</time>
      </trkpt>
      <trkpt lat="48.59733" lon="1.71493">
        <ele>139</ele>
        <time>2010-05-15T08:58:28Z</time>
      </trkpt>
      <trkpt lat="48.59732" lon="1.71495">
        <ele>139</ele>
        <time>2010-05-15T08:58:30Z</time>
      </trkpt>
      <trkpt lat="48.59732" lon="1.71497">
        <ele>138</ele>
        <time>2010-05-15T08:58:37Z</time>
      </trkpt>
      <trkpt lat="48.59731" lon="1.71499">
        <ele>138</ele>
        <time>2010-05-15T08:58:40Z</time>
      </trkpt>
      <trkpt lat="48.5973" lon="1.71497">
        <ele>137</ele>
        <time>2010-05-15T08:58:47Z</time>
      </trkpt>
      <trkpt lat="48.59729" lon="1.71496">
        <ele>137</ele>
        <time>2010-05-15T08:58:51Z</time>
      </trkpt>
      <trkpt lat="48.59729" lon="1.71493">
        <ele>137</ele>
        <time>2010-05-15T08:58:59Z</time>
      </trkpt>
      <trkpt lat="48.59731" lon="1.71493">
        <ele>137</ele>
        <time>2010-05-15T08:59:01Z</time>
      </trkpt>
      <trkpt lat="48.59732" lon="1.71492">
        <ele>137</ele>
        <time>2010-05-15T08:59:02Z</time>
      </trkpt>
      <trkpt lat="48.59733" lon="1.71492">
        <ele>137</ele>
        <time>2010-05-15T08:59:04Z</time>
      </trkpt>
      <trkpt lat="48.59735" lon="1.7149">
        <ele>137</ele>
        <time>2010-05-15T08:59:06Z</time>
      </trkpt>
      <trkpt lat="48.59735" lon="1.71492">
        <ele>135</ele>
        <time>2010-05-15T08:59:12Z</time>
      </trkpt>
      <trkpt lat="48.59736" lon="1.71492">
        <ele>134</ele>
        <time>2010-05-15T08:59:17Z</time>
      </trkpt>
      <trkpt lat="48.59738" lon="1.71491">
        <ele>133</ele>
        <time>2010-05-15T08:59:20Z</time>
      </trkpt>
      <trkpt lat="48.5974" lon="1.71491">
        <ele>132</ele>
        <time>2010-05-15T08:59:22Z</time>
      </trkpt>
      <trkpt lat="48.59741" lon="1.7149">
        <ele>131</ele>
        <time>2010-05-15T08:59:24Z</time>
      </trkpt>
      <trkpt lat="48.59743" lon="1.71489">
        <ele>129</ele>
        <time>2010-05-15T08:59:34Z</time>
      </trkpt>
      <trkpt lat="48.59741" lon="1.7149">
        <ele>128</ele>
        <time>2010-05-15T08:59:38Z</time>
      </trkpt>
      <trkpt lat="48.59739" lon="1.71493">
        <ele>128</ele>
        <time>2010-05-15T08:59:40Z</time>
      </trkpt>
      <trkpt lat="48.59737" lon="1.71495">
        <ele>128</ele>
        <time>2010-05-15T08:59:41Z</time>
      </trkpt>
      <trkpt lat="48.59736" lon="1.71496">
        <ele>128</ele>
        <time>2010-05-15T08:59:42Z</time>
      </trkpt>
      <trkpt lat="48.59735" lon="1.71498">
        <ele>128</ele>
        <time>2010-05-15T08:59:43Z</time>
      </trkpt>
      <trkpt lat="48.59733" lon="1.71499">
        <ele>127</ele>
        <time>2010-05-15T08:59:44Z</time>
      </trkpt>
      <trkpt lat="48.59732" lon="1.715">
        <ele>127</ele>
        <time>2010-05-15T08:59:45Z</time>
      </trkpt>
      <trkpt lat="48.59731" lon="1.71501">
        <ele>127</ele>
        <time>2010-05-15T08:59:46Z</time>
      </trkpt>
      <trkpt lat="48.59729" lon="1.71502">
        <ele>127</ele>
        <time>2010-05-15T08:59:47Z</time>
      </trkpt>
      <trkpt lat="48.59728" lon="1.71504">
        <ele>126</ele>
        <time>2010-05-15T08:59:48Z</time>
      </trkpt>
      <trkpt lat="48.59727" lon="1.71505">
        <ele>126</ele>
        <time>2010-05-15T08:59:49Z</time>
      </trkpt>
      <trkpt lat="48.59726" lon="1.71507">
        <ele>126</ele>
        <time>2010-05-15T08:59:50Z</time>
      </trkpt>
      <trkpt lat="48.59724" lon="1.71508">
        <ele>126</ele>
        <time>2010-05-15T08:59:51Z</time>
      </trkpt>
      <trkpt lat="48.59722" lon="1.71509">
        <ele>126</ele>
        <time>2010-05-15T08:59:52Z</time>
      </trkpt>
      <trkpt lat="48.5972" lon="1.7151">
        <ele>126</ele>
        <time>2010-05-15T08:59:53Z</time>
      </trkpt>
      <trkpt lat="48.59719" lon="1.71511">
        <ele>126</ele>
        <time>2010-05-15T08:59:54Z</time>
      </trkpt>
      <trkpt lat="48.59717" lon="1.71511">
        <ele>126</ele>
        <time>2010-05-15T08:59:55Z</time>
      </trkpt>
      <trkpt lat="48.59715" lon="1.71511">
        <ele>126</ele>
        <time>2010-05-15T08:59:56Z</time>
      </trkpt>
      <trkpt lat="48.59713" lon="1.71511">
        <ele>126</ele>
        <time>2010-05-15T08:59:57Z</time>
      </trkpt>
      <trkpt lat="48.59711" lon="1.71511">
        <ele>126</ele>
        <time>2010-05-15T08:59:58Z</time>
      </trkpt>
      <trkpt lat="48.59709" lon="1.7151">
        <ele>126</ele>
        <time>2010-05-15T08:59:59Z</time>
      </trkpt>
      <trkpt lat="48.59707" lon="1.7151">
        <ele>126</ele>
        <time>2010-05-15T09:00:00Z</time>
      </trkpt>
      <trkpt lat="48.59706" lon="1.7151">
        <ele>126</ele>
        <time>2010-05-15T09:00:01Z</time>
      </trkpt>
      <trkpt lat="48.59704" lon="1.71509">
        <ele>126</ele>
        <time>2010-05-15T09:00:02Z</time>
      </trkpt>
      <trkpt lat="48.59702" lon="1.71509">
        <ele>126</ele>
        <time>2010-05-15T09:00:03Z</time>
      </trkpt>
      <trkpt lat="48.59701" lon="1.71509">
        <ele>126</ele>
        <time>2010-05-15T09:00:04Z</time>
      </trkpt>
      <trkpt lat="48.597" lon="1.7151">
        <ele>126</ele>
        <time>2010-05-15T09:00:05Z</time>
      </trkpt>
      <trkpt lat="48.59698" lon="1.71509">
        <ele>126</ele>
        <time>2010-05-15T09:00:06Z</time>
      </trkpt>
      <trkpt lat="48.59696" lon="1.71509">
        <ele>126</ele>
        <time>2010-05-15T09:00:07Z</time>
      </trkpt>
      <trkpt lat="48.59694" lon="1.71509">
        <ele>126</ele>
        <time>2010-05-15T09:00:08Z</time>
      </trkpt>
      <trkpt lat="48.59692" lon="1.71509">
        <ele>126</ele>
        <time>2010-05-15T09:00:09Z</time>
      </trkpt>
      <trkpt lat="48.5969" lon="1.7151">
        <ele>126</ele>
        <time>2010-05-15T09:00:10Z</time>
      </trkpt>
      <trkpt lat="48.59688" lon="1.7151">
        <ele>126</ele>
        <time>2010-05-15T09:00:11Z</time>
      </trkpt>
      <trkpt lat="48.59687" lon="1.7151">
        <ele>126</ele>
        <time>2010-05-15T09:00:12Z</time>
      </trkpt>
      <trkpt lat="48.59685" lon="1.7151">
        <ele>126</ele>
        <time>2010-05-15T09:00:13Z</time>
      </trkpt>
      <trkpt lat="48.59684" lon="1.71511">
        <ele>126</ele>
        <time>2010-05-15T09:00:14Z</time>
      </trkpt>
      <trkpt lat="48.59682" lon="1.71511">
        <ele>126</ele>
        <time>2010-05-15T09:00:15Z</time>
      </trkpt>
      <trkpt lat="48.59681" lon="1.71512">
        <ele>126</ele>
        <time>2010-05-15T09:00:16Z</time>
      </trkpt>
      <trkpt lat="48.59679" lon="1.71513">
        <ele>126</ele>
        <time>2010-05-15T09:00:17Z</time>
      </trkpt>
      <trkpt lat="48.59678" lon="1.71513">
        <ele>126</ele>
        <time>2010-05-15T09:00:18Z</time>
      </trkpt>
      <trkpt lat="48.59676" lon="1.71514">
        <ele>126</ele>
        <time>2010-05-15T09:00:19Z</time>
      </trkpt>
      <trkpt lat="48.59675" lon="1.71515">
        <ele>126</ele>
        <time>2010-05-15T09:00:20Z</time>
      </trkpt>
      <trkpt lat="48.59673" lon="1.71516">
        <ele>126</ele>
        <time>2010-05-15T09:00:21Z</time>
      </trkpt>
      <trkpt lat="48.59672" lon="1.71517">
        <ele>126</ele>
        <time>2010-05-15T09:00:22Z</time>
      </trkpt>
      <trkpt lat="48.59671" lon="1.71519">
        <ele>126</ele>
        <time>2010-05-15T09:00:23Z</time>
      </trkpt>
      <trkpt lat="48.59669" lon="1.7152">
        <ele>126</ele>
        <time>2010-05-15T09:00:24Z</time>
      </trkpt>
      <trkpt lat="48.59668" lon="1.7152">
        <ele>126</ele>
        <time>2010-05-15T09:00:25Z</time>
      </trkpt>
      <trkpt lat="48.59666" lon="1.71521">
        <ele>126</ele>
        <time>2010-05-15T09:00:26Z</time>
      </trkpt>
      <trkpt lat="48.59665" lon="1.71522">
        <ele>126</ele>
        <time>2010-05-15T09:00:27Z</time>
      </trkpt>
      <trkpt lat="48.59664" lon="1.71523">
        <ele>126</ele>
        <time>2010-05-15T09:00:28Z</time>
      </trkpt>
      <trkpt lat="48.59663" lon="1.71523">
        <ele>126</ele>
        <time>2010-05-15T09:00:33Z</time>
      </trkpt>
      <trkpt lat="48.59661" lon="1.71524">
        <ele>126</ele>
        <time>2010-05-15T09:00:35Z</time>
      </trkpt>
      <trkpt lat="48.59659" lon="1.71527">
        <ele>126</ele>
        <time>2010-05-15T09:00:37Z</time>
      </trkpt>
      <trkpt lat="48.59658" lon="1.71528">
        <ele>126</ele>
        <time>2010-05-15T09:00:38Z</time>
      </trkpt>
      <trkpt lat="48.59657" lon="1.7153">
        <ele>126</ele>
        <time>2010-05-15T09:00:39Z</time>
      </trkpt>
      <trkpt lat="48.59657" lon="1.71532">
        <ele>126</ele>
        <time>2010-05-15T09:00:40Z</time>
      </trkpt>
      <trkpt lat="48.59656" lon="1.71534">
        <ele>126</ele>
        <time>2010-05-15T09:00:41Z</time>
      </trkpt>
      <trkpt lat="48.59656" lon="1.71536">
        <ele>126</ele>
        <time>2010-05-15T09:00:42Z</time>
      </trkpt>
      <trkpt lat="48.59656" lon="1.71538">
        <ele>126</ele>
        <time>2010-05-15T09:00:43Z</time>
      </trkpt>
      <trkpt lat="48.59655" lon="1.7154">
        <ele>126</ele>
        <time>2010-05-15T09:00:44Z</time>
      </trkpt>
      <trkpt lat="48.59655" lon="1.71542">
        <ele>126</ele>
        <time>2010-05-15T09:00:45Z</time>
      </trkpt>
      <trkpt lat="48.59655" lon="1.71544">
        <ele>126</ele>
        <time>2010-05-15T09:00:46Z</time>
      </trkpt>
      <trkpt lat="48.59654" lon="1.71546">
        <ele>126</ele>
        <time>2010-05-15T09:00:47Z</time>
      </trkpt>
      <trkpt lat="48.59654" lon="1.71548">
        <ele>126</ele>
        <time>2010-05-15T09:00:48Z</time>
      </trkpt>
      <trkpt lat="48.59653" lon="1.7155">
        <ele>126</ele>
        <time>2010-05-15T09:00:49Z</time>
      </trkpt>
      <trkpt lat="48.59653" lon="1.71553">
        <ele>126</ele>
        <time>2010-05-15T09:00:50Z</time>
      </trkpt>
      <trkpt lat="48.59653" lon="1.71555">
        <ele>126</ele>
        <time>2010-05-15T09:00:51Z</time>
      </trkpt>
      <trkpt lat="48.59652" lon="1.71557">
        <ele>126</ele>
        <time>2010-05-15T09:00:52Z</time>
      </trkpt>
      <trkpt lat="48.59652" lon="1.71559">
        <ele>126</ele>
        <time>2010-05-15T09:00:53Z</time>
      </trkpt>
      <trkpt lat="48.59651" lon="1.71561">
        <ele>126</ele>
        <time>2010-05-15T09:00:54Z</time>
      </trkpt>
      <trkpt lat="48.59651" lon="1.71564">
        <ele>126</ele>
        <time>2010-05-15T09:00:55Z</time>
      </trkpt>
      <trkpt lat="48.5965" lon="1.71566">
        <ele>126</ele>
        <time>2010-05-15T09:00:56Z</time>
      </trkpt>
      <trkpt lat="48.59649" lon="1.71568">
        <ele>126</ele>
        <time>2010-05-15T09:00:57Z</time>
      </trkpt>
      <trkpt lat="48.59648" lon="1.71571">
        <ele>126</ele>
        <time>2010-05-15T09:00:58Z</time>
      </trkpt>
      <trkpt lat="48.59648" lon="1.71573">
        <ele>126</ele>
        <time>2010-05-15T09:00:59Z</time>
      </trkpt>
      <trkpt lat="48.59647" lon="1.71575">
        <ele>126</ele>
        <time>2010-05-15T09:01:00Z</time>
      </trkpt>
      <trkpt lat="48.59647" lon="1.71578">
        <ele>126</ele>
        <time>2010-05-15T09:01:01Z</time>
      </trkpt>
      <trkpt lat="48.59646" lon="1.7158">
        <ele>126</ele>
        <time>2010-05-15T09:01:02Z</time>
      </trkpt>
      <trkpt lat="48.59646" lon="1.71582">
        <ele>126</ele>
        <time>2010-05-15T09:01:03Z</time>
      </trkpt>
      <trkpt lat="48.59646" lon="1.71584">
        <ele>126</ele>
        <time>2010-05-15T09:01:04Z</time>
      </trkpt>
      <trkpt lat="48.59645" lon="1.71587">
        <ele>125</ele>
        <time>2010-05-15T09:01:05Z</time>
      </trkpt>
      <trkpt lat="48.59645" lon="1.71589">
        <ele>125</ele>
        <time>2010-05-15T09:01:06Z</time>
      </trkpt>
      <trkpt lat="48.59644" lon="1.71591">
        <ele>125</ele>
        <time>2010-05-15T09:01:07Z</time>
      </trkpt>
      <trkpt lat="48.59643" lon="1.71593">
        <ele>125</ele>
        <time>2010-05-15T09:01:08Z</time>
      </trkpt>
      <trkpt lat="48.59641" lon="1.71596">
        <ele>125</ele>
        <time>2010-05-15T09:01:09Z</time>
      </trkpt>
      <trkpt lat="48.59641" lon="1.71598">
        <ele>124</ele>
        <time>2010-05-15T09:01:10Z</time>
      </trkpt>
      <trkpt lat="48.59641" lon="1.716">
        <ele>124</ele>
        <time>2010-05-15T09:01:11Z</time>
      </trkpt>
      <trkpt lat="48.5964" lon="1.71602">
        <ele>124</ele>
        <time>2010-05-15T09:01:12Z</time>
      </trkpt>
      <trkpt lat="48.59639" lon="1.71604">
        <ele>124</ele>
        <time>2010-05-15T09:01:13Z</time>
      </trkpt>
      <trkpt lat="48.59638" lon="1.71605">
        <ele>124</ele>
        <time>2010-05-15T09:01:14Z</time>
      </trkpt>
      <trkpt lat="48.59636" lon="1.71608">
        <ele>124</ele>
        <time>2010-05-15T09:01:16Z</time>
      </trkpt>
      <trkpt lat="48.59635" lon="1.71609">
        <ele>124</ele>
        <time>2010-05-15T09:01:17Z</time>
      </trkpt>
      <trkpt lat="48.59634" lon="1.7161">
        <ele>124</ele>
        <time>2010-05-15T09:01:18Z</time>
      </trkpt>
      <trkpt lat="48.59632" lon="1.7161">
        <ele>124</ele>
        <time>2010-05-15T09:01:19Z</time>
      </trkpt>
      <trkpt lat="48.59631" lon="1.71611">
        <ele>124</ele>
        <time>2010-05-15T09:01:20Z</time>
      </trkpt>
      <trkpt lat="48.59629" lon="1.71611">
        <ele>124</ele>
        <time>2010-05-15T09:01:21Z</time>
      </trkpt>
      <trkpt lat="48.59628" lon="1.71611">
        <ele>124</ele>
        <time>2010-05-15T09:01:22Z</time>
      </trkpt>
      <trkpt lat="48.59626" lon="1.71611">
        <ele>124</ele>
        <time>2010-05-15T09:01:23Z</time>
      </trkpt>
      <trkpt lat="48.59624" lon="1.71612">
        <ele>124</ele>
        <time>2010-05-15T09:01:24Z</time>
      </trkpt>
      <trkpt lat="48.59623" lon="1.71612">
        <ele>124</ele>
        <time>2010-05-15T09:01:25Z</time>
      </trkpt>
      <trkpt lat="48.59622" lon="1.71612">
        <ele>124</ele>
        <time>2010-05-15T09:01:26Z</time>
      </trkpt>
      <trkpt lat="48.5962" lon="1.71612">
        <ele>124</ele>
        <time>2010-05-15T09:01:27Z</time>
      </trkpt>
      <trkpt lat="48.59618" lon="1.71612">
        <ele>124</ele>
        <time>2010-05-15T09:01:28Z</time>
      </trkpt>
      <trkpt lat="48.59617" lon="1.71612">
        <ele>124</ele>
        <time>2010-05-15T09:01:29Z</time>
      </trkpt>
      <trkpt lat="48.59615" lon="1.71612">
        <ele>124</ele>
        <time>2010-05-15T09:01:30Z</time>
      </trkpt>
      <trkpt lat="48.59614" lon="1.71612">
        <ele>124</ele>
        <time>2010-05-15T09:01:31Z</time>
      </trkpt>
      <trkpt lat="48.59612" lon="1.71612">
        <ele>124</ele>
        <time>2010-05-15T09:01:32Z</time>
      </trkpt>
      <trkpt lat="48.59611" lon="1.71612">
        <ele>124</ele>
        <time>2010-05-15T09:01:33Z</time>
      </trkpt>
      <trkpt lat="48.5961" lon="1.71613">
        <ele>124</ele>
        <time>2010-05-15T09:01:34Z</time>
      </trkpt>
      <trkpt lat="48.59608" lon="1.71613">
        <ele>124</ele>
        <time>2010-05-15T09:01:35Z</time>
      </trkpt>
      <trkpt lat="48.59607" lon="1.71613">
        <ele>124</ele>
        <time>2010-05-15T09:01:36Z</time>
      </trkpt>
      <trkpt lat="48.59605" lon="1.71614">
        <ele>124</ele>
        <time>2010-05-15T09:01:37Z</time>
      </trkpt>
      <trkpt lat="48.59604" lon="1.71614">
        <ele>123</ele>
        <time>2010-05-15T09:01:38Z</time>
      </trkpt>
      <trkpt lat="48.59602" lon="1.71614">
        <ele>123</ele>
        <time>2010-05-15T09:01:39Z</time>
      </trkpt>
      <trkpt lat="48.59601" lon="1.71614">
        <ele>123</ele>
        <time>2010-05-15T09:01:40Z</time>
      </trkpt>
      <trkpt lat="48.59599" lon="1.71615">
        <ele>123</ele>
        <time>2010-05-15T09:01:41Z</time>
      </trkpt>
      <trkpt lat="48.59598" lon="1.71615">
        <ele>123</ele>
        <time>2010-05-15T09:01:42Z</time>
      </trkpt>
      <trkpt lat="48.59596" lon="1.71615">
        <ele>123</ele>
        <time>2010-05-15T09:01:43Z</time>
      </trkpt>
      <trkpt lat="48.59595" lon="1.71615">
        <ele>123</ele>
        <time>2010-05-15T09:01:44Z</time>
      </trkpt>
      <trkpt lat="48.59593" lon="1.71616">
        <ele>123</ele>
        <time>2010-05-15T09:01:45Z</time>
      </trkpt>
      <trkpt lat="48.59592" lon="1.71616">
        <ele>123</ele>
        <time>2010-05-15T09:01:46Z</time>
      </trkpt>
      <trkpt lat="48.5959" lon="1.71616">
        <ele>123</ele>
        <time>2010-05-15T09:01:47Z</time>
      </trkpt>
      <trkpt lat="48.59589" lon="1.71617">
        <ele>123</ele>
        <time>2010-05-15T09:01:48Z</time>
      </trkpt>
      <trkpt lat="48.59587" lon="1.71617">
        <ele>123</ele>
        <time>2010-05-15T09:01:49Z</time>
      </trkpt>
      <trkpt lat="48.59586" lon="1.71617">
        <ele>123</ele>
        <time>2010-05-15T09:01:50Z</time>
      </trkpt>
      <trkpt lat="48.59584" lon="1.71618">
        <ele>122</ele>
        <time>2010-05-15T09:01:51Z</time>
      </trkpt>
      <trkpt lat="48.59583" lon="1.71618">
        <ele>122</ele>
        <time>2010-05-15T09:01:52Z</time>
      </trkpt>
      <trkpt lat="48.59581" lon="1.71619">
        <ele>122</ele>
        <time>2010-05-15T09:01:53Z</time>
      </trkpt>
      <trkpt lat="48.5958" lon="1.71619">
        <ele>122</ele>
        <time>2010-05-15T09:01:54Z</time>
      </trkpt>
      <trkpt lat="48.59578" lon="1.71619">
        <ele>122</ele>
        <time>2010-05-15T09:01:55Z</time>
      </trkpt>
      <trkpt lat="48.59576" lon="1.7162">
        <ele>122</ele>
        <time>2010-05-15T09:01:56Z</time>
      </trkpt>
      <trkpt lat="48.59575" lon="1.7162">
        <ele>122</ele>
        <time>2010-05-15T09:01:57Z</time>
      </trkpt>
      <trkpt lat="48.59573" lon="1.71621">
        <ele>122</ele>
        <time>2010-05-15T09:01:58Z</time>
      </trkpt>
      <trkpt lat="48.59572" lon="1.71621">
        <ele>122</ele>
        <time>2010-05-15T09:01:59Z</time>
      </trkpt>
      <trkpt lat="48.5957" lon="1.71621">
        <ele>122</ele>
        <time>2010-05-15T09:02:00Z</time>
      </trkpt>
      <trkpt lat="48.59569" lon="1.71621">
        <ele>122</ele>
        <time>2010-05-15T09:02:01Z</time>
      </trkpt>
      <trkpt lat="48.59567" lon="1.7162">
        <ele>122</ele>
        <time>2010-05-15T09:02:02Z</time>
      </trkpt>
      <trkpt lat="48.59566" lon="1.7162">
        <ele>122</ele>
        <time>2010-05-15T09:02:03Z</time>
      </trkpt>
      <trkpt lat="48.59564" lon="1.71621">
        <ele>122</ele>
        <time>2010-05-15T09:02:04Z</time>
      </trkpt>
      <trkpt lat="48.59563" lon="1.71621">
        <ele>122</ele>
        <time>2010-05-15T09:02:05Z</time>
      </trkpt>
      <trkpt lat="48.59561" lon="1.71621">
        <ele>122</ele>
        <time>2010-05-15T09:02:06Z</time>
      </trkpt>
      <trkpt lat="48.5956" lon="1.71622">
        <ele>122</ele>
        <time>2010-05-15T09:02:07Z</time>
      </trkpt>
      <trkpt lat="48.59558" lon="1.71622">
        <ele>122</ele>
        <time>2010-05-15T09:02:08Z</time>
      </trkpt>
      <trkpt lat="48.59557" lon="1.71622">
        <ele>122</ele>
        <time>2010-05-15T09:02:09Z</time>
      </trkpt>
      <trkpt lat="48.59555" lon="1.71622">
        <ele>122</ele>
        <time>2010-05-15T09:02:10Z</time>
      </trkpt>
      <trkpt lat="48.59554" lon="1.71623">
        <ele>122</ele>
        <time>2010-05-15T09:02:11Z</time>
      </trkpt>
      <trkpt lat="48.59552" lon="1.71623">
        <ele>122</ele>
        <time>2010-05-15T09:02:12Z</time>
      </trkpt>
      <trkpt lat="48.5955" lon="1.71624">
        <ele>122</ele>
        <time>2010-05-15T09:02:13Z</time>
      </trkpt>
      <trkpt lat="48.59549" lon="1.71624">
        <ele>122</ele>
        <time>2010-05-15T09:02:14Z</time>
      </trkpt>
      <trkpt lat="48.59547" lon="1.71624">
        <ele>122</ele>
        <time>2010-05-15T09:02:15Z</time>
      </trkpt>
      <trkpt lat="48.59546" lon="1.71625">
        <ele>122</ele>
        <time>2010-05-15T09:02:16Z</time>
      </trkpt>
      <trkpt lat="48.59544" lon="1.71625">
        <ele>122</ele>
        <time>2010-05-15T09:02:17Z</time>
      </trkpt>
      <trkpt lat="48.59543" lon="1.71625">
        <ele>122</ele>
        <time>2010-05-15T09:02:18Z</time>
      </trkpt>
      <trkpt lat="48.59541" lon="1.71626">
        <ele>122</ele>
        <time>2010-05-15T09:02:19Z</time>
      </trkpt>
      <trkpt lat="48.5954" lon="1.71626">
        <ele>122</ele>
        <time>2010-05-15T09:02:20Z</time>
      </trkpt>
      <trkpt lat="48.59538" lon="1.71626">
        <ele>122</ele>
        <time>2010-05-15T09:02:21Z</time>
      </trkpt>
      <trkpt lat="48.59537" lon="1.71626">
        <ele>122</ele>
        <time>2010-05-15T09:02:22Z</time>
      </trkpt>
      <trkpt lat="48.59535" lon="1.71626">
        <ele>122</ele>
        <time>2010-05-15T09:02:23Z</time>
      </trkpt>
      <trkpt lat="48.59533" lon="1.71627">
        <ele>122</ele>
        <time>2010-05-15T09:02:24Z</time>
      </trkpt>
      <trkpt lat="48.59532" lon="1.71627">
        <ele>122</ele>
        <time>2010-05-15T09:02:25Z</time>
      </trkpt>
      <trkpt lat="48.5953" lon="1.71628">
        <ele>121</ele>
        <time>2010-05-15T09:02:26Z</time>
      </trkpt>
      <trkpt lat="48.59529" lon="1.71629">
        <ele>121</ele>
        <time>2010-05-15T09:02:27Z</time>
      </trkpt>
      <trkpt lat="48.59528" lon="1.7163">
        <ele>121</ele>
        <time>2010-05-15T09:02:28Z</time>
      </trkpt>
      <trkpt lat="48.59527" lon="1.7163">
        <ele>121</ele>
        <time>2010-05-15T09:02:29Z</time>
      </trkpt>
      <trkpt lat="48.59525" lon="1.71631">
        <ele>121</ele>
        <time>2010-05-15T09:02:30Z</time>
      </trkpt>
      <trkpt lat="48.59524" lon="1.71633">
        <ele>121</ele>
        <time>2010-05-15T09:02:31Z</time>
      </trkpt>
      <trkpt lat="48.59523" lon="1.71634">
        <ele>121</ele>
        <time>2010-05-15T09:02:32Z</time>
      </trkpt>
      <trkpt lat="48.59521" lon="1.71635">
        <ele>121</ele>
        <time>2010-05-15T09:02:33Z</time>
      </trkpt>
      <trkpt lat="48.5952" lon="1.71636">
        <ele>121</ele>
        <time>2010-05-15T09:02:34Z</time>
      </trkpt>
      <trkpt lat="48.59518" lon="1.71637">
        <ele>121</ele>
        <time>2010-05-15T09:02:35Z</time>
      </trkpt>
      <trkpt lat="48.59517" lon="1.71638">
        <ele>121</ele>
        <time>2010-05-15T09:02:36Z</time>
      </trkpt>
      <trkpt lat="48.59515" lon="1.71639">
        <ele>121</ele>
        <time>2010-05-15T09:02:37Z</time>
      </trkpt>
      <trkpt lat="48.59514" lon="1.7164">
        <ele>121</ele>
        <time>2010-05-15T09:02:38Z</time>
      </trkpt>
      <trkpt lat="48.59513" lon="1.71641">
        <ele>121</ele>
        <time>2010-05-15T09:02:39Z</time>
      </trkpt>
      <trkpt lat="48.59511" lon="1.71642">
        <ele>121</ele>
        <time>2010-05-15T09:02:40Z</time>
      </trkpt>
      <trkpt lat="48.5951" lon="1.71642">
        <ele>121</ele>
        <time>2010-05-15T09:02:41Z</time>
      </trkpt>
      <trkpt lat="48.59508" lon="1.71643">
        <ele>121</ele>
        <time>2010-05-15T09:02:42Z</time>
      </trkpt>
      <trkpt lat="48.59507" lon="1.71644">
        <ele>121</ele>
        <time>2010-05-15T09:02:43Z</time>
      </trkpt>
      <trkpt lat="48.59505" lon="1.71644">
        <ele>121</ele>
        <time>2010-05-15T09:02:44Z</time>
      </trkpt>
      <trkpt lat="48.59504" lon="1.71645">
        <ele>121</ele>
        <time>2010-05-15T09:02:45Z</time>
      </trkpt>
      <trkpt lat="48.59503" lon="1.71646">
        <ele>121</ele>
        <time>2010-05-15T09:02:46Z</time>
      </trkpt>
      <trkpt lat="48.59501" lon="1.71646">
        <ele>121</ele>
        <time>2010-05-15T09:02:47Z</time>
      </trkpt>
      <trkpt lat="48.595" lon="1.71646">
        <ele>121</ele>
        <time>2010-05-15T09:02:48Z</time>
      </trkpt>
      <trkpt lat="48.59498" lon="1.71647">
        <ele>121</ele>
        <time>2010-05-15T09:02:49Z</time>
      </trkpt>
      <trkpt lat="48.59497" lon="1.71647">
        <ele>121</ele>
        <time>2010-05-15T09:02:50Z</time>
      </trkpt>
      <trkpt lat="48.59496" lon="1.71648">
        <ele>121</ele>
        <time>2010-05-15T09:02:51Z</time>
      </trkpt>
      <trkpt lat="48.59495" lon="1.71649">
        <ele>121</ele>
        <time>2010-05-15T09:02:52Z</time>
      </trkpt>
      <trkpt lat="48.59494" lon="1.7165">
        <ele>121</ele>
        <time>2010-05-15T09:02:53Z</time>
      </trkpt>
      <trkpt lat="48.59492" lon="1.71653">
        <ele>121</ele>
        <time>2010-05-15T09:02:55Z</time>
      </trkpt>
      <trkpt lat="48.59491" lon="1.71655">
        <ele>121</ele>
        <time>2010-05-15T09:02:56Z</time>
      </trkpt>
      <trkpt lat="48.5949" lon="1.71657">
        <ele>121</ele>
        <time>2010-05-15T09:02:57Z</time>
      </trkpt>
      <trkpt lat="48.59489" lon="1.71659">
        <ele>121</ele>
        <time>2010-05-15T09:02:58Z</time>
      </trkpt>
      <trkpt lat="48.59489" lon="1.71662">
        <ele>121</ele>
        <time>2010-05-15T09:02:59Z</time>
      </trkpt>
      <trkpt lat="48.59489" lon="1.71664">
        <ele>121</ele>
        <time>2010-05-15T09:03:00Z</time>
      </trkpt>
      <trkpt lat="48.59488" lon="1.71666">
        <ele>121</ele>
        <time>2010-05-15T09:03:01Z</time>
      </trkpt>
      <trkpt lat="48.59488" lon="1.71668">
        <ele>121</ele>
        <time>2010-05-15T09:03:02Z</time>
      </trkpt>
      <trkpt lat="48.59488" lon="1.71671">
        <ele>121</ele>
        <time>2010-05-15T09:03:03Z</time>
      </trkpt>
      <trkpt lat="48.59488" lon="1.71673">
        <ele>121</ele>
        <time>2010-05-15T09:03:04Z</time>
      </trkpt>
      <trkpt lat="48.59487" lon="1.71675">
        <ele>121</ele>
        <time>2010-05-15T09:03:05Z</time>
      </trkpt>
      <trkpt lat="48.59487" lon="1.71677">
        <ele>121</ele>
        <time>2010-05-15T09:03:06Z</time>
      </trkpt>
      <trkpt lat="48.59487" lon="1.71679">
        <ele>121</ele>
        <time>2010-05-15T09:03:07Z</time>
      </trkpt>
      <trkpt lat="48.59486" lon="1.71681">
        <ele>121</ele>
        <time>2010-05-15T09:03:08Z</time>
      </trkpt>
      <trkpt lat="48.59486" lon="1.71683">
        <ele>121</ele>
        <time>2010-05-15T09:03:09Z</time>
      </trkpt>
      <trkpt lat="48.59486" lon="1.71685">
        <ele>121</ele>
        <time>2010-05-15T09:03:10Z</time>
      </trkpt>
      <trkpt lat="48.59486" lon="1.71687">
        <ele>121</ele>
        <time>2010-05-15T09:03:11Z</time>
      </trkpt>
      <trkpt lat="48.59486" lon="1.71689">
        <ele>121</ele>
        <time>2010-05-15T09:03:12Z</time>
      </trkpt>
      <trkpt lat="48.59486" lon="1.71691">
        <ele>121</ele>
        <time>2010-05-15T09:03:13Z</time>
      </trkpt>
      <trkpt lat="48.59485" lon="1.71693">
        <ele>121</ele>
        <time>2010-05-15T09:03:14Z</time>
      </trkpt>
      <trkpt lat="48.59485" lon="1.71695">
        <ele>121</ele>
        <time>2010-05-15T09:03:15Z</time>
      </trkpt>
      <trkpt lat="48.59484" lon="1.71697">
        <ele>121</ele>
        <time>2010-05-15T09:03:16Z</time>
      </trkpt>
      <trkpt lat="48.59483" lon="1.71699">
        <ele>121</ele>
        <time>2010-05-15T09:03:18Z</time>
      </trkpt>
      <trkpt lat="48.59482" lon="1.71701">
        <ele>121</ele>
        <time>2010-05-15T09:03:26Z</time>
      </trkpt>
      <trkpt lat="48.59482" lon="1.71704">
        <ele>121</ele>
        <time>2010-05-15T09:03:28Z</time>
      </trkpt>
      <trkpt lat="48.59482" lon="1.71706">
        <ele>121</ele>
        <time>2010-05-15T09:03:29Z</time>
      </trkpt>
      <trkpt lat="48.59482" lon="1.71708">
        <ele>121</ele>
        <time>2010-05-15T09:03:30Z</time>
      </trkpt>
      <trkpt lat="48.59482" lon="1.7171">
        <ele>121</ele>
        <time>2010-05-15T09:03:31Z</time>
      </trkpt>
      <trkpt lat="48.59482" lon="1.71712">
        <ele>121</ele>
        <time>2010-05-15T09:03:32Z</time>
      </trkpt>
      <trkpt lat="48.59482" lon="1.71715">
        <ele>120</ele>
        <time>2010-05-15T09:03:34Z</time>
      </trkpt>
      <trkpt lat="48.59482" lon="1.71716">
        <ele>120</ele>
        <time>2010-05-15T09:03:35Z</time>
      </trkpt>
      <trkpt lat="48.59482" lon="1.71718">
        <ele>120</ele>
        <time>2010-05-15T09:03:36Z</time>
      </trkpt>
      <trkpt lat="48.59483" lon="1.7172">
        <ele>119</ele>
        <time>2010-05-15T09:03:37Z</time>
      </trkpt>
      <trkpt lat="48.59483" lon="1.71721">
        <ele>119</ele>
        <time>2010-05-15T09:03:38Z</time>
      </trkpt>
      <trkpt lat="48.59483" lon="1.71723">
        <ele>118</ele>
        <time>2010-05-15T09:03:39Z</time>
      </trkpt>
      <trkpt lat="48.59483" lon="1.71726">
        <ele>116</ele>
        <time>2010-05-15T09:03:41Z</time>
      </trkpt>
      <trkpt lat="48.59484" lon="1.71728">
        <ele>116</ele>
        <time>2010-05-15T09:03:42Z</time>
      </trkpt>
      <trkpt lat="48.59483" lon="1.71731">
        <ele>115</ele>
        <time>2010-05-15T09:03:43Z</time>
      </trkpt>
      <trkpt lat="48.59483" lon="1.71733">
        <ele>115</ele>
        <time>2010-05-15T09:03:44Z</time>
      </trkpt>
      <trkpt lat="48.59483" lon="1.71734">
        <ele>115</ele>
        <time>2010-05-15T09:03:45Z</time>
      </trkpt>
      <trkpt lat="48.59483" lon="1.71736">
        <ele>114</ele>
        <time>2010-05-15T09:03:46Z</time>
      </trkpt>
      <trkpt lat="48.59483" lon="1.71738">
        <ele>114</ele>
        <time>2010-05-15T09:03:47Z</time>
      </trkpt>
      <trkpt lat="48.59483" lon="1.7174">
        <ele>113</ele>
        <time>2010-05-15T09:03:48Z</time>
      </trkpt>
      <trkpt lat="48.59483" lon="1.71742">
        <ele>112</ele>
        <time>2010-05-15T09:03:49Z</time>
      </trkpt>
      <trkpt lat="48.59482" lon="1.71745">
        <ele>112</ele>
        <time>2010-05-15T09:03:50Z</time>
      </trkpt>
      <trkpt lat="48.59481" lon="1.71748">
        <ele>112</ele>
        <time>2010-05-15T09:03:51Z</time>
      </trkpt>
      <trkpt lat="48.5948" lon="1.71751">
        <ele>112</ele>
        <time>2010-05-15T09:03:52Z</time>
      </trkpt>
      <trkpt lat="48.5948" lon="1.71753">
        <ele>112</ele>
        <time>2010-05-15T09:03:53Z</time>
      </trkpt>
      <trkpt lat="48.59478" lon="1.71756">
        <ele>112</ele>
        <time>2010-05-15T09:03:54Z</time>
      </trkpt>
      <trkpt lat="48.59475" lon="1.7176">
        <ele>112</ele>
        <time>2010-05-15T09:03:55Z</time>
      </trkpt>
      <trkpt lat="48.59474" lon="1.71762">
        <ele>112</ele>
        <time>2010-05-15T09:03:56Z</time>
      </trkpt>
      <trkpt lat="48.59472" lon="1.71765">
        <ele>112</ele>
        <time>2010-05-15T09:03:57Z</time>
      </trkpt>
      <trkpt lat="48.59472" lon="1.71768">
        <ele>112</ele>
        <time>2010-05-15T09:03:58Z</time>
      </trkpt>
      <trkpt lat="48.59471" lon="1.7177">
        <ele>112</ele>
        <time>2010-05-15T09:03:59Z</time>
      </trkpt>
      <trkpt lat="48.5947" lon="1.71773">
        <ele>112</ele>
        <time>2010-05-15T09:04:00Z</time>
      </trkpt>
      <trkpt lat="48.5947" lon="1.71775">
        <ele>112</ele>
        <time>2010-05-15T09:04:01Z</time>
      </trkpt>
      <trkpt lat="48.5947" lon="1.71777">
        <ele>112</ele>
        <time>2010-05-15T09:04:02Z</time>
      </trkpt>
      <trkpt lat="48.5947" lon="1.71779">
        <ele>112</ele>
        <time>2010-05-15T09:04:03Z</time>
      </trkpt>
      <trkpt lat="48.5947" lon="1.71781">
        <ele>112</ele>
        <time>2010-05-15T09:04:04Z</time>
      </trkpt>
      <trkpt lat="48.5947" lon="1.71784">
        <ele>112</ele>
        <time>2010-05-15T09:04:05Z</time>
      </trkpt>
      <trkpt lat="48.5947" lon="1.71786">
        <ele>112</ele>
        <time>2010-05-15T09:04:06Z</time>
      </trkpt>
      <trkpt lat="48.59469" lon="1.71788">
        <ele>112</ele>
        <time>2010-05-15T09:04:07Z</time>
      </trkpt>
      <trkpt lat="48.59469" lon="1.71791">
        <ele>112</ele>
        <time>2010-05-15T09:04:08Z</time>
      </trkpt>
      <trkpt lat="48.59469" lon="1.71793">
        <ele>112</ele>
        <time>2010-05-15T09:04:09Z</time>
      </trkpt>
      <trkpt lat="48.59469" lon="1.71796">
        <ele>112</ele>
        <time>2010-05-15T09:04:10Z</time>
      </trkpt>
      <trkpt lat="48.59469" lon="1.71798">
        <ele>112</ele>
        <time>2010-05-15T09:04:11Z</time>
      </trkpt>
      <trkpt lat="48.59469" lon="1.718">
        <ele>112</ele>
        <time>2010-05-15T09:04:12Z</time>
      </trkpt>
      <trkpt lat="48.59469" lon="1.71803">
        <ele>112</ele>
        <time>2010-05-15T09:04:13Z</time>
      </trkpt>
      <trkpt lat="48.59468" lon="1.71806">
        <ele>112</ele>
        <time>2010-05-15T09:04:14Z</time>
      </trkpt>
      <trkpt lat="48.59468" lon="1.71808">
        <ele>112</ele>
        <time>2010-05-15T09:04:15Z</time>
      </trkpt>
      <trkpt lat="48.59468" lon="1.7181">
        <ele>112</ele>
        <time>2010-05-15T09:04:16Z</time>
      </trkpt>
      <trkpt lat="48.59468" lon="1.71812">
        <ele>112</ele>
        <time>2010-05-15T09:04:17Z</time>
      </trkpt>
      <trkpt lat="48.59468" lon="1.71815">
        <ele>113</ele>
        <time>2010-05-15T09:04:18Z</time>
      </trkpt>
      <trkpt lat="48.59468" lon="1.71817">
        <ele>113</ele>
        <time>2010-05-15T09:04:19Z</time>
      </trkpt>
      <trkpt lat="48.59468" lon="1.71819">
        <ele>113</ele>
        <time>2010-05-15T09:04:20Z</time>
      </trkpt>
      <trkpt lat="48.59468" lon="1.71821">
        <ele>113</ele>
        <time>2010-05-15T09:04:21Z</time>
      </trkpt>
      <trkpt lat="48.59468" lon="1.71823">
        <ele>113</ele>
        <time>2010-05-15T09:04:22Z</time>
      </trkpt>
      <trkpt lat="48.59468" lon="1.71826">
        <ele>113</ele>
        <time>2010-05-15T09:04:23Z</time>
      </trkpt>
      <trkpt lat="48.59468" lon="1.71828">
        <ele>113</ele>
        <time>2010-05-15T09:04:24Z</time>
      </trkpt>
      <trkpt lat="48.59469" lon="1.71831">
        <ele>113</ele>
        <time>2010-05-15T09:04:25Z</time>
      </trkpt>
      <trkpt lat="48.59469" lon="1.71833">
        <ele>113</ele>
        <time>2010-05-15T09:04:26Z</time>
      </trkpt>
      <trkpt lat="48.59469" lon="1.71835">
        <ele>113</ele>
        <time>2010-05-15T09:04:27Z</time>
      </trkpt>
      <trkpt lat="48.59469" lon="1.71838">
        <ele>113</ele>
        <time>2010-05-15T09:04:28Z</time>
      </trkpt>
      <trkpt lat="48.5947" lon="1.7184">
        <ele>113</ele>
        <time>2010-05-15T09:04:29Z</time>
      </trkpt>
      <trkpt lat="48.59471" lon="1.71843">
        <ele>113</ele>
        <time>2010-05-15T09:04:30Z</time>
      </trkpt>
      <trkpt lat="48.59471" lon="1.71846">
        <ele>113</ele>
        <time>2010-05-15T09:04:31Z</time>
      </trkpt>
      <trkpt lat="48.59471" lon="1.71849">
        <ele>113</ele>
        <time>2010-05-15T09:04:32Z</time>
      </trkpt>
      <trkpt lat="48.59472" lon="1.71851">
        <ele>114</ele>
        <time>2010-05-15T09:04:33Z</time>
      </trkpt>
      <trkpt lat="48.59472" lon="1.71854">
        <ele>114</ele>
        <time>2010-05-15T09:04:34Z</time>
      </trkpt>
      <trkpt lat="48.59472" lon="1.71856">
        <ele>114</ele>
        <time>2010-05-15T09:04:35Z</time>
      </trkpt>
      <trkpt lat="48.59473" lon="1.71859">
        <ele>114</ele>
        <time>2010-05-15T09:04:36Z</time>
      </trkpt>
      <trkpt lat="48.59473" lon="1.71861">
        <ele>114</ele>
        <time>2010-05-15T09:04:37Z</time>
      </trkpt>
      <trkpt lat="48.59473" lon="1.71864">
        <ele>114</ele>
        <time>2010-05-15T09:04:38Z</time>
      </trkpt>
      <trkpt lat="48.59473" lon="1.71866">
        <ele>114</ele>
        <time>2010-05-15T09:04:39Z</time>
      </trkpt>
      <trkpt lat="48.59474" lon="1.71868">
        <ele>114</ele>
        <time>2010-05-15T09:04:40Z</time>
      </trkpt>
      <trkpt lat="48.59474" lon="1.71871">
        <ele>114</ele>
        <time>2010-05-15T09:04:41Z</time>
      </trkpt>
      <trkpt lat="48.59474" lon="1.71873">
        <ele>114</ele>
        <time>2010-05-15T09:04:42Z</time>
      </trkpt>
      <trkpt lat="48.59474" lon="1.71875">
        <ele>114</ele>
        <time>2010-05-15T09:04:43Z</time>
      </trkpt>
      <trkpt lat="48.59475" lon="1.71878">
        <ele>114</ele>
        <time>2010-05-15T09:04:44Z</time>
      </trkpt>
      <trkpt lat="48.59475" lon="1.7188">
        <ele>114</ele>
        <time>2010-05-15T09:04:45Z</time>
      </trkpt>
      <trkpt lat="48.59475" lon="1.71882">
        <ele>114</ele>
        <time>2010-05-15T09:04:46Z</time>
      </trkpt>
      <trkpt lat="48.59475" lon="1.71884">
        <ele>114</ele>
        <time>2010-05-15T09:04:47Z</time>
      </trkpt>
      <trkpt lat="48.59475" lon="1.71887">
        <ele>115</ele>
        <time>2010-05-15T09:04:48Z</time>
      </trkpt>
      <trkpt lat="48.59476" lon="1.71889">
        <ele>115</ele>
        <time>2010-05-15T09:04:49Z</time>
      </trkpt>
      <trkpt lat="48.59476" lon="1.71891">
        <ele>115</ele>
        <time>2010-05-15T09:04:50Z</time>
      </trkpt>
      <trkpt lat="48.59476" lon="1.71893">
        <ele>115</ele>
        <time>2010-05-15T09:04:51Z</time>
      </trkpt>
      <trkpt lat="48.59477" lon="1.71895">
        <ele>115</ele>
        <time>2010-05-15T09:04:52Z</time>
      </trkpt>
      <trkpt lat="48.59477" lon="1.71898">
        <ele>115</ele>
        <time>2010-05-15T09:04:53Z</time>
      </trkpt>
      <trkpt lat="48.59478" lon="1.719">
        <ele>115</ele>
        <time>2010-05-15T09:04:54Z</time>
      </trkpt>
      <trkpt lat="48.59478" lon="1.71902">
        <ele>115</ele>
        <time>2010-05-15T09:04:55Z</time>
      </trkpt>
      <trkpt lat="48.59479" lon="1.71904">
        <ele>115</ele>
        <time>2010-05-15T09:04:56Z</time>
      </trkpt>
      <trkpt lat="48.59479" lon="1.71906">
        <ele>115</ele>
        <time>2010-05-15T09:04:57Z</time>
      </trkpt>
      <trkpt lat="48.59479" lon="1.71909">
        <ele>115</ele>
        <time>2010-05-15T09:04:58Z</time>
      </trkpt>
      <trkpt lat="48.5948" lon="1.71911">
        <ele>115</ele>
        <time>2010-05-15T09:04:59Z</time>
      </trkpt>
      <trkpt lat="48.5948" lon="1.71913">
        <ele>115</ele>
        <time>2010-05-15T09:05:00Z</time>
      </trkpt>
      <trkpt lat="48.5948" lon="1.71915">
        <ele>115</ele>
        <time>2010-05-15T09:05:01Z</time>
      </trkpt>
      <trkpt lat="48.5948" lon="1.71917">
        <ele>115</ele>
        <time>2010-05-15T09:05:02Z</time>
      </trkpt>
      <trkpt lat="48.59481" lon="1.7192">
        <ele>115</ele>
        <time>2010-05-15T09:05:03Z</time>
      </trkpt>
      <trkpt lat="48.59481" lon="1.71922">
        <ele>115</ele>
        <time>2010-05-15T09:05:04Z</time>
      </trkpt>
      <trkpt lat="48.59481" lon="1.71925">
        <ele>115</ele>
        <time>2010-05-15T09:05:05Z</time>
      </trkpt>
      <trkpt lat="48.59481" lon="1.71929">
        <ele>115</ele>
        <time>2010-05-15T09:05:06Z</time>
      </trkpt>
      <trkpt lat="48.59482" lon="1.71932">
        <ele>115</ele>
        <time>2010-05-15T09:05:07Z</time>
      </trkpt>
      <trkpt lat="48.59482" lon="1.71936">
        <ele>115</ele>
        <time>2010-05-15T09:05:08Z</time>
      </trkpt>
      <trkpt lat="48.59482" lon="1.7194">
        <ele>115</ele>
        <time>2010-05-15T09:05:09Z</time>
      </trkpt>
      <trkpt lat="48.59482" lon="1.71943">
        <ele>115</ele>
        <time>2010-05-15T09:05:10Z</time>
      </trkpt>
      <trkpt lat="48.59482" lon="1.71947">
        <ele>115</ele>
        <time>2010-05-15T09:05:11Z</time>
      </trkpt>
      <trkpt lat="48.59482" lon="1.71949">
        <ele>115</ele>
        <time>2010-05-15T09:05:12Z</time>
      </trkpt>
      <trkpt lat="48.59482" lon="1.71952">
        <ele>115</ele>
        <time>2010-05-15T09:05:13Z</time>
      </trkpt>
      <trkpt lat="48.59482" lon="1.71954">
        <ele>115</ele>
        <time>2010-05-15T09:05:14Z</time>
      </trkpt>
      <trkpt lat="48.59482" lon="1.71957">
        <ele>115</ele>
        <time>2010-05-15T09:05:15Z</time>
      </trkpt>
      <trkpt lat="48.59482" lon="1.7196">
        <ele>115</ele>
        <time>2010-05-15T09:05:16Z</time>
      </trkpt>
      <trkpt lat="48.59482" lon="1.71962">
        <ele>115</ele>
        <time>2010-05-15T09:05:17Z</time>
      </trkpt>
      <trkpt lat="48.59481" lon="1.71965">
        <ele>115</ele>
        <time>2010-05-15T09:05:18Z</time>
      </trkpt>
      <trkpt lat="48.5948" lon="1.71968">
        <ele>115</ele>
        <time>2010-05-15T09:05:19Z</time>
      </trkpt>
      <trkpt lat="48.5948" lon="1.71971">
        <ele>116</ele>
        <time>2010-05-15T09:05:20Z</time>
      </trkpt>
      <trkpt lat="48.59479" lon="1.71974">
        <ele>116</ele>
        <time>2010-05-15T09:05:21Z</time>
      </trkpt>
      <trkpt lat="48.59479" lon="1.71976">
        <ele>117</ele>
        <time>2010-05-15T09:05:22Z</time>
      </trkpt>
      <trkpt lat="48.59479" lon="1.71978">
        <ele>117</ele>
        <time>2010-05-15T09:05:23Z</time>
      </trkpt>
      <trkpt lat="48.59479" lon="1.7198">
        <ele>118</ele>
        <time>2010-05-15T09:05:24Z</time>
      </trkpt>
      <trkpt lat="48.59479" lon="1.71983">
        <ele>118</ele>
        <time>2010-05-15T09:05:25Z</time>
      </trkpt>
      <trkpt lat="48.59478" lon="1.71985">
        <ele>118</ele>
        <time>2010-05-15T09:05:26Z</time>
      </trkpt>
      <trkpt lat="48.59478" lon="1.71988">
        <ele>118</ele>
        <time>2010-05-15T09:05:27Z</time>
      </trkpt>
      <trkpt lat="48.59478" lon="1.71991">
        <ele>118</ele>
        <time>2010-05-15T09:05:28Z</time>
      </trkpt>
      <trkpt lat="48.59478" lon="1.71993">
        <ele>118</ele>
        <time>2010-05-15T09:05:29Z</time>
      </trkpt>
      <trkpt lat="48.59478" lon="1.71996">
        <ele>118</ele>
        <time>2010-05-15T09:05:30Z</time>
      </trkpt>
      <trkpt lat="48.59478" lon="1.71998">
        <ele>118</ele>
        <time>2010-05-15T09:05:31Z</time>
      </trkpt>
      <trkpt lat="48.59477" lon="1.72001">
        <ele>118</ele>
        <time>2010-05-15T09:05:32Z</time>
      </trkpt>
      <trkpt lat="48.59477" lon="1.72003">
        <ele>118</ele>
        <time>2010-05-15T09:05:33Z</time>
      </trkpt>
      <trkpt lat="48.59476" lon="1.72005">
        <ele>118</ele>
        <time>2010-05-15T09:05:34Z</time>
      </trkpt>
      <trkpt lat="48.59476" lon="1.72007">
        <ele>118</ele>
        <time>2010-05-15T09:05:35Z</time>
      </trkpt>
      <trkpt lat="48.59476" lon="1.7201">
        <ele>118</ele>
        <time>2010-05-15T09:05:36Z</time>
      </trkpt>
      <trkpt lat="48.59476" lon="1.72012">
        <ele>118</ele>
        <time>2010-05-15T09:05:37Z</time>
      </trkpt>
      <trkpt lat="48.59475" lon="1.72014">
        <ele>118</ele>
        <time>2010-05-15T09:05:38Z</time>
      </trkpt>
      <trkpt lat="48.59475" lon="1.72016">
        <ele>118</ele>
        <time>2010-05-15T09:05:39Z</time>
      </trkpt>
      <trkpt lat="48.59475" lon="1.72019">
        <ele>118</ele>
        <time>2010-05-15T09:05:40Z</time>
      </trkpt>
      <trkpt lat="48.59475" lon="1.72021">
        <ele>118</ele>
        <time>2010-05-15T09:05:41Z</time>
      </trkpt>
      <trkpt lat="48.59474" lon="1.72023">
        <ele>118</ele>
        <time>2010-05-15T09:05:42Z</time>
      </trkpt>
      <trkpt lat="48.59474" lon="1.72026">
        <ele>118</ele>
        <time>2010-05-15T09:05:43Z</time>
      </trkpt>
      <trkpt lat="48.59474" lon="1.72029">
        <ele>118</ele>
        <time>2010-05-15T09:05:44Z</time>
      </trkpt>
      <trkpt lat="48.59474" lon="1.72031">
        <ele>118</ele>
        <time>2010-05-15T09:05:45Z</time>
      </trkpt>
      <trkpt lat="48.59473" lon="1.72033">
        <ele>118</ele>
        <time>2010-05-15T09:05:46Z</time>
      </trkpt>
      <trkpt lat="48.59473" lon="1.72036">
        <ele>118</ele>
        <time>2010-05-15T09:05:47Z</time>
      </trkpt>
      <trkpt lat="48.59473" lon="1.72038">
        <ele>118</ele>
        <time>2010-05-15T09:05:48Z</time>
      </trkpt>
      <trkpt lat="48.59472" lon="1.72041">
        <ele>118</ele>
        <time>2010-05-15T09:05:49Z</time>
      </trkpt>
      <trkpt lat="48.59472" lon="1.72044">
        <ele>118</ele>
        <time>2010-05-15T09:05:50Z</time>
      </trkpt>
      <trkpt lat="48.59472" lon="1.72046">
        <ele>118</ele>
        <time>2010-05-15T09:05:51Z</time>
      </trkpt>
      <trkpt lat="48.59471" lon="1.72048">
        <ele>118</ele>
        <time>2010-05-15T09:05:52Z</time>
      </trkpt>
      <trkpt lat="48.59471" lon="1.72051">
        <ele>118</ele>
        <time>2010-05-15T09:05:53Z</time>
      </trkpt>
      <trkpt lat="48.59471" lon="1.72053">
        <ele>118</ele>
        <time>2010-05-15T09:05:54Z</time>
      </trkpt>
      <trkpt lat="48.5947" lon="1.72055">
        <ele>118</ele>
        <time>2010-05-15T09:05:55Z</time>
      </trkpt>
      <trkpt lat="48.5947" lon="1.72058">
        <ele>118</ele>
        <time>2010-05-15T09:05:56Z</time>
      </trkpt>
      <trkpt lat="48.5947" lon="1.7206">
        <ele>118</ele>
        <time>2010-05-15T09:05:57Z</time>
      </trkpt>
      <trkpt lat="48.5947" lon="1.72062">
        <ele>118</ele>
        <time>2010-05-15T09:05:58Z</time>
      </trkpt>
      <trkpt lat="48.59469" lon="1.72064">
        <ele>118</ele>
        <time>2010-05-15T09:05:59Z</time>
      </trkpt>
      <trkpt lat="48.59469" lon="1.72067">
        <ele>118</ele>
        <time>2010-05-15T09:06:00Z</time>
      </trkpt>
      <trkpt lat="48.59468" lon="1.72069">
        <ele>118</ele>
        <time>2010-05-15T09:06:01Z</time>
      </trkpt>
      <trkpt lat="48.59467" lon="1.72072">
        <ele>118</ele>
        <time>2010-05-15T09:06:02Z</time>
      </trkpt>
      <trkpt lat="48.59466" lon="1.72074">
        <ele>118</ele>
        <time>2010-05-15T09:06:03Z</time>
      </trkpt>
      <trkpt lat="48.59466" lon="1.72076">
        <ele>118</ele>
        <time>2010-05-15T09:06:04Z</time>
      </trkpt>
      <trkpt lat="48.59465" lon="1.72079">
        <ele>118</ele>
        <time>2010-05-15T09:06:05Z</time>
      </trkpt>
      <trkpt lat="48.59465" lon="1.72081">
        <ele>118</ele>
        <time>2010-05-15T09:06:06Z</time>
      </trkpt>
      <trkpt lat="48.59465" lon="1.72083">
        <ele>118</ele>
        <time>2010-05-15T09:06:07Z</time>
      </trkpt>
      <trkpt lat="48.59464" lon="1.72085">
        <ele>118</ele>
        <time>2010-05-15T09:06:08Z</time>
      </trkpt>
      <trkpt lat="48.59464" lon="1.72088">
        <ele>118</ele>
        <time>2010-05-15T09:06:09Z</time>
      </trkpt>
      <trkpt lat="48.59463" lon="1.7209">
        <ele>118</ele>
        <time>2010-05-15T09:06:10Z</time>
      </trkpt>
      <trkpt lat="48.59463" lon="1.72092">
        <ele>118</ele>
        <time>2010-05-15T09:06:11Z</time>
      </trkpt>
      <trkpt lat="48.59463" lon="1.72094">
        <ele>118</ele>
        <time>2010-05-15T09:06:12Z</time>
      </trkpt>
      <trkpt lat="48.59462" lon="1.72096">
        <ele>118</ele>
        <time>2010-05-15T09:06:13Z</time>
      </trkpt>
      <trkpt lat="48.59462" lon="1.72098">
        <ele>118</ele>
        <time>2010-05-15T09:06:14Z</time>
      </trkpt>
      <trkpt lat="48.59462" lon="1.721">
        <ele>118</ele>
        <time>2010-05-15T09:06:15Z</time>
      </trkpt>
      <trkpt lat="48.59461" lon="1.72102">
        <ele>118</ele>
        <time>2010-05-15T09:06:16Z</time>
      </trkpt>
      <trkpt lat="48.59461" lon="1.72104">
        <ele>118</ele>
        <time>2010-05-15T09:06:17Z</time>
      </trkpt>
      <trkpt lat="48.59461" lon="1.72106">
        <ele>118</ele>
        <time>2010-05-15T09:06:18Z</time>
      </trkpt>
      <trkpt lat="48.5946" lon="1.72108">
        <ele>118</ele>
        <time>2010-05-15T09:06:19Z</time>
      </trkpt>
      <trkpt lat="48.5946" lon="1.7211">
        <ele>118</ele>
        <time>2010-05-15T09:06:20Z</time>
      </trkpt>
      <trkpt lat="48.59459" lon="1.72112">
        <ele>118</ele>
        <time>2010-05-15T09:06:21Z</time>
      </trkpt>
      <trkpt lat="48.59458" lon="1.72114">
        <ele>118</ele>
        <time>2010-05-15T09:06:22Z</time>
      </trkpt>
      <trkpt lat="48.59458" lon="1.72116">
        <ele>118</ele>
        <time>2010-05-15T09:06:23Z</time>
      </trkpt>
      <trkpt lat="48.59457" lon="1.72118">
        <ele>118</ele>
        <time>2010-05-15T09:06:24Z</time>
      </trkpt>
      <trkpt lat="48.59457" lon="1.72121">
        <ele>118</ele>
        <time>2010-05-15T09:06:25Z</time>
      </trkpt>
      <trkpt lat="48.59456" lon="1.72123">
        <ele>118</ele>
        <time>2010-05-15T09:06:26Z</time>
      </trkpt>
      <trkpt lat="48.59456" lon="1.72125">
        <ele>118</ele>
        <time>2010-05-15T09:06:27Z</time>
      </trkpt>
      <trkpt lat="48.59455" lon="1.72128">
        <ele>118</ele>
        <time>2010-05-15T09:06:28Z</time>
      </trkpt>
      <trkpt lat="48.59454" lon="1.72132">
        <ele>118</ele>
        <time>2010-05-15T09:06:29Z</time>
      </trkpt>
      <trkpt lat="48.59454" lon="1.72135">
        <ele>118</ele>
        <time>2010-05-15T09:06:30Z</time>
      </trkpt>
      <trkpt lat="48.59453" lon="1.72138">
        <ele>118</ele>
        <time>2010-05-15T09:06:31Z</time>
      </trkpt>
      <trkpt lat="48.59453" lon="1.72141">
        <ele>118</ele>
        <time>2010-05-15T09:06:32Z</time>
      </trkpt>
      <trkpt lat="48.59452" lon="1.72144">
        <ele>118</ele>
        <time>2010-05-15T09:06:33Z</time>
      </trkpt>
      <trkpt lat="48.59452" lon="1.72146">
        <ele>118</ele>
        <time>2010-05-15T09:06:34Z</time>
      </trkpt>
      <trkpt lat="48.59452" lon="1.72149">
        <ele>118</ele>
        <time>2010-05-15T09:06:35Z</time>
      </trkpt>
      <trkpt lat="48.59451" lon="1.72151">
        <ele>118</ele>
        <time>2010-05-15T09:06:36Z</time>
      </trkpt>
      <trkpt lat="48.5945" lon="1.72153">
        <ele>118</ele>
        <time>2010-05-15T09:06:37Z</time>
      </trkpt>
      <trkpt lat="48.59449" lon="1.72156">
        <ele>118</ele>
        <time>2010-05-15T09:06:38Z</time>
      </trkpt>
      <trkpt lat="48.59448" lon="1.72158">
        <ele>118</ele>
        <time>2010-05-15T09:06:39Z</time>
      </trkpt>
      <trkpt lat="48.59447" lon="1.7216">
        <ele>118</ele>
        <time>2010-05-15T09:06:40Z</time>
      </trkpt>
      <trkpt lat="48.59446" lon="1.72162">
        <ele>118</ele>
        <time>2010-05-15T09:06:41Z</time>
      </trkpt>
      <trkpt lat="48.59445" lon="1.72165">
        <ele>118</ele>
        <time>2010-05-15T09:06:42Z</time>
      </trkpt>
      <trkpt lat="48.59445" lon="1.72167">
        <ele>118</ele>
        <time>2010-05-15T09:06:43Z</time>
      </trkpt>
      <trkpt lat="48.59444" lon="1.72169">
        <ele>118</ele>
        <time>2010-05-15T09:06:44Z</time>
      </trkpt>
      <trkpt lat="48.59443" lon="1.72171">
        <ele>118</ele>
        <time>2010-05-15T09:06:45Z</time>
      </trkpt>
      <trkpt lat="48.59443" lon="1.72173">
        <ele>118</ele>
        <time>2010-05-15T09:06:46Z</time>
      </trkpt>
      <trkpt lat="48.59442" lon="1.72175">
        <ele>118</ele>
        <time>2010-05-15T09:06:47Z</time>
      </trkpt>
      <trkpt lat="48.59441" lon="1.72178">
        <ele>118</ele>
        <time>2010-05-15T09:06:49Z</time>
      </trkpt>
      <trkpt lat="48.5944" lon="1.72181">
        <ele>118</ele>
        <time>2010-05-15T09:06:50Z</time>
      </trkpt>
      <trkpt lat="48.59439" lon="1.72183">
        <ele>118</ele>
        <time>2010-05-15T09:06:51Z</time>
      </trkpt>
      <trkpt lat="48.59438" lon="1.72185">
        <ele>118</ele>
        <time>2010-05-15T09:06:52Z</time>
      </trkpt>
      <trkpt lat="48.59438" lon="1.72187">
        <ele>118</ele>
        <time>2010-05-15T09:06:53Z</time>
      </trkpt>
      <trkpt lat="48.59437" lon="1.72189">
        <ele>118</ele>
        <time>2010-05-15T09:06:54Z</time>
      </trkpt>
      <trkpt lat="48.59436" lon="1.72191">
        <ele>118</ele>
        <time>2010-05-15T09:06:55Z</time>
      </trkpt>
      <trkpt lat="48.59435" lon="1.72194">
        <ele>118</ele>
        <time>2010-05-15T09:06:56Z</time>
      </trkpt>
      <trkpt lat="48.59434" lon="1.72196">
        <ele>118</ele>
        <time>2010-05-15T09:06:57Z</time>
      </trkpt>
      <trkpt lat="48.59432" lon="1.72198">
        <ele>118</ele>
        <time>2010-05-15T09:06:58Z</time>
      </trkpt>
      <trkpt lat="48.59431" lon="1.722">
        <ele>118</ele>
        <time>2010-05-15T09:06:59Z</time>
      </trkpt>
      <trkpt lat="48.5943" lon="1.72203">
        <ele>118</ele>
        <time>2010-05-15T09:07:00Z</time>
      </trkpt>
      <trkpt lat="48.59429" lon="1.72205">
        <ele>118</ele>
        <time>2010-05-15T09:07:01Z</time>
      </trkpt>
      <trkpt lat="48.59428" lon="1.72207">
        <ele>118</ele>
        <time>2010-05-15T09:07:02Z</time>
      </trkpt>
      <trkpt lat="48.59425" lon="1.72209">
        <ele>118</ele>
        <time>2010-05-15T09:07:04Z</time>
      </trkpt>
      <trkpt lat="48.59424" lon="1.72211">
        <ele>118</ele>
        <time>2010-05-15T09:07:05Z</time>
      </trkpt>
      <trkpt lat="48.59423" lon="1.72212">
        <ele>118</ele>
        <time>2010-05-15T09:07:06Z</time>
      </trkpt>
      <trkpt lat="48.59422" lon="1.72214">
        <ele>119</ele>
        <time>2010-05-15T09:07:07Z</time>
      </trkpt>
      <trkpt lat="48.59422" lon="1.72216">
        <ele>119</ele>
        <time>2010-05-15T09:07:08Z</time>
      </trkpt>
      <trkpt lat="48.5942" lon="1.72218">
        <ele>120</ele>
        <time>2010-05-15T09:07:09Z</time>
      </trkpt>
      <trkpt lat="48.59418" lon="1.72221">
        <ele>120</ele>
        <time>2010-05-15T09:07:10Z</time>
      </trkpt>
      <trkpt lat="48.59417" lon="1.72222">
        <ele>121</ele>
        <time>2010-05-15T09:07:11Z</time>
      </trkpt>
      <trkpt lat="48.59416" lon="1.72224">
        <ele>121</ele>
        <time>2010-05-15T09:07:12Z</time>
      </trkpt>
      <trkpt lat="48.59415" lon="1.72227">
        <ele>122</ele>
        <time>2010-05-15T09:07:13Z</time>
      </trkpt>
      <trkpt lat="48.59414" lon="1.72229">
        <ele>122</ele>
        <time>2010-05-15T09:07:14Z</time>
      </trkpt>
      <trkpt lat="48.59413" lon="1.72231">
        <ele>122</ele>
        <time>2010-05-15T09:07:15Z</time>
      </trkpt>
      <trkpt lat="48.59411" lon="1.72233">
        <ele>123</ele>
        <time>2010-05-15T09:07:16Z</time>
      </trkpt>
      <trkpt lat="48.5941" lon="1.72236">
        <ele>123</ele>
        <time>2010-05-15T09:07:17Z</time>
      </trkpt>
      <trkpt lat="48.59409" lon="1.72238">
        <ele>124</ele>
        <time>2010-05-15T09:07:18Z</time>
      </trkpt>
      <trkpt lat="48.59408" lon="1.7224">
        <ele>124</ele>
        <time>2010-05-15T09:07:19Z</time>
      </trkpt>
      <trkpt lat="48.59407" lon="1.72242">
        <ele>124</ele>
        <time>2010-05-15T09:07:20Z</time>
      </trkpt>
      <trkpt lat="48.59406" lon="1.72244">
        <ele>125</ele>
        <time>2010-05-15T09:07:21Z</time>
      </trkpt>
      <trkpt lat="48.59406" lon="1.72246">
        <ele>125</ele>
        <time>2010-05-15T09:07:22Z</time>
      </trkpt>
      <trkpt lat="48.59405" lon="1.72248">
        <ele>125</ele>
        <time>2010-05-15T09:07:23Z</time>
      </trkpt>
      <trkpt lat="48.59404" lon="1.7225">
        <ele>125</ele>
        <time>2010-05-15T09:07:24Z</time>
      </trkpt>
      <trkpt lat="48.59402" lon="1.72252">
        <ele>126</ele>
        <time>2010-05-15T09:07:25Z</time>
      </trkpt>
      <trkpt lat="48.59401" lon="1.72255">
        <ele>126</ele>
        <time>2010-05-15T09:07:26Z</time>
      </trkpt>
      <trkpt lat="48.594" lon="1.72257">
        <ele>127</ele>
        <time>2010-05-15T09:07:27Z</time>
      </trkpt>
      <trkpt lat="48.59399" lon="1.7226">
        <ele>128</ele>
        <time>2010-05-15T09:07:28Z</time>
      </trkpt>
      <trkpt lat="48.59397" lon="1.72262">
        <ele>129</ele>
        <time>2010-05-15T09:07:29Z</time>
      </trkpt>
      <trkpt lat="48.59396" lon="1.72264">
        <ele>129</ele>
        <time>2010-05-15T09:07:30Z</time>
      </trkpt>
      <trkpt lat="48.59395" lon="1.72267">
        <ele>130</ele>
        <time>2010-05-15T09:07:32Z</time>
      </trkpt>
      <trkpt lat="48.59392" lon="1.7227">
        <ele>131</ele>
        <time>2010-05-15T09:07:34Z</time>
      </trkpt>
      <trkpt lat="48.59391" lon="1.72273">
        <ele>131</ele>
        <time>2010-05-15T09:07:35Z</time>
      </trkpt>
      <trkpt lat="48.5939" lon="1.72275">
        <ele>132</ele>
        <time>2010-05-15T09:07:36Z</time>
      </trkpt>
      <trkpt lat="48.59388" lon="1.72277">
        <ele>133</ele>
        <time>2010-05-15T09:07:37Z</time>
      </trkpt>
      <trkpt lat="48.59387" lon="1.7228">
        <ele>134</ele>
        <time>2010-05-15T09:07:38Z</time>
      </trkpt>
      <trkpt lat="48.59385" lon="1.72283">
        <ele>135</ele>
        <time>2010-05-15T09:07:39Z</time>
      </trkpt>
      <trkpt lat="48.59384" lon="1.72287">
        <ele>136</ele>
        <time>2010-05-15T09:07:40Z</time>
      </trkpt>
      <trkpt lat="48.59383" lon="1.72289">
        <ele>137</ele>
        <time>2010-05-15T09:07:41Z</time>
      </trkpt>
      <trkpt lat="48.59382" lon="1.72292">
        <ele>137</ele>
        <time>2010-05-15T09:07:42Z</time>
      </trkpt>
      <trkpt lat="48.59381" lon="1.72294">
        <ele>137</ele>
        <time>2010-05-15T09:07:43Z</time>
      </trkpt>
      <trkpt lat="48.59381" lon="1.72297">
        <ele>137</ele>
        <time>2010-05-15T09:07:45Z</time>
      </trkpt>
      <trkpt lat="48.5938" lon="1.72299">
        <ele>137</ele>
        <time>2010-05-15T09:07:47Z</time>
      </trkpt>
      <trkpt lat="48.5938" lon="1.72301">
        <ele>137</ele>
        <time>2010-05-15T09:07:48Z</time>
      </trkpt>
      <trkpt lat="48.5938" lon="1.72302">
        <ele>137</ele>
        <time>2010-05-15T09:07:49Z</time>
      </trkpt>
      <trkpt lat="48.59379" lon="1.72304">
        <ele>136</ele>
        <time>2010-05-15T09:07:50Z</time>
      </trkpt>
      <trkpt lat="48.59378" lon="1.72307">
        <ele>135</ele>
        <time>2010-05-15T09:07:52Z</time>
      </trkpt>
      <trkpt lat="48.59375" lon="1.7231">
        <ele>133</ele>
        <time>2010-05-15T09:07:54Z</time>
      </trkpt>
      <trkpt lat="48.59374" lon="1.72312">
        <ele>132</ele>
        <time>2010-05-15T09:07:55Z</time>
      </trkpt>
      <trkpt lat="48.59373" lon="1.72315">
        <ele>132</ele>
        <time>2010-05-15T09:07:56Z</time>
      </trkpt>
      <trkpt lat="48.59373" lon="1.72317">
        <ele>132</ele>
        <time>2010-05-15T09:07:57Z</time>
      </trkpt>
      <trkpt lat="48.59372" lon="1.7232">
        <ele>132</ele>
        <time>2010-05-15T09:07:58Z</time>
      </trkpt>
      <trkpt lat="48.59373" lon="1.72322">
        <ele>131</ele>
        <time>2010-05-15T09:07:59Z</time>
      </trkpt>
      <trkpt lat="48.59373" lon="1.72324">
        <ele>131</ele>
        <time>2010-05-15T09:08:00Z</time>
      </trkpt>
      <trkpt lat="48.59374" lon="1.72326">
        <ele>131</ele>
        <time>2010-05-15T09:08:01Z</time>
      </trkpt>
      <trkpt lat="48.59374" lon="1.7233">
        <ele>130</ele>
        <time>2010-05-15T09:08:03Z</time>
      </trkpt>
      <trkpt lat="48.59375" lon="1.72331">
        <ele>130</ele>
        <time>2010-05-15T09:08:04Z</time>
      </trkpt>
      <trkpt lat="48.59376" lon="1.72334">
        <ele>129</ele>
        <time>2010-05-15T09:08:05Z</time>
      </trkpt>
      <trkpt lat="48.59376" lon="1.72336">
        <ele>129</ele>
        <time>2010-05-15T09:08:06Z</time>
      </trkpt>
      <trkpt lat="48.59376" lon="1.72338">
        <ele>129</ele>
        <time>2010-05-15T09:08:07Z</time>
      </trkpt>
      <trkpt lat="48.59376" lon="1.7234">
        <ele>129</ele>
        <time>2010-05-15T09:08:08Z</time>
      </trkpt>
      <trkpt lat="48.59376" lon="1.72342">
        <ele>129</ele>
        <time>2010-05-15T09:08:09Z</time>
      </trkpt>
      <trkpt lat="48.59375" lon="1.72344">
        <ele>129</ele>
        <time>2010-05-15T09:08:10Z</time>
      </trkpt>
      <trkpt lat="48.59375" lon="1.72346">
        <ele>129</ele>
        <time>2010-05-15T09:08:11Z</time>
      </trkpt>
      <trkpt lat="48.59376" lon="1.72349">
        <ele>129</ele>
        <time>2010-05-15T09:08:12Z</time>
      </trkpt>
      <trkpt lat="48.59376" lon="1.72352">
        <ele>129</ele>
        <time>2010-05-15T09:08:13Z</time>
      </trkpt>
      <trkpt lat="48.59376" lon="1.72354">
        <ele>128</ele>
        <time>2010-05-15T09:08:14Z</time>
      </trkpt>
      <trkpt lat="48.59376" lon="1.72357">
        <ele>128</ele>
        <time>2010-05-15T09:08:15Z</time>
      </trkpt>
      <trkpt lat="48.59376" lon="1.7236">
        <ele>128</ele>
        <time>2010-05-15T09:08:16Z</time>
      </trkpt>
      <trkpt lat="48.59376" lon="1.72363">
        <ele>128</ele>
        <time>2010-05-15T09:08:17Z</time>
      </trkpt>
      <trkpt lat="48.59376" lon="1.72365">
        <ele>128</ele>
        <time>2010-05-15T09:08:18Z</time>
      </trkpt>
      <trkpt lat="48.59376" lon="1.72367">
        <ele>128</ele>
        <time>2010-05-15T09:08:19Z</time>
      </trkpt>
      <trkpt lat="48.59376" lon="1.7237">
        <ele>128</ele>
        <time>2010-05-15T09:08:20Z</time>
      </trkpt>
      <trkpt lat="48.59375" lon="1.72373">
        <ele>127</ele>
        <time>2010-05-15T09:08:21Z</time>
      </trkpt>
      <trkpt lat="48.59375" lon="1.72375">
        <ele>127</ele>
        <time>2010-05-15T09:08:22Z</time>
      </trkpt>
      <trkpt lat="48.59376" lon="1.72378">
        <ele>127</ele>
        <time>2010-05-15T09:08:23Z</time>
      </trkpt>
      <trkpt lat="48.59375" lon="1.7238">
        <ele>126</ele>
        <time>2010-05-15T09:08:24Z</time>
      </trkpt>
      <trkpt lat="48.59375" lon="1.72383">
        <ele>126</ele>
        <time>2010-05-15T09:08:25Z</time>
      </trkpt>
      <trkpt lat="48.59375" lon="1.72385">
        <ele>126</ele>
        <time>2010-05-15T09:08:26Z</time>
      </trkpt>
      <trkpt lat="48.59375" lon="1.72388">
        <ele>126</ele>
        <time>2010-05-15T09:08:27Z</time>
      </trkpt>
      <trkpt lat="48.59375" lon="1.7239">
        <ele>126</ele>
        <time>2010-05-15T09:08:28Z</time>
      </trkpt>
      <trkpt lat="48.59375" lon="1.72392">
        <ele>126</ele>
        <time>2010-05-15T09:08:29Z</time>
      </trkpt>
      <trkpt lat="48.59375" lon="1.72395">
        <ele>126</ele>
        <time>2010-05-15T09:08:30Z</time>
      </trkpt>
      <trkpt lat="48.59375" lon="1.72398">
        <ele>126</ele>
        <time>2010-05-15T09:08:31Z</time>
      </trkpt>
      <trkpt lat="48.59375" lon="1.724">
        <ele>126</ele>
        <time>2010-05-15T09:08:32Z</time>
      </trkpt>
      <trkpt lat="48.59375" lon="1.72402">
        <ele>126</ele>
        <time>2010-05-15T09:08:33Z</time>
      </trkpt>
      <trkpt lat="48.59375" lon="1.72405">
        <ele>126</ele>
        <time>2010-05-15T09:08:34Z</time>
      </trkpt>
      <trkpt lat="48.59375" lon="1.72408">
        <ele>126</ele>
        <time>2010-05-15T09:08:35Z</time>
      </trkpt>
      <trkpt lat="48.59376" lon="1.7241">
        <ele>125</ele>
        <time>2010-05-15T09:08:36Z</time>
      </trkpt>
      <trkpt lat="48.59376" lon="1.72414">
        <ele>125</ele>
        <time>2010-05-15T09:08:37Z</time>
      </trkpt>
      <trkpt lat="48.59376" lon="1.72417">
        <ele>125</ele>
        <time>2010-05-15T09:08:38Z</time>
      </trkpt>
      <trkpt lat="48.59376" lon="1.72421">
        <ele>125</ele>
        <time>2010-05-15T09:08:39Z</time>
      </trkpt>
      <trkpt lat="48.59375" lon="1.72425">
        <ele>125</ele>
        <time>2010-05-15T09:08:40Z</time>
      </trkpt>
      <trkpt lat="48.59375" lon="1.72428">
        <ele>125</ele>
        <time>2010-05-15T09:08:41Z</time>
      </trkpt>
      <trkpt lat="48.59375" lon="1.72431">
        <ele>125</ele>
        <time>2010-05-15T09:08:42Z</time>
      </trkpt>
      <trkpt lat="48.59375" lon="1.72434">
        <ele>125</ele>
        <time>2010-05-15T09:08:43Z</time>
      </trkpt>
      <trkpt lat="48.59374" lon="1.72438">
        <ele>125</ele>
        <time>2010-05-15T09:08:44Z</time>
      </trkpt>
      <trkpt lat="48.59373" lon="1.72441">
        <ele>125</ele>
        <time>2010-05-15T09:08:45Z</time>
      </trkpt>
      <trkpt lat="48.59372" lon="1.72444">
        <ele>125</ele>
        <time>2010-05-15T09:08:46Z</time>
      </trkpt>
      <trkpt lat="48.59372" lon="1.72447">
        <ele>125</ele>
        <time>2010-05-15T09:08:47Z</time>
      </trkpt>
      <trkpt lat="48.59371" lon="1.72449">
        <ele>125</ele>
        <time>2010-05-15T09:08:48Z</time>
      </trkpt>
      <trkpt lat="48.59371" lon="1.72452">
        <ele>125</ele>
        <time>2010-05-15T09:08:49Z</time>
      </trkpt>
      <trkpt lat="48.59371" lon="1.72455">
        <ele>125</ele>
        <time>2010-05-15T09:08:50Z</time>
      </trkpt>
      <trkpt lat="48.59371" lon="1.72457">
        <ele>125</ele>
        <time>2010-05-15T09:08:51Z</time>
      </trkpt>
      <trkpt lat="48.59371" lon="1.7246">
        <ele>125</ele>
        <time>2010-05-15T09:08:52Z</time>
      </trkpt>
      <trkpt lat="48.5937" lon="1.72462">
        <ele>125</ele>
        <time>2010-05-15T09:08:53Z</time>
      </trkpt>
      <trkpt lat="48.5937" lon="1.72465">
        <ele>125</ele>
        <time>2010-05-15T09:08:54Z</time>
      </trkpt>
      <trkpt lat="48.5937" lon="1.72467">
        <ele>125</ele>
        <time>2010-05-15T09:08:55Z</time>
      </trkpt>
      <trkpt lat="48.5937" lon="1.7247">
        <ele>126</ele>
        <time>2010-05-15T09:08:56Z</time>
      </trkpt>
      <trkpt lat="48.5937" lon="1.72472">
        <ele>126</ele>
        <time>2010-05-15T09:08:57Z</time>
      </trkpt>
      <trkpt lat="48.5937" lon="1.72474">
        <ele>126</ele>
        <time>2010-05-15T09:08:58Z</time>
      </trkpt>
      <trkpt lat="48.5937" lon="1.72476">
        <ele>126</ele>
        <time>2010-05-15T09:08:59Z</time>
      </trkpt>
      <trkpt lat="48.59369" lon="1.72479">
        <ele>127</ele>
        <time>2010-05-15T09:09:00Z</time>
      </trkpt>
      <trkpt lat="48.59369" lon="1.72481">
        <ele>127</ele>
        <time>2010-05-15T09:09:01Z</time>
      </trkpt>
      <trkpt lat="48.59369" lon="1.72484">
        <ele>127</ele>
        <time>2010-05-15T09:09:02Z</time>
      </trkpt>
      <trkpt lat="48.59368" lon="1.72486">
        <ele>127</ele>
        <time>2010-05-15T09:09:03Z</time>
      </trkpt>
      <trkpt lat="48.59368" lon="1.72489">
        <ele>128</ele>
        <time>2010-05-15T09:09:04Z</time>
      </trkpt>
      <trkpt lat="48.59368" lon="1.72491">
        <ele>128</ele>
        <time>2010-05-15T09:09:05Z</time>
      </trkpt>
      <trkpt lat="48.59367" lon="1.72495">
        <ele>128</ele>
        <time>2010-05-15T09:09:06Z</time>
      </trkpt>
      <trkpt lat="48.59367" lon="1.72497">
        <ele>128</ele>
        <time>2010-05-15T09:09:07Z</time>
      </trkpt>
      <trkpt lat="48.59367" lon="1.72499">
        <ele>128</ele>
        <time>2010-05-15T09:09:08Z</time>
      </trkpt>
      <trkpt lat="48.59367" lon="1.72501">
        <ele>128</ele>
        <time>2010-05-15T09:09:09Z</time>
      </trkpt>
      <trkpt lat="48.59367" lon="1.72503">
        <ele>128</ele>
        <time>2010-05-15T09:09:10Z</time>
      </trkpt>
      <trkpt lat="48.59366" lon="1.72506">
        <ele>128</ele>
        <time>2010-05-15T09:09:12Z</time>
      </trkpt>
      <trkpt lat="48.59366" lon="1.72508">
        <ele>128</ele>
        <time>2010-05-15T09:09:13Z</time>
      </trkpt>
      <trkpt lat="48.59366" lon="1.7251">
        <ele>128</ele>
        <time>2010-05-15T09:09:14Z</time>
      </trkpt>
      <trkpt lat="48.59366" lon="1.72513">
        <ele>128</ele>
        <time>2010-05-15T09:09:15Z</time>
      </trkpt>
      <trkpt lat="48.59366" lon="1.72516">
        <ele>128</ele>
        <time>2010-05-15T09:09:16Z</time>
      </trkpt>
      <trkpt lat="48.59366" lon="1.72519">
        <ele>128</ele>
        <time>2010-05-15T09:09:17Z</time>
      </trkpt>
      <trkpt lat="48.59366" lon="1.72522">
        <ele>127</ele>
        <time>2010-05-15T09:09:18Z</time>
      </trkpt>
      <trkpt lat="48.59366" lon="1.72525">
        <ele>127</ele>
        <time>2010-05-15T09:09:19Z</time>
      </trkpt>
      <trkpt lat="48.59366" lon="1.72527">
        <ele>126</ele>
        <time>2010-05-15T09:09:20Z</time>
      </trkpt>
      <trkpt lat="48.59366" lon="1.72529">
        <ele>126</ele>
        <time>2010-05-15T09:09:21Z</time>
      </trkpt>
      <trkpt lat="48.59365" lon="1.72531">
        <ele>125</ele>
        <time>2010-05-15T09:09:22Z</time>
      </trkpt>
      <trkpt lat="48.59365" lon="1.72533">
        <ele>125</ele>
        <time>2010-05-15T09:09:23Z</time>
      </trkpt>
      <trkpt lat="48.59365" lon="1.72535">
        <ele>124</ele>
        <time>2010-05-15T09:09:24Z</time>
      </trkpt>
      <trkpt lat="48.59364" lon="1.72538">
        <ele>124</ele>
        <time>2010-05-15T09:09:25Z</time>
      </trkpt>
      <trkpt lat="48.59364" lon="1.72541">
        <ele>124</ele>
        <time>2010-05-15T09:09:26Z</time>
      </trkpt>
      <trkpt lat="48.59363" lon="1.72544">
        <ele>124</ele>
        <time>2010-05-15T09:09:27Z</time>
      </trkpt>
      <trkpt lat="48.59363" lon="1.72546">
        <ele>124</ele>
        <time>2010-05-15T09:09:28Z</time>
      </trkpt>
      <trkpt lat="48.59362" lon="1.72549">
        <ele>124</ele>
        <time>2010-05-15T09:09:29Z</time>
      </trkpt>
      <trkpt lat="48.59362" lon="1.72551">
        <ele>124</ele>
        <time>2010-05-15T09:09:30Z</time>
      </trkpt>
      <trkpt lat="48.59361" lon="1.72553">
        <ele>124</ele>
        <time>2010-05-15T09:09:31Z</time>
      </trkpt>
      <trkpt lat="48.59361" lon="1.72555">
        <ele>124</ele>
        <time>2010-05-15T09:09:32Z</time>
      </trkpt>
      <trkpt lat="48.59361" lon="1.72557">
        <ele>124</ele>
        <time>2010-05-15T09:09:33Z</time>
      </trkpt>
      <trkpt lat="48.5936" lon="1.72559">
        <ele>124</ele>
        <time>2010-05-15T09:09:34Z</time>
      </trkpt>
      <trkpt lat="48.5936" lon="1.72561">
        <ele>124</ele>
        <time>2010-05-15T09:09:35Z</time>
      </trkpt>
      <trkpt lat="48.59359" lon="1.72564">
        <ele>124</ele>
        <time>2010-05-15T09:09:37Z</time>
      </trkpt>
      <trkpt lat="48.59359" lon="1.72567">
        <ele>124</ele>
        <time>2010-05-15T09:09:39Z</time>
      </trkpt>
      <trkpt lat="48.59359" lon="1.72571">
        <ele>124</ele>
        <time>2010-05-15T09:09:41Z</time>
      </trkpt>
      <trkpt lat="48.59359" lon="1.72573">
        <ele>124</ele>
        <time>2010-05-15T09:09:42Z</time>
      </trkpt>
      <trkpt lat="48.59359" lon="1.72575">
        <ele>123</ele>
        <time>2010-05-15T09:09:43Z</time>
      </trkpt>
      <trkpt lat="48.59359" lon="1.72578">
        <ele>122</ele>
        <time>2010-05-15T09:09:44Z</time>
      </trkpt>
      <trkpt lat="48.59358" lon="1.7258">
        <ele>121</ele>
        <time>2010-05-15T09:09:45Z</time>
      </trkpt>
      <trkpt lat="48.59358" lon="1.72583">
        <ele>121</ele>
        <time>2010-05-15T09:09:46Z</time>
      </trkpt>
      <trkpt lat="48.59357" lon="1.72586">
        <ele>121</ele>
        <time>2010-05-15T09:09:47Z</time>
      </trkpt>
      <trkpt lat="48.59357" lon="1.72589">
        <ele>121</ele>
        <time>2010-05-15T09:09:48Z</time>
      </trkpt>
      <trkpt lat="48.59356" lon="1.72591">
        <ele>121</ele>
        <time>2010-05-15T09:09:49Z</time>
      </trkpt>
      <trkpt lat="48.59356" lon="1.72594">
        <ele>121</ele>
        <time>2010-05-15T09:09:50Z</time>
      </trkpt>
      <trkpt lat="48.59357" lon="1.72596">
        <ele>121</ele>
        <time>2010-05-15T09:09:51Z</time>
      </trkpt>
      <trkpt lat="48.59357" lon="1.72598">
        <ele>121</ele>
        <time>2010-05-15T09:09:52Z</time>
      </trkpt>
      <trkpt lat="48.59356" lon="1.72601">
        <ele>121</ele>
        <time>2010-05-15T09:09:53Z</time>
      </trkpt>
      <trkpt lat="48.59356" lon="1.72603">
        <ele>121</ele>
        <time>2010-05-15T09:09:54Z</time>
      </trkpt>
      <trkpt lat="48.59356" lon="1.72605">
        <ele>121</ele>
        <time>2010-05-15T09:09:55Z</time>
      </trkpt>
      <trkpt lat="48.59355" lon="1.72606">
        <ele>120</ele>
        <time>2010-05-15T09:09:56Z</time>
      </trkpt>
      <trkpt lat="48.59354" lon="1.72609">
        <ele>120</ele>
        <time>2010-05-15T09:09:57Z</time>
      </trkpt>
      <trkpt lat="48.59353" lon="1.72611">
        <ele>120</ele>
        <time>2010-05-15T09:09:58Z</time>
      </trkpt>
      <trkpt lat="48.59353" lon="1.72613">
        <ele>120</ele>
        <time>2010-05-15T09:09:59Z</time>
      </trkpt>
      <trkpt lat="48.59352" lon="1.72615">
        <ele>120</ele>
        <time>2010-05-15T09:10:00Z</time>
      </trkpt>
      <trkpt lat="48.59351" lon="1.72617">
        <ele>120</ele>
        <time>2010-05-15T09:10:01Z</time>
      </trkpt>
      <trkpt lat="48.5935" lon="1.72619">
        <ele>120</ele>
        <time>2010-05-15T09:10:02Z</time>
      </trkpt>
      <trkpt lat="48.59349" lon="1.72621">
        <ele>120</ele>
        <time>2010-05-15T09:10:03Z</time>
      </trkpt>
      <trkpt lat="48.59347" lon="1.72624">
        <ele>120</ele>
        <time>2010-05-15T09:10:04Z</time>
      </trkpt>
      <trkpt lat="48.59345" lon="1.72627">
        <ele>120</ele>
        <time>2010-05-15T09:10:05Z</time>
      </trkpt>
      <trkpt lat="48.59344" lon="1.72629">
        <ele>120</ele>
        <time>2010-05-15T09:10:06Z</time>
      </trkpt>
      <trkpt lat="48.59342" lon="1.72632">
        <ele>120</ele>
        <time>2010-05-15T09:10:08Z</time>
      </trkpt>
      <trkpt lat="48.5934" lon="1.72635">
        <ele>121</ele>
        <time>2010-05-15T09:10:10Z</time>
      </trkpt>
      <trkpt lat="48.59339" lon="1.72636">
        <ele>122</ele>
        <time>2010-05-15T09:10:11Z</time>
      </trkpt>
      <trkpt lat="48.59337" lon="1.72639">
        <ele>122</ele>
        <time>2010-05-15T09:10:12Z</time>
      </trkpt>
      <trkpt lat="48.59336" lon="1.72641">
        <ele>122</ele>
        <time>2010-05-15T09:10:13Z</time>
      </trkpt>
      <trkpt lat="48.59334" lon="1.72643">
        <ele>122</ele>
        <time>2010-05-15T09:10:14Z</time>
      </trkpt>
      <trkpt lat="48.59333" lon="1.72645">
        <ele>122</ele>
        <time>2010-05-15T09:10:15Z</time>
      </trkpt>
      <trkpt lat="48.59332" lon="1.72647">
        <ele>122</ele>
        <time>2010-05-15T09:10:16Z</time>
      </trkpt>
      <trkpt lat="48.59331" lon="1.72649">
        <ele>123</ele>
        <time>2010-05-15T09:10:17Z</time>
      </trkpt>
      <trkpt lat="48.5933" lon="1.72651">
        <ele>123</ele>
        <time>2010-05-15T09:10:18Z</time>
      </trkpt>
      <trkpt lat="48.59328" lon="1.72654">
        <ele>123</ele>
        <time>2010-05-15T09:10:20Z</time>
      </trkpt>
      <trkpt lat="48.59327" lon="1.72656">
        <ele>123</ele>
        <time>2010-05-15T09:10:21Z</time>
      </trkpt>
      <trkpt lat="48.59326" lon="1.72658">
        <ele>123</ele>
        <time>2010-05-15T09:10:22Z</time>
      </trkpt>
      <trkpt lat="48.59325" lon="1.7266">
        <ele>123</ele>
        <time>2010-05-15T09:10:23Z</time>
      </trkpt>
      <trkpt lat="48.59323" lon="1.72663">
        <ele>123</ele>
        <time>2010-05-15T09:10:25Z</time>
      </trkpt>
      <trkpt lat="48.59322" lon="1.72664">
        <ele>123</ele>
        <time>2010-05-15T09:10:26Z</time>
      </trkpt>
      <trkpt lat="48.59321" lon="1.72665">
        <ele>123</ele>
        <time>2010-05-15T09:10:27Z</time>
      </trkpt>
      <trkpt lat="48.5932" lon="1.72667">
        <ele>123</ele>
        <time>2010-05-15T09:10:28Z</time>
      </trkpt>
      <trkpt lat="48.59319" lon="1.7267">
        <ele>123</ele>
        <time>2010-05-15T09:10:30Z</time>
      </trkpt>
      <trkpt lat="48.59317" lon="1.72672">
        <ele>123</ele>
        <time>2010-05-15T09:10:31Z</time>
      </trkpt>
      <trkpt lat="48.59316" lon="1.72674">
        <ele>123</ele>
        <time>2010-05-15T09:10:32Z</time>
      </trkpt>
      <trkpt lat="48.59315" lon="1.72676">
        <ele>123</ele>
        <time>2010-05-15T09:10:33Z</time>
      </trkpt>
      <trkpt lat="48.59313" lon="1.72678">
        <ele>123</ele>
        <time>2010-05-15T09:10:34Z</time>
      </trkpt>
      <trkpt lat="48.59311" lon="1.7268">
        <ele>124</ele>
        <time>2010-05-15T09:10:35Z</time>
      </trkpt>
      <trkpt lat="48.5931" lon="1.72682">
        <ele>125</ele>
        <time>2010-05-15T09:10:36Z</time>
      </trkpt>
      <trkpt lat="48.59308" lon="1.72684">
        <ele>125</ele>
        <time>2010-05-15T09:10:37Z</time>
      </trkpt>
      <trkpt lat="48.59307" lon="1.72686">
        <ele>126</ele>
        <time>2010-05-15T09:10:38Z</time>
      </trkpt>
      <trkpt lat="48.59306" lon="1.72687">
        <ele>127</ele>
        <time>2010-05-15T09:10:39Z</time>
      </trkpt>
      <trkpt lat="48.59304" lon="1.7269">
        <ele>127</ele>
        <time>2010-05-15T09:10:41Z</time>
      </trkpt>
      <trkpt lat="48.59303" lon="1.72691">
        <ele>127</ele>
        <time>2010-05-15T09:10:42Z</time>
      </trkpt>
      <trkpt lat="48.59302" lon="1.72693">
        <ele>128</ele>
        <time>2010-05-15T09:10:43Z</time>
      </trkpt>
      <trkpt lat="48.59301" lon="1.72695">
        <ele>128</ele>
        <time>2010-05-15T09:10:44Z</time>
      </trkpt>
      <trkpt lat="48.593" lon="1.72697">
        <ele>128</ele>
        <time>2010-05-15T09:10:45Z</time>
      </trkpt>
      <trkpt lat="48.59298" lon="1.72699">
        <ele>129</ele>
        <time>2010-05-15T09:10:46Z</time>
      </trkpt>
      <trkpt lat="48.59297" lon="1.72702">
        <ele>129</ele>
        <time>2010-05-15T09:10:47Z</time>
      </trkpt>
      <trkpt lat="48.59296" lon="1.72704">
        <ele>130</ele>
        <time>2010-05-15T09:10:48Z</time>
      </trkpt>
      <trkpt lat="48.59295" lon="1.72706">
        <ele>130</ele>
        <time>2010-05-15T09:10:49Z</time>
      </trkpt>
      <trkpt lat="48.59293" lon="1.72709">
        <ele>131</ele>
        <time>2010-05-15T09:10:50Z</time>
      </trkpt>
      <trkpt lat="48.59292" lon="1.72711">
        <ele>131</ele>
        <time>2010-05-15T09:10:51Z</time>
      </trkpt>
      <trkpt lat="48.59291" lon="1.72712">
        <ele>132</ele>
        <time>2010-05-15T09:10:52Z</time>
      </trkpt>
      <trkpt lat="48.59289" lon="1.72715">
        <ele>133</ele>
        <time>2010-05-15T09:10:53Z</time>
      </trkpt>
      <trkpt lat="48.59287" lon="1.72717">
        <ele>134</ele>
        <time>2010-05-15T09:10:54Z</time>
      </trkpt>
      <trkpt lat="48.59286" lon="1.72719">
        <ele>135</ele>
        <time>2010-05-15T09:10:55Z</time>
      </trkpt>
      <trkpt lat="48.59285" lon="1.72721">
        <ele>136</ele>
        <time>2010-05-15T09:10:56Z</time>
      </trkpt>
      <trkpt lat="48.59283" lon="1.72723">
        <ele>138</ele>
        <time>2010-05-15T09:10:58Z</time>
      </trkpt>
      <trkpt lat="48.59282" lon="1.72724">
        <ele>138</ele>
        <time>2010-05-15T09:10:59Z</time>
      </trkpt>
      <trkpt lat="48.59282" lon="1.72726">
        <ele>138</ele>
        <time>2010-05-15T09:11:00Z</time>
      </trkpt>
      <trkpt lat="48.59282" lon="1.72728">
        <ele>138</ele>
        <time>2010-05-15T09:11:01Z</time>
      </trkpt>
      <trkpt lat="48.59282" lon="1.7273">
        <ele>138</ele>
        <time>2010-05-15T09:11:02Z</time>
      </trkpt>
      <trkpt lat="48.5928" lon="1.72734">
        <ele>138</ele>
        <time>2010-05-15T09:11:04Z</time>
      </trkpt>
      <trkpt lat="48.59279" lon="1.72736">
        <ele>138</ele>
        <time>2010-05-15T09:11:05Z</time>
      </trkpt>
      <trkpt lat="48.59276" lon="1.72739">
        <ele>138</ele>
        <time>2010-05-15T09:11:07Z</time>
      </trkpt>
      <trkpt lat="48.59275" lon="1.72741">
        <ele>138</ele>
        <time>2010-05-15T09:11:08Z</time>
      </trkpt>
      <trkpt lat="48.59273" lon="1.72743">
        <ele>138</ele>
        <time>2010-05-15T09:11:09Z</time>
      </trkpt>
      <trkpt lat="48.59272" lon="1.72746">
        <ele>138</ele>
        <time>2010-05-15T09:11:10Z</time>
      </trkpt>
      <trkpt lat="48.5927" lon="1.72749">
        <ele>138</ele>
        <time>2010-05-15T09:11:11Z</time>
      </trkpt>
      <trkpt lat="48.59269" lon="1.72751">
        <ele>138</ele>
        <time>2010-05-15T09:11:12Z</time>
      </trkpt>
      <trkpt lat="48.59268" lon="1.72753">
        <ele>138</ele>
        <time>2010-05-15T09:11:14Z</time>
      </trkpt>
      <trkpt lat="48.59266" lon="1.72755">
        <ele>138</ele>
        <time>2010-05-15T09:11:15Z</time>
      </trkpt>
      <trkpt lat="48.59265" lon="1.72757">
        <ele>138</ele>
        <time>2010-05-15T09:11:16Z</time>
      </trkpt>
      <trkpt lat="48.59265" lon="1.72759">
        <ele>138</ele>
        <time>2010-05-15T09:11:17Z</time>
      </trkpt>
      <trkpt lat="48.59264" lon="1.72761">
        <ele>138</ele>
        <time>2010-05-15T09:11:18Z</time>
      </trkpt>
      <trkpt lat="48.59264" lon="1.72762">
        <ele>138</ele>
        <time>2010-05-15T09:11:19Z</time>
      </trkpt>
      <trkpt lat="48.59264" lon="1.72764">
        <ele>138</ele>
        <time>2010-05-15T09:11:20Z</time>
      </trkpt>
      <trkpt lat="48.59263" lon="1.72766">
        <ele>138</ele>
        <time>2010-05-15T09:11:21Z</time>
      </trkpt>
      <trkpt lat="48.59262" lon="1.72768">
        <ele>138</ele>
        <time>2010-05-15T09:11:22Z</time>
      </trkpt>
      <trkpt lat="48.59261" lon="1.7277">
        <ele>138</ele>
        <time>2010-05-15T09:11:23Z</time>
      </trkpt>
      <trkpt lat="48.5926" lon="1.72772">
        <ele>138</ele>
        <time>2010-05-15T09:11:24Z</time>
      </trkpt>
      <trkpt lat="48.59259" lon="1.72774">
        <ele>138</ele>
        <time>2010-05-15T09:11:25Z</time>
      </trkpt>
      <trkpt lat="48.59258" lon="1.72776">
        <ele>138</ele>
        <time>2010-05-15T09:11:26Z</time>
      </trkpt>
      <trkpt lat="48.59257" lon="1.72779">
        <ele>138</ele>
        <time>2010-05-15T09:11:27Z</time>
      </trkpt>
      <trkpt lat="48.59256" lon="1.72783">
        <ele>138</ele>
        <time>2010-05-15T09:11:28Z</time>
      </trkpt>
      <trkpt lat="48.59255" lon="1.72785">
        <ele>138</ele>
        <time>2010-05-15T09:11:29Z</time>
      </trkpt>
      <trkpt lat="48.59255" lon="1.72787">
        <ele>138</ele>
        <time>2010-05-15T09:11:30Z</time>
      </trkpt>
      <trkpt lat="48.59255" lon="1.72789">
        <ele>138</ele>
        <time>2010-05-15T09:11:31Z</time>
      </trkpt>
      <trkpt lat="48.59255" lon="1.72791">
        <ele>138</ele>
        <time>2010-05-15T09:11:32Z</time>
      </trkpt>
      <trkpt lat="48.59254" lon="1.72794">
        <ele>138</ele>
        <time>2010-05-15T09:11:33Z</time>
      </trkpt>
      <trkpt lat="48.59254" lon="1.72796">
        <ele>137</ele>
        <time>2010-05-15T09:11:34Z</time>
      </trkpt>
      <trkpt lat="48.59253" lon="1.72799">
        <ele>137</ele>
        <time>2010-05-15T09:11:35Z</time>
      </trkpt>
      <trkpt lat="48.59253" lon="1.72801">
        <ele>136</ele>
        <time>2010-05-15T09:11:36Z</time>
      </trkpt>
      <trkpt lat="48.59253" lon="1.72803">
        <ele>136</ele>
        <time>2010-05-15T09:11:37Z</time>
      </trkpt>
      <trkpt lat="48.59252" lon="1.72805">
        <ele>136</ele>
        <time>2010-05-15T09:11:38Z</time>
      </trkpt>
      <trkpt lat="48.59252" lon="1.72807">
        <ele>136</ele>
        <time>2010-05-15T09:11:39Z</time>
      </trkpt>
      <trkpt lat="48.59252" lon="1.7281">
        <ele>135</ele>
        <time>2010-05-15T09:11:40Z</time>
      </trkpt>
      <trkpt lat="48.59252" lon="1.72812">
        <ele>135</ele>
        <time>2010-05-15T09:11:41Z</time>
      </trkpt>
      <trkpt lat="48.59251" lon="1.72814">
        <ele>134</ele>
        <time>2010-05-15T09:11:42Z</time>
      </trkpt>
      <trkpt lat="48.5925" lon="1.72817">
        <ele>133</ele>
        <time>2010-05-15T09:11:44Z</time>
      </trkpt>
      <trkpt lat="48.59249" lon="1.72819">
        <ele>133</ele>
        <time>2010-05-15T09:11:45Z</time>
      </trkpt>
      <trkpt lat="48.59248" lon="1.72822">
        <ele>133</ele>
        <time>2010-05-15T09:11:46Z</time>
      </trkpt>
      <trkpt lat="48.59248" lon="1.72824">
        <ele>133</ele>
        <time>2010-05-15T09:11:47Z</time>
      </trkpt>
      <trkpt lat="48.59247" lon="1.72826">
        <ele>133</ele>
        <time>2010-05-15T09:11:48Z</time>
      </trkpt>
      <trkpt lat="48.59246" lon="1.72829">
        <ele>133</ele>
        <time>2010-05-15T09:11:49Z</time>
      </trkpt>
      <trkpt lat="48.59246" lon="1.72831">
        <ele>132</ele>
        <time>2010-05-15T09:11:50Z</time>
      </trkpt>
      <trkpt lat="48.59247" lon="1.72833">
        <ele>132</ele>
        <time>2010-05-15T09:11:51Z</time>
      </trkpt>
      <trkpt lat="48.59247" lon="1.72835">
        <ele>132</ele>
        <time>2010-05-15T09:11:52Z</time>
      </trkpt>
      <trkpt lat="48.59246" lon="1.72837">
        <ele>132</ele>
        <time>2010-05-15T09:11:53Z</time>
      </trkpt>
      <trkpt lat="48.59246" lon="1.72839">
        <ele>131</ele>
        <time>2010-05-15T09:11:54Z</time>
      </trkpt>
      <trkpt lat="48.59245" lon="1.72841">
        <ele>131</ele>
        <time>2010-05-15T09:11:55Z</time>
      </trkpt>
      <trkpt lat="48.59244" lon="1.72844">
        <ele>131</ele>
        <time>2010-05-15T09:11:56Z</time>
      </trkpt>
      <trkpt lat="48.59243" lon="1.72846">
        <ele>131</ele>
        <time>2010-05-15T09:11:57Z</time>
      </trkpt>
      <trkpt lat="48.59243" lon="1.72848">
        <ele>131</ele>
        <time>2010-05-15T09:11:58Z</time>
      </trkpt>
      <trkpt lat="48.59242" lon="1.7285">
        <ele>131</ele>
        <time>2010-05-15T09:11:59Z</time>
      </trkpt>
      <trkpt lat="48.59241" lon="1.72853">
        <ele>131</ele>
        <time>2010-05-15T09:12:00Z</time>
      </trkpt>
      <trkpt lat="48.59241" lon="1.72855">
        <ele>131</ele>
        <time>2010-05-15T09:12:01Z</time>
      </trkpt>
      <trkpt lat="48.5924" lon="1.72857">
        <ele>131</ele>
        <time>2010-05-15T09:12:02Z</time>
      </trkpt>
      <trkpt lat="48.59239" lon="1.72859">
        <ele>131</ele>
        <time>2010-05-15T09:12:03Z</time>
      </trkpt>
      <trkpt lat="48.59239" lon="1.72861">
        <ele>131</ele>
        <time>2010-05-15T09:12:04Z</time>
      </trkpt>
      <trkpt lat="48.59238" lon="1.72864">
        <ele>131</ele>
        <time>2010-05-15T09:12:05Z</time>
      </trkpt>
      <trkpt lat="48.59236" lon="1.72867">
        <ele>131</ele>
        <time>2010-05-15T09:12:06Z</time>
      </trkpt>
      <trkpt lat="48.59235" lon="1.7287">
        <ele>131</ele>
        <time>2010-05-15T09:12:07Z</time>
      </trkpt>
      <trkpt lat="48.59234" lon="1.72872">
        <ele>131</ele>
        <time>2010-05-15T09:12:08Z</time>
      </trkpt>
      <trkpt lat="48.59234" lon="1.72875">
        <ele>131</ele>
        <time>2010-05-15T09:12:09Z</time>
      </trkpt>
      <trkpt lat="48.59233" lon="1.72877">
        <ele>131</ele>
        <time>2010-05-15T09:12:10Z</time>
      </trkpt>
      <trkpt lat="48.59234" lon="1.72878">
        <ele>131</ele>
        <time>2010-05-15T09:12:11Z</time>
      </trkpt>
      <trkpt lat="48.59233" lon="1.72881">
        <ele>131</ele>
        <time>2010-05-15T09:12:12Z</time>
      </trkpt>
      <trkpt lat="48.59232" lon="1.72884">
        <ele>131</ele>
        <time>2010-05-15T09:12:13Z</time>
      </trkpt>
      <trkpt lat="48.59232" lon="1.72886">
        <ele>131</ele>
        <time>2010-05-15T09:12:14Z</time>
      </trkpt>
      <trkpt lat="48.59231" lon="1.72889">
        <ele>131</ele>
        <time>2010-05-15T09:12:15Z</time>
      </trkpt>
      <trkpt lat="48.5923" lon="1.72891">
        <ele>131</ele>
        <time>2010-05-15T09:12:16Z</time>
      </trkpt>
      <trkpt lat="48.5923" lon="1.72894">
        <ele>131</ele>
        <time>2010-05-15T09:12:17Z</time>
      </trkpt>
      <trkpt lat="48.59229" lon="1.72897">
        <ele>131</ele>
        <time>2010-05-15T09:12:18Z</time>
      </trkpt>
      <trkpt lat="48.59229" lon="1.72899">
        <ele>132</ele>
        <time>2010-05-15T09:12:19Z</time>
      </trkpt>
      <trkpt lat="48.59228" lon="1.72901">
        <ele>133</ele>
        <time>2010-05-15T09:12:20Z</time>
      </trkpt>
      <trkpt lat="48.59227" lon="1.72904">
        <ele>134</ele>
        <time>2010-05-15T09:12:21Z</time>
      </trkpt>
      <trkpt lat="48.59226" lon="1.72907">
        <ele>136</ele>
        <time>2010-05-15T09:12:23Z</time>
      </trkpt>
      <trkpt lat="48.59226" lon="1.72908">
        <ele>137</ele>
        <time>2010-05-15T09:12:24Z</time>
      </trkpt>
      <trkpt lat="48.59225" lon="1.7291">
        <ele>137</ele>
        <time>2010-05-15T09:12:25Z</time>
      </trkpt>
      <trkpt lat="48.59225" lon="1.72912">
        <ele>137</ele>
        <time>2010-05-15T09:12:26Z</time>
      </trkpt>
      <trkpt lat="48.59223" lon="1.72914">
        <ele>137</ele>
        <time>2010-05-15T09:12:27Z</time>
      </trkpt>
      <trkpt lat="48.59222" lon="1.72917">
        <ele>137</ele>
        <time>2010-05-15T09:12:29Z</time>
      </trkpt>
      <trkpt lat="48.5922" lon="1.7292">
        <ele>137</ele>
        <time>2010-05-15T09:12:31Z</time>
      </trkpt>
      <trkpt lat="48.5922" lon="1.72922">
        <ele>137</ele>
        <time>2010-05-15T09:12:32Z</time>
      </trkpt>
      <trkpt lat="48.59219" lon="1.72924">
        <ele>137</ele>
        <time>2010-05-15T09:12:33Z</time>
      </trkpt>
      <trkpt lat="48.59218" lon="1.72926">
        <ele>137</ele>
        <time>2010-05-15T09:12:34Z</time>
      </trkpt>
      <trkpt lat="48.59218" lon="1.72928">
        <ele>137</ele>
        <time>2010-05-15T09:12:35Z</time>
      </trkpt>
      <trkpt lat="48.59217" lon="1.7293">
        <ele>137</ele>
        <time>2010-05-15T09:12:36Z</time>
      </trkpt>
      <trkpt lat="48.59217" lon="1.72933">
        <ele>137</ele>
        <time>2010-05-15T09:12:37Z</time>
      </trkpt>
      <trkpt lat="48.59217" lon="1.72935">
        <ele>137</ele>
        <time>2010-05-15T09:12:38Z</time>
      </trkpt>
      <trkpt lat="48.59216" lon="1.72937">
        <ele>137</ele>
        <time>2010-05-15T09:12:39Z</time>
      </trkpt>
      <trkpt lat="48.59216" lon="1.72939">
        <ele>137</ele>
        <time>2010-05-15T09:12:40Z</time>
      </trkpt>
      <trkpt lat="48.59216" lon="1.72941">
        <ele>137</ele>
        <time>2010-05-15T09:12:41Z</time>
      </trkpt>
      <trkpt lat="48.59216" lon="1.72943">
        <ele>137</ele>
        <time>2010-05-15T09:12:42Z</time>
      </trkpt>
      <trkpt lat="48.59216" lon="1.72945">
        <ele>137</ele>
        <time>2010-05-15T09:12:43Z</time>
      </trkpt>
      <trkpt lat="48.59215" lon="1.72948">
        <ele>137</ele>
        <time>2010-05-15T09:12:44Z</time>
      </trkpt>
      <trkpt lat="48.59215" lon="1.7295">
        <ele>137</ele>
        <time>2010-05-15T09:12:45Z</time>
      </trkpt>
      <trkpt lat="48.59214" lon="1.72952">
        <ele>137</ele>
        <time>2010-05-15T09:12:46Z</time>
      </trkpt>
      <trkpt lat="48.59214" lon="1.72954">
        <ele>137</ele>
        <time>2010-05-15T09:12:47Z</time>
      </trkpt>
      <trkpt lat="48.59214" lon="1.72957">
        <ele>137</ele>
        <time>2010-05-15T09:12:48Z</time>
      </trkpt>
      <trkpt lat="48.59214" lon="1.72959">
        <ele>137</ele>
        <time>2010-05-15T09:12:49Z</time>
      </trkpt>
      <trkpt lat="48.59214" lon="1.72961">
        <ele>136</ele>
        <time>2010-05-15T09:12:50Z</time>
      </trkpt>
      <trkpt lat="48.59213" lon="1.72963">
        <ele>136</ele>
        <time>2010-05-15T09:12:51Z</time>
      </trkpt>
      <trkpt lat="48.59213" lon="1.72965">
        <ele>135</ele>
        <time>2010-05-15T09:12:52Z</time>
      </trkpt>
      <trkpt lat="48.59213" lon="1.72967">
        <ele>134</ele>
        <time>2010-05-15T09:12:53Z</time>
      </trkpt>
      <trkpt lat="48.59213" lon="1.72969">
        <ele>134</ele>
        <time>2010-05-15T09:12:54Z</time>
      </trkpt>
      <trkpt lat="48.59213" lon="1.72971">
        <ele>133</ele>
        <time>2010-05-15T09:12:55Z</time>
      </trkpt>
      <trkpt lat="48.59213" lon="1.72974">
        <ele>132</ele>
        <time>2010-05-15T09:12:56Z</time>
      </trkpt>
      <trkpt lat="48.59213" lon="1.72976">
        <ele>131</ele>
        <time>2010-05-15T09:12:57Z</time>
      </trkpt>
      <trkpt lat="48.59213" lon="1.72979">
        <ele>130</ele>
        <time>2010-05-15T09:12:58Z</time>
      </trkpt>
      <trkpt lat="48.59212" lon="1.72981">
        <ele>130</ele>
        <time>2010-05-15T09:12:59Z</time>
      </trkpt>
      <trkpt lat="48.59211" lon="1.72985">
        <ele>129</ele>
        <time>2010-05-15T09:13:00Z</time>
      </trkpt>
      <trkpt lat="48.59211" lon="1.72988">
        <ele>129</ele>
        <time>2010-05-15T09:13:01Z</time>
      </trkpt>
      <trkpt lat="48.59211" lon="1.7299">
        <ele>129</ele>
        <time>2010-05-15T09:13:02Z</time>
      </trkpt>
      <trkpt lat="48.5921" lon="1.72993">
        <ele>129</ele>
        <time>2010-05-15T09:13:03Z</time>
      </trkpt>
      <trkpt lat="48.5921" lon="1.72995">
        <ele>129</ele>
        <time>2010-05-15T09:13:04Z</time>
      </trkpt>
      <trkpt lat="48.59209" lon="1.72998">
        <ele>129</ele>
        <time>2010-05-15T09:13:05Z</time>
      </trkpt>
      <trkpt lat="48.59209" lon="1.73001">
        <ele>129</ele>
        <time>2010-05-15T09:13:06Z</time>
      </trkpt>
      <trkpt lat="48.59209" lon="1.73003">
        <ele>129</ele>
        <time>2010-05-15T09:13:07Z</time>
      </trkpt>
      <trkpt lat="48.59209" lon="1.73008">
        <ele>129</ele>
        <time>2010-05-15T09:13:09Z</time>
      </trkpt>
      <trkpt lat="48.59208" lon="1.73011">
        <ele>129</ele>
        <time>2010-05-15T09:13:10Z</time>
      </trkpt>
      <trkpt lat="48.59208" lon="1.73013">
        <ele>129</ele>
        <time>2010-05-15T09:13:11Z</time>
      </trkpt>
      <trkpt lat="48.59208" lon="1.73015">
        <ele>129</ele>
        <time>2010-05-15T09:13:12Z</time>
      </trkpt>
      <trkpt lat="48.59209" lon="1.73017">
        <ele>129</ele>
        <time>2010-05-15T09:13:13Z</time>
      </trkpt>
      <trkpt lat="48.59209" lon="1.7302">
        <ele>129</ele>
        <time>2010-05-15T09:13:14Z</time>
      </trkpt>
      <trkpt lat="48.59208" lon="1.73022">
        <ele>129</ele>
        <time>2010-05-15T09:13:15Z</time>
      </trkpt>
      <trkpt lat="48.59208" lon="1.73025">
        <ele>129</ele>
        <time>2010-05-15T09:13:16Z</time>
      </trkpt>
      <trkpt lat="48.59208" lon="1.73028">
        <ele>129</ele>
        <time>2010-05-15T09:13:17Z</time>
      </trkpt>
      <trkpt lat="48.59208" lon="1.7303">
        <ele>129</ele>
        <time>2010-05-15T09:13:18Z</time>
      </trkpt>
      <trkpt lat="48.59208" lon="1.73032">
        <ele>129</ele>
        <time>2010-05-15T09:13:19Z</time>
      </trkpt>
      <trkpt lat="48.59207" lon="1.73035">
        <ele>129</ele>
        <time>2010-05-15T09:13:20Z</time>
      </trkpt>
      <trkpt lat="48.59207" lon="1.73037">
        <ele>129</ele>
        <time>2010-05-15T09:13:21Z</time>
      </trkpt>
      <trkpt lat="48.59206" lon="1.73039">
        <ele>129</ele>
        <time>2010-05-15T09:13:22Z</time>
      </trkpt>
      <trkpt lat="48.59206" lon="1.73041">
        <ele>129</ele>
        <time>2010-05-15T09:13:23Z</time>
      </trkpt>
      <trkpt lat="48.59206" lon="1.73043">
        <ele>129</ele>
        <time>2010-05-15T09:13:24Z</time>
      </trkpt>
      <trkpt lat="48.59205" lon="1.73045">
        <ele>129</ele>
        <time>2010-05-15T09:13:25Z</time>
      </trkpt>
      <trkpt lat="48.59205" lon="1.73047">
        <ele>129</ele>
        <time>2010-05-15T09:13:26Z</time>
      </trkpt>
      <trkpt lat="48.59205" lon="1.73049">
        <ele>129</ele>
        <time>2010-05-15T09:13:27Z</time>
      </trkpt>
      <trkpt lat="48.59205" lon="1.73052">
        <ele>129</ele>
        <time>2010-05-15T09:13:28Z</time>
      </trkpt>
      <trkpt lat="48.59205" lon="1.73053">
        <ele>129</ele>
        <time>2010-05-15T09:13:29Z</time>
      </trkpt>
      <trkpt lat="48.59205" lon="1.73056">
        <ele>129</ele>
        <time>2010-05-15T09:13:30Z</time>
      </trkpt>
      <trkpt lat="48.59205" lon="1.73058">
        <ele>129</ele>
        <time>2010-05-15T09:13:31Z</time>
      </trkpt>
      <trkpt lat="48.59204" lon="1.7306">
        <ele>128</ele>
        <time>2010-05-15T09:13:32Z</time>
      </trkpt>
      <trkpt lat="48.59204" lon="1.73062">
        <ele>128</ele>
        <time>2010-05-15T09:13:33Z</time>
      </trkpt>
      <trkpt lat="48.59204" lon="1.73064">
        <ele>128</ele>
        <time>2010-05-15T09:13:34Z</time>
      </trkpt>
      <trkpt lat="48.59203" lon="1.73066">
        <ele>128</ele>
        <time>2010-05-15T09:13:35Z</time>
      </trkpt>
      <trkpt lat="48.59203" lon="1.73068">
        <ele>128</ele>
        <time>2010-05-15T09:13:36Z</time>
      </trkpt>
      <trkpt lat="48.59203" lon="1.73071">
        <ele>127</ele>
        <time>2010-05-15T09:13:37Z</time>
      </trkpt>
      <trkpt lat="48.59203" lon="1.73073">
        <ele>127</ele>
        <time>2010-05-15T09:13:38Z</time>
      </trkpt>
      <trkpt lat="48.59203" lon="1.73075">
        <ele>127</ele>
        <time>2010-05-15T09:13:39Z</time>
      </trkpt>
      <trkpt lat="48.59202" lon="1.73078">
        <ele>127</ele>
        <time>2010-05-15T09:13:40Z</time>
      </trkpt>
      <trkpt lat="48.59202" lon="1.7308">
        <ele>127</ele>
        <time>2010-05-15T09:13:41Z</time>
      </trkpt>
      <trkpt lat="48.59202" lon="1.73082">
        <ele>127</ele>
        <time>2010-05-15T09:13:42Z</time>
      </trkpt>
      <trkpt lat="48.59201" lon="1.73084">
        <ele>127</ele>
        <time>2010-05-15T09:13:43Z</time>
      </trkpt>
      <trkpt lat="48.59201" lon="1.73087">
        <ele>127</ele>
        <time>2010-05-15T09:13:44Z</time>
      </trkpt>
      <trkpt lat="48.59201" lon="1.73089">
        <ele>127</ele>
        <time>2010-05-15T09:13:45Z</time>
      </trkpt>
      <trkpt lat="48.59201" lon="1.73091">
        <ele>127</ele>
        <time>2010-05-15T09:13:46Z</time>
      </trkpt>
      <trkpt lat="48.59201" lon="1.73093">
        <ele>127</ele>
        <time>2010-05-15T09:13:47Z</time>
      </trkpt>
      <trkpt lat="48.592" lon="1.73095">
        <ele>127</ele>
        <time>2010-05-15T09:13:49Z</time>
      </trkpt>
      <trkpt lat="48.59199" lon="1.73097">
        <ele>127</ele>
        <time>2010-05-15T09:13:55Z</time>
      </trkpt>
      <trkpt lat="48.59199" lon="1.73098">
        <ele>127</ele>
        <time>2010-05-15T09:13:57Z</time>
      </trkpt>
      <trkpt lat="48.59198" lon="1.731">
        <ele>127</ele>
        <time>2010-05-15T09:13:58Z</time>
      </trkpt>
      <trkpt lat="48.59198" lon="1.73102">
        <ele>127</ele>
        <time>2010-05-15T09:13:59Z</time>
      </trkpt>
      <trkpt lat="48.59197" lon="1.73105">
        <ele>127</ele>
        <time>2010-05-15T09:14:01Z</time>
      </trkpt>
      <trkpt lat="48.59196" lon="1.73106">
        <ele>127</ele>
        <time>2010-05-15T09:14:02Z</time>
      </trkpt>
      <trkpt lat="48.59194" lon="1.73107">
        <ele>127</ele>
        <time>2010-05-15T09:14:04Z</time>
      </trkpt>
      <trkpt lat="48.59193" lon="1.73109">
        <ele>127</ele>
        <time>2010-05-15T09:14:07Z</time>
      </trkpt>
      <trkpt lat="48.59194" lon="1.7311">
        <ele>127</ele>
        <time>2010-05-15T09:14:10Z</time>
      </trkpt>
      <trkpt lat="48.59196" lon="1.73109">
        <ele>127</ele>
        <time>2010-05-15T09:14:15Z</time>
      </trkpt>
      <trkpt lat="48.59197" lon="1.73109">
        <ele>127</ele>
        <time>2010-05-15T09:14:16Z</time>
      </trkpt>
      <trkpt lat="48.59199" lon="1.73108">
        <ele>127</ele>
        <time>2010-05-15T09:14:17Z</time>
      </trkpt>
      <trkpt lat="48.592" lon="1.73108">
        <ele>127</ele>
        <time>2010-05-15T09:14:18Z</time>
      </trkpt>
      <trkpt lat="48.59201" lon="1.73108">
        <ele>127</ele>
        <time>2010-05-15T09:14:19Z</time>
      </trkpt>
      <trkpt lat="48.59202" lon="1.73108">
        <ele>127</ele>
        <time>2010-05-15T09:14:20Z</time>
      </trkpt>
      <trkpt lat="48.59204" lon="1.73108">
        <ele>127</ele>
        <time>2010-05-15T09:14:22Z</time>
      </trkpt>
      <trkpt lat="48.59203" lon="1.73108">
        <ele>127</ele>
        <time>2010-05-15T09:14:41Z</time>
      </trkpt>
      <trkpt lat="48.59201" lon="1.73109">
        <ele>127</ele>
        <time>2010-05-15T09:14:43Z</time>
      </trkpt>
      <trkpt lat="48.592" lon="1.73109">
        <ele>127</ele>
        <time>2010-05-15T09:14:44Z</time>
      </trkpt>
      <trkpt lat="48.59198" lon="1.7311">
        <ele>127</ele>
        <time>2010-05-15T09:14:45Z</time>
      </trkpt>
      <trkpt lat="48.59197" lon="1.7311">
        <ele>127</ele>
        <time>2010-05-15T09:14:46Z</time>
      </trkpt>
      <trkpt lat="48.59196" lon="1.7311">
        <ele>127</ele>
        <time>2010-05-15T09:14:47Z</time>
      </trkpt>
      <trkpt lat="48.59194" lon="1.7311">
        <ele>127</ele>
        <time>2010-05-15T09:14:48Z</time>
      </trkpt>
      <trkpt lat="48.59193" lon="1.7311">
        <ele>127</ele>
        <time>2010-05-15T09:14:49Z</time>
      </trkpt>
      <trkpt lat="48.59191" lon="1.7311">
        <ele>127</ele>
        <time>2010-05-15T09:14:50Z</time>
      </trkpt>
      <trkpt lat="48.5919" lon="1.7311">
        <ele>127</ele>
        <time>2010-05-15T09:14:51Z</time>
      </trkpt>
      <trkpt lat="48.59189" lon="1.7311">
        <ele>127</ele>
        <time>2010-05-15T09:14:52Z</time>
      </trkpt>
      <trkpt lat="48.59187" lon="1.7311">
        <ele>127</ele>
        <time>2010-05-15T09:14:53Z</time>
      </trkpt>
      <trkpt lat="48.59185" lon="1.7311">
        <ele>127</ele>
        <time>2010-05-15T09:14:54Z</time>
      </trkpt>
      <trkpt lat="48.59184" lon="1.7311">
        <ele>127</ele>
        <time>2010-05-15T09:14:55Z</time>
      </trkpt>
      <trkpt lat="48.59182" lon="1.7311">
        <ele>127</ele>
        <time>2010-05-15T09:14:56Z</time>
      </trkpt>
      <trkpt lat="48.59181" lon="1.7311">
        <ele>127</ele>
        <time>2010-05-15T09:14:57Z</time>
      </trkpt>
      <trkpt lat="48.59179" lon="1.7311">
        <ele>127</ele>
        <time>2010-05-15T09:14:58Z</time>
      </trkpt>
      <trkpt lat="48.59178" lon="1.73109">
        <ele>127</ele>
        <time>2010-05-15T09:14:59Z</time>
      </trkpt>
      <trkpt lat="48.59176" lon="1.73109">
        <ele>127</ele>
        <time>2010-05-15T09:15:00Z</time>
      </trkpt>
      <trkpt lat="48.59174" lon="1.7311">
        <ele>127</ele>
        <time>2010-05-15T09:15:01Z</time>
      </trkpt>
      <trkpt lat="48.59172" lon="1.7311">
        <ele>127</ele>
        <time>2010-05-15T09:15:02Z</time>
      </trkpt>
      <trkpt lat="48.5917" lon="1.73109">
        <ele>127</ele>
        <time>2010-05-15T09:15:03Z</time>
      </trkpt>
      <trkpt lat="48.59168" lon="1.73109">
        <ele>127</ele>
        <time>2010-05-15T09:15:04Z</time>
      </trkpt>
      <trkpt lat="48.59166" lon="1.73109">
        <ele>127</ele>
        <time>2010-05-15T09:15:05Z</time>
      </trkpt>
      <trkpt lat="48.59165" lon="1.73109">
        <ele>127</ele>
        <time>2010-05-15T09:15:06Z</time>
      </trkpt>
      <trkpt lat="48.59163" lon="1.73108">
        <ele>127</ele>
        <time>2010-05-15T09:15:07Z</time>
      </trkpt>
      <trkpt lat="48.59162" lon="1.73108">
        <ele>127</ele>
        <time>2010-05-15T09:15:08Z</time>
      </trkpt>
      <trkpt lat="48.5916" lon="1.73108">
        <ele>127</ele>
        <time>2010-05-15T09:15:09Z</time>
      </trkpt>
      <trkpt lat="48.59159" lon="1.73109">
        <ele>127</ele>
        <time>2010-05-15T09:15:10Z</time>
      </trkpt>
      <trkpt lat="48.59157" lon="1.73109">
        <ele>127</ele>
        <time>2010-05-15T09:15:11Z</time>
      </trkpt>
      <trkpt lat="48.59156" lon="1.73108">
        <ele>127</ele>
        <time>2010-05-15T09:15:12Z</time>
      </trkpt>
      <trkpt lat="48.59155" lon="1.73108">
        <ele>127</ele>
        <time>2010-05-15T09:15:13Z</time>
      </trkpt>
      <trkpt lat="48.59153" lon="1.73108">
        <ele>127</ele>
        <time>2010-05-15T09:15:14Z</time>
      </trkpt>
      <trkpt lat="48.59152" lon="1.73109">
        <ele>127</ele>
        <time>2010-05-15T09:15:15Z</time>
      </trkpt>
      <trkpt lat="48.5915" lon="1.73109">
        <ele>127</ele>
        <time>2010-05-15T09:15:16Z</time>
      </trkpt>
      <trkpt lat="48.59149" lon="1.73109">
        <ele>127</ele>
        <time>2010-05-15T09:15:17Z</time>
      </trkpt>
      <trkpt lat="48.59147" lon="1.73109">
        <ele>127</ele>
        <time>2010-05-15T09:15:18Z</time>
      </trkpt>
      <trkpt lat="48.59146" lon="1.73109">
        <ele>127</ele>
        <time>2010-05-15T09:15:19Z</time>
      </trkpt>
      <trkpt lat="48.59144" lon="1.73109">
        <ele>127</ele>
        <time>2010-05-15T09:15:20Z</time>
      </trkpt>
      <trkpt lat="48.59143" lon="1.73109">
        <ele>127</ele>
        <time>2010-05-15T09:15:21Z</time>
      </trkpt>
      <trkpt lat="48.59141" lon="1.73109">
        <ele>127</ele>
        <time>2010-05-15T09:15:22Z</time>
      </trkpt>
      <trkpt lat="48.5914" lon="1.73109">
        <ele>127</ele>
        <time>2010-05-15T09:15:23Z</time>
      </trkpt>
      <trkpt lat="48.59138" lon="1.73109">
        <ele>127</ele>
        <time>2010-05-15T09:15:24Z</time>
      </trkpt>
      <trkpt lat="48.59136" lon="1.73109">
        <ele>127</ele>
        <time>2010-05-15T09:15:25Z</time>
      </trkpt>
      <trkpt lat="48.59134" lon="1.73109">
        <ele>127</ele>
        <time>2010-05-15T09:15:26Z</time>
      </trkpt>
      <trkpt lat="48.59132" lon="1.73109">
        <ele>127</ele>
        <time>2010-05-15T09:15:27Z</time>
      </trkpt>
      <trkpt lat="48.5913" lon="1.73108">
        <ele>127</ele>
        <time>2010-05-15T09:15:28Z</time>
      </trkpt>
      <trkpt lat="48.59128" lon="1.73108">
        <ele>127</ele>
        <time>2010-05-15T09:15:29Z</time>
      </trkpt>
      <trkpt lat="48.59127" lon="1.73108">
        <ele>127</ele>
        <time>2010-05-15T09:15:30Z</time>
      </trkpt>
      <trkpt lat="48.59125" lon="1.73108">
        <ele>127</ele>
        <time>2010-05-15T09:15:31Z</time>
      </trkpt>
      <trkpt lat="48.59123" lon="1.73108">
        <ele>127</ele>
        <time>2010-05-15T09:15:32Z</time>
      </trkpt>
      <trkpt lat="48.59122" lon="1.73108">
        <ele>127</ele>
        <time>2010-05-15T09:15:33Z</time>
      </trkpt>
      <trkpt lat="48.5912" lon="1.73108">
        <ele>127</ele>
        <time>2010-05-15T09:15:34Z</time>
      </trkpt>
      <trkpt lat="48.59119" lon="1.73108">
        <ele>127</ele>
        <time>2010-05-15T09:15:35Z</time>
      </trkpt>
      <trkpt lat="48.59117" lon="1.73108">
        <ele>127</ele>
        <time>2010-05-15T09:15:36Z</time>
      </trkpt>
      <trkpt lat="48.59116" lon="1.73108">
        <ele>128</ele>
        <time>2010-05-15T09:15:37Z</time>
      </trkpt>
      <trkpt lat="48.59115" lon="1.73108">
        <ele>128</ele>
        <time>2010-05-15T09:15:38Z</time>
      </trkpt>
      <trkpt lat="48.59113" lon="1.73108">
        <ele>128</ele>
        <time>2010-05-15T09:15:39Z</time>
      </trkpt>
      <trkpt lat="48.59112" lon="1.73108">
        <ele>128</ele>
        <time>2010-05-15T09:15:40Z</time>
      </trkpt>
      <trkpt lat="48.5911" lon="1.73108">
        <ele>128</ele>
        <time>2010-05-15T09:15:41Z</time>
      </trkpt>
      <trkpt lat="48.59109" lon="1.73108">
        <ele>128</ele>
        <time>2010-05-15T09:15:42Z</time>
      </trkpt>
      <trkpt lat="48.59108" lon="1.73108">
        <ele>128</ele>
        <time>2010-05-15T09:15:43Z</time>
      </trkpt>
      <trkpt lat="48.59106" lon="1.73108">
        <ele>128</ele>
        <time>2010-05-15T09:15:44Z</time>
      </trkpt>
      <trkpt lat="48.59105" lon="1.73108">
        <ele>128</ele>
        <time>2010-05-15T09:15:45Z</time>
      </trkpt>
      <trkpt lat="48.59103" lon="1.73107">
        <ele>128</ele>
        <time>2010-05-15T09:15:46Z</time>
      </trkpt>
      <trkpt lat="48.59102" lon="1.73107">
        <ele>128</ele>
        <time>2010-05-15T09:15:47Z</time>
      </trkpt>
      <trkpt lat="48.591" lon="1.73107">
        <ele>129</ele>
        <time>2010-05-15T09:15:48Z</time>
      </trkpt>
      <trkpt lat="48.59099" lon="1.73107">
        <ele>129</ele>
        <time>2010-05-15T09:15:49Z</time>
      </trkpt>
      <trkpt lat="48.59098" lon="1.73107">
        <ele>129</ele>
        <time>2010-05-15T09:15:50Z</time>
      </trkpt>
      <trkpt lat="48.59096" lon="1.73107">
        <ele>129</ele>
        <time>2010-05-15T09:15:51Z</time>
      </trkpt>
      <trkpt lat="48.59095" lon="1.73106">
        <ele>130</ele>
        <time>2010-05-15T09:15:52Z</time>
      </trkpt>
      <trkpt lat="48.59094" lon="1.73106">
        <ele>130</ele>
        <time>2010-05-15T09:15:53Z</time>
      </trkpt>
      <trkpt lat="48.59092" lon="1.73105">
        <ele>130</ele>
        <time>2010-05-15T09:15:54Z</time>
      </trkpt>
      <trkpt lat="48.59091" lon="1.73104">
        <ele>130</ele>
        <time>2010-05-15T09:15:55Z</time>
      </trkpt>
      <trkpt lat="48.5909" lon="1.73104">
        <ele>130</ele>
        <time>2010-05-15T09:15:56Z</time>
      </trkpt>
      <trkpt lat="48.59089" lon="1.73103">
        <ele>131</ele>
        <time>2010-05-15T09:15:57Z</time>
      </trkpt>
      <trkpt lat="48.59087" lon="1.73102">
        <ele>131</ele>
        <time>2010-05-15T09:15:58Z</time>
      </trkpt>
      <trkpt lat="48.59086" lon="1.73102">
        <ele>131</ele>
        <time>2010-05-15T09:15:59Z</time>
      </trkpt>
      <trkpt lat="48.59085" lon="1.73101">
        <ele>131</ele>
        <time>2010-05-15T09:16:00Z</time>
      </trkpt>
      <trkpt lat="48.59083" lon="1.73101">
        <ele>131</ele>
        <time>2010-05-15T09:16:01Z</time>
      </trkpt>
      <trkpt lat="48.59082" lon="1.73102">
        <ele>131</ele>
        <time>2010-05-15T09:16:02Z</time>
      </trkpt>
      <trkpt lat="48.59081" lon="1.73102">
        <ele>131</ele>
        <time>2010-05-15T09:16:03Z</time>
      </trkpt>
      <trkpt lat="48.59079" lon="1.73103">
        <ele>131</ele>
        <time>2010-05-15T09:16:04Z</time>
      </trkpt>
      <trkpt lat="48.59078" lon="1.73104">
        <ele>131</ele>
        <time>2010-05-15T09:16:05Z</time>
      </trkpt>
      <trkpt lat="48.59077" lon="1.73105">
        <ele>131</ele>
        <time>2010-05-15T09:16:06Z</time>
      </trkpt>
      <trkpt lat="48.59076" lon="1.73106">
        <ele>131</ele>
        <time>2010-05-15T09:16:07Z</time>
      </trkpt>
      <trkpt lat="48.59073" lon="1.73109">
        <ele>131</ele>
        <time>2010-05-15T09:16:09Z</time>
      </trkpt>
      <trkpt lat="48.59072" lon="1.7311">
        <ele>131</ele>
        <time>2010-05-15T09:16:10Z</time>
      </trkpt>
      <trkpt lat="48.5907" lon="1.73113">
        <ele>131</ele>
        <time>2010-05-15T09:16:12Z</time>
      </trkpt>
      <trkpt lat="48.59069" lon="1.73115">
        <ele>131</ele>
        <time>2010-05-15T09:16:13Z</time>
      </trkpt>
      <trkpt lat="48.59068" lon="1.73117">
        <ele>131</ele>
        <time>2010-05-15T09:16:14Z</time>
      </trkpt>
      <trkpt lat="48.59067" lon="1.73118">
        <ele>131</ele>
        <time>2010-05-15T09:16:15Z</time>
      </trkpt>
      <trkpt lat="48.59066" lon="1.7312">
        <ele>131</ele>
        <time>2010-05-15T09:16:16Z</time>
      </trkpt>
      <trkpt lat="48.59065" lon="1.73122">
        <ele>131</ele>
        <time>2010-05-15T09:16:17Z</time>
      </trkpt>
      <trkpt lat="48.59064" lon="1.73123">
        <ele>131</ele>
        <time>2010-05-15T09:16:18Z</time>
      </trkpt>
      <trkpt lat="48.59062" lon="1.73127">
        <ele>131</ele>
        <time>2010-05-15T09:16:20Z</time>
      </trkpt>
      <trkpt lat="48.59061" lon="1.73128">
        <ele>131</ele>
        <time>2010-05-15T09:16:21Z</time>
      </trkpt>
      <trkpt lat="48.5906" lon="1.7313">
        <ele>131</ele>
        <time>2010-05-15T09:16:22Z</time>
      </trkpt>
      <trkpt lat="48.5906" lon="1.73132">
        <ele>131</ele>
        <time>2010-05-15T09:16:23Z</time>
      </trkpt>
      <trkpt lat="48.59059" lon="1.73134">
        <ele>131</ele>
        <time>2010-05-15T09:16:24Z</time>
      </trkpt>
      <trkpt lat="48.59057" lon="1.73135">
        <ele>131</ele>
        <time>2010-05-15T09:16:25Z</time>
      </trkpt>
      <trkpt lat="48.59056" lon="1.73137">
        <ele>131</ele>
        <time>2010-05-15T09:16:26Z</time>
      </trkpt>
      <trkpt lat="48.59055" lon="1.73139">
        <ele>131</ele>
        <time>2010-05-15T09:16:27Z</time>
      </trkpt>
      <trkpt lat="48.59054" lon="1.7314">
        <ele>130</ele>
        <time>2010-05-15T09:16:28Z</time>
      </trkpt>
      <trkpt lat="48.59054" lon="1.73142">
        <ele>130</ele>
        <time>2010-05-15T09:16:29Z</time>
      </trkpt>
      <trkpt lat="48.59053" lon="1.73144">
        <ele>130</ele>
        <time>2010-05-15T09:16:30Z</time>
      </trkpt>
      <trkpt lat="48.59052" lon="1.73146">
        <ele>130</ele>
        <time>2010-05-15T09:16:31Z</time>
      </trkpt>
      <trkpt lat="48.59052" lon="1.73149">
        <ele>130</ele>
        <time>2010-05-15T09:16:32Z</time>
      </trkpt>
      <trkpt lat="48.59051" lon="1.73151">
        <ele>129</ele>
        <time>2010-05-15T09:16:33Z</time>
      </trkpt>
      <trkpt lat="48.5905" lon="1.73153">
        <ele>129</ele>
        <time>2010-05-15T09:16:34Z</time>
      </trkpt>
      <trkpt lat="48.5905" lon="1.73155">
        <ele>129</ele>
        <time>2010-05-15T09:16:35Z</time>
      </trkpt>
      <trkpt lat="48.59049" lon="1.73157">
        <ele>129</ele>
        <time>2010-05-15T09:16:36Z</time>
      </trkpt>
      <trkpt lat="48.59049" lon="1.73159">
        <ele>128</ele>
        <time>2010-05-15T09:16:37Z</time>
      </trkpt>
      <trkpt lat="48.59048" lon="1.73161">
        <ele>128</ele>
        <time>2010-05-15T09:16:38Z</time>
      </trkpt>
      <trkpt lat="48.59048" lon="1.73164">
        <ele>128</ele>
        <time>2010-05-15T09:16:39Z</time>
      </trkpt>
      <trkpt lat="48.59047" lon="1.73166">
        <ele>128</ele>
        <time>2010-05-15T09:16:40Z</time>
      </trkpt>
      <trkpt lat="48.59046" lon="1.73168">
        <ele>128</ele>
        <time>2010-05-15T09:16:41Z</time>
      </trkpt>
      <trkpt lat="48.59046" lon="1.7317">
        <ele>128</ele>
        <time>2010-05-15T09:16:42Z</time>
      </trkpt>
      <trkpt lat="48.59045" lon="1.73173">
        <ele>128</ele>
        <time>2010-05-15T09:16:43Z</time>
      </trkpt>
      <trkpt lat="48.59045" lon="1.73175">
        <ele>128</ele>
        <time>2010-05-15T09:16:44Z</time>
      </trkpt>
      <trkpt lat="48.59044" lon="1.73177">
        <ele>128</ele>
        <time>2010-05-15T09:16:45Z</time>
      </trkpt>
      <trkpt lat="48.59043" lon="1.73179">
        <ele>128</ele>
        <time>2010-05-15T09:16:46Z</time>
      </trkpt>
      <trkpt lat="48.59042" lon="1.73181">
        <ele>128</ele>
        <time>2010-05-15T09:16:47Z</time>
      </trkpt>
      <trkpt lat="48.59042" lon="1.73183">
        <ele>128</ele>
        <time>2010-05-15T09:16:48Z</time>
      </trkpt>
      <trkpt lat="48.59041" lon="1.73185">
        <ele>128</ele>
        <time>2010-05-15T09:16:49Z</time>
      </trkpt>
      <trkpt lat="48.5904" lon="1.73188">
        <ele>128</ele>
        <time>2010-05-15T09:16:50Z</time>
      </trkpt>
      <trkpt lat="48.59039" lon="1.7319">
        <ele>128</ele>
        <time>2010-05-15T09:16:51Z</time>
      </trkpt>
      <trkpt lat="48.59039" lon="1.73192">
        <ele>128</ele>
        <time>2010-05-15T09:16:52Z</time>
      </trkpt>
      <trkpt lat="48.59038" lon="1.73194">
        <ele>128</ele>
        <time>2010-05-15T09:16:53Z</time>
      </trkpt>
      <trkpt lat="48.59038" lon="1.73196">
        <ele>127</ele>
        <time>2010-05-15T09:16:54Z</time>
      </trkpt>
      <trkpt lat="48.59037" lon="1.73198">
        <ele>127</ele>
        <time>2010-05-15T09:16:55Z</time>
      </trkpt>
      <trkpt lat="48.59036" lon="1.732">
        <ele>127</ele>
        <time>2010-05-15T09:16:56Z</time>
      </trkpt>
      <trkpt lat="48.59036" lon="1.73202">
        <ele>127</ele>
        <time>2010-05-15T09:16:57Z</time>
      </trkpt>
      <trkpt lat="48.59035" lon="1.73204">
        <ele>127</ele>
        <time>2010-05-15T09:16:58Z</time>
      </trkpt>
      <trkpt lat="48.59035" lon="1.73206">
        <ele>127</ele>
        <time>2010-05-15T09:16:59Z</time>
      </trkpt>
      <trkpt lat="48.59034" lon="1.73208">
        <ele>126</ele>
        <time>2010-05-15T09:17:00Z</time>
      </trkpt>
      <trkpt lat="48.59034" lon="1.7321">
        <ele>126</ele>
        <time>2010-05-15T09:17:01Z</time>
      </trkpt>
      <trkpt lat="48.59033" lon="1.73212">
        <ele>126</ele>
        <time>2010-05-15T09:17:02Z</time>
      </trkpt>
      <trkpt lat="48.59033" lon="1.73214">
        <ele>126</ele>
        <time>2010-05-15T09:17:03Z</time>
      </trkpt>
      <trkpt lat="48.59033" lon="1.73216">
        <ele>125</ele>
        <time>2010-05-15T09:17:04Z</time>
      </trkpt>
      <trkpt lat="48.59032" lon="1.73219">
        <ele>125</ele>
        <time>2010-05-15T09:17:05Z</time>
      </trkpt>
      <trkpt lat="48.59031" lon="1.73221">
        <ele>125</ele>
        <time>2010-05-15T09:17:06Z</time>
      </trkpt>
      <trkpt lat="48.59031" lon="1.73223">
        <ele>125</ele>
        <time>2010-05-15T09:17:07Z</time>
      </trkpt>
      <trkpt lat="48.5903" lon="1.73225">
        <ele>125</ele>
        <time>2010-05-15T09:17:08Z</time>
      </trkpt>
      <trkpt lat="48.5903" lon="1.73227">
        <ele>125</ele>
        <time>2010-05-15T09:17:09Z</time>
      </trkpt>
      <trkpt lat="48.59029" lon="1.73229">
        <ele>125</ele>
        <time>2010-05-15T09:17:10Z</time>
      </trkpt>
      <trkpt lat="48.59028" lon="1.73231">
        <ele>125</ele>
        <time>2010-05-15T09:17:11Z</time>
      </trkpt>
      <trkpt lat="48.59028" lon="1.73233">
        <ele>125</ele>
        <time>2010-05-15T09:17:12Z</time>
      </trkpt>
      <trkpt lat="48.59027" lon="1.73235">
        <ele>125</ele>
        <time>2010-05-15T09:17:13Z</time>
      </trkpt>
      <trkpt lat="48.59027" lon="1.73238">
        <ele>125</ele>
        <time>2010-05-15T09:17:14Z</time>
      </trkpt>
      <trkpt lat="48.59026" lon="1.7324">
        <ele>124</ele>
        <time>2010-05-15T09:17:15Z</time>
      </trkpt>
      <trkpt lat="48.59026" lon="1.73242">
        <ele>124</ele>
        <time>2010-05-15T09:17:16Z</time>
      </trkpt>
      <trkpt lat="48.59025" lon="1.73244">
        <ele>124</ele>
        <time>2010-05-15T09:17:17Z</time>
      </trkpt>
      <trkpt lat="48.59025" lon="1.73246">
        <ele>124</ele>
        <time>2010-05-15T09:17:18Z</time>
      </trkpt>
      <trkpt lat="48.59024" lon="1.73248">
        <ele>124</ele>
        <time>2010-05-15T09:17:19Z</time>
      </trkpt>
      <trkpt lat="48.59024" lon="1.7325">
        <ele>124</ele>
        <time>2010-05-15T09:17:20Z</time>
      </trkpt>
      <trkpt lat="48.59023" lon="1.73252">
        <ele>124</ele>
        <time>2010-05-15T09:17:21Z</time>
      </trkpt>
      <trkpt lat="48.59023" lon="1.73254">
        <ele>124</ele>
        <time>2010-05-15T09:17:22Z</time>
      </trkpt>
      <trkpt lat="48.59023" lon="1.73257">
        <ele>124</ele>
        <time>2010-05-15T09:17:23Z</time>
      </trkpt>
      <trkpt lat="48.59023" lon="1.73259">
        <ele>124</ele>
        <time>2010-05-15T09:17:24Z</time>
      </trkpt>
      <trkpt lat="48.59023" lon="1.73261">
        <ele>124</ele>
        <time>2010-05-15T09:17:25Z</time>
      </trkpt>
      <trkpt lat="48.59024" lon="1.73264">
        <ele>124</ele>
        <time>2010-05-15T09:17:26Z</time>
      </trkpt>
      <trkpt lat="48.59025" lon="1.73266">
        <ele>124</ele>
        <time>2010-05-15T09:17:27Z</time>
      </trkpt>
      <trkpt lat="48.59026" lon="1.73268">
        <ele>124</ele>
        <time>2010-05-15T09:17:28Z</time>
      </trkpt>
      <trkpt lat="48.59027" lon="1.73269">
        <ele>124</ele>
        <time>2010-05-15T09:17:29Z</time>
      </trkpt>
      <trkpt lat="48.59028" lon="1.73271">
        <ele>124</ele>
        <time>2010-05-15T09:17:30Z</time>
      </trkpt>
      <trkpt lat="48.59029" lon="1.73273">
        <ele>124</ele>
        <time>2010-05-15T09:17:31Z</time>
      </trkpt>
      <trkpt lat="48.59031" lon="1.73274">
        <ele>124</ele>
        <time>2010-05-15T09:17:32Z</time>
      </trkpt>
      <trkpt lat="48.59032" lon="1.73276">
        <ele>124</ele>
        <time>2010-05-15T09:17:33Z</time>
      </trkpt>
      <trkpt lat="48.59033" lon="1.73278">
        <ele>124</ele>
        <time>2010-05-15T09:17:34Z</time>
      </trkpt>
      <trkpt lat="48.59034" lon="1.73279">
        <ele>124</ele>
        <time>2010-05-15T09:17:35Z</time>
      </trkpt>
      <trkpt lat="48.59035" lon="1.73281">
        <ele>124</ele>
        <time>2010-05-15T09:17:36Z</time>
      </trkpt>
      <trkpt lat="48.59036" lon="1.73283">
        <ele>124</ele>
        <time>2010-05-15T09:17:37Z</time>
      </trkpt>
      <trkpt lat="48.59037" lon="1.73285">
        <ele>124</ele>
        <time>2010-05-15T09:17:38Z</time>
      </trkpt>
      <trkpt lat="48.59038" lon="1.73287">
        <ele>124</ele>
        <time>2010-05-15T09:17:39Z</time>
      </trkpt>
      <trkpt lat="48.5904" lon="1.73289">
        <ele>124</ele>
        <time>2010-05-15T09:17:40Z</time>
      </trkpt>
      <trkpt lat="48.59041" lon="1.7329">
        <ele>124</ele>
        <time>2010-05-15T09:17:41Z</time>
      </trkpt>
      <trkpt lat="48.59042" lon="1.73292">
        <ele>124</ele>
        <time>2010-05-15T09:17:42Z</time>
      </trkpt>
      <trkpt lat="48.59043" lon="1.73294">
        <ele>123</ele>
        <time>2010-05-15T09:17:43Z</time>
      </trkpt>
      <trkpt lat="48.59044" lon="1.73295">
        <ele>123</ele>
        <time>2010-05-15T09:17:44Z</time>
      </trkpt>
      <trkpt lat="48.59045" lon="1.73297">
        <ele>123</ele>
        <time>2010-05-15T09:17:45Z</time>
      </trkpt>
      <trkpt lat="48.59047" lon="1.73299">
        <ele>123</ele>
        <time>2010-05-15T09:17:46Z</time>
      </trkpt>
      <trkpt lat="48.59048" lon="1.73301">
        <ele>123</ele>
        <time>2010-05-15T09:17:47Z</time>
      </trkpt>
      <trkpt lat="48.59049" lon="1.73302">
        <ele>123</ele>
        <time>2010-05-15T09:17:48Z</time>
      </trkpt>
      <trkpt lat="48.5905" lon="1.73304">
        <ele>123</ele>
        <time>2010-05-15T09:17:49Z</time>
      </trkpt>
      <trkpt lat="48.59052" lon="1.73306">
        <ele>123</ele>
        <time>2010-05-15T09:17:51Z</time>
      </trkpt>
      <trkpt lat="48.59053" lon="1.73309">
        <ele>123</ele>
        <time>2010-05-15T09:17:53Z</time>
      </trkpt>
      <trkpt lat="48.59055" lon="1.7331">
        <ele>122</ele>
        <time>2010-05-15T09:17:55Z</time>
      </trkpt>
      <trkpt lat="48.59055" lon="1.73308">
        <ele>122</ele>
        <time>2010-05-15T09:18:12Z</time>
      </trkpt>
      <trkpt lat="48.59053" lon="1.73306">
        <ele>122</ele>
        <time>2010-05-15T09:18:14Z</time>
      </trkpt>
      <trkpt lat="48.59052" lon="1.73304">
        <ele>122</ele>
        <time>2010-05-15T09:18:15Z</time>
      </trkpt>
      <trkpt lat="48.5905" lon="1.73303">
        <ele>122</ele>
        <time>2010-05-15T09:18:16Z</time>
      </trkpt>
      <trkpt lat="48.59049" lon="1.73301">
        <ele>122</ele>
        <time>2010-05-15T09:18:17Z</time>
      </trkpt>
      <trkpt lat="48.59048" lon="1.733">
        <ele>122</ele>
        <time>2010-05-15T09:18:18Z</time>
      </trkpt>
      <trkpt lat="48.59047" lon="1.73298">
        <ele>122</ele>
        <time>2010-05-15T09:18:19Z</time>
      </trkpt>
      <trkpt lat="48.59046" lon="1.73296">
        <ele>122</ele>
        <time>2010-05-15T09:18:20Z</time>
      </trkpt>
      <trkpt lat="48.59045" lon="1.73295">
        <ele>122</ele>
        <time>2010-05-15T09:18:21Z</time>
      </trkpt>
      <trkpt lat="48.59044" lon="1.73293">
        <ele>122</ele>
        <time>2010-05-15T09:18:22Z</time>
      </trkpt>
      <trkpt lat="48.59043" lon="1.73291">
        <ele>122</ele>
        <time>2010-05-15T09:18:23Z</time>
      </trkpt>
      <trkpt lat="48.59041" lon="1.7329">
        <ele>122</ele>
        <time>2010-05-15T09:18:24Z</time>
      </trkpt>
      <trkpt lat="48.5904" lon="1.73288">
        <ele>122</ele>
        <time>2010-05-15T09:18:25Z</time>
      </trkpt>
      <trkpt lat="48.59039" lon="1.73287">
        <ele>122</ele>
        <time>2010-05-15T09:18:26Z</time>
      </trkpt>
      <trkpt lat="48.59038" lon="1.73285">
        <ele>122</ele>
        <time>2010-05-15T09:18:27Z</time>
      </trkpt>
      <trkpt lat="48.59037" lon="1.73283">
        <ele>123</ele>
        <time>2010-05-15T09:18:28Z</time>
      </trkpt>
      <trkpt lat="48.59036" lon="1.73281">
        <ele>123</ele>
        <time>2010-05-15T09:18:29Z</time>
      </trkpt>
      <trkpt lat="48.59035" lon="1.73279">
        <ele>123</ele>
        <time>2010-05-15T09:18:30Z</time>
      </trkpt>
      <trkpt lat="48.59034" lon="1.73278">
        <ele>123</ele>
        <time>2010-05-15T09:18:31Z</time>
      </trkpt>
      <trkpt lat="48.59033" lon="1.73276">
        <ele>123</ele>
        <time>2010-05-15T09:18:32Z</time>
      </trkpt>
      <trkpt lat="48.59032" lon="1.73274">
        <ele>123</ele>
        <time>2010-05-15T09:18:33Z</time>
      </trkpt>
      <trkpt lat="48.59031" lon="1.73272">
        <ele>123</ele>
        <time>2010-05-15T09:18:34Z</time>
      </trkpt>
      <trkpt lat="48.5903" lon="1.73271">
        <ele>123</ele>
        <time>2010-05-15T09:18:35Z</time>
      </trkpt>
      <trkpt lat="48.59029" lon="1.73269">
        <ele>123</ele>
        <time>2010-05-15T09:18:36Z</time>
      </trkpt>
      <trkpt lat="48.59027" lon="1.73267">
        <ele>123</ele>
        <time>2010-05-15T09:18:37Z</time>
      </trkpt>
      <trkpt lat="48.59026" lon="1.73266">
        <ele>123</ele>
        <time>2010-05-15T09:18:38Z</time>
      </trkpt>
      <trkpt lat="48.59025" lon="1.73265">
        <ele>123</ele>
        <time>2010-05-15T09:18:39Z</time>
      </trkpt>
      <trkpt lat="48.59023" lon="1.73265">
        <ele>123</ele>
        <time>2010-05-15T09:18:40Z</time>
      </trkpt>
      <trkpt lat="48.59022" lon="1.73265">
        <ele>123</ele>
        <time>2010-05-15T09:18:41Z</time>
      </trkpt>
      <trkpt lat="48.59021" lon="1.73266">
        <ele>123</ele>
        <time>2010-05-15T09:18:42Z</time>
      </trkpt>
      <trkpt lat="48.59019" lon="1.73267">
        <ele>123</ele>
        <time>2010-05-15T09:18:43Z</time>
      </trkpt>
      <trkpt lat="48.59018" lon="1.73268">
        <ele>124</ele>
        <time>2010-05-15T09:18:44Z</time>
      </trkpt>
      <trkpt lat="48.59017" lon="1.7327">
        <ele>124</ele>
        <time>2010-05-15T09:18:45Z</time>
      </trkpt>
      <trkpt lat="48.59016" lon="1.73271">
        <ele>124</ele>
        <time>2010-05-15T09:18:46Z</time>
      </trkpt>
      <trkpt lat="48.59014" lon="1.73273">
        <ele>124</ele>
        <time>2010-05-15T09:18:47Z</time>
      </trkpt>
      <trkpt lat="48.59013" lon="1.73275">
        <ele>124</ele>
        <time>2010-05-15T09:18:48Z</time>
      </trkpt>
      <trkpt lat="48.59012" lon="1.73277">
        <ele>124</ele>
        <time>2010-05-15T09:18:49Z</time>
      </trkpt>
      <trkpt lat="48.59012" lon="1.73279">
        <ele>124</ele>
        <time>2010-05-15T09:18:50Z</time>
      </trkpt>
      <trkpt lat="48.59011" lon="1.7328">
        <ele>124</ele>
        <time>2010-05-15T09:18:51Z</time>
      </trkpt>
      <trkpt lat="48.5901" lon="1.73282">
        <ele>124</ele>
        <time>2010-05-15T09:18:52Z</time>
      </trkpt>
      <trkpt lat="48.59009" lon="1.73284">
        <ele>124</ele>
        <time>2010-05-15T09:18:53Z</time>
      </trkpt>
      <trkpt lat="48.59008" lon="1.73287">
        <ele>124</ele>
        <time>2010-05-15T09:18:54Z</time>
      </trkpt>
      <trkpt lat="48.59007" lon="1.73289">
        <ele>124</ele>
        <time>2010-05-15T09:18:55Z</time>
      </trkpt>
      <trkpt lat="48.59006" lon="1.7329">
        <ele>124</ele>
        <time>2010-05-15T09:18:56Z</time>
      </trkpt>
      <trkpt lat="48.59005" lon="1.73292">
        <ele>124</ele>
        <time>2010-05-15T09:18:57Z</time>
      </trkpt>
      <trkpt lat="48.59005" lon="1.73294">
        <ele>124</ele>
        <time>2010-05-15T09:18:58Z</time>
      </trkpt>
      <trkpt lat="48.59004" lon="1.73296">
        <ele>124</ele>
        <time>2010-05-15T09:18:59Z</time>
      </trkpt>
      <trkpt lat="48.59004" lon="1.73298">
        <ele>124</ele>
        <time>2010-05-15T09:19:00Z</time>
      </trkpt>
      <trkpt lat="48.59003" lon="1.733">
        <ele>124</ele>
        <time>2010-05-15T09:19:01Z</time>
      </trkpt>
      <trkpt lat="48.59002" lon="1.73302">
        <ele>124</ele>
        <time>2010-05-15T09:19:02Z</time>
      </trkpt>
      <trkpt lat="48.59002" lon="1.73304">
        <ele>124</ele>
        <time>2010-05-15T09:19:03Z</time>
      </trkpt>
      <trkpt lat="48.59001" lon="1.73305">
        <ele>124</ele>
        <time>2010-05-15T09:19:04Z</time>
      </trkpt>
      <trkpt lat="48.59" lon="1.73307">
        <ele>124</ele>
        <time>2010-05-15T09:19:05Z</time>
      </trkpt>
      <trkpt lat="48.58999" lon="1.73309">
        <ele>124</ele>
        <time>2010-05-15T09:19:06Z</time>
      </trkpt>
      <trkpt lat="48.58998" lon="1.73311">
        <ele>124</ele>
        <time>2010-05-15T09:19:07Z</time>
      </trkpt>
      <trkpt lat="48.58997" lon="1.73313">
        <ele>124</ele>
        <time>2010-05-15T09:19:08Z</time>
      </trkpt>
      <trkpt lat="48.58996" lon="1.73315">
        <ele>124</ele>
        <time>2010-05-15T09:19:09Z</time>
      </trkpt>
      <trkpt lat="48.58996" lon="1.73317">
        <ele>124</ele>
        <time>2010-05-15T09:19:10Z</time>
      </trkpt>
      <trkpt lat="48.58995" lon="1.73319">
        <ele>124</ele>
        <time>2010-05-15T09:19:11Z</time>
      </trkpt>
      <trkpt lat="48.58994" lon="1.73321">
        <ele>124</ele>
        <time>2010-05-15T09:19:12Z</time>
      </trkpt>
      <trkpt lat="48.58993" lon="1.73323">
        <ele>124</ele>
        <time>2010-05-15T09:19:13Z</time>
      </trkpt>
      <trkpt lat="48.58992" lon="1.73325">
        <ele>124</ele>
        <time>2010-05-15T09:19:14Z</time>
      </trkpt>
      <trkpt lat="48.58992" lon="1.73328">
        <ele>124</ele>
        <time>2010-05-15T09:19:15Z</time>
      </trkpt>
      <trkpt lat="48.58991" lon="1.7333">
        <ele>124</ele>
        <time>2010-05-15T09:19:16Z</time>
      </trkpt>
      <trkpt lat="48.5899" lon="1.73332">
        <ele>124</ele>
        <time>2010-05-15T09:19:17Z</time>
      </trkpt>
      <trkpt lat="48.58989" lon="1.73334">
        <ele>124</ele>
        <time>2010-05-15T09:19:18Z</time>
      </trkpt>
      <trkpt lat="48.58988" lon="1.73336">
        <ele>124</ele>
        <time>2010-05-15T09:19:19Z</time>
      </trkpt>
      <trkpt lat="48.58988" lon="1.73338">
        <ele>124</ele>
        <time>2010-05-15T09:19:20Z</time>
      </trkpt>
      <trkpt lat="48.58987" lon="1.7334">
        <ele>124</ele>
        <time>2010-05-15T09:19:21Z</time>
      </trkpt>
      <trkpt lat="48.58986" lon="1.73342">
        <ele>124</ele>
        <time>2010-05-15T09:19:22Z</time>
      </trkpt>
      <trkpt lat="48.58985" lon="1.73344">
        <ele>124</ele>
        <time>2010-05-15T09:19:23Z</time>
      </trkpt>
      <trkpt lat="48.58984" lon="1.73346">
        <ele>124</ele>
        <time>2010-05-15T09:19:24Z</time>
      </trkpt>
      <trkpt lat="48.58984" lon="1.73348">
        <ele>124</ele>
        <time>2010-05-15T09:19:25Z</time>
      </trkpt>
      <trkpt lat="48.58982" lon="1.7335">
        <ele>124</ele>
        <time>2010-05-15T09:19:26Z</time>
      </trkpt>
      <trkpt lat="48.58981" lon="1.73352">
        <ele>124</ele>
        <time>2010-05-15T09:19:27Z</time>
      </trkpt>
      <trkpt lat="48.58981" lon="1.73354">
        <ele>124</ele>
        <time>2010-05-15T09:19:28Z</time>
      </trkpt>
      <trkpt lat="48.5898" lon="1.73356">
        <ele>124</ele>
        <time>2010-05-15T09:19:29Z</time>
      </trkpt>
      <trkpt lat="48.58979" lon="1.73358">
        <ele>124</ele>
        <time>2010-05-15T09:19:30Z</time>
      </trkpt>
      <trkpt lat="48.58979" lon="1.73359">
        <ele>124</ele>
        <time>2010-05-15T09:19:31Z</time>
      </trkpt>
      <trkpt lat="48.58978" lon="1.73361">
        <ele>124</ele>
        <time>2010-05-15T09:19:32Z</time>
      </trkpt>
      <trkpt lat="48.58977" lon="1.73363">
        <ele>124</ele>
        <time>2010-05-15T09:19:33Z</time>
      </trkpt>
      <trkpt lat="48.58976" lon="1.73366">
        <ele>124</ele>
        <time>2010-05-15T09:19:35Z</time>
      </trkpt>
      <trkpt lat="48.58976" lon="1.73369">
        <ele>124</ele>
        <time>2010-05-15T09:19:36Z</time>
      </trkpt>
      <trkpt lat="48.58975" lon="1.7337">
        <ele>124</ele>
        <time>2010-05-15T09:19:37Z</time>
      </trkpt>
      <trkpt lat="48.58975" lon="1.73372">
        <ele>124</ele>
        <time>2010-05-15T09:19:38Z</time>
      </trkpt>
      <trkpt lat="48.58974" lon="1.73374">
        <ele>124</ele>
        <time>2010-05-15T09:19:39Z</time>
      </trkpt>
      <trkpt lat="48.58973" lon="1.73376">
        <ele>124</ele>
        <time>2010-05-15T09:19:40Z</time>
      </trkpt>
      <trkpt lat="48.58972" lon="1.73378">
        <ele>124</ele>
        <time>2010-05-15T09:19:41Z</time>
      </trkpt>
      <trkpt lat="48.58972" lon="1.7338">
        <ele>124</ele>
        <time>2010-05-15T09:19:42Z</time>
      </trkpt>
      <trkpt lat="48.58971" lon="1.73382">
        <ele>124</ele>
        <time>2010-05-15T09:19:43Z</time>
      </trkpt>
      <trkpt lat="48.5897" lon="1.73384">
        <ele>124</ele>
        <time>2010-05-15T09:19:44Z</time>
      </trkpt>
      <trkpt lat="48.58969" lon="1.73386">
        <ele>124</ele>
        <time>2010-05-15T09:19:45Z</time>
      </trkpt>
      <trkpt lat="48.58969" lon="1.73388">
        <ele>124</ele>
        <time>2010-05-15T09:19:46Z</time>
      </trkpt>
      <trkpt lat="48.58968" lon="1.73389">
        <ele>124</ele>
        <time>2010-05-15T09:19:47Z</time>
      </trkpt>
      <trkpt lat="48.58967" lon="1.73392">
        <ele>124</ele>
        <time>2010-05-15T09:19:49Z</time>
      </trkpt>
      <trkpt lat="48.58966" lon="1.73395">
        <ele>124</ele>
        <time>2010-05-15T09:19:51Z</time>
      </trkpt>
      <trkpt lat="48.58965" lon="1.73398">
        <ele>124</ele>
        <time>2010-05-15T09:19:53Z</time>
      </trkpt>
      <trkpt lat="48.58964" lon="1.73399">
        <ele>124</ele>
        <time>2010-05-15T09:19:55Z</time>
      </trkpt>
      <trkpt lat="48.58966" lon="1.734">
        <ele>124</ele>
        <time>2010-05-15T09:20:03Z</time>
      </trkpt>
      <trkpt lat="48.58967" lon="1.73398">
        <ele>125</ele>
        <time>2010-05-15T09:20:13Z</time>
      </trkpt>
      <trkpt lat="48.58967" lon="1.73401">
        <ele>125</ele>
        <time>2010-05-15T09:20:15Z</time>
      </trkpt>
      <trkpt lat="48.58967" lon="1.73403">
        <ele>125</ele>
        <time>2010-05-15T09:20:17Z</time>
      </trkpt>
      <trkpt lat="48.58966" lon="1.73405">
        <ele>125</ele>
        <time>2010-05-15T09:20:19Z</time>
      </trkpt>
      <trkpt lat="48.58965" lon="1.73408">
        <ele>125</ele>
        <time>2010-05-15T09:20:21Z</time>
      </trkpt>
      <trkpt lat="48.58964" lon="1.7341">
        <ele>125</ele>
        <time>2010-05-15T09:20:23Z</time>
      </trkpt>
      <trkpt lat="48.58966" lon="1.73409">
        <ele>125</ele>
        <time>2010-05-15T09:20:27Z</time>
      </trkpt>
      <trkpt lat="48.58966" lon="1.73407">
        <ele>125</ele>
        <time>2010-05-15T09:20:28Z</time>
      </trkpt>
      <trkpt lat="48.58966" lon="1.73405">
        <ele>125</ele>
        <time>2010-05-15T09:20:29Z</time>
      </trkpt>
      <trkpt lat="48.58966" lon="1.73403">
        <ele>125</ele>
        <time>2010-05-15T09:20:30Z</time>
      </trkpt>
      <trkpt lat="48.58967" lon="1.73401">
        <ele>125</ele>
        <time>2010-05-15T09:20:31Z</time>
      </trkpt>
      <trkpt lat="48.58967" lon="1.73399">
        <ele>125</ele>
        <time>2010-05-15T09:20:32Z</time>
      </trkpt>
      <trkpt lat="48.58968" lon="1.73397">
        <ele>125</ele>
        <time>2010-05-15T09:20:33Z</time>
      </trkpt>
      <trkpt lat="48.58968" lon="1.73395">
        <ele>125</ele>
        <time>2010-05-15T09:20:34Z</time>
      </trkpt>
      <trkpt lat="48.58968" lon="1.73393">
        <ele>125</ele>
        <time>2010-05-15T09:20:35Z</time>
      </trkpt>
      <trkpt lat="48.5897" lon="1.7339">
        <ele>125</ele>
        <time>2010-05-15T09:20:37Z</time>
      </trkpt>
      <trkpt lat="48.5897" lon="1.73388">
        <ele>125</ele>
        <time>2010-05-15T09:20:38Z</time>
      </trkpt>
      <trkpt lat="48.58971" lon="1.73385">
        <ele>125</ele>
        <time>2010-05-15T09:20:39Z</time>
      </trkpt>
      <trkpt lat="48.58971" lon="1.73383">
        <ele>125</ele>
        <time>2010-05-15T09:20:40Z</time>
      </trkpt>
      <trkpt lat="48.58972" lon="1.73381">
        <ele>125</ele>
        <time>2010-05-15T09:20:41Z</time>
      </trkpt>
      <trkpt lat="48.58973" lon="1.73378">
        <ele>125</ele>
        <time>2010-05-15T09:20:42Z</time>
      </trkpt>
      <trkpt lat="48.58973" lon="1.73376">
        <ele>125</ele>
        <time>2010-05-15T09:20:43Z</time>
      </trkpt>
      <trkpt lat="48.58974" lon="1.73374">
        <ele>125</ele>
        <time>2010-05-15T09:20:44Z</time>
      </trkpt>
      <trkpt lat="48.58974" lon="1.73371">
        <ele>125</ele>
        <time>2010-05-15T09:20:45Z</time>
      </trkpt>
      <trkpt lat="48.58975" lon="1.73369">
        <ele>125</ele>
        <time>2010-05-15T09:20:47Z</time>
      </trkpt>
      <trkpt lat="48.58974" lon="1.73366">
        <ele>125</ele>
        <time>2010-05-15T09:20:49Z</time>
      </trkpt>
      <trkpt lat="48.58973" lon="1.73364">
        <ele>125</ele>
        <time>2010-05-15T09:20:52Z</time>
      </trkpt>
      <trkpt lat="48.58973" lon="1.73362">
        <ele>125</ele>
        <time>2010-05-15T09:20:55Z</time>
      </trkpt>
      <trkpt lat="48.58973" lon="1.73361">
        <ele>126</ele>
        <time>2010-05-15T09:20:59Z</time>
      </trkpt>
      <trkpt lat="48.58974" lon="1.73361">
        <ele>127</ele>
        <time>2010-05-15T09:21:07Z</time>
      </trkpt>
      <trkpt lat="48.58975" lon="1.73358">
        <ele>130</ele>
        <time>2010-05-15T09:21:10Z</time>
      </trkpt>
      <trkpt lat="48.58976" lon="1.7336">
        <ele>134</ele>
        <time>2010-05-15T09:21:16Z</time>
      </trkpt>
      <trkpt lat="48.58975" lon="1.73362">
        <ele>134</ele>
        <time>2010-05-15T09:21:21Z</time>
      </trkpt>
      <trkpt lat="48.58973" lon="1.73359">
        <ele>134</ele>
        <time>2010-05-15T09:21:28Z</time>
      </trkpt>
      <trkpt lat="48.58972" lon="1.73359">
        <ele>134</ele>
        <time>2010-05-15T09:21:31Z</time>
      </trkpt>
      <trkpt lat="48.58972" lon="1.73357">
        <ele>135</ele>
        <time>2010-05-15T09:21:39Z</time>
      </trkpt>
      <trkpt lat="48.58973" lon="1.73355">
        <ele>136</ele>
        <time>2010-05-15T09:21:44Z</time>
      </trkpt>
      <trkpt lat="48.58974" lon="1.73355">
        <ele>140</ele>
        <time>2010-05-15T09:21:49Z</time>
      </trkpt>
      <trkpt lat="48.58973" lon="1.73354">
        <ele>140</ele>
        <time>2010-05-15T09:21:55Z</time>
      </trkpt>
      <trkpt lat="48.58971" lon="1.73353">
        <ele>140</ele>
        <time>2010-05-15T09:21:57Z</time>
      </trkpt>
      <trkpt lat="48.58971" lon="1.73352">
        <ele>140</ele>
        <time>2010-05-15T09:22:01Z</time>
      </trkpt>
      <trkpt lat="48.5897" lon="1.7335">
        <ele>140</ele>
        <time>2010-05-15T09:22:04Z</time>
      </trkpt>
      <trkpt lat="48.58971" lon="1.73352">
        <ele>140</ele>
        <time>2010-05-15T09:22:07Z</time>
      </trkpt>
      <trkpt lat="48.58969" lon="1.7335">
        <ele>140</ele>
        <time>2010-05-15T09:22:11Z</time>
      </trkpt>
      <trkpt lat="48.58969" lon="1.73348">
        <ele>140</ele>
        <time>2010-05-15T09:22:13Z</time>
      </trkpt>
      <trkpt lat="48.5897" lon="1.73347">
        <ele>140</ele>
        <time>2010-05-15T09:22:26Z</time>
      </trkpt>
      <trkpt lat="48.58971" lon="1.73347">
        <ele>140</ele>
        <time>2010-05-15T09:22:29Z</time>
      </trkpt>
      <trkpt lat="48.58971" lon="1.73345">
        <ele>140</ele>
        <time>2010-05-15T09:22:32Z</time>
      </trkpt>
      <trkpt lat="48.5897" lon="1.73347">
        <ele>140</ele>
        <time>2010-05-15T09:22:38Z</time>
      </trkpt>
      <trkpt lat="48.58971" lon="1.73349">
        <ele>140</ele>
        <time>2010-05-15T09:22:43Z</time>
      </trkpt>
      <trkpt lat="48.58972" lon="1.73349">
        <ele>140</ele>
        <time>2010-05-15T09:22:46Z</time>
      </trkpt>
      <trkpt lat="48.58974" lon="1.73351">
        <ele>142</ele>
        <time>2010-05-15T09:22:49Z</time>
      </trkpt>
      <trkpt lat="48.58975" lon="1.73352">
        <ele>142</ele>
        <time>2010-05-15T09:22:52Z</time>
      </trkpt>
      <trkpt lat="48.58974" lon="1.73354">
        <ele>142</ele>
        <time>2010-05-15T09:22:56Z</time>
      </trkpt>
      <trkpt lat="48.58973" lon="1.73354">
        <ele>142</ele>
        <time>2010-05-15T09:23:00Z</time>
      </trkpt>
      <trkpt lat="48.58971" lon="1.73353">
        <ele>142</ele>
        <time>2010-05-15T09:23:02Z</time>
      </trkpt>
      <trkpt lat="48.5897" lon="1.73354">
        <ele>140</ele>
        <time>2010-05-15T09:23:04Z</time>
      </trkpt>
      <trkpt lat="48.58969" lon="1.73356">
        <ele>138</ele>
        <time>2010-05-15T09:23:06Z</time>
      </trkpt>
      <trkpt lat="48.58969" lon="1.73358">
        <ele>134</ele>
        <time>2010-05-15T09:23:11Z</time>
      </trkpt>
      <trkpt lat="48.58969" lon="1.73359">
        <ele>134</ele>
        <time>2010-05-15T09:23:13Z</time>
      </trkpt>
      <trkpt lat="48.58967" lon="1.73361">
        <ele>134</ele>
        <time>2010-05-15T09:23:20Z</time>
      </trkpt>
      <trkpt lat="48.58966" lon="1.73363">
        <ele>134</ele>
        <time>2010-05-15T09:23:23Z</time>
      </trkpt>
      <trkpt lat="48.58965" lon="1.73364">
        <ele>134</ele>
        <time>2010-05-15T09:23:35Z</time>
      </trkpt>
      <trkpt lat="48.58964" lon="1.73362">
        <ele>134</ele>
        <time>2010-05-15T09:23:41Z</time>
      </trkpt>
      <trkpt lat="48.58966" lon="1.73362">
        <ele>134</ele>
        <time>2010-05-15T09:23:44Z</time>
      </trkpt>
      <trkpt lat="48.58967" lon="1.73362">
        <ele>134</ele>
        <time>2010-05-15T09:23:46Z</time>
      </trkpt>
      <trkpt lat="48.58967" lon="1.7336">
        <ele>134</ele>
        <time>2010-05-15T09:23:48Z</time>
      </trkpt>
      <trkpt lat="48.58969" lon="1.7336">
        <ele>134</ele>
        <time>2010-05-15T09:23:50Z</time>
      </trkpt>
      <trkpt lat="48.58969" lon="1.73362">
        <ele>134</ele>
        <time>2010-05-15T09:24:02Z</time>
      </trkpt>
      <trkpt lat="48.5897" lon="1.73363">
        <ele>131</ele>
        <time>2010-05-15T09:24:09Z</time>
      </trkpt>
      <trkpt lat="48.58971" lon="1.73364">
        <ele>129</ele>
        <time>2010-05-15T09:24:14Z</time>
      </trkpt>
      <trkpt lat="48.58972" lon="1.73366">
        <ele>128</ele>
        <time>2010-05-15T09:24:24Z</time>
      </trkpt>
      <trkpt lat="48.58973" lon="1.73368">
        <ele>128</ele>
        <time>2010-05-15T09:24:27Z</time>
      </trkpt>
      <trkpt lat="48.58972" lon="1.73366">
        <ele>128</ele>
        <time>2010-05-15T09:24:36Z</time>
      </trkpt>
      <trkpt lat="48.58971" lon="1.73363">
        <ele>129</ele>
        <time>2010-05-15T09:24:38Z</time>
      </trkpt>
      <trkpt lat="48.5897" lon="1.73362">
        <ele>130</ele>
        <time>2010-05-15T09:24:41Z</time>
      </trkpt>
      <trkpt lat="48.58968" lon="1.73361">
        <ele>130</ele>
        <time>2010-05-15T09:24:43Z</time>
      </trkpt>
      <trkpt lat="48.58969" lon="1.73359">
        <ele>131</ele>
        <time>2010-05-15T09:24:48Z</time>
      </trkpt>
      <trkpt lat="48.58967" lon="1.73359">
        <ele>132</ele>
        <time>2010-05-15T09:24:55Z</time>
      </trkpt>
      <trkpt lat="48.58966" lon="1.73359">
        <ele>132</ele>
        <time>2010-05-15T09:24:58Z</time>
      </trkpt>
      <trkpt lat="48.58965" lon="1.73357">
        <ele>132</ele>
        <time>2010-05-15T09:25:04Z</time>
      </trkpt>
      <trkpt lat="48.58966" lon="1.73355">
        <ele>132</ele>
        <time>2010-05-15T09:25:07Z</time>
      </trkpt>
      <trkpt lat="48.58966" lon="1.73353">
        <ele>132</ele>
        <time>2010-05-15T09:25:13Z</time>
      </trkpt>
      <trkpt lat="48.58964" lon="1.73353">
        <ele>132</ele>
        <time>2010-05-15T09:25:17Z</time>
      </trkpt>
      <trkpt lat="48.58964" lon="1.73355">
        <ele>131</ele>
        <time>2010-05-15T09:25:24Z</time>
      </trkpt>
      <trkpt lat="48.58965" lon="1.73356">
        <ele>131</ele>
        <time>2010-05-15T09:25:28Z</time>
      </trkpt>
      <trkpt lat="48.58966" lon="1.73357">
        <ele>131</ele>
        <time>2010-05-15T09:25:32Z</time>
      </trkpt>
      <trkpt lat="48.58968" lon="1.73357">
        <ele>131</ele>
        <time>2010-05-15T09:25:34Z</time>
      </trkpt>
      <trkpt lat="48.58967" lon="1.73358">
        <ele>133</ele>
        <time>2010-05-15T09:25:38Z</time>
      </trkpt>
      <trkpt lat="48.58965" lon="1.7336">
        <ele>134</ele>
        <time>2010-05-15T09:25:40Z</time>
      </trkpt>
      <trkpt lat="48.58964" lon="1.73361">
        <ele>134</ele>
        <time>2010-05-15T09:25:41Z</time>
      </trkpt>
      <trkpt lat="48.58962" lon="1.73364">
        <ele>134</ele>
        <time>2010-05-15T09:25:43Z</time>
      </trkpt>
      <trkpt lat="48.58961" lon="1.73367">
        <ele>134</ele>
        <time>2010-05-15T09:25:45Z</time>
      </trkpt>
      <trkpt lat="48.58959" lon="1.7337">
        <ele>134</ele>
        <time>2010-05-15T09:25:47Z</time>
      </trkpt>
      <trkpt lat="48.58958" lon="1.73372">
        <ele>134</ele>
        <time>2010-05-15T09:25:49Z</time>
      </trkpt>
      <trkpt lat="48.58956" lon="1.73375">
        <ele>134</ele>
        <time>2010-05-15T09:25:51Z</time>
      </trkpt>
      <trkpt lat="48.58955" lon="1.73376">
        <ele>134</ele>
        <time>2010-05-15T09:25:52Z</time>
      </trkpt>
      <trkpt lat="48.58954" lon="1.73379">
        <ele>134</ele>
        <time>2010-05-15T09:25:54Z</time>
      </trkpt>
      <trkpt lat="48.58953" lon="1.73379">
        <ele>135</ele>
        <time>2010-05-15T09:25:55Z</time>
      </trkpt>
      <trkpt lat="48.58952" lon="1.7338">
        <ele>135</ele>
        <time>2010-05-15T09:25:56Z</time>
      </trkpt>
      <trkpt lat="48.5895" lon="1.73381">
        <ele>136</ele>
        <time>2010-05-15T09:25:57Z</time>
      </trkpt>
      <trkpt lat="48.58949" lon="1.73382">
        <ele>136</ele>
        <time>2010-05-15T09:25:58Z</time>
      </trkpt>
      <trkpt lat="48.58947" lon="1.73382">
        <ele>136</ele>
        <time>2010-05-15T09:25:59Z</time>
      </trkpt>
      <trkpt lat="48.58946" lon="1.73383">
        <ele>136</ele>
        <time>2010-05-15T09:26:00Z</time>
      </trkpt>
      <trkpt lat="48.58945" lon="1.73384">
        <ele>137</ele>
        <time>2010-05-15T09:26:01Z</time>
      </trkpt>
      <trkpt lat="48.58943" lon="1.73385">
        <ele>137</ele>
        <time>2010-05-15T09:26:02Z</time>
      </trkpt>
      <trkpt lat="48.58942" lon="1.73386">
        <ele>137</ele>
        <time>2010-05-15T09:26:03Z</time>
      </trkpt>
      <trkpt lat="48.58941" lon="1.73387">
        <ele>137</ele>
        <time>2010-05-15T09:26:05Z</time>
      </trkpt>
      <trkpt lat="48.58939" lon="1.73389">
        <ele>138</ele>
        <time>2010-05-15T09:26:07Z</time>
      </trkpt>
      <trkpt lat="48.58938" lon="1.73391">
        <ele>139</ele>
        <time>2010-05-15T09:26:09Z</time>
      </trkpt>
      <trkpt lat="48.58936" lon="1.73394">
        <ele>139</ele>
        <time>2010-05-15T09:26:11Z</time>
      </trkpt>
      <trkpt lat="48.58935" lon="1.73396">
        <ele>139</ele>
        <time>2010-05-15T09:26:13Z</time>
      </trkpt>
      <trkpt lat="48.58934" lon="1.73397">
        <ele>139</ele>
        <time>2010-05-15T09:26:14Z</time>
      </trkpt>
      <trkpt lat="48.58933" lon="1.73399">
        <ele>139</ele>
        <time>2010-05-15T09:26:15Z</time>
      </trkpt>
      <trkpt lat="48.58932" lon="1.734">
        <ele>139</ele>
        <time>2010-05-15T09:26:16Z</time>
      </trkpt>
      <trkpt lat="48.58931" lon="1.73402">
        <ele>140</ele>
        <time>2010-05-15T09:26:17Z</time>
      </trkpt>
      <trkpt lat="48.58931" lon="1.73404">
        <ele>140</ele>
        <time>2010-05-15T09:26:18Z</time>
      </trkpt>
      <trkpt lat="48.58931" lon="1.73406">
        <ele>140</ele>
        <time>2010-05-15T09:26:20Z</time>
      </trkpt>
      <trkpt lat="48.5893" lon="1.73408">
        <ele>140</ele>
        <time>2010-05-15T09:26:22Z</time>
      </trkpt>
      <trkpt lat="48.58929" lon="1.7341">
        <ele>140</ele>
        <time>2010-05-15T09:26:24Z</time>
      </trkpt>
      <trkpt lat="48.58927" lon="1.73413">
        <ele>140</ele>
        <time>2010-05-15T09:26:26Z</time>
      </trkpt>
      <trkpt lat="48.58926" lon="1.73414">
        <ele>140</ele>
        <time>2010-05-15T09:26:27Z</time>
      </trkpt>
      <trkpt lat="48.58925" lon="1.73416">
        <ele>140</ele>
        <time>2010-05-15T09:26:28Z</time>
      </trkpt>
      <trkpt lat="48.58923" lon="1.73419">
        <ele>140</ele>
        <time>2010-05-15T09:26:30Z</time>
      </trkpt>
      <trkpt lat="48.58922" lon="1.73421">
        <ele>140</ele>
        <time>2010-05-15T09:26:31Z</time>
      </trkpt>
      <trkpt lat="48.58921" lon="1.73423">
        <ele>140</ele>
        <time>2010-05-15T09:26:32Z</time>
      </trkpt>
      <trkpt lat="48.58919" lon="1.73425">
        <ele>140</ele>
        <time>2010-05-15T09:26:33Z</time>
      </trkpt>
      <trkpt lat="48.58918" lon="1.73427">
        <ele>140</ele>
        <time>2010-05-15T09:26:34Z</time>
      </trkpt>
      <trkpt lat="48.58917" lon="1.73429">
        <ele>140</ele>
        <time>2010-05-15T09:26:35Z</time>
      </trkpt>
      <trkpt lat="48.58915" lon="1.73432">
        <ele>140</ele>
        <time>2010-05-15T09:26:36Z</time>
      </trkpt>
      <trkpt lat="48.58914" lon="1.73434">
        <ele>140</ele>
        <time>2010-05-15T09:26:37Z</time>
      </trkpt>
      <trkpt lat="48.58911" lon="1.73437">
        <ele>140</ele>
        <time>2010-05-15T09:26:39Z</time>
      </trkpt>
      <trkpt lat="48.5891" lon="1.73439">
        <ele>140</ele>
        <time>2010-05-15T09:26:40Z</time>
      </trkpt>
      <trkpt lat="48.58908" lon="1.73441">
        <ele>140</ele>
        <time>2010-05-15T09:26:42Z</time>
      </trkpt>
      <trkpt lat="48.58906" lon="1.73444">
        <ele>140</ele>
        <time>2010-05-15T09:26:44Z</time>
      </trkpt>
      <trkpt lat="48.58905" lon="1.73446">
        <ele>140</ele>
        <time>2010-05-15T09:26:45Z</time>
      </trkpt>
      <trkpt lat="48.58904" lon="1.73448">
        <ele>140</ele>
        <time>2010-05-15T09:26:46Z</time>
      </trkpt>
      <trkpt lat="48.58903" lon="1.7345">
        <ele>140</ele>
        <time>2010-05-15T09:26:47Z</time>
      </trkpt>
      <trkpt lat="48.58903" lon="1.73452">
        <ele>140</ele>
        <time>2010-05-15T09:26:48Z</time>
      </trkpt>
      <trkpt lat="48.58902" lon="1.73454">
        <ele>140</ele>
        <time>2010-05-15T09:26:49Z</time>
      </trkpt>
      <trkpt lat="48.58901" lon="1.73456">
        <ele>141</ele>
        <time>2010-05-15T09:26:50Z</time>
      </trkpt>
      <trkpt lat="48.58901" lon="1.73458">
        <ele>142</ele>
        <time>2010-05-15T09:26:51Z</time>
      </trkpt>
      <trkpt lat="48.589" lon="1.7346">
        <ele>143</ele>
        <time>2010-05-15T09:26:52Z</time>
      </trkpt>
      <trkpt lat="48.589" lon="1.73461">
        <ele>143</ele>
        <time>2010-05-15T09:26:53Z</time>
      </trkpt>
      <trkpt lat="48.58899" lon="1.73463">
        <ele>144</ele>
        <time>2010-05-15T09:26:54Z</time>
      </trkpt>
      <trkpt lat="48.58899" lon="1.73466">
        <ele>144</ele>
        <time>2010-05-15T09:26:56Z</time>
      </trkpt>
      <trkpt lat="48.58899" lon="1.73468">
        <ele>145</ele>
        <time>2010-05-15T09:26:57Z</time>
      </trkpt>
      <trkpt lat="48.58899" lon="1.73472">
        <ele>145</ele>
        <time>2010-05-15T09:26:59Z</time>
      </trkpt>
      <trkpt lat="48.58899" lon="1.73474">
        <ele>146</ele>
        <time>2010-05-15T09:27:00Z</time>
      </trkpt>
      <trkpt lat="48.58899" lon="1.73476">
        <ele>146</ele>
        <time>2010-05-15T09:27:01Z</time>
      </trkpt>
      <trkpt lat="48.58899" lon="1.73477">
        <ele>146</ele>
        <time>2010-05-15T09:27:02Z</time>
      </trkpt>
      <trkpt lat="48.58899" lon="1.73479">
        <ele>146</ele>
        <time>2010-05-15T09:27:03Z</time>
      </trkpt>
      <trkpt lat="48.58899" lon="1.73481">
        <ele>146</ele>
        <time>2010-05-15T09:27:04Z</time>
      </trkpt>
      <trkpt lat="48.58898" lon="1.73483">
        <ele>146</ele>
        <time>2010-05-15T09:27:05Z</time>
      </trkpt>
      <trkpt lat="48.58897" lon="1.73487">
        <ele>146</ele>
        <time>2010-05-15T09:27:07Z</time>
      </trkpt>
      <trkpt lat="48.58897" lon="1.73489">
        <ele>146</ele>
        <time>2010-05-15T09:27:08Z</time>
      </trkpt>
      <trkpt lat="48.58896" lon="1.73491">
        <ele>146</ele>
        <time>2010-05-15T09:27:09Z</time>
      </trkpt>
      <trkpt lat="48.58895" lon="1.73494">
        <ele>146</ele>
        <time>2010-05-15T09:27:10Z</time>
      </trkpt>
      <trkpt lat="48.58894" lon="1.73496">
        <ele>146</ele>
        <time>2010-05-15T09:27:11Z</time>
      </trkpt>
      <trkpt lat="48.58893" lon="1.73499">
        <ele>146</ele>
        <time>2010-05-15T09:27:12Z</time>
      </trkpt>
      <trkpt lat="48.58892" lon="1.73501">
        <ele>146</ele>
        <time>2010-05-15T09:27:13Z</time>
      </trkpt>
      <trkpt lat="48.58891" lon="1.73504">
        <ele>146</ele>
        <time>2010-05-15T09:27:14Z</time>
      </trkpt>
      <trkpt lat="48.58891" lon="1.73505">
        <ele>146</ele>
        <time>2010-05-15T09:27:15Z</time>
      </trkpt>
      <trkpt lat="48.5889" lon="1.73508">
        <ele>146</ele>
        <time>2010-05-15T09:27:16Z</time>
      </trkpt>
      <trkpt lat="48.58888" lon="1.73513">
        <ele>146</ele>
        <time>2010-05-15T09:27:17Z</time>
      </trkpt>
      <trkpt lat="48.58886" lon="1.73518">
        <ele>146</ele>
        <time>2010-05-15T09:27:18Z</time>
      </trkpt>
      <trkpt lat="48.58884" lon="1.73524">
        <ele>146</ele>
        <time>2010-05-15T09:27:19Z</time>
      </trkpt>
      <trkpt lat="48.58882" lon="1.7353">
        <ele>147</ele>
        <time>2010-05-15T09:27:20Z</time>
      </trkpt>
      <trkpt lat="48.5888" lon="1.73535">
        <ele>148</ele>
        <time>2010-05-15T09:27:21Z</time>
      </trkpt>
      <trkpt lat="48.58879" lon="1.73538">
        <ele>148</ele>
        <time>2010-05-15T09:27:22Z</time>
      </trkpt>
      <trkpt lat="48.58877" lon="1.73543">
        <ele>149</ele>
        <time>2010-05-15T09:27:23Z</time>
      </trkpt>
      <trkpt lat="48.58876" lon="1.73546">
        <ele>149</ele>
        <time>2010-05-15T09:27:24Z</time>
      </trkpt>
      <trkpt lat="48.58875" lon="1.73551">
        <ele>150</ele>
        <time>2010-05-15T09:27:25Z</time>
      </trkpt>
      <trkpt lat="48.58874" lon="1.73556">
        <ele>151</ele>
        <time>2010-05-15T09:27:26Z</time>
      </trkpt>
      <trkpt lat="48.58874" lon="1.7356">
        <ele>152</ele>
        <time>2010-05-15T09:27:27Z</time>
      </trkpt>
      <trkpt lat="48.58872" lon="1.73566">
        <ele>153</ele>
        <time>2010-05-15T09:27:28Z</time>
      </trkpt>
      <trkpt lat="48.58872" lon="1.7357">
        <ele>154</ele>
        <time>2010-05-15T09:27:29Z</time>
      </trkpt>
      <trkpt lat="48.58871" lon="1.73573">
        <ele>155</ele>
        <time>2010-05-15T09:27:30Z</time>
      </trkpt>
      <trkpt lat="48.5887" lon="1.73577">
        <ele>156</ele>
        <time>2010-05-15T09:27:31Z</time>
      </trkpt>
      <trkpt lat="48.58869" lon="1.73582">
        <ele>157</ele>
        <time>2010-05-15T09:27:32Z</time>
      </trkpt>
      <trkpt lat="48.58869" lon="1.73586">
        <ele>157</ele>
        <time>2010-05-15T09:27:33Z</time>
      </trkpt>
      <trkpt lat="48.58869" lon="1.73589">
        <ele>157</ele>
        <time>2010-05-15T09:27:34Z</time>
      </trkpt>
      <trkpt lat="48.58868" lon="1.73593">
        <ele>157</ele>
        <time>2010-05-15T09:27:35Z</time>
      </trkpt>
      <trkpt lat="48.58866" lon="1.73597">
        <ele>157</ele>
        <time>2010-05-15T09:27:36Z</time>
      </trkpt>
      <trkpt lat="48.58865" lon="1.73601">
        <ele>157</ele>
        <time>2010-05-15T09:27:37Z</time>
      </trkpt>
      <trkpt lat="48.58863" lon="1.73607">
        <ele>157</ele>
        <time>2010-05-15T09:27:38Z</time>
      </trkpt>
      <trkpt lat="48.58862" lon="1.73612">
        <ele>157</ele>
        <time>2010-05-15T09:27:39Z</time>
      </trkpt>
      <trkpt lat="48.58861" lon="1.73617">
        <ele>157</ele>
        <time>2010-05-15T09:27:40Z</time>
      </trkpt>
      <trkpt lat="48.58861" lon="1.7362">
        <ele>157</ele>
        <time>2010-05-15T09:27:41Z</time>
      </trkpt>
      <trkpt lat="48.5886" lon="1.73624">
        <ele>157</ele>
        <time>2010-05-15T09:27:42Z</time>
      </trkpt>
      <trkpt lat="48.58858" lon="1.73626">
        <ele>157</ele>
        <time>2010-05-15T09:27:43Z</time>
      </trkpt>
      <trkpt lat="48.58856" lon="1.73631">
        <ele>157</ele>
        <time>2010-05-15T09:27:44Z</time>
      </trkpt>
      <trkpt lat="48.58853" lon="1.73636">
        <ele>157</ele>
        <time>2010-05-15T09:27:45Z</time>
      </trkpt>
      <trkpt lat="48.5885" lon="1.73642">
        <ele>157</ele>
        <time>2010-05-15T09:27:46Z</time>
      </trkpt>
      <trkpt lat="48.58848" lon="1.73647">
        <ele>157</ele>
        <time>2010-05-15T09:27:47Z</time>
      </trkpt>
      <trkpt lat="48.58846" lon="1.73651">
        <ele>158</ele>
        <time>2010-05-15T09:27:48Z</time>
      </trkpt>
      <trkpt lat="48.58844" lon="1.73656">
        <ele>159</ele>
        <time>2010-05-15T09:27:49Z</time>
      </trkpt>
      <trkpt lat="48.5884" lon="1.73661">
        <ele>160</ele>
        <time>2010-05-15T09:27:50Z</time>
      </trkpt>
      <trkpt lat="48.58837" lon="1.73665">
        <ele>161</ele>
        <time>2010-05-15T09:27:51Z</time>
      </trkpt>
      <trkpt lat="48.58835" lon="1.73669">
        <ele>162</ele>
        <time>2010-05-15T09:27:52Z</time>
      </trkpt>
      <trkpt lat="48.58832" lon="1.73674">
        <ele>163</ele>
        <time>2010-05-15T09:27:53Z</time>
      </trkpt>
      <trkpt lat="48.58829" lon="1.73679">
        <ele>164</ele>
        <time>2010-05-15T09:27:54Z</time>
      </trkpt>
      <trkpt lat="48.58827" lon="1.73684">
        <ele>165</ele>
        <time>2010-05-15T09:27:55Z</time>
      </trkpt>
      <trkpt lat="48.58825" lon="1.7369">
        <ele>166</ele>
        <time>2010-05-15T09:27:56Z</time>
      </trkpt>
      <trkpt lat="48.58823" lon="1.73695">
        <ele>167</ele>
        <time>2010-05-15T09:27:57Z</time>
      </trkpt>
      <trkpt lat="48.5882" lon="1.73701">
        <ele>168</ele>
        <time>2010-05-15T09:27:58Z</time>
      </trkpt>
      <trkpt lat="48.58816" lon="1.73706">
        <ele>169</ele>
        <time>2010-05-15T09:27:59Z</time>
      </trkpt>
      <trkpt lat="48.58814" lon="1.7371">
        <ele>170</ele>
        <time>2010-05-15T09:28:00Z</time>
      </trkpt>
      <trkpt lat="48.58812" lon="1.73713">
        <ele>171</ele>
        <time>2010-05-15T09:28:01Z</time>
      </trkpt>
      <trkpt lat="48.58809" lon="1.73716">
        <ele>172</ele>
        <time>2010-05-15T09:28:02Z</time>
      </trkpt>
      <trkpt lat="48.58806" lon="1.7372">
        <ele>173</ele>
        <time>2010-05-15T09:28:03Z</time>
      </trkpt>
      <trkpt lat="48.58803" lon="1.73723">
        <ele>174</ele>
        <time>2010-05-15T09:28:04Z</time>
      </trkpt>
      <trkpt lat="48.58801" lon="1.73725">
        <ele>174</ele>
        <time>2010-05-15T09:28:05Z</time>
      </trkpt>
      <trkpt lat="48.58798" lon="1.73727">
        <ele>174</ele>
        <time>2010-05-15T09:28:06Z</time>
      </trkpt>
      <trkpt lat="48.58795" lon="1.73729">
        <ele>174</ele>
        <time>2010-05-15T09:28:07Z</time>
      </trkpt>
      <trkpt lat="48.58792" lon="1.73732">
        <ele>174</ele>
        <time>2010-05-15T09:28:08Z</time>
      </trkpt>
      <trkpt lat="48.58789" lon="1.73737">
        <ele>174</ele>
        <time>2010-05-15T09:28:09Z</time>
      </trkpt>
      <trkpt lat="48.58786" lon="1.73741">
        <ele>174</ele>
        <time>2010-05-15T09:28:10Z</time>
      </trkpt>
      <trkpt lat="48.58784" lon="1.73743">
        <ele>174</ele>
        <time>2010-05-15T09:28:11Z</time>
      </trkpt>
      <trkpt lat="48.58781" lon="1.73747">
        <ele>173</ele>
        <time>2010-05-15T09:28:12Z</time>
      </trkpt>
      <trkpt lat="48.58778" lon="1.73751">
        <ele>173</ele>
        <time>2010-05-15T09:28:13Z</time>
      </trkpt>
      <trkpt lat="48.58775" lon="1.73754">
        <ele>172</ele>
        <time>2010-05-15T09:28:14Z</time>
      </trkpt>
      <trkpt lat="48.58772" lon="1.73756">
        <ele>171</ele>
        <time>2010-05-15T09:28:15Z</time>
      </trkpt>
      <trkpt lat="48.58769" lon="1.73759">
        <ele>170</ele>
        <time>2010-05-15T09:28:16Z</time>
      </trkpt>
      <trkpt lat="48.58765" lon="1.73763">
        <ele>170</ele>
        <time>2010-05-15T09:28:17Z</time>
      </trkpt>
      <trkpt lat="48.58762" lon="1.73764">
        <ele>169</ele>
        <time>2010-05-15T09:28:18Z</time>
      </trkpt>
      <trkpt lat="48.58759" lon="1.73765">
        <ele>168</ele>
        <time>2010-05-15T09:28:19Z</time>
      </trkpt>
      <trkpt lat="48.58756" lon="1.73766">
        <ele>167</ele>
        <time>2010-05-15T09:28:20Z</time>
      </trkpt>
      <trkpt lat="48.58752" lon="1.73766">
        <ele>166</ele>
        <time>2010-05-15T09:28:21Z</time>
      </trkpt>
      <trkpt lat="48.58749" lon="1.73767">
        <ele>165</ele>
        <time>2010-05-15T09:28:22Z</time>
      </trkpt>
      <trkpt lat="48.58746" lon="1.73768">
        <ele>164</ele>
        <time>2010-05-15T09:28:23Z</time>
      </trkpt>
      <trkpt lat="48.58743" lon="1.73769">
        <ele>163</ele>
        <time>2010-05-15T09:28:24Z</time>
      </trkpt>
      <trkpt lat="48.58741" lon="1.73768">
        <ele>162</ele>
        <time>2010-05-15T09:28:25Z</time>
      </trkpt>
      <trkpt lat="48.58738" lon="1.73768">
        <ele>161</ele>
        <time>2010-05-15T09:28:26Z</time>
      </trkpt>
      <trkpt lat="48.58735" lon="1.73768">
        <ele>161</ele>
        <time>2010-05-15T09:28:27Z</time>
      </trkpt>
      <trkpt lat="48.58732" lon="1.73768">
        <ele>160</ele>
        <time>2010-05-15T09:28:28Z</time>
      </trkpt>
      <trkpt lat="48.58728" lon="1.73769">
        <ele>159</ele>
        <time>2010-05-15T09:28:29Z</time>
      </trkpt>
      <trkpt lat="48.58725" lon="1.73769">
        <ele>158</ele>
        <time>2010-05-15T09:28:30Z</time>
      </trkpt>
      <trkpt lat="48.58721" lon="1.7377">
        <ele>157</ele>
        <time>2010-05-15T09:28:31Z</time>
      </trkpt>
      <trkpt lat="48.58718" lon="1.73771">
        <ele>156</ele>
        <time>2010-05-15T09:28:32Z</time>
      </trkpt>
      <trkpt lat="48.58714" lon="1.73773">
        <ele>155</ele>
        <time>2010-05-15T09:28:33Z</time>
      </trkpt>
      <trkpt lat="48.5871" lon="1.73776">
        <ele>155</ele>
        <time>2010-05-15T09:28:34Z</time>
      </trkpt>
      <trkpt lat="48.58707" lon="1.73778">
        <ele>154</ele>
        <time>2010-05-15T09:28:35Z</time>
      </trkpt>
      <trkpt lat="48.58704" lon="1.73779">
        <ele>154</ele>
        <time>2010-05-15T09:28:36Z</time>
      </trkpt>
      <trkpt lat="48.587" lon="1.73782">
        <ele>154</ele>
        <time>2010-05-15T09:28:37Z</time>
      </trkpt>
      <trkpt lat="48.58696" lon="1.73783">
        <ele>154</ele>
        <time>2010-05-15T09:28:38Z</time>
      </trkpt>
      <trkpt lat="48.58693" lon="1.73784">
        <ele>153</ele>
        <time>2010-05-15T09:28:39Z</time>
      </trkpt>
      <trkpt lat="48.58689" lon="1.73786">
        <ele>153</ele>
        <time>2010-05-15T09:28:40Z</time>
      </trkpt>
      <trkpt lat="48.58685" lon="1.7379">
        <ele>153</ele>
        <time>2010-05-15T09:28:41Z</time>
      </trkpt>
      <trkpt lat="48.58681" lon="1.73792">
        <ele>153</ele>
        <time>2010-05-15T09:28:42Z</time>
      </trkpt>
      <trkpt lat="48.58677" lon="1.73797">
        <ele>153</ele>
        <time>2010-05-15T09:28:43Z</time>
      </trkpt>
      <trkpt lat="48.58673" lon="1.73801">
        <ele>153</ele>
        <time>2010-05-15T09:28:44Z</time>
      </trkpt>
      <trkpt lat="48.5867" lon="1.73803">
        <ele>153</ele>
        <time>2010-05-15T09:28:45Z</time>
      </trkpt>
      <trkpt lat="48.58666" lon="1.73807">
        <ele>153</ele>
        <time>2010-05-15T09:28:46Z</time>
      </trkpt>
      <trkpt lat="48.58662" lon="1.73812">
        <ele>153</ele>
        <time>2010-05-15T09:28:47Z</time>
      </trkpt>
      <trkpt lat="48.58659" lon="1.73815">
        <ele>153</ele>
        <time>2010-05-15T09:28:48Z</time>
      </trkpt>
      <trkpt lat="48.58656" lon="1.73818">
        <ele>153</ele>
        <time>2010-05-15T09:28:49Z</time>
      </trkpt>
      <trkpt lat="48.58652" lon="1.7382">
        <ele>153</ele>
        <time>2010-05-15T09:28:50Z</time>
      </trkpt>
      <trkpt lat="48.58647" lon="1.73823">
        <ele>154</ele>
        <time>2010-05-15T09:28:51Z</time>
      </trkpt>
      <trkpt lat="48.58643" lon="1.73826">
        <ele>154</ele>
        <time>2010-05-15T09:28:52Z</time>
      </trkpt>
      <trkpt lat="48.58639" lon="1.73828">
        <ele>154</ele>
        <time>2010-05-15T09:28:53Z</time>
      </trkpt>
      <trkpt lat="48.58635" lon="1.73831">
        <ele>154</ele>
        <time>2010-05-15T09:28:54Z</time>
      </trkpt>
      <trkpt lat="48.5863" lon="1.73833">
        <ele>154</ele>
        <time>2010-05-15T09:28:55Z</time>
      </trkpt>
      <trkpt lat="48.58626" lon="1.73834">
        <ele>154</ele>
        <time>2010-05-15T09:28:56Z</time>
      </trkpt>
      <trkpt lat="48.58621" lon="1.73835">
        <ele>154</ele>
        <time>2010-05-15T09:28:57Z</time>
      </trkpt>
      <trkpt lat="48.58616" lon="1.73835">
        <ele>154</ele>
        <time>2010-05-15T09:28:58Z</time>
      </trkpt>
      <trkpt lat="48.58612" lon="1.73835">
        <ele>154</ele>
        <time>2010-05-15T09:28:59Z</time>
      </trkpt>
      <trkpt lat="48.58607" lon="1.73836">
        <ele>154</ele>
        <time>2010-05-15T09:29:00Z</time>
      </trkpt>
      <trkpt lat="48.58603" lon="1.73836">
        <ele>154</ele>
        <time>2010-05-15T09:29:01Z</time>
      </trkpt>
      <trkpt lat="48.58598" lon="1.73837">
        <ele>154</ele>
        <time>2010-05-15T09:29:02Z</time>
      </trkpt>
      <trkpt lat="48.58594" lon="1.73837">
        <ele>154</ele>
        <time>2010-05-15T09:29:03Z</time>
      </trkpt>
      <trkpt lat="48.5859" lon="1.73838">
        <ele>153</ele>
        <time>2010-05-15T09:29:04Z</time>
      </trkpt>
      <trkpt lat="48.58586" lon="1.73839">
        <ele>153</ele>
        <time>2010-05-15T09:29:05Z</time>
      </trkpt>
      <trkpt lat="48.58581" lon="1.7384">
        <ele>152</ele>
        <time>2010-05-15T09:29:06Z</time>
      </trkpt>
      <trkpt lat="48.58577" lon="1.73841">
        <ele>152</ele>
        <time>2010-05-15T09:29:07Z</time>
      </trkpt>
      <trkpt lat="48.58573" lon="1.73841">
        <ele>152</ele>
        <time>2010-05-15T09:29:08Z</time>
      </trkpt>
      <trkpt lat="48.58568" lon="1.73842">
        <ele>152</ele>
        <time>2010-05-15T09:29:09Z</time>
      </trkpt>
      <trkpt lat="48.58564" lon="1.73843">
        <ele>152</ele>
        <time>2010-05-15T09:29:10Z</time>
      </trkpt>
      <trkpt lat="48.5856" lon="1.73843">
        <ele>152</ele>
        <time>2010-05-15T09:29:11Z</time>
      </trkpt>
      <trkpt lat="48.58555" lon="1.73842">
        <ele>151</ele>
        <time>2010-05-15T09:29:12Z</time>
      </trkpt>
      <trkpt lat="48.5855" lon="1.73842">
        <ele>151</ele>
        <time>2010-05-15T09:29:13Z</time>
      </trkpt>
      <trkpt lat="48.58546" lon="1.73844">
        <ele>151</ele>
        <time>2010-05-15T09:29:14Z</time>
      </trkpt>
      <trkpt lat="48.58541" lon="1.73845">
        <ele>151</ele>
        <time>2010-05-15T09:29:15Z</time>
      </trkpt>
      <trkpt lat="48.58536" lon="1.73847">
        <ele>151</ele>
        <time>2010-05-15T09:29:16Z</time>
      </trkpt>
      <trkpt lat="48.58532" lon="1.7385">
        <ele>151</ele>
        <time>2010-05-15T09:29:17Z</time>
      </trkpt>
      <trkpt lat="48.58528" lon="1.73852">
        <ele>151</ele>
        <time>2010-05-15T09:29:18Z</time>
      </trkpt>
      <trkpt lat="48.58524" lon="1.73853">
        <ele>151</ele>
        <time>2010-05-15T09:29:19Z</time>
      </trkpt>
      <trkpt lat="48.5852" lon="1.73855">
        <ele>151</ele>
        <time>2010-05-15T09:29:20Z</time>
      </trkpt>
      <trkpt lat="48.58517" lon="1.73856">
        <ele>151</ele>
        <time>2010-05-15T09:29:21Z</time>
      </trkpt>
      <trkpt lat="48.58514" lon="1.73858">
        <ele>151</ele>
        <time>2010-05-15T09:29:22Z</time>
      </trkpt>
      <trkpt lat="48.58511" lon="1.73859">
        <ele>151</ele>
        <time>2010-05-15T09:29:23Z</time>
      </trkpt>
      <trkpt lat="48.58509" lon="1.73861">
        <ele>151</ele>
        <time>2010-05-15T09:29:24Z</time>
      </trkpt>
      <trkpt lat="48.58506" lon="1.73864">
        <ele>151</ele>
        <time>2010-05-15T09:29:25Z</time>
      </trkpt>
      <trkpt lat="48.58504" lon="1.73866">
        <ele>151</ele>
        <time>2010-05-15T09:29:26Z</time>
      </trkpt>
      <trkpt lat="48.58503" lon="1.73869">
        <ele>151</ele>
        <time>2010-05-15T09:29:27Z</time>
      </trkpt>
      <trkpt lat="48.58501" lon="1.73871">
        <ele>151</ele>
        <time>2010-05-15T09:29:28Z</time>
      </trkpt>
      <trkpt lat="48.58499" lon="1.73874">
        <ele>151</ele>
        <time>2010-05-15T09:29:29Z</time>
      </trkpt>
      <trkpt lat="48.58496" lon="1.73878">
        <ele>151</ele>
        <time>2010-05-15T09:29:30Z</time>
      </trkpt>
      <trkpt lat="48.58494" lon="1.73882">
        <ele>151</ele>
        <time>2010-05-15T09:29:31Z</time>
      </trkpt>
      <trkpt lat="48.58492" lon="1.73887">
        <ele>151</ele>
        <time>2010-05-15T09:29:32Z</time>
      </trkpt>
      <trkpt lat="48.5849" lon="1.73892">
        <ele>151</ele>
        <time>2010-05-15T09:29:33Z</time>
      </trkpt>
      <trkpt lat="48.58488" lon="1.73897">
        <ele>152</ele>
        <time>2010-05-15T09:29:34Z</time>
      </trkpt>
      <trkpt lat="48.58487" lon="1.73899">
        <ele>153</ele>
        <time>2010-05-15T09:29:35Z</time>
      </trkpt>
      <trkpt lat="48.58486" lon="1.739">
        <ele>154</ele>
        <time>2010-05-15T09:29:38Z</time>
      </trkpt>
      <trkpt lat="48.58485" lon="1.73903">
        <ele>154</ele>
        <time>2010-05-15T09:29:40Z</time>
      </trkpt>
      <trkpt lat="48.58483" lon="1.73905">
        <ele>153</ele>
        <time>2010-05-15T09:29:42Z</time>
      </trkpt>
      <trkpt lat="48.58483" lon="1.73907">
        <ele>152</ele>
        <time>2010-05-15T09:29:43Z</time>
      </trkpt>
      <trkpt lat="48.58481" lon="1.7391">
        <ele>150</ele>
        <time>2010-05-15T09:29:45Z</time>
      </trkpt>
      <trkpt lat="48.5848" lon="1.73911">
        <ele>149</ele>
        <time>2010-05-15T09:29:46Z</time>
      </trkpt>
      <trkpt lat="48.58479" lon="1.73914">
        <ele>147</ele>
        <time>2010-05-15T09:29:48Z</time>
      </trkpt>
      <trkpt lat="48.58478" lon="1.73916">
        <ele>147</ele>
        <time>2010-05-15T09:29:49Z</time>
      </trkpt>
      <trkpt lat="48.58477" lon="1.73918">
        <ele>147</ele>
        <time>2010-05-15T09:29:50Z</time>
      </trkpt>
      <trkpt lat="48.58476" lon="1.7392">
        <ele>147</ele>
        <time>2010-05-15T09:29:51Z</time>
      </trkpt>
      <trkpt lat="48.58475" lon="1.73921">
        <ele>147</ele>
        <time>2010-05-15T09:29:52Z</time>
      </trkpt>
      <trkpt lat="48.58474" lon="1.73923">
        <ele>147</ele>
        <time>2010-05-15T09:29:54Z</time>
      </trkpt>
      <trkpt lat="48.58472" lon="1.73926">
        <ele>147</ele>
        <time>2010-05-15T09:29:56Z</time>
      </trkpt>
      <trkpt lat="48.5847" lon="1.73928">
        <ele>146</ele>
        <time>2010-05-15T09:29:59Z</time>
      </trkpt>
      <trkpt lat="48.58469" lon="1.73931">
        <ele>145</ele>
        <time>2010-05-15T09:30:01Z</time>
      </trkpt>
      <trkpt lat="48.58468" lon="1.73934">
        <ele>145</ele>
        <time>2010-05-15T09:30:02Z</time>
      </trkpt>
      <trkpt lat="48.58468" lon="1.73936">
        <ele>145</ele>
        <time>2010-05-15T09:30:03Z</time>
      </trkpt>
      <trkpt lat="48.58467" lon="1.73937">
        <ele>144</ele>
        <time>2010-05-15T09:30:04Z</time>
      </trkpt>
      <trkpt lat="48.58467" lon="1.7394">
        <ele>143</ele>
        <time>2010-05-15T09:30:06Z</time>
      </trkpt>
      <trkpt lat="48.58466" lon="1.73943">
        <ele>141</ele>
        <time>2010-05-15T09:30:08Z</time>
      </trkpt>
      <trkpt lat="48.58466" lon="1.73945">
        <ele>141</ele>
        <time>2010-05-15T09:30:09Z</time>
      </trkpt>
      <trkpt lat="48.58465" lon="1.73947">
        <ele>140</ele>
        <time>2010-05-15T09:30:10Z</time>
      </trkpt>
      <trkpt lat="48.58465" lon="1.73949">
        <ele>140</ele>
        <time>2010-05-15T09:30:11Z</time>
      </trkpt>
      <trkpt lat="48.58464" lon="1.73951">
        <ele>140</ele>
        <time>2010-05-15T09:30:12Z</time>
      </trkpt>
      <trkpt lat="48.58463" lon="1.73953">
        <ele>139</ele>
        <time>2010-05-15T09:30:13Z</time>
      </trkpt>
      <trkpt lat="48.58462" lon="1.73955">
        <ele>139</ele>
        <time>2010-05-15T09:30:14Z</time>
      </trkpt>
      <trkpt lat="48.58461" lon="1.73958">
        <ele>139</ele>
        <time>2010-05-15T09:30:15Z</time>
      </trkpt>
      <trkpt lat="48.5846" lon="1.7396">
        <ele>139</ele>
        <time>2010-05-15T09:30:16Z</time>
      </trkpt>
      <trkpt lat="48.58459" lon="1.73962">
        <ele>139</ele>
        <time>2010-05-15T09:30:17Z</time>
      </trkpt>
      <trkpt lat="48.58458" lon="1.73965">
        <ele>139</ele>
        <time>2010-05-15T09:30:18Z</time>
      </trkpt>
      <trkpt lat="48.58457" lon="1.73967">
        <ele>139</ele>
        <time>2010-05-15T09:30:19Z</time>
      </trkpt>
      <trkpt lat="48.58456" lon="1.7397">
        <ele>139</ele>
        <time>2010-05-15T09:30:20Z</time>
      </trkpt>
      <trkpt lat="48.58455" lon="1.73972">
        <ele>139</ele>
        <time>2010-05-15T09:30:21Z</time>
      </trkpt>
      <trkpt lat="48.58455" lon="1.73975">
        <ele>139</ele>
        <time>2010-05-15T09:30:22Z</time>
      </trkpt>
      <trkpt lat="48.58455" lon="1.73976">
        <ele>139</ele>
        <time>2010-05-15T09:30:23Z</time>
      </trkpt>
      <trkpt lat="48.58455" lon="1.7398">
        <ele>139</ele>
        <time>2010-05-15T09:30:25Z</time>
      </trkpt>
      <trkpt lat="48.58455" lon="1.73981">
        <ele>139</ele>
        <time>2010-05-15T09:30:26Z</time>
      </trkpt>
      <trkpt lat="48.58455" lon="1.73983">
        <ele>139</ele>
        <time>2010-05-15T09:30:27Z</time>
      </trkpt>
      <trkpt lat="48.58455" lon="1.73985">
        <ele>139</ele>
        <time>2010-05-15T09:30:28Z</time>
      </trkpt>
      <trkpt lat="48.58455" lon="1.73987">
        <ele>138</ele>
        <time>2010-05-15T09:30:29Z</time>
      </trkpt>
      <trkpt lat="48.58455" lon="1.73989">
        <ele>137</ele>
        <time>2010-05-15T09:30:30Z</time>
      </trkpt>
      <trkpt lat="48.58455" lon="1.73991">
        <ele>137</ele>
        <time>2010-05-15T09:30:31Z</time>
      </trkpt>
      <trkpt lat="48.58456" lon="1.73993">
        <ele>136</ele>
        <time>2010-05-15T09:30:32Z</time>
      </trkpt>
      <trkpt lat="48.58456" lon="1.73995">
        <ele>136</ele>
        <time>2010-05-15T09:30:33Z</time>
      </trkpt>
      <trkpt lat="48.58456" lon="1.73997">
        <ele>136</ele>
        <time>2010-05-15T09:30:34Z</time>
      </trkpt>
      <trkpt lat="48.58456" lon="1.73999">
        <ele>135</ele>
        <time>2010-05-15T09:30:35Z</time>
      </trkpt>
      <trkpt lat="48.58457" lon="1.74001">
        <ele>135</ele>
        <time>2010-05-15T09:30:36Z</time>
      </trkpt>
      <trkpt lat="48.58457" lon="1.74003">
        <ele>135</ele>
        <time>2010-05-15T09:30:37Z</time>
      </trkpt>
      <trkpt lat="48.58458" lon="1.74005">
        <ele>135</ele>
        <time>2010-05-15T09:30:38Z</time>
      </trkpt>
      <trkpt lat="48.58458" lon="1.74007">
        <ele>134</ele>
        <time>2010-05-15T09:30:39Z</time>
      </trkpt>
      <trkpt lat="48.58459" lon="1.74009">
        <ele>134</ele>
        <time>2010-05-15T09:30:40Z</time>
      </trkpt>
      <trkpt lat="48.5846" lon="1.7401">
        <ele>134</ele>
        <time>2010-05-15T09:30:41Z</time>
      </trkpt>
      <trkpt lat="48.58461" lon="1.74012">
        <ele>134</ele>
        <time>2010-05-15T09:30:42Z</time>
      </trkpt>
      <trkpt lat="48.58461" lon="1.74014">
        <ele>134</ele>
        <time>2010-05-15T09:30:43Z</time>
      </trkpt>
      <trkpt lat="48.58461" lon="1.74016">
        <ele>134</ele>
        <time>2010-05-15T09:30:44Z</time>
      </trkpt>
      <trkpt lat="48.58461" lon="1.74017">
        <ele>134</ele>
        <time>2010-05-15T09:30:45Z</time>
      </trkpt>
      <trkpt lat="48.58462" lon="1.74019">
        <ele>134</ele>
        <time>2010-05-15T09:30:46Z</time>
      </trkpt>
      <trkpt lat="48.58462" lon="1.74021">
        <ele>134</ele>
        <time>2010-05-15T09:30:47Z</time>
      </trkpt>
      <trkpt lat="48.58462" lon="1.74023">
        <ele>134</ele>
        <time>2010-05-15T09:30:48Z</time>
      </trkpt>
      <trkpt lat="48.58463" lon="1.74025">
        <ele>134</ele>
        <time>2010-05-15T09:30:49Z</time>
      </trkpt>
      <trkpt lat="48.58463" lon="1.74027">
        <ele>134</ele>
        <time>2010-05-15T09:30:50Z</time>
      </trkpt>
      <trkpt lat="48.58464" lon="1.74029">
        <ele>134</ele>
        <time>2010-05-15T09:30:51Z</time>
      </trkpt>
      <trkpt lat="48.58464" lon="1.74031">
        <ele>134</ele>
        <time>2010-05-15T09:30:52Z</time>
      </trkpt>
      <trkpt lat="48.58466" lon="1.74034">
        <ele>134</ele>
        <time>2010-05-15T09:30:54Z</time>
      </trkpt>
      <trkpt lat="48.58468" lon="1.74037">
        <ele>134</ele>
        <time>2010-05-15T09:30:56Z</time>
      </trkpt>
      <trkpt lat="48.58469" lon="1.74038">
        <ele>134</ele>
        <time>2010-05-15T09:30:57Z</time>
      </trkpt>
      <trkpt lat="48.58472" lon="1.7404">
        <ele>134</ele>
        <time>2010-05-15T09:30:59Z</time>
      </trkpt>
      <trkpt lat="48.58473" lon="1.74041">
        <ele>134</ele>
        <time>2010-05-15T09:31:00Z</time>
      </trkpt>
      <trkpt lat="48.58474" lon="1.74042">
        <ele>134</ele>
        <time>2010-05-15T09:31:01Z</time>
      </trkpt>
      <trkpt lat="48.58475" lon="1.74043">
        <ele>134</ele>
        <time>2010-05-15T09:31:02Z</time>
      </trkpt>
      <trkpt lat="48.58477" lon="1.74044">
        <ele>134</ele>
        <time>2010-05-15T09:31:03Z</time>
      </trkpt>
      <trkpt lat="48.58478" lon="1.74044">
        <ele>133</ele>
        <time>2010-05-15T09:31:04Z</time>
      </trkpt>
      <trkpt lat="48.58479" lon="1.74045">
        <ele>133</ele>
        <time>2010-05-15T09:31:05Z</time>
      </trkpt>
      <trkpt lat="48.58481" lon="1.74046">
        <ele>133</ele>
        <time>2010-05-15T09:31:06Z</time>
      </trkpt>
      <trkpt lat="48.58482" lon="1.74047">
        <ele>133</ele>
        <time>2010-05-15T09:31:07Z</time>
      </trkpt>
      <trkpt lat="48.58483" lon="1.74048">
        <ele>133</ele>
        <time>2010-05-15T09:31:08Z</time>
      </trkpt>
      <trkpt lat="48.58484" lon="1.74049">
        <ele>133</ele>
        <time>2010-05-15T09:31:09Z</time>
      </trkpt>
      <trkpt lat="48.58486" lon="1.7405">
        <ele>132</ele>
        <time>2010-05-15T09:31:10Z</time>
      </trkpt>
      <trkpt lat="48.58487" lon="1.74051">
        <ele>132</ele>
        <time>2010-05-15T09:31:11Z</time>
      </trkpt>
      <trkpt lat="48.58488" lon="1.74052">
        <ele>132</ele>
        <time>2010-05-15T09:31:12Z</time>
      </trkpt>
      <trkpt lat="48.5849" lon="1.74053">
        <ele>132</ele>
        <time>2010-05-15T09:31:13Z</time>
      </trkpt>
      <trkpt lat="48.58491" lon="1.74054">
        <ele>132</ele>
        <time>2010-05-15T09:31:14Z</time>
      </trkpt>
      <trkpt lat="48.58492" lon="1.74055">
        <ele>132</ele>
        <time>2010-05-15T09:31:15Z</time>
      </trkpt>
      <trkpt lat="48.58494" lon="1.74056">
        <ele>132</ele>
        <time>2010-05-15T09:31:16Z</time>
      </trkpt>
      <trkpt lat="48.58495" lon="1.74057">
        <ele>132</ele>
        <time>2010-05-15T09:31:17Z</time>
      </trkpt>
      <trkpt lat="48.58496" lon="1.74058">
        <ele>132</ele>
        <time>2010-05-15T09:31:18Z</time>
      </trkpt>
      <trkpt lat="48.58497" lon="1.74059">
        <ele>132</ele>
        <time>2010-05-15T09:31:19Z</time>
      </trkpt>
      <trkpt lat="48.58499" lon="1.74059">
        <ele>132</ele>
        <time>2010-05-15T09:31:20Z</time>
      </trkpt>
      <trkpt lat="48.585" lon="1.7406">
        <ele>132</ele>
        <time>2010-05-15T09:31:21Z</time>
      </trkpt>
      <trkpt lat="48.58502" lon="1.74061">
        <ele>132</ele>
        <time>2010-05-15T09:31:22Z</time>
      </trkpt>
      <trkpt lat="48.58503" lon="1.74062">
        <ele>132</ele>
        <time>2010-05-15T09:31:23Z</time>
      </trkpt>
      <trkpt lat="48.58504" lon="1.74063">
        <ele>132</ele>
        <time>2010-05-15T09:31:24Z</time>
      </trkpt>
      <trkpt lat="48.58506" lon="1.74064">
        <ele>132</ele>
        <time>2010-05-15T09:31:26Z</time>
      </trkpt>
      <trkpt lat="48.58508" lon="1.74065">
        <ele>132</ele>
        <time>2010-05-15T09:31:28Z</time>
      </trkpt>
      <trkpt lat="48.58509" lon="1.74067">
        <ele>132</ele>
        <time>2010-05-15T09:31:30Z</time>
      </trkpt>
      <trkpt lat="48.58511" lon="1.7407">
        <ele>132</ele>
        <time>2010-05-15T09:31:32Z</time>
      </trkpt>
      <trkpt lat="48.58512" lon="1.74073">
        <ele>132</ele>
        <time>2010-05-15T09:31:34Z</time>
      </trkpt>
      <trkpt lat="48.58513" lon="1.74076">
        <ele>132</ele>
        <time>2010-05-15T09:31:36Z</time>
      </trkpt>
      <trkpt lat="48.58513" lon="1.74078">
        <ele>132</ele>
        <time>2010-05-15T09:31:37Z</time>
      </trkpt>
      <trkpt lat="48.58513" lon="1.7408">
        <ele>132</ele>
        <time>2010-05-15T09:31:38Z</time>
      </trkpt>
      <trkpt lat="48.58514" lon="1.74083">
        <ele>132</ele>
        <time>2010-05-15T09:31:39Z</time>
      </trkpt>
      <trkpt lat="48.58514" lon="1.74085">
        <ele>132</ele>
        <time>2010-05-15T09:31:40Z</time>
      </trkpt>
      <trkpt lat="48.58514" lon="1.74087">
        <ele>132</ele>
        <time>2010-05-15T09:31:41Z</time>
      </trkpt>
      <trkpt lat="48.58514" lon="1.74089">
        <ele>132</ele>
        <time>2010-05-15T09:31:42Z</time>
      </trkpt>
      <trkpt lat="48.58514" lon="1.74092">
        <ele>132</ele>
        <time>2010-05-15T09:31:43Z</time>
      </trkpt>
      <trkpt lat="48.58515" lon="1.74094">
        <ele>132</ele>
        <time>2010-05-15T09:31:45Z</time>
      </trkpt>
      <trkpt lat="48.58515" lon="1.74097">
        <ele>132</ele>
        <time>2010-05-15T09:31:47Z</time>
      </trkpt>
      <trkpt lat="48.58515" lon="1.74099">
        <ele>132</ele>
        <time>2010-05-15T09:31:48Z</time>
      </trkpt>
      <trkpt lat="48.58514" lon="1.74097">
        <ele>132</ele>
        <time>2010-05-15T09:31:58Z</time>
      </trkpt>
      <trkpt lat="48.58513" lon="1.74099">
        <ele>132</ele>
        <time>2010-05-15T09:32:02Z</time>
      </trkpt>
      <trkpt lat="48.58513" lon="1.74102">
        <ele>132</ele>
        <time>2010-05-15T09:32:04Z</time>
      </trkpt>
      <trkpt lat="48.58511" lon="1.74104">
        <ele>132</ele>
        <time>2010-05-15T09:32:06Z</time>
      </trkpt>
      <trkpt lat="48.5851" lon="1.74107">
        <ele>132</ele>
        <time>2010-05-15T09:32:08Z</time>
      </trkpt>
      <trkpt lat="48.58508" lon="1.74109">
        <ele>132</ele>
        <time>2010-05-15T09:32:10Z</time>
      </trkpt>
      <trkpt lat="48.58506" lon="1.74112">
        <ele>132</ele>
        <time>2010-05-15T09:32:12Z</time>
      </trkpt>
      <trkpt lat="48.58504" lon="1.74113">
        <ele>132</ele>
        <time>2010-05-15T09:32:14Z</time>
      </trkpt>
      <trkpt lat="48.58503" lon="1.74114">
        <ele>132</ele>
        <time>2010-05-15T09:32:15Z</time>
      </trkpt>
      <trkpt lat="48.58502" lon="1.74114">
        <ele>132</ele>
        <time>2010-05-15T09:32:16Z</time>
      </trkpt>
      <trkpt lat="48.58501" lon="1.74115">
        <ele>132</ele>
        <time>2010-05-15T09:32:17Z</time>
      </trkpt>
      <trkpt lat="48.585" lon="1.74115">
        <ele>132</ele>
        <time>2010-05-15T09:32:18Z</time>
      </trkpt>
      <trkpt lat="48.58498" lon="1.74116">
        <ele>132</ele>
        <time>2010-05-15T09:32:19Z</time>
      </trkpt>
      <trkpt lat="48.58497" lon="1.74116">
        <ele>132</ele>
        <time>2010-05-15T09:32:20Z</time>
      </trkpt>
      <trkpt lat="48.58496" lon="1.74117">
        <ele>133</ele>
        <time>2010-05-15T09:32:21Z</time>
      </trkpt>
      <trkpt lat="48.58495" lon="1.74117">
        <ele>133</ele>
        <time>2010-05-15T09:32:22Z</time>
      </trkpt>
      <trkpt lat="48.58493" lon="1.74118">
        <ele>133</ele>
        <time>2010-05-15T09:32:23Z</time>
      </trkpt>
      <trkpt lat="48.58492" lon="1.74118">
        <ele>133</ele>
        <time>2010-05-15T09:32:24Z</time>
      </trkpt>
      <trkpt lat="48.58491" lon="1.74118">
        <ele>133</ele>
        <time>2010-05-15T09:32:25Z</time>
      </trkpt>
      <trkpt lat="48.58489" lon="1.74118">
        <ele>133</ele>
        <time>2010-05-15T09:32:26Z</time>
      </trkpt>
      <trkpt lat="48.58488" lon="1.74118">
        <ele>133</ele>
        <time>2010-05-15T09:32:27Z</time>
      </trkpt>
      <trkpt lat="48.58486" lon="1.74119">
        <ele>133</ele>
        <time>2010-05-15T09:32:29Z</time>
      </trkpt>
      <trkpt lat="48.58484" lon="1.74119">
        <ele>133</ele>
        <time>2010-05-15T09:32:31Z</time>
      </trkpt>
      <trkpt lat="48.58482" lon="1.74119">
        <ele>133</ele>
        <time>2010-05-15T09:32:32Z</time>
      </trkpt>
      <trkpt lat="48.5848" lon="1.74119">
        <ele>133</ele>
        <time>2010-05-15T09:32:33Z</time>
      </trkpt>
      <trkpt lat="48.58479" lon="1.74119">
        <ele>133</ele>
        <time>2010-05-15T09:32:34Z</time>
      </trkpt>
      <trkpt lat="48.58478" lon="1.74119">
        <ele>133</ele>
        <time>2010-05-15T09:32:35Z</time>
      </trkpt>
      <trkpt lat="48.58477" lon="1.74119">
        <ele>133</ele>
        <time>2010-05-15T09:32:36Z</time>
      </trkpt>
      <trkpt lat="48.58476" lon="1.7412">
        <ele>133</ele>
        <time>2010-05-15T09:32:37Z</time>
      </trkpt>
      <trkpt lat="48.58474" lon="1.74121">
        <ele>133</ele>
        <time>2010-05-15T09:32:38Z</time>
      </trkpt>
      <trkpt lat="48.58473" lon="1.74121">
        <ele>133</ele>
        <time>2010-05-15T09:32:39Z</time>
      </trkpt>
      <trkpt lat="48.58472" lon="1.74123">
        <ele>133</ele>
        <time>2010-05-15T09:32:40Z</time>
      </trkpt>
      <trkpt lat="48.5847" lon="1.74125">
        <ele>133</ele>
        <time>2010-05-15T09:32:41Z</time>
      </trkpt>
      <trkpt lat="48.58469" lon="1.74126">
        <ele>133</ele>
        <time>2010-05-15T09:32:42Z</time>
      </trkpt>
      <trkpt lat="48.58468" lon="1.74127">
        <ele>133</ele>
        <time>2010-05-15T09:32:43Z</time>
      </trkpt>
      <trkpt lat="48.58466" lon="1.74129">
        <ele>134</ele>
        <time>2010-05-15T09:32:45Z</time>
      </trkpt>
      <trkpt lat="48.58465" lon="1.74132">
        <ele>135</ele>
        <time>2010-05-15T09:32:47Z</time>
      </trkpt>
      <trkpt lat="48.58463" lon="1.74135">
        <ele>135</ele>
        <time>2010-05-15T09:32:49Z</time>
      </trkpt>
      <trkpt lat="48.58462" lon="1.74138">
        <ele>136</ele>
        <time>2010-05-15T09:32:50Z</time>
      </trkpt>
      <trkpt lat="48.58461" lon="1.74139">
        <ele>137</ele>
        <time>2010-05-15T09:32:51Z</time>
      </trkpt>
      <trkpt lat="48.5846" lon="1.74142">
        <ele>139</ele>
        <time>2010-05-15T09:32:53Z</time>
      </trkpt>
      <trkpt lat="48.5846" lon="1.74144">
        <ele>140</ele>
        <time>2010-05-15T09:32:55Z</time>
      </trkpt>
      <trkpt lat="48.58459" lon="1.74148">
        <ele>140</ele>
        <time>2010-05-15T09:32:57Z</time>
      </trkpt>
      <trkpt lat="48.58457" lon="1.74151">
        <ele>141</ele>
        <time>2010-05-15T09:32:58Z</time>
      </trkpt>
      <trkpt lat="48.58457" lon="1.74152">
        <ele>141</ele>
        <time>2010-05-15T09:32:59Z</time>
      </trkpt>
      <trkpt lat="48.58456" lon="1.74155">
        <ele>142</ele>
        <time>2010-05-15T09:33:00Z</time>
      </trkpt>
      <trkpt lat="48.58455" lon="1.74158">
        <ele>143</ele>
        <time>2010-05-15T09:33:02Z</time>
      </trkpt>
      <trkpt lat="48.58454" lon="1.7416">
        <ele>143</ele>
        <time>2010-05-15T09:33:03Z</time>
      </trkpt>
      <trkpt lat="48.58453" lon="1.74163">
        <ele>144</ele>
        <time>2010-05-15T09:33:04Z</time>
      </trkpt>
      <trkpt lat="48.58452" lon="1.74166">
        <ele>145</ele>
        <time>2010-05-15T09:33:05Z</time>
      </trkpt>
      <trkpt lat="48.58451" lon="1.74169">
        <ele>146</ele>
        <time>2010-05-15T09:33:06Z</time>
      </trkpt>
      <trkpt lat="48.58451" lon="1.74171">
        <ele>147</ele>
        <time>2010-05-15T09:33:07Z</time>
      </trkpt>
      <trkpt lat="48.58451" lon="1.74173">
        <ele>148</ele>
        <time>2010-05-15T09:33:08Z</time>
      </trkpt>
      <trkpt lat="48.58451" lon="1.74175">
        <ele>149</ele>
        <time>2010-05-15T09:33:09Z</time>
      </trkpt>
      <trkpt lat="48.58451" lon="1.74178">
        <ele>150</ele>
        <time>2010-05-15T09:33:10Z</time>
      </trkpt>
      <trkpt lat="48.58451" lon="1.7418">
        <ele>151</ele>
        <time>2010-05-15T09:33:11Z</time>
      </trkpt>
      <trkpt lat="48.58451" lon="1.74183">
        <ele>151</ele>
        <time>2010-05-15T09:33:12Z</time>
      </trkpt>
      <trkpt lat="48.58451" lon="1.74185">
        <ele>151</ele>
        <time>2010-05-15T09:33:13Z</time>
      </trkpt>
      <trkpt lat="48.58451" lon="1.74188">
        <ele>151</ele>
        <time>2010-05-15T09:33:14Z</time>
      </trkpt>
      <trkpt lat="48.58451" lon="1.7419">
        <ele>151</ele>
        <time>2010-05-15T09:33:15Z</time>
      </trkpt>
      <trkpt lat="48.58452" lon="1.74193">
        <ele>151</ele>
        <time>2010-05-15T09:33:17Z</time>
      </trkpt>
      <trkpt lat="48.58452" lon="1.74195">
        <ele>151</ele>
        <time>2010-05-15T09:33:18Z</time>
      </trkpt>
      <trkpt lat="48.58453" lon="1.74197">
        <ele>151</ele>
        <time>2010-05-15T09:33:19Z</time>
      </trkpt>
      <trkpt lat="48.58453" lon="1.74199">
        <ele>150</ele>
        <time>2010-05-15T09:33:20Z</time>
      </trkpt>
      <trkpt lat="48.58453" lon="1.74201">
        <ele>150</ele>
        <time>2010-05-15T09:33:21Z</time>
      </trkpt>
      <trkpt lat="48.58454" lon="1.74203">
        <ele>149</ele>
        <time>2010-05-15T09:33:22Z</time>
      </trkpt>
      <trkpt lat="48.58454" lon="1.74205">
        <ele>149</ele>
        <time>2010-05-15T09:33:23Z</time>
      </trkpt>
      <trkpt lat="48.58455" lon="1.74206">
        <ele>149</ele>
        <time>2010-05-15T09:33:24Z</time>
      </trkpt>
      <trkpt lat="48.58455" lon="1.74209">
        <ele>149</ele>
        <time>2010-05-15T09:33:25Z</time>
      </trkpt>
      <trkpt lat="48.58454" lon="1.74212">
        <ele>149</ele>
        <time>2010-05-15T09:33:26Z</time>
      </trkpt>
      <trkpt lat="48.58455" lon="1.74215">
        <ele>149</ele>
        <time>2010-05-15T09:33:27Z</time>
      </trkpt>
      <trkpt lat="48.58455" lon="1.74217">
        <ele>148</ele>
        <time>2010-05-15T09:33:28Z</time>
      </trkpt>
      <trkpt lat="48.58456" lon="1.7422">
        <ele>147</ele>
        <time>2010-05-15T09:33:29Z</time>
      </trkpt>
      <trkpt lat="48.58457" lon="1.74222">
        <ele>147</ele>
        <time>2010-05-15T09:33:30Z</time>
      </trkpt>
      <trkpt lat="48.58458" lon="1.74224">
        <ele>146</ele>
        <time>2010-05-15T09:33:31Z</time>
      </trkpt>
      <trkpt lat="48.58458" lon="1.74227">
        <ele>146</ele>
        <time>2010-05-15T09:33:32Z</time>
      </trkpt>
      <trkpt lat="48.58459" lon="1.74228">
        <ele>145</ele>
        <time>2010-05-15T09:33:34Z</time>
      </trkpt>
      <trkpt lat="48.58459" lon="1.74231">
        <ele>144</ele>
        <time>2010-05-15T09:33:36Z</time>
      </trkpt>
      <trkpt lat="48.58459" lon="1.74234">
        <ele>144</ele>
        <time>2010-05-15T09:33:37Z</time>
      </trkpt>
      <trkpt lat="48.5846" lon="1.74236">
        <ele>143</ele>
        <time>2010-05-15T09:33:38Z</time>
      </trkpt>
      <trkpt lat="48.5846" lon="1.74238">
        <ele>143</ele>
        <time>2010-05-15T09:33:39Z</time>
      </trkpt>
      <trkpt lat="48.58461" lon="1.7424">
        <ele>143</ele>
        <time>2010-05-15T09:33:40Z</time>
      </trkpt>
      <trkpt lat="48.58461" lon="1.74244">
        <ele>143</ele>
        <time>2010-05-15T09:33:41Z</time>
      </trkpt>
      <trkpt lat="48.58461" lon="1.74246">
        <ele>143</ele>
        <time>2010-05-15T09:33:42Z</time>
      </trkpt>
      <trkpt lat="48.58461" lon="1.74248">
        <ele>143</ele>
        <time>2010-05-15T09:33:43Z</time>
      </trkpt>
      <trkpt lat="48.58461" lon="1.74251">
        <ele>143</ele>
        <time>2010-05-15T09:33:44Z</time>
      </trkpt>
      <trkpt lat="48.58461" lon="1.74254">
        <ele>143</ele>
        <time>2010-05-15T09:33:45Z</time>
      </trkpt>
      <trkpt lat="48.58462" lon="1.74256">
        <ele>143</ele>
        <time>2010-05-15T09:33:46Z</time>
      </trkpt>
      <trkpt lat="48.58462" lon="1.74258">
        <ele>143</ele>
        <time>2010-05-15T09:33:47Z</time>
      </trkpt>
      <trkpt lat="48.58462" lon="1.7426">
        <ele>143</ele>
        <time>2010-05-15T09:33:48Z</time>
      </trkpt>
      <trkpt lat="48.58462" lon="1.74263">
        <ele>142</ele>
        <time>2010-05-15T09:33:49Z</time>
      </trkpt>
      <trkpt lat="48.58462" lon="1.74266">
        <ele>142</ele>
        <time>2010-05-15T09:33:50Z</time>
      </trkpt>
      <trkpt lat="48.58462" lon="1.74269">
        <ele>142</ele>
        <time>2010-05-15T09:33:51Z</time>
      </trkpt>
      <trkpt lat="48.58462" lon="1.74273">
        <ele>142</ele>
        <time>2010-05-15T09:33:52Z</time>
      </trkpt>
      <trkpt lat="48.58463" lon="1.74275">
        <ele>142</ele>
        <time>2010-05-15T09:33:53Z</time>
      </trkpt>
      <trkpt lat="48.58463" lon="1.74278">
        <ele>142</ele>
        <time>2010-05-15T09:33:54Z</time>
      </trkpt>
      <trkpt lat="48.58463" lon="1.74281">
        <ele>142</ele>
        <time>2010-05-15T09:33:55Z</time>
      </trkpt>
      <trkpt lat="48.58464" lon="1.74284">
        <ele>142</ele>
        <time>2010-05-15T09:33:56Z</time>
      </trkpt>
      <trkpt lat="48.58464" lon="1.74286">
        <ele>142</ele>
        <time>2010-05-15T09:33:57Z</time>
      </trkpt>
      <trkpt lat="48.58465" lon="1.74289">
        <ele>142</ele>
        <time>2010-05-15T09:33:58Z</time>
      </trkpt>
      <trkpt lat="48.58465" lon="1.74291">
        <ele>142</ele>
        <time>2010-05-15T09:33:59Z</time>
      </trkpt>
      <trkpt lat="48.58465" lon="1.74294">
        <ele>142</ele>
        <time>2010-05-15T09:34:00Z</time>
      </trkpt>
      <trkpt lat="48.58465" lon="1.74296">
        <ele>142</ele>
        <time>2010-05-15T09:34:01Z</time>
      </trkpt>
      <trkpt lat="48.58465" lon="1.74298">
        <ele>142</ele>
        <time>2010-05-15T09:34:02Z</time>
      </trkpt>
      <trkpt lat="48.58465" lon="1.74301">
        <ele>142</ele>
        <time>2010-05-15T09:34:03Z</time>
      </trkpt>
      <trkpt lat="48.58465" lon="1.74303">
        <ele>142</ele>
        <time>2010-05-15T09:34:04Z</time>
      </trkpt>
      <trkpt lat="48.58465" lon="1.74305">
        <ele>142</ele>
        <time>2010-05-15T09:34:05Z</time>
      </trkpt>
      <trkpt lat="48.58465" lon="1.74307">
        <ele>142</ele>
        <time>2010-05-15T09:34:06Z</time>
      </trkpt>
      <trkpt lat="48.58465" lon="1.74309">
        <ele>142</ele>
        <time>2010-05-15T09:34:07Z</time>
      </trkpt>
      <trkpt lat="48.58465" lon="1.74311">
        <ele>142</ele>
        <time>2010-05-15T09:34:08Z</time>
      </trkpt>
      <trkpt lat="48.58465" lon="1.74314">
        <ele>142</ele>
        <time>2010-05-15T09:34:09Z</time>
      </trkpt>
      <trkpt lat="48.58465" lon="1.74316">
        <ele>142</ele>
        <time>2010-05-15T09:34:10Z</time>
      </trkpt>
      <trkpt lat="48.58465" lon="1.74318">
        <ele>143</ele>
        <time>2010-05-15T09:34:11Z</time>
      </trkpt>
      <trkpt lat="48.58465" lon="1.74321">
        <ele>143</ele>
        <time>2010-05-15T09:34:12Z</time>
      </trkpt>
      <trkpt lat="48.58465" lon="1.74323">
        <ele>144</ele>
        <time>2010-05-15T09:34:13Z</time>
      </trkpt>
      <trkpt lat="48.58465" lon="1.74327">
        <ele>144</ele>
        <time>2010-05-15T09:34:14Z</time>
      </trkpt>
      <trkpt lat="48.58465" lon="1.74329">
        <ele>144</ele>
        <time>2010-05-15T09:34:15Z</time>
      </trkpt>
      <trkpt lat="48.58466" lon="1.74331">
        <ele>144</ele>
        <time>2010-05-15T09:34:16Z</time>
      </trkpt>
      <trkpt lat="48.58466" lon="1.74334">
        <ele>144</ele>
        <time>2010-05-15T09:34:17Z</time>
      </trkpt>
      <trkpt lat="48.58467" lon="1.74336">
        <ele>144</ele>
        <time>2010-05-15T09:34:18Z</time>
      </trkpt>
      <trkpt lat="48.58468" lon="1.74338">
        <ele>144</ele>
        <time>2010-05-15T09:34:19Z</time>
      </trkpt>
      <trkpt lat="48.58468" lon="1.7434">
        <ele>144</ele>
        <time>2010-05-15T09:34:20Z</time>
      </trkpt>
      <trkpt lat="48.58468" lon="1.74343">
        <ele>144</ele>
        <time>2010-05-15T09:34:21Z</time>
      </trkpt>
      <trkpt lat="48.58468" lon="1.74346">
        <ele>144</ele>
        <time>2010-05-15T09:34:22Z</time>
      </trkpt>
      <trkpt lat="48.58468" lon="1.74348">
        <ele>144</ele>
        <time>2010-05-15T09:34:23Z</time>
      </trkpt>
      <trkpt lat="48.58468" lon="1.74352">
        <ele>144</ele>
        <time>2010-05-15T09:34:24Z</time>
      </trkpt>
      <trkpt lat="48.58467" lon="1.74355">
        <ele>144</ele>
        <time>2010-05-15T09:34:25Z</time>
      </trkpt>
      <trkpt lat="48.58466" lon="1.74359">
        <ele>144</ele>
        <time>2010-05-15T09:34:26Z</time>
      </trkpt>
      <trkpt lat="48.58466" lon="1.74361">
        <ele>145</ele>
        <time>2010-05-15T09:34:27Z</time>
      </trkpt>
      <trkpt lat="48.58466" lon="1.74364">
        <ele>146</ele>
        <time>2010-05-15T09:34:28Z</time>
      </trkpt>
      <trkpt lat="48.58466" lon="1.74366">
        <ele>146</ele>
        <time>2010-05-15T09:34:29Z</time>
      </trkpt>
      <trkpt lat="48.58466" lon="1.74369">
        <ele>147</ele>
        <time>2010-05-15T09:34:30Z</time>
      </trkpt>
      <trkpt lat="48.58466" lon="1.74372">
        <ele>147</ele>
        <time>2010-05-15T09:34:31Z</time>
      </trkpt>
      <trkpt lat="48.58466" lon="1.74374">
        <ele>147</ele>
        <time>2010-05-15T09:34:32Z</time>
      </trkpt>
      <trkpt lat="48.58466" lon="1.74376">
        <ele>148</ele>
        <time>2010-05-15T09:34:33Z</time>
      </trkpt>
      <trkpt lat="48.58466" lon="1.74379">
        <ele>148</ele>
        <time>2010-05-15T09:34:34Z</time>
      </trkpt>
      <trkpt lat="48.58467" lon="1.74381">
        <ele>148</ele>
        <time>2010-05-15T09:34:36Z</time>
      </trkpt>
      <trkpt lat="48.58467" lon="1.74383">
        <ele>148</ele>
        <time>2010-05-15T09:34:41Z</time>
      </trkpt>
      <trkpt lat="48.58466" lon="1.74385">
        <ele>148</ele>
        <time>2010-05-15T09:34:47Z</time>
      </trkpt>
      <trkpt lat="48.58465" lon="1.74387">
        <ele>148</ele>
        <time>2010-05-15T09:34:49Z</time>
      </trkpt>
      <trkpt lat="48.58465" lon="1.74388">
        <ele>149</ele>
        <time>2010-05-15T09:34:51Z</time>
      </trkpt>
      <trkpt lat="48.58466" lon="1.74391">
        <ele>149</ele>
        <time>2010-05-15T09:34:53Z</time>
      </trkpt>
      <trkpt lat="48.58466" lon="1.74393">
        <ele>149</ele>
        <time>2010-05-15T09:34:55Z</time>
      </trkpt>
      <trkpt lat="48.58466" lon="1.74395">
        <ele>149</ele>
        <time>2010-05-15T09:34:56Z</time>
      </trkpt>
      <trkpt lat="48.58465" lon="1.74397">
        <ele>149</ele>
        <time>2010-05-15T09:34:57Z</time>
      </trkpt>
      <trkpt lat="48.58465" lon="1.74398">
        <ele>149</ele>
        <time>2010-05-15T09:34:58Z</time>
      </trkpt>
      <trkpt lat="48.58465" lon="1.744">
        <ele>149</ele>
        <time>2010-05-15T09:34:59Z</time>
      </trkpt>
      <trkpt lat="48.58464" lon="1.74402">
        <ele>149</ele>
        <time>2010-05-15T09:35:00Z</time>
      </trkpt>
      <trkpt lat="48.58464" lon="1.74404">
        <ele>149</ele>
        <time>2010-05-15T09:35:01Z</time>
      </trkpt>
      <trkpt lat="48.58463" lon="1.74406">
        <ele>149</ele>
        <time>2010-05-15T09:35:02Z</time>
      </trkpt>
      <trkpt lat="48.58463" lon="1.74408">
        <ele>149</ele>
        <time>2010-05-15T09:35:03Z</time>
      </trkpt>
      <trkpt lat="48.58463" lon="1.74412">
        <ele>149</ele>
        <time>2010-05-15T09:35:05Z</time>
      </trkpt>
      <trkpt lat="48.58463" lon="1.74414">
        <ele>149</ele>
        <time>2010-05-15T09:35:07Z</time>
      </trkpt>
      <trkpt lat="48.58463" lon="1.74416">
        <ele>149</ele>
        <time>2010-05-15T09:35:08Z</time>
      </trkpt>
      <trkpt lat="48.58464" lon="1.74419">
        <ele>148</ele>
        <time>2010-05-15T09:35:10Z</time>
      </trkpt>
      <trkpt lat="48.58463" lon="1.74422">
        <ele>147</ele>
        <time>2010-05-15T09:35:11Z</time>
      </trkpt>
      <trkpt lat="48.58463" lon="1.74424">
        <ele>147</ele>
        <time>2010-05-15T09:35:12Z</time>
      </trkpt>
      <trkpt lat="48.58463" lon="1.74425">
        <ele>147</ele>
        <time>2010-05-15T09:35:13Z</time>
      </trkpt>
      <trkpt lat="48.58463" lon="1.74427">
        <ele>147</ele>
        <time>2010-05-15T09:35:14Z</time>
      </trkpt>
      <trkpt lat="48.58463" lon="1.74429">
        <ele>147</ele>
        <time>2010-05-15T09:35:15Z</time>
      </trkpt>
      <trkpt lat="48.58463" lon="1.74431">
        <ele>147</ele>
        <time>2010-05-15T09:35:16Z</time>
      </trkpt>
      <trkpt lat="48.58463" lon="1.74433">
        <ele>147</ele>
        <time>2010-05-15T09:35:17Z</time>
      </trkpt>
      <trkpt lat="48.58462" lon="1.74435">
        <ele>147</ele>
        <time>2010-05-15T09:35:18Z</time>
      </trkpt>
      <trkpt lat="48.58462" lon="1.74438">
        <ele>147</ele>
        <time>2010-05-15T09:35:19Z</time>
      </trkpt>
      <trkpt lat="48.58461" lon="1.7444">
        <ele>147</ele>
        <time>2010-05-15T09:35:20Z</time>
      </trkpt>
      <trkpt lat="48.58461" lon="1.74442">
        <ele>147</ele>
        <time>2010-05-15T09:35:21Z</time>
      </trkpt>
      <trkpt lat="48.58461" lon="1.74445">
        <ele>147</ele>
        <time>2010-05-15T09:35:22Z</time>
      </trkpt>
      <trkpt lat="48.5846" lon="1.74447">
        <ele>147</ele>
        <time>2010-05-15T09:35:23Z</time>
      </trkpt>
      <trkpt lat="48.5846" lon="1.74449">
        <ele>147</ele>
        <time>2010-05-15T09:35:24Z</time>
      </trkpt>
      <trkpt lat="48.5846" lon="1.74451">
        <ele>147</ele>
        <time>2010-05-15T09:35:25Z</time>
      </trkpt>
      <trkpt lat="48.58459" lon="1.74454">
        <ele>147</ele>
        <time>2010-05-15T09:35:27Z</time>
      </trkpt>
      <trkpt lat="48.58459" lon="1.74456">
        <ele>147</ele>
        <time>2010-05-15T09:35:28Z</time>
      </trkpt>
      <trkpt lat="48.58459" lon="1.74458">
        <ele>148</ele>
        <time>2010-05-15T09:35:29Z</time>
      </trkpt>
      <trkpt lat="48.58458" lon="1.74461">
        <ele>148</ele>
        <time>2010-05-15T09:35:30Z</time>
      </trkpt>
      <trkpt lat="48.58458" lon="1.74464">
        <ele>149</ele>
        <time>2010-05-15T09:35:31Z</time>
      </trkpt>
      <trkpt lat="48.58457" lon="1.74466">
        <ele>149</ele>
        <time>2010-05-15T09:35:32Z</time>
      </trkpt>
      <trkpt lat="48.58457" lon="1.74468">
        <ele>149</ele>
        <time>2010-05-15T09:35:33Z</time>
      </trkpt>
      <trkpt lat="48.58456" lon="1.74471">
        <ele>149</ele>
        <time>2010-05-15T09:35:34Z</time>
      </trkpt>
      <trkpt lat="48.58455" lon="1.74473">
        <ele>150</ele>
        <time>2010-05-15T09:35:35Z</time>
      </trkpt>
      <trkpt lat="48.58455" lon="1.74476">
        <ele>150</ele>
        <time>2010-05-15T09:35:36Z</time>
      </trkpt>
      <trkpt lat="48.58454" lon="1.74478">
        <ele>151</ele>
        <time>2010-05-15T09:35:37Z</time>
      </trkpt>
      <trkpt lat="48.58454" lon="1.74481">
        <ele>152</ele>
        <time>2010-05-15T09:35:38Z</time>
      </trkpt>
      <trkpt lat="48.58454" lon="1.74483">
        <ele>153</ele>
        <time>2010-05-15T09:35:39Z</time>
      </trkpt>
      <trkpt lat="48.58453" lon="1.74485">
        <ele>154</ele>
        <time>2010-05-15T09:35:40Z</time>
      </trkpt>
      <trkpt lat="48.58453" lon="1.74487">
        <ele>155</ele>
        <time>2010-05-15T09:35:41Z</time>
      </trkpt>
      <trkpt lat="48.58452" lon="1.7449">
        <ele>157</ele>
        <time>2010-05-15T09:35:43Z</time>
      </trkpt>
      <trkpt lat="48.58452" lon="1.74492">
        <ele>158</ele>
        <time>2010-05-15T09:35:44Z</time>
      </trkpt>
      <trkpt lat="48.58453" lon="1.74494">
        <ele>158</ele>
        <time>2010-05-15T09:35:45Z</time>
      </trkpt>
      <trkpt lat="48.58453" lon="1.74496">
        <ele>158</ele>
        <time>2010-05-15T09:35:46Z</time>
      </trkpt>
      <trkpt lat="48.58453" lon="1.74499">
        <ele>158</ele>
        <time>2010-05-15T09:35:47Z</time>
      </trkpt>
      <trkpt lat="48.58452" lon="1.74501">
        <ele>158</ele>
        <time>2010-05-15T09:35:48Z</time>
      </trkpt>
      <trkpt lat="48.58452" lon="1.74505">
        <ele>158</ele>
        <time>2010-05-15T09:35:50Z</time>
      </trkpt>
      <trkpt lat="48.58452" lon="1.74507">
        <ele>158</ele>
        <time>2010-05-15T09:35:51Z</time>
      </trkpt>
      <trkpt lat="48.58452" lon="1.74509">
        <ele>158</ele>
        <time>2010-05-15T09:35:52Z</time>
      </trkpt>
      <trkpt lat="48.58452" lon="1.74511">
        <ele>158</ele>
        <time>2010-05-15T09:35:53Z</time>
      </trkpt>
      <trkpt lat="48.58452" lon="1.74513">
        <ele>158</ele>
        <time>2010-05-15T09:35:54Z</time>
      </trkpt>
      <trkpt lat="48.58452" lon="1.74515">
        <ele>158</ele>
        <time>2010-05-15T09:35:55Z</time>
      </trkpt>
      <trkpt lat="48.58452" lon="1.74518">
        <ele>158</ele>
        <time>2010-05-15T09:35:56Z</time>
      </trkpt>
      <trkpt lat="48.58452" lon="1.7452">
        <ele>157</ele>
        <time>2010-05-15T09:35:57Z</time>
      </trkpt>
      <trkpt lat="48.58452" lon="1.74522">
        <ele>157</ele>
        <time>2010-05-15T09:35:58Z</time>
      </trkpt>
      <trkpt lat="48.58451" lon="1.74524">
        <ele>157</ele>
        <time>2010-05-15T09:35:59Z</time>
      </trkpt>
      <trkpt lat="48.58451" lon="1.74527">
        <ele>157</ele>
        <time>2010-05-15T09:36:00Z</time>
      </trkpt>
      <trkpt lat="48.58451" lon="1.74529">
        <ele>157</ele>
        <time>2010-05-15T09:36:01Z</time>
      </trkpt>
      <trkpt lat="48.58451" lon="1.74531">
        <ele>157</ele>
        <time>2010-05-15T09:36:02Z</time>
      </trkpt>
      <trkpt lat="48.58451" lon="1.74534">
        <ele>157</ele>
        <time>2010-05-15T09:36:03Z</time>
      </trkpt>
      <trkpt lat="48.58451" lon="1.74537">
        <ele>157</ele>
        <time>2010-05-15T09:36:04Z</time>
      </trkpt>
      <trkpt lat="48.5845" lon="1.7454">
        <ele>157</ele>
        <time>2010-05-15T09:36:05Z</time>
      </trkpt>
      <trkpt lat="48.58449" lon="1.74543">
        <ele>157</ele>
        <time>2010-05-15T09:36:06Z</time>
      </trkpt>
      <trkpt lat="48.58449" lon="1.74547">
        <ele>157</ele>
        <time>2010-05-15T09:36:07Z</time>
      </trkpt>
      <trkpt lat="48.58448" lon="1.74549">
        <ele>157</ele>
        <time>2010-05-15T09:36:08Z</time>
      </trkpt>
      <trkpt lat="48.58448" lon="1.74552">
        <ele>157</ele>
        <time>2010-05-15T09:36:09Z</time>
      </trkpt>
      <trkpt lat="48.58447" lon="1.74556">
        <ele>157</ele>
        <time>2010-05-15T09:36:10Z</time>
      </trkpt>
      <trkpt lat="48.58447" lon="1.74559">
        <ele>158</ele>
        <time>2010-05-15T09:36:11Z</time>
      </trkpt>
      <trkpt lat="48.58446" lon="1.74561">
        <ele>158</ele>
        <time>2010-05-15T09:36:12Z</time>
      </trkpt>
      <trkpt lat="48.58447" lon="1.74563">
        <ele>158</ele>
        <time>2010-05-15T09:36:13Z</time>
      </trkpt>
      <trkpt lat="48.58446" lon="1.74566">
        <ele>158</ele>
        <time>2010-05-15T09:36:14Z</time>
      </trkpt>
      <trkpt lat="48.58446" lon="1.74568">
        <ele>158</ele>
        <time>2010-05-15T09:36:15Z</time>
      </trkpt>
      <trkpt lat="48.58446" lon="1.74571">
        <ele>158</ele>
        <time>2010-05-15T09:36:17Z</time>
      </trkpt>
      <trkpt lat="48.58447" lon="1.74574">
        <ele>158</ele>
        <time>2010-05-15T09:36:19Z</time>
      </trkpt>
      <trkpt lat="48.58447" lon="1.74577">
        <ele>158</ele>
        <time>2010-05-15T09:36:20Z</time>
      </trkpt>
      <trkpt lat="48.58448" lon="1.74579">
        <ele>158</ele>
        <time>2010-05-15T09:36:21Z</time>
      </trkpt>
      <trkpt lat="48.58448" lon="1.74581">
        <ele>158</ele>
        <time>2010-05-15T09:36:22Z</time>
      </trkpt>
      <trkpt lat="48.58448" lon="1.74584">
        <ele>158</ele>
        <time>2010-05-15T09:36:24Z</time>
      </trkpt>
      <trkpt lat="48.58448" lon="1.74586">
        <ele>158</ele>
        <time>2010-05-15T09:36:25Z</time>
      </trkpt>
      <trkpt lat="48.58448" lon="1.74589">
        <ele>158</ele>
        <time>2010-05-15T09:36:26Z</time>
      </trkpt>
      <trkpt lat="48.58448" lon="1.74591">
        <ele>158</ele>
        <time>2010-05-15T09:36:27Z</time>
      </trkpt>
      <trkpt lat="48.58448" lon="1.74594">
        <ele>158</ele>
        <time>2010-05-15T09:36:28Z</time>
      </trkpt>
      <trkpt lat="48.58448" lon="1.74596">
        <ele>158</ele>
        <time>2010-05-15T09:36:29Z</time>
      </trkpt>
      <trkpt lat="48.58448" lon="1.74598">
        <ele>158</ele>
        <time>2010-05-15T09:36:30Z</time>
      </trkpt>
      <trkpt lat="48.58447" lon="1.746">
        <ele>158</ele>
        <time>2010-05-15T09:36:31Z</time>
      </trkpt>
      <trkpt lat="48.58447" lon="1.74602">
        <ele>157</ele>
        <time>2010-05-15T09:36:32Z</time>
      </trkpt>
      <trkpt lat="48.58448" lon="1.74606">
        <ele>157</ele>
        <time>2010-05-15T09:36:33Z</time>
      </trkpt>
      <trkpt lat="48.58448" lon="1.74609">
        <ele>156</ele>
        <time>2010-05-15T09:36:34Z</time>
      </trkpt>
      <trkpt lat="48.58447" lon="1.74612">
        <ele>156</ele>
        <time>2010-05-15T09:36:35Z</time>
      </trkpt>
      <trkpt lat="48.58447" lon="1.74615">
        <ele>155</ele>
        <time>2010-05-15T09:36:36Z</time>
      </trkpt>
      <trkpt lat="48.58446" lon="1.74617">
        <ele>155</ele>
        <time>2010-05-15T09:36:37Z</time>
      </trkpt>
      <trkpt lat="48.58446" lon="1.7462">
        <ele>154</ele>
        <time>2010-05-15T09:36:38Z</time>
      </trkpt>
      <trkpt lat="48.58446" lon="1.74623">
        <ele>154</ele>
        <time>2010-05-15T09:36:39Z</time>
      </trkpt>
      <trkpt lat="48.58445" lon="1.74626">
        <ele>153</ele>
        <time>2010-05-15T09:36:40Z</time>
      </trkpt>
      <trkpt lat="48.58445" lon="1.74628">
        <ele>153</ele>
        <time>2010-05-15T09:36:41Z</time>
      </trkpt>
      <trkpt lat="48.58445" lon="1.74631">
        <ele>153</ele>
        <time>2010-05-15T09:36:42Z</time>
      </trkpt>
      <trkpt lat="48.58444" lon="1.74634">
        <ele>153</ele>
        <time>2010-05-15T09:36:43Z</time>
      </trkpt>
      <trkpt lat="48.58443" lon="1.74638">
        <ele>153</ele>
        <time>2010-05-15T09:36:44Z</time>
      </trkpt>
      <trkpt lat="48.58443" lon="1.74641">
        <ele>153</ele>
        <time>2010-05-15T09:36:45Z</time>
      </trkpt>
      <trkpt lat="48.58443" lon="1.74644">
        <ele>153</ele>
        <time>2010-05-15T09:36:46Z</time>
      </trkpt>
      <trkpt lat="48.58443" lon="1.74647">
        <ele>153</ele>
        <time>2010-05-15T09:36:47Z</time>
      </trkpt>
      <trkpt lat="48.58442" lon="1.7465">
        <ele>153</ele>
        <time>2010-05-15T09:36:48Z</time>
      </trkpt>
      <trkpt lat="48.58442" lon="1.74652">
        <ele>153</ele>
        <time>2010-05-15T09:36:49Z</time>
      </trkpt>
      <trkpt lat="48.58442" lon="1.74654">
        <ele>153</ele>
        <time>2010-05-15T09:36:51Z</time>
      </trkpt>
      <trkpt lat="48.58442" lon="1.74655">
        <ele>153</ele>
        <time>2010-05-15T09:36:52Z</time>
      </trkpt>
      <trkpt lat="48.58442" lon="1.74658">
        <ele>153</ele>
        <time>2010-05-15T09:36:53Z</time>
      </trkpt>
      <trkpt lat="48.58442" lon="1.74659">
        <ele>153</ele>
        <time>2010-05-15T09:36:54Z</time>
      </trkpt>
      <trkpt lat="48.58442" lon="1.74661">
        <ele>153</ele>
        <time>2010-05-15T09:36:55Z</time>
      </trkpt>
      <trkpt lat="48.58442" lon="1.74663">
        <ele>153</ele>
        <time>2010-05-15T09:36:56Z</time>
      </trkpt>
      <trkpt lat="48.58442" lon="1.74665">
        <ele>153</ele>
        <time>2010-05-15T09:36:57Z</time>
      </trkpt>
      <trkpt lat="48.58442" lon="1.74667">
        <ele>153</ele>
        <time>2010-05-15T09:36:58Z</time>
      </trkpt>
      <trkpt lat="48.58442" lon="1.74669">
        <ele>153</ele>
        <time>2010-05-15T09:36:59Z</time>
      </trkpt>
      <trkpt lat="48.58442" lon="1.74671">
        <ele>154</ele>
        <time>2010-05-15T09:37:00Z</time>
      </trkpt>
      <trkpt lat="48.58442" lon="1.74674">
        <ele>154</ele>
        <time>2010-05-15T09:37:02Z</time>
      </trkpt>
      <trkpt lat="48.58443" lon="1.74676">
        <ele>155</ele>
        <time>2010-05-15T09:37:03Z</time>
      </trkpt>
      <trkpt lat="48.58443" lon="1.7468">
        <ele>155</ele>
        <time>2010-05-15T09:37:05Z</time>
      </trkpt>
      <trkpt lat="48.58443" lon="1.74683">
        <ele>155</ele>
        <time>2010-05-15T09:37:06Z</time>
      </trkpt>
      <trkpt lat="48.58443" lon="1.74686">
        <ele>155</ele>
        <time>2010-05-15T09:37:07Z</time>
      </trkpt>
      <trkpt lat="48.58442" lon="1.74689">
        <ele>155</ele>
        <time>2010-05-15T09:37:08Z</time>
      </trkpt>
      <trkpt lat="48.58442" lon="1.74693">
        <ele>155</ele>
        <time>2010-05-15T09:37:09Z</time>
      </trkpt>
      <trkpt lat="48.58442" lon="1.74696">
        <ele>155</ele>
        <time>2010-05-15T09:37:10Z</time>
      </trkpt>
      <trkpt lat="48.58442" lon="1.74699">
        <ele>155</ele>
        <time>2010-05-15T09:37:11Z</time>
      </trkpt>
      <trkpt lat="48.58441" lon="1.74702">
        <ele>155</ele>
        <time>2010-05-15T09:37:12Z</time>
      </trkpt>
      <trkpt lat="48.58441" lon="1.74705">
        <ele>155</ele>
        <time>2010-05-15T09:37:13Z</time>
      </trkpt>
      <trkpt lat="48.58441" lon="1.74707">
        <ele>155</ele>
        <time>2010-05-15T09:37:14Z</time>
      </trkpt>
      <trkpt lat="48.5844" lon="1.7471">
        <ele>155</ele>
        <time>2010-05-15T09:37:15Z</time>
      </trkpt>
      <trkpt lat="48.5844" lon="1.74713">
        <ele>155</ele>
        <time>2010-05-15T09:37:16Z</time>
      </trkpt>
      <trkpt lat="48.5844" lon="1.74716">
        <ele>155</ele>
        <time>2010-05-15T09:37:17Z</time>
      </trkpt>
      <trkpt lat="48.5844" lon="1.74718">
        <ele>155</ele>
        <time>2010-05-15T09:37:19Z</time>
      </trkpt>
      <trkpt lat="48.58439" lon="1.74721">
        <ele>155</ele>
        <time>2010-05-15T09:37:20Z</time>
      </trkpt>
      <trkpt lat="48.58439" lon="1.74723">
        <ele>155</ele>
        <time>2010-05-15T09:37:21Z</time>
      </trkpt>
      <trkpt lat="48.58439" lon="1.74725">
        <ele>155</ele>
        <time>2010-05-15T09:37:22Z</time>
      </trkpt>
      <trkpt lat="48.58439" lon="1.74728">
        <ele>155</ele>
        <time>2010-05-15T09:37:23Z</time>
      </trkpt>
      <trkpt lat="48.58439" lon="1.74731">
        <ele>155</ele>
        <time>2010-05-15T09:37:24Z</time>
      </trkpt>
      <trkpt lat="48.58439" lon="1.74734">
        <ele>155</ele>
        <time>2010-05-15T09:37:25Z</time>
      </trkpt>
      <trkpt lat="48.58439" lon="1.74737">
        <ele>155</ele>
        <time>2010-05-15T09:37:26Z</time>
      </trkpt>
      <trkpt lat="48.58439" lon="1.74739">
        <ele>155</ele>
        <time>2010-05-15T09:37:27Z</time>
      </trkpt>
      <trkpt lat="48.58439" lon="1.74742">
        <ele>155</ele>
        <time>2010-05-15T09:37:28Z</time>
      </trkpt>
      <trkpt lat="48.58439" lon="1.74744">
        <ele>155</ele>
        <time>2010-05-15T09:37:29Z</time>
      </trkpt>
      <trkpt lat="48.58439" lon="1.74746">
        <ele>155</ele>
        <time>2010-05-15T09:37:30Z</time>
      </trkpt>
      <trkpt lat="48.58439" lon="1.74748">
        <ele>155</ele>
        <time>2010-05-15T09:37:31Z</time>
      </trkpt>
      <trkpt lat="48.58439" lon="1.7475">
        <ele>155</ele>
        <time>2010-05-15T09:37:32Z</time>
      </trkpt>
      <trkpt lat="48.58438" lon="1.74754">
        <ele>155</ele>
        <time>2010-05-15T09:37:34Z</time>
      </trkpt>
      <trkpt lat="48.58438" lon="1.74758">
        <ele>155</ele>
        <time>2010-05-15T09:37:35Z</time>
      </trkpt>
      <trkpt lat="48.58437" lon="1.7476">
        <ele>156</ele>
        <time>2010-05-15T09:37:36Z</time>
      </trkpt>
      <trkpt lat="48.58437" lon="1.74764">
        <ele>156</ele>
        <time>2010-05-15T09:37:37Z</time>
      </trkpt>
      <trkpt lat="48.58436" lon="1.74767">
        <ele>157</ele>
        <time>2010-05-15T09:37:38Z</time>
      </trkpt>
      <trkpt lat="48.58436" lon="1.74769">
        <ele>157</ele>
        <time>2010-05-15T09:37:39Z</time>
      </trkpt>
      <trkpt lat="48.58435" lon="1.74772">
        <ele>158</ele>
        <time>2010-05-15T09:37:40Z</time>
      </trkpt>
      <trkpt lat="48.58435" lon="1.74775">
        <ele>159</ele>
        <time>2010-05-15T09:37:41Z</time>
      </trkpt>
      <trkpt lat="48.58435" lon="1.74777">
        <ele>159</ele>
        <time>2010-05-15T09:37:42Z</time>
      </trkpt>
      <trkpt lat="48.58434" lon="1.7478">
        <ele>160</ele>
        <time>2010-05-15T09:37:43Z</time>
      </trkpt>
      <trkpt lat="48.58434" lon="1.74782">
        <ele>160</ele>
        <time>2010-05-15T09:37:44Z</time>
      </trkpt>
      <trkpt lat="48.58434" lon="1.74785">
        <ele>161</ele>
        <time>2010-05-15T09:37:45Z</time>
      </trkpt>
      <trkpt lat="48.58434" lon="1.74787">
        <ele>161</ele>
        <time>2010-05-15T09:37:46Z</time>
      </trkpt>
      <trkpt lat="48.58433" lon="1.74791">
        <ele>161</ele>
        <time>2010-05-15T09:37:47Z</time>
      </trkpt>
      <trkpt lat="48.58433" lon="1.74794">
        <ele>161</ele>
        <time>2010-05-15T09:37:48Z</time>
      </trkpt>
      <trkpt lat="48.58434" lon="1.74795">
        <ele>161</ele>
        <time>2010-05-15T09:37:49Z</time>
      </trkpt>
      <trkpt lat="48.58434" lon="1.74798">
        <ele>161</ele>
        <time>2010-05-15T09:37:50Z</time>
      </trkpt>
      <trkpt lat="48.58434" lon="1.74801">
        <ele>161</ele>
        <time>2010-05-15T09:37:51Z</time>
      </trkpt>
      <trkpt lat="48.58434" lon="1.74803">
        <ele>161</ele>
        <time>2010-05-15T09:37:52Z</time>
      </trkpt>
      <trkpt lat="48.58434" lon="1.74805">
        <ele>161</ele>
        <time>2010-05-15T09:37:53Z</time>
      </trkpt>
      <trkpt lat="48.58434" lon="1.74807">
        <ele>161</ele>
        <time>2010-05-15T09:37:54Z</time>
      </trkpt>
      <trkpt lat="48.58434" lon="1.7481">
        <ele>161</ele>
        <time>2010-05-15T09:37:55Z</time>
      </trkpt>
      <trkpt lat="48.58433" lon="1.74814">
        <ele>161</ele>
        <time>2010-05-15T09:37:56Z</time>
      </trkpt>
      <trkpt lat="48.58433" lon="1.74816">
        <ele>161</ele>
        <time>2010-05-15T09:37:57Z</time>
      </trkpt>
      <trkpt lat="48.58433" lon="1.74819">
        <ele>161</ele>
        <time>2010-05-15T09:37:58Z</time>
      </trkpt>
      <trkpt lat="48.58433" lon="1.74821">
        <ele>161</ele>
        <time>2010-05-15T09:37:59Z</time>
      </trkpt>
      <trkpt lat="48.58433" lon="1.74824">
        <ele>161</ele>
        <time>2010-05-15T09:38:00Z</time>
      </trkpt>
      <trkpt lat="48.58433" lon="1.74826">
        <ele>161</ele>
        <time>2010-05-15T09:38:01Z</time>
      </trkpt>
      <trkpt lat="48.58434" lon="1.74829">
        <ele>161</ele>
        <time>2010-05-15T09:38:03Z</time>
      </trkpt>
      <trkpt lat="48.58434" lon="1.74831">
        <ele>161</ele>
        <time>2010-05-15T09:38:04Z</time>
      </trkpt>
      <trkpt lat="48.58434" lon="1.74832">
        <ele>161</ele>
        <time>2010-05-15T09:38:05Z</time>
      </trkpt>
      <trkpt lat="48.58433" lon="1.74834">
        <ele>161</ele>
        <time>2010-05-15T09:38:06Z</time>
      </trkpt>
      <trkpt lat="48.58433" lon="1.74836">
        <ele>161</ele>
        <time>2010-05-15T09:38:07Z</time>
      </trkpt>
      <trkpt lat="48.58433" lon="1.74839">
        <ele>161</ele>
        <time>2010-05-15T09:38:08Z</time>
      </trkpt>
      <trkpt lat="48.58433" lon="1.74842">
        <ele>161</ele>
        <time>2010-05-15T09:38:09Z</time>
      </trkpt>
      <trkpt lat="48.58433" lon="1.74843">
        <ele>161</ele>
        <time>2010-05-15T09:38:10Z</time>
      </trkpt>
      <trkpt lat="48.58433" lon="1.74845">
        <ele>161</ele>
        <time>2010-05-15T09:38:11Z</time>
      </trkpt>
      <trkpt lat="48.58433" lon="1.74848">
        <ele>161</ele>
        <time>2010-05-15T09:38:12Z</time>
      </trkpt>
      <trkpt lat="48.58433" lon="1.7485">
        <ele>161</ele>
        <time>2010-05-15T09:38:13Z</time>
      </trkpt>
      <trkpt lat="48.58434" lon="1.74852">
        <ele>161</ele>
        <time>2010-05-15T09:38:14Z</time>
      </trkpt>
      <trkpt lat="48.58434" lon="1.74854">
        <ele>161</ele>
        <time>2010-05-15T09:38:15Z</time>
      </trkpt>
      <trkpt lat="48.58434" lon="1.74856">
        <ele>161</ele>
        <time>2010-05-15T09:38:16Z</time>
      </trkpt>
      <trkpt lat="48.58434" lon="1.74859">
        <ele>161</ele>
        <time>2010-05-15T09:38:17Z</time>
      </trkpt>
      <trkpt lat="48.58434" lon="1.74861">
        <ele>161</ele>
        <time>2010-05-15T09:38:18Z</time>
      </trkpt>
      <trkpt lat="48.58434" lon="1.74863">
        <ele>161</ele>
        <time>2010-05-15T09:38:19Z</time>
      </trkpt>
      <trkpt lat="48.58433" lon="1.74867">
        <ele>161</ele>
        <time>2010-05-15T09:38:20Z</time>
      </trkpt>
      <trkpt lat="48.58433" lon="1.7487">
        <ele>161</ele>
        <time>2010-05-15T09:38:21Z</time>
      </trkpt>
      <trkpt lat="48.58433" lon="1.74873">
        <ele>161</ele>
        <time>2010-05-15T09:38:22Z</time>
      </trkpt>
      <trkpt lat="48.58433" lon="1.74877">
        <ele>160</ele>
        <time>2010-05-15T09:38:23Z</time>
      </trkpt>
      <trkpt lat="48.58432" lon="1.74881">
        <ele>160</ele>
        <time>2010-05-15T09:38:24Z</time>
      </trkpt>
      <trkpt lat="48.58432" lon="1.74885">
        <ele>159</ele>
        <time>2010-05-15T09:38:25Z</time>
      </trkpt>
      <trkpt lat="48.58432" lon="1.7489">
        <ele>159</ele>
        <time>2010-05-15T09:38:26Z</time>
      </trkpt>
      <trkpt lat="48.58431" lon="1.74896">
        <ele>158</ele>
        <time>2010-05-15T09:38:27Z</time>
      </trkpt>
      <trkpt lat="48.58431" lon="1.74901">
        <ele>158</ele>
        <time>2010-05-15T09:38:28Z</time>
      </trkpt>
      <trkpt lat="48.58431" lon="1.74907">
        <ele>158</ele>
        <time>2010-05-15T09:38:29Z</time>
      </trkpt>
      <trkpt lat="48.5843" lon="1.74912">
        <ele>158</ele>
        <time>2010-05-15T09:38:30Z</time>
      </trkpt>
      <trkpt lat="48.5843" lon="1.74917">
        <ele>158</ele>
        <time>2010-05-15T09:38:31Z</time>
      </trkpt>
      <trkpt lat="48.58429" lon="1.74922">
        <ele>158</ele>
        <time>2010-05-15T09:38:32Z</time>
      </trkpt>
      <trkpt lat="48.58429" lon="1.74927">
        <ele>158</ele>
        <time>2010-05-15T09:38:33Z</time>
      </trkpt>
      <trkpt lat="48.58429" lon="1.7493">
        <ele>158</ele>
        <time>2010-05-15T09:38:34Z</time>
      </trkpt>
      <trkpt lat="48.58429" lon="1.74934">
        <ele>158</ele>
        <time>2010-05-15T09:38:35Z</time>
      </trkpt>
      <trkpt lat="48.58428" lon="1.74937">
        <ele>158</ele>
        <time>2010-05-15T09:38:36Z</time>
      </trkpt>
      <trkpt lat="48.58428" lon="1.7494">
        <ele>158</ele>
        <time>2010-05-15T09:38:37Z</time>
      </trkpt>
      <trkpt lat="48.58428" lon="1.74942">
        <ele>158</ele>
        <time>2010-05-15T09:38:38Z</time>
      </trkpt>
      <trkpt lat="48.58428" lon="1.74944">
        <ele>158</ele>
        <time>2010-05-15T09:38:39Z</time>
      </trkpt>
      <trkpt lat="48.58428" lon="1.74946">
        <ele>158</ele>
        <time>2010-05-15T09:38:40Z</time>
      </trkpt>
      <trkpt lat="48.58428" lon="1.74948">
        <ele>158</ele>
        <time>2010-05-15T09:38:41Z</time>
      </trkpt>
      <trkpt lat="48.58428" lon="1.74951">
        <ele>158</ele>
        <time>2010-05-15T09:38:42Z</time>
      </trkpt>
      <trkpt lat="48.58428" lon="1.74953">
        <ele>158</ele>
        <time>2010-05-15T09:38:43Z</time>
      </trkpt>
      <trkpt lat="48.58428" lon="1.74955">
        <ele>158</ele>
        <time>2010-05-15T09:38:44Z</time>
      </trkpt>
      <trkpt lat="48.58428" lon="1.74958">
        <ele>158</ele>
        <time>2010-05-15T09:38:46Z</time>
      </trkpt>
      <trkpt lat="48.58429" lon="1.74961">
        <ele>158</ele>
        <time>2010-05-15T09:38:48Z</time>
      </trkpt>
      <trkpt lat="48.5843" lon="1.74964">
        <ele>158</ele>
        <time>2010-05-15T09:38:50Z</time>
      </trkpt>
      <trkpt lat="48.5843" lon="1.74966">
        <ele>157</ele>
        <time>2010-05-15T09:38:51Z</time>
      </trkpt>
      <trkpt lat="48.58429" lon="1.74968">
        <ele>156</ele>
        <time>2010-05-15T09:38:52Z</time>
      </trkpt>
      <trkpt lat="48.58429" lon="1.7497">
        <ele>155</ele>
        <time>2010-05-15T09:38:53Z</time>
      </trkpt>
      <trkpt lat="48.58429" lon="1.74973">
        <ele>154</ele>
        <time>2010-05-15T09:38:54Z</time>
      </trkpt>
      <trkpt lat="48.58429" lon="1.74974">
        <ele>154</ele>
        <time>2010-05-15T09:38:55Z</time>
      </trkpt>
      <trkpt lat="48.58429" lon="1.74976">
        <ele>154</ele>
        <time>2010-05-15T09:38:56Z</time>
      </trkpt>
      <trkpt lat="48.58429" lon="1.74979">
        <ele>153</ele>
        <time>2010-05-15T09:38:57Z</time>
      </trkpt>
      <trkpt lat="48.58428" lon="1.74981">
        <ele>153</ele>
        <time>2010-05-15T09:38:58Z</time>
      </trkpt>
      <trkpt lat="48.58428" lon="1.74983">
        <ele>152</ele>
        <time>2010-05-15T09:38:59Z</time>
      </trkpt>
      <trkpt lat="48.58428" lon="1.74986">
        <ele>151</ele>
        <time>2010-05-15T09:39:00Z</time>
      </trkpt>
      <trkpt lat="48.58428" lon="1.74988">
        <ele>151</ele>
        <time>2010-05-15T09:39:01Z</time>
      </trkpt>
      <trkpt lat="48.58428" lon="1.7499">
        <ele>151</ele>
        <time>2010-05-15T09:39:02Z</time>
      </trkpt>
      <trkpt lat="48.58428" lon="1.74994">
        <ele>151</ele>
        <time>2010-05-15T09:39:03Z</time>
      </trkpt>
      <trkpt lat="48.58428" lon="1.74997">
        <ele>151</ele>
        <time>2010-05-15T09:39:04Z</time>
      </trkpt>
      <trkpt lat="48.58427" lon="1.75">
        <ele>151</ele>
        <time>2010-05-15T09:39:05Z</time>
      </trkpt>
      <trkpt lat="48.58427" lon="1.75002">
        <ele>151</ele>
        <time>2010-05-15T09:39:06Z</time>
      </trkpt>
      <trkpt lat="48.58426" lon="1.75005">
        <ele>151</ele>
        <time>2010-05-15T09:39:07Z</time>
      </trkpt>
      <trkpt lat="48.58426" lon="1.75008">
        <ele>151</ele>
        <time>2010-05-15T09:39:08Z</time>
      </trkpt>
      <trkpt lat="48.58426" lon="1.75011">
        <ele>151</ele>
        <time>2010-05-15T09:39:09Z</time>
      </trkpt>
      <trkpt lat="48.58426" lon="1.75014">
        <ele>151</ele>
        <time>2010-05-15T09:39:10Z</time>
      </trkpt>
      <trkpt lat="48.58426" lon="1.75017">
        <ele>151</ele>
        <time>2010-05-15T09:39:11Z</time>
      </trkpt>
      <trkpt lat="48.58425" lon="1.7502">
        <ele>151</ele>
        <time>2010-05-15T09:39:12Z</time>
      </trkpt>
      <trkpt lat="48.58425" lon="1.75023">
        <ele>151</ele>
        <time>2010-05-15T09:39:13Z</time>
      </trkpt>
      <trkpt lat="48.58424" lon="1.75026">
        <ele>151</ele>
        <time>2010-05-15T09:39:14Z</time>
      </trkpt>
      <trkpt lat="48.58424" lon="1.75029">
        <ele>151</ele>
        <time>2010-05-15T09:39:15Z</time>
      </trkpt>
      <trkpt lat="48.58424" lon="1.75031">
        <ele>151</ele>
        <time>2010-05-15T09:39:16Z</time>
      </trkpt>
      <trkpt lat="48.58424" lon="1.75034">
        <ele>151</ele>
        <time>2010-05-15T09:39:17Z</time>
      </trkpt>
      <trkpt lat="48.58423" lon="1.75036">
        <ele>151</ele>
        <time>2010-05-15T09:39:18Z</time>
      </trkpt>
      <trkpt lat="48.58423" lon="1.75038">
        <ele>151</ele>
        <time>2010-05-15T09:39:19Z</time>
      </trkpt>
      <trkpt lat="48.58423" lon="1.75041">
        <ele>152</ele>
        <time>2010-05-15T09:39:20Z</time>
      </trkpt>
      <trkpt lat="48.58423" lon="1.75044">
        <ele>152</ele>
        <time>2010-05-15T09:39:22Z</time>
      </trkpt>
      <trkpt lat="48.58422" lon="1.75047">
        <ele>153</ele>
        <time>2010-05-15T09:39:23Z</time>
      </trkpt>
      <trkpt lat="48.58422" lon="1.75049">
        <ele>153</ele>
        <time>2010-05-15T09:39:24Z</time>
      </trkpt>
      <trkpt lat="48.58422" lon="1.75051">
        <ele>153</ele>
        <time>2010-05-15T09:39:25Z</time>
      </trkpt>
      <trkpt lat="48.58422" lon="1.75053">
        <ele>153</ele>
        <time>2010-05-15T09:39:26Z</time>
      </trkpt>
      <trkpt lat="48.58423" lon="1.75056">
        <ele>153</ele>
        <time>2010-05-15T09:39:28Z</time>
      </trkpt>
      <trkpt lat="48.58423" lon="1.75058">
        <ele>153</ele>
        <time>2010-05-15T09:39:29Z</time>
      </trkpt>
      <trkpt lat="48.58422" lon="1.7506">
        <ele>153</ele>
        <time>2010-05-15T09:39:30Z</time>
      </trkpt>
      <trkpt lat="48.58423" lon="1.75062">
        <ele>153</ele>
        <time>2010-05-15T09:39:31Z</time>
      </trkpt>
      <trkpt lat="48.58423" lon="1.75064">
        <ele>154</ele>
        <time>2010-05-15T09:39:32Z</time>
      </trkpt>
      <trkpt lat="48.58424" lon="1.75066">
        <ele>155</ele>
        <time>2010-05-15T09:39:34Z</time>
      </trkpt>
      <trkpt lat="48.58424" lon="1.75068">
        <ele>155</ele>
        <time>2010-05-15T09:39:35Z</time>
      </trkpt>
      <trkpt lat="48.58424" lon="1.75071">
        <ele>155</ele>
        <time>2010-05-15T09:39:36Z</time>
      </trkpt>
      <trkpt lat="48.58424" lon="1.75074">
        <ele>156</ele>
        <time>2010-05-15T09:39:37Z</time>
      </trkpt>
      <trkpt lat="48.58423" lon="1.75076">
        <ele>156</ele>
        <time>2010-05-15T09:39:38Z</time>
      </trkpt>
      <trkpt lat="48.58422" lon="1.75078">
        <ele>156</ele>
        <time>2010-05-15T09:39:39Z</time>
      </trkpt>
      <trkpt lat="48.58422" lon="1.75081">
        <ele>156</ele>
        <time>2010-05-15T09:39:40Z</time>
      </trkpt>
      <trkpt lat="48.58422" lon="1.75083">
        <ele>156</ele>
        <time>2010-05-15T09:39:41Z</time>
      </trkpt>
      <trkpt lat="48.58422" lon="1.75086">
        <ele>156</ele>
        <time>2010-05-15T09:39:42Z</time>
      </trkpt>
      <trkpt lat="48.58422" lon="1.75087">
        <ele>156</ele>
        <time>2010-05-15T09:39:43Z</time>
      </trkpt>
      <trkpt lat="48.58422" lon="1.7509">
        <ele>156</ele>
        <time>2010-05-15T09:39:44Z</time>
      </trkpt>
      <trkpt lat="48.58421" lon="1.75093">
        <ele>156</ele>
        <time>2010-05-15T09:39:46Z</time>
      </trkpt>
      <trkpt lat="48.58421" lon="1.75095">
        <ele>156</ele>
        <time>2010-05-15T09:39:47Z</time>
      </trkpt>
      <trkpt lat="48.5842" lon="1.75098">
        <ele>156</ele>
        <time>2010-05-15T09:39:49Z</time>
      </trkpt>
      <trkpt lat="48.58421" lon="1.75101">
        <ele>156</ele>
        <time>2010-05-15T09:39:50Z</time>
      </trkpt>
      <trkpt lat="48.58421" lon="1.75105">
        <ele>156</ele>
        <time>2010-05-15T09:39:51Z</time>
      </trkpt>
      <trkpt lat="48.58421" lon="1.75109">
        <ele>156</ele>
        <time>2010-05-15T09:39:52Z</time>
      </trkpt>
      <trkpt lat="48.58422" lon="1.75111">
        <ele>156</ele>
        <time>2010-05-15T09:39:53Z</time>
      </trkpt>
      <trkpt lat="48.58422" lon="1.75115">
        <ele>156</ele>
        <time>2010-05-15T09:39:54Z</time>
      </trkpt>
      <trkpt lat="48.58421" lon="1.75117">
        <ele>156</ele>
        <time>2010-05-15T09:39:55Z</time>
      </trkpt>
      <trkpt lat="48.58421" lon="1.7512">
        <ele>156</ele>
        <time>2010-05-15T09:39:56Z</time>
      </trkpt>
      <trkpt lat="48.58421" lon="1.75122">
        <ele>156</ele>
        <time>2010-05-15T09:39:57Z</time>
      </trkpt>
      <trkpt lat="48.58421" lon="1.75125">
        <ele>156</ele>
        <time>2010-05-15T09:39:58Z</time>
      </trkpt>
      <trkpt lat="48.5842" lon="1.75126">
        <ele>155</ele>
        <time>2010-05-15T09:39:59Z</time>
      </trkpt>
      <trkpt lat="48.58419" lon="1.75129">
        <ele>154</ele>
        <time>2010-05-15T09:40:00Z</time>
      </trkpt>
      <trkpt lat="48.58418" lon="1.75132">
        <ele>153</ele>
        <time>2010-05-15T09:40:01Z</time>
      </trkpt>
      <trkpt lat="48.58417" lon="1.75135">
        <ele>153</ele>
        <time>2010-05-15T09:40:02Z</time>
      </trkpt>
      <trkpt lat="48.58417" lon="1.75137">
        <ele>153</ele>
        <time>2010-05-15T09:40:03Z</time>
      </trkpt>
      <trkpt lat="48.58416" lon="1.7514">
        <ele>153</ele>
        <time>2010-05-15T09:40:04Z</time>
      </trkpt>
      <trkpt lat="48.58416" lon="1.75142">
        <ele>153</ele>
        <time>2010-05-15T09:40:05Z</time>
      </trkpt>
      <trkpt lat="48.58416" lon="1.75145">
        <ele>153</ele>
        <time>2010-05-15T09:40:06Z</time>
      </trkpt>
      <trkpt lat="48.58415" lon="1.75148">
        <ele>153</ele>
        <time>2010-05-15T09:40:07Z</time>
      </trkpt>
      <trkpt lat="48.58414" lon="1.75151">
        <ele>153</ele>
        <time>2010-05-15T09:40:08Z</time>
      </trkpt>
      <trkpt lat="48.58414" lon="1.75153">
        <ele>153</ele>
        <time>2010-05-15T09:40:09Z</time>
      </trkpt>
      <trkpt lat="48.58413" lon="1.75156">
        <ele>153</ele>
        <time>2010-05-15T09:40:10Z</time>
      </trkpt>
      <trkpt lat="48.58413" lon="1.75158">
        <ele>153</ele>
        <time>2010-05-15T09:40:11Z</time>
      </trkpt>
      <trkpt lat="48.58412" lon="1.75162">
        <ele>153</ele>
        <time>2010-05-15T09:40:12Z</time>
      </trkpt>
      <trkpt lat="48.58412" lon="1.75165">
        <ele>153</ele>
        <time>2010-05-15T09:40:13Z</time>
      </trkpt>
      <trkpt lat="48.58411" lon="1.75167">
        <ele>154</ele>
        <time>2010-05-15T09:40:14Z</time>
      </trkpt>
      <trkpt lat="48.58411" lon="1.7517">
        <ele>155</ele>
        <time>2010-05-15T09:40:15Z</time>
      </trkpt>
      <trkpt lat="48.58411" lon="1.75172">
        <ele>156</ele>
        <time>2010-05-15T09:40:16Z</time>
      </trkpt>
      <trkpt lat="48.5841" lon="1.75177">
        <ele>156</ele>
        <time>2010-05-15T09:40:18Z</time>
      </trkpt>
      <trkpt lat="48.58409" lon="1.7518">
        <ele>156</ele>
        <time>2010-05-15T09:40:19Z</time>
      </trkpt>
      <trkpt lat="48.58409" lon="1.75183">
        <ele>156</ele>
        <time>2010-05-15T09:40:20Z</time>
      </trkpt>
      <trkpt lat="48.58408" lon="1.75186">
        <ele>156</ele>
        <time>2010-05-15T09:40:21Z</time>
      </trkpt>
      <trkpt lat="48.58408" lon="1.75189">
        <ele>156</ele>
        <time>2010-05-15T09:40:22Z</time>
      </trkpt>
      <trkpt lat="48.58408" lon="1.75191">
        <ele>156</ele>
        <time>2010-05-15T09:40:23Z</time>
      </trkpt>
      <trkpt lat="48.58407" lon="1.75193">
        <ele>157</ele>
        <time>2010-05-15T09:40:24Z</time>
      </trkpt>
      <trkpt lat="48.58407" lon="1.75195">
        <ele>157</ele>
        <time>2010-05-15T09:40:25Z</time>
      </trkpt>
      <trkpt lat="48.58406" lon="1.75198">
        <ele>157</ele>
        <time>2010-05-15T09:40:26Z</time>
      </trkpt>
      <trkpt lat="48.58407" lon="1.75199">
        <ele>157</ele>
        <time>2010-05-15T09:40:27Z</time>
      </trkpt>
      <trkpt lat="48.58407" lon="1.75202">
        <ele>157</ele>
        <time>2010-05-15T09:40:28Z</time>
      </trkpt>
      <trkpt lat="48.58406" lon="1.75204">
        <ele>157</ele>
        <time>2010-05-15T09:40:29Z</time>
      </trkpt>
      <trkpt lat="48.58407" lon="1.75206">
        <ele>157</ele>
        <time>2010-05-15T09:40:30Z</time>
      </trkpt>
      <trkpt lat="48.58407" lon="1.75208">
        <ele>157</ele>
        <time>2010-05-15T09:40:31Z</time>
      </trkpt>
      <trkpt lat="48.58406" lon="1.75209">
        <ele>157</ele>
        <time>2010-05-15T09:40:32Z</time>
      </trkpt>
      <trkpt lat="48.58406" lon="1.75211">
        <ele>157</ele>
        <time>2010-05-15T09:40:33Z</time>
      </trkpt>
      <trkpt lat="48.58406" lon="1.75213">
        <ele>157</ele>
        <time>2010-05-15T09:40:34Z</time>
      </trkpt>
      <trkpt lat="48.58405" lon="1.75215">
        <ele>157</ele>
        <time>2010-05-15T09:40:35Z</time>
      </trkpt>
      <trkpt lat="48.58405" lon="1.75217">
        <ele>157</ele>
        <time>2010-05-15T09:40:36Z</time>
      </trkpt>
      <trkpt lat="48.58404" lon="1.75219">
        <ele>157</ele>
        <time>2010-05-15T09:40:37Z</time>
      </trkpt>
      <trkpt lat="48.58404" lon="1.75223">
        <ele>157</ele>
        <time>2010-05-15T09:40:39Z</time>
      </trkpt>
      <trkpt lat="48.58404" lon="1.75225">
        <ele>157</ele>
        <time>2010-05-15T09:40:40Z</time>
      </trkpt>
      <trkpt lat="48.58403" lon="1.75227">
        <ele>157</ele>
        <time>2010-05-15T09:40:41Z</time>
      </trkpt>
      <trkpt lat="48.58403" lon="1.75229">
        <ele>157</ele>
        <time>2010-05-15T09:40:42Z</time>
      </trkpt>
      <trkpt lat="48.58403" lon="1.7523">
        <ele>157</ele>
        <time>2010-05-15T09:40:43Z</time>
      </trkpt>
      <trkpt lat="48.58402" lon="1.75232">
        <ele>156</ele>
        <time>2010-05-15T09:40:44Z</time>
      </trkpt>
      <trkpt lat="48.58402" lon="1.75234">
        <ele>156</ele>
        <time>2010-05-15T09:40:45Z</time>
      </trkpt>
      <trkpt lat="48.58402" lon="1.75237">
        <ele>155</ele>
        <time>2010-05-15T09:40:47Z</time>
      </trkpt>
      <trkpt lat="48.58401" lon="1.75239">
        <ele>154</ele>
        <time>2010-05-15T09:40:49Z</time>
      </trkpt>
      <trkpt lat="48.584" lon="1.75241">
        <ele>154</ele>
        <time>2010-05-15T09:40:51Z</time>
      </trkpt>
      <trkpt lat="48.58399" lon="1.75242">
        <ele>152</ele>
        <time>2010-05-15T09:40:54Z</time>
      </trkpt>
      <trkpt lat="48.58399" lon="1.75244">
        <ele>149</ele>
        <time>2010-05-15T09:40:58Z</time>
      </trkpt>
      <trkpt lat="48.584" lon="1.75246">
        <ele>146</ele>
        <time>2010-05-15T09:41:02Z</time>
      </trkpt>
      <trkpt lat="48.58401" lon="1.75248">
        <ele>143</ele>
        <time>2010-05-15T09:41:05Z</time>
      </trkpt>
      <trkpt lat="48.58402" lon="1.7525">
        <ele>138</ele>
        <time>2010-05-15T09:41:10Z</time>
      </trkpt>
      <trkpt lat="48.584" lon="1.75251">
        <ele>137</ele>
        <time>2010-05-15T09:41:14Z</time>
      </trkpt>
      <trkpt lat="48.58399" lon="1.75253">
        <ele>137</ele>
        <time>2010-05-15T09:41:16Z</time>
      </trkpt>
      <trkpt lat="48.58398" lon="1.75257">
        <ele>137</ele>
        <time>2010-05-15T09:41:18Z</time>
      </trkpt>
      <trkpt lat="48.58398" lon="1.75259">
        <ele>137</ele>
        <time>2010-05-15T09:41:19Z</time>
      </trkpt>
      <trkpt lat="48.58398" lon="1.75261">
        <ele>137</ele>
        <time>2010-05-15T09:41:20Z</time>
      </trkpt>
      <trkpt lat="48.58397" lon="1.75263">
        <ele>137</ele>
        <time>2010-05-15T09:41:22Z</time>
      </trkpt>
      <trkpt lat="48.58397" lon="1.75265">
        <ele>137</ele>
        <time>2010-05-15T09:41:23Z</time>
      </trkpt>
      <trkpt lat="48.58397" lon="1.75267">
        <ele>137</ele>
        <time>2010-05-15T09:41:24Z</time>
      </trkpt>
      <trkpt lat="48.58396" lon="1.75269">
        <ele>137</ele>
        <time>2010-05-15T09:41:25Z</time>
      </trkpt>
      <trkpt lat="48.58395" lon="1.75272">
        <ele>137</ele>
        <time>2010-05-15T09:41:27Z</time>
      </trkpt>
      <trkpt lat="48.58394" lon="1.75274">
        <ele>137</ele>
        <time>2010-05-15T09:41:28Z</time>
      </trkpt>
      <trkpt lat="48.58393" lon="1.75278">
        <ele>137</ele>
        <time>2010-05-15T09:41:30Z</time>
      </trkpt>
      <trkpt lat="48.58392" lon="1.7528">
        <ele>137</ele>
        <time>2010-05-15T09:41:31Z</time>
      </trkpt>
      <trkpt lat="48.58392" lon="1.75281">
        <ele>137</ele>
        <time>2010-05-15T09:41:32Z</time>
      </trkpt>
      <trkpt lat="48.58391" lon="1.75284">
        <ele>137</ele>
        <time>2010-05-15T09:41:33Z</time>
      </trkpt>
      <trkpt lat="48.5839" lon="1.75287">
        <ele>137</ele>
        <time>2010-05-15T09:41:34Z</time>
      </trkpt>
      <trkpt lat="48.58388" lon="1.75292">
        <ele>137</ele>
        <time>2010-05-15T09:41:35Z</time>
      </trkpt>
      <trkpt lat="48.58387" lon="1.75297">
        <ele>138</ele>
        <time>2010-05-15T09:41:36Z</time>
      </trkpt>
      <trkpt lat="48.58386" lon="1.75301">
        <ele>138</ele>
        <time>2010-05-15T09:41:37Z</time>
      </trkpt>
      <trkpt lat="48.58384" lon="1.75306">
        <ele>139</ele>
        <time>2010-05-15T09:41:38Z</time>
      </trkpt>
      <trkpt lat="48.58382" lon="1.75309">
        <ele>140</ele>
        <time>2010-05-15T09:41:39Z</time>
      </trkpt>
      <trkpt lat="48.58381" lon="1.75313">
        <ele>141</ele>
        <time>2010-05-15T09:41:40Z</time>
      </trkpt>
      <trkpt lat="48.58379" lon="1.75317">
        <ele>141</ele>
        <time>2010-05-15T09:41:41Z</time>
      </trkpt>
      <trkpt lat="48.58378" lon="1.75319">
        <ele>141</ele>
        <time>2010-05-15T09:41:42Z</time>
      </trkpt>
      <trkpt lat="48.58377" lon="1.75322">
        <ele>141</ele>
        <time>2010-05-15T09:41:43Z</time>
      </trkpt>
      <trkpt lat="48.58376" lon="1.75324">
        <ele>141</ele>
        <time>2010-05-15T09:41:44Z</time>
      </trkpt>
      <trkpt lat="48.58375" lon="1.75327">
        <ele>142</ele>
        <time>2010-05-15T09:41:45Z</time>
      </trkpt>
      <trkpt lat="48.58375" lon="1.75329">
        <ele>142</ele>
        <time>2010-05-15T09:41:46Z</time>
      </trkpt>
      <trkpt lat="48.58373" lon="1.75333">
        <ele>143</ele>
        <time>2010-05-15T09:41:48Z</time>
      </trkpt>
      <trkpt lat="48.58372" lon="1.75337">
        <ele>144</ele>
        <time>2010-05-15T09:41:50Z</time>
      </trkpt>
      <trkpt lat="48.58371" lon="1.75341">
        <ele>145</ele>
        <time>2010-05-15T09:41:51Z</time>
      </trkpt>
      <trkpt lat="48.5837" lon="1.75343">
        <ele>145</ele>
        <time>2010-05-15T09:41:52Z</time>
      </trkpt>
      <trkpt lat="48.58369" lon="1.75346">
        <ele>145</ele>
        <time>2010-05-15T09:41:53Z</time>
      </trkpt>
      <trkpt lat="48.58368" lon="1.75348">
        <ele>146</ele>
        <time>2010-05-15T09:41:54Z</time>
      </trkpt>
      <trkpt lat="48.58367" lon="1.7535">
        <ele>146</ele>
        <time>2010-05-15T09:41:56Z</time>
      </trkpt>
      <trkpt lat="48.58366" lon="1.75352">
        <ele>146</ele>
        <time>2010-05-15T09:41:57Z</time>
      </trkpt>
      <trkpt lat="48.58365" lon="1.75354">
        <ele>146</ele>
        <time>2010-05-15T09:41:58Z</time>
      </trkpt>
      <trkpt lat="48.58363" lon="1.75357">
        <ele>146</ele>
        <time>2010-05-15T09:42:00Z</time>
      </trkpt>
      <trkpt lat="48.58363" lon="1.75359">
        <ele>146</ele>
        <time>2010-05-15T09:42:01Z</time>
      </trkpt>
      <trkpt lat="48.58363" lon="1.75361">
        <ele>146</ele>
        <time>2010-05-15T09:42:02Z</time>
      </trkpt>
      <trkpt lat="48.58363" lon="1.75363">
        <ele>146</ele>
        <time>2010-05-15T09:42:03Z</time>
      </trkpt>
      <trkpt lat="48.58361" lon="1.75366">
        <ele>146</ele>
        <time>2010-05-15T09:42:05Z</time>
      </trkpt>
      <trkpt lat="48.5836" lon="1.75368">
        <ele>146</ele>
        <time>2010-05-15T09:42:06Z</time>
      </trkpt>
      <trkpt lat="48.58359" lon="1.7537">
        <ele>146</ele>
        <time>2010-05-15T09:42:07Z</time>
      </trkpt>
      <trkpt lat="48.58358" lon="1.75372">
        <ele>146</ele>
        <time>2010-05-15T09:42:08Z</time>
      </trkpt>
      <trkpt lat="48.58357" lon="1.75374">
        <ele>146</ele>
        <time>2010-05-15T09:42:09Z</time>
      </trkpt>
      <trkpt lat="48.58356" lon="1.75376">
        <ele>146</ele>
        <time>2010-05-15T09:42:10Z</time>
      </trkpt>
      <trkpt lat="48.58355" lon="1.75379">
        <ele>146</ele>
        <time>2010-05-15T09:42:12Z</time>
      </trkpt>
      <trkpt lat="48.58354" lon="1.75381">
        <ele>146</ele>
        <time>2010-05-15T09:42:13Z</time>
      </trkpt>
      <trkpt lat="48.58352" lon="1.75384">
        <ele>146</ele>
        <time>2010-05-15T09:42:15Z</time>
      </trkpt>
      <trkpt lat="48.58351" lon="1.75385">
        <ele>146</ele>
        <time>2010-05-15T09:42:16Z</time>
      </trkpt>
      <trkpt lat="48.5835" lon="1.75389">
        <ele>146</ele>
        <time>2010-05-15T09:42:17Z</time>
      </trkpt>
      <trkpt lat="48.58349" lon="1.75391">
        <ele>146</ele>
        <time>2010-05-15T09:42:18Z</time>
      </trkpt>
      <trkpt lat="48.58349" lon="1.75394">
        <ele>146</ele>
        <time>2010-05-15T09:42:19Z</time>
      </trkpt>
      <trkpt lat="48.58348" lon="1.75397">
        <ele>146</ele>
        <time>2010-05-15T09:42:20Z</time>
      </trkpt>
      <trkpt lat="48.58347" lon="1.754">
        <ele>146</ele>
        <time>2010-05-15T09:42:21Z</time>
      </trkpt>
      <trkpt lat="48.58346" lon="1.75403">
        <ele>146</ele>
        <time>2010-05-15T09:42:22Z</time>
      </trkpt>
      <trkpt lat="48.58345" lon="1.75406">
        <ele>145</ele>
        <time>2010-05-15T09:42:23Z</time>
      </trkpt>
      <trkpt lat="48.58344" lon="1.75408">
        <ele>145</ele>
        <time>2010-05-15T09:42:24Z</time>
      </trkpt>
      <trkpt lat="48.58343" lon="1.75411">
        <ele>145</ele>
        <time>2010-05-15T09:42:25Z</time>
      </trkpt>
      <trkpt lat="48.58342" lon="1.75413">
        <ele>145</ele>
        <time>2010-05-15T09:42:26Z</time>
      </trkpt>
      <trkpt lat="48.58341" lon="1.75415">
        <ele>145</ele>
        <time>2010-05-15T09:42:27Z</time>
      </trkpt>
      <trkpt lat="48.58341" lon="1.75416">
        <ele>145</ele>
        <time>2010-05-15T09:42:28Z</time>
      </trkpt>
      <trkpt lat="48.5834" lon="1.75418">
        <ele>145</ele>
        <time>2010-05-15T09:42:29Z</time>
      </trkpt>
      <trkpt lat="48.58338" lon="1.75422">
        <ele>145</ele>
        <time>2010-05-15T09:42:31Z</time>
      </trkpt>
      <trkpt lat="48.58337" lon="1.75423">
        <ele>145</ele>
        <time>2010-05-15T09:42:32Z</time>
      </trkpt>
      <trkpt lat="48.58337" lon="1.75426">
        <ele>145</ele>
        <time>2010-05-15T09:42:33Z</time>
      </trkpt>
      <trkpt lat="48.58336" lon="1.75428">
        <ele>145</ele>
        <time>2010-05-15T09:42:34Z</time>
      </trkpt>
      <trkpt lat="48.58335" lon="1.7543">
        <ele>145</ele>
        <time>2010-05-15T09:42:35Z</time>
      </trkpt>
      <trkpt lat="48.58335" lon="1.75432">
        <ele>145</ele>
        <time>2010-05-15T09:42:36Z</time>
      </trkpt>
      <trkpt lat="48.58334" lon="1.75437">
        <ele>145</ele>
        <time>2010-05-15T09:42:38Z</time>
      </trkpt>
      <trkpt lat="48.58334" lon="1.75439">
        <ele>145</ele>
        <time>2010-05-15T09:42:39Z</time>
      </trkpt>
      <trkpt lat="48.58333" lon="1.75441">
        <ele>145</ele>
        <time>2010-05-15T09:42:40Z</time>
      </trkpt>
      <trkpt lat="48.58332" lon="1.75444">
        <ele>145</ele>
        <time>2010-05-15T09:42:41Z</time>
      </trkpt>
      <trkpt lat="48.58331" lon="1.75447">
        <ele>145</ele>
        <time>2010-05-15T09:42:42Z</time>
      </trkpt>
      <trkpt lat="48.58331" lon="1.7545">
        <ele>145</ele>
        <time>2010-05-15T09:42:43Z</time>
      </trkpt>
      <trkpt lat="48.5833" lon="1.75452">
        <ele>145</ele>
        <time>2010-05-15T09:42:44Z</time>
      </trkpt>
      <trkpt lat="48.58329" lon="1.75454">
        <ele>145</ele>
        <time>2010-05-15T09:42:45Z</time>
      </trkpt>
      <trkpt lat="48.58328" lon="1.75458">
        <ele>145</ele>
        <time>2010-05-15T09:42:46Z</time>
      </trkpt>
      <trkpt lat="48.58328" lon="1.7546">
        <ele>145</ele>
        <time>2010-05-15T09:42:47Z</time>
      </trkpt>
      <trkpt lat="48.58327" lon="1.75463">
        <ele>145</ele>
        <time>2010-05-15T09:42:48Z</time>
      </trkpt>
      <trkpt lat="48.58327" lon="1.75465">
        <ele>145</ele>
        <time>2010-05-15T09:42:49Z</time>
      </trkpt>
      <trkpt lat="48.58327" lon="1.75467">
        <ele>145</ele>
        <time>2010-05-15T09:42:50Z</time>
      </trkpt>
      <trkpt lat="48.58326" lon="1.7547">
        <ele>145</ele>
        <time>2010-05-15T09:42:51Z</time>
      </trkpt>
      <trkpt lat="48.58325" lon="1.75474">
        <ele>145</ele>
        <time>2010-05-15T09:42:52Z</time>
      </trkpt>
      <trkpt lat="48.58325" lon="1.75476">
        <ele>145</ele>
        <time>2010-05-15T09:42:53Z</time>
      </trkpt>
      <trkpt lat="48.58324" lon="1.7548">
        <ele>146</ele>
        <time>2010-05-15T09:42:54Z</time>
      </trkpt>
      <trkpt lat="48.58324" lon="1.75481">
        <ele>146</ele>
        <time>2010-05-15T09:42:55Z</time>
      </trkpt>
      <trkpt lat="48.58324" lon="1.75484">
        <ele>146</ele>
        <time>2010-05-15T09:42:56Z</time>
      </trkpt>
      <trkpt lat="48.58324" lon="1.75486">
        <ele>146</ele>
        <time>2010-05-15T09:42:57Z</time>
      </trkpt>
      <trkpt lat="48.58324" lon="1.75488">
        <ele>146</ele>
        <time>2010-05-15T09:42:58Z</time>
      </trkpt>
      <trkpt lat="48.58324" lon="1.7549">
        <ele>146</ele>
        <time>2010-05-15T09:42:59Z</time>
      </trkpt>
      <trkpt lat="48.58324" lon="1.75492">
        <ele>146</ele>
        <time>2010-05-15T09:43:00Z</time>
      </trkpt>
      <trkpt lat="48.58324" lon="1.75494">
        <ele>146</ele>
        <time>2010-05-15T09:43:01Z</time>
      </trkpt>
      <trkpt lat="48.58325" lon="1.75495">
        <ele>146</ele>
        <time>2010-05-15T09:43:02Z</time>
      </trkpt>
      <trkpt lat="48.58325" lon="1.75497">
        <ele>146</ele>
        <time>2010-05-15T09:43:03Z</time>
      </trkpt>
      <trkpt lat="48.58325" lon="1.755">
        <ele>146</ele>
        <time>2010-05-15T09:43:04Z</time>
      </trkpt>
      <trkpt lat="48.58324" lon="1.75502">
        <ele>146</ele>
        <time>2010-05-15T09:43:05Z</time>
      </trkpt>
      <trkpt lat="48.58325" lon="1.75504">
        <ele>146</ele>
        <time>2010-05-15T09:43:06Z</time>
      </trkpt>
      <trkpt lat="48.58324" lon="1.75507">
        <ele>146</ele>
        <time>2010-05-15T09:43:07Z</time>
      </trkpt>
      <trkpt lat="48.58324" lon="1.75509">
        <ele>146</ele>
        <time>2010-05-15T09:43:08Z</time>
      </trkpt>
      <trkpt lat="48.58323" lon="1.75511">
        <ele>146</ele>
        <time>2010-05-15T09:43:09Z</time>
      </trkpt>
      <trkpt lat="48.58323" lon="1.75514">
        <ele>146</ele>
        <time>2010-05-15T09:43:10Z</time>
      </trkpt>
      <trkpt lat="48.58323" lon="1.75517">
        <ele>146</ele>
        <time>2010-05-15T09:43:11Z</time>
      </trkpt>
      <trkpt lat="48.58322" lon="1.75519">
        <ele>146</ele>
        <time>2010-05-15T09:43:12Z</time>
      </trkpt>
      <trkpt lat="48.58322" lon="1.75521">
        <ele>146</ele>
        <time>2010-05-15T09:43:13Z</time>
      </trkpt>
      <trkpt lat="48.58322" lon="1.75524">
        <ele>146</ele>
        <time>2010-05-15T09:43:14Z</time>
      </trkpt>
      <trkpt lat="48.58321" lon="1.75526">
        <ele>146</ele>
        <time>2010-05-15T09:43:15Z</time>
      </trkpt>
      <trkpt lat="48.58321" lon="1.75528">
        <ele>146</ele>
        <time>2010-05-15T09:43:16Z</time>
      </trkpt>
      <trkpt lat="48.58321" lon="1.7553">
        <ele>146</ele>
        <time>2010-05-15T09:43:17Z</time>
      </trkpt>
      <trkpt lat="48.58321" lon="1.75532">
        <ele>146</ele>
        <time>2010-05-15T09:43:18Z</time>
      </trkpt>
      <trkpt lat="48.58321" lon="1.75534">
        <ele>146</ele>
        <time>2010-05-15T09:43:19Z</time>
      </trkpt>
      <trkpt lat="48.58321" lon="1.75537">
        <ele>146</ele>
        <time>2010-05-15T09:43:20Z</time>
      </trkpt>
      <trkpt lat="48.5832" lon="1.75539">
        <ele>146</ele>
        <time>2010-05-15T09:43:21Z</time>
      </trkpt>
      <trkpt lat="48.5832" lon="1.75542">
        <ele>146</ele>
        <time>2010-05-15T09:43:22Z</time>
      </trkpt>
      <trkpt lat="48.58319" lon="1.75544">
        <ele>146</ele>
        <time>2010-05-15T09:43:23Z</time>
      </trkpt>
      <trkpt lat="48.58319" lon="1.75547">
        <ele>146</ele>
        <time>2010-05-15T09:43:24Z</time>
      </trkpt>
      <trkpt lat="48.58318" lon="1.7555">
        <ele>146</ele>
        <time>2010-05-15T09:43:25Z</time>
      </trkpt>
      <trkpt lat="48.58318" lon="1.75552">
        <ele>146</ele>
        <time>2010-05-15T09:43:26Z</time>
      </trkpt>
      <trkpt lat="48.58318" lon="1.75554">
        <ele>146</ele>
        <time>2010-05-15T09:43:27Z</time>
      </trkpt>
      <trkpt lat="48.58317" lon="1.75557">
        <ele>146</ele>
        <time>2010-05-15T09:43:28Z</time>
      </trkpt>
      <trkpt lat="48.58317" lon="1.75559">
        <ele>146</ele>
        <time>2010-05-15T09:43:29Z</time>
      </trkpt>
      <trkpt lat="48.58316" lon="1.75561">
        <ele>146</ele>
        <time>2010-05-15T09:43:30Z</time>
      </trkpt>
      <trkpt lat="48.58316" lon="1.75564">
        <ele>146</ele>
        <time>2010-05-15T09:43:31Z</time>
      </trkpt>
      <trkpt lat="48.58315" lon="1.75566">
        <ele>146</ele>
        <time>2010-05-15T09:43:32Z</time>
      </trkpt>
      <trkpt lat="48.58315" lon="1.75568">
        <ele>146</ele>
        <time>2010-05-15T09:43:33Z</time>
      </trkpt>
      <trkpt lat="48.58315" lon="1.7557">
        <ele>146</ele>
        <time>2010-05-15T09:43:34Z</time>
      </trkpt>
      <trkpt lat="48.58315" lon="1.75573">
        <ele>146</ele>
        <time>2010-05-15T09:43:35Z</time>
      </trkpt>
      <trkpt lat="48.58315" lon="1.75575">
        <ele>146</ele>
        <time>2010-05-15T09:43:36Z</time>
      </trkpt>
      <trkpt lat="48.58315" lon="1.75576">
        <ele>146</ele>
        <time>2010-05-15T09:43:37Z</time>
      </trkpt>
      <trkpt lat="48.58315" lon="1.75578">
        <ele>146</ele>
        <time>2010-05-15T09:43:38Z</time>
      </trkpt>
      <trkpt lat="48.58314" lon="1.75581">
        <ele>146</ele>
        <time>2010-05-15T09:43:39Z</time>
      </trkpt>
      <trkpt lat="48.58314" lon="1.75583">
        <ele>145</ele>
        <time>2010-05-15T09:43:40Z</time>
      </trkpt>
      <trkpt lat="48.58314" lon="1.75584">
        <ele>145</ele>
        <time>2010-05-15T09:43:41Z</time>
      </trkpt>
      <trkpt lat="48.58314" lon="1.75586">
        <ele>145</ele>
        <time>2010-05-15T09:43:42Z</time>
      </trkpt>
      <trkpt lat="48.58314" lon="1.75588">
        <ele>145</ele>
        <time>2010-05-15T09:43:43Z</time>
      </trkpt>
      <trkpt lat="48.58314" lon="1.7559">
        <ele>145</ele>
        <time>2010-05-15T09:43:44Z</time>
      </trkpt>
      <trkpt lat="48.58314" lon="1.75592">
        <ele>145</ele>
        <time>2010-05-15T09:43:45Z</time>
      </trkpt>
      <trkpt lat="48.58314" lon="1.75595">
        <ele>145</ele>
        <time>2010-05-15T09:43:46Z</time>
      </trkpt>
      <trkpt lat="48.58314" lon="1.75597">
        <ele>145</ele>
        <time>2010-05-15T09:43:47Z</time>
      </trkpt>
      <trkpt lat="48.58313" lon="1.756">
        <ele>145</ele>
        <time>2010-05-15T09:43:48Z</time>
      </trkpt>
      <trkpt lat="48.58312" lon="1.75602">
        <ele>144</ele>
        <time>2010-05-15T09:43:49Z</time>
      </trkpt>
      <trkpt lat="48.58312" lon="1.75604">
        <ele>144</ele>
        <time>2010-05-15T09:43:50Z</time>
      </trkpt>
      <trkpt lat="48.58311" lon="1.75606">
        <ele>144</ele>
        <time>2010-05-15T09:43:51Z</time>
      </trkpt>
      <trkpt lat="48.5831" lon="1.75609">
        <ele>144</ele>
        <time>2010-05-15T09:43:53Z</time>
      </trkpt>
      <trkpt lat="48.58309" lon="1.75612">
        <ele>143</ele>
        <time>2010-05-15T09:43:55Z</time>
      </trkpt>
      <trkpt lat="48.58308" lon="1.75614">
        <ele>143</ele>
        <time>2010-05-15T09:43:56Z</time>
      </trkpt>
      <trkpt lat="48.58307" lon="1.75616">
        <ele>143</ele>
        <time>2010-05-15T09:43:57Z</time>
      </trkpt>
      <trkpt lat="48.58307" lon="1.75618">
        <ele>143</ele>
        <time>2010-05-15T09:43:58Z</time>
      </trkpt>
      <trkpt lat="48.58307" lon="1.7562">
        <ele>143</ele>
        <time>2010-05-15T09:43:59Z</time>
      </trkpt>
      <trkpt lat="48.58306" lon="1.75622">
        <ele>143</ele>
        <time>2010-05-15T09:44:00Z</time>
      </trkpt>
      <trkpt lat="48.58306" lon="1.75624">
        <ele>143</ele>
        <time>2010-05-15T09:44:01Z</time>
      </trkpt>
      <trkpt lat="48.58306" lon="1.75626">
        <ele>143</ele>
        <time>2010-05-15T09:44:02Z</time>
      </trkpt>
      <trkpt lat="48.58305" lon="1.75628">
        <ele>143</ele>
        <time>2010-05-15T09:44:03Z</time>
      </trkpt>
      <trkpt lat="48.58305" lon="1.7563">
        <ele>143</ele>
        <time>2010-05-15T09:44:04Z</time>
      </trkpt>
      <trkpt lat="48.58304" lon="1.75632">
        <ele>143</ele>
        <time>2010-05-15T09:44:05Z</time>
      </trkpt>
      <trkpt lat="48.58304" lon="1.75634">
        <ele>143</ele>
        <time>2010-05-15T09:44:06Z</time>
      </trkpt>
      <trkpt lat="48.58303" lon="1.75636">
        <ele>143</ele>
        <time>2010-05-15T09:44:07Z</time>
      </trkpt>
      <trkpt lat="48.58303" lon="1.75638">
        <ele>143</ele>
        <time>2010-05-15T09:44:08Z</time>
      </trkpt>
      <trkpt lat="48.58302" lon="1.7564">
        <ele>143</ele>
        <time>2010-05-15T09:44:09Z</time>
      </trkpt>
      <trkpt lat="48.58302" lon="1.75642">
        <ele>143</ele>
        <time>2010-05-15T09:44:10Z</time>
      </trkpt>
      <trkpt lat="48.58301" lon="1.75644">
        <ele>143</ele>
        <time>2010-05-15T09:44:12Z</time>
      </trkpt>
      <trkpt lat="48.58301" lon="1.75648">
        <ele>143</ele>
        <time>2010-05-15T09:44:14Z</time>
      </trkpt>
      <trkpt lat="48.58301" lon="1.7565">
        <ele>143</ele>
        <time>2010-05-15T09:44:15Z</time>
      </trkpt>
      <trkpt lat="48.583" lon="1.75652">
        <ele>143</ele>
        <time>2010-05-15T09:44:16Z</time>
      </trkpt>
      <trkpt lat="48.583" lon="1.75654">
        <ele>143</ele>
        <time>2010-05-15T09:44:17Z</time>
      </trkpt>
      <trkpt lat="48.583" lon="1.75657">
        <ele>143</ele>
        <time>2010-05-15T09:44:18Z</time>
      </trkpt>
      <trkpt lat="48.58299" lon="1.75659">
        <ele>142</ele>
        <time>2010-05-15T09:44:19Z</time>
      </trkpt>
      <trkpt lat="48.58299" lon="1.75661">
        <ele>142</ele>
        <time>2010-05-15T09:44:20Z</time>
      </trkpt>
      <trkpt lat="48.58299" lon="1.75663">
        <ele>142</ele>
        <time>2010-05-15T09:44:21Z</time>
      </trkpt>
      <trkpt lat="48.58298" lon="1.75666">
        <ele>142</ele>
        <time>2010-05-15T09:44:22Z</time>
      </trkpt>
      <trkpt lat="48.58298" lon="1.75668">
        <ele>142</ele>
        <time>2010-05-15T09:44:23Z</time>
      </trkpt>
      <trkpt lat="48.58297" lon="1.7567">
        <ele>142</ele>
        <time>2010-05-15T09:44:24Z</time>
      </trkpt>
      <trkpt lat="48.58297" lon="1.75672">
        <ele>142</ele>
        <time>2010-05-15T09:44:25Z</time>
      </trkpt>
      <trkpt lat="48.58297" lon="1.75674">
        <ele>142</ele>
        <time>2010-05-15T09:44:26Z</time>
      </trkpt>
      <trkpt lat="48.58297" lon="1.75676">
        <ele>142</ele>
        <time>2010-05-15T09:44:27Z</time>
      </trkpt>
      <trkpt lat="48.58297" lon="1.75678">
        <ele>142</ele>
        <time>2010-05-15T09:44:28Z</time>
      </trkpt>
      <trkpt lat="48.58297" lon="1.7568">
        <ele>142</ele>
        <time>2010-05-15T09:44:29Z</time>
      </trkpt>
      <trkpt lat="48.58296" lon="1.75683">
        <ele>142</ele>
        <time>2010-05-15T09:44:30Z</time>
      </trkpt>
      <trkpt lat="48.58295" lon="1.75685">
        <ele>141</ele>
        <time>2010-05-15T09:44:31Z</time>
      </trkpt>
      <trkpt lat="48.58295" lon="1.75687">
        <ele>141</ele>
        <time>2010-05-15T09:44:32Z</time>
      </trkpt>
      <trkpt lat="48.58293" lon="1.75691">
        <ele>141</ele>
        <time>2010-05-15T09:44:34Z</time>
      </trkpt>
      <trkpt lat="48.58292" lon="1.75693">
        <ele>140</ele>
        <time>2010-05-15T09:44:35Z</time>
      </trkpt>
      <trkpt lat="48.58292" lon="1.75695">
        <ele>140</ele>
        <time>2010-05-15T09:44:36Z</time>
      </trkpt>
      <trkpt lat="48.58291" lon="1.75697">
        <ele>140</ele>
        <time>2010-05-15T09:44:37Z</time>
      </trkpt>
      <trkpt lat="48.5829" lon="1.757">
        <ele>140</ele>
        <time>2010-05-15T09:44:38Z</time>
      </trkpt>
      <trkpt lat="48.58289" lon="1.75702">
        <ele>140</ele>
        <time>2010-05-15T09:44:39Z</time>
      </trkpt>
      <trkpt lat="48.58288" lon="1.75704">
        <ele>140</ele>
        <time>2010-05-15T09:44:40Z</time>
      </trkpt>
      <trkpt lat="48.58287" lon="1.75707">
        <ele>140</ele>
        <time>2010-05-15T09:44:41Z</time>
      </trkpt>
      <trkpt lat="48.58287" lon="1.75709">
        <ele>140</ele>
        <time>2010-05-15T09:44:42Z</time>
      </trkpt>
      <trkpt lat="48.58286" lon="1.75711">
        <ele>140</ele>
        <time>2010-05-15T09:44:43Z</time>
      </trkpt>
      <trkpt lat="48.58285" lon="1.75714">
        <ele>140</ele>
        <time>2010-05-15T09:44:44Z</time>
      </trkpt>
      <trkpt lat="48.58284" lon="1.75716">
        <ele>140</ele>
        <time>2010-05-15T09:44:45Z</time>
      </trkpt>
      <trkpt lat="48.58284" lon="1.75717">
        <ele>140</ele>
        <time>2010-05-15T09:44:46Z</time>
      </trkpt>
      <trkpt lat="48.58283" lon="1.75719">
        <ele>140</ele>
        <time>2010-05-15T09:44:47Z</time>
      </trkpt>
      <trkpt lat="48.58283" lon="1.75721">
        <ele>140</ele>
        <time>2010-05-15T09:44:48Z</time>
      </trkpt>
      <trkpt lat="48.58282" lon="1.75723">
        <ele>140</ele>
        <time>2010-05-15T09:44:49Z</time>
      </trkpt>
      <trkpt lat="48.58281" lon="1.75724">
        <ele>140</ele>
        <time>2010-05-15T09:44:50Z</time>
      </trkpt>
      <trkpt lat="48.5828" lon="1.75727">
        <ele>140</ele>
        <time>2010-05-15T09:44:52Z</time>
      </trkpt>
      <trkpt lat="48.58279" lon="1.75729">
        <ele>140</ele>
        <time>2010-05-15T09:44:53Z</time>
      </trkpt>
      <trkpt lat="48.58278" lon="1.75731">
        <ele>140</ele>
        <time>2010-05-15T09:44:54Z</time>
      </trkpt>
      <trkpt lat="48.58276" lon="1.75734">
        <ele>140</ele>
        <time>2010-05-15T09:44:56Z</time>
      </trkpt>
      <trkpt lat="48.58275" lon="1.75736">
        <ele>140</ele>
        <time>2010-05-15T09:44:58Z</time>
      </trkpt>
      <trkpt lat="48.58274" lon="1.75739">
        <ele>140</ele>
        <time>2010-05-15T09:45:04Z</time>
      </trkpt>
      <trkpt lat="48.58273" lon="1.75742">
        <ele>140</ele>
        <time>2010-05-15T09:45:06Z</time>
      </trkpt>
      <trkpt lat="48.58272" lon="1.75743">
        <ele>140</ele>
        <time>2010-05-15T09:45:07Z</time>
      </trkpt>
      <trkpt lat="48.58271" lon="1.75745">
        <ele>140</ele>
        <time>2010-05-15T09:45:08Z</time>
      </trkpt>
      <trkpt lat="48.58269" lon="1.75748">
        <ele>140</ele>
        <time>2010-05-15T09:45:10Z</time>
      </trkpt>
      <trkpt lat="48.58268" lon="1.75749">
        <ele>140</ele>
        <time>2010-05-15T09:45:11Z</time>
      </trkpt>
      <trkpt lat="48.58266" lon="1.75751">
        <ele>140</ele>
        <time>2010-05-15T09:45:13Z</time>
      </trkpt>
      <trkpt lat="48.58265" lon="1.75754">
        <ele>138</ele>
        <time>2010-05-15T09:45:15Z</time>
      </trkpt>
      <trkpt lat="48.58263" lon="1.75757">
        <ele>138</ele>
        <time>2010-05-15T09:45:17Z</time>
      </trkpt>
      <trkpt lat="48.58261" lon="1.75759">
        <ele>138</ele>
        <time>2010-05-15T09:45:19Z</time>
      </trkpt>
      <trkpt lat="48.5826" lon="1.75762">
        <ele>138</ele>
        <time>2010-05-15T09:45:21Z</time>
      </trkpt>
      <trkpt lat="48.58258" lon="1.75765">
        <ele>138</ele>
        <time>2010-05-15T09:45:23Z</time>
      </trkpt>
      <trkpt lat="48.58257" lon="1.75768">
        <ele>138</ele>
        <time>2010-05-15T09:45:25Z</time>
      </trkpt>
      <trkpt lat="48.58255" lon="1.7577">
        <ele>138</ele>
        <time>2010-05-15T09:45:27Z</time>
      </trkpt>
      <trkpt lat="48.58254" lon="1.75773">
        <ele>138</ele>
        <time>2010-05-15T09:45:29Z</time>
      </trkpt>
      <trkpt lat="48.58253" lon="1.75776">
        <ele>138</ele>
        <time>2010-05-15T09:45:31Z</time>
      </trkpt>
      <trkpt lat="48.58251" lon="1.75779">
        <ele>138</ele>
        <time>2010-05-15T09:45:33Z</time>
      </trkpt>
      <trkpt lat="48.5825" lon="1.75781">
        <ele>138</ele>
        <time>2010-05-15T09:45:35Z</time>
      </trkpt>
      <trkpt lat="48.58249" lon="1.75785">
        <ele>138</ele>
        <time>2010-05-15T09:45:37Z</time>
      </trkpt>
      <trkpt lat="48.58248" lon="1.75786">
        <ele>138</ele>
        <time>2010-05-15T09:45:38Z</time>
      </trkpt>
      <trkpt lat="48.58247" lon="1.75788">
        <ele>138</ele>
        <time>2010-05-15T09:45:39Z</time>
      </trkpt>
      <trkpt lat="48.58245" lon="1.7579">
        <ele>138</ele>
        <time>2010-05-15T09:45:40Z</time>
      </trkpt>
      <trkpt lat="48.58244" lon="1.75791">
        <ele>138</ele>
        <time>2010-05-15T09:45:41Z</time>
      </trkpt>
      <trkpt lat="48.58242" lon="1.75793">
        <ele>138</ele>
        <time>2010-05-15T09:45:43Z</time>
      </trkpt>
      <trkpt lat="48.5824" lon="1.75797">
        <ele>138</ele>
        <time>2010-05-15T09:45:45Z</time>
      </trkpt>
      <trkpt lat="48.58238" lon="1.75798">
        <ele>138</ele>
        <time>2010-05-15T09:45:46Z</time>
      </trkpt>
      <trkpt lat="48.58237" lon="1.758">
        <ele>138</ele>
        <time>2010-05-15T09:45:47Z</time>
      </trkpt>
      <trkpt lat="48.58236" lon="1.75802">
        <ele>139</ele>
        <time>2010-05-15T09:45:48Z</time>
      </trkpt>
      <trkpt lat="48.58234" lon="1.75804">
        <ele>139</ele>
        <time>2010-05-15T09:45:49Z</time>
      </trkpt>
      <trkpt lat="48.58232" lon="1.75806">
        <ele>139</ele>
        <time>2010-05-15T09:45:50Z</time>
      </trkpt>
      <trkpt lat="48.5823" lon="1.75808">
        <ele>140</ele>
        <time>2010-05-15T09:45:52Z</time>
      </trkpt>
      <trkpt lat="48.58229" lon="1.7581">
        <ele>140</ele>
        <time>2010-05-15T09:45:53Z</time>
      </trkpt>
      <trkpt lat="48.58227" lon="1.75812">
        <ele>140</ele>
        <time>2010-05-15T09:45:54Z</time>
      </trkpt>
      <trkpt lat="48.58225" lon="1.75815">
        <ele>140</ele>
        <time>2010-05-15T09:45:55Z</time>
      </trkpt>
      <trkpt lat="48.58224" lon="1.75817">
        <ele>140</ele>
        <time>2010-05-15T09:45:56Z</time>
      </trkpt>
      <trkpt lat="48.58222" lon="1.75818">
        <ele>140</ele>
        <time>2010-05-15T09:45:57Z</time>
      </trkpt>
      <trkpt lat="48.58219" lon="1.75822">
        <ele>140</ele>
        <time>2010-05-15T09:45:58Z</time>
      </trkpt>
      <trkpt lat="48.58218" lon="1.75824">
        <ele>140</ele>
        <time>2010-05-15T09:45:59Z</time>
      </trkpt>
      <trkpt lat="48.58216" lon="1.75826">
        <ele>140</ele>
        <time>2010-05-15T09:46:00Z</time>
      </trkpt>
      <trkpt lat="48.58215" lon="1.75829">
        <ele>140</ele>
        <time>2010-05-15T09:46:01Z</time>
      </trkpt>
      <trkpt lat="48.58214" lon="1.75832">
        <ele>141</ele>
        <time>2010-05-15T09:46:02Z</time>
      </trkpt>
      <trkpt lat="48.58212" lon="1.75836">
        <ele>142</ele>
        <time>2010-05-15T09:46:03Z</time>
      </trkpt>
      <trkpt lat="48.58211" lon="1.75838">
        <ele>143</ele>
        <time>2010-05-15T09:46:05Z</time>
      </trkpt>
      <trkpt lat="48.58209" lon="1.7584">
        <ele>144</ele>
        <time>2010-05-15T09:46:07Z</time>
      </trkpt>
      <trkpt lat="48.58208" lon="1.75842">
        <ele>144</ele>
        <time>2010-05-15T09:46:08Z</time>
      </trkpt>
      <trkpt lat="48.58207" lon="1.75844">
        <ele>144</ele>
        <time>2010-05-15T09:46:10Z</time>
      </trkpt>
      <trkpt lat="48.58206" lon="1.75847">
        <ele>144</ele>
        <time>2010-05-15T09:46:12Z</time>
      </trkpt>
      <trkpt lat="48.58204" lon="1.75851">
        <ele>144</ele>
        <time>2010-05-15T09:46:14Z</time>
      </trkpt>
      <trkpt lat="48.58202" lon="1.75853">
        <ele>144</ele>
        <time>2010-05-15T09:46:15Z</time>
      </trkpt>
      <trkpt lat="48.58201" lon="1.75855">
        <ele>144</ele>
        <time>2010-05-15T09:46:16Z</time>
      </trkpt>
      <trkpt lat="48.582" lon="1.75857">
        <ele>144</ele>
        <time>2010-05-15T09:46:17Z</time>
      </trkpt>
      <trkpt lat="48.58199" lon="1.75859">
        <ele>144</ele>
        <time>2010-05-15T09:46:18Z</time>
      </trkpt>
      <trkpt lat="48.58198" lon="1.75862">
        <ele>144</ele>
        <time>2010-05-15T09:46:19Z</time>
      </trkpt>
      <trkpt lat="48.58197" lon="1.75863">
        <ele>144</ele>
        <time>2010-05-15T09:46:20Z</time>
      </trkpt>
      <trkpt lat="48.58197" lon="1.75865">
        <ele>144</ele>
        <time>2010-05-15T09:46:21Z</time>
      </trkpt>
      <trkpt lat="48.58195" lon="1.75868">
        <ele>144</ele>
        <time>2010-05-15T09:46:22Z</time>
      </trkpt>
      <trkpt lat="48.58195" lon="1.7587">
        <ele>145</ele>
        <time>2010-05-15T09:46:24Z</time>
      </trkpt>
      <trkpt lat="48.58194" lon="1.75873">
        <ele>145</ele>
        <time>2010-05-15T09:46:26Z</time>
      </trkpt>
      <trkpt lat="48.58192" lon="1.75874">
        <ele>146</ele>
        <time>2010-05-15T09:46:27Z</time>
      </trkpt>
      <trkpt lat="48.58192" lon="1.75876">
        <ele>146</ele>
        <time>2010-05-15T09:46:28Z</time>
      </trkpt>
      <trkpt lat="48.58191" lon="1.75878">
        <ele>146</ele>
        <time>2010-05-15T09:46:29Z</time>
      </trkpt>
      <trkpt lat="48.5819" lon="1.7588">
        <ele>146</ele>
        <time>2010-05-15T09:46:30Z</time>
      </trkpt>
      <trkpt lat="48.5819" lon="1.75882">
        <ele>146</ele>
        <time>2010-05-15T09:46:31Z</time>
      </trkpt>
      <trkpt lat="48.58189" lon="1.75884">
        <ele>146</ele>
        <time>2010-05-15T09:46:32Z</time>
      </trkpt>
      <trkpt lat="48.58188" lon="1.75887">
        <ele>146</ele>
        <time>2010-05-15T09:46:33Z</time>
      </trkpt>
      <trkpt lat="48.58187" lon="1.7589">
        <ele>146</ele>
        <time>2010-05-15T09:46:34Z</time>
      </trkpt>
      <trkpt lat="48.58186" lon="1.75891">
        <ele>146</ele>
        <time>2010-05-15T09:46:35Z</time>
      </trkpt>
      <trkpt lat="48.58185" lon="1.75893">
        <ele>146</ele>
        <time>2010-05-15T09:46:36Z</time>
      </trkpt>
      <trkpt lat="48.58183" lon="1.75898">
        <ele>146</ele>
        <time>2010-05-15T09:46:38Z</time>
      </trkpt>
      <trkpt lat="48.58182" lon="1.759">
        <ele>146</ele>
        <time>2010-05-15T09:46:39Z</time>
      </trkpt>
      <trkpt lat="48.58182" lon="1.75902">
        <ele>146</ele>
        <time>2010-05-15T09:46:40Z</time>
      </trkpt>
      <trkpt lat="48.58181" lon="1.75904">
        <ele>146</ele>
        <time>2010-05-15T09:46:41Z</time>
      </trkpt>
      <trkpt lat="48.5818" lon="1.75907">
        <ele>146</ele>
        <time>2010-05-15T09:46:43Z</time>
      </trkpt>
      <trkpt lat="48.5818" lon="1.7591">
        <ele>146</ele>
        <time>2010-05-15T09:46:44Z</time>
      </trkpt>
      <trkpt lat="48.58179" lon="1.75912">
        <ele>146</ele>
        <time>2010-05-15T09:46:46Z</time>
      </trkpt>
      <trkpt lat="48.58178" lon="1.75915">
        <ele>146</ele>
        <time>2010-05-15T09:46:47Z</time>
      </trkpt>
      <trkpt lat="48.58177" lon="1.75916">
        <ele>146</ele>
        <time>2010-05-15T09:46:48Z</time>
      </trkpt>
      <trkpt lat="48.58177" lon="1.75919">
        <ele>146</ele>
        <time>2010-05-15T09:46:49Z</time>
      </trkpt>
      <trkpt lat="48.58176" lon="1.75922">
        <ele>146</ele>
        <time>2010-05-15T09:46:50Z</time>
      </trkpt>
      <trkpt lat="48.58175" lon="1.75924">
        <ele>146</ele>
        <time>2010-05-15T09:46:52Z</time>
      </trkpt>
      <trkpt lat="48.58174" lon="1.75927">
        <ele>146</ele>
        <time>2010-05-15T09:46:54Z</time>
      </trkpt>
      <trkpt lat="48.58173" lon="1.75929">
        <ele>146</ele>
        <time>2010-05-15T09:46:55Z</time>
      </trkpt>
      <trkpt lat="48.58173" lon="1.75931">
        <ele>146</ele>
        <time>2010-05-15T09:46:56Z</time>
      </trkpt>
      <trkpt lat="48.58172" lon="1.75933">
        <ele>146</ele>
        <time>2010-05-15T09:46:57Z</time>
      </trkpt>
      <trkpt lat="48.58171" lon="1.75935">
        <ele>146</ele>
        <time>2010-05-15T09:46:58Z</time>
      </trkpt>
      <trkpt lat="48.58169" lon="1.75939">
        <ele>146</ele>
        <time>2010-05-15T09:47:00Z</time>
      </trkpt>
      <trkpt lat="48.58167" lon="1.75941">
        <ele>146</ele>
        <time>2010-05-15T09:47:01Z</time>
      </trkpt>
      <trkpt lat="48.58166" lon="1.75944">
        <ele>146</ele>
        <time>2010-05-15T09:47:02Z</time>
      </trkpt>
      <trkpt lat="48.58165" lon="1.75946">
        <ele>146</ele>
        <time>2010-05-15T09:47:03Z</time>
      </trkpt>
      <trkpt lat="48.58165" lon="1.75948">
        <ele>146</ele>
        <time>2010-05-15T09:47:04Z</time>
      </trkpt>
      <trkpt lat="48.58164" lon="1.7595">
        <ele>146</ele>
        <time>2010-05-15T09:47:05Z</time>
      </trkpt>
      <trkpt lat="48.58164" lon="1.75952">
        <ele>146</ele>
        <time>2010-05-15T09:47:06Z</time>
      </trkpt>
      <trkpt lat="48.58163" lon="1.75954">
        <ele>146</ele>
        <time>2010-05-15T09:47:07Z</time>
      </trkpt>
      <trkpt lat="48.58162" lon="1.75957">
        <ele>146</ele>
        <time>2010-05-15T09:47:08Z</time>
      </trkpt>
      <trkpt lat="48.58162" lon="1.7596">
        <ele>146</ele>
        <time>2010-05-15T09:47:09Z</time>
      </trkpt>
      <trkpt lat="48.5816" lon="1.75963">
        <ele>146</ele>
        <time>2010-05-15T09:47:10Z</time>
      </trkpt>
      <trkpt lat="48.58159" lon="1.75965">
        <ele>146</ele>
        <time>2010-05-15T09:47:11Z</time>
      </trkpt>
      <trkpt lat="48.58159" lon="1.75968">
        <ele>146</ele>
        <time>2010-05-15T09:47:12Z</time>
      </trkpt>
      <trkpt lat="48.58157" lon="1.7597">
        <ele>146</ele>
        <time>2010-05-15T09:47:13Z</time>
      </trkpt>
      <trkpt lat="48.58156" lon="1.75972">
        <ele>146</ele>
        <time>2010-05-15T09:47:14Z</time>
      </trkpt>
      <trkpt lat="48.58156" lon="1.75975">
        <ele>146</ele>
        <time>2010-05-15T09:47:16Z</time>
      </trkpt>
      <trkpt lat="48.58155" lon="1.75978">
        <ele>146</ele>
        <time>2010-05-15T09:47:18Z</time>
      </trkpt>
      <trkpt lat="48.58154" lon="1.7598">
        <ele>146</ele>
        <time>2010-05-15T09:47:19Z</time>
      </trkpt>
      <trkpt lat="48.58153" lon="1.75981">
        <ele>146</ele>
        <time>2010-05-15T09:47:20Z</time>
      </trkpt>
      <trkpt lat="48.58153" lon="1.75985">
        <ele>146</ele>
        <time>2010-05-15T09:47:22Z</time>
      </trkpt>
      <trkpt lat="48.58152" lon="1.75987">
        <ele>146</ele>
        <time>2010-05-15T09:47:24Z</time>
      </trkpt>
      <trkpt lat="48.58151" lon="1.75989">
        <ele>146</ele>
        <time>2010-05-15T09:47:25Z</time>
      </trkpt>
      <trkpt lat="48.58151" lon="1.75991">
        <ele>146</ele>
        <time>2010-05-15T09:47:26Z</time>
      </trkpt>
      <trkpt lat="48.58151" lon="1.75993">
        <ele>146</ele>
        <time>2010-05-15T09:47:27Z</time>
      </trkpt>
      <trkpt lat="48.58151" lon="1.75995">
        <ele>146</ele>
        <time>2010-05-15T09:47:28Z</time>
      </trkpt>
      <trkpt lat="48.58151" lon="1.75997">
        <ele>146</ele>
        <time>2010-05-15T09:47:29Z</time>
      </trkpt>
      <trkpt lat="48.5815" lon="1.75999">
        <ele>146</ele>
        <time>2010-05-15T09:47:30Z</time>
      </trkpt>
      <trkpt lat="48.5815" lon="1.76002">
        <ele>146</ele>
        <time>2010-05-15T09:47:32Z</time>
      </trkpt>
      <trkpt lat="48.5815" lon="1.76004">
        <ele>146</ele>
        <time>2010-05-15T09:47:33Z</time>
      </trkpt>
      <trkpt lat="48.58149" lon="1.76006">
        <ele>146</ele>
        <time>2010-05-15T09:47:34Z</time>
      </trkpt>
      <trkpt lat="48.5815" lon="1.76007">
        <ele>146</ele>
        <time>2010-05-15T09:47:35Z</time>
      </trkpt>
      <trkpt lat="48.5815" lon="1.76009">
        <ele>146</ele>
        <time>2010-05-15T09:47:36Z</time>
      </trkpt>
      <trkpt lat="48.58151" lon="1.76013">
        <ele>146</ele>
        <time>2010-05-15T09:47:38Z</time>
      </trkpt>
      <trkpt lat="48.58151" lon="1.76016">
        <ele>147</ele>
        <time>2010-05-15T09:47:39Z</time>
      </trkpt>
      <trkpt lat="48.58152" lon="1.76018">
        <ele>148</ele>
        <time>2010-05-15T09:47:40Z</time>
      </trkpt>
      <trkpt lat="48.58152" lon="1.7602">
        <ele>148</ele>
        <time>2010-05-15T09:47:41Z</time>
      </trkpt>
      <trkpt lat="48.58153" lon="1.76022">
        <ele>148</ele>
        <time>2010-05-15T09:47:42Z</time>
      </trkpt>
      <trkpt lat="48.58153" lon="1.76025">
        <ele>148</ele>
        <time>2010-05-15T09:47:43Z</time>
      </trkpt>
      <trkpt lat="48.58154" lon="1.76027">
        <ele>148</ele>
        <time>2010-05-15T09:47:44Z</time>
      </trkpt>
      <trkpt lat="48.58154" lon="1.76029">
        <ele>148</ele>
        <time>2010-05-15T09:47:45Z</time>
      </trkpt>
      <trkpt lat="48.58155" lon="1.76031">
        <ele>148</ele>
        <time>2010-05-15T09:47:46Z</time>
      </trkpt>
      <trkpt lat="48.58155" lon="1.76033">
        <ele>148</ele>
        <time>2010-05-15T09:47:47Z</time>
      </trkpt>
      <trkpt lat="48.58155" lon="1.76037">
        <ele>148</ele>
        <time>2010-05-15T09:47:48Z</time>
      </trkpt>
      <trkpt lat="48.58156" lon="1.76039">
        <ele>149</ele>
        <time>2010-05-15T09:47:49Z</time>
      </trkpt>
      <trkpt lat="48.58156" lon="1.76043">
        <ele>149</ele>
        <time>2010-05-15T09:47:51Z</time>
      </trkpt>
      <trkpt lat="48.58157" lon="1.76044">
        <ele>150</ele>
        <time>2010-05-15T09:47:52Z</time>
      </trkpt>
      <trkpt lat="48.58157" lon="1.76046">
        <ele>150</ele>
        <time>2010-05-15T09:47:53Z</time>
      </trkpt>
      <trkpt lat="48.58157" lon="1.76049">
        <ele>150</ele>
        <time>2010-05-15T09:47:54Z</time>
      </trkpt>
      <trkpt lat="48.58158" lon="1.76052">
        <ele>150</ele>
        <time>2010-05-15T09:47:55Z</time>
      </trkpt>
      <trkpt lat="48.58158" lon="1.76054">
        <ele>150</ele>
        <time>2010-05-15T09:47:56Z</time>
      </trkpt>
      <trkpt lat="48.58159" lon="1.76056">
        <ele>150</ele>
        <time>2010-05-15T09:47:57Z</time>
      </trkpt>
      <trkpt lat="48.58159" lon="1.76058">
        <ele>150</ele>
        <time>2010-05-15T09:47:58Z</time>
      </trkpt>
      <trkpt lat="48.58159" lon="1.76061">
        <ele>150</ele>
        <time>2010-05-15T09:47:59Z</time>
      </trkpt>
      <trkpt lat="48.58159" lon="1.76063">
        <ele>150</ele>
        <time>2010-05-15T09:48:00Z</time>
      </trkpt>
      <trkpt lat="48.58159" lon="1.76066">
        <ele>150</ele>
        <time>2010-05-15T09:48:01Z</time>
      </trkpt>
      <trkpt lat="48.58159" lon="1.76068">
        <ele>150</ele>
        <time>2010-05-15T09:48:02Z</time>
      </trkpt>
      <trkpt lat="48.5816" lon="1.76071">
        <ele>150</ele>
        <time>2010-05-15T09:48:03Z</time>
      </trkpt>
      <trkpt lat="48.5816" lon="1.76073">
        <ele>150</ele>
        <time>2010-05-15T09:48:04Z</time>
      </trkpt>
      <trkpt lat="48.58161" lon="1.76075">
        <ele>150</ele>
        <time>2010-05-15T09:48:05Z</time>
      </trkpt>
      <trkpt lat="48.58161" lon="1.76078">
        <ele>150</ele>
        <time>2010-05-15T09:48:06Z</time>
      </trkpt>
      <trkpt lat="48.58162" lon="1.7608">
        <ele>150</ele>
        <time>2010-05-15T09:48:07Z</time>
      </trkpt>
      <trkpt lat="48.58162" lon="1.76082">
        <ele>150</ele>
        <time>2010-05-15T09:48:08Z</time>
      </trkpt>
      <trkpt lat="48.58163" lon="1.76084">
        <ele>150</ele>
        <time>2010-05-15T09:48:09Z</time>
      </trkpt>
      <trkpt lat="48.58163" lon="1.76086">
        <ele>150</ele>
        <time>2010-05-15T09:48:10Z</time>
      </trkpt>
      <trkpt lat="48.58165" lon="1.76088">
        <ele>150</ele>
        <time>2010-05-15T09:48:11Z</time>
      </trkpt>
      <trkpt lat="48.58165" lon="1.7609">
        <ele>150</ele>
        <time>2010-05-15T09:48:12Z</time>
      </trkpt>
      <trkpt lat="48.58165" lon="1.76093">
        <ele>150</ele>
        <time>2010-05-15T09:48:13Z</time>
      </trkpt>
      <trkpt lat="48.58165" lon="1.76095">
        <ele>150</ele>
        <time>2010-05-15T09:48:14Z</time>
      </trkpt>
      <trkpt lat="48.58166" lon="1.76097">
        <ele>150</ele>
        <time>2010-05-15T09:48:15Z</time>
      </trkpt>
      <trkpt lat="48.58166" lon="1.76099">
        <ele>150</ele>
        <time>2010-05-15T09:48:16Z</time>
      </trkpt>
      <trkpt lat="48.58167" lon="1.76101">
        <ele>150</ele>
        <time>2010-05-15T09:48:17Z</time>
      </trkpt>
      <trkpt lat="48.58167" lon="1.76102">
        <ele>149</ele>
        <time>2010-05-15T09:48:18Z</time>
      </trkpt>
      <trkpt lat="48.58168" lon="1.76104">
        <ele>149</ele>
        <time>2010-05-15T09:48:19Z</time>
      </trkpt>
      <trkpt lat="48.58168" lon="1.76106">
        <ele>148</ele>
        <time>2010-05-15T09:48:20Z</time>
      </trkpt>
      <trkpt lat="48.58169" lon="1.76109">
        <ele>148</ele>
        <time>2010-05-15T09:48:22Z</time>
      </trkpt>
      <trkpt lat="48.58168" lon="1.7611">
        <ele>147</ele>
        <time>2010-05-15T09:48:24Z</time>
      </trkpt>
      <trkpt lat="48.58168" lon="1.76113">
        <ele>146</ele>
        <time>2010-05-15T09:48:27Z</time>
      </trkpt>
      <trkpt lat="48.5817" lon="1.76115">
        <ele>146</ele>
        <time>2010-05-15T09:48:28Z</time>
      </trkpt>
      <trkpt lat="48.5817" lon="1.76118">
        <ele>145</ele>
        <time>2010-05-15T09:48:29Z</time>
      </trkpt>
      <trkpt lat="48.5817" lon="1.7612">
        <ele>145</ele>
        <time>2010-05-15T09:48:30Z</time>
      </trkpt>
      <trkpt lat="48.58171" lon="1.76123">
        <ele>145</ele>
        <time>2010-05-15T09:48:31Z</time>
      </trkpt>
      <trkpt lat="48.58171" lon="1.76126">
        <ele>145</ele>
        <time>2010-05-15T09:48:32Z</time>
      </trkpt>
      <trkpt lat="48.58172" lon="1.76129">
        <ele>145</ele>
        <time>2010-05-15T09:48:33Z</time>
      </trkpt>
      <trkpt lat="48.58172" lon="1.76132">
        <ele>145</ele>
        <time>2010-05-15T09:48:34Z</time>
      </trkpt>
      <trkpt lat="48.58173" lon="1.76135">
        <ele>145</ele>
        <time>2010-05-15T09:48:35Z</time>
      </trkpt>
      <trkpt lat="48.58174" lon="1.76137">
        <ele>145</ele>
        <time>2010-05-15T09:48:36Z</time>
      </trkpt>
      <trkpt lat="48.58175" lon="1.76138">
        <ele>145</ele>
        <time>2010-05-15T09:48:37Z</time>
      </trkpt>
      <trkpt lat="48.58177" lon="1.76139">
        <ele>144</ele>
        <time>2010-05-15T09:48:38Z</time>
      </trkpt>
      <trkpt lat="48.58178" lon="1.7614">
        <ele>144</ele>
        <time>2010-05-15T09:48:39Z</time>
      </trkpt>
      <trkpt lat="48.5818" lon="1.7614">
        <ele>144</ele>
        <time>2010-05-15T09:48:40Z</time>
      </trkpt>
      <trkpt lat="48.58181" lon="1.7614">
        <ele>144</ele>
        <time>2010-05-15T09:48:41Z</time>
      </trkpt>
      <trkpt lat="48.58183" lon="1.76139">
        <ele>143</ele>
        <time>2010-05-15T09:48:42Z</time>
      </trkpt>
      <trkpt lat="48.58184" lon="1.76139">
        <ele>143</ele>
        <time>2010-05-15T09:48:43Z</time>
      </trkpt>
      <trkpt lat="48.58186" lon="1.76138">
        <ele>143</ele>
        <time>2010-05-15T09:48:44Z</time>
      </trkpt>
      <trkpt lat="48.58187" lon="1.76137">
        <ele>142</ele>
        <time>2010-05-15T09:48:45Z</time>
      </trkpt>
      <trkpt lat="48.58189" lon="1.76137">
        <ele>142</ele>
        <time>2010-05-15T09:48:46Z</time>
      </trkpt>
      <trkpt lat="48.5819" lon="1.76136">
        <ele>142</ele>
        <time>2010-05-15T09:48:47Z</time>
      </trkpt>
      <trkpt lat="48.58191" lon="1.76135">
        <ele>141</ele>
        <time>2010-05-15T09:48:48Z</time>
      </trkpt>
      <trkpt lat="48.58192" lon="1.76134">
        <ele>141</ele>
        <time>2010-05-15T09:48:49Z</time>
      </trkpt>
      <trkpt lat="48.58194" lon="1.76133">
        <ele>141</ele>
        <time>2010-05-15T09:48:50Z</time>
      </trkpt>
      <trkpt lat="48.58195" lon="1.76133">
        <ele>141</ele>
        <time>2010-05-15T09:48:51Z</time>
      </trkpt>
      <trkpt lat="48.58196" lon="1.76132">
        <ele>140</ele>
        <time>2010-05-15T09:48:52Z</time>
      </trkpt>
      <trkpt lat="48.58198" lon="1.76131">
        <ele>140</ele>
        <time>2010-05-15T09:48:53Z</time>
      </trkpt>
      <trkpt lat="48.58199" lon="1.7613">
        <ele>140</ele>
        <time>2010-05-15T09:48:54Z</time>
      </trkpt>
      <trkpt lat="48.582" lon="1.76129">
        <ele>139</ele>
        <time>2010-05-15T09:48:55Z</time>
      </trkpt>
      <trkpt lat="48.58202" lon="1.76129">
        <ele>139</ele>
        <time>2010-05-15T09:48:56Z</time>
      </trkpt>
      <trkpt lat="48.58203" lon="1.76128">
        <ele>139</ele>
        <time>2010-05-15T09:48:57Z</time>
      </trkpt>
      <trkpt lat="48.58204" lon="1.76127">
        <ele>139</ele>
        <time>2010-05-15T09:48:58Z</time>
      </trkpt>
      <trkpt lat="48.58206" lon="1.76126">
        <ele>139</ele>
        <time>2010-05-15T09:48:59Z</time>
      </trkpt>
      <trkpt lat="48.58207" lon="1.76125">
        <ele>139</ele>
        <time>2010-05-15T09:49:00Z</time>
      </trkpt>
      <trkpt lat="48.58208" lon="1.76124">
        <ele>139</ele>
        <time>2010-05-15T09:49:01Z</time>
      </trkpt>
      <trkpt lat="48.5821" lon="1.76123">
        <ele>138</ele>
        <time>2010-05-15T09:49:02Z</time>
      </trkpt>
      <trkpt lat="48.58211" lon="1.76123">
        <ele>138</ele>
        <time>2010-05-15T09:49:03Z</time>
      </trkpt>
      <trkpt lat="48.58212" lon="1.76122">
        <ele>138</ele>
        <time>2010-05-15T09:49:04Z</time>
      </trkpt>
      <trkpt lat="48.58213" lon="1.76121">
        <ele>138</ele>
        <time>2010-05-15T09:49:05Z</time>
      </trkpt>
      <trkpt lat="48.58215" lon="1.7612">
        <ele>138</ele>
        <time>2010-05-15T09:49:06Z</time>
      </trkpt>
      <trkpt lat="48.58217" lon="1.76119">
        <ele>138</ele>
        <time>2010-05-15T09:49:07Z</time>
      </trkpt>
      <trkpt lat="48.58219" lon="1.76118">
        <ele>138</ele>
        <time>2010-05-15T09:49:08Z</time>
      </trkpt>
      <trkpt lat="48.5822" lon="1.76117">
        <ele>138</ele>
        <time>2010-05-15T09:49:09Z</time>
      </trkpt>
      <trkpt lat="48.58222" lon="1.76117">
        <ele>138</ele>
        <time>2010-05-15T09:49:10Z</time>
      </trkpt>
      <trkpt lat="48.58223" lon="1.76116">
        <ele>138</ele>
        <time>2010-05-15T09:49:11Z</time>
      </trkpt>
      <trkpt lat="48.58225" lon="1.76115">
        <ele>138</ele>
        <time>2010-05-15T09:49:12Z</time>
      </trkpt>
      <trkpt lat="48.58226" lon="1.76113">
        <ele>138</ele>
        <time>2010-05-15T09:49:13Z</time>
      </trkpt>
      <trkpt lat="48.58228" lon="1.76112">
        <ele>138</ele>
        <time>2010-05-15T09:49:14Z</time>
      </trkpt>
      <trkpt lat="48.5823" lon="1.76111">
        <ele>138</ele>
        <time>2010-05-15T09:49:15Z</time>
      </trkpt>
      <trkpt lat="48.58231" lon="1.76111">
        <ele>138</ele>
        <time>2010-05-15T09:49:16Z</time>
      </trkpt>
      <trkpt lat="48.58232" lon="1.7611">
        <ele>138</ele>
        <time>2010-05-15T09:49:17Z</time>
      </trkpt>
      <trkpt lat="48.58234" lon="1.76109">
        <ele>138</ele>
        <time>2010-05-15T09:49:18Z</time>
      </trkpt>
      <trkpt lat="48.58236" lon="1.76107">
        <ele>138</ele>
        <time>2010-05-15T09:49:20Z</time>
      </trkpt>
      <trkpt lat="48.58237" lon="1.76105">
        <ele>138</ele>
        <time>2010-05-15T09:49:21Z</time>
      </trkpt>
      <trkpt lat="48.58238" lon="1.76104">
        <ele>138</ele>
        <time>2010-05-15T09:49:22Z</time>
      </trkpt>
      <trkpt lat="48.5824" lon="1.76103">
        <ele>138</ele>
        <time>2010-05-15T09:49:23Z</time>
      </trkpt>
      <trkpt lat="48.58241" lon="1.76102">
        <ele>138</ele>
        <time>2010-05-15T09:49:24Z</time>
      </trkpt>
      <trkpt lat="48.58243" lon="1.76101">
        <ele>138</ele>
        <time>2010-05-15T09:49:25Z</time>
      </trkpt>
      <trkpt lat="48.58244" lon="1.761">
        <ele>138</ele>
        <time>2010-05-15T09:49:26Z</time>
      </trkpt>
      <trkpt lat="48.58245" lon="1.761">
        <ele>138</ele>
        <time>2010-05-15T09:49:27Z</time>
      </trkpt>
      <trkpt lat="48.58247" lon="1.76099">
        <ele>138</ele>
        <time>2010-05-15T09:49:28Z</time>
      </trkpt>
      <trkpt lat="48.58248" lon="1.76098">
        <ele>138</ele>
        <time>2010-05-15T09:49:29Z</time>
      </trkpt>
      <trkpt lat="48.5825" lon="1.76098">
        <ele>138</ele>
        <time>2010-05-15T09:49:30Z</time>
      </trkpt>
      <trkpt lat="48.58252" lon="1.76097">
        <ele>138</ele>
        <time>2010-05-15T09:49:31Z</time>
      </trkpt>
      <trkpt lat="48.58253" lon="1.76096">
        <ele>138</ele>
        <time>2010-05-15T09:49:32Z</time>
      </trkpt>
      <trkpt lat="48.58255" lon="1.76095">
        <ele>138</ele>
        <time>2010-05-15T09:49:33Z</time>
      </trkpt>
      <trkpt lat="48.58256" lon="1.76094">
        <ele>138</ele>
        <time>2010-05-15T09:49:34Z</time>
      </trkpt>
      <trkpt lat="48.58258" lon="1.76094">
        <ele>138</ele>
        <time>2010-05-15T09:49:35Z</time>
      </trkpt>
      <trkpt lat="48.58259" lon="1.76093">
        <ele>138</ele>
        <time>2010-05-15T09:49:36Z</time>
      </trkpt>
      <trkpt lat="48.58261" lon="1.76092">
        <ele>138</ele>
        <time>2010-05-15T09:49:37Z</time>
      </trkpt>
      <trkpt lat="48.58262" lon="1.76091">
        <ele>138</ele>
        <time>2010-05-15T09:49:38Z</time>
      </trkpt>
      <trkpt lat="48.58263" lon="1.7609">
        <ele>138</ele>
        <time>2010-05-15T09:49:39Z</time>
      </trkpt>
      <trkpt lat="48.58265" lon="1.76089">
        <ele>138</ele>
        <time>2010-05-15T09:49:40Z</time>
      </trkpt>
      <trkpt lat="48.58267" lon="1.76088">
        <ele>138</ele>
        <time>2010-05-15T09:49:41Z</time>
      </trkpt>
      <trkpt lat="48.58268" lon="1.76088">
        <ele>138</ele>
        <time>2010-05-15T09:49:42Z</time>
      </trkpt>
      <trkpt lat="48.58269" lon="1.76087">
        <ele>138</ele>
        <time>2010-05-15T09:49:43Z</time>
      </trkpt>
      <trkpt lat="48.58271" lon="1.76086">
        <ele>138</ele>
        <time>2010-05-15T09:49:44Z</time>
      </trkpt>
      <trkpt lat="48.58272" lon="1.76085">
        <ele>138</ele>
        <time>2010-05-15T09:49:45Z</time>
      </trkpt>
      <trkpt lat="48.58273" lon="1.76084">
        <ele>138</ele>
        <time>2010-05-15T09:49:46Z</time>
      </trkpt>
      <trkpt lat="48.58275" lon="1.76082">
        <ele>138</ele>
        <time>2010-05-15T09:49:47Z</time>
      </trkpt>
      <trkpt lat="48.58277" lon="1.76081">
        <ele>138</ele>
        <time>2010-05-15T09:49:49Z</time>
      </trkpt>
      <trkpt lat="48.58278" lon="1.7608">
        <ele>138</ele>
        <time>2010-05-15T09:49:50Z</time>
      </trkpt>
      <trkpt lat="48.5828" lon="1.76079">
        <ele>138</ele>
        <time>2010-05-15T09:49:51Z</time>
      </trkpt>
      <trkpt lat="48.58281" lon="1.76078">
        <ele>138</ele>
        <time>2010-05-15T09:49:52Z</time>
      </trkpt>
      <trkpt lat="48.58282" lon="1.76077">
        <ele>138</ele>
        <time>2010-05-15T09:49:53Z</time>
      </trkpt>
      <trkpt lat="48.58284" lon="1.76076">
        <ele>138</ele>
        <time>2010-05-15T09:49:54Z</time>
      </trkpt>
      <trkpt lat="48.58285" lon="1.76076">
        <ele>138</ele>
        <time>2010-05-15T09:49:55Z</time>
      </trkpt>
      <trkpt lat="48.58286" lon="1.76075">
        <ele>138</ele>
        <time>2010-05-15T09:49:56Z</time>
      </trkpt>
      <trkpt lat="48.58288" lon="1.76074">
        <ele>138</ele>
        <time>2010-05-15T09:49:57Z</time>
      </trkpt>
      <trkpt lat="48.58289" lon="1.76073">
        <ele>138</ele>
        <time>2010-05-15T09:49:58Z</time>
      </trkpt>
      <trkpt lat="48.5829" lon="1.76072">
        <ele>138</ele>
        <time>2010-05-15T09:49:59Z</time>
      </trkpt>
      <trkpt lat="48.58292" lon="1.76071">
        <ele>138</ele>
        <time>2010-05-15T09:50:00Z</time>
      </trkpt>
      <trkpt lat="48.58293" lon="1.7607">
        <ele>138</ele>
        <time>2010-05-15T09:50:01Z</time>
      </trkpt>
      <trkpt lat="48.58294" lon="1.76068">
        <ele>138</ele>
        <time>2010-05-15T09:50:02Z</time>
      </trkpt>
      <trkpt lat="48.58296" lon="1.76065">
        <ele>138</ele>
        <time>2010-05-15T09:50:04Z</time>
      </trkpt>
      <trkpt lat="48.58298" lon="1.76062">
        <ele>138</ele>
        <time>2010-05-15T09:50:05Z</time>
      </trkpt>
      <trkpt lat="48.58299" lon="1.7606">
        <ele>138</ele>
        <time>2010-05-15T09:50:06Z</time>
      </trkpt>
      <trkpt lat="48.583" lon="1.76056">
        <ele>138</ele>
        <time>2010-05-15T09:50:07Z</time>
      </trkpt>
      <trkpt lat="48.58301" lon="1.76053">
        <ele>138</ele>
        <time>2010-05-15T09:50:08Z</time>
      </trkpt>
      <trkpt lat="48.58302" lon="1.76049">
        <ele>138</ele>
        <time>2010-05-15T09:50:09Z</time>
      </trkpt>
      <trkpt lat="48.58302" lon="1.76045">
        <ele>138</ele>
        <time>2010-05-15T09:50:10Z</time>
      </trkpt>
      <trkpt lat="48.58303" lon="1.76042">
        <ele>138</ele>
        <time>2010-05-15T09:50:11Z</time>
      </trkpt>
      <trkpt lat="48.58303" lon="1.7604">
        <ele>138</ele>
        <time>2010-05-15T09:50:12Z</time>
      </trkpt>
      <trkpt lat="48.58304" lon="1.76038">
        <ele>138</ele>
        <time>2010-05-15T09:50:13Z</time>
      </trkpt>
      <trkpt lat="48.58304" lon="1.76036">
        <ele>138</ele>
        <time>2010-05-15T09:50:14Z</time>
      </trkpt>
      <trkpt lat="48.58304" lon="1.76034">
        <ele>138</ele>
        <time>2010-05-15T09:50:15Z</time>
      </trkpt>
      <trkpt lat="48.58304" lon="1.76032">
        <ele>138</ele>
        <time>2010-05-15T09:50:16Z</time>
      </trkpt>
      <trkpt lat="48.58304" lon="1.7603">
        <ele>138</ele>
        <time>2010-05-15T09:50:17Z</time>
      </trkpt>
      <trkpt lat="48.58305" lon="1.76028">
        <ele>138</ele>
        <time>2010-05-15T09:50:18Z</time>
      </trkpt>
      <trkpt lat="48.58305" lon="1.76026">
        <ele>138</ele>
        <time>2010-05-15T09:50:19Z</time>
      </trkpt>
      <trkpt lat="48.58305" lon="1.76024">
        <ele>138</ele>
        <time>2010-05-15T09:50:20Z</time>
      </trkpt>
      <trkpt lat="48.58305" lon="1.76022">
        <ele>138</ele>
        <time>2010-05-15T09:50:21Z</time>
      </trkpt>
      <trkpt lat="48.58306" lon="1.7602">
        <ele>138</ele>
        <time>2010-05-15T09:50:22Z</time>
      </trkpt>
      <trkpt lat="48.58306" lon="1.76018">
        <ele>138</ele>
        <time>2010-05-15T09:50:23Z</time>
      </trkpt>
      <trkpt lat="48.58306" lon="1.76016">
        <ele>138</ele>
        <time>2010-05-15T09:50:24Z</time>
      </trkpt>
      <trkpt lat="48.58306" lon="1.76014">
        <ele>138</ele>
        <time>2010-05-15T09:50:25Z</time>
      </trkpt>
      <trkpt lat="48.58307" lon="1.76012">
        <ele>138</ele>
        <time>2010-05-15T09:50:26Z</time>
      </trkpt>
      <trkpt lat="48.58307" lon="1.7601">
        <ele>138</ele>
        <time>2010-05-15T09:50:27Z</time>
      </trkpt>
      <trkpt lat="48.58307" lon="1.76008">
        <ele>138</ele>
        <time>2010-05-15T09:50:28Z</time>
      </trkpt>
      <trkpt lat="48.58308" lon="1.76005">
        <ele>138</ele>
        <time>2010-05-15T09:50:29Z</time>
      </trkpt>
      <trkpt lat="48.58308" lon="1.76003">
        <ele>138</ele>
        <time>2010-05-15T09:50:30Z</time>
      </trkpt>
      <trkpt lat="48.58309" lon="1.76001">
        <ele>138</ele>
        <time>2010-05-15T09:50:31Z</time>
      </trkpt>
      <trkpt lat="48.58309" lon="1.75999">
        <ele>138</ele>
        <time>2010-05-15T09:50:32Z</time>
      </trkpt>
      <trkpt lat="48.58309" lon="1.75997">
        <ele>138</ele>
        <time>2010-05-15T09:50:33Z</time>
      </trkpt>
      <trkpt lat="48.5831" lon="1.75995">
        <ele>138</ele>
        <time>2010-05-15T09:50:34Z</time>
      </trkpt>
      <trkpt lat="48.58311" lon="1.75993">
        <ele>138</ele>
        <time>2010-05-15T09:50:35Z</time>
      </trkpt>
      <trkpt lat="48.58311" lon="1.75991">
        <ele>138</ele>
        <time>2010-05-15T09:50:36Z</time>
      </trkpt>
      <trkpt lat="48.58312" lon="1.75989">
        <ele>138</ele>
        <time>2010-05-15T09:50:37Z</time>
      </trkpt>
      <trkpt lat="48.58314" lon="1.75987">
        <ele>138</ele>
        <time>2010-05-15T09:50:39Z</time>
      </trkpt>
      <trkpt lat="48.58315" lon="1.75986">
        <ele>138</ele>
        <time>2010-05-15T09:50:41Z</time>
      </trkpt>
      <trkpt lat="48.58317" lon="1.75985">
        <ele>138</ele>
        <time>2010-05-15T09:50:42Z</time>
      </trkpt>
      <trkpt lat="48.58318" lon="1.75984">
        <ele>138</ele>
        <time>2010-05-15T09:50:43Z</time>
      </trkpt>
      <trkpt lat="48.58319" lon="1.75983">
        <ele>138</ele>
        <time>2010-05-15T09:50:44Z</time>
      </trkpt>
      <trkpt lat="48.5832" lon="1.75982">
        <ele>138</ele>
        <time>2010-05-15T09:50:45Z</time>
      </trkpt>
      <trkpt lat="48.58322" lon="1.75981">
        <ele>138</ele>
        <time>2010-05-15T09:50:46Z</time>
      </trkpt>
      <trkpt lat="48.58323" lon="1.7598">
        <ele>138</ele>
        <time>2010-05-15T09:50:48Z</time>
      </trkpt>
      <trkpt lat="48.58325" lon="1.75979">
        <ele>138</ele>
        <time>2010-05-15T09:50:50Z</time>
      </trkpt>
      <trkpt lat="48.58326" lon="1.7598">
        <ele>138</ele>
        <time>2010-05-15T09:50:52Z</time>
      </trkpt>
      <trkpt lat="48.58328" lon="1.7598">
        <ele>138</ele>
        <time>2010-05-15T09:50:54Z</time>
      </trkpt>
      <trkpt lat="48.5833" lon="1.75981">
        <ele>138</ele>
        <time>2010-05-15T09:50:56Z</time>
      </trkpt>
      <trkpt lat="48.58331" lon="1.75981">
        <ele>138</ele>
        <time>2010-05-15T09:50:57Z</time>
      </trkpt>
      <trkpt lat="48.58333" lon="1.75981">
        <ele>138</ele>
        <time>2010-05-15T09:50:58Z</time>
      </trkpt>
      <trkpt lat="48.58334" lon="1.75981">
        <ele>138</ele>
        <time>2010-05-15T09:50:59Z</time>
      </trkpt>
      <trkpt lat="48.58336" lon="1.75981">
        <ele>138</ele>
        <time>2010-05-15T09:51:00Z</time>
      </trkpt>
      <trkpt lat="48.58338" lon="1.75981">
        <ele>138</ele>
        <time>2010-05-15T09:51:01Z</time>
      </trkpt>
      <trkpt lat="48.58339" lon="1.75981">
        <ele>138</ele>
        <time>2010-05-15T09:51:02Z</time>
      </trkpt>
      <trkpt lat="48.5834" lon="1.75981">
        <ele>138</ele>
        <time>2010-05-15T09:51:03Z</time>
      </trkpt>
      <trkpt lat="48.58342" lon="1.75982">
        <ele>138</ele>
        <time>2010-05-15T09:51:04Z</time>
      </trkpt>
      <trkpt lat="48.58343" lon="1.75982">
        <ele>139</ele>
        <time>2010-05-15T09:51:05Z</time>
      </trkpt>
      <trkpt lat="48.58345" lon="1.75983">
        <ele>139</ele>
        <time>2010-05-15T09:51:06Z</time>
      </trkpt>
      <trkpt lat="48.58347" lon="1.75983">
        <ele>139</ele>
        <time>2010-05-15T09:51:07Z</time>
      </trkpt>
      <trkpt lat="48.58348" lon="1.75984">
        <ele>139</ele>
        <time>2010-05-15T09:51:08Z</time>
      </trkpt>
      <trkpt lat="48.5835" lon="1.75984">
        <ele>140</ele>
        <time>2010-05-15T09:51:09Z</time>
      </trkpt>
      <trkpt lat="48.58352" lon="1.75985">
        <ele>140</ele>
        <time>2010-05-15T09:51:10Z</time>
      </trkpt>
      <trkpt lat="48.58354" lon="1.75985">
        <ele>140</ele>
        <time>2010-05-15T09:51:11Z</time>
      </trkpt>
      <trkpt lat="48.58356" lon="1.75985">
        <ele>141</ele>
        <time>2010-05-15T09:51:12Z</time>
      </trkpt>
      <trkpt lat="48.58358" lon="1.75985">
        <ele>141</ele>
        <time>2010-05-15T09:51:13Z</time>
      </trkpt>
      <trkpt lat="48.5836" lon="1.75985">
        <ele>142</ele>
        <time>2010-05-15T09:51:14Z</time>
      </trkpt>
      <trkpt lat="48.58362" lon="1.75985">
        <ele>142</ele>
        <time>2010-05-15T09:51:15Z</time>
      </trkpt>
      <trkpt lat="48.58363" lon="1.75985">
        <ele>143</ele>
        <time>2010-05-15T09:51:16Z</time>
      </trkpt>
      <trkpt lat="48.58365" lon="1.75985">
        <ele>143</ele>
        <time>2010-05-15T09:51:17Z</time>
      </trkpt>
      <trkpt lat="48.58366" lon="1.75986">
        <ele>144</ele>
        <time>2010-05-15T09:51:18Z</time>
      </trkpt>
      <trkpt lat="48.58368" lon="1.75987">
        <ele>144</ele>
        <time>2010-05-15T09:51:19Z</time>
      </trkpt>
      <trkpt lat="48.58369" lon="1.75987">
        <ele>144</ele>
        <time>2010-05-15T09:51:20Z</time>
      </trkpt>
      <trkpt lat="48.58371" lon="1.75988">
        <ele>145</ele>
        <time>2010-05-15T09:51:21Z</time>
      </trkpt>
      <trkpt lat="48.58372" lon="1.75988">
        <ele>145</ele>
        <time>2010-05-15T09:51:22Z</time>
      </trkpt>
      <trkpt lat="48.58374" lon="1.75989">
        <ele>146</ele>
        <time>2010-05-15T09:51:23Z</time>
      </trkpt>
      <trkpt lat="48.58376" lon="1.7599">
        <ele>146</ele>
        <time>2010-05-15T09:51:25Z</time>
      </trkpt>
      <trkpt lat="48.58378" lon="1.7599">
        <ele>147</ele>
        <time>2010-05-15T09:51:27Z</time>
      </trkpt>
      <trkpt lat="48.5838" lon="1.75991">
        <ele>147</ele>
        <time>2010-05-15T09:51:28Z</time>
      </trkpt>
      <trkpt lat="48.58384" lon="1.75992">
        <ele>148</ele>
        <time>2010-05-15T09:51:31Z</time>
      </trkpt>
      <trkpt lat="48.58386" lon="1.75991">
        <ele>149</ele>
        <time>2010-05-15T09:51:32Z</time>
      </trkpt>
      <trkpt lat="48.58388" lon="1.75991">
        <ele>150</ele>
        <time>2010-05-15T09:51:33Z</time>
      </trkpt>
      <trkpt lat="48.58389" lon="1.75992">
        <ele>150</ele>
        <time>2010-05-15T09:51:34Z</time>
      </trkpt>
      <trkpt lat="48.58391" lon="1.75993">
        <ele>151</ele>
        <time>2010-05-15T09:51:35Z</time>
      </trkpt>
      <trkpt lat="48.58392" lon="1.75993">
        <ele>151</ele>
        <time>2010-05-15T09:51:36Z</time>
      </trkpt>
      <trkpt lat="48.58394" lon="1.75993">
        <ele>152</ele>
        <time>2010-05-15T09:51:37Z</time>
      </trkpt>
      <trkpt lat="48.58396" lon="1.75994">
        <ele>152</ele>
        <time>2010-05-15T09:51:39Z</time>
      </trkpt>
      <trkpt lat="48.58397" lon="1.75995">
        <ele>153</ele>
        <time>2010-05-15T09:51:40Z</time>
      </trkpt>
      <trkpt lat="48.58399" lon="1.75995">
        <ele>153</ele>
        <time>2010-05-15T09:51:41Z</time>
      </trkpt>
      <trkpt lat="48.584" lon="1.75996">
        <ele>153</ele>
        <time>2010-05-15T09:51:42Z</time>
      </trkpt>
      <trkpt lat="48.58403" lon="1.75998">
        <ele>154</ele>
        <time>2010-05-15T09:51:43Z</time>
      </trkpt>
      <trkpt lat="48.58405" lon="1.75999">
        <ele>154</ele>
        <time>2010-05-15T09:51:44Z</time>
      </trkpt>
      <trkpt lat="48.58407" lon="1.76">
        <ele>154</ele>
        <time>2010-05-15T09:51:45Z</time>
      </trkpt>
      <trkpt lat="48.58408" lon="1.76001">
        <ele>154</ele>
        <time>2010-05-15T09:51:46Z</time>
      </trkpt>
      <trkpt lat="48.5841" lon="1.76002">
        <ele>154</ele>
        <time>2010-05-15T09:51:47Z</time>
      </trkpt>
      <trkpt lat="48.58412" lon="1.76003">
        <ele>154</ele>
        <time>2010-05-15T09:51:48Z</time>
      </trkpt>
      <trkpt lat="48.58414" lon="1.76004">
        <ele>154</ele>
        <time>2010-05-15T09:51:49Z</time>
      </trkpt>
      <trkpt lat="48.58416" lon="1.76004">
        <ele>154</ele>
        <time>2010-05-15T09:51:50Z</time>
      </trkpt>
      <trkpt lat="48.58417" lon="1.76004">
        <ele>154</ele>
        <time>2010-05-15T09:51:51Z</time>
      </trkpt>
      <trkpt lat="48.58419" lon="1.76004">
        <ele>154</ele>
        <time>2010-05-15T09:51:52Z</time>
      </trkpt>
      <trkpt lat="48.5842" lon="1.76005">
        <ele>154</ele>
        <time>2010-05-15T09:51:53Z</time>
      </trkpt>
      <trkpt lat="48.58421" lon="1.76004">
        <ele>154</ele>
        <time>2010-05-15T09:51:54Z</time>
      </trkpt>
      <trkpt lat="48.58422" lon="1.76005">
        <ele>154</ele>
        <time>2010-05-15T09:51:55Z</time>
      </trkpt>
      <trkpt lat="48.58424" lon="1.76005">
        <ele>154</ele>
        <time>2010-05-15T09:51:57Z</time>
      </trkpt>
      <trkpt lat="48.58426" lon="1.76006">
        <ele>154</ele>
        <time>2010-05-15T09:51:59Z</time>
      </trkpt>
      <trkpt lat="48.58428" lon="1.76006">
        <ele>154</ele>
        <time>2010-05-15T09:52:00Z</time>
      </trkpt>
      <trkpt lat="48.58429" lon="1.76006">
        <ele>154</ele>
        <time>2010-05-15T09:52:01Z</time>
      </trkpt>
      <trkpt lat="48.58431" lon="1.76006">
        <ele>154</ele>
        <time>2010-05-15T09:52:02Z</time>
      </trkpt>
      <trkpt lat="48.58433" lon="1.76006">
        <ele>154</ele>
        <time>2010-05-15T09:52:03Z</time>
      </trkpt>
      <trkpt lat="48.58434" lon="1.76006">
        <ele>154</ele>
        <time>2010-05-15T09:52:04Z</time>
      </trkpt>
      <trkpt lat="48.58436" lon="1.76006">
        <ele>154</ele>
        <time>2010-05-15T09:52:05Z</time>
      </trkpt>
      <trkpt lat="48.58438" lon="1.76006">
        <ele>154</ele>
        <time>2010-05-15T09:52:06Z</time>
      </trkpt>
      <trkpt lat="48.58439" lon="1.76007">
        <ele>154</ele>
        <time>2010-05-15T09:52:07Z</time>
      </trkpt>
      <trkpt lat="48.58441" lon="1.76007">
        <ele>154</ele>
        <time>2010-05-15T09:52:08Z</time>
      </trkpt>
      <trkpt lat="48.58443" lon="1.76007">
        <ele>154</ele>
        <time>2010-05-15T09:52:09Z</time>
      </trkpt>
      <trkpt lat="48.58444" lon="1.76008">
        <ele>154</ele>
        <time>2010-05-15T09:52:10Z</time>
      </trkpt>
      <trkpt lat="48.58446" lon="1.76008">
        <ele>154</ele>
        <time>2010-05-15T09:52:11Z</time>
      </trkpt>
      <trkpt lat="48.58448" lon="1.76008">
        <ele>154</ele>
        <time>2010-05-15T09:52:12Z</time>
      </trkpt>
      <trkpt lat="48.5845" lon="1.76009">
        <ele>154</ele>
        <time>2010-05-15T09:52:13Z</time>
      </trkpt>
      <trkpt lat="48.58451" lon="1.76009">
        <ele>154</ele>
        <time>2010-05-15T09:52:14Z</time>
      </trkpt>
      <trkpt lat="48.58452" lon="1.76009">
        <ele>154</ele>
        <time>2010-05-15T09:52:15Z</time>
      </trkpt>
      <trkpt lat="48.58454" lon="1.7601">
        <ele>154</ele>
        <time>2010-05-15T09:52:16Z</time>
      </trkpt>
      <trkpt lat="48.58455" lon="1.7601">
        <ele>154</ele>
        <time>2010-05-15T09:52:17Z</time>
      </trkpt>
      <trkpt lat="48.58457" lon="1.76011">
        <ele>154</ele>
        <time>2010-05-15T09:52:18Z</time>
      </trkpt>
      <trkpt lat="48.58458" lon="1.76011">
        <ele>154</ele>
        <time>2010-05-15T09:52:19Z</time>
      </trkpt>
      <trkpt lat="48.58461" lon="1.76011">
        <ele>154</ele>
        <time>2010-05-15T09:52:21Z</time>
      </trkpt>
      <trkpt lat="48.58463" lon="1.76012">
        <ele>154</ele>
        <time>2010-05-15T09:52:23Z</time>
      </trkpt>
      <trkpt lat="48.58465" lon="1.76012">
        <ele>154</ele>
        <time>2010-05-15T09:52:24Z</time>
      </trkpt>
      <trkpt lat="48.58466" lon="1.76012">
        <ele>154</ele>
        <time>2010-05-15T09:52:25Z</time>
      </trkpt>
      <trkpt lat="48.58468" lon="1.76012">
        <ele>154</ele>
        <time>2010-05-15T09:52:26Z</time>
      </trkpt>
      <trkpt lat="48.5847" lon="1.76013">
        <ele>154</ele>
        <time>2010-05-15T09:52:28Z</time>
      </trkpt>
      <trkpt lat="48.58472" lon="1.76013">
        <ele>154</ele>
        <time>2010-05-15T09:52:29Z</time>
      </trkpt>
      <trkpt lat="48.58474" lon="1.76013">
        <ele>154</ele>
        <time>2010-05-15T09:52:30Z</time>
      </trkpt>
      <trkpt lat="48.58477" lon="1.76013">
        <ele>154</ele>
        <time>2010-05-15T09:52:31Z</time>
      </trkpt>
      <trkpt lat="48.58478" lon="1.76013">
        <ele>154</ele>
        <time>2010-05-15T09:52:32Z</time>
      </trkpt>
      <trkpt lat="48.5848" lon="1.76012">
        <ele>154</ele>
        <time>2010-05-15T09:52:33Z</time>
      </trkpt>
      <trkpt lat="48.58482" lon="1.76014">
        <ele>154</ele>
        <time>2010-05-15T09:52:36Z</time>
      </trkpt>
      <trkpt lat="48.58483" lon="1.76014">
        <ele>154</ele>
        <time>2010-05-15T09:52:38Z</time>
      </trkpt>
      <trkpt lat="48.58486" lon="1.76013">
        <ele>154</ele>
        <time>2010-05-15T09:52:40Z</time>
      </trkpt>
      <trkpt lat="48.58487" lon="1.76013">
        <ele>154</ele>
        <time>2010-05-15T09:52:41Z</time>
      </trkpt>
      <trkpt lat="48.58488" lon="1.76013">
        <ele>154</ele>
        <time>2010-05-15T09:52:42Z</time>
      </trkpt>
      <trkpt lat="48.5849" lon="1.76012">
        <ele>154</ele>
        <time>2010-05-15T09:52:44Z</time>
      </trkpt>
      <trkpt lat="48.58492" lon="1.76011">
        <ele>154</ele>
        <time>2010-05-15T09:52:46Z</time>
      </trkpt>
      <trkpt lat="48.58493" lon="1.76011">
        <ele>155</ele>
        <time>2010-05-15T09:52:47Z</time>
      </trkpt>
      <trkpt lat="48.58495" lon="1.76011">
        <ele>155</ele>
        <time>2010-05-15T09:52:48Z</time>
      </trkpt>
      <trkpt lat="48.58496" lon="1.76012">
        <ele>155</ele>
        <time>2010-05-15T09:52:49Z</time>
      </trkpt>
      <trkpt lat="48.58498" lon="1.76012">
        <ele>155</ele>
        <time>2010-05-15T09:52:50Z</time>
      </trkpt>
      <trkpt lat="48.585" lon="1.76012">
        <ele>156</ele>
        <time>2010-05-15T09:52:51Z</time>
      </trkpt>
      <trkpt lat="48.58502" lon="1.76013">
        <ele>156</ele>
        <time>2010-05-15T09:52:52Z</time>
      </trkpt>
      <trkpt lat="48.58503" lon="1.76014">
        <ele>156</ele>
        <time>2010-05-15T09:52:53Z</time>
      </trkpt>
      <trkpt lat="48.58506" lon="1.76014">
        <ele>156</ele>
        <time>2010-05-15T09:52:55Z</time>
      </trkpt>
      <trkpt lat="48.58507" lon="1.76015">
        <ele>156</ele>
        <time>2010-05-15T09:52:56Z</time>
      </trkpt>
      <trkpt lat="48.58509" lon="1.76016">
        <ele>156</ele>
        <time>2010-05-15T09:52:57Z</time>
      </trkpt>
      <trkpt lat="48.58511" lon="1.76017">
        <ele>156</ele>
        <time>2010-05-15T09:52:58Z</time>
      </trkpt>
      <trkpt lat="48.58514" lon="1.76017">
        <ele>156</ele>
        <time>2010-05-15T09:52:59Z</time>
      </trkpt>
      <trkpt lat="48.58516" lon="1.76018">
        <ele>156</ele>
        <time>2010-05-15T09:53:00Z</time>
      </trkpt>
      <trkpt lat="48.58517" lon="1.76019">
        <ele>156</ele>
        <time>2010-05-15T09:53:01Z</time>
      </trkpt>
      <trkpt lat="48.58519" lon="1.76019">
        <ele>156</ele>
        <time>2010-05-15T09:53:02Z</time>
      </trkpt>
      <trkpt lat="48.58521" lon="1.7602">
        <ele>156</ele>
        <time>2010-05-15T09:53:03Z</time>
      </trkpt>
      <trkpt lat="48.58522" lon="1.7602">
        <ele>156</ele>
        <time>2010-05-15T09:53:04Z</time>
      </trkpt>
      <trkpt lat="48.58525" lon="1.76021">
        <ele>156</ele>
        <time>2010-05-15T09:53:05Z</time>
      </trkpt>
      <trkpt lat="48.58527" lon="1.76022">
        <ele>156</ele>
        <time>2010-05-15T09:53:06Z</time>
      </trkpt>
      <trkpt lat="48.58531" lon="1.76024">
        <ele>156</ele>
        <time>2010-05-15T09:53:07Z</time>
      </trkpt>
      <trkpt lat="48.58534" lon="1.76025">
        <ele>156</ele>
        <time>2010-05-15T09:53:08Z</time>
      </trkpt>
      <trkpt lat="48.58538" lon="1.76027">
        <ele>156</ele>
        <time>2010-05-15T09:53:09Z</time>
      </trkpt>
      <trkpt lat="48.58543" lon="1.76029">
        <ele>156</ele>
        <time>2010-05-15T09:53:10Z</time>
      </trkpt>
      <trkpt lat="48.58546" lon="1.76031">
        <ele>156</ele>
        <time>2010-05-15T09:53:11Z</time>
      </trkpt>
      <trkpt lat="48.58552" lon="1.76032">
        <ele>156</ele>
        <time>2010-05-15T09:53:12Z</time>
      </trkpt>
      <trkpt lat="48.58557" lon="1.76033">
        <ele>156</ele>
        <time>2010-05-15T09:53:13Z</time>
      </trkpt>
      <trkpt lat="48.58562" lon="1.76035">
        <ele>156</ele>
        <time>2010-05-15T09:53:14Z</time>
      </trkpt>
      <trkpt lat="48.58567" lon="1.76037">
        <ele>156</ele>
        <time>2010-05-15T09:53:15Z</time>
      </trkpt>
      <trkpt lat="48.58571" lon="1.76038">
        <ele>156</ele>
        <time>2010-05-15T09:53:16Z</time>
      </trkpt>
      <trkpt lat="48.58576" lon="1.7604">
        <ele>156</ele>
        <time>2010-05-15T09:53:17Z</time>
      </trkpt>
      <trkpt lat="48.5858" lon="1.76041">
        <ele>156</ele>
        <time>2010-05-15T09:53:18Z</time>
      </trkpt>
      <trkpt lat="48.58585" lon="1.76042">
        <ele>156</ele>
        <time>2010-05-15T09:53:19Z</time>
      </trkpt>
      <trkpt lat="48.5859" lon="1.76044">
        <ele>156</ele>
        <time>2010-05-15T09:53:20Z</time>
      </trkpt>
      <trkpt lat="48.58594" lon="1.76046">
        <ele>156</ele>
        <time>2010-05-15T09:53:21Z</time>
      </trkpt>
      <trkpt lat="48.58598" lon="1.76048">
        <ele>156</ele>
        <time>2010-05-15T09:53:22Z</time>
      </trkpt>
      <trkpt lat="48.58602" lon="1.7605">
        <ele>156</ele>
        <time>2010-05-15T09:53:23Z</time>
      </trkpt>
      <trkpt lat="48.58607" lon="1.76052">
        <ele>156</ele>
        <time>2010-05-15T09:53:24Z</time>
      </trkpt>
      <trkpt lat="48.5861" lon="1.76054">
        <ele>156</ele>
        <time>2010-05-15T09:53:25Z</time>
      </trkpt>
      <trkpt lat="48.58614" lon="1.76056">
        <ele>156</ele>
        <time>2010-05-15T09:53:26Z</time>
      </trkpt>
      <trkpt lat="48.58617" lon="1.76056">
        <ele>156</ele>
        <time>2010-05-15T09:53:27Z</time>
      </trkpt>
      <trkpt lat="48.58621" lon="1.76057">
        <ele>156</ele>
        <time>2010-05-15T09:53:28Z</time>
      </trkpt>
      <trkpt lat="48.58625" lon="1.76057">
        <ele>156</ele>
        <time>2010-05-15T09:53:29Z</time>
      </trkpt>
      <trkpt lat="48.58629" lon="1.76058">
        <ele>156</ele>
        <time>2010-05-15T09:53:30Z</time>
      </trkpt>
      <trkpt lat="48.58633" lon="1.7606">
        <ele>156</ele>
        <time>2010-05-15T09:53:31Z</time>
      </trkpt>
      <trkpt lat="48.58636" lon="1.76061">
        <ele>156</ele>
        <time>2010-05-15T09:53:32Z</time>
      </trkpt>
      <trkpt lat="48.5864" lon="1.76063">
        <ele>156</ele>
        <time>2010-05-15T09:53:33Z</time>
      </trkpt>
      <trkpt lat="48.58644" lon="1.76064">
        <ele>156</ele>
        <time>2010-05-15T09:53:34Z</time>
      </trkpt>
      <trkpt lat="48.58648" lon="1.76067">
        <ele>156</ele>
        <time>2010-05-15T09:53:35Z</time>
      </trkpt>
      <trkpt lat="48.58653" lon="1.76069">
        <ele>156</ele>
        <time>2010-05-15T09:53:36Z</time>
      </trkpt>
      <trkpt lat="48.58658" lon="1.76071">
        <ele>156</ele>
        <time>2010-05-15T09:53:37Z</time>
      </trkpt>
      <trkpt lat="48.58663" lon="1.76073">
        <ele>155</ele>
        <time>2010-05-15T09:53:38Z</time>
      </trkpt>
      <trkpt lat="48.58668" lon="1.76076">
        <ele>155</ele>
        <time>2010-05-15T09:53:39Z</time>
      </trkpt>
      <trkpt lat="48.58673" lon="1.76078">
        <ele>154</ele>
        <time>2010-05-15T09:53:40Z</time>
      </trkpt>
      <trkpt lat="48.58678" lon="1.7608">
        <ele>154</ele>
        <time>2010-05-15T09:53:41Z</time>
      </trkpt>
      <trkpt lat="48.58683" lon="1.76082">
        <ele>154</ele>
        <time>2010-05-15T09:53:42Z</time>
      </trkpt>
      <trkpt lat="48.58687" lon="1.76085">
        <ele>153</ele>
        <time>2010-05-15T09:53:43Z</time>
      </trkpt>
      <trkpt lat="48.58692" lon="1.76087">
        <ele>153</ele>
        <time>2010-05-15T09:53:44Z</time>
      </trkpt>
      <trkpt lat="48.58697" lon="1.7609">
        <ele>153</ele>
        <time>2010-05-15T09:53:45Z</time>
      </trkpt>
      <trkpt lat="48.58702" lon="1.76092">
        <ele>153</ele>
        <time>2010-05-15T09:53:46Z</time>
      </trkpt>
      <trkpt lat="48.58705" lon="1.76094">
        <ele>153</ele>
        <time>2010-05-15T09:53:47Z</time>
      </trkpt>
      <trkpt lat="48.58708" lon="1.76096">
        <ele>153</ele>
        <time>2010-05-15T09:53:48Z</time>
      </trkpt>
      <trkpt lat="48.58712" lon="1.76098">
        <ele>153</ele>
        <time>2010-05-15T09:53:49Z</time>
      </trkpt>
      <trkpt lat="48.58717" lon="1.761">
        <ele>153</ele>
        <time>2010-05-15T09:53:50Z</time>
      </trkpt>
      <trkpt lat="48.5872" lon="1.76101">
        <ele>153</ele>
        <time>2010-05-15T09:53:51Z</time>
      </trkpt>
      <trkpt lat="48.58724" lon="1.76104">
        <ele>153</ele>
        <time>2010-05-15T09:53:52Z</time>
      </trkpt>
      <trkpt lat="48.5873" lon="1.76105">
        <ele>153</ele>
        <time>2010-05-15T09:53:53Z</time>
      </trkpt>
      <trkpt lat="48.58734" lon="1.76106">
        <ele>153</ele>
        <time>2010-05-15T09:53:54Z</time>
      </trkpt>
      <trkpt lat="48.58739" lon="1.76107">
        <ele>153</ele>
        <time>2010-05-15T09:53:55Z</time>
      </trkpt>
      <trkpt lat="48.58741" lon="1.76107">
        <ele>153</ele>
        <time>2010-05-15T09:53:56Z</time>
      </trkpt>
      <trkpt lat="48.58745" lon="1.76107">
        <ele>153</ele>
        <time>2010-05-15T09:53:57Z</time>
      </trkpt>
      <trkpt lat="48.58747" lon="1.76107">
        <ele>152</ele>
        <time>2010-05-15T09:53:58Z</time>
      </trkpt>
      <trkpt lat="48.58749" lon="1.76106">
        <ele>152</ele>
        <time>2010-05-15T09:53:59Z</time>
      </trkpt>
      <trkpt lat="48.58753" lon="1.76106">
        <ele>151</ele>
        <time>2010-05-15T09:54:00Z</time>
      </trkpt>
      <trkpt lat="48.58756" lon="1.76106">
        <ele>151</ele>
        <time>2010-05-15T09:54:01Z</time>
      </trkpt>
      <trkpt lat="48.5876" lon="1.76106">
        <ele>151</ele>
        <time>2010-05-15T09:54:02Z</time>
      </trkpt>
      <trkpt lat="48.58764" lon="1.76107">
        <ele>151</ele>
        <time>2010-05-15T09:54:03Z</time>
      </trkpt>
      <trkpt lat="48.58767" lon="1.76109">
        <ele>151</ele>
        <time>2010-05-15T09:54:04Z</time>
      </trkpt>
      <trkpt lat="48.5877" lon="1.76111">
        <ele>151</ele>
        <time>2010-05-15T09:54:05Z</time>
      </trkpt>
      <trkpt lat="48.58775" lon="1.76112">
        <ele>151</ele>
        <time>2010-05-15T09:54:06Z</time>
      </trkpt>
      <trkpt lat="48.58779" lon="1.76113">
        <ele>151</ele>
        <time>2010-05-15T09:54:07Z</time>
      </trkpt>
      <trkpt lat="48.58784" lon="1.76115">
        <ele>151</ele>
        <time>2010-05-15T09:54:08Z</time>
      </trkpt>
      <trkpt lat="48.58788" lon="1.76116">
        <ele>151</ele>
        <time>2010-05-15T09:54:09Z</time>
      </trkpt>
      <trkpt lat="48.58791" lon="1.76117">
        <ele>151</ele>
        <time>2010-05-15T09:54:10Z</time>
      </trkpt>
      <trkpt lat="48.58794" lon="1.76119">
        <ele>151</ele>
        <time>2010-05-15T09:54:11Z</time>
      </trkpt>
      <trkpt lat="48.58798" lon="1.76121">
        <ele>151</ele>
        <time>2010-05-15T09:54:12Z</time>
      </trkpt>
      <trkpt lat="48.58801" lon="1.76123">
        <ele>151</ele>
        <time>2010-05-15T09:54:13Z</time>
      </trkpt>
      <trkpt lat="48.58804" lon="1.76125">
        <ele>151</ele>
        <time>2010-05-15T09:54:14Z</time>
      </trkpt>
      <trkpt lat="48.5881" lon="1.76127">
        <ele>151</ele>
        <time>2010-05-15T09:54:15Z</time>
      </trkpt>
      <trkpt lat="48.58815" lon="1.76128">
        <ele>151</ele>
        <time>2010-05-15T09:54:16Z</time>
      </trkpt>
      <trkpt lat="48.58819" lon="1.76129">
        <ele>151</ele>
        <time>2010-05-15T09:54:17Z</time>
      </trkpt>
      <trkpt lat="48.58821" lon="1.7613">
        <ele>151</ele>
        <time>2010-05-15T09:54:18Z</time>
      </trkpt>
      <trkpt lat="48.58826" lon="1.76131">
        <ele>151</ele>
        <time>2010-05-15T09:54:19Z</time>
      </trkpt>
      <trkpt lat="48.58831" lon="1.76132">
        <ele>151</ele>
        <time>2010-05-15T09:54:20Z</time>
      </trkpt>
      <trkpt lat="48.58835" lon="1.76134">
        <ele>151</ele>
        <time>2010-05-15T09:54:21Z</time>
      </trkpt>
      <trkpt lat="48.58838" lon="1.76135">
        <ele>151</ele>
        <time>2010-05-15T09:54:22Z</time>
      </trkpt>
      <trkpt lat="48.5884" lon="1.76136">
        <ele>151</ele>
        <time>2010-05-15T09:54:23Z</time>
      </trkpt>
      <trkpt lat="48.58842" lon="1.76138">
        <ele>151</ele>
        <time>2010-05-15T09:54:24Z</time>
      </trkpt>
      <trkpt lat="48.58844" lon="1.76139">
        <ele>151</ele>
        <time>2010-05-15T09:54:25Z</time>
      </trkpt>
      <trkpt lat="48.58845" lon="1.76141">
        <ele>151</ele>
        <time>2010-05-15T09:54:26Z</time>
      </trkpt>
      <trkpt lat="48.58847" lon="1.76143">
        <ele>151</ele>
        <time>2010-05-15T09:54:27Z</time>
      </trkpt>
      <trkpt lat="48.5885" lon="1.76144">
        <ele>151</ele>
        <time>2010-05-15T09:54:28Z</time>
      </trkpt>
      <trkpt lat="48.58851" lon="1.76145">
        <ele>151</ele>
        <time>2010-05-15T09:54:29Z</time>
      </trkpt>
      <trkpt lat="48.58853" lon="1.76147">
        <ele>151</ele>
        <time>2010-05-15T09:54:30Z</time>
      </trkpt>
      <trkpt lat="48.58856" lon="1.76148">
        <ele>151</ele>
        <time>2010-05-15T09:54:31Z</time>
      </trkpt>
      <trkpt lat="48.58859" lon="1.7615">
        <ele>151</ele>
        <time>2010-05-15T09:54:32Z</time>
      </trkpt>
      <trkpt lat="48.58862" lon="1.76152">
        <ele>151</ele>
        <time>2010-05-15T09:54:33Z</time>
      </trkpt>
      <trkpt lat="48.58865" lon="1.76153">
        <ele>151</ele>
        <time>2010-05-15T09:54:34Z</time>
      </trkpt>
      <trkpt lat="48.58869" lon="1.76154">
        <ele>151</ele>
        <time>2010-05-15T09:54:35Z</time>
      </trkpt>
      <trkpt lat="48.58872" lon="1.76156">
        <ele>151</ele>
        <time>2010-05-15T09:54:36Z</time>
      </trkpt>
      <trkpt lat="48.58883" lon="1.76157">
        <ele>151</ele>
        <time>2010-05-15T09:54:37Z</time>
      </trkpt>
      <trkpt lat="48.5889" lon="1.76158">
        <ele>151</ele>
        <time>2010-05-15T09:54:38Z</time>
      </trkpt>
      <trkpt lat="48.58896" lon="1.76159">
        <ele>151</ele>
        <time>2010-05-15T09:54:39Z</time>
      </trkpt>
      <trkpt lat="48.589" lon="1.76161">
        <ele>151</ele>
        <time>2010-05-15T09:54:40Z</time>
      </trkpt>
      <trkpt lat="48.58903" lon="1.76163">
        <ele>151</ele>
        <time>2010-05-15T09:54:41Z</time>
      </trkpt>
      <trkpt lat="48.58906" lon="1.76165">
        <ele>151</ele>
        <time>2010-05-15T09:54:42Z</time>
      </trkpt>
      <trkpt lat="48.58908" lon="1.76167">
        <ele>151</ele>
        <time>2010-05-15T09:54:43Z</time>
      </trkpt>
      <trkpt lat="48.58912" lon="1.76169">
        <ele>151</ele>
        <time>2010-05-15T09:54:44Z</time>
      </trkpt>
      <trkpt lat="48.58915" lon="1.7617">
        <ele>151</ele>
        <time>2010-05-15T09:54:45Z</time>
      </trkpt>
      <trkpt lat="48.58918" lon="1.76171">
        <ele>151</ele>
        <time>2010-05-15T09:54:46Z</time>
      </trkpt>
      <trkpt lat="48.58921" lon="1.76173">
        <ele>151</ele>
        <time>2010-05-15T09:54:47Z</time>
      </trkpt>
      <trkpt lat="48.58925" lon="1.76175">
        <ele>151</ele>
        <time>2010-05-15T09:54:48Z</time>
      </trkpt>
      <trkpt lat="48.58928" lon="1.76176">
        <ele>151</ele>
        <time>2010-05-15T09:54:49Z</time>
      </trkpt>
      <trkpt lat="48.58931" lon="1.76177">
        <ele>151</ele>
        <time>2010-05-15T09:54:50Z</time>
      </trkpt>
      <trkpt lat="48.58935" lon="1.76179">
        <ele>151</ele>
        <time>2010-05-15T09:54:51Z</time>
      </trkpt>
      <trkpt lat="48.58938" lon="1.7618">
        <ele>151</ele>
        <time>2010-05-15T09:54:52Z</time>
      </trkpt>
      <trkpt lat="48.58942" lon="1.76182">
        <ele>151</ele>
        <time>2010-05-15T09:54:53Z</time>
      </trkpt>
      <trkpt lat="48.58945" lon="1.76184">
        <ele>151</ele>
        <time>2010-05-15T09:54:54Z</time>
      </trkpt>
      <trkpt lat="48.58949" lon="1.76185">
        <ele>151</ele>
        <time>2010-05-15T09:54:55Z</time>
      </trkpt>
      <trkpt lat="48.58951" lon="1.76187">
        <ele>151</ele>
        <time>2010-05-15T09:54:56Z</time>
      </trkpt>
      <trkpt lat="48.58954" lon="1.76189">
        <ele>151</ele>
        <time>2010-05-15T09:54:57Z</time>
      </trkpt>
      <trkpt lat="48.58959" lon="1.76191">
        <ele>151</ele>
        <time>2010-05-15T09:54:58Z</time>
      </trkpt>
      <trkpt lat="48.58962" lon="1.76193">
        <ele>151</ele>
        <time>2010-05-15T09:54:59Z</time>
      </trkpt>
      <trkpt lat="48.58965" lon="1.76195">
        <ele>151</ele>
        <time>2010-05-15T09:55:00Z</time>
      </trkpt>
      <trkpt lat="48.58967" lon="1.76197">
        <ele>151</ele>
        <time>2010-05-15T09:55:01Z</time>
      </trkpt>
      <trkpt lat="48.5897" lon="1.76199">
        <ele>151</ele>
        <time>2010-05-15T09:55:02Z</time>
      </trkpt>
      <trkpt lat="48.58973" lon="1.76201">
        <ele>150</ele>
        <time>2010-05-15T09:55:03Z</time>
      </trkpt>
      <trkpt lat="48.58976" lon="1.76203">
        <ele>149</ele>
        <time>2010-05-15T09:55:04Z</time>
      </trkpt>
      <trkpt lat="48.5898" lon="1.76204">
        <ele>148</ele>
        <time>2010-05-15T09:55:05Z</time>
      </trkpt>
      <trkpt lat="48.58985" lon="1.76205">
        <ele>147</ele>
        <time>2010-05-15T09:55:06Z</time>
      </trkpt>
      <trkpt lat="48.58988" lon="1.76207">
        <ele>146</ele>
        <time>2010-05-15T09:55:07Z</time>
      </trkpt>
      <trkpt lat="48.5899" lon="1.76208">
        <ele>145</ele>
        <time>2010-05-15T09:55:08Z</time>
      </trkpt>
      <trkpt lat="48.58992" lon="1.76209">
        <ele>144</ele>
        <time>2010-05-15T09:55:09Z</time>
      </trkpt>
      <trkpt lat="48.58995" lon="1.76211">
        <ele>143</ele>
        <time>2010-05-15T09:55:10Z</time>
      </trkpt>
      <trkpt lat="48.58998" lon="1.76214">
        <ele>142</ele>
        <time>2010-05-15T09:55:11Z</time>
      </trkpt>
      <trkpt lat="48.59001" lon="1.76216">
        <ele>141</ele>
        <time>2010-05-15T09:55:12Z</time>
      </trkpt>
      <trkpt lat="48.59006" lon="1.76217">
        <ele>140</ele>
        <time>2010-05-15T09:55:13Z</time>
      </trkpt>
      <trkpt lat="48.59009" lon="1.76218">
        <ele>139</ele>
        <time>2010-05-15T09:55:14Z</time>
      </trkpt>
      <trkpt lat="48.59011" lon="1.76218">
        <ele>139</ele>
        <time>2010-05-15T09:55:15Z</time>
      </trkpt>
      <trkpt lat="48.59013" lon="1.76219">
        <ele>139</ele>
        <time>2010-05-15T09:55:16Z</time>
      </trkpt>
      <trkpt lat="48.59019" lon="1.76219">
        <ele>139</ele>
        <time>2010-05-15T09:55:17Z</time>
      </trkpt>
      <trkpt lat="48.59023" lon="1.7622">
        <ele>139</ele>
        <time>2010-05-15T09:55:18Z</time>
      </trkpt>
      <trkpt lat="48.59025" lon="1.7622">
        <ele>139</ele>
        <time>2010-05-15T09:55:19Z</time>
      </trkpt>
      <trkpt lat="48.59027" lon="1.7622">
        <ele>140</ele>
        <time>2010-05-15T09:55:20Z</time>
      </trkpt>
      <trkpt lat="48.59029" lon="1.7622">
        <ele>141</ele>
        <time>2010-05-15T09:55:21Z</time>
      </trkpt>
      <trkpt lat="48.5903" lon="1.7622">
        <ele>143</ele>
        <time>2010-05-15T09:55:23Z</time>
      </trkpt>
      <trkpt lat="48.59032" lon="1.76222">
        <ele>143</ele>
        <time>2010-05-15T09:55:25Z</time>
      </trkpt>
      <trkpt lat="48.59033" lon="1.76224">
        <ele>144</ele>
        <time>2010-05-15T09:55:26Z</time>
      </trkpt>
      <trkpt lat="48.59033" lon="1.76228">
        <ele>144</ele>
        <time>2010-05-15T09:55:27Z</time>
      </trkpt>
      <trkpt lat="48.59033" lon="1.76233">
        <ele>144</ele>
        <time>2010-05-15T09:55:28Z</time>
      </trkpt>
      <trkpt lat="48.59032" lon="1.76239">
        <ele>144</ele>
        <time>2010-05-15T09:55:29Z</time>
      </trkpt>
      <trkpt lat="48.5903" lon="1.76246">
        <ele>144</ele>
        <time>2010-05-15T09:55:30Z</time>
      </trkpt>
      <trkpt lat="48.5903" lon="1.76253">
        <ele>144</ele>
        <time>2010-05-15T09:55:31Z</time>
      </trkpt>
      <trkpt lat="48.59029" lon="1.7626">
        <ele>144</ele>
        <time>2010-05-15T09:55:32Z</time>
      </trkpt>
      <trkpt lat="48.59028" lon="1.76266">
        <ele>144</ele>
        <time>2010-05-15T09:55:33Z</time>
      </trkpt>
      <trkpt lat="48.59027" lon="1.76274">
        <ele>145</ele>
        <time>2010-05-15T09:55:34Z</time>
      </trkpt>
      <trkpt lat="48.59026" lon="1.76281">
        <ele>145</ele>
        <time>2010-05-15T09:55:35Z</time>
      </trkpt>
      <trkpt lat="48.59025" lon="1.76288">
        <ele>145</ele>
        <time>2010-05-15T09:55:36Z</time>
      </trkpt>
      <trkpt lat="48.59024" lon="1.76294">
        <ele>146</ele>
        <time>2010-05-15T09:55:37Z</time>
      </trkpt>
      <trkpt lat="48.59023" lon="1.763">
        <ele>146</ele>
        <time>2010-05-15T09:55:38Z</time>
      </trkpt>
      <trkpt lat="48.59022" lon="1.76307">
        <ele>146</ele>
        <time>2010-05-15T09:55:39Z</time>
      </trkpt>
      <trkpt lat="48.59021" lon="1.76313">
        <ele>147</ele>
        <time>2010-05-15T09:55:40Z</time>
      </trkpt>
      <trkpt lat="48.5902" lon="1.76319">
        <ele>147</ele>
        <time>2010-05-15T09:55:41Z</time>
      </trkpt>
      <trkpt lat="48.59019" lon="1.76325">
        <ele>148</ele>
        <time>2010-05-15T09:55:42Z</time>
      </trkpt>
      <trkpt lat="48.59018" lon="1.76331">
        <ele>148</ele>
        <time>2010-05-15T09:55:43Z</time>
      </trkpt>
      <trkpt lat="48.59017" lon="1.76336">
        <ele>149</ele>
        <time>2010-05-15T09:55:44Z</time>
      </trkpt>
      <trkpt lat="48.59016" lon="1.76342">
        <ele>149</ele>
        <time>2010-05-15T09:55:45Z</time>
      </trkpt>
      <trkpt lat="48.59015" lon="1.76347">
        <ele>149</ele>
        <time>2010-05-15T09:55:46Z</time>
      </trkpt>
      <trkpt lat="48.59015" lon="1.76351">
        <ele>150</ele>
        <time>2010-05-15T09:55:47Z</time>
      </trkpt>
      <trkpt lat="48.59013" lon="1.76356">
        <ele>150</ele>
        <time>2010-05-15T09:55:48Z</time>
      </trkpt>
      <trkpt lat="48.59011" lon="1.76363">
        <ele>151</ele>
        <time>2010-05-15T09:55:49Z</time>
      </trkpt>
      <trkpt lat="48.59009" lon="1.76372">
        <ele>152</ele>
        <time>2010-05-15T09:55:50Z</time>
      </trkpt>
      <trkpt lat="48.59008" lon="1.76379">
        <ele>152</ele>
        <time>2010-05-15T09:55:51Z</time>
      </trkpt>
      <trkpt lat="48.59007" lon="1.76387">
        <ele>153</ele>
        <time>2010-05-15T09:55:52Z</time>
      </trkpt>
      <trkpt lat="48.59006" lon="1.76394">
        <ele>154</ele>
        <time>2010-05-15T09:55:53Z</time>
      </trkpt>
      <trkpt lat="48.59005" lon="1.764">
        <ele>155</ele>
        <time>2010-05-15T09:55:54Z</time>
      </trkpt>
      <trkpt lat="48.59004" lon="1.76405">
        <ele>155</ele>
        <time>2010-05-15T09:55:55Z</time>
      </trkpt>
      <trkpt lat="48.59003" lon="1.76411">
        <ele>156</ele>
        <time>2010-05-15T09:55:56Z</time>
      </trkpt>
      <trkpt lat="48.59001" lon="1.76419">
        <ele>157</ele>
        <time>2010-05-15T09:55:57Z</time>
      </trkpt>
      <trkpt lat="48.59001" lon="1.76426">
        <ele>157</ele>
        <time>2010-05-15T09:55:58Z</time>
      </trkpt>
      <trkpt lat="48.59" lon="1.76435">
        <ele>158</ele>
        <time>2010-05-15T09:55:59Z</time>
      </trkpt>
      <trkpt lat="48.58999" lon="1.76443">
        <ele>158</ele>
        <time>2010-05-15T09:56:00Z</time>
      </trkpt>
      <trkpt lat="48.58998" lon="1.76451">
        <ele>159</ele>
        <time>2010-05-15T09:56:01Z</time>
      </trkpt>
      <trkpt lat="48.58997" lon="1.76458">
        <ele>159</ele>
        <time>2010-05-15T09:56:02Z</time>
      </trkpt>
      <trkpt lat="48.58997" lon="1.76464">
        <ele>160</ele>
        <time>2010-05-15T09:56:03Z</time>
      </trkpt>
      <trkpt lat="48.58997" lon="1.76469">
        <ele>160</ele>
        <time>2010-05-15T09:56:04Z</time>
      </trkpt>
      <trkpt lat="48.58997" lon="1.76475">
        <ele>161</ele>
        <time>2010-05-15T09:56:05Z</time>
      </trkpt>
      <trkpt lat="48.58996" lon="1.7648">
        <ele>161</ele>
        <time>2010-05-15T09:56:06Z</time>
      </trkpt>
      <trkpt lat="48.58996" lon="1.76486">
        <ele>162</ele>
        <time>2010-05-15T09:56:07Z</time>
      </trkpt>
      <trkpt lat="48.58995" lon="1.76491">
        <ele>162</ele>
        <time>2010-05-15T09:56:08Z</time>
      </trkpt>
      <trkpt lat="48.58996" lon="1.76496">
        <ele>163</ele>
        <time>2010-05-15T09:56:09Z</time>
      </trkpt>
      <trkpt lat="48.58996" lon="1.76502">
        <ele>163</ele>
        <time>2010-05-15T09:56:10Z</time>
      </trkpt>
      <trkpt lat="48.58997" lon="1.76508">
        <ele>164</ele>
        <time>2010-05-15T09:56:11Z</time>
      </trkpt>
      <trkpt lat="48.58996" lon="1.76516">
        <ele>164</ele>
        <time>2010-05-15T09:56:12Z</time>
      </trkpt>
      <trkpt lat="48.58996" lon="1.76522">
        <ele>165</ele>
        <time>2010-05-15T09:56:13Z</time>
      </trkpt>
      <trkpt lat="48.58996" lon="1.76528">
        <ele>165</ele>
        <time>2010-05-15T09:56:14Z</time>
      </trkpt>
      <trkpt lat="48.58996" lon="1.76534">
        <ele>166</ele>
        <time>2010-05-15T09:56:15Z</time>
      </trkpt>
      <trkpt lat="48.58996" lon="1.76541">
        <ele>167</ele>
        <time>2010-05-15T09:56:16Z</time>
      </trkpt>
      <trkpt lat="48.58995" lon="1.76549">
        <ele>167</ele>
        <time>2010-05-15T09:56:17Z</time>
      </trkpt>
      <trkpt lat="48.58994" lon="1.76556">
        <ele>168</ele>
        <time>2010-05-15T09:56:18Z</time>
      </trkpt>
      <trkpt lat="48.58993" lon="1.76564">
        <ele>169</ele>
        <time>2010-05-15T09:56:19Z</time>
      </trkpt>
      <trkpt lat="48.58993" lon="1.76572">
        <ele>169</ele>
        <time>2010-05-15T09:56:20Z</time>
      </trkpt>
      <trkpt lat="48.58993" lon="1.7658">
        <ele>170</ele>
        <time>2010-05-15T09:56:21Z</time>
      </trkpt>
      <trkpt lat="48.58992" lon="1.76587">
        <ele>171</ele>
        <time>2010-05-15T09:56:22Z</time>
      </trkpt>
      <trkpt lat="48.58992" lon="1.76595">
        <ele>172</ele>
        <time>2010-05-15T09:56:23Z</time>
      </trkpt>
      <trkpt lat="48.58992" lon="1.76602">
        <ele>173</ele>
        <time>2010-05-15T09:56:24Z</time>
      </trkpt>
      <trkpt lat="48.58992" lon="1.76609">
        <ele>174</ele>
        <time>2010-05-15T09:56:25Z</time>
      </trkpt>
      <trkpt lat="48.58991" lon="1.76617">
        <ele>175</ele>
        <time>2010-05-15T09:56:26Z</time>
      </trkpt>
      <trkpt lat="48.58992" lon="1.76623">
        <ele>175</ele>
        <time>2010-05-15T09:56:27Z</time>
      </trkpt>
      <trkpt lat="48.58992" lon="1.76628">
        <ele>175</ele>
        <time>2010-05-15T09:56:28Z</time>
      </trkpt>
      <trkpt lat="48.58992" lon="1.76634">
        <ele>175</ele>
        <time>2010-05-15T09:56:29Z</time>
      </trkpt>
      <trkpt lat="48.58992" lon="1.76639">
        <ele>175</ele>
        <time>2010-05-15T09:56:30Z</time>
      </trkpt>
      <trkpt lat="48.58993" lon="1.76644">
        <ele>175</ele>
        <time>2010-05-15T09:56:31Z</time>
      </trkpt>
      <trkpt lat="48.58992" lon="1.76651">
        <ele>175</ele>
        <time>2010-05-15T09:56:32Z</time>
      </trkpt>
      <trkpt lat="48.58992" lon="1.76659">
        <ele>175</ele>
        <time>2010-05-15T09:56:33Z</time>
      </trkpt>
      <trkpt lat="48.58992" lon="1.76666">
        <ele>175</ele>
        <time>2010-05-15T09:56:34Z</time>
      </trkpt>
      <trkpt lat="48.58992" lon="1.76672">
        <ele>175</ele>
        <time>2010-05-15T09:56:35Z</time>
      </trkpt>
      <trkpt lat="48.5899" lon="1.76679">
        <ele>175</ele>
        <time>2010-05-15T09:56:36Z</time>
      </trkpt>
      <trkpt lat="48.58989" lon="1.76686">
        <ele>175</ele>
        <time>2010-05-15T09:56:37Z</time>
      </trkpt>
      <trkpt lat="48.58988" lon="1.76692">
        <ele>175</ele>
        <time>2010-05-15T09:56:38Z</time>
      </trkpt>
      <trkpt lat="48.58987" lon="1.76698">
        <ele>175</ele>
        <time>2010-05-15T09:56:39Z</time>
      </trkpt>
      <trkpt lat="48.58987" lon="1.76703">
        <ele>175</ele>
        <time>2010-05-15T09:56:40Z</time>
      </trkpt>
      <trkpt lat="48.58987" lon="1.76708">
        <ele>174</ele>
        <time>2010-05-15T09:56:41Z</time>
      </trkpt>
      <trkpt lat="48.58987" lon="1.76713">
        <ele>174</ele>
        <time>2010-05-15T09:56:42Z</time>
      </trkpt>
      <trkpt lat="48.58987" lon="1.76718">
        <ele>174</ele>
        <time>2010-05-15T09:56:43Z</time>
      </trkpt>
      <trkpt lat="48.58987" lon="1.76724">
        <ele>174</ele>
        <time>2010-05-15T09:56:44Z</time>
      </trkpt>
      <trkpt lat="48.58987" lon="1.7673">
        <ele>174</ele>
        <time>2010-05-15T09:56:45Z</time>
      </trkpt>
      <trkpt lat="48.58987" lon="1.76737">
        <ele>174</ele>
        <time>2010-05-15T09:56:46Z</time>
      </trkpt>
      <trkpt lat="48.58988" lon="1.76742">
        <ele>174</ele>
        <time>2010-05-15T09:56:47Z</time>
      </trkpt>
      <trkpt lat="48.58988" lon="1.76749">
        <ele>174</ele>
        <time>2010-05-15T09:56:48Z</time>
      </trkpt>
      <trkpt lat="48.58987" lon="1.76758">
        <ele>174</ele>
        <time>2010-05-15T09:56:49Z</time>
      </trkpt>
      <trkpt lat="48.58986" lon="1.76764">
        <ele>174</ele>
        <time>2010-05-15T09:56:50Z</time>
      </trkpt>
      <trkpt lat="48.58985" lon="1.76773">
        <ele>174</ele>
        <time>2010-05-15T09:56:51Z</time>
      </trkpt>
      <trkpt lat="48.58985" lon="1.76781">
        <ele>174</ele>
        <time>2010-05-15T09:56:52Z</time>
      </trkpt>
      <trkpt lat="48.58983" lon="1.76789">
        <ele>174</ele>
        <time>2010-05-15T09:56:53Z</time>
      </trkpt>
      <trkpt lat="48.58982" lon="1.76797">
        <ele>174</ele>
        <time>2010-05-15T09:56:54Z</time>
      </trkpt>
      <trkpt lat="48.58981" lon="1.76805">
        <ele>174</ele>
        <time>2010-05-15T09:56:55Z</time>
      </trkpt>
      <trkpt lat="48.58981" lon="1.76813">
        <ele>175</ele>
        <time>2010-05-15T09:56:56Z</time>
      </trkpt>
      <trkpt lat="48.5898" lon="1.76819">
        <ele>176</ele>
        <time>2010-05-15T09:56:57Z</time>
      </trkpt>
      <trkpt lat="48.5898" lon="1.76825">
        <ele>177</ele>
        <time>2010-05-15T09:56:58Z</time>
      </trkpt>
      <trkpt lat="48.5898" lon="1.76832">
        <ele>177</ele>
        <time>2010-05-15T09:56:59Z</time>
      </trkpt>
      <trkpt lat="48.5898" lon="1.76839">
        <ele>178</ele>
        <time>2010-05-15T09:57:00Z</time>
      </trkpt>
      <trkpt lat="48.5898" lon="1.76845">
        <ele>178</ele>
        <time>2010-05-15T09:57:01Z</time>
      </trkpt>
      <trkpt lat="48.5898" lon="1.76851">
        <ele>178</ele>
        <time>2010-05-15T09:57:02Z</time>
      </trkpt>
      <trkpt lat="48.5898" lon="1.76858">
        <ele>179</ele>
        <time>2010-05-15T09:57:03Z</time>
      </trkpt>
      <trkpt lat="48.5898" lon="1.76865">
        <ele>179</ele>
        <time>2010-05-15T09:57:04Z</time>
      </trkpt>
      <trkpt lat="48.5898" lon="1.76871">
        <ele>180</ele>
        <time>2010-05-15T09:57:05Z</time>
      </trkpt>
      <trkpt lat="48.58979" lon="1.76879">
        <ele>180</ele>
        <time>2010-05-15T09:57:06Z</time>
      </trkpt>
      <trkpt lat="48.58979" lon="1.76886">
        <ele>181</ele>
        <time>2010-05-15T09:57:07Z</time>
      </trkpt>
      <trkpt lat="48.58978" lon="1.76892">
        <ele>181</ele>
        <time>2010-05-15T09:57:08Z</time>
      </trkpt>
      <trkpt lat="48.58977" lon="1.76898">
        <ele>182</ele>
        <time>2010-05-15T09:57:09Z</time>
      </trkpt>
      <trkpt lat="48.58977" lon="1.76903">
        <ele>183</ele>
        <time>2010-05-15T09:57:10Z</time>
      </trkpt>
      <trkpt lat="48.58976" lon="1.7691">
        <ele>183</ele>
        <time>2010-05-15T09:57:11Z</time>
      </trkpt>
      <trkpt lat="48.58976" lon="1.76916">
        <ele>183</ele>
        <time>2010-05-15T09:57:12Z</time>
      </trkpt>
      <trkpt lat="48.58975" lon="1.76921">
        <ele>183</ele>
        <time>2010-05-15T09:57:13Z</time>
      </trkpt>
      <trkpt lat="48.58975" lon="1.76925">
        <ele>183</ele>
        <time>2010-05-15T09:57:14Z</time>
      </trkpt>
      <trkpt lat="48.58974" lon="1.76929">
        <ele>183</ele>
        <time>2010-05-15T09:57:15Z</time>
      </trkpt>
      <trkpt lat="48.58973" lon="1.76933">
        <ele>183</ele>
        <time>2010-05-15T09:57:16Z</time>
      </trkpt>
      <trkpt lat="48.58972" lon="1.76938">
        <ele>183</ele>
        <time>2010-05-15T09:57:17Z</time>
      </trkpt>
      <trkpt lat="48.58972" lon="1.76943">
        <ele>183</ele>
        <time>2010-05-15T09:57:18Z</time>
      </trkpt>
      <trkpt lat="48.58971" lon="1.76947">
        <ele>183</ele>
        <time>2010-05-15T09:57:19Z</time>
      </trkpt>
      <trkpt lat="48.5897" lon="1.76951">
        <ele>183</ele>
        <time>2010-05-15T09:57:20Z</time>
      </trkpt>
      <trkpt lat="48.58969" lon="1.76955">
        <ele>183</ele>
        <time>2010-05-15T09:57:21Z</time>
      </trkpt>
      <trkpt lat="48.58968" lon="1.7696">
        <ele>183</ele>
        <time>2010-05-15T09:57:22Z</time>
      </trkpt>
      <trkpt lat="48.58967" lon="1.76964">
        <ele>183</ele>
        <time>2010-05-15T09:57:23Z</time>
      </trkpt>
      <trkpt lat="48.58966" lon="1.76967">
        <ele>183</ele>
        <time>2010-05-15T09:57:24Z</time>
      </trkpt>
      <trkpt lat="48.58965" lon="1.76971">
        <ele>183</ele>
        <time>2010-05-15T09:57:25Z</time>
      </trkpt>
      <trkpt lat="48.58964" lon="1.76975">
        <ele>183</ele>
        <time>2010-05-15T09:57:26Z</time>
      </trkpt>
      <trkpt lat="48.58962" lon="1.7698">
        <ele>183</ele>
        <time>2010-05-15T09:57:27Z</time>
      </trkpt>
      <trkpt lat="48.5896" lon="1.76985">
        <ele>183</ele>
        <time>2010-05-15T09:57:28Z</time>
      </trkpt>
      <trkpt lat="48.58958" lon="1.7699">
        <ele>183</ele>
        <time>2010-05-15T09:57:29Z</time>
      </trkpt>
      <trkpt lat="48.58956" lon="1.76995">
        <ele>183</ele>
        <time>2010-05-15T09:57:30Z</time>
      </trkpt>
      <trkpt lat="48.58955" lon="1.76999">
        <ele>183</ele>
        <time>2010-05-15T09:57:31Z</time>
      </trkpt>
      <trkpt lat="48.58953" lon="1.77005">
        <ele>183</ele>
        <time>2010-05-15T09:57:32Z</time>
      </trkpt>
      <trkpt lat="48.58951" lon="1.7701">
        <ele>183</ele>
        <time>2010-05-15T09:57:33Z</time>
      </trkpt>
      <trkpt lat="48.58949" lon="1.77016">
        <ele>183</ele>
        <time>2010-05-15T09:57:34Z</time>
      </trkpt>
      <trkpt lat="48.58948" lon="1.77023">
        <ele>183</ele>
        <time>2010-05-15T09:57:35Z</time>
      </trkpt>
      <trkpt lat="48.58947" lon="1.77029">
        <ele>183</ele>
        <time>2010-05-15T09:57:36Z</time>
      </trkpt>
      <trkpt lat="48.58946" lon="1.77035">
        <ele>183</ele>
        <time>2010-05-15T09:57:37Z</time>
      </trkpt>
      <trkpt lat="48.58944" lon="1.77042">
        <ele>183</ele>
        <time>2010-05-15T09:57:38Z</time>
      </trkpt>
      <trkpt lat="48.58942" lon="1.77049">
        <ele>183</ele>
        <time>2010-05-15T09:57:39Z</time>
      </trkpt>
      <trkpt lat="48.58941" lon="1.77057">
        <ele>183</ele>
        <time>2010-05-15T09:57:40Z</time>
      </trkpt>
      <trkpt lat="48.5894" lon="1.77064">
        <ele>183</ele>
        <time>2010-05-15T09:57:41Z</time>
      </trkpt>
      <trkpt lat="48.58939" lon="1.7707">
        <ele>183</ele>
        <time>2010-05-15T09:57:42Z</time>
      </trkpt>
      <trkpt lat="48.58939" lon="1.77076">
        <ele>183</ele>
        <time>2010-05-15T09:57:43Z</time>
      </trkpt>
      <trkpt lat="48.58938" lon="1.77082">
        <ele>183</ele>
        <time>2010-05-15T09:57:44Z</time>
      </trkpt>
      <trkpt lat="48.58937" lon="1.7709">
        <ele>183</ele>
        <time>2010-05-15T09:57:45Z</time>
      </trkpt>
      <trkpt lat="48.58936" lon="1.77098">
        <ele>183</ele>
        <time>2010-05-15T09:57:46Z</time>
      </trkpt>
      <trkpt lat="48.58934" lon="1.77105">
        <ele>183</ele>
        <time>2010-05-15T09:57:47Z</time>
      </trkpt>
      <trkpt lat="48.58933" lon="1.77112">
        <ele>183</ele>
        <time>2010-05-15T09:57:48Z</time>
      </trkpt>
      <trkpt lat="48.58932" lon="1.7712">
        <ele>183</ele>
        <time>2010-05-15T09:57:49Z</time>
      </trkpt>
      <trkpt lat="48.5893" lon="1.77126">
        <ele>183</ele>
        <time>2010-05-15T09:57:50Z</time>
      </trkpt>
      <trkpt lat="48.58929" lon="1.7713">
        <ele>183</ele>
        <time>2010-05-15T09:57:51Z</time>
      </trkpt>
      <trkpt lat="48.58927" lon="1.77134">
        <ele>183</ele>
        <time>2010-05-15T09:57:52Z</time>
      </trkpt>
      <trkpt lat="48.58925" lon="1.77137">
        <ele>183</ele>
        <time>2010-05-15T09:57:53Z</time>
      </trkpt>
      <trkpt lat="48.58924" lon="1.77139">
        <ele>183</ele>
        <time>2010-05-15T09:57:54Z</time>
      </trkpt>
      <trkpt lat="48.58923" lon="1.77142">
        <ele>183</ele>
        <time>2010-05-15T09:57:55Z</time>
      </trkpt>
      <trkpt lat="48.58922" lon="1.77143">
        <ele>182</ele>
        <time>2010-05-15T09:57:57Z</time>
      </trkpt>
      <trkpt lat="48.5892" lon="1.77144">
        <ele>180</ele>
        <time>2010-05-15T09:58:00Z</time>
      </trkpt>
      <trkpt lat="48.58919" lon="1.77146">
        <ele>179</ele>
        <time>2010-05-15T09:58:01Z</time>
      </trkpt>
      <trkpt lat="48.58918" lon="1.77149">
        <ele>178</ele>
        <time>2010-05-15T09:58:03Z</time>
      </trkpt>
      <trkpt lat="48.58918" lon="1.77152">
        <ele>176</ele>
        <time>2010-05-15T09:58:05Z</time>
      </trkpt>
      <trkpt lat="48.58916" lon="1.77155">
        <ele>175</ele>
        <time>2010-05-15T09:58:07Z</time>
      </trkpt>
      <trkpt lat="48.58915" lon="1.77157">
        <ele>174</ele>
        <time>2010-05-15T09:58:08Z</time>
      </trkpt>
      <trkpt lat="48.58914" lon="1.77158">
        <ele>173</ele>
        <time>2010-05-15T09:58:09Z</time>
      </trkpt>
      <trkpt lat="48.58913" lon="1.7716">
        <ele>171</ele>
        <time>2010-05-15T09:58:11Z</time>
      </trkpt>
      <trkpt lat="48.58911" lon="1.77164">
        <ele>169</ele>
        <time>2010-05-15T09:58:13Z</time>
      </trkpt>
      <trkpt lat="48.5891" lon="1.77166">
        <ele>168</ele>
        <time>2010-05-15T09:58:14Z</time>
      </trkpt>
      <trkpt lat="48.58909" lon="1.77169">
        <ele>166</ele>
        <time>2010-05-15T09:58:16Z</time>
      </trkpt>
      <trkpt lat="48.58908" lon="1.77171">
        <ele>166</ele>
        <time>2010-05-15T09:58:17Z</time>
      </trkpt>
      <trkpt lat="48.58908" lon="1.77172">
        <ele>166</ele>
        <time>2010-05-15T09:58:18Z</time>
      </trkpt>
      <trkpt lat="48.58908" lon="1.77174">
        <ele>165</ele>
        <time>2010-05-15T09:58:20Z</time>
      </trkpt>
      <trkpt lat="48.58907" lon="1.77176">
        <ele>165</ele>
        <time>2010-05-15T09:58:21Z</time>
      </trkpt>
      <trkpt lat="48.58906" lon="1.77179">
        <ele>165</ele>
        <time>2010-05-15T09:58:22Z</time>
      </trkpt>
      <trkpt lat="48.58906" lon="1.77182">
        <ele>165</ele>
        <time>2010-05-15T09:58:24Z</time>
      </trkpt>
      <trkpt lat="48.58904" lon="1.77185">
        <ele>165</ele>
        <time>2010-05-15T09:58:26Z</time>
      </trkpt>
      <trkpt lat="48.58903" lon="1.77188">
        <ele>165</ele>
        <time>2010-05-15T09:58:27Z</time>
      </trkpt>
      <trkpt lat="48.58902" lon="1.7719">
        <ele>165</ele>
        <time>2010-05-15T09:58:28Z</time>
      </trkpt>
      <trkpt lat="48.58902" lon="1.77192">
        <ele>165</ele>
        <time>2010-05-15T09:58:29Z</time>
      </trkpt>
      <trkpt lat="48.58901" lon="1.77194">
        <ele>165</ele>
        <time>2010-05-15T09:58:30Z</time>
      </trkpt>
      <trkpt lat="48.58901" lon="1.77196">
        <ele>165</ele>
        <time>2010-05-15T09:58:31Z</time>
      </trkpt>
      <trkpt lat="48.589" lon="1.77198">
        <ele>165</ele>
        <time>2010-05-15T09:58:32Z</time>
      </trkpt>
      <trkpt lat="48.58899" lon="1.77199">
        <ele>165</ele>
        <time>2010-05-15T09:58:33Z</time>
      </trkpt>
      <trkpt lat="48.58898" lon="1.77203">
        <ele>165</ele>
        <time>2010-05-15T09:58:35Z</time>
      </trkpt>
      <trkpt lat="48.58898" lon="1.77205">
        <ele>165</ele>
        <time>2010-05-15T09:58:36Z</time>
      </trkpt>
      <trkpt lat="48.58897" lon="1.77207">
        <ele>165</ele>
        <time>2010-05-15T09:58:37Z</time>
      </trkpt>
      <trkpt lat="48.58896" lon="1.77209">
        <ele>165</ele>
        <time>2010-05-15T09:58:38Z</time>
      </trkpt>
      <trkpt lat="48.58895" lon="1.7721">
        <ele>165</ele>
        <time>2010-05-15T09:58:39Z</time>
      </trkpt>
      <trkpt lat="48.58894" lon="1.77213">
        <ele>165</ele>
        <time>2010-05-15T09:58:41Z</time>
      </trkpt>
      <trkpt lat="48.58893" lon="1.77216">
        <ele>165</ele>
        <time>2010-05-15T09:58:42Z</time>
      </trkpt>
      <trkpt lat="48.58892" lon="1.77219">
        <ele>165</ele>
        <time>2010-05-15T09:58:43Z</time>
      </trkpt>
      <trkpt lat="48.5889" lon="1.77223">
        <ele>165</ele>
        <time>2010-05-15T09:58:44Z</time>
      </trkpt>
      <trkpt lat="48.58889" lon="1.77228">
        <ele>165</ele>
        <time>2010-05-15T09:58:45Z</time>
      </trkpt>
      <trkpt lat="48.58888" lon="1.77232">
        <ele>165</ele>
        <time>2010-05-15T09:58:46Z</time>
      </trkpt>
      <trkpt lat="48.58888" lon="1.77237">
        <ele>165</ele>
        <time>2010-05-15T09:58:47Z</time>
      </trkpt>
      <trkpt lat="48.58887" lon="1.77242">
        <ele>165</ele>
        <time>2010-05-15T09:58:48Z</time>
      </trkpt>
      <trkpt lat="48.58887" lon="1.77246">
        <ele>165</ele>
        <time>2010-05-15T09:58:49Z</time>
      </trkpt>
      <trkpt lat="48.58886" lon="1.77251">
        <ele>165</ele>
        <time>2010-05-15T09:58:50Z</time>
      </trkpt>
      <trkpt lat="48.58886" lon="1.77256">
        <ele>165</ele>
        <time>2010-05-15T09:58:51Z</time>
      </trkpt>
      <trkpt lat="48.58886" lon="1.77259">
        <ele>165</ele>
        <time>2010-05-15T09:58:52Z</time>
      </trkpt>
      <trkpt lat="48.58885" lon="1.77265">
        <ele>166</ele>
        <time>2010-05-15T09:58:53Z</time>
      </trkpt>
      <trkpt lat="48.58884" lon="1.7727">
        <ele>167</ele>
        <time>2010-05-15T09:58:54Z</time>
      </trkpt>
      <trkpt lat="48.58883" lon="1.77276">
        <ele>168</ele>
        <time>2010-05-15T09:58:55Z</time>
      </trkpt>
      <trkpt lat="48.58882" lon="1.77281">
        <ele>168</ele>
        <time>2010-05-15T09:58:56Z</time>
      </trkpt>
      <trkpt lat="48.5888" lon="1.77288">
        <ele>169</ele>
        <time>2010-05-15T09:58:57Z</time>
      </trkpt>
      <trkpt lat="48.5888" lon="1.77293">
        <ele>169</ele>
        <time>2010-05-15T09:58:58Z</time>
      </trkpt>
      <trkpt lat="48.58879" lon="1.77298">
        <ele>169</ele>
        <time>2010-05-15T09:58:59Z</time>
      </trkpt>
      <trkpt lat="48.58879" lon="1.77303">
        <ele>170</ele>
        <time>2010-05-15T09:59:00Z</time>
      </trkpt>
      <trkpt lat="48.58878" lon="1.77309">
        <ele>170</ele>
        <time>2010-05-15T09:59:01Z</time>
      </trkpt>
      <trkpt lat="48.58878" lon="1.77313">
        <ele>170</ele>
        <time>2010-05-15T09:59:02Z</time>
      </trkpt>
      <trkpt lat="48.58878" lon="1.77318">
        <ele>170</ele>
        <time>2010-05-15T09:59:03Z</time>
      </trkpt>
      <trkpt lat="48.58877" lon="1.77324">
        <ele>171</ele>
        <time>2010-05-15T09:59:04Z</time>
      </trkpt>
      <trkpt lat="48.58877" lon="1.7733">
        <ele>171</ele>
        <time>2010-05-15T09:59:05Z</time>
      </trkpt>
      <trkpt lat="48.58876" lon="1.77334">
        <ele>171</ele>
        <time>2010-05-15T09:59:06Z</time>
      </trkpt>
      <trkpt lat="48.58876" lon="1.77339">
        <ele>171</ele>
        <time>2010-05-15T09:59:07Z</time>
      </trkpt>
      <trkpt lat="48.58875" lon="1.77345">
        <ele>172</ele>
        <time>2010-05-15T09:59:08Z</time>
      </trkpt>
      <trkpt lat="48.58874" lon="1.77351">
        <ele>172</ele>
        <time>2010-05-15T09:59:09Z</time>
      </trkpt>
      <trkpt lat="48.58874" lon="1.77356">
        <ele>173</ele>
        <time>2010-05-15T09:59:10Z</time>
      </trkpt>
      <trkpt lat="48.58873" lon="1.77362">
        <ele>174</ele>
        <time>2010-05-15T09:59:11Z</time>
      </trkpt>
      <trkpt lat="48.58872" lon="1.77368">
        <ele>175</ele>
        <time>2010-05-15T09:59:12Z</time>
      </trkpt>
      <trkpt lat="48.58871" lon="1.77375">
        <ele>176</ele>
        <time>2010-05-15T09:59:13Z</time>
      </trkpt>
      <trkpt lat="48.5887" lon="1.77382">
        <ele>177</ele>
        <time>2010-05-15T09:59:14Z</time>
      </trkpt>
      <trkpt lat="48.5887" lon="1.77389">
        <ele>178</ele>
        <time>2010-05-15T09:59:15Z</time>
      </trkpt>
      <trkpt lat="48.58869" lon="1.77394">
        <ele>179</ele>
        <time>2010-05-15T09:59:16Z</time>
      </trkpt>
      <trkpt lat="48.58869" lon="1.774">
        <ele>180</ele>
        <time>2010-05-15T09:59:17Z</time>
      </trkpt>
      <trkpt lat="48.5887" lon="1.77404">
        <ele>181</ele>
        <time>2010-05-15T09:59:18Z</time>
      </trkpt>
      <trkpt lat="48.58869" lon="1.7741">
        <ele>182</ele>
        <time>2010-05-15T09:59:19Z</time>
      </trkpt>
      <trkpt lat="48.58869" lon="1.77416">
        <ele>183</ele>
        <time>2010-05-15T09:59:20Z</time>
      </trkpt>
      <trkpt lat="48.58868" lon="1.77421">
        <ele>184</ele>
        <time>2010-05-15T09:59:21Z</time>
      </trkpt>
      <trkpt lat="48.58868" lon="1.77427">
        <ele>185</ele>
        <time>2010-05-15T09:59:22Z</time>
      </trkpt>
      <trkpt lat="48.58867" lon="1.77432">
        <ele>185</ele>
        <time>2010-05-15T09:59:23Z</time>
      </trkpt>
      <trkpt lat="48.58866" lon="1.77437">
        <ele>186</ele>
        <time>2010-05-15T09:59:24Z</time>
      </trkpt>
      <trkpt lat="48.58866" lon="1.77442">
        <ele>186</ele>
        <time>2010-05-15T09:59:25Z</time>
      </trkpt>
      <trkpt lat="48.58866" lon="1.77448">
        <ele>186</ele>
        <time>2010-05-15T09:59:26Z</time>
      </trkpt>
      <trkpt lat="48.58866" lon="1.77452">
        <ele>186</ele>
        <time>2010-05-15T09:59:27Z</time>
      </trkpt>
      <trkpt lat="48.58865" lon="1.7746">
        <ele>186</ele>
        <time>2010-05-15T09:59:28Z</time>
      </trkpt>
      <trkpt lat="48.58865" lon="1.77465">
        <ele>186</ele>
        <time>2010-05-15T09:59:29Z</time>
      </trkpt>
      <trkpt lat="48.58864" lon="1.77472">
        <ele>186</ele>
        <time>2010-05-15T09:59:30Z</time>
      </trkpt>
      <trkpt lat="48.58863" lon="1.77477">
        <ele>186</ele>
        <time>2010-05-15T09:59:31Z</time>
      </trkpt>
      <trkpt lat="48.58862" lon="1.77483">
        <ele>186</ele>
        <time>2010-05-15T09:59:32Z</time>
      </trkpt>
      <trkpt lat="48.58861" lon="1.7749">
        <ele>186</ele>
        <time>2010-05-15T09:59:33Z</time>
      </trkpt>
      <trkpt lat="48.5886" lon="1.77496">
        <ele>186</ele>
        <time>2010-05-15T09:59:34Z</time>
      </trkpt>
      <trkpt lat="48.5886" lon="1.775">
        <ele>186</ele>
        <time>2010-05-15T09:59:35Z</time>
      </trkpt>
      <trkpt lat="48.5886" lon="1.77503">
        <ele>186</ele>
        <time>2010-05-15T09:59:36Z</time>
      </trkpt>
      <trkpt lat="48.58859" lon="1.77508">
        <ele>186</ele>
        <time>2010-05-15T09:59:37Z</time>
      </trkpt>
      <trkpt lat="48.58859" lon="1.77512">
        <ele>186</ele>
        <time>2010-05-15T09:59:38Z</time>
      </trkpt>
      <trkpt lat="48.58859" lon="1.77517">
        <ele>186</ele>
        <time>2010-05-15T09:59:39Z</time>
      </trkpt>
      <trkpt lat="48.58859" lon="1.77522">
        <ele>186</ele>
        <time>2010-05-15T09:59:40Z</time>
      </trkpt>
      <trkpt lat="48.58859" lon="1.77526">
        <ele>186</ele>
        <time>2010-05-15T09:59:41Z</time>
      </trkpt>
      <trkpt lat="48.58858" lon="1.77533">
        <ele>186</ele>
        <time>2010-05-15T09:59:43Z</time>
      </trkpt>
      <trkpt lat="48.58858" lon="1.7754">
        <ele>186</ele>
        <time>2010-05-15T09:59:43Z</time>
      </trkpt>
      <trkpt lat="48.58857" lon="1.77546">
        <ele>186</ele>
        <time>2010-05-15T09:59:44Z</time>
      </trkpt>
      <trkpt lat="48.58856" lon="1.77553">
        <ele>186</ele>
        <time>2010-05-15T09:59:45Z</time>
      </trkpt>
      <trkpt lat="48.58855" lon="1.77559">
        <ele>186</ele>
        <time>2010-05-15T09:59:46Z</time>
      </trkpt>
      <trkpt lat="48.58855" lon="1.77565">
        <ele>186</ele>
        <time>2010-05-15T09:59:47Z</time>
      </trkpt>
      <trkpt lat="48.58854" lon="1.77572">
        <ele>186</ele>
        <time>2010-05-15T09:59:48Z</time>
      </trkpt>
      <trkpt lat="48.58854" lon="1.77578">
        <ele>186</ele>
        <time>2010-05-15T09:59:49Z</time>
      </trkpt>
      <trkpt lat="48.58853" lon="1.77582">
        <ele>186</ele>
        <time>2010-05-15T09:59:50Z</time>
      </trkpt>
      <trkpt lat="48.58852" lon="1.77588">
        <ele>186</ele>
        <time>2010-05-15T09:59:51Z</time>
      </trkpt>
      <trkpt lat="48.58851" lon="1.77593">
        <ele>186</ele>
        <time>2010-05-15T09:59:52Z</time>
      </trkpt>
      <trkpt lat="48.5885" lon="1.77599">
        <ele>186</ele>
        <time>2010-05-15T09:59:53Z</time>
      </trkpt>
      <trkpt lat="48.5885" lon="1.77605">
        <ele>186</ele>
        <time>2010-05-15T09:59:54Z</time>
      </trkpt>
      <trkpt lat="48.58849" lon="1.7761">
        <ele>186</ele>
        <time>2010-05-15T09:59:55Z</time>
      </trkpt>
      <trkpt lat="48.58849" lon="1.77615">
        <ele>186</ele>
        <time>2010-05-15T09:59:56Z</time>
      </trkpt>
      <trkpt lat="48.58849" lon="1.77621">
        <ele>186</ele>
        <time>2010-05-15T09:59:57Z</time>
      </trkpt>
      <trkpt lat="48.58848" lon="1.77626">
        <ele>187</ele>
        <time>2010-05-15T09:59:58Z</time>
      </trkpt>
      <trkpt lat="48.58849" lon="1.7763">
        <ele>187</ele>
        <time>2010-05-15T09:59:59Z</time>
      </trkpt>
      <trkpt lat="48.58848" lon="1.77636">
        <ele>187</ele>
        <time>2010-05-15T10:00:00Z</time>
      </trkpt>
      <trkpt lat="48.58847" lon="1.77641">
        <ele>187</ele>
        <time>2010-05-15T10:00:01Z</time>
      </trkpt>
      <trkpt lat="48.58847" lon="1.77647">
        <ele>188</ele>
        <time>2010-05-15T10:00:02Z</time>
      </trkpt>
      <trkpt lat="48.58846" lon="1.77653">
        <ele>188</ele>
        <time>2010-05-15T10:00:03Z</time>
      </trkpt>
      <trkpt lat="48.58845" lon="1.77658">
        <ele>188</ele>
        <time>2010-05-15T10:00:04Z</time>
      </trkpt>
      <trkpt lat="48.58844" lon="1.77665">
        <ele>188</ele>
        <time>2010-05-15T10:00:05Z</time>
      </trkpt>
      <trkpt lat="48.58844" lon="1.77671">
        <ele>188</ele>
        <time>2010-05-15T10:00:06Z</time>
      </trkpt>
      <trkpt lat="48.58845" lon="1.77676">
        <ele>188</ele>
        <time>2010-05-15T10:00:07Z</time>
      </trkpt>
      <trkpt lat="48.58845" lon="1.77682">
        <ele>188</ele>
        <time>2010-05-15T10:00:08Z</time>
      </trkpt>
      <trkpt lat="48.58844" lon="1.77689">
        <ele>188</ele>
        <time>2010-05-15T10:00:09Z</time>
      </trkpt>
      <trkpt lat="48.58844" lon="1.77695">
        <ele>188</ele>
        <time>2010-05-15T10:00:10Z</time>
      </trkpt>
      <trkpt lat="48.58845" lon="1.77699">
        <ele>188</ele>
        <time>2010-05-15T10:00:11Z</time>
      </trkpt>
      <trkpt lat="48.58846" lon="1.77704">
        <ele>188</ele>
        <time>2010-05-15T10:00:12Z</time>
      </trkpt>
      <trkpt lat="48.58847" lon="1.77709">
        <ele>188</ele>
        <time>2010-05-15T10:00:13Z</time>
      </trkpt>
      <trkpt lat="48.58848" lon="1.77713">
        <ele>187</ele>
        <time>2010-05-15T10:00:14Z</time>
      </trkpt>
      <trkpt lat="48.58849" lon="1.77718">
        <ele>186</ele>
        <time>2010-05-15T10:00:15Z</time>
      </trkpt>
      <trkpt lat="48.58851" lon="1.77723">
        <ele>185</ele>
        <time>2010-05-15T10:00:16Z</time>
      </trkpt>
      <trkpt lat="48.58852" lon="1.77726">
        <ele>184</ele>
        <time>2010-05-15T10:00:17Z</time>
      </trkpt>
      <trkpt lat="48.58853" lon="1.7773">
        <ele>184</ele>
        <time>2010-05-15T10:00:18Z</time>
      </trkpt>
      <trkpt lat="48.58854" lon="1.77735">
        <ele>184</ele>
        <time>2010-05-15T10:00:19Z</time>
      </trkpt>
      <trkpt lat="48.58854" lon="1.77742">
        <ele>183</ele>
        <time>2010-05-15T10:00:20Z</time>
      </trkpt>
      <trkpt lat="48.58855" lon="1.77746">
        <ele>183</ele>
        <time>2010-05-15T10:00:21Z</time>
      </trkpt>
      <trkpt lat="48.58856" lon="1.77751">
        <ele>183</ele>
        <time>2010-05-15T10:00:22Z</time>
      </trkpt>
      <trkpt lat="48.58857" lon="1.77756">
        <ele>182</ele>
        <time>2010-05-15T10:00:23Z</time>
      </trkpt>
      <trkpt lat="48.58858" lon="1.77761">
        <ele>181</ele>
        <time>2010-05-15T10:00:24Z</time>
      </trkpt>
      <trkpt lat="48.58859" lon="1.77766">
        <ele>180</ele>
        <time>2010-05-15T10:00:25Z</time>
      </trkpt>
      <trkpt lat="48.58859" lon="1.77771">
        <ele>179</ele>
        <time>2010-05-15T10:00:26Z</time>
      </trkpt>
      <trkpt lat="48.58859" lon="1.77776">
        <ele>179</ele>
        <time>2010-05-15T10:00:27Z</time>
      </trkpt>
      <trkpt lat="48.5886" lon="1.7778">
        <ele>178</ele>
        <time>2010-05-15T10:00:28Z</time>
      </trkpt>
      <trkpt lat="48.5886" lon="1.77784">
        <ele>178</ele>
        <time>2010-05-15T10:00:29Z</time>
      </trkpt>
      <trkpt lat="48.58862" lon="1.77788">
        <ele>176</ele>
        <time>2010-05-15T10:00:31Z</time>
      </trkpt>
      <trkpt lat="48.58862" lon="1.7779">
        <ele>176</ele>
        <time>2010-05-15T10:00:32Z</time>
      </trkpt>
      <trkpt lat="48.58863" lon="1.77794">
        <ele>175</ele>
        <time>2010-05-15T10:00:33Z</time>
      </trkpt>
      <trkpt lat="48.58864" lon="1.77797">
        <ele>175</ele>
        <time>2010-05-15T10:00:34Z</time>
      </trkpt>
      <trkpt lat="48.58864" lon="1.77802">
        <ele>175</ele>
        <time>2010-05-15T10:00:35Z</time>
      </trkpt>
      <trkpt lat="48.58864" lon="1.77806">
        <ele>175</ele>
        <time>2010-05-15T10:00:36Z</time>
      </trkpt>
      <trkpt lat="48.58864" lon="1.77809">
        <ele>175</ele>
        <time>2010-05-15T10:00:37Z</time>
      </trkpt>
      <trkpt lat="48.58865" lon="1.77811">
        <ele>175</ele>
        <time>2010-05-15T10:00:38Z</time>
      </trkpt>
      <trkpt lat="48.58865" lon="1.77813">
        <ele>175</ele>
        <time>2010-05-15T10:00:39Z</time>
      </trkpt>
      <trkpt lat="48.58866" lon="1.77816">
        <ele>174</ele>
        <time>2010-05-15T10:00:41Z</time>
      </trkpt>
      <trkpt lat="48.58865" lon="1.77818">
        <ele>173</ele>
        <time>2010-05-15T10:00:44Z</time>
      </trkpt>
      <trkpt lat="48.58865" lon="1.7782">
        <ele>173</ele>
        <time>2010-05-15T10:00:49Z</time>
      </trkpt>
      <trkpt lat="48.58867" lon="1.77823">
        <ele>172</ele>
        <time>2010-05-15T10:00:51Z</time>
      </trkpt>
      <trkpt lat="48.58868" lon="1.77824">
        <ele>172</ele>
        <time>2010-05-15T10:00:52Z</time>
      </trkpt>
      <trkpt lat="48.58868" lon="1.77826">
        <ele>172</ele>
        <time>2010-05-15T10:00:53Z</time>
      </trkpt>
      <trkpt lat="48.58868" lon="1.77828">
        <ele>172</ele>
        <time>2010-05-15T10:00:54Z</time>
      </trkpt>
      <trkpt lat="48.58868" lon="1.7783">
        <ele>171</ele>
        <time>2010-05-15T10:00:55Z</time>
      </trkpt>
      <trkpt lat="48.58865" lon="1.77832">
        <ele>171</ele>
        <time>2010-05-15T10:00:57Z</time>
      </trkpt>
      <trkpt lat="48.58864" lon="1.77832">
        <ele>170</ele>
        <time>2010-05-15T10:00:58Z</time>
      </trkpt>
      <trkpt lat="48.58862" lon="1.77832">
        <ele>170</ele>
        <time>2010-05-15T10:00:59Z</time>
      </trkpt>
      <trkpt lat="48.58861" lon="1.77831">
        <ele>170</ele>
        <time>2010-05-15T10:01:00Z</time>
      </trkpt>
      <trkpt lat="48.58859" lon="1.77831">
        <ele>169</ele>
        <time>2010-05-15T10:01:01Z</time>
      </trkpt>
      <trkpt lat="48.58858" lon="1.77831">
        <ele>169</ele>
        <time>2010-05-15T10:01:02Z</time>
      </trkpt>
      <trkpt lat="48.58856" lon="1.7783">
        <ele>169</ele>
        <time>2010-05-15T10:01:03Z</time>
      </trkpt>
      <trkpt lat="48.58855" lon="1.77829">
        <ele>168</ele>
        <time>2010-05-15T10:01:04Z</time>
      </trkpt>
      <trkpt lat="48.58853" lon="1.77828">
        <ele>168</ele>
        <time>2010-05-15T10:01:05Z</time>
      </trkpt>
      <trkpt lat="48.58852" lon="1.77827">
        <ele>168</ele>
        <time>2010-05-15T10:01:06Z</time>
      </trkpt>
      <trkpt lat="48.58851" lon="1.77827">
        <ele>167</ele>
        <time>2010-05-15T10:01:07Z</time>
      </trkpt>
      <trkpt lat="48.5885" lon="1.77827">
        <ele>167</ele>
        <time>2010-05-15T10:01:08Z</time>
      </trkpt>
      <trkpt lat="48.58848" lon="1.77826">
        <ele>167</ele>
        <time>2010-05-15T10:01:10Z</time>
      </trkpt>
      <trkpt lat="48.58846" lon="1.77825">
        <ele>165</ele>
        <time>2010-05-15T10:01:15Z</time>
      </trkpt>
      <trkpt lat="48.58845" lon="1.77826">
        <ele>165</ele>
        <time>2010-05-15T10:01:18Z</time>
      </trkpt>
      <trkpt lat="48.58847" lon="1.77826">
        <ele>164</ele>
        <time>2010-05-15T10:01:31Z</time>
      </trkpt>
      <trkpt lat="48.58848" lon="1.77826">
        <ele>164</ele>
        <time>2010-05-15T10:01:32Z</time>
      </trkpt>
      <trkpt lat="48.58849" lon="1.77826">
        <ele>164</ele>
        <time>2010-05-15T10:01:34Z</time>
      </trkpt>
      <trkpt lat="48.58849" lon="1.77824">
        <ele>163</ele>
        <time>2010-05-15T10:01:54Z</time>
      </trkpt>
      <trkpt lat="48.5885" lon="1.77825">
        <ele>162</ele>
        <time>2010-05-15T10:02:14Z</time>
      </trkpt>
      <trkpt lat="48.58852" lon="1.77827">
        <ele>162</ele>
        <time>2010-05-15T10:02:30Z</time>
      </trkpt>
      <trkpt lat="48.58853" lon="1.77828">
        <ele>162</ele>
        <time>2010-05-15T10:02:32Z</time>
      </trkpt>
      <trkpt lat="48.58855" lon="1.77828">
        <ele>162</ele>
        <time>2010-05-15T10:02:34Z</time>
      </trkpt>
      <trkpt lat="48.58856" lon="1.77829">
        <ele>162</ele>
        <time>2010-05-15T10:02:36Z</time>
      </trkpt>
      <trkpt lat="48.58857" lon="1.77827">
        <ele>162</ele>
        <time>2010-05-15T10:02:56Z</time>
      </trkpt>
      <trkpt lat="48.58859" lon="1.77829">
        <ele>162</ele>
        <time>2010-05-15T10:02:59Z</time>
      </trkpt>
      <trkpt lat="48.58858" lon="1.77832">
        <ele>162</ele>
        <time>2010-05-15T10:03:12Z</time>
      </trkpt>
      <trkpt lat="48.58858" lon="1.77834">
        <ele>162</ele>
        <time>2010-05-15T10:03:13Z</time>
      </trkpt>
      <trkpt lat="48.58857" lon="1.77837">
        <ele>162</ele>
        <time>2010-05-15T10:03:14Z</time>
      </trkpt>
      <trkpt lat="48.58856" lon="1.7784">
        <ele>162</ele>
        <time>2010-05-15T10:03:15Z</time>
      </trkpt>
      <trkpt lat="48.58855" lon="1.77842">
        <ele>162</ele>
        <time>2010-05-15T10:03:16Z</time>
      </trkpt>
      <trkpt lat="48.58854" lon="1.77845">
        <ele>162</ele>
        <time>2010-05-15T10:03:17Z</time>
      </trkpt>
      <trkpt lat="48.58853" lon="1.77847">
        <ele>162</ele>
        <time>2010-05-15T10:03:18Z</time>
      </trkpt>
      <trkpt lat="48.58853" lon="1.77848">
        <ele>162</ele>
        <time>2010-05-15T10:03:19Z</time>
      </trkpt>
      <trkpt lat="48.58851" lon="1.77851">
        <ele>162</ele>
        <time>2010-05-15T10:03:21Z</time>
      </trkpt>
      <trkpt lat="48.5885" lon="1.77851">
        <ele>162</ele>
        <time>2010-05-15T10:03:22Z</time>
      </trkpt>
      <trkpt lat="48.58848" lon="1.77851">
        <ele>162</ele>
        <time>2010-05-15T10:03:23Z</time>
      </trkpt>
      <trkpt lat="48.58847" lon="1.7785">
        <ele>162</ele>
        <time>2010-05-15T10:03:24Z</time>
      </trkpt>
      <trkpt lat="48.58845" lon="1.77849">
        <ele>162</ele>
        <time>2010-05-15T10:03:25Z</time>
      </trkpt>
      <trkpt lat="48.58843" lon="1.77848">
        <ele>162</ele>
        <time>2010-05-15T10:03:26Z</time>
      </trkpt>
      <trkpt lat="48.58842" lon="1.77847">
        <ele>162</ele>
        <time>2010-05-15T10:03:27Z</time>
      </trkpt>
      <trkpt lat="48.5884" lon="1.77847">
        <ele>162</ele>
        <time>2010-05-15T10:03:28Z</time>
      </trkpt>
      <trkpt lat="48.58839" lon="1.77846">
        <ele>162</ele>
        <time>2010-05-15T10:03:29Z</time>
      </trkpt>
      <trkpt lat="48.58837" lon="1.77846">
        <ele>162</ele>
        <time>2010-05-15T10:03:30Z</time>
      </trkpt>
      <trkpt lat="48.58835" lon="1.77845">
        <ele>162</ele>
        <time>2010-05-15T10:03:31Z</time>
      </trkpt>
      <trkpt lat="48.58834" lon="1.77844">
        <ele>162</ele>
        <time>2010-05-15T10:03:32Z</time>
      </trkpt>
      <trkpt lat="48.58832" lon="1.77844">
        <ele>162</ele>
        <time>2010-05-15T10:03:33Z</time>
      </trkpt>
      <trkpt lat="48.58831" lon="1.77843">
        <ele>162</ele>
        <time>2010-05-15T10:03:34Z</time>
      </trkpt>
      <trkpt lat="48.58829" lon="1.77843">
        <ele>162</ele>
        <time>2010-05-15T10:03:35Z</time>
      </trkpt>
      <trkpt lat="48.58828" lon="1.77842">
        <ele>162</ele>
        <time>2010-05-15T10:03:36Z</time>
      </trkpt>
      <trkpt lat="48.58826" lon="1.77842">
        <ele>162</ele>
        <time>2010-05-15T10:03:37Z</time>
      </trkpt>
      <trkpt lat="48.58824" lon="1.77842">
        <ele>162</ele>
        <time>2010-05-15T10:03:38Z</time>
      </trkpt>
      <trkpt lat="48.58823" lon="1.77842">
        <ele>162</ele>
        <time>2010-05-15T10:03:39Z</time>
      </trkpt>
      <trkpt lat="48.58821" lon="1.77842">
        <ele>162</ele>
        <time>2010-05-15T10:03:40Z</time>
      </trkpt>
      <trkpt lat="48.58819" lon="1.77841">
        <ele>162</ele>
        <time>2010-05-15T10:03:41Z</time>
      </trkpt>
      <trkpt lat="48.58818" lon="1.77841">
        <ele>162</ele>
        <time>2010-05-15T10:03:42Z</time>
      </trkpt>
      <trkpt lat="48.58816" lon="1.77841">
        <ele>162</ele>
        <time>2010-05-15T10:03:43Z</time>
      </trkpt>
      <trkpt lat="48.58815" lon="1.77841">
        <ele>162</ele>
        <time>2010-05-15T10:03:44Z</time>
      </trkpt>
      <trkpt lat="48.58814" lon="1.7784">
        <ele>162</ele>
        <time>2010-05-15T10:03:45Z</time>
      </trkpt>
      <trkpt lat="48.58812" lon="1.7784">
        <ele>162</ele>
        <time>2010-05-15T10:03:46Z</time>
      </trkpt>
      <trkpt lat="48.5881" lon="1.7784">
        <ele>162</ele>
        <time>2010-05-15T10:03:47Z</time>
      </trkpt>
      <trkpt lat="48.58809" lon="1.7784">
        <ele>162</ele>
        <time>2010-05-15T10:03:48Z</time>
      </trkpt>
      <trkpt lat="48.58807" lon="1.7784">
        <ele>162</ele>
        <time>2010-05-15T10:03:49Z</time>
      </trkpt>
      <trkpt lat="48.58806" lon="1.7784">
        <ele>162</ele>
        <time>2010-05-15T10:03:50Z</time>
      </trkpt>
      <trkpt lat="48.58804" lon="1.7784">
        <ele>162</ele>
        <time>2010-05-15T10:03:51Z</time>
      </trkpt>
      <trkpt lat="48.58802" lon="1.7784">
        <ele>162</ele>
        <time>2010-05-15T10:03:52Z</time>
      </trkpt>
      <trkpt lat="48.58801" lon="1.77839">
        <ele>162</ele>
        <time>2010-05-15T10:03:53Z</time>
      </trkpt>
      <trkpt lat="48.58799" lon="1.77839">
        <ele>162</ele>
        <time>2010-05-15T10:03:54Z</time>
      </trkpt>
      <trkpt lat="48.58798" lon="1.77839">
        <ele>162</ele>
        <time>2010-05-15T10:03:55Z</time>
      </trkpt>
      <trkpt lat="48.58796" lon="1.77838">
        <ele>162</ele>
        <time>2010-05-15T10:03:56Z</time>
      </trkpt>
      <trkpt lat="48.58794" lon="1.77838">
        <ele>162</ele>
        <time>2010-05-15T10:03:57Z</time>
      </trkpt>
      <trkpt lat="48.58793" lon="1.77838">
        <ele>162</ele>
        <time>2010-05-15T10:03:58Z</time>
      </trkpt>
      <trkpt lat="48.58791" lon="1.77838">
        <ele>162</ele>
        <time>2010-05-15T10:03:59Z</time>
      </trkpt>
      <trkpt lat="48.5879" lon="1.77838">
        <ele>162</ele>
        <time>2010-05-15T10:04:00Z</time>
      </trkpt>
      <trkpt lat="48.58788" lon="1.77837">
        <ele>162</ele>
        <time>2010-05-15T10:04:01Z</time>
      </trkpt>
      <trkpt lat="48.58787" lon="1.77837">
        <ele>162</ele>
        <time>2010-05-15T10:04:02Z</time>
      </trkpt>
      <trkpt lat="48.58785" lon="1.77836">
        <ele>162</ele>
        <time>2010-05-15T10:04:03Z</time>
      </trkpt>
      <trkpt lat="48.58783" lon="1.77836">
        <ele>162</ele>
        <time>2010-05-15T10:04:04Z</time>
      </trkpt>
      <trkpt lat="48.58782" lon="1.77836">
        <ele>162</ele>
        <time>2010-05-15T10:04:05Z</time>
      </trkpt>
      <trkpt lat="48.5878" lon="1.77836">
        <ele>162</ele>
        <time>2010-05-15T10:04:06Z</time>
      </trkpt>
      <trkpt lat="48.58779" lon="1.77835">
        <ele>162</ele>
        <time>2010-05-15T10:04:07Z</time>
      </trkpt>
      <trkpt lat="48.58777" lon="1.77835">
        <ele>162</ele>
        <time>2010-05-15T10:04:08Z</time>
      </trkpt>
      <trkpt lat="48.58776" lon="1.77834">
        <ele>162</ele>
        <time>2010-05-15T10:04:09Z</time>
      </trkpt>
      <trkpt lat="48.58774" lon="1.77833">
        <ele>162</ele>
        <time>2010-05-15T10:04:10Z</time>
      </trkpt>
      <trkpt lat="48.58772" lon="1.77832">
        <ele>162</ele>
        <time>2010-05-15T10:04:11Z</time>
      </trkpt>
      <trkpt lat="48.5877" lon="1.77832">
        <ele>162</ele>
        <time>2010-05-15T10:04:12Z</time>
      </trkpt>
      <trkpt lat="48.58769" lon="1.77832">
        <ele>162</ele>
        <time>2010-05-15T10:04:13Z</time>
      </trkpt>
      <trkpt lat="48.58767" lon="1.77832">
        <ele>162</ele>
        <time>2010-05-15T10:04:14Z</time>
      </trkpt>
      <trkpt lat="48.58766" lon="1.77832">
        <ele>162</ele>
        <time>2010-05-15T10:04:15Z</time>
      </trkpt>
      <trkpt lat="48.58764" lon="1.77832">
        <ele>162</ele>
        <time>2010-05-15T10:04:16Z</time>
      </trkpt>
      <trkpt lat="48.58763" lon="1.77832">
        <ele>162</ele>
        <time>2010-05-15T10:04:17Z</time>
      </trkpt>
      <trkpt lat="48.58761" lon="1.77832">
        <ele>162</ele>
        <time>2010-05-15T10:04:18Z</time>
      </trkpt>
      <trkpt lat="48.5876" lon="1.77832">
        <ele>162</ele>
        <time>2010-05-15T10:04:19Z</time>
      </trkpt>
      <trkpt lat="48.58758" lon="1.77833">
        <ele>162</ele>
        <time>2010-05-15T10:04:20Z</time>
      </trkpt>
      <trkpt lat="48.58757" lon="1.77833">
        <ele>162</ele>
        <time>2010-05-15T10:04:21Z</time>
      </trkpt>
      <trkpt lat="48.58755" lon="1.77833">
        <ele>162</ele>
        <time>2010-05-15T10:04:22Z</time>
      </trkpt>
      <trkpt lat="48.58754" lon="1.77832">
        <ele>162</ele>
        <time>2010-05-15T10:04:23Z</time>
      </trkpt>
      <trkpt lat="48.58752" lon="1.77832">
        <ele>162</ele>
        <time>2010-05-15T10:04:24Z</time>
      </trkpt>
      <trkpt lat="48.58751" lon="1.77832">
        <ele>162</ele>
        <time>2010-05-15T10:04:25Z</time>
      </trkpt>
      <trkpt lat="48.5875" lon="1.77833">
        <ele>162</ele>
        <time>2010-05-15T10:04:26Z</time>
      </trkpt>
      <trkpt lat="48.58748" lon="1.77833">
        <ele>162</ele>
        <time>2010-05-15T10:04:27Z</time>
      </trkpt>
      <trkpt lat="48.58747" lon="1.77832">
        <ele>162</ele>
        <time>2010-05-15T10:04:28Z</time>
      </trkpt>
      <trkpt lat="48.58745" lon="1.77832">
        <ele>162</ele>
        <time>2010-05-15T10:04:29Z</time>
      </trkpt>
      <trkpt lat="48.58744" lon="1.77832">
        <ele>162</ele>
        <time>2010-05-15T10:04:30Z</time>
      </trkpt>
      <trkpt lat="48.58742" lon="1.77832">
        <ele>162</ele>
        <time>2010-05-15T10:04:31Z</time>
      </trkpt>
      <trkpt lat="48.58741" lon="1.77831">
        <ele>162</ele>
        <time>2010-05-15T10:04:35Z</time>
      </trkpt>
      <trkpt lat="48.58739" lon="1.77831">
        <ele>162</ele>
        <time>2010-05-15T10:04:37Z</time>
      </trkpt>
      <trkpt lat="48.58737" lon="1.77831">
        <ele>162</ele>
        <time>2010-05-15T10:04:38Z</time>
      </trkpt>
      <trkpt lat="48.58735" lon="1.77831">
        <ele>162</ele>
        <time>2010-05-15T10:04:39Z</time>
      </trkpt>
      <trkpt lat="48.58734" lon="1.77832">
        <ele>162</ele>
        <time>2010-05-15T10:04:40Z</time>
      </trkpt>
      <trkpt lat="48.58732" lon="1.77832">
        <ele>162</ele>
        <time>2010-05-15T10:04:41Z</time>
      </trkpt>
      <trkpt lat="48.58731" lon="1.77832">
        <ele>162</ele>
        <time>2010-05-15T10:04:42Z</time>
      </trkpt>
      <trkpt lat="48.58729" lon="1.77833">
        <ele>162</ele>
        <time>2010-05-15T10:04:43Z</time>
      </trkpt>
      <trkpt lat="48.58727" lon="1.77833">
        <ele>162</ele>
        <time>2010-05-15T10:04:44Z</time>
      </trkpt>
      <trkpt lat="48.58726" lon="1.77833">
        <ele>162</ele>
        <time>2010-05-15T10:04:45Z</time>
      </trkpt>
      <trkpt lat="48.58724" lon="1.77833">
        <ele>162</ele>
        <time>2010-05-15T10:04:46Z</time>
      </trkpt>
      <trkpt lat="48.58723" lon="1.77832">
        <ele>162</ele>
        <time>2010-05-15T10:04:47Z</time>
      </trkpt>
      <trkpt lat="48.58721" lon="1.77832">
        <ele>162</ele>
        <time>2010-05-15T10:04:48Z</time>
      </trkpt>
      <trkpt lat="48.58719" lon="1.77832">
        <ele>162</ele>
        <time>2010-05-15T10:04:49Z</time>
      </trkpt>
      <trkpt lat="48.58718" lon="1.77832">
        <ele>162</ele>
        <time>2010-05-15T10:04:50Z</time>
      </trkpt>
      <trkpt lat="48.58716" lon="1.77832">
        <ele>162</ele>
        <time>2010-05-15T10:04:51Z</time>
      </trkpt>
      <trkpt lat="48.58715" lon="1.77832">
        <ele>162</ele>
        <time>2010-05-15T10:04:52Z</time>
      </trkpt>
      <trkpt lat="48.58713" lon="1.77832">
        <ele>162</ele>
        <time>2010-05-15T10:04:53Z</time>
      </trkpt>
      <trkpt lat="48.58712" lon="1.77832">
        <ele>162</ele>
        <time>2010-05-15T10:04:54Z</time>
      </trkpt>
      <trkpt lat="48.5871" lon="1.77832">
        <ele>162</ele>
        <time>2010-05-15T10:04:55Z</time>
      </trkpt>
      <trkpt lat="48.58708" lon="1.77832">
        <ele>162</ele>
        <time>2010-05-15T10:04:56Z</time>
      </trkpt>
      <trkpt lat="48.58707" lon="1.77833">
        <ele>162</ele>
        <time>2010-05-15T10:04:57Z</time>
      </trkpt>
      <trkpt lat="48.58705" lon="1.77833">
        <ele>162</ele>
        <time>2010-05-15T10:04:58Z</time>
      </trkpt>
      <trkpt lat="48.58703" lon="1.77833">
        <ele>162</ele>
        <time>2010-05-15T10:04:59Z</time>
      </trkpt>
      <trkpt lat="48.58702" lon="1.77833">
        <ele>162</ele>
        <time>2010-05-15T10:05:00Z</time>
      </trkpt>
      <trkpt lat="48.587" lon="1.77833">
        <ele>162</ele>
        <time>2010-05-15T10:05:01Z</time>
      </trkpt>
      <trkpt lat="48.58699" lon="1.77833">
        <ele>162</ele>
        <time>2010-05-15T10:05:02Z</time>
      </trkpt>
      <trkpt lat="48.58697" lon="1.77834">
        <ele>162</ele>
        <time>2010-05-15T10:05:03Z</time>
      </trkpt>
      <trkpt lat="48.58695" lon="1.77834">
        <ele>162</ele>
        <time>2010-05-15T10:05:04Z</time>
      </trkpt>
      <trkpt lat="48.58694" lon="1.77834">
        <ele>162</ele>
        <time>2010-05-15T10:05:05Z</time>
      </trkpt>
      <trkpt lat="48.58692" lon="1.77835">
        <ele>162</ele>
        <time>2010-05-15T10:05:06Z</time>
      </trkpt>
      <trkpt lat="48.58691" lon="1.77835">
        <ele>162</ele>
        <time>2010-05-15T10:05:07Z</time>
      </trkpt>
      <trkpt lat="48.58689" lon="1.77836">
        <ele>162</ele>
        <time>2010-05-15T10:05:08Z</time>
      </trkpt>
      <trkpt lat="48.58687" lon="1.77836">
        <ele>162</ele>
        <time>2010-05-15T10:05:09Z</time>
      </trkpt>
      <trkpt lat="48.58686" lon="1.77836">
        <ele>162</ele>
        <time>2010-05-15T10:05:10Z</time>
      </trkpt>
      <trkpt lat="48.58684" lon="1.77837">
        <ele>162</ele>
        <time>2010-05-15T10:05:11Z</time>
      </trkpt>
      <trkpt lat="48.58682" lon="1.77837">
        <ele>162</ele>
        <time>2010-05-15T10:05:12Z</time>
      </trkpt>
      <trkpt lat="48.58681" lon="1.77838">
        <ele>162</ele>
        <time>2010-05-15T10:05:13Z</time>
      </trkpt>
      <trkpt lat="48.5868" lon="1.77839">
        <ele>162</ele>
        <time>2010-05-15T10:05:14Z</time>
      </trkpt>
      <trkpt lat="48.58678" lon="1.77839">
        <ele>162</ele>
        <time>2010-05-15T10:05:15Z</time>
      </trkpt>
      <trkpt lat="48.58676" lon="1.7784">
        <ele>162</ele>
        <time>2010-05-15T10:05:16Z</time>
      </trkpt>
      <trkpt lat="48.58675" lon="1.7784">
        <ele>162</ele>
        <time>2010-05-15T10:05:17Z</time>
      </trkpt>
      <trkpt lat="48.58673" lon="1.7784">
        <ele>162</ele>
        <time>2010-05-15T10:05:18Z</time>
      </trkpt>
      <trkpt lat="48.58672" lon="1.7784">
        <ele>162</ele>
        <time>2010-05-15T10:05:19Z</time>
      </trkpt>
      <trkpt lat="48.5867" lon="1.7784">
        <ele>162</ele>
        <time>2010-05-15T10:05:20Z</time>
      </trkpt>
      <trkpt lat="48.58669" lon="1.77841">
        <ele>162</ele>
        <time>2010-05-15T10:05:21Z</time>
      </trkpt>
      <trkpt lat="48.58667" lon="1.77841">
        <ele>162</ele>
        <time>2010-05-15T10:05:22Z</time>
      </trkpt>
      <trkpt lat="48.58665" lon="1.77842">
        <ele>162</ele>
        <time>2010-05-15T10:05:23Z</time>
      </trkpt>
      <trkpt lat="48.58664" lon="1.77842">
        <ele>162</ele>
        <time>2010-05-15T10:05:24Z</time>
      </trkpt>
      <trkpt lat="48.58662" lon="1.77842">
        <ele>162</ele>
        <time>2010-05-15T10:05:25Z</time>
      </trkpt>
      <trkpt lat="48.58661" lon="1.77842">
        <ele>162</ele>
        <time>2010-05-15T10:05:26Z</time>
      </trkpt>
      <trkpt lat="48.58659" lon="1.77843">
        <ele>162</ele>
        <time>2010-05-15T10:05:27Z</time>
      </trkpt>
      <trkpt lat="48.58658" lon="1.77844">
        <ele>162</ele>
        <time>2010-05-15T10:05:28Z</time>
      </trkpt>
      <trkpt lat="48.58656" lon="1.77844">
        <ele>162</ele>
        <time>2010-05-15T10:05:29Z</time>
      </trkpt>
      <trkpt lat="48.58654" lon="1.77844">
        <ele>162</ele>
        <time>2010-05-15T10:05:30Z</time>
      </trkpt>
      <trkpt lat="48.58653" lon="1.77845">
        <ele>162</ele>
        <time>2010-05-15T10:05:31Z</time>
      </trkpt>
      <trkpt lat="48.58651" lon="1.77845">
        <ele>162</ele>
        <time>2010-05-15T10:05:32Z</time>
      </trkpt>
      <trkpt lat="48.5865" lon="1.77846">
        <ele>162</ele>
        <time>2010-05-15T10:05:33Z</time>
      </trkpt>
      <trkpt lat="48.58648" lon="1.77846">
        <ele>162</ele>
        <time>2010-05-15T10:05:34Z</time>
      </trkpt>
      <trkpt lat="48.58646" lon="1.77847">
        <ele>162</ele>
        <time>2010-05-15T10:05:35Z</time>
      </trkpt>
      <trkpt lat="48.58645" lon="1.77847">
        <ele>162</ele>
        <time>2010-05-15T10:05:36Z</time>
      </trkpt>
      <trkpt lat="48.58643" lon="1.77848">
        <ele>162</ele>
        <time>2010-05-15T10:05:37Z</time>
      </trkpt>
      <trkpt lat="48.58642" lon="1.77848">
        <ele>162</ele>
        <time>2010-05-15T10:05:38Z</time>
      </trkpt>
      <trkpt lat="48.5864" lon="1.77849">
        <ele>162</ele>
        <time>2010-05-15T10:05:39Z</time>
      </trkpt>
      <trkpt lat="48.58639" lon="1.7785">
        <ele>162</ele>
        <time>2010-05-15T10:05:40Z</time>
      </trkpt>
      <trkpt lat="48.58637" lon="1.77851">
        <ele>162</ele>
        <time>2010-05-15T10:05:41Z</time>
      </trkpt>
      <trkpt lat="48.58636" lon="1.77851">
        <ele>162</ele>
        <time>2010-05-15T10:05:42Z</time>
      </trkpt>
      <trkpt lat="48.58634" lon="1.77852">
        <ele>162</ele>
        <time>2010-05-15T10:05:43Z</time>
      </trkpt>
      <trkpt lat="48.58632" lon="1.77853">
        <ele>162</ele>
        <time>2010-05-15T10:05:44Z</time>
      </trkpt>
      <trkpt lat="48.58631" lon="1.77853">
        <ele>162</ele>
        <time>2010-05-15T10:05:45Z</time>
      </trkpt>
      <trkpt lat="48.58629" lon="1.77854">
        <ele>162</ele>
        <time>2010-05-15T10:05:46Z</time>
      </trkpt>
      <trkpt lat="48.58627" lon="1.77854">
        <ele>162</ele>
        <time>2010-05-15T10:05:47Z</time>
      </trkpt>
      <trkpt lat="48.58626" lon="1.77855">
        <ele>162</ele>
        <time>2010-05-15T10:05:48Z</time>
      </trkpt>
      <trkpt lat="48.58624" lon="1.77856">
        <ele>162</ele>
        <time>2010-05-15T10:05:49Z</time>
      </trkpt>
      <trkpt lat="48.58623" lon="1.77857">
        <ele>162</ele>
        <time>2010-05-15T10:05:50Z</time>
      </trkpt>
      <trkpt lat="48.58621" lon="1.77859">
        <ele>162</ele>
        <time>2010-05-15T10:05:51Z</time>
      </trkpt>
      <trkpt lat="48.5862" lon="1.7786">
        <ele>162</ele>
        <time>2010-05-15T10:05:52Z</time>
      </trkpt>
      <trkpt lat="48.58618" lon="1.7786">
        <ele>162</ele>
        <time>2010-05-15T10:05:53Z</time>
      </trkpt>
      <trkpt lat="48.58617" lon="1.77861">
        <ele>162</ele>
        <time>2010-05-15T10:05:54Z</time>
      </trkpt>
      <trkpt lat="48.58615" lon="1.77862">
        <ele>162</ele>
        <time>2010-05-15T10:05:55Z</time>
      </trkpt>
      <trkpt lat="48.58614" lon="1.77862">
        <ele>162</ele>
        <time>2010-05-15T10:05:56Z</time>
      </trkpt>
      <trkpt lat="48.58612" lon="1.77863">
        <ele>162</ele>
        <time>2010-05-15T10:05:57Z</time>
      </trkpt>
      <trkpt lat="48.58611" lon="1.77864">
        <ele>162</ele>
        <time>2010-05-15T10:05:58Z</time>
      </trkpt>
      <trkpt lat="48.58609" lon="1.77864">
        <ele>162</ele>
        <time>2010-05-15T10:05:59Z</time>
      </trkpt>
      <trkpt lat="48.58607" lon="1.77865">
        <ele>162</ele>
        <time>2010-05-15T10:06:00Z</time>
      </trkpt>
      <trkpt lat="48.58606" lon="1.77866">
        <ele>162</ele>
        <time>2010-05-15T10:06:01Z</time>
      </trkpt>
      <trkpt lat="48.58604" lon="1.77867">
        <ele>162</ele>
        <time>2010-05-15T10:06:02Z</time>
      </trkpt>
      <trkpt lat="48.58603" lon="1.77867">
        <ele>162</ele>
        <time>2010-05-15T10:06:03Z</time>
      </trkpt>
      <trkpt lat="48.58601" lon="1.77868">
        <ele>162</ele>
        <time>2010-05-15T10:06:04Z</time>
      </trkpt>
      <trkpt lat="48.58599" lon="1.77869">
        <ele>162</ele>
        <time>2010-05-15T10:06:05Z</time>
      </trkpt>
      <trkpt lat="48.58598" lon="1.77869">
        <ele>162</ele>
        <time>2010-05-15T10:06:06Z</time>
      </trkpt>
      <trkpt lat="48.58596" lon="1.77869">
        <ele>162</ele>
        <time>2010-05-15T10:06:07Z</time>
      </trkpt>
      <trkpt lat="48.58594" lon="1.7787">
        <ele>162</ele>
        <time>2010-05-15T10:06:08Z</time>
      </trkpt>
      <trkpt lat="48.58593" lon="1.77871">
        <ele>162</ele>
        <time>2010-05-15T10:06:09Z</time>
      </trkpt>
      <trkpt lat="48.58591" lon="1.77871">
        <ele>162</ele>
        <time>2010-05-15T10:06:10Z</time>
      </trkpt>
      <trkpt lat="48.58589" lon="1.77872">
        <ele>162</ele>
        <time>2010-05-15T10:06:11Z</time>
      </trkpt>
      <trkpt lat="48.58588" lon="1.77872">
        <ele>162</ele>
        <time>2010-05-15T10:06:12Z</time>
      </trkpt>
      <trkpt lat="48.58586" lon="1.77873">
        <ele>162</ele>
        <time>2010-05-15T10:06:13Z</time>
      </trkpt>
      <trkpt lat="48.58584" lon="1.77874">
        <ele>162</ele>
        <time>2010-05-15T10:06:14Z</time>
      </trkpt>
      <trkpt lat="48.58583" lon="1.77875">
        <ele>162</ele>
        <time>2010-05-15T10:06:15Z</time>
      </trkpt>
      <trkpt lat="48.58581" lon="1.77876">
        <ele>162</ele>
        <time>2010-05-15T10:06:16Z</time>
      </trkpt>
      <trkpt lat="48.58579" lon="1.77876">
        <ele>162</ele>
        <time>2010-05-15T10:06:17Z</time>
      </trkpt>
      <trkpt lat="48.58578" lon="1.77877">
        <ele>162</ele>
        <time>2010-05-15T10:06:18Z</time>
      </trkpt>
      <trkpt lat="48.58576" lon="1.77877">
        <ele>162</ele>
        <time>2010-05-15T10:06:19Z</time>
      </trkpt>
      <trkpt lat="48.58575" lon="1.77878">
        <ele>162</ele>
        <time>2010-05-15T10:06:20Z</time>
      </trkpt>
      <trkpt lat="48.58573" lon="1.77879">
        <ele>162</ele>
        <time>2010-05-15T10:06:21Z</time>
      </trkpt>
      <trkpt lat="48.58572" lon="1.77879">
        <ele>162</ele>
        <time>2010-05-15T10:06:22Z</time>
      </trkpt>
      <trkpt lat="48.5857" lon="1.7788">
        <ele>162</ele>
        <time>2010-05-15T10:06:23Z</time>
      </trkpt>
      <trkpt lat="48.58569" lon="1.7788">
        <ele>162</ele>
        <time>2010-05-15T10:06:24Z</time>
      </trkpt>
      <trkpt lat="48.58567" lon="1.77881">
        <ele>162</ele>
        <time>2010-05-15T10:06:25Z</time>
      </trkpt>
      <trkpt lat="48.58565" lon="1.77882">
        <ele>161</ele>
        <time>2010-05-15T10:06:26Z</time>
      </trkpt>
      <trkpt lat="48.58564" lon="1.77882">
        <ele>161</ele>
        <time>2010-05-15T10:06:27Z</time>
      </trkpt>
      <trkpt lat="48.58562" lon="1.77883">
        <ele>161</ele>
        <time>2010-05-15T10:06:28Z</time>
      </trkpt>
      <trkpt lat="48.58561" lon="1.77883">
        <ele>161</ele>
        <time>2010-05-15T10:06:29Z</time>
      </trkpt>
      <trkpt lat="48.58559" lon="1.77884">
        <ele>161</ele>
        <time>2010-05-15T10:06:30Z</time>
      </trkpt>
      <trkpt lat="48.58557" lon="1.77885">
        <ele>161</ele>
        <time>2010-05-15T10:06:31Z</time>
      </trkpt>
      <trkpt lat="48.58556" lon="1.77886">
        <ele>161</ele>
        <time>2010-05-15T10:06:32Z</time>
      </trkpt>
      <trkpt lat="48.58554" lon="1.77886">
        <ele>161</ele>
        <time>2010-05-15T10:06:33Z</time>
      </trkpt>
      <trkpt lat="48.58552" lon="1.77887">
        <ele>161</ele>
        <time>2010-05-15T10:06:34Z</time>
      </trkpt>
      <trkpt lat="48.58551" lon="1.77887">
        <ele>161</ele>
        <time>2010-05-15T10:06:35Z</time>
      </trkpt>
      <trkpt lat="48.58549" lon="1.77888">
        <ele>161</ele>
        <time>2010-05-15T10:06:36Z</time>
      </trkpt>
      <trkpt lat="48.58548" lon="1.77889">
        <ele>161</ele>
        <time>2010-05-15T10:06:37Z</time>
      </trkpt>
      <trkpt lat="48.58546" lon="1.7789">
        <ele>161</ele>
        <time>2010-05-15T10:06:38Z</time>
      </trkpt>
      <trkpt lat="48.58544" lon="1.77891">
        <ele>160</ele>
        <time>2010-05-15T10:06:39Z</time>
      </trkpt>
      <trkpt lat="48.58543" lon="1.77892">
        <ele>160</ele>
        <time>2010-05-15T10:06:40Z</time>
      </trkpt>
      <trkpt lat="48.58541" lon="1.77892">
        <ele>160</ele>
        <time>2010-05-15T10:06:41Z</time>
      </trkpt>
      <trkpt lat="48.5854" lon="1.77893">
        <ele>160</ele>
        <time>2010-05-15T10:06:42Z</time>
      </trkpt>
      <trkpt lat="48.58538" lon="1.77894">
        <ele>160</ele>
        <time>2010-05-15T10:06:43Z</time>
      </trkpt>
      <trkpt lat="48.58536" lon="1.77895">
        <ele>160</ele>
        <time>2010-05-15T10:06:44Z</time>
      </trkpt>
      <trkpt lat="48.58534" lon="1.77896">
        <ele>160</ele>
        <time>2010-05-15T10:06:45Z</time>
      </trkpt>
      <trkpt lat="48.58533" lon="1.77897">
        <ele>160</ele>
        <time>2010-05-15T10:06:46Z</time>
      </trkpt>
      <trkpt lat="48.58531" lon="1.77898">
        <ele>160</ele>
        <time>2010-05-15T10:06:47Z</time>
      </trkpt>
      <trkpt lat="48.5853" lon="1.77899">
        <ele>160</ele>
        <time>2010-05-15T10:06:48Z</time>
      </trkpt>
      <trkpt lat="48.58528" lon="1.779">
        <ele>160</ele>
        <time>2010-05-15T10:06:49Z</time>
      </trkpt>
      <trkpt lat="48.58527" lon="1.77901">
        <ele>160</ele>
        <time>2010-05-15T10:06:50Z</time>
      </trkpt>
      <trkpt lat="48.58525" lon="1.77901">
        <ele>160</ele>
        <time>2010-05-15T10:06:51Z</time>
      </trkpt>
      <trkpt lat="48.58524" lon="1.77901">
        <ele>160</ele>
        <time>2010-05-15T10:06:52Z</time>
      </trkpt>
      <trkpt lat="48.58522" lon="1.77902">
        <ele>160</ele>
        <time>2010-05-15T10:06:53Z</time>
      </trkpt>
      <trkpt lat="48.58521" lon="1.77902">
        <ele>160</ele>
        <time>2010-05-15T10:06:54Z</time>
      </trkpt>
      <trkpt lat="48.58519" lon="1.77902">
        <ele>160</ele>
        <time>2010-05-15T10:06:55Z</time>
      </trkpt>
      <trkpt lat="48.58517" lon="1.77903">
        <ele>160</ele>
        <time>2010-05-15T10:06:56Z</time>
      </trkpt>
      <trkpt lat="48.58516" lon="1.77903">
        <ele>160</ele>
        <time>2010-05-15T10:06:57Z</time>
      </trkpt>
      <trkpt lat="48.58514" lon="1.77904">
        <ele>160</ele>
        <time>2010-05-15T10:06:58Z</time>
      </trkpt>
      <trkpt lat="48.58513" lon="1.77905">
        <ele>160</ele>
        <time>2010-05-15T10:06:59Z</time>
      </trkpt>
      <trkpt lat="48.58511" lon="1.77906">
        <ele>160</ele>
        <time>2010-05-15T10:07:00Z</time>
      </trkpt>
      <trkpt lat="48.58509" lon="1.77907">
        <ele>160</ele>
        <time>2010-05-15T10:07:01Z</time>
      </trkpt>
      <trkpt lat="48.58508" lon="1.77908">
        <ele>160</ele>
        <time>2010-05-15T10:07:02Z</time>
      </trkpt>
      <trkpt lat="48.58506" lon="1.77908">
        <ele>160</ele>
        <time>2010-05-15T10:07:03Z</time>
      </trkpt>
      <trkpt lat="48.58504" lon="1.77909">
        <ele>160</ele>
        <time>2010-05-15T10:07:04Z</time>
      </trkpt>
      <trkpt lat="48.58503" lon="1.7791">
        <ele>160</ele>
        <time>2010-05-15T10:07:05Z</time>
      </trkpt>
      <trkpt lat="48.58501" lon="1.77911">
        <ele>160</ele>
        <time>2010-05-15T10:07:06Z</time>
      </trkpt>
      <trkpt lat="48.58499" lon="1.77912">
        <ele>160</ele>
        <time>2010-05-15T10:07:07Z</time>
      </trkpt>
      <trkpt lat="48.58498" lon="1.77912">
        <ele>160</ele>
        <time>2010-05-15T10:07:08Z</time>
      </trkpt>
      <trkpt lat="48.58496" lon="1.77913">
        <ele>160</ele>
        <time>2010-05-15T10:07:09Z</time>
      </trkpt>
      <trkpt lat="48.58495" lon="1.77914">
        <ele>160</ele>
        <time>2010-05-15T10:07:10Z</time>
      </trkpt>
      <trkpt lat="48.58493" lon="1.77915">
        <ele>160</ele>
        <time>2010-05-15T10:07:11Z</time>
      </trkpt>
      <trkpt lat="48.58492" lon="1.77916">
        <ele>160</ele>
        <time>2010-05-15T10:07:12Z</time>
      </trkpt>
      <trkpt lat="48.5849" lon="1.77917">
        <ele>160</ele>
        <time>2010-05-15T10:07:13Z</time>
      </trkpt>
      <trkpt lat="48.58489" lon="1.77918">
        <ele>160</ele>
        <time>2010-05-15T10:07:14Z</time>
      </trkpt>
      <trkpt lat="48.58487" lon="1.77919">
        <ele>160</ele>
        <time>2010-05-15T10:07:15Z</time>
      </trkpt>
      <trkpt lat="48.58486" lon="1.77919">
        <ele>160</ele>
        <time>2010-05-15T10:07:16Z</time>
      </trkpt>
      <trkpt lat="48.58484" lon="1.7792">
        <ele>160</ele>
        <time>2010-05-15T10:07:17Z</time>
      </trkpt>
      <trkpt lat="48.58482" lon="1.77921">
        <ele>160</ele>
        <time>2010-05-15T10:07:18Z</time>
      </trkpt>
      <trkpt lat="48.58481" lon="1.77922">
        <ele>160</ele>
        <time>2010-05-15T10:07:19Z</time>
      </trkpt>
      <trkpt lat="48.58479" lon="1.77923">
        <ele>160</ele>
        <time>2010-05-15T10:07:20Z</time>
      </trkpt>
      <trkpt lat="48.58478" lon="1.77924">
        <ele>160</ele>
        <time>2010-05-15T10:07:21Z</time>
      </trkpt>
      <trkpt lat="48.58476" lon="1.77925">
        <ele>160</ele>
        <time>2010-05-15T10:07:22Z</time>
      </trkpt>
      <trkpt lat="48.58475" lon="1.77926">
        <ele>160</ele>
        <time>2010-05-15T10:07:23Z</time>
      </trkpt>
      <trkpt lat="48.58473" lon="1.77926">
        <ele>160</ele>
        <time>2010-05-15T10:07:24Z</time>
      </trkpt>
      <trkpt lat="48.58472" lon="1.77927">
        <ele>160</ele>
        <time>2010-05-15T10:07:25Z</time>
      </trkpt>
      <trkpt lat="48.5847" lon="1.77928">
        <ele>160</ele>
        <time>2010-05-15T10:07:26Z</time>
      </trkpt>
      <trkpt lat="48.58469" lon="1.77929">
        <ele>160</ele>
        <time>2010-05-15T10:07:27Z</time>
      </trkpt>
      <trkpt lat="48.58467" lon="1.7793">
        <ele>160</ele>
        <time>2010-05-15T10:07:28Z</time>
      </trkpt>
      <trkpt lat="48.58466" lon="1.77931">
        <ele>160</ele>
        <time>2010-05-15T10:07:29Z</time>
      </trkpt>
      <trkpt lat="48.58464" lon="1.77932">
        <ele>160</ele>
        <time>2010-05-15T10:07:30Z</time>
      </trkpt>
      <trkpt lat="48.58462" lon="1.77932">
        <ele>160</ele>
        <time>2010-05-15T10:07:31Z</time>
      </trkpt>
      <trkpt lat="48.58461" lon="1.77933">
        <ele>160</ele>
        <time>2010-05-15T10:07:32Z</time>
      </trkpt>
      <trkpt lat="48.58459" lon="1.77934">
        <ele>160</ele>
        <time>2010-05-15T10:07:33Z</time>
      </trkpt>
      <trkpt lat="48.58458" lon="1.77935">
        <ele>160</ele>
        <time>2010-05-15T10:07:34Z</time>
      </trkpt>
      <trkpt lat="48.58456" lon="1.77935">
        <ele>160</ele>
        <time>2010-05-15T10:07:35Z</time>
      </trkpt>
      <trkpt lat="48.58455" lon="1.77936">
        <ele>160</ele>
        <time>2010-05-15T10:07:36Z</time>
      </trkpt>
      <trkpt lat="48.58453" lon="1.77937">
        <ele>160</ele>
        <time>2010-05-15T10:07:37Z</time>
      </trkpt>
      <trkpt lat="48.58452" lon="1.77938">
        <ele>160</ele>
        <time>2010-05-15T10:07:38Z</time>
      </trkpt>
      <trkpt lat="48.5845" lon="1.77939">
        <ele>160</ele>
        <time>2010-05-15T10:07:39Z</time>
      </trkpt>
      <trkpt lat="48.58449" lon="1.7794">
        <ele>160</ele>
        <time>2010-05-15T10:07:40Z</time>
      </trkpt>
      <trkpt lat="48.58447" lon="1.77941">
        <ele>159</ele>
        <time>2010-05-15T10:07:41Z</time>
      </trkpt>
      <trkpt lat="48.58446" lon="1.77942">
        <ele>159</ele>
        <time>2010-05-15T10:07:42Z</time>
      </trkpt>
      <trkpt lat="48.58444" lon="1.77943">
        <ele>159</ele>
        <time>2010-05-15T10:07:43Z</time>
      </trkpt>
      <trkpt lat="48.58443" lon="1.77944">
        <ele>159</ele>
        <time>2010-05-15T10:07:44Z</time>
      </trkpt>
      <trkpt lat="48.58442" lon="1.77944">
        <ele>159</ele>
        <time>2010-05-15T10:07:45Z</time>
      </trkpt>
      <trkpt lat="48.5844" lon="1.77945">
        <ele>159</ele>
        <time>2010-05-15T10:07:46Z</time>
      </trkpt>
      <trkpt lat="48.58439" lon="1.77946">
        <ele>159</ele>
        <time>2010-05-15T10:07:47Z</time>
      </trkpt>
      <trkpt lat="48.58437" lon="1.77947">
        <ele>159</ele>
        <time>2010-05-15T10:07:48Z</time>
      </trkpt>
      <trkpt lat="48.58436" lon="1.77948">
        <ele>159</ele>
        <time>2010-05-15T10:07:49Z</time>
      </trkpt>
      <trkpt lat="48.58434" lon="1.77949">
        <ele>159</ele>
        <time>2010-05-15T10:07:50Z</time>
      </trkpt>
      <trkpt lat="48.58433" lon="1.7795">
        <ele>159</ele>
        <time>2010-05-15T10:07:51Z</time>
      </trkpt>
      <trkpt lat="48.58431" lon="1.77951">
        <ele>159</ele>
        <time>2010-05-15T10:07:52Z</time>
      </trkpt>
      <trkpt lat="48.5843" lon="1.77953">
        <ele>159</ele>
        <time>2010-05-15T10:07:53Z</time>
      </trkpt>
      <trkpt lat="48.58428" lon="1.77954">
        <ele>159</ele>
        <time>2010-05-15T10:07:54Z</time>
      </trkpt>
      <trkpt lat="48.58427" lon="1.77955">
        <ele>159</ele>
        <time>2010-05-15T10:07:55Z</time>
      </trkpt>
      <trkpt lat="48.58425" lon="1.77956">
        <ele>159</ele>
        <time>2010-05-15T10:07:56Z</time>
      </trkpt>
      <trkpt lat="48.58424" lon="1.77957">
        <ele>159</ele>
        <time>2010-05-15T10:07:57Z</time>
      </trkpt>
      <trkpt lat="48.58422" lon="1.77958">
        <ele>159</ele>
        <time>2010-05-15T10:07:58Z</time>
      </trkpt>
      <trkpt lat="48.58421" lon="1.77959">
        <ele>159</ele>
        <time>2010-05-15T10:07:59Z</time>
      </trkpt>
      <trkpt lat="48.58419" lon="1.7796">
        <ele>158</ele>
        <time>2010-05-15T10:08:00Z</time>
      </trkpt>
      <trkpt lat="48.58418" lon="1.77961">
        <ele>158</ele>
        <time>2010-05-15T10:08:01Z</time>
      </trkpt>
      <trkpt lat="48.58416" lon="1.77962">
        <ele>158</ele>
        <time>2010-05-15T10:08:02Z</time>
      </trkpt>
      <trkpt lat="48.58415" lon="1.77962">
        <ele>158</ele>
        <time>2010-05-15T10:08:03Z</time>
      </trkpt>
      <trkpt lat="48.58413" lon="1.77963">
        <ele>158</ele>
        <time>2010-05-15T10:08:04Z</time>
      </trkpt>
      <trkpt lat="48.58412" lon="1.77964">
        <ele>158</ele>
        <time>2010-05-15T10:08:05Z</time>
      </trkpt>
      <trkpt lat="48.5841" lon="1.77965">
        <ele>158</ele>
        <time>2010-05-15T10:08:06Z</time>
      </trkpt>
      <trkpt lat="48.58408" lon="1.77966">
        <ele>158</ele>
        <time>2010-05-15T10:08:07Z</time>
      </trkpt>
      <trkpt lat="48.58407" lon="1.77966">
        <ele>158</ele>
        <time>2010-05-15T10:08:08Z</time>
      </trkpt>
      <trkpt lat="48.58405" lon="1.77967">
        <ele>158</ele>
        <time>2010-05-15T10:08:09Z</time>
      </trkpt>
      <trkpt lat="48.58404" lon="1.77968">
        <ele>158</ele>
        <time>2010-05-15T10:08:10Z</time>
      </trkpt>
      <trkpt lat="48.58402" lon="1.77969">
        <ele>158</ele>
        <time>2010-05-15T10:08:11Z</time>
      </trkpt>
      <trkpt lat="48.58401" lon="1.7797">
        <ele>158</ele>
        <time>2010-05-15T10:08:12Z</time>
      </trkpt>
      <trkpt lat="48.58399" lon="1.77971">
        <ele>158</ele>
        <time>2010-05-15T10:08:13Z</time>
      </trkpt>
      <trkpt lat="48.58397" lon="1.77972">
        <ele>158</ele>
        <time>2010-05-15T10:08:14Z</time>
      </trkpt>
      <trkpt lat="48.58396" lon="1.77973">
        <ele>158</ele>
        <time>2010-05-15T10:08:15Z</time>
      </trkpt>
      <trkpt lat="48.58394" lon="1.77974">
        <ele>158</ele>
        <time>2010-05-15T10:08:16Z</time>
      </trkpt>
      <trkpt lat="48.58393" lon="1.77975">
        <ele>158</ele>
        <time>2010-05-15T10:08:17Z</time>
      </trkpt>
      <trkpt lat="48.58392" lon="1.77977">
        <ele>158</ele>
        <time>2010-05-15T10:08:18Z</time>
      </trkpt>
      <trkpt lat="48.5839" lon="1.77978">
        <ele>158</ele>
        <time>2010-05-15T10:08:19Z</time>
      </trkpt>
      <trkpt lat="48.58389" lon="1.7798">
        <ele>157</ele>
        <time>2010-05-15T10:08:20Z</time>
      </trkpt>
      <trkpt lat="48.58388" lon="1.77982">
        <ele>157</ele>
        <time>2010-05-15T10:08:21Z</time>
      </trkpt>
      <trkpt lat="48.58387" lon="1.77984">
        <ele>157</ele>
        <time>2010-05-15T10:08:22Z</time>
      </trkpt>
      <trkpt lat="48.58387" lon="1.77986">
        <ele>157</ele>
        <time>2010-05-15T10:08:23Z</time>
      </trkpt>
      <trkpt lat="48.58386" lon="1.77988">
        <ele>157</ele>
        <time>2010-05-15T10:08:24Z</time>
      </trkpt>
      <trkpt lat="48.58386" lon="1.7799">
        <ele>157</ele>
        <time>2010-05-15T10:08:25Z</time>
      </trkpt>
      <trkpt lat="48.58385" lon="1.77993">
        <ele>157</ele>
        <time>2010-05-15T10:08:26Z</time>
      </trkpt>
      <trkpt lat="48.58385" lon="1.77995">
        <ele>157</ele>
        <time>2010-05-15T10:08:27Z</time>
      </trkpt>
      <trkpt lat="48.58385" lon="1.77997">
        <ele>157</ele>
        <time>2010-05-15T10:08:28Z</time>
      </trkpt>
      <trkpt lat="48.58384" lon="1.78">
        <ele>157</ele>
        <time>2010-05-15T10:08:29Z</time>
      </trkpt>
      <trkpt lat="48.58384" lon="1.78003">
        <ele>157</ele>
        <time>2010-05-15T10:08:30Z</time>
      </trkpt>
      <trkpt lat="48.58383" lon="1.78008">
        <ele>157</ele>
        <time>2010-05-15T10:08:31Z</time>
      </trkpt>
      <trkpt lat="48.58382" lon="1.78014">
        <ele>157</ele>
        <time>2010-05-15T10:08:32Z</time>
      </trkpt>
      <trkpt lat="48.58382" lon="1.7802">
        <ele>157</ele>
        <time>2010-05-15T10:08:33Z</time>
      </trkpt>
      <trkpt lat="48.58381" lon="1.78025">
        <ele>157</ele>
        <time>2010-05-15T10:08:34Z</time>
      </trkpt>
      <trkpt lat="48.5838" lon="1.78031">
        <ele>156</ele>
        <time>2010-05-15T10:08:35Z</time>
      </trkpt>
      <trkpt lat="48.58378" lon="1.78036">
        <ele>156</ele>
        <time>2010-05-15T10:08:36Z</time>
      </trkpt>
      <trkpt lat="48.58377" lon="1.78041">
        <ele>156</ele>
        <time>2010-05-15T10:08:37Z</time>
      </trkpt>
      <trkpt lat="48.58377" lon="1.78045">
        <ele>156</ele>
        <time>2010-05-15T10:08:38Z</time>
      </trkpt>
      <trkpt lat="48.58376" lon="1.78048">
        <ele>156</ele>
        <time>2010-05-15T10:08:39Z</time>
      </trkpt>
      <trkpt lat="48.58375" lon="1.78051">
        <ele>156</ele>
        <time>2010-05-15T10:08:40Z</time>
      </trkpt>
      <trkpt lat="48.58374" lon="1.78054">
        <ele>156</ele>
        <time>2010-05-15T10:08:41Z</time>
      </trkpt>
      <trkpt lat="48.58374" lon="1.78056">
        <ele>156</ele>
        <time>2010-05-15T10:08:42Z</time>
      </trkpt>
      <trkpt lat="48.58373" lon="1.78059">
        <ele>156</ele>
        <time>2010-05-15T10:08:43Z</time>
      </trkpt>
      <trkpt lat="48.58373" lon="1.78061">
        <ele>156</ele>
        <time>2010-05-15T10:08:44Z</time>
      </trkpt>
      <trkpt lat="48.58372" lon="1.78063">
        <ele>156</ele>
        <time>2010-05-15T10:08:45Z</time>
      </trkpt>
      <trkpt lat="48.58372" lon="1.78066">
        <ele>155</ele>
        <time>2010-05-15T10:08:46Z</time>
      </trkpt>
      <trkpt lat="48.58371" lon="1.78068">
        <ele>155</ele>
        <time>2010-05-15T10:08:47Z</time>
      </trkpt>
      <trkpt lat="48.58371" lon="1.7807">
        <ele>155</ele>
        <time>2010-05-15T10:08:48Z</time>
      </trkpt>
      <trkpt lat="48.5837" lon="1.78073">
        <ele>155</ele>
        <time>2010-05-15T10:08:49Z</time>
      </trkpt>
      <trkpt lat="48.5837" lon="1.78075">
        <ele>155</ele>
        <time>2010-05-15T10:08:50Z</time>
      </trkpt>
      <trkpt lat="48.58369" lon="1.78078">
        <ele>155</ele>
        <time>2010-05-15T10:08:51Z</time>
      </trkpt>
      <trkpt lat="48.58369" lon="1.7808">
        <ele>155</ele>
        <time>2010-05-15T10:08:52Z</time>
      </trkpt>
      <trkpt lat="48.58368" lon="1.78082">
        <ele>155</ele>
        <time>2010-05-15T10:08:53Z</time>
      </trkpt>
      <trkpt lat="48.58367" lon="1.78084">
        <ele>155</ele>
        <time>2010-05-15T10:08:54Z</time>
      </trkpt>
      <trkpt lat="48.58367" lon="1.78086">
        <ele>155</ele>
        <time>2010-05-15T10:08:55Z</time>
      </trkpt>
      <trkpt lat="48.58366" lon="1.78089">
        <ele>155</ele>
        <time>2010-05-15T10:08:56Z</time>
      </trkpt>
      <trkpt lat="48.58365" lon="1.78091">
        <ele>155</ele>
        <time>2010-05-15T10:08:57Z</time>
      </trkpt>
      <trkpt lat="48.58364" lon="1.78094">
        <ele>155</ele>
        <time>2010-05-15T10:08:58Z</time>
      </trkpt>
      <trkpt lat="48.58363" lon="1.78096">
        <ele>155</ele>
        <time>2010-05-15T10:08:59Z</time>
      </trkpt>
      <trkpt lat="48.58363" lon="1.78099">
        <ele>155</ele>
        <time>2010-05-15T10:09:00Z</time>
      </trkpt>
      <trkpt lat="48.58363" lon="1.78101">
        <ele>155</ele>
        <time>2010-05-15T10:09:01Z</time>
      </trkpt>
      <trkpt lat="48.58362" lon="1.78103">
        <ele>155</ele>
        <time>2010-05-15T10:09:02Z</time>
      </trkpt>
      <trkpt lat="48.58362" lon="1.78105">
        <ele>155</ele>
        <time>2010-05-15T10:09:03Z</time>
      </trkpt>
      <trkpt lat="48.58361" lon="1.78108">
        <ele>155</ele>
        <time>2010-05-15T10:09:04Z</time>
      </trkpt>
      <trkpt lat="48.58361" lon="1.7811">
        <ele>155</ele>
        <time>2010-05-15T10:09:05Z</time>
      </trkpt>
      <trkpt lat="48.5836" lon="1.78112">
        <ele>155</ele>
        <time>2010-05-15T10:09:06Z</time>
      </trkpt>
      <trkpt lat="48.5836" lon="1.78114">
        <ele>155</ele>
        <time>2010-05-15T10:09:07Z</time>
      </trkpt>
      <trkpt lat="48.58359" lon="1.78117">
        <ele>154</ele>
        <time>2010-05-15T10:09:08Z</time>
      </trkpt>
      <trkpt lat="48.58359" lon="1.78119">
        <ele>154</ele>
        <time>2010-05-15T10:09:09Z</time>
      </trkpt>
      <trkpt lat="48.58359" lon="1.78121">
        <ele>154</ele>
        <time>2010-05-15T10:09:10Z</time>
      </trkpt>
      <trkpt lat="48.58358" lon="1.78124">
        <ele>154</ele>
        <time>2010-05-15T10:09:11Z</time>
      </trkpt>
      <trkpt lat="48.58358" lon="1.78126">
        <ele>154</ele>
        <time>2010-05-15T10:09:12Z</time>
      </trkpt>
      <trkpt lat="48.58357" lon="1.78128">
        <ele>154</ele>
        <time>2010-05-15T10:09:13Z</time>
      </trkpt>
      <trkpt lat="48.58357" lon="1.78131">
        <ele>154</ele>
        <time>2010-05-15T10:09:14Z</time>
      </trkpt>
      <trkpt lat="48.58356" lon="1.78134">
        <ele>154</ele>
        <time>2010-05-15T10:09:15Z</time>
      </trkpt>
      <trkpt lat="48.58356" lon="1.78138">
        <ele>154</ele>
        <time>2010-05-15T10:09:16Z</time>
      </trkpt>
      <trkpt lat="48.58355" lon="1.78142">
        <ele>154</ele>
        <time>2010-05-15T10:09:17Z</time>
      </trkpt>
      <trkpt lat="48.58354" lon="1.78146">
        <ele>154</ele>
        <time>2010-05-15T10:09:18Z</time>
      </trkpt>
      <trkpt lat="48.58353" lon="1.7815">
        <ele>154</ele>
        <time>2010-05-15T10:09:19Z</time>
      </trkpt>
      <trkpt lat="48.58353" lon="1.78153">
        <ele>154</ele>
        <time>2010-05-15T10:09:20Z</time>
      </trkpt>
      <trkpt lat="48.58352" lon="1.78155">
        <ele>154</ele>
        <time>2010-05-15T10:09:21Z</time>
      </trkpt>
      <trkpt lat="48.58352" lon="1.78157">
        <ele>154</ele>
        <time>2010-05-15T10:09:22Z</time>
      </trkpt>
      <trkpt lat="48.58351" lon="1.78159">
        <ele>154</ele>
        <time>2010-05-15T10:09:23Z</time>
      </trkpt>
      <trkpt lat="48.58351" lon="1.78161">
        <ele>154</ele>
        <time>2010-05-15T10:09:24Z</time>
      </trkpt>
      <trkpt lat="48.5835" lon="1.78164">
        <ele>154</ele>
        <time>2010-05-15T10:09:25Z</time>
      </trkpt>
      <trkpt lat="48.5835" lon="1.78166">
        <ele>154</ele>
        <time>2010-05-15T10:09:26Z</time>
      </trkpt>
      <trkpt lat="48.58349" lon="1.78169">
        <ele>154</ele>
        <time>2010-05-15T10:09:27Z</time>
      </trkpt>
      <trkpt lat="48.58349" lon="1.78172">
        <ele>154</ele>
        <time>2010-05-15T10:09:28Z</time>
      </trkpt>
      <trkpt lat="48.58348" lon="1.78174">
        <ele>154</ele>
        <time>2010-05-15T10:09:29Z</time>
      </trkpt>
      <trkpt lat="48.58347" lon="1.78176">
        <ele>154</ele>
        <time>2010-05-15T10:09:30Z</time>
      </trkpt>
      <trkpt lat="48.58347" lon="1.78179">
        <ele>154</ele>
        <time>2010-05-15T10:09:31Z</time>
      </trkpt>
      <trkpt lat="48.58346" lon="1.78181">
        <ele>154</ele>
        <time>2010-05-15T10:09:32Z</time>
      </trkpt>
      <trkpt lat="48.58346" lon="1.78184">
        <ele>154</ele>
        <time>2010-05-15T10:09:33Z</time>
      </trkpt>
      <trkpt lat="48.58345" lon="1.78186">
        <ele>154</ele>
        <time>2010-05-15T10:09:34Z</time>
      </trkpt>
      <trkpt lat="48.58344" lon="1.78187">
        <ele>154</ele>
        <time>2010-05-15T10:09:36Z</time>
      </trkpt>
      <trkpt lat="48.58342" lon="1.78185">
        <ele>154</ele>
        <time>2010-05-15T10:09:46Z</time>
      </trkpt>
      <trkpt lat="48.58341" lon="1.78183">
        <ele>154</ele>
        <time>2010-05-15T10:09:47Z</time>
      </trkpt>
      <trkpt lat="48.5834" lon="1.78182">
        <ele>154</ele>
        <time>2010-05-15T10:09:48Z</time>
      </trkpt>
      <trkpt lat="48.58338" lon="1.7818">
        <ele>154</ele>
        <time>2010-05-15T10:09:50Z</time>
      </trkpt>
      <trkpt lat="48.58337" lon="1.78178">
        <ele>154</ele>
        <time>2010-05-15T10:09:51Z</time>
      </trkpt>
      <trkpt lat="48.58336" lon="1.78176">
        <ele>154</ele>
        <time>2010-05-15T10:09:52Z</time>
      </trkpt>
      <trkpt lat="48.58335" lon="1.78174">
        <ele>154</ele>
        <time>2010-05-15T10:09:53Z</time>
      </trkpt>
      <trkpt lat="48.58334" lon="1.78172">
        <ele>154</ele>
        <time>2010-05-15T10:09:54Z</time>
      </trkpt>
      <trkpt lat="48.58332" lon="1.7817">
        <ele>154</ele>
        <time>2010-05-15T10:09:55Z</time>
      </trkpt>
      <trkpt lat="48.58331" lon="1.78168">
        <ele>154</ele>
        <time>2010-05-15T10:09:56Z</time>
      </trkpt>
      <trkpt lat="48.5833" lon="1.78166">
        <ele>154</ele>
        <time>2010-05-15T10:09:57Z</time>
      </trkpt>
      <trkpt lat="48.58329" lon="1.78164">
        <ele>154</ele>
        <time>2010-05-15T10:09:58Z</time>
      </trkpt>
      <trkpt lat="48.58328" lon="1.78162">
        <ele>154</ele>
        <time>2010-05-15T10:09:59Z</time>
      </trkpt>
      <trkpt lat="48.58327" lon="1.7816">
        <ele>154</ele>
        <time>2010-05-15T10:10:00Z</time>
      </trkpt>
      <trkpt lat="48.58326" lon="1.78159">
        <ele>154</ele>
        <time>2010-05-15T10:10:01Z</time>
      </trkpt>
      <trkpt lat="48.58325" lon="1.78157">
        <ele>154</ele>
        <time>2010-05-15T10:10:02Z</time>
      </trkpt>
      <trkpt lat="48.58323" lon="1.78156">
        <ele>154</ele>
        <time>2010-05-15T10:10:03Z</time>
      </trkpt>
      <trkpt lat="48.58322" lon="1.78154">
        <ele>154</ele>
        <time>2010-05-15T10:10:04Z</time>
      </trkpt>
      <trkpt lat="48.5832" lon="1.78151">
        <ele>154</ele>
        <time>2010-05-15T10:10:06Z</time>
      </trkpt>
      <trkpt lat="48.58318" lon="1.78149">
        <ele>154</ele>
        <time>2010-05-15T10:10:08Z</time>
      </trkpt>
      <trkpt lat="48.58317" lon="1.78148">
        <ele>154</ele>
        <time>2010-05-15T10:10:09Z</time>
      </trkpt>
      <trkpt lat="48.58316" lon="1.78146">
        <ele>154</ele>
        <time>2010-05-15T10:10:10Z</time>
      </trkpt>
      <trkpt lat="48.58315" lon="1.78145">
        <ele>153</ele>
        <time>2010-05-15T10:10:11Z</time>
      </trkpt>
      <trkpt lat="48.58314" lon="1.78143">
        <ele>153</ele>
        <time>2010-05-15T10:10:12Z</time>
      </trkpt>
      <trkpt lat="48.58312" lon="1.78142">
        <ele>153</ele>
        <time>2010-05-15T10:10:13Z</time>
      </trkpt>
      <trkpt lat="48.5831" lon="1.78139">
        <ele>153</ele>
        <time>2010-05-15T10:10:15Z</time>
      </trkpt>
      <trkpt lat="48.58309" lon="1.78137">
        <ele>152</ele>
        <time>2010-05-15T10:10:16Z</time>
      </trkpt>
      <trkpt lat="48.58308" lon="1.78135">
        <ele>152</ele>
        <time>2010-05-15T10:10:17Z</time>
      </trkpt>
      <trkpt lat="48.58307" lon="1.78132">
        <ele>151</ele>
        <time>2010-05-15T10:10:19Z</time>
      </trkpt>
      <trkpt lat="48.58306" lon="1.7813">
        <ele>151</ele>
        <time>2010-05-15T10:10:20Z</time>
      </trkpt>
      <trkpt lat="48.58306" lon="1.78128">
        <ele>151</ele>
        <time>2010-05-15T10:10:21Z</time>
      </trkpt>
      <trkpt lat="48.58305" lon="1.78125">
        <ele>150</ele>
        <time>2010-05-15T10:10:22Z</time>
      </trkpt>
      <trkpt lat="48.58305" lon="1.78124">
        <ele>150</ele>
        <time>2010-05-15T10:10:23Z</time>
      </trkpt>
      <trkpt lat="48.58304" lon="1.78122">
        <ele>149</ele>
        <time>2010-05-15T10:10:24Z</time>
      </trkpt>
      <trkpt lat="48.58304" lon="1.7812">
        <ele>148</ele>
        <time>2010-05-15T10:10:25Z</time>
      </trkpt>
      <trkpt lat="48.58303" lon="1.78117">
        <ele>148</ele>
        <time>2010-05-15T10:10:26Z</time>
      </trkpt>
      <trkpt lat="48.58302" lon="1.78115">
        <ele>147</ele>
        <time>2010-05-15T10:10:27Z</time>
      </trkpt>
      <trkpt lat="48.58301" lon="1.78114">
        <ele>147</ele>
        <time>2010-05-15T10:10:28Z</time>
      </trkpt>
      <trkpt lat="48.58299" lon="1.78113">
        <ele>146</ele>
        <time>2010-05-15T10:10:29Z</time>
      </trkpt>
      <trkpt lat="48.58297" lon="1.78113">
        <ele>146</ele>
        <time>2010-05-15T10:10:30Z</time>
      </trkpt>
      <trkpt lat="48.58294" lon="1.78112">
        <ele>146</ele>
        <time>2010-05-15T10:10:31Z</time>
      </trkpt>
      <trkpt lat="48.58291" lon="1.78111">
        <ele>145</ele>
        <time>2010-05-15T10:10:32Z</time>
      </trkpt>
      <trkpt lat="48.58288" lon="1.7811">
        <ele>144</ele>
        <time>2010-05-15T10:10:33Z</time>
      </trkpt>
      <trkpt lat="48.58286" lon="1.78109">
        <ele>144</ele>
        <time>2010-05-15T10:10:34Z</time>
      </trkpt>
      <trkpt lat="48.58284" lon="1.78108">
        <ele>144</ele>
        <time>2010-05-15T10:10:35Z</time>
      </trkpt>
      <trkpt lat="48.58283" lon="1.78108">
        <ele>144</ele>
        <time>2010-05-15T10:10:36Z</time>
      </trkpt>
      <trkpt lat="48.58282" lon="1.78108">
        <ele>144</ele>
        <time>2010-05-15T10:10:37Z</time>
      </trkpt>
      <trkpt lat="48.5828" lon="1.78107">
        <ele>143</ele>
        <time>2010-05-15T10:10:38Z</time>
      </trkpt>
      <trkpt lat="48.58278" lon="1.78107">
        <ele>143</ele>
        <time>2010-05-15T10:10:39Z</time>
      </trkpt>
      <trkpt lat="48.58277" lon="1.78107">
        <ele>143</ele>
        <time>2010-05-15T10:10:40Z</time>
      </trkpt>
      <trkpt lat="48.58275" lon="1.78106">
        <ele>143</ele>
        <time>2010-05-15T10:10:41Z</time>
      </trkpt>
      <trkpt lat="48.58273" lon="1.78106">
        <ele>143</ele>
        <time>2010-05-15T10:10:42Z</time>
      </trkpt>
      <trkpt lat="48.58272" lon="1.78106">
        <ele>143</ele>
        <time>2010-05-15T10:10:43Z</time>
      </trkpt>
      <trkpt lat="48.5827" lon="1.78106">
        <ele>143</ele>
        <time>2010-05-15T10:10:44Z</time>
      </trkpt>
      <trkpt lat="48.58268" lon="1.78106">
        <ele>143</ele>
        <time>2010-05-15T10:10:45Z</time>
      </trkpt>
      <trkpt lat="48.58267" lon="1.78106">
        <ele>143</ele>
        <time>2010-05-15T10:10:46Z</time>
      </trkpt>
      <trkpt lat="48.58265" lon="1.78106">
        <ele>143</ele>
        <time>2010-05-15T10:10:47Z</time>
      </trkpt>
      <trkpt lat="48.58263" lon="1.78106">
        <ele>143</ele>
        <time>2010-05-15T10:10:48Z</time>
      </trkpt>
      <trkpt lat="48.58262" lon="1.78106">
        <ele>142</ele>
        <time>2010-05-15T10:10:49Z</time>
      </trkpt>
      <trkpt lat="48.5826" lon="1.78106">
        <ele>142</ele>
        <time>2010-05-15T10:10:50Z</time>
      </trkpt>
      <trkpt lat="48.58259" lon="1.78106">
        <ele>142</ele>
        <time>2010-05-15T10:10:51Z</time>
      </trkpt>
      <trkpt lat="48.58258" lon="1.78107">
        <ele>142</ele>
        <time>2010-05-15T10:10:52Z</time>
      </trkpt>
      <trkpt lat="48.58256" lon="1.7811">
        <ele>142</ele>
        <time>2010-05-15T10:10:54Z</time>
      </trkpt>
      <trkpt lat="48.58255" lon="1.78113">
        <ele>142</ele>
        <time>2010-05-15T10:10:55Z</time>
      </trkpt>
      <trkpt lat="48.58254" lon="1.78117">
        <ele>142</ele>
        <time>2010-05-15T10:10:56Z</time>
      </trkpt>
      <trkpt lat="48.58254" lon="1.7812">
        <ele>142</ele>
        <time>2010-05-15T10:10:57Z</time>
      </trkpt>
      <trkpt lat="48.58254" lon="1.78122">
        <ele>142</ele>
        <time>2010-05-15T10:10:58Z</time>
      </trkpt>
      <trkpt lat="48.58254" lon="1.78125">
        <ele>142</ele>
        <time>2010-05-15T10:10:59Z</time>
      </trkpt>
      <trkpt lat="48.58254" lon="1.78126">
        <ele>142</ele>
        <time>2010-05-15T10:11:00Z</time>
      </trkpt>
      <trkpt lat="48.58254" lon="1.7813">
        <ele>142</ele>
        <time>2010-05-15T10:11:02Z</time>
      </trkpt>
      <trkpt lat="48.58255" lon="1.78133">
        <ele>142</ele>
        <time>2010-05-15T10:11:04Z</time>
      </trkpt>
      <trkpt lat="48.58255" lon="1.78136">
        <ele>142</ele>
        <time>2010-05-15T10:11:05Z</time>
      </trkpt>
      <trkpt lat="48.58255" lon="1.78138">
        <ele>142</ele>
        <time>2010-05-15T10:11:06Z</time>
      </trkpt>
      <trkpt lat="48.58255" lon="1.7814">
        <ele>142</ele>
        <time>2010-05-15T10:11:07Z</time>
      </trkpt>
      <trkpt lat="48.58254" lon="1.78142">
        <ele>142</ele>
        <time>2010-05-15T10:11:08Z</time>
      </trkpt>
      <trkpt lat="48.58254" lon="1.78145">
        <ele>142</ele>
        <time>2010-05-15T10:11:09Z</time>
      </trkpt>
      <trkpt lat="48.58254" lon="1.78147">
        <ele>142</ele>
        <time>2010-05-15T10:11:10Z</time>
      </trkpt>
      <trkpt lat="48.58253" lon="1.78149">
        <ele>142</ele>
        <time>2010-05-15T10:11:11Z</time>
      </trkpt>
      <trkpt lat="48.58253" lon="1.78152">
        <ele>142</ele>
        <time>2010-05-15T10:11:12Z</time>
      </trkpt>
      <trkpt lat="48.58252" lon="1.78154">
        <ele>142</ele>
        <time>2010-05-15T10:11:13Z</time>
      </trkpt>
      <trkpt lat="48.58251" lon="1.78158">
        <ele>142</ele>
        <time>2010-05-15T10:11:14Z</time>
      </trkpt>
      <trkpt lat="48.5825" lon="1.7816">
        <ele>142</ele>
        <time>2010-05-15T10:11:15Z</time>
      </trkpt>
      <trkpt lat="48.58249" lon="1.78163">
        <ele>142</ele>
        <time>2010-05-15T10:11:16Z</time>
      </trkpt>
      <trkpt lat="48.58249" lon="1.78165">
        <ele>142</ele>
        <time>2010-05-15T10:11:17Z</time>
      </trkpt>
      <trkpt lat="48.58248" lon="1.78167">
        <ele>142</ele>
        <time>2010-05-15T10:11:18Z</time>
      </trkpt>
      <trkpt lat="48.58247" lon="1.78169">
        <ele>142</ele>
        <time>2010-05-15T10:11:19Z</time>
      </trkpt>
      <trkpt lat="48.58246" lon="1.78171">
        <ele>142</ele>
        <time>2010-05-15T10:11:20Z</time>
      </trkpt>
      <trkpt lat="48.58245" lon="1.78173">
        <ele>142</ele>
        <time>2010-05-15T10:11:21Z</time>
      </trkpt>
      <trkpt lat="48.58243" lon="1.78176">
        <ele>142</ele>
        <time>2010-05-15T10:11:22Z</time>
      </trkpt>
      <trkpt lat="48.58243" lon="1.78178">
        <ele>142</ele>
        <time>2010-05-15T10:11:23Z</time>
      </trkpt>
      <trkpt lat="48.58242" lon="1.7818">
        <ele>142</ele>
        <time>2010-05-15T10:11:24Z</time>
      </trkpt>
      <trkpt lat="48.58241" lon="1.78182">
        <ele>142</ele>
        <time>2010-05-15T10:11:25Z</time>
      </trkpt>
      <trkpt lat="48.5824" lon="1.78184">
        <ele>142</ele>
        <time>2010-05-15T10:11:26Z</time>
      </trkpt>
      <trkpt lat="48.58238" lon="1.78187">
        <ele>143</ele>
        <time>2010-05-15T10:11:28Z</time>
      </trkpt>
      <trkpt lat="48.58237" lon="1.78189">
        <ele>143</ele>
        <time>2010-05-15T10:11:29Z</time>
      </trkpt>
      <trkpt lat="48.58237" lon="1.78191">
        <ele>143</ele>
        <time>2010-05-15T10:11:30Z</time>
      </trkpt>
      <trkpt lat="48.58235" lon="1.78193">
        <ele>143</ele>
        <time>2010-05-15T10:11:31Z</time>
      </trkpt>
      <trkpt lat="48.58235" lon="1.78196">
        <ele>143</ele>
        <time>2010-05-15T10:11:32Z</time>
      </trkpt>
      <trkpt lat="48.58233" lon="1.78198">
        <ele>143</ele>
        <time>2010-05-15T10:11:33Z</time>
      </trkpt>
      <trkpt lat="48.58232" lon="1.78201">
        <ele>143</ele>
        <time>2010-05-15T10:11:34Z</time>
      </trkpt>
      <trkpt lat="48.58232" lon="1.78203">
        <ele>143</ele>
        <time>2010-05-15T10:11:35Z</time>
      </trkpt>
      <trkpt lat="48.58231" lon="1.78204">
        <ele>143</ele>
        <time>2010-05-15T10:11:36Z</time>
      </trkpt>
      <trkpt lat="48.5823" lon="1.78206">
        <ele>143</ele>
        <time>2010-05-15T10:11:37Z</time>
      </trkpt>
      <trkpt lat="48.58229" lon="1.78209">
        <ele>143</ele>
        <time>2010-05-15T10:11:38Z</time>
      </trkpt>
      <trkpt lat="48.58227" lon="1.78212">
        <ele>143</ele>
        <time>2010-05-15T10:11:39Z</time>
      </trkpt>
      <trkpt lat="48.58226" lon="1.78214">
        <ele>143</ele>
        <time>2010-05-15T10:11:40Z</time>
      </trkpt>
      <trkpt lat="48.58225" lon="1.78216">
        <ele>143</ele>
        <time>2010-05-15T10:11:41Z</time>
      </trkpt>
      <trkpt lat="48.58225" lon="1.78218">
        <ele>143</ele>
        <time>2010-05-15T10:11:42Z</time>
      </trkpt>
      <trkpt lat="48.58223" lon="1.7822">
        <ele>143</ele>
        <time>2010-05-15T10:11:43Z</time>
      </trkpt>
      <trkpt lat="48.58222" lon="1.78222">
        <ele>143</ele>
        <time>2010-05-15T10:11:44Z</time>
      </trkpt>
      <trkpt lat="48.58221" lon="1.78225">
        <ele>143</ele>
        <time>2010-05-15T10:11:45Z</time>
      </trkpt>
      <trkpt lat="48.5822" lon="1.78227">
        <ele>143</ele>
        <time>2010-05-15T10:11:46Z</time>
      </trkpt>
      <trkpt lat="48.58219" lon="1.78229">
        <ele>143</ele>
        <time>2010-05-15T10:11:47Z</time>
      </trkpt>
      <trkpt lat="48.58218" lon="1.78232">
        <ele>143</ele>
        <time>2010-05-15T10:11:48Z</time>
      </trkpt>
      <trkpt lat="48.58216" lon="1.78235">
        <ele>143</ele>
        <time>2010-05-15T10:11:49Z</time>
      </trkpt>
      <trkpt lat="48.58215" lon="1.78237">
        <ele>143</ele>
        <time>2010-05-15T10:11:50Z</time>
      </trkpt>
      <trkpt lat="48.58213" lon="1.78241">
        <ele>143</ele>
        <time>2010-05-15T10:11:51Z</time>
      </trkpt>
      <trkpt lat="48.58211" lon="1.78244">
        <ele>143</ele>
        <time>2010-05-15T10:11:52Z</time>
      </trkpt>
      <trkpt lat="48.5821" lon="1.78248">
        <ele>143</ele>
        <time>2010-05-15T10:11:53Z</time>
      </trkpt>
      <trkpt lat="48.58208" lon="1.78251">
        <ele>143</ele>
        <time>2010-05-15T10:11:54Z</time>
      </trkpt>
      <trkpt lat="48.58207" lon="1.78253">
        <ele>143</ele>
        <time>2010-05-15T10:11:55Z</time>
      </trkpt>
      <trkpt lat="48.58206" lon="1.78255">
        <ele>143</ele>
        <time>2010-05-15T10:11:56Z</time>
      </trkpt>
      <trkpt lat="48.58205" lon="1.78257">
        <ele>143</ele>
        <time>2010-05-15T10:11:57Z</time>
      </trkpt>
      <trkpt lat="48.58205" lon="1.78258">
        <ele>143</ele>
        <time>2010-05-15T10:11:58Z</time>
      </trkpt>
      <trkpt lat="48.58204" lon="1.78261">
        <ele>143</ele>
        <time>2010-05-15T10:12:00Z</time>
      </trkpt>
      <trkpt lat="48.58203" lon="1.78263">
        <ele>143</ele>
        <time>2010-05-15T10:12:01Z</time>
      </trkpt>
      <trkpt lat="48.58201" lon="1.78266">
        <ele>143</ele>
        <time>2010-05-15T10:12:02Z</time>
      </trkpt>
      <trkpt lat="48.58199" lon="1.78271">
        <ele>143</ele>
        <time>2010-05-15T10:12:03Z</time>
      </trkpt>
      <trkpt lat="48.58197" lon="1.78276">
        <ele>143</ele>
        <time>2010-05-15T10:12:04Z</time>
      </trkpt>
      <trkpt lat="48.58194" lon="1.78281">
        <ele>143</ele>
        <time>2010-05-15T10:12:05Z</time>
      </trkpt>
      <trkpt lat="48.58192" lon="1.78286">
        <ele>143</ele>
        <time>2010-05-15T10:12:06Z</time>
      </trkpt>
      <trkpt lat="48.58189" lon="1.78291">
        <ele>143</ele>
        <time>2010-05-15T10:12:07Z</time>
      </trkpt>
      <trkpt lat="48.58187" lon="1.78295">
        <ele>143</ele>
        <time>2010-05-15T10:12:08Z</time>
      </trkpt>
      <trkpt lat="48.58185" lon="1.783">
        <ele>143</ele>
        <time>2010-05-15T10:12:09Z</time>
      </trkpt>
      <trkpt lat="48.58182" lon="1.78304">
        <ele>143</ele>
        <time>2010-05-15T10:12:10Z</time>
      </trkpt>
      <trkpt lat="48.5818" lon="1.7831">
        <ele>143</ele>
        <time>2010-05-15T10:12:11Z</time>
      </trkpt>
      <trkpt lat="48.58177" lon="1.78315">
        <ele>143</ele>
        <time>2010-05-15T10:12:12Z</time>
      </trkpt>
      <trkpt lat="48.58175" lon="1.78319">
        <ele>143</ele>
        <time>2010-05-15T10:12:13Z</time>
      </trkpt>
      <trkpt lat="48.58173" lon="1.78324">
        <ele>143</ele>
        <time>2010-05-15T10:12:14Z</time>
      </trkpt>
      <trkpt lat="48.5817" lon="1.78329">
        <ele>143</ele>
        <time>2010-05-15T10:12:15Z</time>
      </trkpt>
      <trkpt lat="48.58167" lon="1.78334">
        <ele>143</ele>
        <time>2010-05-15T10:12:16Z</time>
      </trkpt>
      <trkpt lat="48.58163" lon="1.78339">
        <ele>143</ele>
        <time>2010-05-15T10:12:17Z</time>
      </trkpt>
      <trkpt lat="48.5816" lon="1.78343">
        <ele>143</ele>
        <time>2010-05-15T10:12:18Z</time>
      </trkpt>
      <trkpt lat="48.58157" lon="1.78347">
        <ele>143</ele>
        <time>2010-05-15T10:12:19Z</time>
      </trkpt>
      <trkpt lat="48.58154" lon="1.7835">
        <ele>143</ele>
        <time>2010-05-15T10:12:20Z</time>
      </trkpt>
      <trkpt lat="48.58151" lon="1.78354">
        <ele>143</ele>
        <time>2010-05-15T10:12:21Z</time>
      </trkpt>
      <trkpt lat="48.58148" lon="1.78357">
        <ele>143</ele>
        <time>2010-05-15T10:12:22Z</time>
      </trkpt>
      <trkpt lat="48.58145" lon="1.7836">
        <ele>143</ele>
        <time>2010-05-15T10:12:23Z</time>
      </trkpt>
      <trkpt lat="48.58141" lon="1.78364">
        <ele>143</ele>
        <time>2010-05-15T10:12:24Z</time>
      </trkpt>
      <trkpt lat="48.58137" lon="1.78367">
        <ele>143</ele>
        <time>2010-05-15T10:12:25Z</time>
      </trkpt>
      <trkpt lat="48.58134" lon="1.7837">
        <ele>142</ele>
        <time>2010-05-15T10:12:26Z</time>
      </trkpt>
      <trkpt lat="48.58131" lon="1.78373">
        <ele>142</ele>
        <time>2010-05-15T10:12:27Z</time>
      </trkpt>
      <trkpt lat="48.58128" lon="1.78375">
        <ele>141</ele>
        <time>2010-05-15T10:12:28Z</time>
      </trkpt>
      <trkpt lat="48.58124" lon="1.78378">
        <ele>141</ele>
        <time>2010-05-15T10:12:29Z</time>
      </trkpt>
      <trkpt lat="48.58121" lon="1.7838">
        <ele>141</ele>
        <time>2010-05-15T10:12:30Z</time>
      </trkpt>
      <trkpt lat="48.58118" lon="1.78383">
        <ele>141</ele>
        <time>2010-05-15T10:12:31Z</time>
      </trkpt>
      <trkpt lat="48.58114" lon="1.78386">
        <ele>141</ele>
        <time>2010-05-15T10:12:32Z</time>
      </trkpt>
      <trkpt lat="48.5811" lon="1.78389">
        <ele>141</ele>
        <time>2010-05-15T10:12:33Z</time>
      </trkpt>
      <trkpt lat="48.58106" lon="1.78392">
        <ele>141</ele>
        <time>2010-05-15T10:12:34Z</time>
      </trkpt>
      <trkpt lat="48.58102" lon="1.78396">
        <ele>140</ele>
        <time>2010-05-15T10:12:35Z</time>
      </trkpt>
      <trkpt lat="48.58098" lon="1.78399">
        <ele>140</ele>
        <time>2010-05-15T10:12:36Z</time>
      </trkpt>
      <trkpt lat="48.58095" lon="1.78402">
        <ele>140</ele>
        <time>2010-05-15T10:12:37Z</time>
      </trkpt>
      <trkpt lat="48.58091" lon="1.78405">
        <ele>139</ele>
        <time>2010-05-15T10:12:38Z</time>
      </trkpt>
      <trkpt lat="48.58088" lon="1.78408">
        <ele>139</ele>
        <time>2010-05-15T10:12:39Z</time>
      </trkpt>
      <trkpt lat="48.58084" lon="1.7841">
        <ele>138</ele>
        <time>2010-05-15T10:12:40Z</time>
      </trkpt>
      <trkpt lat="48.5808" lon="1.78413">
        <ele>138</ele>
        <time>2010-05-15T10:12:41Z</time>
      </trkpt>
      <trkpt lat="48.58077" lon="1.78415">
        <ele>138</ele>
        <time>2010-05-15T10:12:42Z</time>
      </trkpt>
      <trkpt lat="48.58073" lon="1.78418">
        <ele>138</ele>
        <time>2010-05-15T10:12:43Z</time>
      </trkpt>
      <trkpt lat="48.5807" lon="1.7842">
        <ele>138</ele>
        <time>2010-05-15T10:12:44Z</time>
      </trkpt>
      <trkpt lat="48.58066" lon="1.78422">
        <ele>138</ele>
        <time>2010-05-15T10:12:45Z</time>
      </trkpt>
      <trkpt lat="48.58062" lon="1.78424">
        <ele>138</ele>
        <time>2010-05-15T10:12:46Z</time>
      </trkpt>
      <trkpt lat="48.58059" lon="1.78425">
        <ele>138</ele>
        <time>2010-05-15T10:12:47Z</time>
      </trkpt>
      <trkpt lat="48.58056" lon="1.78427">
        <ele>138</ele>
        <time>2010-05-15T10:12:48Z</time>
      </trkpt>
      <trkpt lat="48.58052" lon="1.78429">
        <ele>138</ele>
        <time>2010-05-15T10:12:49Z</time>
      </trkpt>
      <trkpt lat="48.58049" lon="1.78432">
        <ele>138</ele>
        <time>2010-05-15T10:12:50Z</time>
      </trkpt>
      <trkpt lat="48.58046" lon="1.78435">
        <ele>138</ele>
        <time>2010-05-15T10:12:51Z</time>
      </trkpt>
      <trkpt lat="48.58042" lon="1.78439">
        <ele>137</ele>
        <time>2010-05-15T10:12:52Z</time>
      </trkpt>
      <trkpt lat="48.58038" lon="1.78444">
        <ele>137</ele>
        <time>2010-05-15T10:12:53Z</time>
      </trkpt>
      <trkpt lat="48.58035" lon="1.78448">
        <ele>137</ele>
        <time>2010-05-15T10:12:54Z</time>
      </trkpt>
      <trkpt lat="48.58033" lon="1.78454">
        <ele>136</ele>
        <time>2010-05-15T10:12:55Z</time>
      </trkpt>
      <trkpt lat="48.58031" lon="1.7846">
        <ele>136</ele>
        <time>2010-05-15T10:12:56Z</time>
      </trkpt>
      <trkpt lat="48.58029" lon="1.78465">
        <ele>136</ele>
        <time>2010-05-15T10:12:57Z</time>
      </trkpt>
      <trkpt lat="48.58026" lon="1.7847">
        <ele>136</ele>
        <time>2010-05-15T10:12:58Z</time>
      </trkpt>
      <trkpt lat="48.58024" lon="1.78475">
        <ele>136</ele>
        <time>2010-05-15T10:12:59Z</time>
      </trkpt>
      <trkpt lat="48.58021" lon="1.78481">
        <ele>136</ele>
        <time>2010-05-15T10:13:00Z</time>
      </trkpt>
      <trkpt lat="48.58018" lon="1.78488">
        <ele>136</ele>
        <time>2010-05-15T10:13:01Z</time>
      </trkpt>
      <trkpt lat="48.58015" lon="1.78494">
        <ele>136</ele>
        <time>2010-05-15T10:13:02Z</time>
      </trkpt>
      <trkpt lat="48.58012" lon="1.78501">
        <ele>136</ele>
        <time>2010-05-15T10:13:03Z</time>
      </trkpt>
      <trkpt lat="48.58008" lon="1.78508">
        <ele>136</ele>
        <time>2010-05-15T10:13:04Z</time>
      </trkpt>
      <trkpt lat="48.58005" lon="1.78513">
        <ele>136</ele>
        <time>2010-05-15T10:13:05Z</time>
      </trkpt>
      <trkpt lat="48.58002" lon="1.78519">
        <ele>136</ele>
        <time>2010-05-15T10:13:06Z</time>
      </trkpt>
      <trkpt lat="48.58" lon="1.78524">
        <ele>136</ele>
        <time>2010-05-15T10:13:07Z</time>
      </trkpt>
      <trkpt lat="48.57998" lon="1.78528">
        <ele>136</ele>
        <time>2010-05-15T10:13:08Z</time>
      </trkpt>
      <trkpt lat="48.57997" lon="1.78533">
        <ele>136</ele>
        <time>2010-05-15T10:13:09Z</time>
      </trkpt>
      <trkpt lat="48.57995" lon="1.78538">
        <ele>136</ele>
        <time>2010-05-15T10:13:10Z</time>
      </trkpt>
      <trkpt lat="48.57994" lon="1.78543">
        <ele>136</ele>
        <time>2010-05-15T10:13:11Z</time>
      </trkpt>
      <trkpt lat="48.57993" lon="1.78549">
        <ele>136</ele>
        <time>2010-05-15T10:13:12Z</time>
      </trkpt>
      <trkpt lat="48.57992" lon="1.78556">
        <ele>136</ele>
        <time>2010-05-15T10:13:13Z</time>
      </trkpt>
      <trkpt lat="48.57991" lon="1.78565">
        <ele>137</ele>
        <time>2010-05-15T10:13:14Z</time>
      </trkpt>
      <trkpt lat="48.57989" lon="1.78576">
        <ele>137</ele>
        <time>2010-05-15T10:13:15Z</time>
      </trkpt>
      <trkpt lat="48.57989" lon="1.78583">
        <ele>138</ele>
        <time>2010-05-15T10:13:16Z</time>
      </trkpt>
      <trkpt lat="48.57988" lon="1.78592">
        <ele>138</ele>
        <time>2010-05-15T10:13:17Z</time>
      </trkpt>
      <trkpt lat="48.57988" lon="1.78598">
        <ele>139</ele>
        <time>2010-05-15T10:13:18Z</time>
      </trkpt>
      <trkpt lat="48.57989" lon="1.78604">
        <ele>139</ele>
        <time>2010-05-15T10:13:19Z</time>
      </trkpt>
      <trkpt lat="48.57989" lon="1.7861">
        <ele>140</ele>
        <time>2010-05-15T10:13:20Z</time>
      </trkpt>
      <trkpt lat="48.57991" lon="1.78615">
        <ele>140</ele>
        <time>2010-05-15T10:13:21Z</time>
      </trkpt>
      <trkpt lat="48.57993" lon="1.7862">
        <ele>140</ele>
        <time>2010-05-15T10:13:22Z</time>
      </trkpt>
      <trkpt lat="48.57994" lon="1.78626">
        <ele>140</ele>
        <time>2010-05-15T10:13:23Z</time>
      </trkpt>
      <trkpt lat="48.57995" lon="1.78633">
        <ele>140</ele>
        <time>2010-05-15T10:13:24Z</time>
      </trkpt>
      <trkpt lat="48.57996" lon="1.78639">
        <ele>140</ele>
        <time>2010-05-15T10:13:25Z</time>
      </trkpt>
      <trkpt lat="48.57997" lon="1.78645">
        <ele>140</ele>
        <time>2010-05-15T10:13:26Z</time>
      </trkpt>
      <trkpt lat="48.58" lon="1.78651">
        <ele>140</ele>
        <time>2010-05-15T10:13:27Z</time>
      </trkpt>
      <trkpt lat="48.58002" lon="1.78658">
        <ele>140</ele>
        <time>2010-05-15T10:13:28Z</time>
      </trkpt>
      <trkpt lat="48.58004" lon="1.78664">
        <ele>140</ele>
        <time>2010-05-15T10:13:29Z</time>
      </trkpt>
      <trkpt lat="48.58007" lon="1.7867">
        <ele>140</ele>
        <time>2010-05-15T10:13:30Z</time>
      </trkpt>
      <trkpt lat="48.5801" lon="1.78676">
        <ele>140</ele>
        <time>2010-05-15T10:13:31Z</time>
      </trkpt>
      <trkpt lat="48.58012" lon="1.78684">
        <ele>140</ele>
        <time>2010-05-15T10:13:32Z</time>
      </trkpt>
      <trkpt lat="48.58015" lon="1.7869">
        <ele>140</ele>
        <time>2010-05-15T10:13:33Z</time>
      </trkpt>
      <trkpt lat="48.58017" lon="1.78697">
        <ele>140</ele>
        <time>2010-05-15T10:13:34Z</time>
      </trkpt>
      <trkpt lat="48.5802" lon="1.78703">
        <ele>140</ele>
        <time>2010-05-15T10:13:35Z</time>
      </trkpt>
      <trkpt lat="48.58023" lon="1.78708">
        <ele>140</ele>
        <time>2010-05-15T10:13:36Z</time>
      </trkpt>
      <trkpt lat="48.58026" lon="1.78713">
        <ele>140</ele>
        <time>2010-05-15T10:13:37Z</time>
      </trkpt>
      <trkpt lat="48.58029" lon="1.78717">
        <ele>140</ele>
        <time>2010-05-15T10:13:38Z</time>
      </trkpt>
      <trkpt lat="48.58033" lon="1.78721">
        <ele>140</ele>
        <time>2010-05-15T10:13:39Z</time>
      </trkpt>
      <trkpt lat="48.58036" lon="1.78725">
        <ele>140</ele>
        <time>2010-05-15T10:13:40Z</time>
      </trkpt>
      <trkpt lat="48.58038" lon="1.78729">
        <ele>140</ele>
        <time>2010-05-15T10:13:41Z</time>
      </trkpt>
      <trkpt lat="48.58041" lon="1.78734">
        <ele>140</ele>
        <time>2010-05-15T10:13:42Z</time>
      </trkpt>
      <trkpt lat="48.58044" lon="1.78739">
        <ele>139</ele>
        <time>2010-05-15T10:13:43Z</time>
      </trkpt>
      <trkpt lat="48.58046" lon="1.78744">
        <ele>139</ele>
        <time>2010-05-15T10:13:44Z</time>
      </trkpt>
      <trkpt lat="48.58048" lon="1.78749">
        <ele>139</ele>
        <time>2010-05-15T10:13:45Z</time>
      </trkpt>
      <trkpt lat="48.58051" lon="1.78754">
        <ele>139</ele>
        <time>2010-05-15T10:13:46Z</time>
      </trkpt>
      <trkpt lat="48.58053" lon="1.78759">
        <ele>138</ele>
        <time>2010-05-15T10:13:47Z</time>
      </trkpt>
      <trkpt lat="48.58055" lon="1.78765">
        <ele>138</ele>
        <time>2010-05-15T10:13:48Z</time>
      </trkpt>
      <trkpt lat="48.58058" lon="1.7877">
        <ele>138</ele>
        <time>2010-05-15T10:13:49Z</time>
      </trkpt>
      <trkpt lat="48.5806" lon="1.78775">
        <ele>138</ele>
        <time>2010-05-15T10:13:50Z</time>
      </trkpt>
      <trkpt lat="48.58062" lon="1.78779">
        <ele>138</ele>
        <time>2010-05-15T10:13:51Z</time>
      </trkpt>
      <trkpt lat="48.58064" lon="1.78784">
        <ele>138</ele>
        <time>2010-05-15T10:13:52Z</time>
      </trkpt>
      <trkpt lat="48.58067" lon="1.7879">
        <ele>138</ele>
        <time>2010-05-15T10:13:53Z</time>
      </trkpt>
      <trkpt lat="48.58069" lon="1.78797">
        <ele>138</ele>
        <time>2010-05-15T10:13:54Z</time>
      </trkpt>
      <trkpt lat="48.5807" lon="1.78803">
        <ele>138</ele>
        <time>2010-05-15T10:13:55Z</time>
      </trkpt>
      <trkpt lat="48.58072" lon="1.7881">
        <ele>138</ele>
        <time>2010-05-15T10:13:56Z</time>
      </trkpt>
      <trkpt lat="48.58073" lon="1.78815">
        <ele>138</ele>
        <time>2010-05-15T10:13:57Z</time>
      </trkpt>
      <trkpt lat="48.58074" lon="1.78821">
        <ele>138</ele>
        <time>2010-05-15T10:13:58Z</time>
      </trkpt>
      <trkpt lat="48.58076" lon="1.78826">
        <ele>139</ele>
        <time>2010-05-15T10:13:59Z</time>
      </trkpt>
      <trkpt lat="48.58077" lon="1.78832">
        <ele>140</ele>
        <time>2010-05-15T10:14:00Z</time>
      </trkpt>
      <trkpt lat="48.58077" lon="1.78838">
        <ele>140</ele>
        <time>2010-05-15T10:14:01Z</time>
      </trkpt>
      <trkpt lat="48.58078" lon="1.78843">
        <ele>141</ele>
        <time>2010-05-15T10:14:02Z</time>
      </trkpt>
      <trkpt lat="48.58077" lon="1.7885">
        <ele>141</ele>
        <time>2010-05-15T10:14:03Z</time>
      </trkpt>
      <trkpt lat="48.58077" lon="1.78855">
        <ele>141</ele>
        <time>2010-05-15T10:14:04Z</time>
      </trkpt>
      <trkpt lat="48.58077" lon="1.7886">
        <ele>142</ele>
        <time>2010-05-15T10:14:05Z</time>
      </trkpt>
      <trkpt lat="48.58078" lon="1.78863">
        <ele>142</ele>
        <time>2010-05-15T10:14:06Z</time>
      </trkpt>
      <trkpt lat="48.58078" lon="1.78866">
        <ele>143</ele>
        <time>2010-05-15T10:14:07Z</time>
      </trkpt>
      <trkpt lat="48.58078" lon="1.78871">
        <ele>143</ele>
        <time>2010-05-15T10:14:08Z</time>
      </trkpt>
      <trkpt lat="48.58078" lon="1.78877">
        <ele>143</ele>
        <time>2010-05-15T10:14:09Z</time>
      </trkpt>
      <trkpt lat="48.58078" lon="1.7888">
        <ele>143</ele>
        <time>2010-05-15T10:14:10Z</time>
      </trkpt>
      <trkpt lat="48.58078" lon="1.78882">
        <ele>143</ele>
        <time>2010-05-15T10:14:11Z</time>
      </trkpt>
      <trkpt lat="48.58077" lon="1.78884">
        <ele>143</ele>
        <time>2010-05-15T10:14:13Z</time>
      </trkpt>
      <trkpt lat="48.58076" lon="1.78884">
        <ele>143</ele>
        <time>2010-05-15T10:14:17Z</time>
      </trkpt>
      <trkpt lat="48.58075" lon="1.78886">
        <ele>143</ele>
        <time>2010-05-15T10:14:21Z</time>
      </trkpt>
      <trkpt lat="48.58074" lon="1.78886">
        <ele>143</ele>
        <time>2010-05-15T10:14:26Z</time>
      </trkpt>
      <trkpt lat="48.58073" lon="1.78884">
        <ele>143</ele>
        <time>2010-05-15T10:14:29Z</time>
      </trkpt>
      <trkpt lat="48.58074" lon="1.78882">
        <ele>145</ele>
        <time>2010-05-15T10:14:32Z</time>
      </trkpt>
      <trkpt lat="48.58075" lon="1.78882">
        <ele>145</ele>
        <time>2010-05-15T10:14:34Z</time>
      </trkpt>
      <trkpt lat="48.58077" lon="1.78882">
        <ele>145</ele>
        <time>2010-05-15T10:14:38Z</time>
      </trkpt>
      <trkpt lat="48.58077" lon="1.7888">
        <ele>146</ele>
        <time>2010-05-15T10:14:43Z</time>
      </trkpt>
      <trkpt lat="48.58075" lon="1.78879">
        <ele>146</ele>
        <time>2010-05-15T10:14:45Z</time>
      </trkpt>
      <trkpt lat="48.58073" lon="1.7888">
        <ele>146</ele>
        <time>2010-05-15T10:14:46Z</time>
      </trkpt>
      <trkpt lat="48.58072" lon="1.78882">
        <ele>146</ele>
        <time>2010-05-15T10:14:47Z</time>
      </trkpt>
      <trkpt lat="48.58071" lon="1.78883">
        <ele>146</ele>
        <time>2010-05-15T10:14:48Z</time>
      </trkpt>
      <trkpt lat="48.58068" lon="1.78885">
        <ele>146</ele>
        <time>2010-05-15T10:14:50Z</time>
      </trkpt>
      <trkpt lat="48.58067" lon="1.78887">
        <ele>146</ele>
        <time>2010-05-15T10:14:51Z</time>
      </trkpt>
      <trkpt lat="48.58066" lon="1.78888">
        <ele>146</ele>
        <time>2010-05-15T10:14:52Z</time>
      </trkpt>
      <trkpt lat="48.58065" lon="1.78889">
        <ele>146</ele>
        <time>2010-05-15T10:14:53Z</time>
      </trkpt>
      <trkpt lat="48.58063" lon="1.78891">
        <ele>146</ele>
        <time>2010-05-15T10:14:54Z</time>
      </trkpt>
      <trkpt lat="48.58062" lon="1.78892">
        <ele>146</ele>
        <time>2010-05-15T10:14:55Z</time>
      </trkpt>
      <trkpt lat="48.58061" lon="1.78894">
        <ele>146</ele>
        <time>2010-05-15T10:14:56Z</time>
      </trkpt>
      <trkpt lat="48.58059" lon="1.78895">
        <ele>146</ele>
        <time>2010-05-15T10:14:57Z</time>
      </trkpt>
      <trkpt lat="48.58058" lon="1.78897">
        <ele>146</ele>
        <time>2010-05-15T10:14:58Z</time>
      </trkpt>
      <trkpt lat="48.58057" lon="1.78898">
        <ele>146</ele>
        <time>2010-05-15T10:14:59Z</time>
      </trkpt>
      <trkpt lat="48.58056" lon="1.789">
        <ele>145</ele>
        <time>2010-05-15T10:15:00Z</time>
      </trkpt>
      <trkpt lat="48.58055" lon="1.78902">
        <ele>145</ele>
        <time>2010-05-15T10:15:01Z</time>
      </trkpt>
      <trkpt lat="48.58053" lon="1.78903">
        <ele>145</ele>
        <time>2010-05-15T10:15:02Z</time>
      </trkpt>
      <trkpt lat="48.58052" lon="1.78905">
        <ele>144</ele>
        <time>2010-05-15T10:15:03Z</time>
      </trkpt>
      <trkpt lat="48.58051" lon="1.78906">
        <ele>143</ele>
        <time>2010-05-15T10:15:04Z</time>
      </trkpt>
      <trkpt lat="48.58049" lon="1.78908">
        <ele>143</ele>
        <time>2010-05-15T10:15:05Z</time>
      </trkpt>
      <trkpt lat="48.58048" lon="1.78909">
        <ele>143</ele>
        <time>2010-05-15T10:15:06Z</time>
      </trkpt>
      <trkpt lat="48.58047" lon="1.7891">
        <ele>142</ele>
        <time>2010-05-15T10:15:07Z</time>
      </trkpt>
      <trkpt lat="48.58046" lon="1.78911">
        <ele>142</ele>
        <time>2010-05-15T10:15:08Z</time>
      </trkpt>
      <trkpt lat="48.58044" lon="1.78912">
        <ele>142</ele>
        <time>2010-05-15T10:15:09Z</time>
      </trkpt>
      <trkpt lat="48.58043" lon="1.78913">
        <ele>142</ele>
        <time>2010-05-15T10:15:10Z</time>
      </trkpt>
      <trkpt lat="48.58042" lon="1.78914">
        <ele>142</ele>
        <time>2010-05-15T10:15:11Z</time>
      </trkpt>
      <trkpt lat="48.58041" lon="1.78912">
        <ele>141</ele>
        <time>2010-05-15T10:15:16Z</time>
      </trkpt>
      <trkpt lat="48.58039" lon="1.78911">
        <ele>141</ele>
        <time>2010-05-15T10:15:20Z</time>
      </trkpt>
      <trkpt lat="48.58039" lon="1.78913">
        <ele>141</ele>
        <time>2010-05-15T10:15:26Z</time>
      </trkpt>
      <trkpt lat="48.5804" lon="1.78912">
        <ele>141</ele>
        <time>2010-05-15T10:15:34Z</time>
      </trkpt>
      <trkpt lat="48.58039" lon="1.78913">
        <ele>141</ele>
        <time>2010-05-15T10:15:39Z</time>
      </trkpt>
      <trkpt lat="48.58038" lon="1.78914">
        <ele>141</ele>
        <time>2010-05-15T10:15:40Z</time>
      </trkpt>
      <trkpt lat="48.58037" lon="1.78914">
        <ele>141</ele>
        <time>2010-05-15T10:15:41Z</time>
      </trkpt>
      <trkpt lat="48.58036" lon="1.78916">
        <ele>142</ele>
        <time>2010-05-15T10:15:42Z</time>
      </trkpt>
      <trkpt lat="48.58036" lon="1.78918">
        <ele>142</ele>
        <time>2010-05-15T10:15:43Z</time>
      </trkpt>
      <trkpt lat="48.58036" lon="1.78921">
        <ele>142</ele>
        <time>2010-05-15T10:15:44Z</time>
      </trkpt>
      <trkpt lat="48.58037" lon="1.78923">
        <ele>142</ele>
        <time>2010-05-15T10:15:45Z</time>
      </trkpt>
      <trkpt lat="48.58037" lon="1.78925">
        <ele>142</ele>
        <time>2010-05-15T10:15:46Z</time>
      </trkpt>
      <trkpt lat="48.58038" lon="1.78928">
        <ele>142</ele>
        <time>2010-05-15T10:15:47Z</time>
      </trkpt>
      <trkpt lat="48.58039" lon="1.7893">
        <ele>142</ele>
        <time>2010-05-15T10:15:48Z</time>
      </trkpt>
      <trkpt lat="48.5804" lon="1.78932">
        <ele>142</ele>
        <time>2010-05-15T10:15:49Z</time>
      </trkpt>
      <trkpt lat="48.58041" lon="1.78933">
        <ele>142</ele>
        <time>2010-05-15T10:15:50Z</time>
      </trkpt>
      <trkpt lat="48.58041" lon="1.78936">
        <ele>142</ele>
        <time>2010-05-15T10:15:51Z</time>
      </trkpt>
      <trkpt lat="48.58043" lon="1.78938">
        <ele>142</ele>
        <time>2010-05-15T10:15:53Z</time>
      </trkpt>
      <trkpt lat="48.58043" lon="1.78935">
        <ele>142</ele>
        <time>2010-05-15T10:15:56Z</time>
      </trkpt>
      <trkpt lat="48.58044" lon="1.78933">
        <ele>142</ele>
        <time>2010-05-15T10:15:58Z</time>
      </trkpt>
      <trkpt lat="48.58043" lon="1.78931">
        <ele>142</ele>
        <time>2010-05-15T10:16:00Z</time>
      </trkpt>
      <trkpt lat="48.58044" lon="1.78931">
        <ele>139</ele>
        <time>2010-05-15T10:16:06Z</time>
      </trkpt>
      <trkpt lat="48.58044" lon="1.78929">
        <ele>142</ele>
        <time>2010-05-15T10:16:10Z</time>
      </trkpt>
      <trkpt lat="48.58043" lon="1.78926">
        <ele>143</ele>
        <time>2010-05-15T10:16:13Z</time>
      </trkpt>
      <trkpt lat="48.58044" lon="1.78924">
        <ele>142</ele>
        <time>2010-05-15T10:16:19Z</time>
      </trkpt>
      <trkpt lat="48.58045" lon="1.78924">
        <ele>140</ele>
        <time>2010-05-15T10:16:22Z</time>
      </trkpt>
      <trkpt lat="48.58044" lon="1.78925">
        <ele>139</ele>
        <time>2010-05-15T10:16:24Z</time>
      </trkpt>
      <trkpt lat="48.58043" lon="1.78927">
        <ele>139</ele>
        <time>2010-05-15T10:16:26Z</time>
      </trkpt>
      <trkpt lat="48.58042" lon="1.78929">
        <ele>139</ele>
        <time>2010-05-15T10:16:27Z</time>
      </trkpt>
      <trkpt lat="48.58041" lon="1.78927">
        <ele>141</ele>
        <time>2010-05-15T10:16:32Z</time>
      </trkpt>
      <trkpt lat="48.5804" lon="1.78924">
        <ele>141</ele>
        <time>2010-05-15T10:16:34Z</time>
      </trkpt>
      <trkpt lat="48.58038" lon="1.78922">
        <ele>141</ele>
        <time>2010-05-15T10:16:36Z</time>
      </trkpt>
      <trkpt lat="48.58038" lon="1.78919">
        <ele>141</ele>
        <time>2010-05-15T10:16:38Z</time>
      </trkpt>
      <trkpt lat="48.58039" lon="1.78917">
        <ele>141</ele>
        <time>2010-05-15T10:16:40Z</time>
      </trkpt>
      <trkpt lat="48.58041" lon="1.78915">
        <ele>141</ele>
        <time>2010-05-15T10:16:43Z</time>
      </trkpt>
      <trkpt lat="48.58042" lon="1.78915">
        <ele>141</ele>
        <time>2010-05-15T10:16:44Z</time>
      </trkpt>
      <trkpt lat="48.58043" lon="1.78914">
        <ele>141</ele>
        <time>2010-05-15T10:16:45Z</time>
      </trkpt>
      <trkpt lat="48.58046" lon="1.78912">
        <ele>141</ele>
        <time>2010-05-15T10:16:47Z</time>
      </trkpt>
      <trkpt lat="48.58049" lon="1.78912">
        <ele>141</ele>
        <time>2010-05-15T10:16:48Z</time>
      </trkpt>
      <trkpt lat="48.5805" lon="1.7891">
        <ele>141</ele>
        <time>2010-05-15T10:16:50Z</time>
      </trkpt>
      <trkpt lat="48.58048" lon="1.7891">
        <ele>145</ele>
        <time>2010-05-15T10:17:00Z</time>
      </trkpt>
      <trkpt lat="48.58047" lon="1.78908">
        <ele>145</ele>
        <time>2010-05-15T10:17:03Z</time>
      </trkpt>
      <trkpt lat="48.58046" lon="1.78908">
        <ele>147</ele>
        <time>2010-05-15T10:17:07Z</time>
      </trkpt>
      <trkpt lat="48.58046" lon="1.7891">
        <ele>149</ele>
        <time>2010-05-15T10:17:16Z</time>
      </trkpt>
      <trkpt lat="48.58046" lon="1.78912">
        <ele>146</ele>
        <time>2010-05-15T10:17:29Z</time>
      </trkpt>
      <trkpt lat="48.58045" lon="1.78914">
        <ele>143</ele>
        <time>2010-05-15T10:17:32Z</time>
      </trkpt>
      <trkpt lat="48.58046" lon="1.78912">
        <ele>141</ele>
        <time>2010-05-15T10:17:51Z</time>
      </trkpt>
      <trkpt lat="48.58047" lon="1.78912">
        <ele>141</ele>
        <time>2010-05-15T10:17:53Z</time>
      </trkpt>
      <trkpt lat="48.58048" lon="1.7891">
        <ele>141</ele>
        <time>2010-05-15T10:17:55Z</time>
      </trkpt>
      <trkpt lat="48.58049" lon="1.78908">
        <ele>141</ele>
        <time>2010-05-15T10:17:57Z</time>
      </trkpt>
      <trkpt lat="48.58051" lon="1.78907">
        <ele>141</ele>
        <time>2010-05-15T10:17:58Z</time>
      </trkpt>
      <trkpt lat="48.58052" lon="1.78906">
        <ele>141</ele>
        <time>2010-05-15T10:17:59Z</time>
      </trkpt>
      <trkpt lat="48.58054" lon="1.78905">
        <ele>141</ele>
        <time>2010-05-15T10:18:00Z</time>
      </trkpt>
      <trkpt lat="48.58055" lon="1.78903">
        <ele>141</ele>
        <time>2010-05-15T10:18:01Z</time>
      </trkpt>
      <trkpt lat="48.58057" lon="1.78902">
        <ele>140</ele>
        <time>2010-05-15T10:18:02Z</time>
      </trkpt>
      <trkpt lat="48.58058" lon="1.789">
        <ele>140</ele>
        <time>2010-05-15T10:18:04Z</time>
      </trkpt>
      <trkpt lat="48.5806" lon="1.78899">
        <ele>140</ele>
        <time>2010-05-15T10:18:05Z</time>
      </trkpt>
      <trkpt lat="48.58063" lon="1.78896">
        <ele>138</ele>
        <time>2010-05-15T10:18:07Z</time>
      </trkpt>
      <trkpt lat="48.58064" lon="1.78894">
        <ele>137</ele>
        <time>2010-05-15T10:18:08Z</time>
      </trkpt>
      <trkpt lat="48.58066" lon="1.78892">
        <ele>135</ele>
        <time>2010-05-15T10:18:10Z</time>
      </trkpt>
      <trkpt lat="48.58067" lon="1.78891">
        <ele>134</ele>
        <time>2010-05-15T10:18:11Z</time>
      </trkpt>
      <trkpt lat="48.58068" lon="1.7889">
        <ele>133</ele>
        <time>2010-05-15T10:18:12Z</time>
      </trkpt>
      <trkpt lat="48.58069" lon="1.78889">
        <ele>131</ele>
        <time>2010-05-15T10:18:14Z</time>
      </trkpt>
      <trkpt lat="48.58071" lon="1.78887">
        <ele>128</ele>
        <time>2010-05-15T10:18:17Z</time>
      </trkpt>
      <trkpt lat="48.58073" lon="1.78886">
        <ele>128</ele>
        <time>2010-05-15T10:18:18Z</time>
      </trkpt>
      <trkpt lat="48.58072" lon="1.78884">
        <ele>129</ele>
        <time>2010-05-15T10:18:22Z</time>
      </trkpt>
      <trkpt lat="48.58074" lon="1.78882">
        <ele>131</ele>
        <time>2010-05-15T10:18:24Z</time>
      </trkpt>
      <trkpt lat="48.58075" lon="1.78879">
        <ele>133</ele>
        <time>2010-05-15T10:18:26Z</time>
      </trkpt>
      <trkpt lat="48.58075" lon="1.78877">
        <ele>134</ele>
        <time>2010-05-15T10:18:28Z</time>
      </trkpt>
      <trkpt lat="48.58075" lon="1.78876">
        <ele>137</ele>
        <time>2010-05-15T10:18:34Z</time>
      </trkpt>
      <trkpt lat="48.58074" lon="1.78878">
        <ele>138</ele>
        <time>2010-05-15T10:18:40Z</time>
      </trkpt>
      <trkpt lat="48.58072" lon="1.78878">
        <ele>138</ele>
        <time>2010-05-15T10:18:42Z</time>
      </trkpt>
      <trkpt lat="48.58074" lon="1.78878">
        <ele>141</ele>
        <time>2010-05-15T10:18:49Z</time>
      </trkpt>
      <trkpt lat="48.58076" lon="1.78877">
        <ele>142</ele>
        <time>2010-05-15T10:19:00Z</time>
      </trkpt>
      <trkpt lat="48.58077" lon="1.78878">
        <ele>142</ele>
        <time>2010-05-15T10:19:02Z</time>
      </trkpt>
      <trkpt lat="48.58079" lon="1.78878">
        <ele>142</ele>
        <time>2010-05-15T10:19:04Z</time>
      </trkpt>
      <trkpt lat="48.58081" lon="1.78879">
        <ele>142</ele>
        <time>2010-05-15T10:19:08Z</time>
      </trkpt>
      <trkpt lat="48.58082" lon="1.7888">
        <ele>142</ele>
        <time>2010-05-15T10:19:10Z</time>
      </trkpt>
      <trkpt lat="48.58084" lon="1.78879">
        <ele>142</ele>
        <time>2010-05-15T10:19:16Z</time>
      </trkpt>
      <trkpt lat="48.58086" lon="1.78879">
        <ele>142</ele>
        <time>2010-05-15T10:19:26Z</time>
      </trkpt>
      <trkpt lat="48.58087" lon="1.78878">
        <ele>142</ele>
        <time>2010-05-15T10:19:27Z</time>
      </trkpt>
      <trkpt lat="48.58088" lon="1.78877">
        <ele>142</ele>
        <time>2010-05-15T10:19:29Z</time>
      </trkpt>
      <trkpt lat="48.58089" lon="1.78876">
        <ele>142</ele>
        <time>2010-05-15T10:19:31Z</time>
      </trkpt>
      <trkpt lat="48.5809" lon="1.78877">
        <ele>142</ele>
        <time>2010-05-15T10:19:34Z</time>
      </trkpt>
      <trkpt lat="48.58091" lon="1.78879">
        <ele>144</ele>
        <time>2010-05-15T10:19:40Z</time>
      </trkpt>
      <trkpt lat="48.5809" lon="1.7888">
        <ele>146</ele>
        <time>2010-05-15T10:19:46Z</time>
      </trkpt>
      <trkpt lat="48.58091" lon="1.78882">
        <ele>149</ele>
        <time>2010-05-15T10:19:50Z</time>
      </trkpt>
      <trkpt lat="48.58093" lon="1.7888">
        <ele>151</ele>
        <time>2010-05-15T10:19:56Z</time>
      </trkpt>
      <trkpt lat="48.58095" lon="1.78878">
        <ele>151</ele>
        <time>2010-05-15T10:19:58Z</time>
      </trkpt>
      <trkpt lat="48.58097" lon="1.78877">
        <ele>151</ele>
        <time>2010-05-15T10:20:00Z</time>
      </trkpt>
      <trkpt lat="48.58098" lon="1.78876">
        <ele>151</ele>
        <time>2010-05-15T10:20:02Z</time>
      </trkpt>
      <trkpt lat="48.581" lon="1.78876">
        <ele>151</ele>
        <time>2010-05-15T10:20:04Z</time>
      </trkpt>
      <trkpt lat="48.58101" lon="1.78876">
        <ele>151</ele>
        <time>2010-05-15T10:20:05Z</time>
      </trkpt>
      <trkpt lat="48.58102" lon="1.78877">
        <ele>151</ele>
        <time>2010-05-15T10:20:07Z</time>
      </trkpt>
      <trkpt lat="48.58104" lon="1.78881">
        <ele>151</ele>
        <time>2010-05-15T10:20:09Z</time>
      </trkpt>
      <trkpt lat="48.58105" lon="1.78883">
        <ele>151</ele>
        <time>2010-05-15T10:20:10Z</time>
      </trkpt>
      <trkpt lat="48.58106" lon="1.78885">
        <ele>151</ele>
        <time>2010-05-15T10:20:11Z</time>
      </trkpt>
      <trkpt lat="48.58106" lon="1.78887">
        <ele>151</ele>
        <time>2010-05-15T10:20:12Z</time>
      </trkpt>
      <trkpt lat="48.58106" lon="1.7889">
        <ele>151</ele>
        <time>2010-05-15T10:20:13Z</time>
      </trkpt>
      <trkpt lat="48.58107" lon="1.78892">
        <ele>151</ele>
        <time>2010-05-15T10:20:14Z</time>
      </trkpt>
      <trkpt lat="48.58108" lon="1.78894">
        <ele>151</ele>
        <time>2010-05-15T10:20:16Z</time>
      </trkpt>
      <trkpt lat="48.58109" lon="1.78896">
        <ele>151</ele>
        <time>2010-05-15T10:20:17Z</time>
      </trkpt>
      <trkpt lat="48.58109" lon="1.78898">
        <ele>151</ele>
        <time>2010-05-15T10:20:18Z</time>
      </trkpt>
      <trkpt lat="48.5811" lon="1.789">
        <ele>151</ele>
        <time>2010-05-15T10:20:19Z</time>
      </trkpt>
      <trkpt lat="48.58111" lon="1.78902">
        <ele>151</ele>
        <time>2010-05-15T10:20:20Z</time>
      </trkpt>
      <trkpt lat="48.58112" lon="1.78904">
        <ele>151</ele>
        <time>2010-05-15T10:20:21Z</time>
      </trkpt>
      <trkpt lat="48.58113" lon="1.78905">
        <ele>151</ele>
        <time>2010-05-15T10:20:22Z</time>
      </trkpt>
      <trkpt lat="48.58114" lon="1.78908">
        <ele>151</ele>
        <time>2010-05-15T10:20:23Z</time>
      </trkpt>
      <trkpt lat="48.58115" lon="1.7891">
        <ele>151</ele>
        <time>2010-05-15T10:20:24Z</time>
      </trkpt>
      <trkpt lat="48.58116" lon="1.78913">
        <ele>151</ele>
        <time>2010-05-15T10:20:25Z</time>
      </trkpt>
      <trkpt lat="48.58116" lon="1.78916">
        <ele>151</ele>
        <time>2010-05-15T10:20:26Z</time>
      </trkpt>
      <trkpt lat="48.58117" lon="1.78919">
        <ele>151</ele>
        <time>2010-05-15T10:20:27Z</time>
      </trkpt>
      <trkpt lat="48.58117" lon="1.78921">
        <ele>152</ele>
        <time>2010-05-15T10:20:28Z</time>
      </trkpt>
      <trkpt lat="48.58118" lon="1.78923">
        <ele>153</ele>
        <time>2010-05-15T10:20:29Z</time>
      </trkpt>
      <trkpt lat="48.58119" lon="1.78926">
        <ele>153</ele>
        <time>2010-05-15T10:20:30Z</time>
      </trkpt>
      <trkpt lat="48.5812" lon="1.78929">
        <ele>153</ele>
        <time>2010-05-15T10:20:31Z</time>
      </trkpt>
      <trkpt lat="48.58121" lon="1.78932">
        <ele>153</ele>
        <time>2010-05-15T10:20:32Z</time>
      </trkpt>
      <trkpt lat="48.58121" lon="1.78934">
        <ele>153</ele>
        <time>2010-05-15T10:20:33Z</time>
      </trkpt>
      <trkpt lat="48.58122" lon="1.78937">
        <ele>153</ele>
        <time>2010-05-15T10:20:34Z</time>
      </trkpt>
      <trkpt lat="48.58123" lon="1.7894">
        <ele>153</ele>
        <time>2010-05-15T10:20:35Z</time>
      </trkpt>
      <trkpt lat="48.58124" lon="1.78942">
        <ele>153</ele>
        <time>2010-05-15T10:20:36Z</time>
      </trkpt>
      <trkpt lat="48.58125" lon="1.78945">
        <ele>153</ele>
        <time>2010-05-15T10:20:37Z</time>
      </trkpt>
      <trkpt lat="48.58126" lon="1.78948">
        <ele>153</ele>
        <time>2010-05-15T10:20:38Z</time>
      </trkpt>
      <trkpt lat="48.58127" lon="1.7895">
        <ele>153</ele>
        <time>2010-05-15T10:20:39Z</time>
      </trkpt>
      <trkpt lat="48.58128" lon="1.78953">
        <ele>153</ele>
        <time>2010-05-15T10:20:40Z</time>
      </trkpt>
      <trkpt lat="48.58128" lon="1.78955">
        <ele>153</ele>
        <time>2010-05-15T10:20:41Z</time>
      </trkpt>
      <trkpt lat="48.58129" lon="1.78957">
        <ele>152</ele>
        <time>2010-05-15T10:20:42Z</time>
      </trkpt>
      <trkpt lat="48.5813" lon="1.7896">
        <ele>152</ele>
        <time>2010-05-15T10:20:43Z</time>
      </trkpt>
      <trkpt lat="48.58131" lon="1.78962">
        <ele>152</ele>
        <time>2010-05-15T10:20:44Z</time>
      </trkpt>
      <trkpt lat="48.58132" lon="1.78964">
        <ele>152</ele>
        <time>2010-05-15T10:20:45Z</time>
      </trkpt>
      <trkpt lat="48.58132" lon="1.78966">
        <ele>152</ele>
        <time>2010-05-15T10:20:46Z</time>
      </trkpt>
      <trkpt lat="48.58133" lon="1.78968">
        <ele>152</ele>
        <time>2010-05-15T10:20:47Z</time>
      </trkpt>
      <trkpt lat="48.58133" lon="1.78971">
        <ele>152</ele>
        <time>2010-05-15T10:20:48Z</time>
      </trkpt>
      <trkpt lat="48.58134" lon="1.78973">
        <ele>152</ele>
        <time>2010-05-15T10:20:49Z</time>
      </trkpt>
      <trkpt lat="48.58135" lon="1.78975">
        <ele>152</ele>
        <time>2010-05-15T10:20:50Z</time>
      </trkpt>
      <trkpt lat="48.58136" lon="1.78977">
        <ele>152</ele>
        <time>2010-05-15T10:20:51Z</time>
      </trkpt>
      <trkpt lat="48.58137" lon="1.7898">
        <ele>152</ele>
        <time>2010-05-15T10:20:52Z</time>
      </trkpt>
      <trkpt lat="48.58138" lon="1.78982">
        <ele>152</ele>
        <time>2010-05-15T10:20:53Z</time>
      </trkpt>
      <trkpt lat="48.58139" lon="1.78984">
        <ele>152</ele>
        <time>2010-05-15T10:20:54Z</time>
      </trkpt>
      <trkpt lat="48.5814" lon="1.78986">
        <ele>152</ele>
        <time>2010-05-15T10:20:55Z</time>
      </trkpt>
      <trkpt lat="48.58141" lon="1.78988">
        <ele>151</ele>
        <time>2010-05-15T10:20:56Z</time>
      </trkpt>
      <trkpt lat="48.58142" lon="1.7899">
        <ele>150</ele>
        <time>2010-05-15T10:20:57Z</time>
      </trkpt>
      <trkpt lat="48.58143" lon="1.78993">
        <ele>150</ele>
        <time>2010-05-15T10:20:58Z</time>
      </trkpt>
      <trkpt lat="48.58144" lon="1.78995">
        <ele>150</ele>
        <time>2010-05-15T10:20:59Z</time>
      </trkpt>
      <trkpt lat="48.58145" lon="1.78998">
        <ele>149</ele>
        <time>2010-05-15T10:21:00Z</time>
      </trkpt>
      <trkpt lat="48.58146" lon="1.79">
        <ele>149</ele>
        <time>2010-05-15T10:21:01Z</time>
      </trkpt>
      <trkpt lat="48.58146" lon="1.79003">
        <ele>149</ele>
        <time>2010-05-15T10:21:02Z</time>
      </trkpt>
      <trkpt lat="48.58147" lon="1.79005">
        <ele>149</ele>
        <time>2010-05-15T10:21:03Z</time>
      </trkpt>
      <trkpt lat="48.58148" lon="1.79008">
        <ele>149</ele>
        <time>2010-05-15T10:21:04Z</time>
      </trkpt>
      <trkpt lat="48.58149" lon="1.79011">
        <ele>149</ele>
        <time>2010-05-15T10:21:05Z</time>
      </trkpt>
      <trkpt lat="48.5815" lon="1.79013">
        <ele>148</ele>
        <time>2010-05-15T10:21:06Z</time>
      </trkpt>
      <trkpt lat="48.58151" lon="1.79016">
        <ele>148</ele>
        <time>2010-05-15T10:21:07Z</time>
      </trkpt>
      <trkpt lat="48.58152" lon="1.79019">
        <ele>148</ele>
        <time>2010-05-15T10:21:08Z</time>
      </trkpt>
      <trkpt lat="48.58153" lon="1.79021">
        <ele>148</ele>
        <time>2010-05-15T10:21:09Z</time>
      </trkpt>
      <trkpt lat="48.58154" lon="1.79023">
        <ele>148</ele>
        <time>2010-05-15T10:21:10Z</time>
      </trkpt>
      <trkpt lat="48.58155" lon="1.79025">
        <ele>148</ele>
        <time>2010-05-15T10:21:11Z</time>
      </trkpt>
      <trkpt lat="48.58156" lon="1.79028">
        <ele>148</ele>
        <time>2010-05-15T10:21:13Z</time>
      </trkpt>
      <trkpt lat="48.58157" lon="1.7903">
        <ele>148</ele>
        <time>2010-05-15T10:21:14Z</time>
      </trkpt>
      <trkpt lat="48.58158" lon="1.79032">
        <ele>148</ele>
        <time>2010-05-15T10:21:15Z</time>
      </trkpt>
      <trkpt lat="48.58159" lon="1.79035">
        <ele>148</ele>
        <time>2010-05-15T10:21:17Z</time>
      </trkpt>
      <trkpt lat="48.5816" lon="1.79037">
        <ele>148</ele>
        <time>2010-05-15T10:21:18Z</time>
      </trkpt>
      <trkpt lat="48.58162" lon="1.79041">
        <ele>148</ele>
        <time>2010-05-15T10:21:20Z</time>
      </trkpt>
      <trkpt lat="48.58162" lon="1.79043">
        <ele>148</ele>
        <time>2010-05-15T10:21:21Z</time>
      </trkpt>
      <trkpt lat="48.58163" lon="1.79044">
        <ele>148</ele>
        <time>2010-05-15T10:21:22Z</time>
      </trkpt>
      <trkpt lat="48.58165" lon="1.79047">
        <ele>148</ele>
        <time>2010-05-15T10:21:24Z</time>
      </trkpt>
      <trkpt lat="48.58166" lon="1.79049">
        <ele>148</ele>
        <time>2010-05-15T10:21:25Z</time>
      </trkpt>
      <trkpt lat="48.58167" lon="1.79051">
        <ele>148</ele>
        <time>2010-05-15T10:21:26Z</time>
      </trkpt>
      <trkpt lat="48.58167" lon="1.79053">
        <ele>148</ele>
        <time>2010-05-15T10:21:27Z</time>
      </trkpt>
      <trkpt lat="48.58168" lon="1.79055">
        <ele>148</ele>
        <time>2010-05-15T10:21:28Z</time>
      </trkpt>
      <trkpt lat="48.58168" lon="1.79057">
        <ele>148</ele>
        <time>2010-05-15T10:21:29Z</time>
      </trkpt>
      <trkpt lat="48.58169" lon="1.7906">
        <ele>148</ele>
        <time>2010-05-15T10:21:30Z</time>
      </trkpt>
      <trkpt lat="48.5817" lon="1.79061">
        <ele>148</ele>
        <time>2010-05-15T10:21:31Z</time>
      </trkpt>
      <trkpt lat="48.5817" lon="1.79065">
        <ele>148</ele>
        <time>2010-05-15T10:21:33Z</time>
      </trkpt>
      <trkpt lat="48.58171" lon="1.79067">
        <ele>148</ele>
        <time>2010-05-15T10:21:34Z</time>
      </trkpt>
      <trkpt lat="48.58171" lon="1.79069">
        <ele>148</ele>
        <time>2010-05-15T10:21:35Z</time>
      </trkpt>
      <trkpt lat="48.58172" lon="1.79072">
        <ele>148</ele>
        <time>2010-05-15T10:21:36Z</time>
      </trkpt>
      <trkpt lat="48.58172" lon="1.79074">
        <ele>148</ele>
        <time>2010-05-15T10:21:37Z</time>
      </trkpt>
      <trkpt lat="48.58173" lon="1.79076">
        <ele>149</ele>
        <time>2010-05-15T10:21:38Z</time>
      </trkpt>
      <trkpt lat="48.58173" lon="1.79078">
        <ele>149</ele>
        <time>2010-05-15T10:21:39Z</time>
      </trkpt>
      <trkpt lat="48.58174" lon="1.7908">
        <ele>150</ele>
        <time>2010-05-15T10:21:40Z</time>
      </trkpt>
      <trkpt lat="48.58174" lon="1.79083">
        <ele>151</ele>
        <time>2010-05-15T10:21:41Z</time>
      </trkpt>
      <trkpt lat="48.58175" lon="1.79086">
        <ele>152</ele>
        <time>2010-05-15T10:21:43Z</time>
      </trkpt>
      <trkpt lat="48.58176" lon="1.79089">
        <ele>152</ele>
        <time>2010-05-15T10:21:44Z</time>
      </trkpt>
      <trkpt lat="48.58176" lon="1.79091">
        <ele>153</ele>
        <time>2010-05-15T10:21:45Z</time>
      </trkpt>
      <trkpt lat="48.58176" lon="1.79093">
        <ele>154</ele>
        <time>2010-05-15T10:21:46Z</time>
      </trkpt>
      <trkpt lat="48.58177" lon="1.79095">
        <ele>154</ele>
        <time>2010-05-15T10:21:47Z</time>
      </trkpt>
      <trkpt lat="48.58177" lon="1.79099">
        <ele>154</ele>
        <time>2010-05-15T10:21:48Z</time>
      </trkpt>
      <trkpt lat="48.58178" lon="1.79101">
        <ele>154</ele>
        <time>2010-05-15T10:21:49Z</time>
      </trkpt>
      <trkpt lat="48.58178" lon="1.79103">
        <ele>154</ele>
        <time>2010-05-15T10:21:50Z</time>
      </trkpt>
      <trkpt lat="48.58178" lon="1.79105">
        <ele>154</ele>
        <time>2010-05-15T10:21:51Z</time>
      </trkpt>
      <trkpt lat="48.58178" lon="1.79107">
        <ele>154</ele>
        <time>2010-05-15T10:21:52Z</time>
      </trkpt>
      <trkpt lat="48.58179" lon="1.7911">
        <ele>155</ele>
        <time>2010-05-15T10:21:53Z</time>
      </trkpt>
      <trkpt lat="48.58179" lon="1.79113">
        <ele>155</ele>
        <time>2010-05-15T10:21:54Z</time>
      </trkpt>
      <trkpt lat="48.58179" lon="1.79115">
        <ele>156</ele>
        <time>2010-05-15T10:21:55Z</time>
      </trkpt>
      <trkpt lat="48.58179" lon="1.79118">
        <ele>156</ele>
        <time>2010-05-15T10:21:56Z</time>
      </trkpt>
      <trkpt lat="48.58179" lon="1.79121">
        <ele>157</ele>
        <time>2010-05-15T10:21:57Z</time>
      </trkpt>
      <trkpt lat="48.5818" lon="1.79123">
        <ele>158</ele>
        <time>2010-05-15T10:21:58Z</time>
      </trkpt>
      <trkpt lat="48.5818" lon="1.79126">
        <ele>158</ele>
        <time>2010-05-15T10:21:59Z</time>
      </trkpt>
      <trkpt lat="48.5818" lon="1.79128">
        <ele>159</ele>
        <time>2010-05-15T10:22:00Z</time>
      </trkpt>
      <trkpt lat="48.5818" lon="1.79131">
        <ele>159</ele>
        <time>2010-05-15T10:22:01Z</time>
      </trkpt>
      <trkpt lat="48.58181" lon="1.79133">
        <ele>160</ele>
        <time>2010-05-15T10:22:02Z</time>
      </trkpt>
      <trkpt lat="48.58181" lon="1.79135">
        <ele>160</ele>
        <time>2010-05-15T10:22:03Z</time>
      </trkpt>
      <trkpt lat="48.58181" lon="1.79137">
        <ele>160</ele>
        <time>2010-05-15T10:22:04Z</time>
      </trkpt>
      <trkpt lat="48.58182" lon="1.79139">
        <ele>160</ele>
        <time>2010-05-15T10:22:05Z</time>
      </trkpt>
      <trkpt lat="48.58182" lon="1.79142">
        <ele>160</ele>
        <time>2010-05-15T10:22:06Z</time>
      </trkpt>
      <trkpt lat="48.58182" lon="1.79145">
        <ele>160</ele>
        <time>2010-05-15T10:22:07Z</time>
      </trkpt>
      <trkpt lat="48.58182" lon="1.79147">
        <ele>160</ele>
        <time>2010-05-15T10:22:08Z</time>
      </trkpt>
      <trkpt lat="48.58182" lon="1.7915">
        <ele>160</ele>
        <time>2010-05-15T10:22:09Z</time>
      </trkpt>
      <trkpt lat="48.58182" lon="1.79152">
        <ele>160</ele>
        <time>2010-05-15T10:22:10Z</time>
      </trkpt>
      <trkpt lat="48.58183" lon="1.79155">
        <ele>160</ele>
        <time>2010-05-15T10:22:11Z</time>
      </trkpt>
      <trkpt lat="48.58183" lon="1.79157">
        <ele>160</ele>
        <time>2010-05-15T10:22:12Z</time>
      </trkpt>
      <trkpt lat="48.58183" lon="1.79159">
        <ele>161</ele>
        <time>2010-05-15T10:22:13Z</time>
      </trkpt>
      <trkpt lat="48.58184" lon="1.79162">
        <ele>161</ele>
        <time>2010-05-15T10:22:14Z</time>
      </trkpt>
      <trkpt lat="48.58185" lon="1.79165">
        <ele>161</ele>
        <time>2010-05-15T10:22:15Z</time>
      </trkpt>
      <trkpt lat="48.58185" lon="1.79168">
        <ele>161</ele>
        <time>2010-05-15T10:22:16Z</time>
      </trkpt>
      <trkpt lat="48.58186" lon="1.79171">
        <ele>161</ele>
        <time>2010-05-15T10:22:17Z</time>
      </trkpt>
      <trkpt lat="48.58186" lon="1.79174">
        <ele>160</ele>
        <time>2010-05-15T10:22:18Z</time>
      </trkpt>
      <trkpt lat="48.58187" lon="1.79177">
        <ele>159</ele>
        <time>2010-05-15T10:22:19Z</time>
      </trkpt>
      <trkpt lat="48.58187" lon="1.7918">
        <ele>158</ele>
        <time>2010-05-15T10:22:20Z</time>
      </trkpt>
      <trkpt lat="48.58188" lon="1.79182">
        <ele>157</ele>
        <time>2010-05-15T10:22:21Z</time>
      </trkpt>
      <trkpt lat="48.58189" lon="1.79185">
        <ele>156</ele>
        <time>2010-05-15T10:22:22Z</time>
      </trkpt>
      <trkpt lat="48.58189" lon="1.79188">
        <ele>155</ele>
        <time>2010-05-15T10:22:23Z</time>
      </trkpt>
      <trkpt lat="48.5819" lon="1.7919">
        <ele>154</ele>
        <time>2010-05-15T10:22:24Z</time>
      </trkpt>
      <trkpt lat="48.58191" lon="1.79192">
        <ele>153</ele>
        <time>2010-05-15T10:22:25Z</time>
      </trkpt>
      <trkpt lat="48.58192" lon="1.79195">
        <ele>152</ele>
        <time>2010-05-15T10:22:26Z</time>
      </trkpt>
      <trkpt lat="48.58193" lon="1.79198">
        <ele>152</ele>
        <time>2010-05-15T10:22:27Z</time>
      </trkpt>
      <trkpt lat="48.58194" lon="1.792">
        <ele>152</ele>
        <time>2010-05-15T10:22:28Z</time>
      </trkpt>
      <trkpt lat="48.58195" lon="1.79202">
        <ele>152</ele>
        <time>2010-05-15T10:22:29Z</time>
      </trkpt>
      <trkpt lat="48.58197" lon="1.79205">
        <ele>152</ele>
        <time>2010-05-15T10:22:31Z</time>
      </trkpt>
      <trkpt lat="48.58199" lon="1.79209">
        <ele>152</ele>
        <time>2010-05-15T10:22:33Z</time>
      </trkpt>
      <trkpt lat="48.58199" lon="1.79211">
        <ele>152</ele>
        <time>2010-05-15T10:22:34Z</time>
      </trkpt>
      <trkpt lat="48.582" lon="1.79212">
        <ele>152</ele>
        <time>2010-05-15T10:22:35Z</time>
      </trkpt>
      <trkpt lat="48.58201" lon="1.79214">
        <ele>152</ele>
        <time>2010-05-15T10:22:36Z</time>
      </trkpt>
      <trkpt lat="48.58202" lon="1.79216">
        <ele>152</ele>
        <time>2010-05-15T10:22:37Z</time>
      </trkpt>
      <trkpt lat="48.58203" lon="1.79219">
        <ele>152</ele>
        <time>2010-05-15T10:22:38Z</time>
      </trkpt>
      <trkpt lat="48.58204" lon="1.79221">
        <ele>152</ele>
        <time>2010-05-15T10:22:39Z</time>
      </trkpt>
      <trkpt lat="48.58205" lon="1.79222">
        <ele>152</ele>
        <time>2010-05-15T10:22:40Z</time>
      </trkpt>
      <trkpt lat="48.58207" lon="1.79225">
        <ele>152</ele>
        <time>2010-05-15T10:22:42Z</time>
      </trkpt>
      <trkpt lat="48.58208" lon="1.79227">
        <ele>152</ele>
        <time>2010-05-15T10:22:43Z</time>
      </trkpt>
      <trkpt lat="48.58209" lon="1.7923">
        <ele>152</ele>
        <time>2010-05-15T10:22:44Z</time>
      </trkpt>
      <trkpt lat="48.5821" lon="1.79232">
        <ele>152</ele>
        <time>2010-05-15T10:22:45Z</time>
      </trkpt>
      <trkpt lat="48.58211" lon="1.79234">
        <ele>152</ele>
        <time>2010-05-15T10:22:46Z</time>
      </trkpt>
      <trkpt lat="48.58212" lon="1.79235">
        <ele>152</ele>
        <time>2010-05-15T10:22:47Z</time>
      </trkpt>
      <trkpt lat="48.58213" lon="1.79238">
        <ele>152</ele>
        <time>2010-05-15T10:22:48Z</time>
      </trkpt>
      <trkpt lat="48.58214" lon="1.7924">
        <ele>152</ele>
        <time>2010-05-15T10:22:49Z</time>
      </trkpt>
      <trkpt lat="48.58215" lon="1.79242">
        <ele>152</ele>
        <time>2010-05-15T10:22:50Z</time>
      </trkpt>
      <trkpt lat="48.58216" lon="1.79244">
        <ele>152</ele>
        <time>2010-05-15T10:22:51Z</time>
      </trkpt>
      <trkpt lat="48.58217" lon="1.79246">
        <ele>152</ele>
        <time>2010-05-15T10:22:52Z</time>
      </trkpt>
      <trkpt lat="48.58218" lon="1.79249">
        <ele>152</ele>
        <time>2010-05-15T10:22:53Z</time>
      </trkpt>
      <trkpt lat="48.58218" lon="1.79252">
        <ele>152</ele>
        <time>2010-05-15T10:22:54Z</time>
      </trkpt>
      <trkpt lat="48.58219" lon="1.79254">
        <ele>152</ele>
        <time>2010-05-15T10:22:55Z</time>
      </trkpt>
      <trkpt lat="48.5822" lon="1.79258">
        <ele>152</ele>
        <time>2010-05-15T10:22:56Z</time>
      </trkpt>
      <trkpt lat="48.58221" lon="1.79261">
        <ele>152</ele>
        <time>2010-05-15T10:22:57Z</time>
      </trkpt>
      <trkpt lat="48.58222" lon="1.79264">
        <ele>152</ele>
        <time>2010-05-15T10:22:58Z</time>
      </trkpt>
      <trkpt lat="48.58223" lon="1.79266">
        <ele>152</ele>
        <time>2010-05-15T10:22:59Z</time>
      </trkpt>
      <trkpt lat="48.58224" lon="1.79268">
        <ele>152</ele>
        <time>2010-05-15T10:23:00Z</time>
      </trkpt>
      <trkpt lat="48.58225" lon="1.7927">
        <ele>152</ele>
        <time>2010-05-15T10:23:01Z</time>
      </trkpt>
      <trkpt lat="48.58226" lon="1.79272">
        <ele>152</ele>
        <time>2010-05-15T10:23:02Z</time>
      </trkpt>
      <trkpt lat="48.58227" lon="1.79274">
        <ele>152</ele>
        <time>2010-05-15T10:23:03Z</time>
      </trkpt>
      <trkpt lat="48.58227" lon="1.79276">
        <ele>152</ele>
        <time>2010-05-15T10:23:04Z</time>
      </trkpt>
      <trkpt lat="48.58229" lon="1.7928">
        <ele>152</ele>
        <time>2010-05-15T10:23:06Z</time>
      </trkpt>
      <trkpt lat="48.5823" lon="1.79281">
        <ele>152</ele>
        <time>2010-05-15T10:23:07Z</time>
      </trkpt>
      <trkpt lat="48.58232" lon="1.79283">
        <ele>152</ele>
        <time>2010-05-15T10:23:08Z</time>
      </trkpt>
      <trkpt lat="48.58232" lon="1.79285">
        <ele>152</ele>
        <time>2010-05-15T10:23:09Z</time>
      </trkpt>
      <trkpt lat="48.58234" lon="1.79287">
        <ele>152</ele>
        <time>2010-05-15T10:23:10Z</time>
      </trkpt>
      <trkpt lat="48.58235" lon="1.79289">
        <ele>152</ele>
        <time>2010-05-15T10:23:11Z</time>
      </trkpt>
      <trkpt lat="48.58237" lon="1.79291">
        <ele>152</ele>
        <time>2010-05-15T10:23:12Z</time>
      </trkpt>
      <trkpt lat="48.58238" lon="1.79292">
        <ele>153</ele>
        <time>2010-05-15T10:23:13Z</time>
      </trkpt>
      <trkpt lat="48.58238" lon="1.79294">
        <ele>154</ele>
        <time>2010-05-15T10:23:14Z</time>
      </trkpt>
      <trkpt lat="48.58239" lon="1.79296">
        <ele>154</ele>
        <time>2010-05-15T10:23:15Z</time>
      </trkpt>
      <trkpt lat="48.5824" lon="1.79298">
        <ele>155</ele>
        <time>2010-05-15T10:23:16Z</time>
      </trkpt>
      <trkpt lat="48.58241" lon="1.79301">
        <ele>155</ele>
        <time>2010-05-15T10:23:17Z</time>
      </trkpt>
      <trkpt lat="48.58243" lon="1.79303">
        <ele>155</ele>
        <time>2010-05-15T10:23:18Z</time>
      </trkpt>
      <trkpt lat="48.58244" lon="1.79306">
        <ele>155</ele>
        <time>2010-05-15T10:23:19Z</time>
      </trkpt>
      <trkpt lat="48.58245" lon="1.79308">
        <ele>156</ele>
        <time>2010-05-15T10:23:20Z</time>
      </trkpt>
      <trkpt lat="48.58246" lon="1.79309">
        <ele>156</ele>
        <time>2010-05-15T10:23:21Z</time>
      </trkpt>
      <trkpt lat="48.58248" lon="1.79313">
        <ele>156</ele>
        <time>2010-05-15T10:23:23Z</time>
      </trkpt>
      <trkpt lat="48.58249" lon="1.79315">
        <ele>156</ele>
        <time>2010-05-15T10:23:24Z</time>
      </trkpt>
      <trkpt lat="48.58249" lon="1.79317">
        <ele>156</ele>
        <time>2010-05-15T10:23:25Z</time>
      </trkpt>
      <trkpt lat="48.5825" lon="1.79319">
        <ele>156</ele>
        <time>2010-05-15T10:23:26Z</time>
      </trkpt>
      <trkpt lat="48.58251" lon="1.79321">
        <ele>156</ele>
        <time>2010-05-15T10:23:27Z</time>
      </trkpt>
      <trkpt lat="48.58252" lon="1.79323">
        <ele>156</ele>
        <time>2010-05-15T10:23:28Z</time>
      </trkpt>
      <trkpt lat="48.58253" lon="1.79325">
        <ele>157</ele>
        <time>2010-05-15T10:23:29Z</time>
      </trkpt>
      <trkpt lat="48.58254" lon="1.79327">
        <ele>157</ele>
        <time>2010-05-15T10:23:30Z</time>
      </trkpt>
      <trkpt lat="48.58256" lon="1.79329">
        <ele>158</ele>
        <time>2010-05-15T10:23:31Z</time>
      </trkpt>
      <trkpt lat="48.58257" lon="1.79331">
        <ele>159</ele>
        <time>2010-05-15T10:23:32Z</time>
      </trkpt>
      <trkpt lat="48.58258" lon="1.79333">
        <ele>159</ele>
        <time>2010-05-15T10:23:33Z</time>
      </trkpt>
      <trkpt lat="48.58258" lon="1.79335">
        <ele>160</ele>
        <time>2010-05-15T10:23:34Z</time>
      </trkpt>
      <trkpt lat="48.58259" lon="1.79338">
        <ele>160</ele>
        <time>2010-05-15T10:23:35Z</time>
      </trkpt>
      <trkpt lat="48.5826" lon="1.7934">
        <ele>160</ele>
        <time>2010-05-15T10:23:36Z</time>
      </trkpt>
      <trkpt lat="48.5826" lon="1.79342">
        <ele>160</ele>
        <time>2010-05-15T10:23:37Z</time>
      </trkpt>
      <trkpt lat="48.58261" lon="1.79344">
        <ele>160</ele>
        <time>2010-05-15T10:23:38Z</time>
      </trkpt>
      <trkpt lat="48.58262" lon="1.79346">
        <ele>160</ele>
        <time>2010-05-15T10:23:39Z</time>
      </trkpt>
      <trkpt lat="48.58263" lon="1.79348">
        <ele>160</ele>
        <time>2010-05-15T10:23:40Z</time>
      </trkpt>
      <trkpt lat="48.58264" lon="1.7935">
        <ele>160</ele>
        <time>2010-05-15T10:23:41Z</time>
      </trkpt>
      <trkpt lat="48.58265" lon="1.79352">
        <ele>160</ele>
        <time>2010-05-15T10:23:42Z</time>
      </trkpt>
      <trkpt lat="48.58267" lon="1.79354">
        <ele>160</ele>
        <time>2010-05-15T10:23:43Z</time>
      </trkpt>
      <trkpt lat="48.58268" lon="1.79356">
        <ele>160</ele>
        <time>2010-05-15T10:23:44Z</time>
      </trkpt>
      <trkpt lat="48.5827" lon="1.79358">
        <ele>160</ele>
        <time>2010-05-15T10:23:45Z</time>
      </trkpt>
      <trkpt lat="48.5827" lon="1.7936">
        <ele>160</ele>
        <time>2010-05-15T10:23:46Z</time>
      </trkpt>
      <trkpt lat="48.58271" lon="1.79362">
        <ele>160</ele>
        <time>2010-05-15T10:23:47Z</time>
      </trkpt>
      <trkpt lat="48.58273" lon="1.79365">
        <ele>160</ele>
        <time>2010-05-15T10:23:49Z</time>
      </trkpt>
      <trkpt lat="48.58274" lon="1.79367">
        <ele>160</ele>
        <time>2010-05-15T10:23:50Z</time>
      </trkpt>
      <trkpt lat="48.58275" lon="1.79369">
        <ele>160</ele>
        <time>2010-05-15T10:23:51Z</time>
      </trkpt>
      <trkpt lat="48.58276" lon="1.79371">
        <ele>160</ele>
        <time>2010-05-15T10:23:52Z</time>
      </trkpt>
      <trkpt lat="48.58277" lon="1.79373">
        <ele>160</ele>
        <time>2010-05-15T10:23:53Z</time>
      </trkpt>
      <trkpt lat="48.58278" lon="1.79375">
        <ele>160</ele>
        <time>2010-05-15T10:23:54Z</time>
      </trkpt>
      <trkpt lat="48.58279" lon="1.79376">
        <ele>160</ele>
        <time>2010-05-15T10:23:55Z</time>
      </trkpt>
      <trkpt lat="48.5828" lon="1.79378">
        <ele>159</ele>
        <time>2010-05-15T10:23:56Z</time>
      </trkpt>
      <trkpt lat="48.58281" lon="1.7938">
        <ele>158</ele>
        <time>2010-05-15T10:23:57Z</time>
      </trkpt>
      <trkpt lat="48.58281" lon="1.79382">
        <ele>157</ele>
        <time>2010-05-15T10:23:58Z</time>
      </trkpt>
      <trkpt lat="48.58282" lon="1.79384">
        <ele>156</ele>
        <time>2010-05-15T10:23:59Z</time>
      </trkpt>
      <trkpt lat="48.58284" lon="1.79385">
        <ele>156</ele>
        <time>2010-05-15T10:24:00Z</time>
      </trkpt>
      <trkpt lat="48.58285" lon="1.79387">
        <ele>156</ele>
        <time>2010-05-15T10:24:01Z</time>
      </trkpt>
      <trkpt lat="48.58286" lon="1.7939">
        <ele>156</ele>
        <time>2010-05-15T10:24:02Z</time>
      </trkpt>
      <trkpt lat="48.58287" lon="1.79391">
        <ele>156</ele>
        <time>2010-05-15T10:24:03Z</time>
      </trkpt>
      <trkpt lat="48.58288" lon="1.79394">
        <ele>155</ele>
        <time>2010-05-15T10:24:04Z</time>
      </trkpt>
      <trkpt lat="48.5829" lon="1.79396">
        <ele>155</ele>
        <time>2010-05-15T10:24:05Z</time>
      </trkpt>
      <trkpt lat="48.58291" lon="1.79398">
        <ele>155</ele>
        <time>2010-05-15T10:24:06Z</time>
      </trkpt>
      <trkpt lat="48.58292" lon="1.794">
        <ele>154</ele>
        <time>2010-05-15T10:24:07Z</time>
      </trkpt>
      <trkpt lat="48.58293" lon="1.79402">
        <ele>154</ele>
        <time>2010-05-15T10:24:08Z</time>
      </trkpt>
      <trkpt lat="48.58295" lon="1.79405">
        <ele>153</ele>
        <time>2010-05-15T10:24:10Z</time>
      </trkpt>
      <trkpt lat="48.58296" lon="1.79407">
        <ele>153</ele>
        <time>2010-05-15T10:24:11Z</time>
      </trkpt>
      <trkpt lat="48.58297" lon="1.79409">
        <ele>153</ele>
        <time>2010-05-15T10:24:12Z</time>
      </trkpt>
      <trkpt lat="48.58298" lon="1.79411">
        <ele>153</ele>
        <time>2010-05-15T10:24:13Z</time>
      </trkpt>
      <trkpt lat="48.583" lon="1.79413">
        <ele>153</ele>
        <time>2010-05-15T10:24:14Z</time>
      </trkpt>
      <trkpt lat="48.58301" lon="1.79415">
        <ele>153</ele>
        <time>2010-05-15T10:24:15Z</time>
      </trkpt>
      <trkpt lat="48.58302" lon="1.79417">
        <ele>153</ele>
        <time>2010-05-15T10:24:16Z</time>
      </trkpt>
      <trkpt lat="48.58303" lon="1.79419">
        <ele>153</ele>
        <time>2010-05-15T10:24:17Z</time>
      </trkpt>
      <trkpt lat="48.58304" lon="1.79421">
        <ele>153</ele>
        <time>2010-05-15T10:24:18Z</time>
      </trkpt>
      <trkpt lat="48.58305" lon="1.79423">
        <ele>153</ele>
        <time>2010-05-15T10:24:19Z</time>
      </trkpt>
      <trkpt lat="48.58306" lon="1.79425">
        <ele>153</ele>
        <time>2010-05-15T10:24:20Z</time>
      </trkpt>
      <trkpt lat="48.58307" lon="1.79427">
        <ele>153</ele>
        <time>2010-05-15T10:24:21Z</time>
      </trkpt>
      <trkpt lat="48.58308" lon="1.79429">
        <ele>153</ele>
        <time>2010-05-15T10:24:22Z</time>
      </trkpt>
      <trkpt lat="48.58309" lon="1.79431">
        <ele>153</ele>
        <time>2010-05-15T10:24:23Z</time>
      </trkpt>
      <trkpt lat="48.58311" lon="1.79433">
        <ele>153</ele>
        <time>2010-05-15T10:24:24Z</time>
      </trkpt>
      <trkpt lat="48.58312" lon="1.79435">
        <ele>153</ele>
        <time>2010-05-15T10:24:25Z</time>
      </trkpt>
      <trkpt lat="48.58313" lon="1.79437">
        <ele>152</ele>
        <time>2010-05-15T10:24:26Z</time>
      </trkpt>
      <trkpt lat="48.58315" lon="1.79439">
        <ele>152</ele>
        <time>2010-05-15T10:24:27Z</time>
      </trkpt>
      <trkpt lat="48.58316" lon="1.79441">
        <ele>152</ele>
        <time>2010-05-15T10:24:28Z</time>
      </trkpt>
      <trkpt lat="48.58317" lon="1.79443">
        <ele>152</ele>
        <time>2010-05-15T10:24:29Z</time>
      </trkpt>
      <trkpt lat="48.58318" lon="1.79445">
        <ele>152</ele>
        <time>2010-05-15T10:24:30Z</time>
      </trkpt>
      <trkpt lat="48.58319" lon="1.79447">
        <ele>152</ele>
        <time>2010-05-15T10:24:31Z</time>
      </trkpt>
      <trkpt lat="48.5832" lon="1.7945">
        <ele>152</ele>
        <time>2010-05-15T10:24:32Z</time>
      </trkpt>
      <trkpt lat="48.58322" lon="1.79452">
        <ele>152</ele>
        <time>2010-05-15T10:24:33Z</time>
      </trkpt>
      <trkpt lat="48.58323" lon="1.79454">
        <ele>152</ele>
        <time>2010-05-15T10:24:34Z</time>
      </trkpt>
      <trkpt lat="48.58324" lon="1.79456">
        <ele>152</ele>
        <time>2010-05-15T10:24:35Z</time>
      </trkpt>
      <trkpt lat="48.58326" lon="1.79459">
        <ele>152</ele>
        <time>2010-05-15T10:24:36Z</time>
      </trkpt>
      <trkpt lat="48.58328" lon="1.79461">
        <ele>152</ele>
        <time>2010-05-15T10:24:37Z</time>
      </trkpt>
      <trkpt lat="48.58329" lon="1.79463">
        <ele>152</ele>
        <time>2010-05-15T10:24:38Z</time>
      </trkpt>
      <trkpt lat="48.58332" lon="1.79466">
        <ele>152</ele>
        <time>2010-05-15T10:24:40Z</time>
      </trkpt>
      <trkpt lat="48.58333" lon="1.79468">
        <ele>152</ele>
        <time>2010-05-15T10:24:41Z</time>
      </trkpt>
      <trkpt lat="48.58334" lon="1.7947">
        <ele>152</ele>
        <time>2010-05-15T10:24:42Z</time>
      </trkpt>
      <trkpt lat="48.58335" lon="1.79471">
        <ele>152</ele>
        <time>2010-05-15T10:24:43Z</time>
      </trkpt>
      <trkpt lat="48.58336" lon="1.79473">
        <ele>152</ele>
        <time>2010-05-15T10:24:44Z</time>
      </trkpt>
      <trkpt lat="48.58337" lon="1.79475">
        <ele>152</ele>
        <time>2010-05-15T10:24:45Z</time>
      </trkpt>
      <trkpt lat="48.58338" lon="1.79477">
        <ele>152</ele>
        <time>2010-05-15T10:24:46Z</time>
      </trkpt>
      <trkpt lat="48.58339" lon="1.79479">
        <ele>152</ele>
        <time>2010-05-15T10:24:47Z</time>
      </trkpt>
      <trkpt lat="48.58341" lon="1.79482">
        <ele>151</ele>
        <time>2010-05-15T10:24:49Z</time>
      </trkpt>
      <trkpt lat="48.58343" lon="1.79485">
        <ele>151</ele>
        <time>2010-05-15T10:24:51Z</time>
      </trkpt>
      <trkpt lat="48.58344" lon="1.79486">
        <ele>151</ele>
        <time>2010-05-15T10:24:52Z</time>
      </trkpt>
      <trkpt lat="48.58345" lon="1.79488">
        <ele>151</ele>
        <time>2010-05-15T10:24:53Z</time>
      </trkpt>
      <trkpt lat="48.58346" lon="1.7949">
        <ele>151</ele>
        <time>2010-05-15T10:24:54Z</time>
      </trkpt>
      <trkpt lat="48.58348" lon="1.79491">
        <ele>151</ele>
        <time>2010-05-15T10:24:55Z</time>
      </trkpt>
      <trkpt lat="48.58349" lon="1.79493">
        <ele>150</ele>
        <time>2010-05-15T10:24:56Z</time>
      </trkpt>
      <trkpt lat="48.58351" lon="1.79495">
        <ele>150</ele>
        <time>2010-05-15T10:24:57Z</time>
      </trkpt>
      <trkpt lat="48.58353" lon="1.79497">
        <ele>150</ele>
        <time>2010-05-15T10:24:58Z</time>
      </trkpt>
      <trkpt lat="48.58354" lon="1.79499">
        <ele>150</ele>
        <time>2010-05-15T10:24:59Z</time>
      </trkpt>
      <trkpt lat="48.58357" lon="1.79501">
        <ele>150</ele>
        <time>2010-05-15T10:25:00Z</time>
      </trkpt>
      <trkpt lat="48.58358" lon="1.79502">
        <ele>150</ele>
        <time>2010-05-15T10:25:01Z</time>
      </trkpt>
      <trkpt lat="48.5836" lon="1.79504">
        <ele>150</ele>
        <time>2010-05-15T10:25:02Z</time>
      </trkpt>
      <trkpt lat="48.58361" lon="1.79506">
        <ele>150</ele>
        <time>2010-05-15T10:25:03Z</time>
      </trkpt>
      <trkpt lat="48.58362" lon="1.79507">
        <ele>150</ele>
        <time>2010-05-15T10:25:04Z</time>
      </trkpt>
      <trkpt lat="48.58363" lon="1.79509">
        <ele>150</ele>
        <time>2010-05-15T10:25:05Z</time>
      </trkpt>
      <trkpt lat="48.58364" lon="1.7951">
        <ele>150</ele>
        <time>2010-05-15T10:25:06Z</time>
      </trkpt>
      <trkpt lat="48.58366" lon="1.79512">
        <ele>150</ele>
        <time>2010-05-15T10:25:07Z</time>
      </trkpt>
      <trkpt lat="48.58367" lon="1.79514">
        <ele>150</ele>
        <time>2010-05-15T10:25:08Z</time>
      </trkpt>
      <trkpt lat="48.58369" lon="1.79515">
        <ele>150</ele>
        <time>2010-05-15T10:25:09Z</time>
      </trkpt>
      <trkpt lat="48.5837" lon="1.79517">
        <ele>150</ele>
        <time>2010-05-15T10:25:10Z</time>
      </trkpt>
      <trkpt lat="48.58371" lon="1.79518">
        <ele>150</ele>
        <time>2010-05-15T10:25:11Z</time>
      </trkpt>
      <trkpt lat="48.58372" lon="1.7952">
        <ele>150</ele>
        <time>2010-05-15T10:25:12Z</time>
      </trkpt>
      <trkpt lat="48.58373" lon="1.79522">
        <ele>150</ele>
        <time>2010-05-15T10:25:13Z</time>
      </trkpt>
      <trkpt lat="48.58374" lon="1.79524">
        <ele>150</ele>
        <time>2010-05-15T10:25:14Z</time>
      </trkpt>
      <trkpt lat="48.58375" lon="1.79525">
        <ele>150</ele>
        <time>2010-05-15T10:25:15Z</time>
      </trkpt>
      <trkpt lat="48.58377" lon="1.79527">
        <ele>150</ele>
        <time>2010-05-15T10:25:16Z</time>
      </trkpt>
      <trkpt lat="48.58378" lon="1.79529">
        <ele>150</ele>
        <time>2010-05-15T10:25:17Z</time>
      </trkpt>
      <trkpt lat="48.58379" lon="1.7953">
        <ele>150</ele>
        <time>2010-05-15T10:25:18Z</time>
      </trkpt>
      <trkpt lat="48.58381" lon="1.79532">
        <ele>150</ele>
        <time>2010-05-15T10:25:19Z</time>
      </trkpt>
      <trkpt lat="48.58382" lon="1.79534">
        <ele>150</ele>
        <time>2010-05-15T10:25:20Z</time>
      </trkpt>
      <trkpt lat="48.58383" lon="1.79536">
        <ele>150</ele>
        <time>2010-05-15T10:25:21Z</time>
      </trkpt>
      <trkpt lat="48.58384" lon="1.79537">
        <ele>150</ele>
        <time>2010-05-15T10:25:22Z</time>
      </trkpt>
      <trkpt lat="48.58386" lon="1.7954">
        <ele>150</ele>
        <time>2010-05-15T10:25:23Z</time>
      </trkpt>
      <trkpt lat="48.58387" lon="1.79541">
        <ele>150</ele>
        <time>2010-05-15T10:25:24Z</time>
      </trkpt>
      <trkpt lat="48.58389" lon="1.79543">
        <ele>150</ele>
        <time>2010-05-15T10:25:25Z</time>
      </trkpt>
      <trkpt lat="48.5839" lon="1.79545">
        <ele>150</ele>
        <time>2010-05-15T10:25:26Z</time>
      </trkpt>
      <trkpt lat="48.58392" lon="1.79547">
        <ele>150</ele>
        <time>2010-05-15T10:25:27Z</time>
      </trkpt>
      <trkpt lat="48.58393" lon="1.79549">
        <ele>150</ele>
        <time>2010-05-15T10:25:28Z</time>
      </trkpt>
      <trkpt lat="48.58395" lon="1.79552">
        <ele>150</ele>
        <time>2010-05-15T10:25:29Z</time>
      </trkpt>
      <trkpt lat="48.58396" lon="1.79554">
        <ele>150</ele>
        <time>2010-05-15T10:25:30Z</time>
      </trkpt>
      <trkpt lat="48.58397" lon="1.79557">
        <ele>150</ele>
        <time>2010-05-15T10:25:31Z</time>
      </trkpt>
      <trkpt lat="48.58398" lon="1.79559">
        <ele>150</ele>
        <time>2010-05-15T10:25:32Z</time>
      </trkpt>
      <trkpt lat="48.58399" lon="1.79561">
        <ele>150</ele>
        <time>2010-05-15T10:25:33Z</time>
      </trkpt>
      <trkpt lat="48.584" lon="1.79563">
        <ele>150</ele>
        <time>2010-05-15T10:25:34Z</time>
      </trkpt>
      <trkpt lat="48.584" lon="1.79566">
        <ele>150</ele>
        <time>2010-05-15T10:25:35Z</time>
      </trkpt>
      <trkpt lat="48.58401" lon="1.79568">
        <ele>150</ele>
        <time>2010-05-15T10:25:36Z</time>
      </trkpt>
      <trkpt lat="48.58402" lon="1.7957">
        <ele>150</ele>
        <time>2010-05-15T10:25:37Z</time>
      </trkpt>
      <trkpt lat="48.58403" lon="1.79572">
        <ele>150</ele>
        <time>2010-05-15T10:25:38Z</time>
      </trkpt>
      <trkpt lat="48.58404" lon="1.79574">
        <ele>150</ele>
        <time>2010-05-15T10:25:39Z</time>
      </trkpt>
      <trkpt lat="48.58406" lon="1.79576">
        <ele>150</ele>
        <time>2010-05-15T10:25:40Z</time>
      </trkpt>
      <trkpt lat="48.58408" lon="1.79579">
        <ele>150</ele>
        <time>2010-05-15T10:25:41Z</time>
      </trkpt>
      <trkpt lat="48.58409" lon="1.79581">
        <ele>150</ele>
        <time>2010-05-15T10:25:42Z</time>
      </trkpt>
      <trkpt lat="48.58411" lon="1.79584">
        <ele>150</ele>
        <time>2010-05-15T10:25:43Z</time>
      </trkpt>
      <trkpt lat="48.58412" lon="1.79587">
        <ele>150</ele>
        <time>2010-05-15T10:25:44Z</time>
      </trkpt>
      <trkpt lat="48.58412" lon="1.79589">
        <ele>150</ele>
        <time>2010-05-15T10:25:45Z</time>
      </trkpt>
      <trkpt lat="48.58413" lon="1.79592">
        <ele>150</ele>
        <time>2010-05-15T10:25:46Z</time>
      </trkpt>
      <trkpt lat="48.58414" lon="1.79594">
        <ele>150</ele>
        <time>2010-05-15T10:25:47Z</time>
      </trkpt>
      <trkpt lat="48.58414" lon="1.79596">
        <ele>150</ele>
        <time>2010-05-15T10:25:48Z</time>
      </trkpt>
      <trkpt lat="48.58415" lon="1.79599">
        <ele>150</ele>
        <time>2010-05-15T10:25:49Z</time>
      </trkpt>
      <trkpt lat="48.58416" lon="1.79601">
        <ele>150</ele>
        <time>2010-05-15T10:25:50Z</time>
      </trkpt>
      <trkpt lat="48.58416" lon="1.79603">
        <ele>150</ele>
        <time>2010-05-15T10:25:51Z</time>
      </trkpt>
      <trkpt lat="48.58417" lon="1.79605">
        <ele>150</ele>
        <time>2010-05-15T10:25:52Z</time>
      </trkpt>
      <trkpt lat="48.58418" lon="1.79607">
        <ele>150</ele>
        <time>2010-05-15T10:25:53Z</time>
      </trkpt>
      <trkpt lat="48.58418" lon="1.7961">
        <ele>150</ele>
        <time>2010-05-15T10:25:54Z</time>
      </trkpt>
      <trkpt lat="48.58419" lon="1.79612">
        <ele>150</ele>
        <time>2010-05-15T10:25:55Z</time>
      </trkpt>
      <trkpt lat="48.5842" lon="1.79614">
        <ele>150</ele>
        <time>2010-05-15T10:25:56Z</time>
      </trkpt>
      <trkpt lat="48.58421" lon="1.79616">
        <ele>150</ele>
        <time>2010-05-15T10:25:57Z</time>
      </trkpt>
      <trkpt lat="48.58421" lon="1.79618">
        <ele>150</ele>
        <time>2010-05-15T10:25:58Z</time>
      </trkpt>
      <trkpt lat="48.58422" lon="1.7962">
        <ele>150</ele>
        <time>2010-05-15T10:25:59Z</time>
      </trkpt>
      <trkpt lat="48.58423" lon="1.79622">
        <ele>150</ele>
        <time>2010-05-15T10:26:00Z</time>
      </trkpt>
      <trkpt lat="48.58423" lon="1.79624">
        <ele>150</ele>
        <time>2010-05-15T10:26:01Z</time>
      </trkpt>
      <trkpt lat="48.58424" lon="1.79626">
        <ele>150</ele>
        <time>2010-05-15T10:26:02Z</time>
      </trkpt>
      <trkpt lat="48.58425" lon="1.79628">
        <ele>150</ele>
        <time>2010-05-15T10:26:03Z</time>
      </trkpt>
      <trkpt lat="48.58425" lon="1.7963">
        <ele>150</ele>
        <time>2010-05-15T10:26:04Z</time>
      </trkpt>
      <trkpt lat="48.58425" lon="1.79633">
        <ele>150</ele>
        <time>2010-05-15T10:26:05Z</time>
      </trkpt>
      <trkpt lat="48.58426" lon="1.79635">
        <ele>150</ele>
        <time>2010-05-15T10:26:06Z</time>
      </trkpt>
      <trkpt lat="48.58427" lon="1.79638">
        <ele>150</ele>
        <time>2010-05-15T10:26:08Z</time>
      </trkpt>
      <trkpt lat="48.58428" lon="1.7964">
        <ele>150</ele>
        <time>2010-05-15T10:26:09Z</time>
      </trkpt>
      <trkpt lat="48.58428" lon="1.79642">
        <ele>150</ele>
        <time>2010-05-15T10:26:10Z</time>
      </trkpt>
      <trkpt lat="48.58429" lon="1.79644">
        <ele>150</ele>
        <time>2010-05-15T10:26:11Z</time>
      </trkpt>
      <trkpt lat="48.5843" lon="1.79646">
        <ele>150</ele>
        <time>2010-05-15T10:26:12Z</time>
      </trkpt>
      <trkpt lat="48.58431" lon="1.79648">
        <ele>150</ele>
        <time>2010-05-15T10:26:13Z</time>
      </trkpt>
      <trkpt lat="48.58432" lon="1.79651">
        <ele>150</ele>
        <time>2010-05-15T10:26:14Z</time>
      </trkpt>
      <trkpt lat="48.58434" lon="1.79652">
        <ele>150</ele>
        <time>2010-05-15T10:26:15Z</time>
      </trkpt>
      <trkpt lat="48.58435" lon="1.79654">
        <ele>150</ele>
        <time>2010-05-15T10:26:16Z</time>
      </trkpt>
      <trkpt lat="48.58436" lon="1.79657">
        <ele>150</ele>
        <time>2010-05-15T10:26:17Z</time>
      </trkpt>
      <trkpt lat="48.58437" lon="1.79659">
        <ele>150</ele>
        <time>2010-05-15T10:26:18Z</time>
      </trkpt>
      <trkpt lat="48.58437" lon="1.79662">
        <ele>150</ele>
        <time>2010-05-15T10:26:19Z</time>
      </trkpt>
      <trkpt lat="48.58438" lon="1.79664">
        <ele>150</ele>
        <time>2010-05-15T10:26:20Z</time>
      </trkpt>
      <trkpt lat="48.58439" lon="1.79666">
        <ele>150</ele>
        <time>2010-05-15T10:26:21Z</time>
      </trkpt>
      <trkpt lat="48.5844" lon="1.79667">
        <ele>150</ele>
        <time>2010-05-15T10:26:22Z</time>
      </trkpt>
      <trkpt lat="48.58441" lon="1.7967">
        <ele>150</ele>
        <time>2010-05-15T10:26:23Z</time>
      </trkpt>
      <trkpt lat="48.58441" lon="1.79672">
        <ele>150</ele>
        <time>2010-05-15T10:26:24Z</time>
      </trkpt>
      <trkpt lat="48.58442" lon="1.79674">
        <ele>150</ele>
        <time>2010-05-15T10:26:25Z</time>
      </trkpt>
      <trkpt lat="48.58443" lon="1.79676">
        <ele>150</ele>
        <time>2010-05-15T10:26:26Z</time>
      </trkpt>
      <trkpt lat="48.58444" lon="1.79678">
        <ele>150</ele>
        <time>2010-05-15T10:26:27Z</time>
      </trkpt>
      <trkpt lat="48.58445" lon="1.7968">
        <ele>150</ele>
        <time>2010-05-15T10:26:28Z</time>
      </trkpt>
      <trkpt lat="48.58446" lon="1.79682">
        <ele>150</ele>
        <time>2010-05-15T10:26:29Z</time>
      </trkpt>
      <trkpt lat="48.58447" lon="1.79684">
        <ele>150</ele>
        <time>2010-05-15T10:26:30Z</time>
      </trkpt>
      <trkpt lat="48.58448" lon="1.79686">
        <ele>150</ele>
        <time>2010-05-15T10:26:31Z</time>
      </trkpt>
      <trkpt lat="48.58449" lon="1.79687">
        <ele>150</ele>
        <time>2010-05-15T10:26:32Z</time>
      </trkpt>
      <trkpt lat="48.5845" lon="1.79689">
        <ele>150</ele>
        <time>2010-05-15T10:26:34Z</time>
      </trkpt>
      <trkpt lat="48.5845" lon="1.79687">
        <ele>150</ele>
        <time>2010-05-15T10:26:37Z</time>
      </trkpt>
      <trkpt lat="48.58451" lon="1.7969">
        <ele>151</ele>
        <time>2010-05-15T10:26:39Z</time>
      </trkpt>
      <trkpt lat="48.58452" lon="1.79692">
        <ele>152</ele>
        <time>2010-05-15T10:26:40Z</time>
      </trkpt>
      <trkpt lat="48.58452" lon="1.79694">
        <ele>152</ele>
        <time>2010-05-15T10:26:42Z</time>
      </trkpt>
      <trkpt lat="48.58454" lon="1.79694">
        <ele>153</ele>
        <time>2010-05-15T10:26:45Z</time>
      </trkpt>
      <trkpt lat="48.58455" lon="1.79696">
        <ele>153</ele>
        <time>2010-05-15T10:26:47Z</time>
      </trkpt>
      <trkpt lat="48.58456" lon="1.79698">
        <ele>153</ele>
        <time>2010-05-15T10:26:48Z</time>
      </trkpt>
      <trkpt lat="48.58456" lon="1.797">
        <ele>154</ele>
        <time>2010-05-15T10:26:50Z</time>
      </trkpt>
      <trkpt lat="48.58456" lon="1.79702">
        <ele>154</ele>
        <time>2010-05-15T10:26:57Z</time>
      </trkpt>
      <trkpt lat="48.58457" lon="1.79703">
        <ele>154</ele>
        <time>2010-05-15T10:26:58Z</time>
      </trkpt>
      <trkpt lat="48.58458" lon="1.79705">
        <ele>155</ele>
        <time>2010-05-15T10:26:59Z</time>
      </trkpt>
      <trkpt lat="48.58459" lon="1.79707">
        <ele>155</ele>
        <time>2010-05-15T10:27:00Z</time>
      </trkpt>
      <trkpt lat="48.58459" lon="1.79709">
        <ele>155</ele>
        <time>2010-05-15T10:27:03Z</time>
      </trkpt>
      <trkpt lat="48.58461" lon="1.79711">
        <ele>155</ele>
        <time>2010-05-15T10:27:05Z</time>
      </trkpt>
      <trkpt lat="48.58462" lon="1.79713">
        <ele>155</ele>
        <time>2010-05-15T10:27:06Z</time>
      </trkpt>
      <trkpt lat="48.58464" lon="1.79715">
        <ele>155</ele>
        <time>2010-05-15T10:27:08Z</time>
      </trkpt>
      <trkpt lat="48.58464" lon="1.79717">
        <ele>155</ele>
        <time>2010-05-15T10:27:13Z</time>
      </trkpt>
      <trkpt lat="48.58465" lon="1.79718">
        <ele>155</ele>
        <time>2010-05-15T10:27:15Z</time>
      </trkpt>
      <trkpt lat="48.58468" lon="1.7972">
        <ele>155</ele>
        <time>2010-05-15T10:27:17Z</time>
      </trkpt>
      <trkpt lat="48.58469" lon="1.79722">
        <ele>155</ele>
        <time>2010-05-15T10:27:18Z</time>
      </trkpt>
      <trkpt lat="48.58471" lon="1.79725">
        <ele>155</ele>
        <time>2010-05-15T10:27:20Z</time>
      </trkpt>
      <trkpt lat="48.58473" lon="1.79727">
        <ele>155</ele>
        <time>2010-05-15T10:27:21Z</time>
      </trkpt>
      <trkpt lat="48.58475" lon="1.79729">
        <ele>155</ele>
        <time>2010-05-15T10:27:23Z</time>
      </trkpt>
      <trkpt lat="48.58476" lon="1.7973">
        <ele>155</ele>
        <time>2010-05-15T10:27:25Z</time>
      </trkpt>
      <trkpt lat="48.58477" lon="1.79732">
        <ele>155</ele>
        <time>2010-05-15T10:27:30Z</time>
      </trkpt>
      <trkpt lat="48.58479" lon="1.79735">
        <ele>155</ele>
        <time>2010-05-15T10:27:32Z</time>
      </trkpt>
      <trkpt lat="48.5848" lon="1.79736">
        <ele>155</ele>
        <time>2010-05-15T10:27:37Z</time>
      </trkpt>
      <trkpt lat="48.58482" lon="1.79738">
        <ele>155</ele>
        <time>2010-05-15T10:27:39Z</time>
      </trkpt>
      <trkpt lat="48.58483" lon="1.7974">
        <ele>155</ele>
        <time>2010-05-15T10:27:45Z</time>
      </trkpt>
      <trkpt lat="48.58485" lon="1.79742">
        <ele>155</ele>
        <time>2010-05-15T10:27:46Z</time>
      </trkpt>
      <trkpt lat="48.58486" lon="1.79743">
        <ele>155</ele>
        <time>2010-05-15T10:27:47Z</time>
      </trkpt>
      <trkpt lat="48.58487" lon="1.79745">
        <ele>155</ele>
        <time>2010-05-15T10:27:48Z</time>
      </trkpt>
      <trkpt lat="48.58488" lon="1.79747">
        <ele>155</ele>
        <time>2010-05-15T10:27:49Z</time>
      </trkpt>
      <trkpt lat="48.58489" lon="1.79749">
        <ele>155</ele>
        <time>2010-05-15T10:27:50Z</time>
      </trkpt>
      <trkpt lat="48.5849" lon="1.79752">
        <ele>155</ele>
        <time>2010-05-15T10:27:51Z</time>
      </trkpt>
      <trkpt lat="48.58491" lon="1.79754">
        <ele>155</ele>
        <time>2010-05-15T10:27:52Z</time>
      </trkpt>
      <trkpt lat="48.58493" lon="1.79755">
        <ele>155</ele>
        <time>2010-05-15T10:27:53Z</time>
      </trkpt>
      <trkpt lat="48.58494" lon="1.79757">
        <ele>155</ele>
        <time>2010-05-15T10:27:54Z</time>
      </trkpt>
      <trkpt lat="48.58495" lon="1.79758">
        <ele>155</ele>
        <time>2010-05-15T10:27:55Z</time>
      </trkpt>
      <trkpt lat="48.58497" lon="1.7976">
        <ele>155</ele>
        <time>2010-05-15T10:27:56Z</time>
      </trkpt>
      <trkpt lat="48.58498" lon="1.79761">
        <ele>155</ele>
        <time>2010-05-15T10:27:57Z</time>
      </trkpt>
      <trkpt lat="48.58499" lon="1.79763">
        <ele>155</ele>
        <time>2010-05-15T10:27:58Z</time>
      </trkpt>
      <trkpt lat="48.585" lon="1.79765">
        <ele>155</ele>
        <time>2010-05-15T10:27:59Z</time>
      </trkpt>
      <trkpt lat="48.58501" lon="1.79767">
        <ele>155</ele>
        <time>2010-05-15T10:28:00Z</time>
      </trkpt>
      <trkpt lat="48.58502" lon="1.79769">
        <ele>155</ele>
        <time>2010-05-15T10:28:01Z</time>
      </trkpt>
      <trkpt lat="48.58503" lon="1.7977">
        <ele>155</ele>
        <time>2010-05-15T10:28:02Z</time>
      </trkpt>
      <trkpt lat="48.58505" lon="1.79772">
        <ele>155</ele>
        <time>2010-05-15T10:28:03Z</time>
      </trkpt>
      <trkpt lat="48.58506" lon="1.79774">
        <ele>155</ele>
        <time>2010-05-15T10:28:04Z</time>
      </trkpt>
      <trkpt lat="48.58507" lon="1.79776">
        <ele>155</ele>
        <time>2010-05-15T10:28:05Z</time>
      </trkpt>
      <trkpt lat="48.58508" lon="1.79777">
        <ele>155</ele>
        <time>2010-05-15T10:28:06Z</time>
      </trkpt>
      <trkpt lat="48.5851" lon="1.79779">
        <ele>155</ele>
        <time>2010-05-15T10:28:07Z</time>
      </trkpt>
      <trkpt lat="48.58511" lon="1.7978">
        <ele>155</ele>
        <time>2010-05-15T10:28:08Z</time>
      </trkpt>
      <trkpt lat="48.58512" lon="1.79782">
        <ele>155</ele>
        <time>2010-05-15T10:28:09Z</time>
      </trkpt>
      <trkpt lat="48.58514" lon="1.79783">
        <ele>155</ele>
        <time>2010-05-15T10:28:10Z</time>
      </trkpt>
      <trkpt lat="48.58515" lon="1.79784">
        <ele>155</ele>
        <time>2010-05-15T10:28:11Z</time>
      </trkpt>
      <trkpt lat="48.58516" lon="1.79786">
        <ele>155</ele>
        <time>2010-05-15T10:28:12Z</time>
      </trkpt>
      <trkpt lat="48.58518" lon="1.79788">
        <ele>155</ele>
        <time>2010-05-15T10:28:14Z</time>
      </trkpt>
      <trkpt lat="48.58519" lon="1.79791">
        <ele>155</ele>
        <time>2010-05-15T10:28:16Z</time>
      </trkpt>
      <trkpt lat="48.5852" lon="1.79792">
        <ele>155</ele>
        <time>2010-05-15T10:28:25Z</time>
      </trkpt>
      <trkpt lat="48.58519" lon="1.7979">
        <ele>155</ele>
        <time>2010-05-15T10:28:38Z</time>
      </trkpt>
      <trkpt lat="48.58519" lon="1.79788">
        <ele>154</ele>
        <time>2010-05-15T10:29:15Z</time>
      </trkpt>
      <trkpt lat="48.5852" lon="1.7979">
        <ele>154</ele>
        <time>2010-05-15T10:29:21Z</time>
      </trkpt>
      <trkpt lat="48.58523" lon="1.79793">
        <ele>154</ele>
        <time>2010-05-15T10:29:23Z</time>
      </trkpt>
      <trkpt lat="48.58524" lon="1.79795">
        <ele>154</ele>
        <time>2010-05-15T10:29:24Z</time>
      </trkpt>
      <trkpt lat="48.58526" lon="1.79797">
        <ele>154</ele>
        <time>2010-05-15T10:29:25Z</time>
      </trkpt>
      <trkpt lat="48.58527" lon="1.79799">
        <ele>154</ele>
        <time>2010-05-15T10:29:26Z</time>
      </trkpt>
      <trkpt lat="48.58528" lon="1.79801">
        <ele>154</ele>
        <time>2010-05-15T10:29:27Z</time>
      </trkpt>
      <trkpt lat="48.5853" lon="1.79803">
        <ele>154</ele>
        <time>2010-05-15T10:29:28Z</time>
      </trkpt>
      <trkpt lat="48.58531" lon="1.79805">
        <ele>154</ele>
        <time>2010-05-15T10:29:29Z</time>
      </trkpt>
      <trkpt lat="48.58533" lon="1.79807">
        <ele>154</ele>
        <time>2010-05-15T10:29:30Z</time>
      </trkpt>
      <trkpt lat="48.58534" lon="1.79809">
        <ele>154</ele>
        <time>2010-05-15T10:29:31Z</time>
      </trkpt>
      <trkpt lat="48.58535" lon="1.79811">
        <ele>154</ele>
        <time>2010-05-15T10:29:32Z</time>
      </trkpt>
      <trkpt lat="48.58537" lon="1.79812">
        <ele>154</ele>
        <time>2010-05-15T10:29:33Z</time>
      </trkpt>
      <trkpt lat="48.58538" lon="1.79814">
        <ele>154</ele>
        <time>2010-05-15T10:29:34Z</time>
      </trkpt>
      <trkpt lat="48.58539" lon="1.79816">
        <ele>154</ele>
        <time>2010-05-15T10:29:35Z</time>
      </trkpt>
      <trkpt lat="48.5854" lon="1.79817">
        <ele>154</ele>
        <time>2010-05-15T10:29:36Z</time>
      </trkpt>
      <trkpt lat="48.58542" lon="1.79819">
        <ele>154</ele>
        <time>2010-05-15T10:29:37Z</time>
      </trkpt>
      <trkpt lat="48.58543" lon="1.79821">
        <ele>154</ele>
        <time>2010-05-15T10:29:38Z</time>
      </trkpt>
      <trkpt lat="48.58544" lon="1.79823">
        <ele>154</ele>
        <time>2010-05-15T10:29:39Z</time>
      </trkpt>
      <trkpt lat="48.58545" lon="1.79825">
        <ele>154</ele>
        <time>2010-05-15T10:29:40Z</time>
      </trkpt>
      <trkpt lat="48.58547" lon="1.79827">
        <ele>154</ele>
        <time>2010-05-15T10:29:41Z</time>
      </trkpt>
      <trkpt lat="48.58548" lon="1.79828">
        <ele>154</ele>
        <time>2010-05-15T10:29:42Z</time>
      </trkpt>
      <trkpt lat="48.58549" lon="1.7983">
        <ele>154</ele>
        <time>2010-05-15T10:29:43Z</time>
      </trkpt>
      <trkpt lat="48.5855" lon="1.79832">
        <ele>154</ele>
        <time>2010-05-15T10:29:44Z</time>
      </trkpt>
      <trkpt lat="48.58551" lon="1.79833">
        <ele>154</ele>
        <time>2010-05-15T10:29:45Z</time>
      </trkpt>
      <trkpt lat="48.58552" lon="1.79835">
        <ele>154</ele>
        <time>2010-05-15T10:29:46Z</time>
      </trkpt>
      <trkpt lat="48.58553" lon="1.79837">
        <ele>154</ele>
        <time>2010-05-15T10:29:47Z</time>
      </trkpt>
      <trkpt lat="48.58555" lon="1.79839">
        <ele>154</ele>
        <time>2010-05-15T10:29:48Z</time>
      </trkpt>
      <trkpt lat="48.58556" lon="1.7984">
        <ele>154</ele>
        <time>2010-05-15T10:29:49Z</time>
      </trkpt>
      <trkpt lat="48.58557" lon="1.79842">
        <ele>153</ele>
        <time>2010-05-15T10:29:50Z</time>
      </trkpt>
      <trkpt lat="48.58558" lon="1.79844">
        <ele>153</ele>
        <time>2010-05-15T10:29:51Z</time>
      </trkpt>
      <trkpt lat="48.5856" lon="1.79846">
        <ele>153</ele>
        <time>2010-05-15T10:29:52Z</time>
      </trkpt>
      <trkpt lat="48.58561" lon="1.79847">
        <ele>153</ele>
        <time>2010-05-15T10:29:53Z</time>
      </trkpt>
      <trkpt lat="48.58562" lon="1.79849">
        <ele>153</ele>
        <time>2010-05-15T10:29:54Z</time>
      </trkpt>
      <trkpt lat="48.58563" lon="1.79851">
        <ele>153</ele>
        <time>2010-05-15T10:29:55Z</time>
      </trkpt>
      <trkpt lat="48.58564" lon="1.79853">
        <ele>152</ele>
        <time>2010-05-15T10:29:56Z</time>
      </trkpt>
      <trkpt lat="48.58566" lon="1.79855">
        <ele>152</ele>
        <time>2010-05-15T10:29:57Z</time>
      </trkpt>
      <trkpt lat="48.58567" lon="1.79856">
        <ele>152</ele>
        <time>2010-05-15T10:29:58Z</time>
      </trkpt>
      <trkpt lat="48.58569" lon="1.79858">
        <ele>152</ele>
        <time>2010-05-15T10:29:59Z</time>
      </trkpt>
      <trkpt lat="48.5857" lon="1.7986">
        <ele>152</ele>
        <time>2010-05-15T10:30:00Z</time>
      </trkpt>
      <trkpt lat="48.58571" lon="1.79861">
        <ele>152</ele>
        <time>2010-05-15T10:30:01Z</time>
      </trkpt>
      <trkpt lat="48.58572" lon="1.79863">
        <ele>152</ele>
        <time>2010-05-15T10:30:02Z</time>
      </trkpt>
      <trkpt lat="48.58573" lon="1.79865">
        <ele>152</ele>
        <time>2010-05-15T10:30:03Z</time>
      </trkpt>
      <trkpt lat="48.58574" lon="1.79866">
        <ele>152</ele>
        <time>2010-05-15T10:30:04Z</time>
      </trkpt>
      <trkpt lat="48.58577" lon="1.79869">
        <ele>152</ele>
        <time>2010-05-15T10:30:06Z</time>
      </trkpt>
      <trkpt lat="48.58578" lon="1.79871">
        <ele>152</ele>
        <time>2010-05-15T10:30:07Z</time>
      </trkpt>
      <trkpt lat="48.58579" lon="1.79873">
        <ele>152</ele>
        <time>2010-05-15T10:30:08Z</time>
      </trkpt>
      <trkpt lat="48.58582" lon="1.79876">
        <ele>152</ele>
        <time>2010-05-15T10:30:10Z</time>
      </trkpt>
      <trkpt lat="48.58583" lon="1.79877">
        <ele>152</ele>
        <time>2010-05-15T10:30:11Z</time>
      </trkpt>
      <trkpt lat="48.58585" lon="1.7988">
        <ele>152</ele>
        <time>2010-05-15T10:30:13Z</time>
      </trkpt>
      <trkpt lat="48.58586" lon="1.79881">
        <ele>152</ele>
        <time>2010-05-15T10:30:14Z</time>
      </trkpt>
      <trkpt lat="48.58588" lon="1.79883">
        <ele>152</ele>
        <time>2010-05-15T10:30:15Z</time>
      </trkpt>
      <trkpt lat="48.58589" lon="1.79884">
        <ele>152</ele>
        <time>2010-05-15T10:30:16Z</time>
      </trkpt>
      <trkpt lat="48.5859" lon="1.79886">
        <ele>152</ele>
        <time>2010-05-15T10:30:17Z</time>
      </trkpt>
      <trkpt lat="48.58591" lon="1.79888">
        <ele>152</ele>
        <time>2010-05-15T10:30:18Z</time>
      </trkpt>
      <trkpt lat="48.58592" lon="1.7989">
        <ele>152</ele>
        <time>2010-05-15T10:30:19Z</time>
      </trkpt>
      <trkpt lat="48.58593" lon="1.79892">
        <ele>152</ele>
        <time>2010-05-15T10:30:20Z</time>
      </trkpt>
      <trkpt lat="48.58594" lon="1.79894">
        <ele>152</ele>
        <time>2010-05-15T10:30:21Z</time>
      </trkpt>
      <trkpt lat="48.58594" lon="1.79896">
        <ele>152</ele>
        <time>2010-05-15T10:30:22Z</time>
      </trkpt>
      <trkpt lat="48.58594" lon="1.79898">
        <ele>152</ele>
        <time>2010-05-15T10:30:23Z</time>
      </trkpt>
      <trkpt lat="48.58593" lon="1.799">
        <ele>152</ele>
        <time>2010-05-15T10:30:24Z</time>
      </trkpt>
      <trkpt lat="48.58592" lon="1.79902">
        <ele>152</ele>
        <time>2010-05-15T10:30:25Z</time>
      </trkpt>
      <trkpt lat="48.58591" lon="1.79904">
        <ele>152</ele>
        <time>2010-05-15T10:30:26Z</time>
      </trkpt>
      <trkpt lat="48.5859" lon="1.79905">
        <ele>152</ele>
        <time>2010-05-15T10:30:27Z</time>
      </trkpt>
      <trkpt lat="48.58589" lon="1.79906">
        <ele>151</ele>
        <time>2010-05-15T10:30:28Z</time>
      </trkpt>
      <trkpt lat="48.58587" lon="1.79907">
        <ele>151</ele>
        <time>2010-05-15T10:30:29Z</time>
      </trkpt>
      <trkpt lat="48.58586" lon="1.79908">
        <ele>151</ele>
        <time>2010-05-15T10:30:30Z</time>
      </trkpt>
      <trkpt lat="48.58584" lon="1.79909">
        <ele>151</ele>
        <time>2010-05-15T10:30:31Z</time>
      </trkpt>
      <trkpt lat="48.58583" lon="1.79911">
        <ele>151</ele>
        <time>2010-05-15T10:30:32Z</time>
      </trkpt>
      <trkpt lat="48.58582" lon="1.79912">
        <ele>151</ele>
        <time>2010-05-15T10:30:33Z</time>
      </trkpt>
      <trkpt lat="48.58581" lon="1.79913">
        <ele>151</ele>
        <time>2010-05-15T10:30:34Z</time>
      </trkpt>
      <trkpt lat="48.5858" lon="1.79914">
        <ele>151</ele>
        <time>2010-05-15T10:30:35Z</time>
      </trkpt>
      <trkpt lat="48.58578" lon="1.79915">
        <ele>151</ele>
        <time>2010-05-15T10:30:36Z</time>
      </trkpt>
      <trkpt lat="48.58577" lon="1.79915">
        <ele>151</ele>
        <time>2010-05-15T10:30:37Z</time>
      </trkpt>
      <trkpt lat="48.58575" lon="1.79917">
        <ele>151</ele>
        <time>2010-05-15T10:30:39Z</time>
      </trkpt>
      <trkpt lat="48.58574" lon="1.79918">
        <ele>151</ele>
        <time>2010-05-15T10:30:40Z</time>
      </trkpt>
      <trkpt lat="48.58572" lon="1.79919">
        <ele>151</ele>
        <time>2010-05-15T10:30:41Z</time>
      </trkpt>
      <trkpt lat="48.58571" lon="1.79921">
        <ele>151</ele>
        <time>2010-05-15T10:30:42Z</time>
      </trkpt>
      <trkpt lat="48.58569" lon="1.79922">
        <ele>151</ele>
        <time>2010-05-15T10:30:43Z</time>
      </trkpt>
      <trkpt lat="48.58568" lon="1.79923">
        <ele>151</ele>
        <time>2010-05-15T10:30:44Z</time>
      </trkpt>
      <trkpt lat="48.58567" lon="1.79924">
        <ele>151</ele>
        <time>2010-05-15T10:30:45Z</time>
      </trkpt>
      <trkpt lat="48.58566" lon="1.79926">
        <ele>151</ele>
        <time>2010-05-15T10:30:46Z</time>
      </trkpt>
      <trkpt lat="48.58564" lon="1.79927">
        <ele>151</ele>
        <time>2010-05-15T10:30:47Z</time>
      </trkpt>
      <trkpt lat="48.58563" lon="1.79928">
        <ele>151</ele>
        <time>2010-05-15T10:30:48Z</time>
      </trkpt>
      <trkpt lat="48.58561" lon="1.79929">
        <ele>151</ele>
        <time>2010-05-15T10:30:49Z</time>
      </trkpt>
      <trkpt lat="48.5856" lon="1.7993">
        <ele>151</ele>
        <time>2010-05-15T10:30:50Z</time>
      </trkpt>
      <trkpt lat="48.58559" lon="1.79931">
        <ele>151</ele>
        <time>2010-05-15T10:30:51Z</time>
      </trkpt>
      <trkpt lat="48.58558" lon="1.79932">
        <ele>151</ele>
        <time>2010-05-15T10:30:52Z</time>
      </trkpt>
      <trkpt lat="48.58557" lon="1.79933">
        <ele>151</ele>
        <time>2010-05-15T10:30:53Z</time>
      </trkpt>
      <trkpt lat="48.58555" lon="1.79934">
        <ele>151</ele>
        <time>2010-05-15T10:30:54Z</time>
      </trkpt>
      <trkpt lat="48.58554" lon="1.79936">
        <ele>151</ele>
        <time>2010-05-15T10:30:55Z</time>
      </trkpt>
      <trkpt lat="48.58552" lon="1.79937">
        <ele>151</ele>
        <time>2010-05-15T10:30:56Z</time>
      </trkpt>
      <trkpt lat="48.58551" lon="1.79938">
        <ele>151</ele>
        <time>2010-05-15T10:30:57Z</time>
      </trkpt>
      <trkpt lat="48.5855" lon="1.79939">
        <ele>151</ele>
        <time>2010-05-15T10:30:58Z</time>
      </trkpt>
      <trkpt lat="48.58549" lon="1.7994">
        <ele>151</ele>
        <time>2010-05-15T10:30:59Z</time>
      </trkpt>
      <trkpt lat="48.58547" lon="1.79941">
        <ele>151</ele>
        <time>2010-05-15T10:31:00Z</time>
      </trkpt>
      <trkpt lat="48.58546" lon="1.79942">
        <ele>151</ele>
        <time>2010-05-15T10:31:01Z</time>
      </trkpt>
      <trkpt lat="48.58545" lon="1.79943">
        <ele>151</ele>
        <time>2010-05-15T10:31:02Z</time>
      </trkpt>
      <trkpt lat="48.58543" lon="1.79944">
        <ele>151</ele>
        <time>2010-05-15T10:31:03Z</time>
      </trkpt>
      <trkpt lat="48.58542" lon="1.79945">
        <ele>151</ele>
        <time>2010-05-15T10:31:04Z</time>
      </trkpt>
      <trkpt lat="48.58541" lon="1.79947">
        <ele>150</ele>
        <time>2010-05-15T10:31:05Z</time>
      </trkpt>
      <trkpt lat="48.58539" lon="1.79948">
        <ele>150</ele>
        <time>2010-05-15T10:31:06Z</time>
      </trkpt>
      <trkpt lat="48.58538" lon="1.7995">
        <ele>150</ele>
        <time>2010-05-15T10:31:07Z</time>
      </trkpt>
      <trkpt lat="48.58536" lon="1.79951">
        <ele>150</ele>
        <time>2010-05-15T10:31:08Z</time>
      </trkpt>
      <trkpt lat="48.58535" lon="1.79952">
        <ele>150</ele>
        <time>2010-05-15T10:31:09Z</time>
      </trkpt>
      <trkpt lat="48.58533" lon="1.79954">
        <ele>150</ele>
        <time>2010-05-15T10:31:10Z</time>
      </trkpt>
      <trkpt lat="48.58532" lon="1.79955">
        <ele>150</ele>
        <time>2010-05-15T10:31:11Z</time>
      </trkpt>
      <trkpt lat="48.58531" lon="1.79956">
        <ele>150</ele>
        <time>2010-05-15T10:31:12Z</time>
      </trkpt>
      <trkpt lat="48.58529" lon="1.79957">
        <ele>150</ele>
        <time>2010-05-15T10:31:13Z</time>
      </trkpt>
      <trkpt lat="48.58528" lon="1.79958">
        <ele>150</ele>
        <time>2010-05-15T10:31:14Z</time>
      </trkpt>
      <trkpt lat="48.58527" lon="1.79959">
        <ele>150</ele>
        <time>2010-05-15T10:31:15Z</time>
      </trkpt>
      <trkpt lat="48.58525" lon="1.79961">
        <ele>150</ele>
        <time>2010-05-15T10:31:16Z</time>
      </trkpt>
      <trkpt lat="48.58524" lon="1.79962">
        <ele>150</ele>
        <time>2010-05-15T10:31:17Z</time>
      </trkpt>
      <trkpt lat="48.58523" lon="1.79963">
        <ele>150</ele>
        <time>2010-05-15T10:31:18Z</time>
      </trkpt>
      <trkpt lat="48.58521" lon="1.79965">
        <ele>150</ele>
        <time>2010-05-15T10:31:19Z</time>
      </trkpt>
      <trkpt lat="48.5852" lon="1.79966">
        <ele>150</ele>
        <time>2010-05-15T10:31:20Z</time>
      </trkpt>
      <trkpt lat="48.58519" lon="1.79967">
        <ele>150</ele>
        <time>2010-05-15T10:31:21Z</time>
      </trkpt>
      <trkpt lat="48.58517" lon="1.79969">
        <ele>150</ele>
        <time>2010-05-15T10:31:22Z</time>
      </trkpt>
      <trkpt lat="48.58516" lon="1.7997">
        <ele>150</ele>
        <time>2010-05-15T10:31:23Z</time>
      </trkpt>
      <trkpt lat="48.58514" lon="1.79971">
        <ele>150</ele>
        <time>2010-05-15T10:31:24Z</time>
      </trkpt>
      <trkpt lat="48.58513" lon="1.79973">
        <ele>150</ele>
        <time>2010-05-15T10:31:25Z</time>
      </trkpt>
      <trkpt lat="48.58512" lon="1.79974">
        <ele>150</ele>
        <time>2010-05-15T10:31:26Z</time>
      </trkpt>
      <trkpt lat="48.5851" lon="1.79976">
        <ele>150</ele>
        <time>2010-05-15T10:31:27Z</time>
      </trkpt>
      <trkpt lat="48.58509" lon="1.79977">
        <ele>150</ele>
        <time>2010-05-15T10:31:28Z</time>
      </trkpt>
      <trkpt lat="48.58508" lon="1.79978">
        <ele>150</ele>
        <time>2010-05-15T10:31:29Z</time>
      </trkpt>
      <trkpt lat="48.58506" lon="1.7998">
        <ele>150</ele>
        <time>2010-05-15T10:31:30Z</time>
      </trkpt>
      <trkpt lat="48.58505" lon="1.79981">
        <ele>150</ele>
        <time>2010-05-15T10:31:31Z</time>
      </trkpt>
      <trkpt lat="48.58503" lon="1.79982">
        <ele>150</ele>
        <time>2010-05-15T10:31:32Z</time>
      </trkpt>
      <trkpt lat="48.58502" lon="1.79983">
        <ele>150</ele>
        <time>2010-05-15T10:31:33Z</time>
      </trkpt>
      <trkpt lat="48.585" lon="1.79984">
        <ele>150</ele>
        <time>2010-05-15T10:31:34Z</time>
      </trkpt>
      <trkpt lat="48.58499" lon="1.79986">
        <ele>150</ele>
        <time>2010-05-15T10:31:35Z</time>
      </trkpt>
      <trkpt lat="48.58498" lon="1.79987">
        <ele>150</ele>
        <time>2010-05-15T10:31:36Z</time>
      </trkpt>
      <trkpt lat="48.58496" lon="1.79988">
        <ele>150</ele>
        <time>2010-05-15T10:31:37Z</time>
      </trkpt>
      <trkpt lat="48.58495" lon="1.79989">
        <ele>150</ele>
        <time>2010-05-15T10:31:38Z</time>
      </trkpt>
      <trkpt lat="48.58494" lon="1.7999">
        <ele>150</ele>
        <time>2010-05-15T10:31:39Z</time>
      </trkpt>
      <trkpt lat="48.58493" lon="1.79992">
        <ele>150</ele>
        <time>2010-05-15T10:31:40Z</time>
      </trkpt>
      <trkpt lat="48.58491" lon="1.79993">
        <ele>150</ele>
        <time>2010-05-15T10:31:41Z</time>
      </trkpt>
      <trkpt lat="48.58489" lon="1.79994">
        <ele>150</ele>
        <time>2010-05-15T10:31:42Z</time>
      </trkpt>
      <trkpt lat="48.58488" lon="1.79995">
        <ele>150</ele>
        <time>2010-05-15T10:31:43Z</time>
      </trkpt>
      <trkpt lat="48.58487" lon="1.79996">
        <ele>150</ele>
        <time>2010-05-15T10:31:44Z</time>
      </trkpt>
      <trkpt lat="48.58485" lon="1.79997">
        <ele>150</ele>
        <time>2010-05-15T10:31:45Z</time>
      </trkpt>
      <trkpt lat="48.58484" lon="1.79998">
        <ele>150</ele>
        <time>2010-05-15T10:31:46Z</time>
      </trkpt>
      <trkpt lat="48.58482" lon="1.8">
        <ele>150</ele>
        <time>2010-05-15T10:31:47Z</time>
      </trkpt>
      <trkpt lat="48.58481" lon="1.80001">
        <ele>149</ele>
        <time>2010-05-15T10:31:48Z</time>
      </trkpt>
      <trkpt lat="48.5848" lon="1.80002">
        <ele>149</ele>
        <time>2010-05-15T10:31:49Z</time>
      </trkpt>
      <trkpt lat="48.58478" lon="1.80003">
        <ele>149</ele>
        <time>2010-05-15T10:31:50Z</time>
      </trkpt>
      <trkpt lat="48.58477" lon="1.80004">
        <ele>149</ele>
        <time>2010-05-15T10:31:51Z</time>
      </trkpt>
      <trkpt lat="48.58476" lon="1.80005">
        <ele>149</ele>
        <time>2010-05-15T10:31:52Z</time>
      </trkpt>
      <trkpt lat="48.58475" lon="1.80006">
        <ele>149</ele>
        <time>2010-05-15T10:31:53Z</time>
      </trkpt>
      <trkpt lat="48.58473" lon="1.80008">
        <ele>149</ele>
        <time>2010-05-15T10:31:54Z</time>
      </trkpt>
      <trkpt lat="48.58472" lon="1.80009">
        <ele>149</ele>
        <time>2010-05-15T10:31:55Z</time>
      </trkpt>
      <trkpt lat="48.5847" lon="1.8001">
        <ele>149</ele>
        <time>2010-05-15T10:31:56Z</time>
      </trkpt>
      <trkpt lat="48.58469" lon="1.80011">
        <ele>149</ele>
        <time>2010-05-15T10:31:57Z</time>
      </trkpt>
      <trkpt lat="48.58468" lon="1.80012">
        <ele>149</ele>
        <time>2010-05-15T10:31:58Z</time>
      </trkpt>
      <trkpt lat="48.58467" lon="1.80013">
        <ele>149</ele>
        <time>2010-05-15T10:31:59Z</time>
      </trkpt>
      <trkpt lat="48.58465" lon="1.80014">
        <ele>149</ele>
        <time>2010-05-15T10:32:00Z</time>
      </trkpt>
      <trkpt lat="48.58464" lon="1.80015">
        <ele>149</ele>
        <time>2010-05-15T10:32:01Z</time>
      </trkpt>
      <trkpt lat="48.58463" lon="1.80016">
        <ele>149</ele>
        <time>2010-05-15T10:32:02Z</time>
      </trkpt>
      <trkpt lat="48.58461" lon="1.80018">
        <ele>149</ele>
        <time>2010-05-15T10:32:03Z</time>
      </trkpt>
      <trkpt lat="48.5846" lon="1.80019">
        <ele>148</ele>
        <time>2010-05-15T10:32:04Z</time>
      </trkpt>
      <trkpt lat="48.58459" lon="1.80019">
        <ele>148</ele>
        <time>2010-05-15T10:32:05Z</time>
      </trkpt>
      <trkpt lat="48.58458" lon="1.8002">
        <ele>148</ele>
        <time>2010-05-15T10:32:06Z</time>
      </trkpt>
      <trkpt lat="48.58456" lon="1.80022">
        <ele>148</ele>
        <time>2010-05-15T10:32:07Z</time>
      </trkpt>
      <trkpt lat="48.58455" lon="1.80023">
        <ele>148</ele>
        <time>2010-05-15T10:32:08Z</time>
      </trkpt>
      <trkpt lat="48.58453" lon="1.80024">
        <ele>148</ele>
        <time>2010-05-15T10:32:09Z</time>
      </trkpt>
      <trkpt lat="48.58451" lon="1.80025">
        <ele>148</ele>
        <time>2010-05-15T10:32:10Z</time>
      </trkpt>
      <trkpt lat="48.5845" lon="1.80027">
        <ele>148</ele>
        <time>2010-05-15T10:32:11Z</time>
      </trkpt>
      <trkpt lat="48.58449" lon="1.80028">
        <ele>148</ele>
        <time>2010-05-15T10:32:12Z</time>
      </trkpt>
      <trkpt lat="48.58447" lon="1.8003">
        <ele>148</ele>
        <time>2010-05-15T10:32:13Z</time>
      </trkpt>
      <trkpt lat="48.58446" lon="1.80031">
        <ele>148</ele>
        <time>2010-05-15T10:32:14Z</time>
      </trkpt>
      <trkpt lat="48.58444" lon="1.80032">
        <ele>148</ele>
        <time>2010-05-15T10:32:15Z</time>
      </trkpt>
      <trkpt lat="48.58443" lon="1.80033">
        <ele>147</ele>
        <time>2010-05-15T10:32:16Z</time>
      </trkpt>
      <trkpt lat="48.58441" lon="1.80034">
        <ele>147</ele>
        <time>2010-05-15T10:32:17Z</time>
      </trkpt>
      <trkpt lat="48.58439" lon="1.80036">
        <ele>147</ele>
        <time>2010-05-15T10:32:18Z</time>
      </trkpt>
      <trkpt lat="48.58438" lon="1.80037">
        <ele>146</ele>
        <time>2010-05-15T10:32:19Z</time>
      </trkpt>
      <trkpt lat="48.58436" lon="1.80038">
        <ele>146</ele>
        <time>2010-05-15T10:32:20Z</time>
      </trkpt>
      <trkpt lat="48.58435" lon="1.80039">
        <ele>145</ele>
        <time>2010-05-15T10:32:21Z</time>
      </trkpt>
      <trkpt lat="48.58433" lon="1.80039">
        <ele>145</ele>
        <time>2010-05-15T10:32:22Z</time>
      </trkpt>
      <trkpt lat="48.58432" lon="1.8004">
        <ele>145</ele>
        <time>2010-05-15T10:32:23Z</time>
      </trkpt>
      <trkpt lat="48.5843" lon="1.80041">
        <ele>144</ele>
        <time>2010-05-15T10:32:24Z</time>
      </trkpt>
      <trkpt lat="48.58429" lon="1.80042">
        <ele>144</ele>
        <time>2010-05-15T10:32:25Z</time>
      </trkpt>
      <trkpt lat="48.58427" lon="1.80043">
        <ele>144</ele>
        <time>2010-05-15T10:32:26Z</time>
      </trkpt>
      <trkpt lat="48.58426" lon="1.80043">
        <ele>143</ele>
        <time>2010-05-15T10:32:27Z</time>
      </trkpt>
      <trkpt lat="48.58424" lon="1.80044">
        <ele>143</ele>
        <time>2010-05-15T10:32:28Z</time>
      </trkpt>
      <trkpt lat="48.58422" lon="1.80044">
        <ele>143</ele>
        <time>2010-05-15T10:32:29Z</time>
      </trkpt>
      <trkpt lat="48.58421" lon="1.80044">
        <ele>143</ele>
        <time>2010-05-15T10:32:30Z</time>
      </trkpt>
      <trkpt lat="48.58419" lon="1.80045">
        <ele>142</ele>
        <time>2010-05-15T10:32:31Z</time>
      </trkpt>
      <trkpt lat="48.58418" lon="1.80045">
        <ele>142</ele>
        <time>2010-05-15T10:32:32Z</time>
      </trkpt>
      <trkpt lat="48.58416" lon="1.80045">
        <ele>142</ele>
        <time>2010-05-15T10:32:33Z</time>
      </trkpt>
      <trkpt lat="48.58414" lon="1.80045">
        <ele>142</ele>
        <time>2010-05-15T10:32:34Z</time>
      </trkpt>
      <trkpt lat="48.58413" lon="1.80045">
        <ele>141</ele>
        <time>2010-05-15T10:32:35Z</time>
      </trkpt>
      <trkpt lat="48.58411" lon="1.80045">
        <ele>141</ele>
        <time>2010-05-15T10:32:36Z</time>
      </trkpt>
      <trkpt lat="48.5841" lon="1.80045">
        <ele>141</ele>
        <time>2010-05-15T10:32:37Z</time>
      </trkpt>
      <trkpt lat="48.58408" lon="1.80045">
        <ele>140</ele>
        <time>2010-05-15T10:32:38Z</time>
      </trkpt>
      <trkpt lat="48.58406" lon="1.80045">
        <ele>140</ele>
        <time>2010-05-15T10:32:39Z</time>
      </trkpt>
      <trkpt lat="48.58405" lon="1.80045">
        <ele>140</ele>
        <time>2010-05-15T10:32:40Z</time>
      </trkpt>
      <trkpt lat="48.58403" lon="1.80044">
        <ele>139</ele>
        <time>2010-05-15T10:32:41Z</time>
      </trkpt>
      <trkpt lat="48.58401" lon="1.80044">
        <ele>139</ele>
        <time>2010-05-15T10:32:42Z</time>
      </trkpt>
      <trkpt lat="48.584" lon="1.80044">
        <ele>139</ele>
        <time>2010-05-15T10:32:43Z</time>
      </trkpt>
      <trkpt lat="48.58398" lon="1.80044">
        <ele>139</ele>
        <time>2010-05-15T10:32:44Z</time>
      </trkpt>
      <trkpt lat="48.58397" lon="1.80044">
        <ele>138</ele>
        <time>2010-05-15T10:32:45Z</time>
      </trkpt>
      <trkpt lat="48.58395" lon="1.80043">
        <ele>138</ele>
        <time>2010-05-15T10:32:46Z</time>
      </trkpt>
      <trkpt lat="48.58394" lon="1.80043">
        <ele>138</ele>
        <time>2010-05-15T10:32:47Z</time>
      </trkpt>
      <trkpt lat="48.58392" lon="1.80042">
        <ele>138</ele>
        <time>2010-05-15T10:32:48Z</time>
      </trkpt>
      <trkpt lat="48.58391" lon="1.80042">
        <ele>137</ele>
        <time>2010-05-15T10:32:49Z</time>
      </trkpt>
      <trkpt lat="48.58389" lon="1.80041">
        <ele>137</ele>
        <time>2010-05-15T10:32:50Z</time>
      </trkpt>
      <trkpt lat="48.58388" lon="1.8004">
        <ele>137</ele>
        <time>2010-05-15T10:32:51Z</time>
      </trkpt>
      <trkpt lat="48.58386" lon="1.8004">
        <ele>137</ele>
        <time>2010-05-15T10:32:52Z</time>
      </trkpt>
      <trkpt lat="48.58385" lon="1.80039">
        <ele>136</ele>
        <time>2010-05-15T10:32:53Z</time>
      </trkpt>
      <trkpt lat="48.58383" lon="1.80039">
        <ele>136</ele>
        <time>2010-05-15T10:32:54Z</time>
      </trkpt>
      <trkpt lat="48.58382" lon="1.80039">
        <ele>136</ele>
        <time>2010-05-15T10:32:55Z</time>
      </trkpt>
      <trkpt lat="48.5838" lon="1.80038">
        <ele>136</ele>
        <time>2010-05-15T10:32:56Z</time>
      </trkpt>
      <trkpt lat="48.58379" lon="1.80038">
        <ele>135</ele>
        <time>2010-05-15T10:32:57Z</time>
      </trkpt>
      <trkpt lat="48.58377" lon="1.80038">
        <ele>135</ele>
        <time>2010-05-15T10:32:58Z</time>
      </trkpt>
      <trkpt lat="48.58376" lon="1.80037">
        <ele>135</ele>
        <time>2010-05-15T10:32:59Z</time>
      </trkpt>
      <trkpt lat="48.58374" lon="1.80036">
        <ele>135</ele>
        <time>2010-05-15T10:33:00Z</time>
      </trkpt>
      <trkpt lat="48.58373" lon="1.80035">
        <ele>134</ele>
        <time>2010-05-15T10:33:01Z</time>
      </trkpt>
      <trkpt lat="48.58371" lon="1.80034">
        <ele>134</ele>
        <time>2010-05-15T10:33:02Z</time>
      </trkpt>
      <trkpt lat="48.5837" lon="1.80033">
        <ele>134</ele>
        <time>2010-05-15T10:33:03Z</time>
      </trkpt>
      <trkpt lat="48.58369" lon="1.80033">
        <ele>133</ele>
        <time>2010-05-15T10:33:04Z</time>
      </trkpt>
      <trkpt lat="48.58367" lon="1.80032">
        <ele>133</ele>
        <time>2010-05-15T10:33:05Z</time>
      </trkpt>
      <trkpt lat="48.58366" lon="1.80031">
        <ele>133</ele>
        <time>2010-05-15T10:33:06Z</time>
      </trkpt>
      <trkpt lat="48.58365" lon="1.80031">
        <ele>132</ele>
        <time>2010-05-15T10:33:07Z</time>
      </trkpt>
      <trkpt lat="48.58363" lon="1.80031">
        <ele>132</ele>
        <time>2010-05-15T10:33:08Z</time>
      </trkpt>
      <trkpt lat="48.58362" lon="1.8003">
        <ele>132</ele>
        <time>2010-05-15T10:33:09Z</time>
      </trkpt>
      <trkpt lat="48.58361" lon="1.8003">
        <ele>131</ele>
        <time>2010-05-15T10:33:10Z</time>
      </trkpt>
      <trkpt lat="48.58359" lon="1.80029">
        <ele>131</ele>
        <time>2010-05-15T10:33:11Z</time>
      </trkpt>
      <trkpt lat="48.58358" lon="1.80029">
        <ele>131</ele>
        <time>2010-05-15T10:33:12Z</time>
      </trkpt>
      <trkpt lat="48.58357" lon="1.80029">
        <ele>130</ele>
        <time>2010-05-15T10:33:13Z</time>
      </trkpt>
      <trkpt lat="48.58355" lon="1.80029">
        <ele>130</ele>
        <time>2010-05-15T10:33:15Z</time>
      </trkpt>
      <trkpt lat="48.58353" lon="1.80028">
        <ele>129</ele>
        <time>2010-05-15T10:33:17Z</time>
      </trkpt>
      <trkpt lat="48.58351" lon="1.80026">
        <ele>128</ele>
        <time>2010-05-15T10:33:19Z</time>
      </trkpt>
      <trkpt lat="48.58349" lon="1.80024">
        <ele>127</ele>
        <time>2010-05-15T10:33:21Z</time>
      </trkpt>
      <trkpt lat="48.58348" lon="1.80022">
        <ele>126</ele>
        <time>2010-05-15T10:33:22Z</time>
      </trkpt>
      <trkpt lat="48.58347" lon="1.8002">
        <ele>126</ele>
        <time>2010-05-15T10:33:23Z</time>
      </trkpt>
      <trkpt lat="48.58346" lon="1.80018">
        <ele>126</ele>
        <time>2010-05-15T10:33:24Z</time>
      </trkpt>
      <trkpt lat="48.58344" lon="1.80017">
        <ele>126</ele>
        <time>2010-05-15T10:33:25Z</time>
      </trkpt>
      <trkpt lat="48.58342" lon="1.80018">
        <ele>126</ele>
        <time>2010-05-15T10:33:27Z</time>
      </trkpt>
      <trkpt lat="48.58341" lon="1.80018">
        <ele>126</ele>
        <time>2010-05-15T10:33:28Z</time>
      </trkpt>
      <trkpt lat="48.58339" lon="1.80019">
        <ele>126</ele>
        <time>2010-05-15T10:33:30Z</time>
      </trkpt>
      <trkpt lat="48.58338" lon="1.80019">
        <ele>126</ele>
        <time>2010-05-15T10:33:31Z</time>
      </trkpt>
      <trkpt lat="48.58337" lon="1.80019">
        <ele>126</ele>
        <time>2010-05-15T10:33:32Z</time>
      </trkpt>
      <trkpt lat="48.58335" lon="1.8002">
        <ele>126</ele>
        <time>2010-05-15T10:33:33Z</time>
      </trkpt>
      <trkpt lat="48.58334" lon="1.8002">
        <ele>126</ele>
        <time>2010-05-15T10:33:34Z</time>
      </trkpt>
      <trkpt lat="48.58333" lon="1.8002">
        <ele>126</ele>
        <time>2010-05-15T10:33:35Z</time>
      </trkpt>
      <trkpt lat="48.58331" lon="1.8002">
        <ele>126</ele>
        <time>2010-05-15T10:33:36Z</time>
      </trkpt>
      <trkpt lat="48.5833" lon="1.80021">
        <ele>126</ele>
        <time>2010-05-15T10:33:37Z</time>
      </trkpt>
      <trkpt lat="48.58328" lon="1.80021">
        <ele>126</ele>
        <time>2010-05-15T10:33:38Z</time>
      </trkpt>
      <trkpt lat="48.58326" lon="1.80021">
        <ele>126</ele>
        <time>2010-05-15T10:33:39Z</time>
      </trkpt>
      <trkpt lat="48.58324" lon="1.80021">
        <ele>126</ele>
        <time>2010-05-15T10:33:40Z</time>
      </trkpt>
      <trkpt lat="48.58322" lon="1.80023">
        <ele>126</ele>
        <time>2010-05-15T10:33:42Z</time>
      </trkpt>
      <trkpt lat="48.58321" lon="1.80023">
        <ele>126</ele>
        <time>2010-05-15T10:33:45Z</time>
      </trkpt>
      <trkpt lat="48.58319" lon="1.80023">
        <ele>126</ele>
        <time>2010-05-15T10:33:48Z</time>
      </trkpt>
      <trkpt lat="48.58318" lon="1.80023">
        <ele>127</ele>
        <time>2010-05-15T10:33:50Z</time>
      </trkpt>
      <trkpt lat="48.58316" lon="1.80024">
        <ele>128</ele>
        <time>2010-05-15T10:33:52Z</time>
      </trkpt>
      <trkpt lat="48.58315" lon="1.80025">
        <ele>130</ele>
        <time>2010-05-15T10:33:56Z</time>
      </trkpt>
      <trkpt lat="48.58314" lon="1.80024">
        <ele>132</ele>
        <time>2010-05-15T10:34:01Z</time>
      </trkpt>
      <trkpt lat="48.58313" lon="1.80025">
        <ele>132</ele>
        <time>2010-05-15T10:34:06Z</time>
      </trkpt>
      <trkpt lat="48.58312" lon="1.80023">
        <ele>136</ele>
        <time>2010-05-15T10:34:39Z</time>
      </trkpt>
      <trkpt lat="48.58311" lon="1.80024">
        <ele>136</ele>
        <time>2010-05-15T10:34:45Z</time>
      </trkpt>
      <trkpt lat="48.58309" lon="1.80024">
        <ele>136</ele>
        <time>2010-05-15T10:34:47Z</time>
      </trkpt>
      <trkpt lat="48.58308" lon="1.80023">
        <ele>136</ele>
        <time>2010-05-15T10:34:56Z</time>
      </trkpt>
      <trkpt lat="48.58308" lon="1.80021">
        <ele>136</ele>
        <time>2010-05-15T10:35:03Z</time>
      </trkpt>
      <trkpt lat="48.58307" lon="1.80019">
        <ele>140</ele>
        <time>2010-05-15T10:35:16Z</time>
      </trkpt>
      <trkpt lat="48.58306" lon="1.80021">
        <ele>142</ele>
        <time>2010-05-15T10:35:21Z</time>
      </trkpt>
      <trkpt lat="48.58306" lon="1.80022">
        <ele>142</ele>
        <time>2010-05-15T10:35:24Z</time>
      </trkpt>
      <trkpt lat="48.58306" lon="1.80025">
        <ele>143</ele>
        <time>2010-05-15T10:35:26Z</time>
      </trkpt>
      <trkpt lat="48.58307" lon="1.80027">
        <ele>146</ele>
        <time>2010-05-15T10:35:30Z</time>
      </trkpt>
      <trkpt lat="48.58308" lon="1.80029">
        <ele>148</ele>
        <time>2010-05-15T10:35:34Z</time>
      </trkpt>
      <trkpt lat="48.58309" lon="1.80031">
        <ele>149</ele>
        <time>2010-05-15T10:35:36Z</time>
      </trkpt>
      <trkpt lat="48.5831" lon="1.8003">
        <ele>152</ele>
        <time>2010-05-15T10:35:48Z</time>
      </trkpt>
      <trkpt lat="48.58309" lon="1.80031">
        <ele>152</ele>
        <time>2010-05-15T10:35:52Z</time>
      </trkpt>
      <trkpt lat="48.58309" lon="1.80033">
        <ele>151</ele>
        <time>2010-05-15T10:35:54Z</time>
      </trkpt>
      <trkpt lat="48.5831" lon="1.80035">
        <ele>150</ele>
        <time>2010-05-15T10:35:56Z</time>
      </trkpt>
      <trkpt lat="48.58311" lon="1.80037">
        <ele>150</ele>
        <time>2010-05-15T10:35:58Z</time>
      </trkpt>
      <trkpt lat="48.58312" lon="1.80039">
        <ele>149</ele>
        <time>2010-05-15T10:36:00Z</time>
      </trkpt>
      <trkpt lat="48.58313" lon="1.80041">
        <ele>149</ele>
        <time>2010-05-15T10:36:02Z</time>
      </trkpt>
      <trkpt lat="48.58314" lon="1.80043">
        <ele>148</ele>
        <time>2010-05-15T10:36:04Z</time>
      </trkpt>
      <trkpt lat="48.58314" lon="1.80044">
        <ele>147</ele>
        <time>2010-05-15T10:36:06Z</time>
      </trkpt>
      <trkpt lat="48.58315" lon="1.80047">
        <ele>146</ele>
        <time>2010-05-15T10:36:09Z</time>
      </trkpt>
      <trkpt lat="48.58316" lon="1.80049">
        <ele>145</ele>
        <time>2010-05-15T10:36:11Z</time>
      </trkpt>
      <trkpt lat="48.58317" lon="1.8005">
        <ele>144</ele>
        <time>2010-05-15T10:36:16Z</time>
      </trkpt>
      <trkpt lat="48.58317" lon="1.80053">
        <ele>144</ele>
        <time>2010-05-15T10:36:25Z</time>
      </trkpt>
      <trkpt lat="48.58319" lon="1.80053">
        <ele>144</ele>
        <time>2010-05-15T10:36:32Z</time>
      </trkpt>
      <trkpt lat="48.58319" lon="1.80054">
        <ele>144</ele>
        <time>2010-05-15T10:36:40Z</time>
      </trkpt>
      <trkpt lat="48.58318" lon="1.80055">
        <ele>145</ele>
        <time>2010-05-15T10:36:43Z</time>
      </trkpt>
      <trkpt lat="48.58316" lon="1.80056">
        <ele>145</ele>
        <time>2010-05-15T10:36:54Z</time>
      </trkpt>
      <trkpt lat="48.58315" lon="1.80054">
        <ele>145</ele>
        <time>2010-05-15T10:37:07Z</time>
      </trkpt>
      <trkpt lat="48.58315" lon="1.80052">
        <ele>145</ele>
        <time>2010-05-15T10:37:09Z</time>
      </trkpt>
      <trkpt lat="48.58315" lon="1.8005">
        <ele>145</ele>
        <time>2010-05-15T10:37:10Z</time>
      </trkpt>
      <trkpt lat="48.58313" lon="1.80049">
        <ele>145</ele>
        <time>2010-05-15T10:37:12Z</time>
      </trkpt>
      <trkpt lat="48.58313" lon="1.80046">
        <ele>143</ele>
        <time>2010-05-15T10:37:14Z</time>
      </trkpt>
      <trkpt lat="48.58313" lon="1.80044">
        <ele>142</ele>
        <time>2010-05-15T10:37:15Z</time>
      </trkpt>
      <trkpt lat="48.58313" lon="1.80041">
        <ele>140</ele>
        <time>2010-05-15T10:37:17Z</time>
      </trkpt>
      <trkpt lat="48.58312" lon="1.80039">
        <ele>139</ele>
        <time>2010-05-15T10:37:18Z</time>
      </trkpt>
      <trkpt lat="48.58311" lon="1.80036">
        <ele>137</ele>
        <time>2010-05-15T10:37:20Z</time>
      </trkpt>
      <trkpt lat="48.5831" lon="1.80032">
        <ele>136</ele>
        <time>2010-05-15T10:37:22Z</time>
      </trkpt>
      <trkpt lat="48.58311" lon="1.8003">
        <ele>135</ele>
        <time>2010-05-15T10:37:25Z</time>
      </trkpt>
      <trkpt lat="48.5831" lon="1.80028">
        <ele>135</ele>
        <time>2010-05-15T10:37:32Z</time>
      </trkpt>
      <trkpt lat="48.58311" lon="1.80026">
        <ele>135</ele>
        <time>2010-05-15T10:37:36Z</time>
      </trkpt>
      <trkpt lat="48.58312" lon="1.80025">
        <ele>135</ele>
        <time>2010-05-15T10:37:40Z</time>
      </trkpt>
      <trkpt lat="48.5831" lon="1.80024">
        <ele>135</ele>
        <time>2010-05-15T10:37:44Z</time>
      </trkpt>
      <trkpt lat="48.58309" lon="1.80023">
        <ele>135</ele>
        <time>2010-05-15T10:37:47Z</time>
      </trkpt>
      <trkpt lat="48.58308" lon="1.80024">
        <ele>135</ele>
        <time>2010-05-15T10:37:56Z</time>
      </trkpt>
      <trkpt lat="48.58308" lon="1.80022">
        <ele>135</ele>
        <time>2010-05-15T10:38:09Z</time>
      </trkpt>
      <trkpt lat="48.58307" lon="1.80024">
        <ele>135</ele>
        <time>2010-05-15T10:38:13Z</time>
      </trkpt>
      <trkpt lat="48.58307" lon="1.80022">
        <ele>135</ele>
        <time>2010-05-15T10:38:19Z</time>
      </trkpt>
      <trkpt lat="48.58308" lon="1.8002">
        <ele>137</ele>
        <time>2010-05-15T10:38:40Z</time>
      </trkpt>
      <trkpt lat="48.58306" lon="1.80019">
        <ele>138</ele>
        <time>2010-05-15T10:38:42Z</time>
      </trkpt>
      <trkpt lat="48.58306" lon="1.80017">
        <ele>138</ele>
        <time>2010-05-15T10:38:45Z</time>
      </trkpt>
      <trkpt lat="48.58306" lon="1.80019">
        <ele>138</ele>
        <time>2010-05-15T10:38:52Z</time>
      </trkpt>
      <trkpt lat="48.58307" lon="1.80021">
        <ele>139</ele>
        <time>2010-05-15T10:38:56Z</time>
      </trkpt>
      <trkpt lat="48.58308" lon="1.80021">
        <ele>141</ele>
        <time>2010-05-15T10:39:16Z</time>
      </trkpt>
      <trkpt lat="48.5831" lon="1.80022">
        <ele>141</ele>
        <time>2010-05-15T10:39:18Z</time>
      </trkpt>
      <trkpt lat="48.58308" lon="1.80022">
        <ele>141</ele>
        <time>2010-05-15T10:39:24Z</time>
      </trkpt>
      <trkpt lat="48.58307" lon="1.80021">
        <ele>141</ele>
        <time>2010-05-15T10:39:30Z</time>
      </trkpt>
      <trkpt lat="48.58306" lon="1.80019">
        <ele>141</ele>
        <time>2010-05-15T10:39:33Z</time>
      </trkpt>
      <trkpt lat="48.58305" lon="1.80018">
        <ele>141</ele>
        <time>2010-05-15T10:39:36Z</time>
      </trkpt>
      <trkpt lat="48.58303" lon="1.80019">
        <ele>141</ele>
        <time>2010-05-15T10:39:38Z</time>
      </trkpt>
      <trkpt lat="48.58301" lon="1.80022">
        <ele>141</ele>
        <time>2010-05-15T10:39:40Z</time>
      </trkpt>
      <trkpt lat="48.583" lon="1.80024">
        <ele>141</ele>
        <time>2010-05-15T10:39:42Z</time>
      </trkpt>
      <trkpt lat="48.58298" lon="1.80026">
        <ele>141</ele>
        <time>2010-05-15T10:39:44Z</time>
      </trkpt>
      <trkpt lat="48.58296" lon="1.80028">
        <ele>140</ele>
        <time>2010-05-15T10:39:46Z</time>
      </trkpt>
      <trkpt lat="48.58295" lon="1.80027">
        <ele>140</ele>
        <time>2010-05-15T10:39:55Z</time>
      </trkpt>
      <trkpt lat="48.58296" lon="1.80026">
        <ele>141</ele>
        <time>2010-05-15T10:40:03Z</time>
      </trkpt>
      <trkpt lat="48.58296" lon="1.80025">
        <ele>145</ele>
        <time>2010-05-15T10:40:20Z</time>
      </trkpt>
      <trkpt lat="48.58297" lon="1.80024">
        <ele>148</ele>
        <time>2010-05-15T10:40:25Z</time>
      </trkpt>
      <trkpt lat="48.58296" lon="1.80023">
        <ele>151</ele>
        <time>2010-05-15T10:40:33Z</time>
      </trkpt>
      <trkpt lat="48.58295" lon="1.80023">
        <ele>151</ele>
        <time>2010-05-15T10:40:37Z</time>
      </trkpt>
      <trkpt lat="48.58294" lon="1.80021">
        <ele>150</ele>
        <time>2010-05-15T10:40:45Z</time>
      </trkpt>
      <trkpt lat="48.58295" lon="1.80019">
        <ele>148</ele>
        <time>2010-05-15T10:40:53Z</time>
      </trkpt>
      <trkpt lat="48.58295" lon="1.80021">
        <ele>148</ele>
        <time>2010-05-15T10:40:57Z</time>
      </trkpt>
      <trkpt lat="48.58296" lon="1.80021">
        <ele>148</ele>
        <time>2010-05-15T10:40:59Z</time>
      </trkpt>
      <trkpt lat="48.58298" lon="1.80022">
        <ele>148</ele>
        <time>2010-05-15T10:41:01Z</time>
      </trkpt>
      <trkpt lat="48.58299" lon="1.80022">
        <ele>147</ele>
        <time>2010-05-15T10:41:05Z</time>
      </trkpt>
      <trkpt lat="48.58301" lon="1.80023">
        <ele>146</ele>
        <time>2010-05-15T10:41:08Z</time>
      </trkpt>
      <trkpt lat="48.58302" lon="1.80023">
        <ele>146</ele>
        <time>2010-05-15T10:41:09Z</time>
      </trkpt>
      <trkpt lat="48.58303" lon="1.80025">
        <ele>146</ele>
        <time>2010-05-15T10:41:14Z</time>
      </trkpt>
      <trkpt lat="48.58304" lon="1.80027">
        <ele>145</ele>
        <time>2010-05-15T10:41:17Z</time>
      </trkpt>
      <trkpt lat="48.58306" lon="1.80028">
        <ele>144</ele>
        <time>2010-05-15T10:41:19Z</time>
      </trkpt>
      <trkpt lat="48.58305" lon="1.80025">
        <ele>143</ele>
        <time>2010-05-15T10:41:23Z</time>
      </trkpt>
      <trkpt lat="48.58306" lon="1.80023">
        <ele>142</ele>
        <time>2010-05-15T10:41:26Z</time>
      </trkpt>
      <trkpt lat="48.58308" lon="1.80023">
        <ele>142</ele>
        <time>2010-05-15T10:41:28Z</time>
      </trkpt>
      <trkpt lat="48.5831" lon="1.80023">
        <ele>142</ele>
        <time>2010-05-15T10:41:30Z</time>
      </trkpt>
      <trkpt lat="48.58312" lon="1.80022">
        <ele>142</ele>
        <time>2010-05-15T10:41:32Z</time>
      </trkpt>
      <trkpt lat="48.5831" lon="1.80022">
        <ele>141</ele>
        <time>2010-05-15T10:41:36Z</time>
      </trkpt>
      <trkpt lat="48.58309" lon="1.80022">
        <ele>141</ele>
        <time>2010-05-15T10:41:37Z</time>
      </trkpt>
      <trkpt lat="48.58308" lon="1.80021">
        <ele>140</ele>
        <time>2010-05-15T10:41:38Z</time>
      </trkpt>
      <trkpt lat="48.58306" lon="1.80022">
        <ele>139</ele>
        <time>2010-05-15T10:41:40Z</time>
      </trkpt>
      <trkpt lat="48.58305" lon="1.80023">
        <ele>138</ele>
        <time>2010-05-15T10:41:42Z</time>
      </trkpt>
      <trkpt lat="48.58306" lon="1.80021">
        <ele>137</ele>
        <time>2010-05-15T10:41:46Z</time>
      </trkpt>
      <trkpt lat="48.58307" lon="1.8002">
        <ele>136</ele>
        <time>2010-05-15T10:41:53Z</time>
      </trkpt>
      <trkpt lat="48.58307" lon="1.80021">
        <ele>134</ele>
        <time>2010-05-15T10:41:58Z</time>
      </trkpt>
      <trkpt lat="48.58307" lon="1.80023">
        <ele>133</ele>
        <time>2010-05-15T10:42:00Z</time>
      </trkpt>
      <trkpt lat="48.58307" lon="1.80025">
        <ele>133</ele>
        <time>2010-05-15T10:42:03Z</time>
      </trkpt>
      <trkpt lat="48.58308" lon="1.80024">
        <ele>132</ele>
        <time>2010-05-15T10:42:11Z</time>
      </trkpt>
      <trkpt lat="48.58307" lon="1.80023">
        <ele>131</ele>
        <time>2010-05-15T10:42:17Z</time>
      </trkpt>
      <trkpt lat="48.58305" lon="1.80024">
        <ele>130</ele>
        <time>2010-05-15T10:42:18Z</time>
      </trkpt>
      <trkpt lat="48.58305" lon="1.80026">
        <ele>128</ele>
        <time>2010-05-15T10:42:20Z</time>
      </trkpt>
      <trkpt lat="48.58306" lon="1.80026">
        <ele>128</ele>
        <time>2010-05-15T10:42:21Z</time>
      </trkpt>
      <trkpt lat="48.58307" lon="1.80026">
        <ele>128</ele>
        <time>2010-05-15T10:42:22Z</time>
      </trkpt>
      <trkpt lat="48.58309" lon="1.80027">
        <ele>128</ele>
        <time>2010-05-15T10:42:23Z</time>
      </trkpt>
      <trkpt lat="48.58311" lon="1.80027">
        <ele>128</ele>
        <time>2010-05-15T10:42:25Z</time>
      </trkpt>
      <trkpt lat="48.58312" lon="1.80027">
        <ele>129</ele>
        <time>2010-05-15T10:42:29Z</time>
      </trkpt>
      <trkpt lat="48.58314" lon="1.80027">
        <ele>134</ele>
        <time>2010-05-15T10:42:36Z</time>
      </trkpt>
      <trkpt lat="48.58315" lon="1.80027">
        <ele>135</ele>
        <time>2010-05-15T10:42:38Z</time>
      </trkpt>
      <trkpt lat="48.58314" lon="1.80026">
        <ele>137</ele>
        <time>2010-05-15T10:42:40Z</time>
      </trkpt>
      <trkpt lat="48.58312" lon="1.80026">
        <ele>138</ele>
        <time>2010-05-15T10:42:41Z</time>
      </trkpt>
      <trkpt lat="48.58311" lon="1.80026">
        <ele>138</ele>
        <time>2010-05-15T10:42:42Z</time>
      </trkpt>
      <trkpt lat="48.5831" lon="1.80026">
        <ele>138</ele>
        <time>2010-05-15T10:42:43Z</time>
      </trkpt>
      <trkpt lat="48.58308" lon="1.80025">
        <ele>138</ele>
        <time>2010-05-15T10:42:44Z</time>
      </trkpt>
      <trkpt lat="48.58307" lon="1.80025">
        <ele>138</ele>
        <time>2010-05-15T10:42:45Z</time>
      </trkpt>
      <trkpt lat="48.58306" lon="1.80026">
        <ele>138</ele>
        <time>2010-05-15T10:42:47Z</time>
      </trkpt>
      <trkpt lat="48.58304" lon="1.80028">
        <ele>138</ele>
        <time>2010-05-15T10:42:49Z</time>
      </trkpt>
      <trkpt lat="48.58302" lon="1.8003">
        <ele>138</ele>
        <time>2010-05-15T10:42:50Z</time>
      </trkpt>
      <trkpt lat="48.583" lon="1.80032">
        <ele>138</ele>
        <time>2010-05-15T10:42:51Z</time>
      </trkpt>
      <trkpt lat="48.58299" lon="1.80033">
        <ele>138</ele>
        <time>2010-05-15T10:42:52Z</time>
      </trkpt>
      <trkpt lat="48.58298" lon="1.80034">
        <ele>138</ele>
        <time>2010-05-15T10:42:55Z</time>
      </trkpt>
      <trkpt lat="48.58297" lon="1.80034">
        <ele>138</ele>
        <time>2010-05-15T10:43:01Z</time>
      </trkpt>
      <trkpt lat="48.58298" lon="1.80034">
        <ele>138</ele>
        <time>2010-05-15T10:43:09Z</time>
      </trkpt>
      <trkpt lat="48.58298" lon="1.80036">
        <ele>144</ele>
        <time>2010-05-15T10:43:19Z</time>
      </trkpt>
      <trkpt lat="48.58299" lon="1.80034">
        <ele>145</ele>
        <time>2010-05-15T10:43:28Z</time>
      </trkpt>
      <trkpt lat="48.583" lon="1.80032">
        <ele>145</ele>
        <time>2010-05-15T10:43:32Z</time>
      </trkpt>
      <trkpt lat="48.58299" lon="1.8003">
        <ele>145</ele>
        <time>2010-05-15T10:43:33Z</time>
      </trkpt>
      <trkpt lat="48.58298" lon="1.80029">
        <ele>145</ele>
        <time>2010-05-15T10:43:35Z</time>
      </trkpt>
      <trkpt lat="48.58296" lon="1.80029">
        <ele>145</ele>
        <time>2010-05-15T10:43:37Z</time>
      </trkpt>
      <trkpt lat="48.58296" lon="1.80026">
        <ele>145</ele>
        <time>2010-05-15T10:43:43Z</time>
      </trkpt>
      <trkpt lat="48.58295" lon="1.80024">
        <ele>144</ele>
        <time>2010-05-15T10:43:46Z</time>
      </trkpt>
      <trkpt lat="48.58297" lon="1.80025">
        <ele>144</ele>
        <time>2010-05-15T10:43:47Z</time>
      </trkpt>
      <trkpt lat="48.58296" lon="1.80025">
        <ele>144</ele>
        <time>2010-05-15T10:43:51Z</time>
      </trkpt>
      <trkpt lat="48.58295" lon="1.80025">
        <ele>144</ele>
        <time>2010-05-15T10:43:59Z</time>
      </trkpt>
      <trkpt lat="48.58294" lon="1.80025">
        <ele>144</ele>
        <time>2010-05-15T10:44:02Z</time>
      </trkpt>
      <trkpt lat="48.58292" lon="1.80025">
        <ele>144</ele>
        <time>2010-05-15T10:44:09Z</time>
      </trkpt>
      <trkpt lat="48.58291" lon="1.80023">
        <ele>144</ele>
        <time>2010-05-15T10:44:11Z</time>
      </trkpt>
      <trkpt lat="48.58291" lon="1.80021">
        <ele>144</ele>
        <time>2010-05-15T10:44:15Z</time>
      </trkpt>
      <trkpt lat="48.5829" lon="1.80019">
        <ele>145</ele>
        <time>2010-05-15T10:44:18Z</time>
      </trkpt>
      <trkpt lat="48.58289" lon="1.80017">
        <ele>145</ele>
        <time>2010-05-15T10:44:21Z</time>
      </trkpt>
      <trkpt lat="48.58289" lon="1.80015">
        <ele>145</ele>
        <time>2010-05-15T10:44:23Z</time>
      </trkpt>
      <trkpt lat="48.5829" lon="1.80014">
        <ele>145</ele>
        <time>2010-05-15T10:44:29Z</time>
      </trkpt>
      <trkpt lat="48.58289" lon="1.80014">
        <ele>145</ele>
        <time>2010-05-15T10:44:32Z</time>
      </trkpt>
      <trkpt lat="48.58289" lon="1.80012">
        <ele>144</ele>
        <time>2010-05-15T10:44:35Z</time>
      </trkpt>
      <trkpt lat="48.58289" lon="1.80015">
        <ele>140</ele>
        <time>2010-05-15T10:44:40Z</time>
      </trkpt>
      <trkpt lat="48.5829" lon="1.80016">
        <ele>139</ele>
        <time>2010-05-15T10:44:45Z</time>
      </trkpt>
      <trkpt lat="48.5829" lon="1.80018">
        <ele>139</ele>
        <time>2010-05-15T10:44:50Z</time>
      </trkpt>
      <trkpt lat="48.58292" lon="1.80019">
        <ele>139</ele>
        <time>2010-05-15T10:44:56Z</time>
      </trkpt>
      <trkpt lat="48.58293" lon="1.80021">
        <ele>139</ele>
        <time>2010-05-15T10:44:58Z</time>
      </trkpt>
      <trkpt lat="48.58293" lon="1.80024">
        <ele>139</ele>
        <time>2010-05-15T10:45:00Z</time>
      </trkpt>
      <trkpt lat="48.58294" lon="1.80027">
        <ele>139</ele>
        <time>2010-05-15T10:45:01Z</time>
      </trkpt>
      <trkpt lat="48.58295" lon="1.80028">
        <ele>139</ele>
        <time>2010-05-15T10:45:02Z</time>
      </trkpt>
      <trkpt lat="48.58296" lon="1.80029">
        <ele>139</ele>
        <time>2010-05-15T10:45:03Z</time>
      </trkpt>
      <trkpt lat="48.58297" lon="1.8003">
        <ele>139</ele>
        <time>2010-05-15T10:45:04Z</time>
      </trkpt>
      <trkpt lat="48.58299" lon="1.80033">
        <ele>139</ele>
        <time>2010-05-15T10:45:06Z</time>
      </trkpt>
      <trkpt lat="48.583" lon="1.80036">
        <ele>139</ele>
        <time>2010-05-15T10:45:08Z</time>
      </trkpt>
      <trkpt lat="48.58301" lon="1.80039">
        <ele>139</ele>
        <time>2010-05-15T10:45:10Z</time>
      </trkpt>
      <trkpt lat="48.58302" lon="1.80041">
        <ele>139</ele>
        <time>2010-05-15T10:45:11Z</time>
      </trkpt>
      <trkpt lat="48.58302" lon="1.80043">
        <ele>139</ele>
        <time>2010-05-15T10:45:12Z</time>
      </trkpt>
      <trkpt lat="48.58303" lon="1.80047">
        <ele>139</ele>
        <time>2010-05-15T10:45:14Z</time>
      </trkpt>
      <trkpt lat="48.58304" lon="1.80049">
        <ele>139</ele>
        <time>2010-05-15T10:45:15Z</time>
      </trkpt>
      <trkpt lat="48.58306" lon="1.80052">
        <ele>139</ele>
        <time>2010-05-15T10:45:17Z</time>
      </trkpt>
      <trkpt lat="48.58306" lon="1.80054">
        <ele>139</ele>
        <time>2010-05-15T10:45:18Z</time>
      </trkpt>
      <trkpt lat="48.58307" lon="1.80055">
        <ele>139</ele>
        <time>2010-05-15T10:45:19Z</time>
      </trkpt>
      <trkpt lat="48.58308" lon="1.80057">
        <ele>139</ele>
        <time>2010-05-15T10:45:20Z</time>
      </trkpt>
      <trkpt lat="48.58308" lon="1.80059">
        <ele>139</ele>
        <time>2010-05-15T10:45:21Z</time>
      </trkpt>
      <trkpt lat="48.58308" lon="1.80061">
        <ele>139</ele>
        <time>2010-05-15T10:45:22Z</time>
      </trkpt>
      <trkpt lat="48.5831" lon="1.80064">
        <ele>139</ele>
        <time>2010-05-15T10:45:24Z</time>
      </trkpt>
      <trkpt lat="48.58311" lon="1.80066">
        <ele>139</ele>
        <time>2010-05-15T10:45:26Z</time>
      </trkpt>
      <trkpt lat="48.58311" lon="1.80068">
        <ele>139</ele>
        <time>2010-05-15T10:45:28Z</time>
      </trkpt>
      <trkpt lat="48.58312" lon="1.8007">
        <ele>139</ele>
        <time>2010-05-15T10:45:30Z</time>
      </trkpt>
      <trkpt lat="48.58313" lon="1.80073">
        <ele>139</ele>
        <time>2010-05-15T10:45:32Z</time>
      </trkpt>
      <trkpt lat="48.58314" lon="1.80075">
        <ele>139</ele>
        <time>2010-05-15T10:45:33Z</time>
      </trkpt>
      <trkpt lat="48.58315" lon="1.80077">
        <ele>139</ele>
        <time>2010-05-15T10:45:34Z</time>
      </trkpt>
      <trkpt lat="48.58316" lon="1.80079">
        <ele>139</ele>
        <time>2010-05-15T10:45:35Z</time>
      </trkpt>
      <trkpt lat="48.58316" lon="1.80082">
        <ele>139</ele>
        <time>2010-05-15T10:45:36Z</time>
      </trkpt>
      <trkpt lat="48.58317" lon="1.80083">
        <ele>139</ele>
        <time>2010-05-15T10:45:37Z</time>
      </trkpt>
      <trkpt lat="48.58317" lon="1.80085">
        <ele>139</ele>
        <time>2010-05-15T10:45:38Z</time>
      </trkpt>
      <trkpt lat="48.58318" lon="1.80087">
        <ele>139</ele>
        <time>2010-05-15T10:45:39Z</time>
      </trkpt>
      <trkpt lat="48.58319" lon="1.80089">
        <ele>139</ele>
        <time>2010-05-15T10:45:40Z</time>
      </trkpt>
      <trkpt lat="48.5832" lon="1.80092">
        <ele>139</ele>
        <time>2010-05-15T10:45:41Z</time>
      </trkpt>
      <trkpt lat="48.5832" lon="1.80094">
        <ele>139</ele>
        <time>2010-05-15T10:45:42Z</time>
      </trkpt>
      <trkpt lat="48.58321" lon="1.80096">
        <ele>139</ele>
        <time>2010-05-15T10:45:43Z</time>
      </trkpt>
      <trkpt lat="48.58322" lon="1.80098">
        <ele>139</ele>
        <time>2010-05-15T10:45:44Z</time>
      </trkpt>
      <trkpt lat="48.58322" lon="1.801">
        <ele>139</ele>
        <time>2010-05-15T10:45:45Z</time>
      </trkpt>
      <trkpt lat="48.58324" lon="1.80102">
        <ele>139</ele>
        <time>2010-05-15T10:45:46Z</time>
      </trkpt>
      <trkpt lat="48.58324" lon="1.80104">
        <ele>139</ele>
        <time>2010-05-15T10:45:47Z</time>
      </trkpt>
      <trkpt lat="48.58325" lon="1.80105">
        <ele>139</ele>
        <time>2010-05-15T10:45:48Z</time>
      </trkpt>
      <trkpt lat="48.58326" lon="1.80107">
        <ele>139</ele>
        <time>2010-05-15T10:45:49Z</time>
      </trkpt>
      <trkpt lat="48.58327" lon="1.80109">
        <ele>139</ele>
        <time>2010-05-15T10:45:50Z</time>
      </trkpt>
      <trkpt lat="48.58327" lon="1.8011">
        <ele>139</ele>
        <time>2010-05-15T10:45:51Z</time>
      </trkpt>
      <trkpt lat="48.58328" lon="1.80112">
        <ele>139</ele>
        <time>2010-05-15T10:45:52Z</time>
      </trkpt>
      <trkpt lat="48.58328" lon="1.80114">
        <ele>139</ele>
        <time>2010-05-15T10:45:53Z</time>
      </trkpt>
      <trkpt lat="48.58329" lon="1.80116">
        <ele>139</ele>
        <time>2010-05-15T10:45:55Z</time>
      </trkpt>
      <trkpt lat="48.58328" lon="1.80114">
        <ele>139</ele>
        <time>2010-05-15T10:46:00Z</time>
      </trkpt>
      <trkpt lat="48.58327" lon="1.80111">
        <ele>139</ele>
        <time>2010-05-15T10:46:02Z</time>
      </trkpt>
      <trkpt lat="48.58326" lon="1.8011">
        <ele>139</ele>
        <time>2010-05-15T10:46:03Z</time>
      </trkpt>
      <trkpt lat="48.58326" lon="1.80108">
        <ele>139</ele>
        <time>2010-05-15T10:46:04Z</time>
      </trkpt>
      <trkpt lat="48.58325" lon="1.80106">
        <ele>139</ele>
        <time>2010-05-15T10:46:05Z</time>
      </trkpt>
      <trkpt lat="48.58325" lon="1.80104">
        <ele>139</ele>
        <time>2010-05-15T10:46:06Z</time>
      </trkpt>
      <trkpt lat="48.58324" lon="1.80102">
        <ele>139</ele>
        <time>2010-05-15T10:46:07Z</time>
      </trkpt>
      <trkpt lat="48.58323" lon="1.80099">
        <ele>139</ele>
        <time>2010-05-15T10:46:09Z</time>
      </trkpt>
      <trkpt lat="48.58322" lon="1.80097">
        <ele>139</ele>
        <time>2010-05-15T10:46:11Z</time>
      </trkpt>
      <trkpt lat="48.58321" lon="1.80095">
        <ele>139</ele>
        <time>2010-05-15T10:46:12Z</time>
      </trkpt>
      <trkpt lat="48.58321" lon="1.80093">
        <ele>139</ele>
        <time>2010-05-15T10:46:13Z</time>
      </trkpt>
      <trkpt lat="48.58321" lon="1.80091">
        <ele>139</ele>
        <time>2010-05-15T10:46:14Z</time>
      </trkpt>
      <trkpt lat="48.5832" lon="1.80088">
        <ele>139</ele>
        <time>2010-05-15T10:46:16Z</time>
      </trkpt>
      <trkpt lat="48.5832" lon="1.80086">
        <ele>139</ele>
        <time>2010-05-15T10:46:17Z</time>
      </trkpt>
      <trkpt lat="48.5832" lon="1.80084">
        <ele>139</ele>
        <time>2010-05-15T10:46:18Z</time>
      </trkpt>
      <trkpt lat="48.5832" lon="1.80082">
        <ele>139</ele>
        <time>2010-05-15T10:46:19Z</time>
      </trkpt>
      <trkpt lat="48.58318" lon="1.8008">
        <ele>138</ele>
        <time>2010-05-15T10:46:21Z</time>
      </trkpt>
      <trkpt lat="48.58317" lon="1.80076">
        <ele>138</ele>
        <time>2010-05-15T10:46:23Z</time>
      </trkpt>
      <trkpt lat="48.58317" lon="1.80075">
        <ele>137</ele>
        <time>2010-05-15T10:46:24Z</time>
      </trkpt>
      <trkpt lat="48.58318" lon="1.80073">
        <ele>137</ele>
        <time>2010-05-15T10:46:25Z</time>
      </trkpt>
      <trkpt lat="48.58318" lon="1.8007">
        <ele>136</ele>
        <time>2010-05-15T10:46:27Z</time>
      </trkpt>
      <trkpt lat="48.58316" lon="1.80068">
        <ele>136</ele>
        <time>2010-05-15T10:46:29Z</time>
      </trkpt>
      <trkpt lat="48.58315" lon="1.80065">
        <ele>135</ele>
        <time>2010-05-15T10:46:31Z</time>
      </trkpt>
      <trkpt lat="48.58314" lon="1.80064">
        <ele>135</ele>
        <time>2010-05-15T10:46:32Z</time>
      </trkpt>
      <trkpt lat="48.58313" lon="1.80061">
        <ele>134</ele>
        <time>2010-05-15T10:46:34Z</time>
      </trkpt>
      <trkpt lat="48.58312" lon="1.80057">
        <ele>134</ele>
        <time>2010-05-15T10:46:36Z</time>
      </trkpt>
      <trkpt lat="48.58311" lon="1.80056">
        <ele>134</ele>
        <time>2010-05-15T10:46:37Z</time>
      </trkpt>
      <trkpt lat="48.5831" lon="1.80052">
        <ele>134</ele>
        <time>2010-05-15T10:46:39Z</time>
      </trkpt>
      <trkpt lat="48.5831" lon="1.80051">
        <ele>134</ele>
        <time>2010-05-15T10:46:40Z</time>
      </trkpt>
      <trkpt lat="48.58309" lon="1.80049">
        <ele>134</ele>
        <time>2010-05-15T10:46:42Z</time>
      </trkpt>
      <trkpt lat="48.58308" lon="1.80046">
        <ele>134</ele>
        <time>2010-05-15T10:46:44Z</time>
      </trkpt>
      <trkpt lat="48.58307" lon="1.80044">
        <ele>134</ele>
        <time>2010-05-15T10:46:46Z</time>
      </trkpt>
      <trkpt lat="48.58307" lon="1.80042">
        <ele>134</ele>
        <time>2010-05-15T10:46:47Z</time>
      </trkpt>
      <trkpt lat="48.58306" lon="1.80039">
        <ele>134</ele>
        <time>2010-05-15T10:46:49Z</time>
      </trkpt>
      <trkpt lat="48.58305" lon="1.80037">
        <ele>134</ele>
        <time>2010-05-15T10:46:51Z</time>
      </trkpt>
      <trkpt lat="48.58304" lon="1.80037">
        <ele>134</ele>
        <time>2010-05-15T10:46:53Z</time>
      </trkpt>
      <trkpt lat="48.58303" lon="1.80036">
        <ele>134</ele>
        <time>2010-05-15T10:47:07Z</time>
      </trkpt>
      <trkpt lat="48.58302" lon="1.80036">
        <ele>134</ele>
        <time>2010-05-15T10:47:12Z</time>
      </trkpt>
      <trkpt lat="48.58301" lon="1.80034">
        <ele>134</ele>
        <time>2010-05-15T10:47:14Z</time>
      </trkpt>
      <trkpt lat="48.58301" lon="1.80032">
        <ele>134</ele>
        <time>2010-05-15T10:47:16Z</time>
      </trkpt>
      <trkpt lat="48.583" lon="1.80029">
        <ele>135</ele>
        <time>2010-05-15T10:47:19Z</time>
      </trkpt>
      <trkpt lat="48.583" lon="1.80032">
        <ele>135</ele>
        <time>2010-05-15T10:47:24Z</time>
      </trkpt>
      <trkpt lat="48.583" lon="1.80034">
        <ele>135</ele>
        <time>2010-05-15T10:47:26Z</time>
      </trkpt>
      <trkpt lat="48.583" lon="1.80031">
        <ele>136</ele>
        <time>2010-05-15T10:47:33Z</time>
      </trkpt>
      <trkpt lat="48.58301" lon="1.80031">
        <ele>137</ele>
        <time>2010-05-15T10:47:53Z</time>
      </trkpt>
      <trkpt lat="48.58303" lon="1.80033">
        <ele>138</ele>
        <time>2010-05-15T10:47:57Z</time>
      </trkpt>
      <trkpt lat="48.58304" lon="1.80033">
        <ele>139</ele>
        <time>2010-05-15T10:47:59Z</time>
      </trkpt>
      <trkpt lat="48.58304" lon="1.80036">
        <ele>139</ele>
        <time>2010-05-15T10:48:01Z</time>
      </trkpt>
      <trkpt lat="48.58304" lon="1.80039">
        <ele>139</ele>
        <time>2010-05-15T10:48:03Z</time>
      </trkpt>
      <trkpt lat="48.58305" lon="1.80041">
        <ele>139</ele>
        <time>2010-05-15T10:48:05Z</time>
      </trkpt>
      <trkpt lat="48.58305" lon="1.80045">
        <ele>139</ele>
        <time>2010-05-15T10:48:07Z</time>
      </trkpt>
      <trkpt lat="48.58306" lon="1.80048">
        <ele>139</ele>
        <time>2010-05-15T10:48:09Z</time>
      </trkpt>
      <trkpt lat="48.58306" lon="1.80045">
        <ele>139</ele>
        <time>2010-05-15T10:48:12Z</time>
      </trkpt>
      <trkpt lat="48.58306" lon="1.80043">
        <ele>139</ele>
        <time>2010-05-15T10:48:13Z</time>
      </trkpt>
      <trkpt lat="48.58306" lon="1.80041">
        <ele>139</ele>
        <time>2010-05-15T10:48:14Z</time>
      </trkpt>
      <trkpt lat="48.58305" lon="1.80039">
        <ele>139</ele>
        <time>2010-05-15T10:48:15Z</time>
      </trkpt>
      <trkpt lat="48.58303" lon="1.80036">
        <ele>139</ele>
        <time>2010-05-15T10:48:17Z</time>
      </trkpt>
      <trkpt lat="48.58302" lon="1.80033">
        <ele>138</ele>
        <time>2010-05-15T10:48:19Z</time>
      </trkpt>
      <trkpt lat="48.58302" lon="1.80031">
        <ele>138</ele>
        <time>2010-05-15T10:48:20Z</time>
      </trkpt>
      <trkpt lat="48.58302" lon="1.8003">
        <ele>137</ele>
        <time>2010-05-15T10:48:21Z</time>
      </trkpt>
      <trkpt lat="48.58302" lon="1.80028">
        <ele>137</ele>
        <time>2010-05-15T10:48:24Z</time>
      </trkpt>
      <trkpt lat="48.58304" lon="1.80027">
        <ele>137</ele>
        <time>2010-05-15T10:48:26Z</time>
      </trkpt>
      <trkpt lat="48.58305" lon="1.80028">
        <ele>137</ele>
        <time>2010-05-15T10:48:28Z</time>
      </trkpt>
      <trkpt lat="48.58307" lon="1.80028">
        <ele>137</ele>
        <time>2010-05-15T10:48:30Z</time>
      </trkpt>
      <trkpt lat="48.58308" lon="1.80028">
        <ele>137</ele>
        <time>2010-05-15T10:48:34Z</time>
      </trkpt>
      <trkpt lat="48.58308" lon="1.80027">
        <ele>137</ele>
        <time>2010-05-15T10:48:38Z</time>
      </trkpt>
      <trkpt lat="48.58307" lon="1.80025">
        <ele>137</ele>
        <time>2010-05-15T10:48:52Z</time>
      </trkpt>
      <trkpt lat="48.58309" lon="1.80026">
        <ele>137</ele>
        <time>2010-05-15T10:49:10Z</time>
      </trkpt>
      <trkpt lat="48.58309" lon="1.80023">
        <ele>137</ele>
        <time>2010-05-15T10:49:31Z</time>
      </trkpt>
      <trkpt lat="48.58309" lon="1.80021">
        <ele>137</ele>
        <time>2010-05-15T10:49:32Z</time>
      </trkpt>
      <trkpt lat="48.58309" lon="1.8002">
        <ele>137</ele>
        <time>2010-05-15T10:49:33Z</time>
      </trkpt>
      <trkpt lat="48.58307" lon="1.80021">
        <ele>140</ele>
        <time>2010-05-15T10:49:50Z</time>
      </trkpt>
      <trkpt lat="48.58306" lon="1.80021">
        <ele>141</ele>
        <time>2010-05-15T10:49:54Z</time>
      </trkpt>
      <trkpt lat="48.58305" lon="1.80022">
        <ele>141</ele>
        <time>2010-05-15T10:49:59Z</time>
      </trkpt>
      <trkpt lat="48.58305" lon="1.80023">
        <ele>141</ele>
        <time>2010-05-15T10:50:12Z</time>
      </trkpt>
      <trkpt lat="48.58305" lon="1.80025">
        <ele>141</ele>
        <time>2010-05-15T10:50:14Z</time>
      </trkpt>
      <trkpt lat="48.58305" lon="1.80023">
        <ele>141</ele>
        <time>2010-05-15T10:50:18Z</time>
      </trkpt>
      <trkpt lat="48.58305" lon="1.80025">
        <ele>142</ele>
        <time>2010-05-15T10:50:24Z</time>
      </trkpt>
      <trkpt lat="48.58305" lon="1.80028">
        <ele>142</ele>
        <time>2010-05-15T10:50:26Z</time>
      </trkpt>
      <trkpt lat="48.58306" lon="1.80029">
        <ele>142</ele>
        <time>2010-05-15T10:50:28Z</time>
      </trkpt>
      <trkpt lat="48.58307" lon="1.8003">
        <ele>142</ele>
        <time>2010-05-15T10:50:38Z</time>
      </trkpt>
      <trkpt lat="48.58308" lon="1.80032">
        <ele>144</ele>
        <time>2010-05-15T10:50:48Z</time>
      </trkpt>
      <trkpt lat="48.58309" lon="1.80029">
        <ele>144</ele>
        <time>2010-05-15T10:50:51Z</time>
      </trkpt>
      <trkpt lat="48.58309" lon="1.80027">
        <ele>144</ele>
        <time>2010-05-15T10:50:52Z</time>
      </trkpt>
      <trkpt lat="48.5831" lon="1.80025">
        <ele>144</ele>
        <time>2010-05-15T10:50:53Z</time>
      </trkpt>
      <trkpt lat="48.58311" lon="1.80023">
        <ele>144</ele>
        <time>2010-05-15T10:50:55Z</time>
      </trkpt>
      <trkpt lat="48.58312" lon="1.80022">
        <ele>144</ele>
        <time>2010-05-15T10:50:57Z</time>
      </trkpt>
      <trkpt lat="48.58314" lon="1.80022">
        <ele>144</ele>
        <time>2010-05-15T10:50:59Z</time>
      </trkpt>
      <trkpt lat="48.58316" lon="1.80022">
        <ele>144</ele>
        <time>2010-05-15T10:51:01Z</time>
      </trkpt>
      <trkpt lat="48.58318" lon="1.80023">
        <ele>144</ele>
        <time>2010-05-15T10:51:03Z</time>
      </trkpt>
      <trkpt lat="48.5832" lon="1.80023">
        <ele>144</ele>
        <time>2010-05-15T10:51:05Z</time>
      </trkpt>
      <trkpt lat="48.58322" lon="1.80024">
        <ele>144</ele>
        <time>2010-05-15T10:51:10Z</time>
      </trkpt>
      <trkpt lat="48.58323" lon="1.80023">
        <ele>144</ele>
        <time>2010-05-15T10:51:12Z</time>
      </trkpt>
      <trkpt lat="48.58326" lon="1.80022">
        <ele>144</ele>
        <time>2010-05-15T10:51:14Z</time>
      </trkpt>
      <trkpt lat="48.58327" lon="1.80022">
        <ele>144</ele>
        <time>2010-05-15T10:51:15Z</time>
      </trkpt>
      <trkpt lat="48.58328" lon="1.80021">
        <ele>144</ele>
        <time>2010-05-15T10:51:16Z</time>
      </trkpt>
      <trkpt lat="48.5833" lon="1.80021">
        <ele>144</ele>
        <time>2010-05-15T10:51:17Z</time>
      </trkpt>
      <trkpt lat="48.58332" lon="1.8002">
        <ele>144</ele>
        <time>2010-05-15T10:51:18Z</time>
      </trkpt>
      <trkpt lat="48.58335" lon="1.8002">
        <ele>144</ele>
        <time>2010-05-15T10:51:19Z</time>
      </trkpt>
      <trkpt lat="48.58338" lon="1.80021">
        <ele>144</ele>
        <time>2010-05-15T10:51:20Z</time>
      </trkpt>
      <trkpt lat="48.58341" lon="1.80023">
        <ele>144</ele>
        <time>2010-05-15T10:51:21Z</time>
      </trkpt>
      <trkpt lat="48.58344" lon="1.80026">
        <ele>144</ele>
        <time>2010-05-15T10:51:22Z</time>
      </trkpt>
      <trkpt lat="48.58347" lon="1.80029">
        <ele>144</ele>
        <time>2010-05-15T10:51:23Z</time>
      </trkpt>
      <trkpt lat="48.58352" lon="1.80031">
        <ele>144</ele>
        <time>2010-05-15T10:51:24Z</time>
      </trkpt>
      <trkpt lat="48.58356" lon="1.80034">
        <ele>144</ele>
        <time>2010-05-15T10:51:25Z</time>
      </trkpt>
      <trkpt lat="48.58362" lon="1.80036">
        <ele>143</ele>
        <time>2010-05-15T10:51:26Z</time>
      </trkpt>
      <trkpt lat="48.58366" lon="1.80038">
        <ele>143</ele>
        <time>2010-05-15T10:51:27Z</time>
      </trkpt>
      <trkpt lat="48.58371" lon="1.8004">
        <ele>142</ele>
        <time>2010-05-15T10:51:28Z</time>
      </trkpt>
      <trkpt lat="48.58376" lon="1.80041">
        <ele>142</ele>
        <time>2010-05-15T10:51:29Z</time>
      </trkpt>
      <trkpt lat="48.58382" lon="1.80042">
        <ele>141</ele>
        <time>2010-05-15T10:51:30Z</time>
      </trkpt>
      <trkpt lat="48.58387" lon="1.80044">
        <ele>141</ele>
        <time>2010-05-15T10:51:31Z</time>
      </trkpt>
      <trkpt lat="48.58392" lon="1.80046">
        <ele>141</ele>
        <time>2010-05-15T10:51:32Z</time>
      </trkpt>
      <trkpt lat="48.58398" lon="1.80047">
        <ele>141</ele>
        <time>2010-05-15T10:51:33Z</time>
      </trkpt>
      <trkpt lat="48.58402" lon="1.80047">
        <ele>141</ele>
        <time>2010-05-15T10:51:34Z</time>
      </trkpt>
      <trkpt lat="48.58407" lon="1.80047">
        <ele>141</ele>
        <time>2010-05-15T10:51:35Z</time>
      </trkpt>
      <trkpt lat="48.58412" lon="1.80045">
        <ele>141</ele>
        <time>2010-05-15T10:51:36Z</time>
      </trkpt>
      <trkpt lat="48.58416" lon="1.80044">
        <ele>141</ele>
        <time>2010-05-15T10:51:37Z</time>
      </trkpt>
      <trkpt lat="48.58421" lon="1.80042">
        <ele>141</ele>
        <time>2010-05-15T10:51:38Z</time>
      </trkpt>
      <trkpt lat="48.58426" lon="1.8004">
        <ele>141</ele>
        <time>2010-05-15T10:51:39Z</time>
      </trkpt>
      <trkpt lat="48.5843" lon="1.80038">
        <ele>141</ele>
        <time>2010-05-15T10:51:40Z</time>
      </trkpt>
      <trkpt lat="48.58435" lon="1.80035">
        <ele>141</ele>
        <time>2010-05-15T10:51:41Z</time>
      </trkpt>
      <trkpt lat="48.58439" lon="1.80032">
        <ele>141</ele>
        <time>2010-05-15T10:51:42Z</time>
      </trkpt>
      <trkpt lat="48.58443" lon="1.80028">
        <ele>141</ele>
        <time>2010-05-15T10:51:43Z</time>
      </trkpt>
      <trkpt lat="48.58448" lon="1.80024">
        <ele>141</ele>
        <time>2010-05-15T10:51:44Z</time>
      </trkpt>
      <trkpt lat="48.58453" lon="1.8002">
        <ele>141</ele>
        <time>2010-05-15T10:51:45Z</time>
      </trkpt>
      <trkpt lat="48.58457" lon="1.80016">
        <ele>141</ele>
        <time>2010-05-15T10:51:46Z</time>
      </trkpt>
      <trkpt lat="48.58462" lon="1.80012">
        <ele>141</ele>
        <time>2010-05-15T10:51:47Z</time>
      </trkpt>
      <trkpt lat="48.58467" lon="1.80008">
        <ele>141</ele>
        <time>2010-05-15T10:51:48Z</time>
      </trkpt>
      <trkpt lat="48.58472" lon="1.80004">
        <ele>141</ele>
        <time>2010-05-15T10:51:49Z</time>
      </trkpt>
      <trkpt lat="48.58476" lon="1.8">
        <ele>141</ele>
        <time>2010-05-15T10:51:50Z</time>
      </trkpt>
      <trkpt lat="48.5848" lon="1.79996">
        <ele>141</ele>
        <time>2010-05-15T10:51:51Z</time>
      </trkpt>
      <trkpt lat="48.58485" lon="1.79992">
        <ele>141</ele>
        <time>2010-05-15T10:51:52Z</time>
      </trkpt>
      <trkpt lat="48.58489" lon="1.79987">
        <ele>142</ele>
        <time>2010-05-15T10:51:53Z</time>
      </trkpt>
      <trkpt lat="48.58494" lon="1.79983">
        <ele>142</ele>
        <time>2010-05-15T10:51:54Z</time>
      </trkpt>
      <trkpt lat="48.58498" lon="1.79979">
        <ele>142</ele>
        <time>2010-05-15T10:51:55Z</time>
      </trkpt>
      <trkpt lat="48.58503" lon="1.79975">
        <ele>142</ele>
        <time>2010-05-15T10:51:56Z</time>
      </trkpt>
      <trkpt lat="48.58507" lon="1.79972">
        <ele>142</ele>
        <time>2010-05-15T10:51:57Z</time>
      </trkpt>
      <trkpt lat="48.58512" lon="1.79968">
        <ele>142</ele>
        <time>2010-05-15T10:51:58Z</time>
      </trkpt>
      <trkpt lat="48.58517" lon="1.79963">
        <ele>143</ele>
        <time>2010-05-15T10:51:59Z</time>
      </trkpt>
      <trkpt lat="48.58521" lon="1.79959">
        <ele>143</ele>
        <time>2010-05-15T10:52:00Z</time>
      </trkpt>
      <trkpt lat="48.58526" lon="1.79956">
        <ele>143</ele>
        <time>2010-05-15T10:52:01Z</time>
      </trkpt>
      <trkpt lat="48.58531" lon="1.79952">
        <ele>144</ele>
        <time>2010-05-15T10:52:02Z</time>
      </trkpt>
      <trkpt lat="48.58536" lon="1.79948">
        <ele>144</ele>
        <time>2010-05-15T10:52:03Z</time>
      </trkpt>
      <trkpt lat="48.5854" lon="1.79944">
        <ele>144</ele>
        <time>2010-05-15T10:52:04Z</time>
      </trkpt>
      <trkpt lat="48.58544" lon="1.7994">
        <ele>145</ele>
        <time>2010-05-15T10:52:05Z</time>
      </trkpt>
      <trkpt lat="48.58549" lon="1.79936">
        <ele>145</ele>
        <time>2010-05-15T10:52:06Z</time>
      </trkpt>
      <trkpt lat="48.58554" lon="1.79932">
        <ele>145</ele>
        <time>2010-05-15T10:52:07Z</time>
      </trkpt>
      <trkpt lat="48.58559" lon="1.79928">
        <ele>145</ele>
        <time>2010-05-15T10:52:08Z</time>
      </trkpt>
      <trkpt lat="48.58563" lon="1.79924">
        <ele>145</ele>
        <time>2010-05-15T10:52:09Z</time>
      </trkpt>
      <trkpt lat="48.58568" lon="1.7992">
        <ele>145</ele>
        <time>2010-05-15T10:52:10Z</time>
      </trkpt>
      <trkpt lat="48.58573" lon="1.79916">
        <ele>146</ele>
        <time>2010-05-15T10:52:11Z</time>
      </trkpt>
      <trkpt lat="48.58577" lon="1.79912">
        <ele>146</ele>
        <time>2010-05-15T10:52:12Z</time>
      </trkpt>
      <trkpt lat="48.58582" lon="1.79907">
        <ele>146</ele>
        <time>2010-05-15T10:52:13Z</time>
      </trkpt>
      <trkpt lat="48.58586" lon="1.79903">
        <ele>146</ele>
        <time>2010-05-15T10:52:14Z</time>
      </trkpt>
      <trkpt lat="48.58591" lon="1.799">
        <ele>146</ele>
        <time>2010-05-15T10:52:15Z</time>
      </trkpt>
      <trkpt lat="48.58593" lon="1.79895">
        <ele>146</ele>
        <time>2010-05-15T10:52:16Z</time>
      </trkpt>
      <trkpt lat="48.58593" lon="1.79889">
        <ele>146</ele>
        <time>2010-05-15T10:52:17Z</time>
      </trkpt>
      <trkpt lat="48.58592" lon="1.79884">
        <ele>146</ele>
        <time>2010-05-15T10:52:18Z</time>
      </trkpt>
      <trkpt lat="48.58588" lon="1.79879">
        <ele>147</ele>
        <time>2010-05-15T10:52:19Z</time>
      </trkpt>
      <trkpt lat="48.58585" lon="1.79875">
        <ele>147</ele>
        <time>2010-05-15T10:52:20Z</time>
      </trkpt>
      <trkpt lat="48.58581" lon="1.7987">
        <ele>147</ele>
        <time>2010-05-15T10:52:21Z</time>
      </trkpt>
      <trkpt lat="48.58577" lon="1.79865">
        <ele>147</ele>
        <time>2010-05-15T10:52:22Z</time>
      </trkpt>
      <trkpt lat="48.58573" lon="1.7986">
        <ele>147</ele>
        <time>2010-05-15T10:52:23Z</time>
      </trkpt>
      <trkpt lat="48.58568" lon="1.79854">
        <ele>147</ele>
        <time>2010-05-15T10:52:24Z</time>
      </trkpt>
      <trkpt lat="48.58564" lon="1.79848">
        <ele>147</ele>
        <time>2010-05-15T10:52:25Z</time>
      </trkpt>
      <trkpt lat="48.58559" lon="1.79842">
        <ele>147</ele>
        <time>2010-05-15T10:52:26Z</time>
      </trkpt>
      <trkpt lat="48.58554" lon="1.79836">
        <ele>147</ele>
        <time>2010-05-15T10:52:27Z</time>
      </trkpt>
      <trkpt lat="48.58549" lon="1.79831">
        <ele>147</ele>
        <time>2010-05-15T10:52:28Z</time>
      </trkpt>
      <trkpt lat="48.58544" lon="1.79826">
        <ele>147</ele>
        <time>2010-05-15T10:52:29Z</time>
      </trkpt>
      <trkpt lat="48.5854" lon="1.7982">
        <ele>147</ele>
        <time>2010-05-15T10:52:30Z</time>
      </trkpt>
      <trkpt lat="48.58535" lon="1.79813">
        <ele>147</ele>
        <time>2010-05-15T10:52:31Z</time>
      </trkpt>
      <trkpt lat="48.5853" lon="1.79806">
        <ele>147</ele>
        <time>2010-05-15T10:52:32Z</time>
      </trkpt>
      <trkpt lat="48.58526" lon="1.798">
        <ele>147</ele>
        <time>2010-05-15T10:52:33Z</time>
      </trkpt>
      <trkpt lat="48.58522" lon="1.79793">
        <ele>147</ele>
        <time>2010-05-15T10:52:34Z</time>
      </trkpt>
      <trkpt lat="48.58517" lon="1.79786">
        <ele>147</ele>
        <time>2010-05-15T10:52:35Z</time>
      </trkpt>
      <trkpt lat="48.58513" lon="1.7978">
        <ele>147</ele>
        <time>2010-05-15T10:52:36Z</time>
      </trkpt>
      <trkpt lat="48.58508" lon="1.79774">
        <ele>147</ele>
        <time>2010-05-15T10:52:37Z</time>
      </trkpt>
      <trkpt lat="48.58503" lon="1.79768">
        <ele>147</ele>
        <time>2010-05-15T10:52:38Z</time>
      </trkpt>
      <trkpt lat="48.58498" lon="1.79763">
        <ele>147</ele>
        <time>2010-05-15T10:52:39Z</time>
      </trkpt>
      <trkpt lat="48.58493" lon="1.79759">
        <ele>147</ele>
        <time>2010-05-15T10:52:40Z</time>
      </trkpt>
      <trkpt lat="48.58488" lon="1.79753">
        <ele>147</ele>
        <time>2010-05-15T10:52:41Z</time>
      </trkpt>
      <trkpt lat="48.58483" lon="1.79747">
        <ele>147</ele>
        <time>2010-05-15T10:52:42Z</time>
      </trkpt>
      <trkpt lat="48.58479" lon="1.79742">
        <ele>147</ele>
        <time>2010-05-15T10:52:43Z</time>
      </trkpt>
      <trkpt lat="48.58475" lon="1.79737">
        <ele>147</ele>
        <time>2010-05-15T10:52:44Z</time>
      </trkpt>
      <trkpt lat="48.58472" lon="1.79731">
        <ele>147</ele>
        <time>2010-05-15T10:52:45Z</time>
      </trkpt>
      <trkpt lat="48.58468" lon="1.79726">
        <ele>147</ele>
        <time>2010-05-15T10:52:46Z</time>
      </trkpt>
      <trkpt lat="48.58465" lon="1.79721">
        <ele>147</ele>
        <time>2010-05-15T10:52:47Z</time>
      </trkpt>
      <trkpt lat="48.58463" lon="1.79717">
        <ele>147</ele>
        <time>2010-05-15T10:52:48Z</time>
      </trkpt>
      <trkpt lat="48.58461" lon="1.79711">
        <ele>146</ele>
        <time>2010-05-15T10:52:49Z</time>
      </trkpt>
      <trkpt lat="48.58457" lon="1.79702">
        <ele>145</ele>
        <time>2010-05-15T10:52:50Z</time>
      </trkpt>
      <trkpt lat="48.58454" lon="1.79695">
        <ele>144</ele>
        <time>2010-05-15T10:52:51Z</time>
      </trkpt>
      <trkpt lat="48.5845" lon="1.79688">
        <ele>143</ele>
        <time>2010-05-15T10:52:52Z</time>
      </trkpt>
      <trkpt lat="48.58446" lon="1.79681">
        <ele>142</ele>
        <time>2010-05-15T10:52:53Z</time>
      </trkpt>
      <trkpt lat="48.58442" lon="1.79674">
        <ele>141</ele>
        <time>2010-05-15T10:52:54Z</time>
      </trkpt>
      <trkpt lat="48.58439" lon="1.79668">
        <ele>141</ele>
        <time>2010-05-15T10:52:55Z</time>
      </trkpt>
      <trkpt lat="48.58435" lon="1.79661">
        <ele>141</ele>
        <time>2010-05-15T10:52:56Z</time>
      </trkpt>
      <trkpt lat="48.58432" lon="1.79654">
        <ele>141</ele>
        <time>2010-05-15T10:52:57Z</time>
      </trkpt>
      <trkpt lat="48.58429" lon="1.79647">
        <ele>141</ele>
        <time>2010-05-15T10:52:58Z</time>
      </trkpt>
      <trkpt lat="48.58426" lon="1.79641">
        <ele>141</ele>
        <time>2010-05-15T10:52:59Z</time>
      </trkpt>
      <trkpt lat="48.58423" lon="1.79633">
        <ele>141</ele>
        <time>2010-05-15T10:53:00Z</time>
      </trkpt>
      <trkpt lat="48.5842" lon="1.79626">
        <ele>141</ele>
        <time>2010-05-15T10:53:01Z</time>
      </trkpt>
      <trkpt lat="48.58417" lon="1.79618">
        <ele>141</ele>
        <time>2010-05-15T10:53:02Z</time>
      </trkpt>
      <trkpt lat="48.58415" lon="1.7961">
        <ele>141</ele>
        <time>2010-05-15T10:53:03Z</time>
      </trkpt>
      <trkpt lat="48.58412" lon="1.79603">
        <ele>141</ele>
        <time>2010-05-15T10:53:04Z</time>
      </trkpt>
      <trkpt lat="48.5841" lon="1.79597">
        <ele>141</ele>
        <time>2010-05-15T10:53:05Z</time>
      </trkpt>
      <trkpt lat="48.58407" lon="1.79588">
        <ele>141</ele>
        <time>2010-05-15T10:53:06Z</time>
      </trkpt>
      <trkpt lat="48.58403" lon="1.79578">
        <ele>141</ele>
        <time>2010-05-15T10:53:07Z</time>
      </trkpt>
      <trkpt lat="48.584" lon="1.79571">
        <ele>141</ele>
        <time>2010-05-15T10:53:08Z</time>
      </trkpt>
      <trkpt lat="48.58397" lon="1.79566">
        <ele>141</ele>
        <time>2010-05-15T10:53:09Z</time>
      </trkpt>
      <trkpt lat="48.58393" lon="1.79561">
        <ele>141</ele>
        <time>2010-05-15T10:53:10Z</time>
      </trkpt>
      <trkpt lat="48.58388" lon="1.79553">
        <ele>141</ele>
        <time>2010-05-15T10:53:11Z</time>
      </trkpt>
      <trkpt lat="48.58384" lon="1.79545">
        <ele>142</ele>
        <time>2010-05-15T10:53:12Z</time>
      </trkpt>
      <trkpt lat="48.58379" lon="1.79537">
        <ele>142</ele>
        <time>2010-05-15T10:53:13Z</time>
      </trkpt>
      <trkpt lat="48.58374" lon="1.79531">
        <ele>142</ele>
        <time>2010-05-15T10:53:14Z</time>
      </trkpt>
      <trkpt lat="48.58369" lon="1.79526">
        <ele>142</ele>
        <time>2010-05-15T10:53:15Z</time>
      </trkpt>
      <trkpt lat="48.58364" lon="1.79518">
        <ele>142</ele>
        <time>2010-05-15T10:53:16Z</time>
      </trkpt>
      <trkpt lat="48.58359" lon="1.7951">
        <ele>142</ele>
        <time>2010-05-15T10:53:17Z</time>
      </trkpt>
      <trkpt lat="48.58354" lon="1.79502">
        <ele>142</ele>
        <time>2010-05-15T10:53:18Z</time>
      </trkpt>
      <trkpt lat="48.58349" lon="1.79495">
        <ele>142</ele>
        <time>2010-05-15T10:53:19Z</time>
      </trkpt>
      <trkpt lat="48.58345" lon="1.79488">
        <ele>142</ele>
        <time>2010-05-15T10:53:20Z</time>
      </trkpt>
      <trkpt lat="48.5834" lon="1.79482">
        <ele>142</ele>
        <time>2010-05-15T10:53:21Z</time>
      </trkpt>
      <trkpt lat="48.58336" lon="1.79477">
        <ele>142</ele>
        <time>2010-05-15T10:53:22Z</time>
      </trkpt>
      <trkpt lat="48.58332" lon="1.79472">
        <ele>142</ele>
        <time>2010-05-15T10:53:23Z</time>
      </trkpt>
      <trkpt lat="48.58327" lon="1.79466">
        <ele>142</ele>
        <time>2010-05-15T10:53:24Z</time>
      </trkpt>
      <trkpt lat="48.58323" lon="1.79458">
        <ele>142</ele>
        <time>2010-05-15T10:53:25Z</time>
      </trkpt>
      <trkpt lat="48.58319" lon="1.7945">
        <ele>142</ele>
        <time>2010-05-15T10:53:26Z</time>
      </trkpt>
      <trkpt lat="48.58315" lon="1.79443">
        <ele>142</ele>
        <time>2010-05-15T10:53:27Z</time>
      </trkpt>
      <trkpt lat="48.58311" lon="1.79436">
        <ele>142</ele>
        <time>2010-05-15T10:53:28Z</time>
      </trkpt>
      <trkpt lat="48.58307" lon="1.7943">
        <ele>142</ele>
        <time>2010-05-15T10:53:29Z</time>
      </trkpt>
      <trkpt lat="48.58304" lon="1.79423">
        <ele>142</ele>
        <time>2010-05-15T10:53:30Z</time>
      </trkpt>
      <trkpt lat="48.58299" lon="1.79416">
        <ele>143</ele>
        <time>2010-05-15T10:53:31Z</time>
      </trkpt>
      <trkpt lat="48.58295" lon="1.79407">
        <ele>143</ele>
        <time>2010-05-15T10:53:32Z</time>
      </trkpt>
      <trkpt lat="48.58291" lon="1.794">
        <ele>143</ele>
        <time>2010-05-15T10:53:33Z</time>
      </trkpt>
      <trkpt lat="48.58286" lon="1.79394">
        <ele>143</ele>
        <time>2010-05-15T10:53:34Z</time>
      </trkpt>
      <trkpt lat="48.58282" lon="1.79387">
        <ele>143</ele>
        <time>2010-05-15T10:53:35Z</time>
      </trkpt>
      <trkpt lat="48.58278" lon="1.79382">
        <ele>143</ele>
        <time>2010-05-15T10:53:36Z</time>
      </trkpt>
      <trkpt lat="48.58274" lon="1.79375">
        <ele>143</ele>
        <time>2010-05-15T10:53:37Z</time>
      </trkpt>
      <trkpt lat="48.58271" lon="1.7937">
        <ele>143</ele>
        <time>2010-05-15T10:53:38Z</time>
      </trkpt>
      <trkpt lat="48.58269" lon="1.79364">
        <ele>143</ele>
        <time>2010-05-15T10:53:39Z</time>
      </trkpt>
      <trkpt lat="48.58268" lon="1.79358">
        <ele>143</ele>
        <time>2010-05-15T10:53:40Z</time>
      </trkpt>
      <trkpt lat="48.58265" lon="1.79351">
        <ele>143</ele>
        <time>2010-05-15T10:53:41Z</time>
      </trkpt>
      <trkpt lat="48.58263" lon="1.79345">
        <ele>143</ele>
        <time>2010-05-15T10:53:42Z</time>
      </trkpt>
      <trkpt lat="48.58262" lon="1.79339">
        <ele>143</ele>
        <time>2010-05-15T10:53:43Z</time>
      </trkpt>
      <trkpt lat="48.58258" lon="1.79332">
        <ele>143</ele>
        <time>2010-05-15T10:53:44Z</time>
      </trkpt>
      <trkpt lat="48.58255" lon="1.79325">
        <ele>143</ele>
        <time>2010-05-15T10:53:45Z</time>
      </trkpt>
      <trkpt lat="48.58252" lon="1.79319">
        <ele>143</ele>
        <time>2010-05-15T10:53:46Z</time>
      </trkpt>
      <trkpt lat="48.58249" lon="1.79313">
        <ele>143</ele>
        <time>2010-05-15T10:53:47Z</time>
      </trkpt>
      <trkpt lat="48.58246" lon="1.79307">
        <ele>142</ele>
        <time>2010-05-15T10:53:48Z</time>
      </trkpt>
      <trkpt lat="48.58243" lon="1.79301">
        <ele>142</ele>
        <time>2010-05-15T10:53:49Z</time>
      </trkpt>
      <trkpt lat="48.58239" lon="1.79295">
        <ele>141</ele>
        <time>2010-05-15T10:53:50Z</time>
      </trkpt>
      <trkpt lat="48.58236" lon="1.7929">
        <ele>140</ele>
        <time>2010-05-15T10:53:51Z</time>
      </trkpt>
      <trkpt lat="48.58234" lon="1.79285">
        <ele>139</ele>
        <time>2010-05-15T10:53:52Z</time>
      </trkpt>
      <trkpt lat="48.58231" lon="1.7928">
        <ele>139</ele>
        <time>2010-05-15T10:53:53Z</time>
      </trkpt>
      <trkpt lat="48.58229" lon="1.79275">
        <ele>138</ele>
        <time>2010-05-15T10:53:54Z</time>
      </trkpt>
      <trkpt lat="48.58227" lon="1.7927">
        <ele>138</ele>
        <time>2010-05-15T10:53:55Z</time>
      </trkpt>
      <trkpt lat="48.58226" lon="1.79267">
        <ele>137</ele>
        <time>2010-05-15T10:53:56Z</time>
      </trkpt>
      <trkpt lat="48.58222" lon="1.79259">
        <ele>137</ele>
        <time>2010-05-15T10:53:57Z</time>
      </trkpt>
      <trkpt lat="48.58222" lon="1.79256">
        <ele>137</ele>
        <time>2010-05-15T10:53:58Z</time>
      </trkpt>
      <trkpt lat="48.5822" lon="1.79253">
        <ele>138</ele>
        <time>2010-05-15T10:54:00Z</time>
      </trkpt>
      <trkpt lat="48.58219" lon="1.7925">
        <ele>139</ele>
        <time>2010-05-15T10:54:01Z</time>
      </trkpt>
      <trkpt lat="48.58218" lon="1.79248">
        <ele>140</ele>
        <time>2010-05-15T10:54:02Z</time>
      </trkpt>
      <trkpt lat="48.58217" lon="1.79246">
        <ele>141</ele>
        <time>2010-05-15T10:54:03Z</time>
      </trkpt>
      <trkpt lat="48.58216" lon="1.79244">
        <ele>142</ele>
        <time>2010-05-15T10:54:04Z</time>
      </trkpt>
      <trkpt lat="48.58215" lon="1.79242">
        <ele>143</ele>
        <time>2010-05-15T10:54:05Z</time>
      </trkpt>
      <trkpt lat="48.58214" lon="1.7924">
        <ele>144</ele>
        <time>2010-05-15T10:54:06Z</time>
      </trkpt>
      <trkpt lat="48.58213" lon="1.79238">
        <ele>145</ele>
        <time>2010-05-15T10:54:07Z</time>
      </trkpt>
      <trkpt lat="48.58211" lon="1.79235">
        <ele>145</ele>
        <time>2010-05-15T10:54:09Z</time>
      </trkpt>
      <trkpt lat="48.5821" lon="1.79233">
        <ele>145</ele>
        <time>2010-05-15T10:54:10Z</time>
      </trkpt>
      <trkpt lat="48.5821" lon="1.7923">
        <ele>145</ele>
        <time>2010-05-15T10:54:11Z</time>
      </trkpt>
      <trkpt lat="48.58209" lon="1.79229">
        <ele>145</ele>
        <time>2010-05-15T10:54:12Z</time>
      </trkpt>
      <trkpt lat="48.58208" lon="1.79227">
        <ele>145</ele>
        <time>2010-05-15T10:54:13Z</time>
      </trkpt>
      <trkpt lat="48.58207" lon="1.79225">
        <ele>145</ele>
        <time>2010-05-15T10:54:14Z</time>
      </trkpt>
      <trkpt lat="48.58207" lon="1.79224">
        <ele>145</ele>
        <time>2010-05-15T10:54:15Z</time>
      </trkpt>
      <trkpt lat="48.58205" lon="1.79221">
        <ele>145</ele>
        <time>2010-05-15T10:54:17Z</time>
      </trkpt>
      <trkpt lat="48.58204" lon="1.79218">
        <ele>145</ele>
        <time>2010-05-15T10:54:18Z</time>
      </trkpt>
      <trkpt lat="48.58203" lon="1.79216">
        <ele>145</ele>
        <time>2010-05-15T10:54:20Z</time>
      </trkpt>
      <trkpt lat="48.58201" lon="1.79213">
        <ele>145</ele>
        <time>2010-05-15T10:54:22Z</time>
      </trkpt>
      <trkpt lat="48.582" lon="1.79209">
        <ele>145</ele>
        <time>2010-05-15T10:54:24Z</time>
      </trkpt>
      <trkpt lat="48.58199" lon="1.79206">
        <ele>145</ele>
        <time>2010-05-15T10:54:25Z</time>
      </trkpt>
      <trkpt lat="48.58199" lon="1.79203">
        <ele>145</ele>
        <time>2010-05-15T10:54:26Z</time>
      </trkpt>
      <trkpt lat="48.58198" lon="1.79201">
        <ele>145</ele>
        <time>2010-05-15T10:54:27Z</time>
      </trkpt>
      <trkpt lat="48.58197" lon="1.79198">
        <ele>145</ele>
        <time>2010-05-15T10:54:28Z</time>
      </trkpt>
      <trkpt lat="48.58197" lon="1.79196">
        <ele>145</ele>
        <time>2010-05-15T10:54:29Z</time>
      </trkpt>
      <trkpt lat="48.58196" lon="1.79194">
        <ele>145</ele>
        <time>2010-05-15T10:54:30Z</time>
      </trkpt>
      <trkpt lat="48.58195" lon="1.79191">
        <ele>145</ele>
        <time>2010-05-15T10:54:31Z</time>
      </trkpt>
      <trkpt lat="48.58194" lon="1.79188">
        <ele>145</ele>
        <time>2010-05-15T10:54:32Z</time>
      </trkpt>
      <trkpt lat="48.58193" lon="1.79186">
        <ele>145</ele>
        <time>2010-05-15T10:54:33Z</time>
      </trkpt>
      <trkpt lat="48.58193" lon="1.79184">
        <ele>145</ele>
        <time>2010-05-15T10:54:34Z</time>
      </trkpt>
      <trkpt lat="48.58192" lon="1.79181">
        <ele>145</ele>
        <time>2010-05-15T10:54:35Z</time>
      </trkpt>
      <trkpt lat="48.58191" lon="1.79179">
        <ele>145</ele>
        <time>2010-05-15T10:54:36Z</time>
      </trkpt>
      <trkpt lat="48.58191" lon="1.79177">
        <ele>145</ele>
        <time>2010-05-15T10:54:37Z</time>
      </trkpt>
      <trkpt lat="48.58191" lon="1.79174">
        <ele>145</ele>
        <time>2010-05-15T10:54:38Z</time>
      </trkpt>
      <trkpt lat="48.58191" lon="1.79172">
        <ele>145</ele>
        <time>2010-05-15T10:54:39Z</time>
      </trkpt>
      <trkpt lat="48.5819" lon="1.7917">
        <ele>145</ele>
        <time>2010-05-15T10:54:40Z</time>
      </trkpt>
      <trkpt lat="48.5819" lon="1.79168">
        <ele>145</ele>
        <time>2010-05-15T10:54:41Z</time>
      </trkpt>
      <trkpt lat="48.5819" lon="1.79166">
        <ele>145</ele>
        <time>2010-05-15T10:54:42Z</time>
      </trkpt>
      <trkpt lat="48.5819" lon="1.79164">
        <ele>145</ele>
        <time>2010-05-15T10:54:43Z</time>
      </trkpt>
      <trkpt lat="48.58189" lon="1.79162">
        <ele>145</ele>
        <time>2010-05-15T10:54:44Z</time>
      </trkpt>
      <trkpt lat="48.58189" lon="1.7916">
        <ele>144</ele>
        <time>2010-05-15T10:54:45Z</time>
      </trkpt>
      <trkpt lat="48.58189" lon="1.79158">
        <ele>143</ele>
        <time>2010-05-15T10:54:46Z</time>
      </trkpt>
      <trkpt lat="48.58189" lon="1.79156">
        <ele>143</ele>
        <time>2010-05-15T10:54:47Z</time>
      </trkpt>
      <trkpt lat="48.58188" lon="1.79151">
        <ele>143</ele>
        <time>2010-05-15T10:54:48Z</time>
      </trkpt>
      <trkpt lat="48.58188" lon="1.79149">
        <ele>143</ele>
        <time>2010-05-15T10:54:49Z</time>
      </trkpt>
      <trkpt lat="48.58188" lon="1.79147">
        <ele>142</ele>
        <time>2010-05-15T10:54:50Z</time>
      </trkpt>
      <trkpt lat="48.58188" lon="1.79145">
        <ele>142</ele>
        <time>2010-05-15T10:54:51Z</time>
      </trkpt>
      <trkpt lat="48.58187" lon="1.79143">
        <ele>142</ele>
        <time>2010-05-15T10:54:52Z</time>
      </trkpt>
      <trkpt lat="48.58187" lon="1.79141">
        <ele>141</ele>
        <time>2010-05-15T10:54:53Z</time>
      </trkpt>
      <trkpt lat="48.58187" lon="1.79139">
        <ele>140</ele>
        <time>2010-05-15T10:54:54Z</time>
      </trkpt>
      <trkpt lat="48.58187" lon="1.79136">
        <ele>139</ele>
        <time>2010-05-15T10:54:55Z</time>
      </trkpt>
      <trkpt lat="48.58187" lon="1.79134">
        <ele>138</ele>
        <time>2010-05-15T10:54:56Z</time>
      </trkpt>
      <trkpt lat="48.58187" lon="1.79133">
        <ele>137</ele>
        <time>2010-05-15T10:54:57Z</time>
      </trkpt>
      <trkpt lat="48.58186" lon="1.79129">
        <ele>136</ele>
        <time>2010-05-15T10:54:59Z</time>
      </trkpt>
      <trkpt lat="48.58186" lon="1.79127">
        <ele>135</ele>
        <time>2010-05-15T10:55:00Z</time>
      </trkpt>
      <trkpt lat="48.58185" lon="1.79125">
        <ele>134</ele>
        <time>2010-05-15T10:55:01Z</time>
      </trkpt>
      <trkpt lat="48.58185" lon="1.79123">
        <ele>134</ele>
        <time>2010-05-15T10:55:02Z</time>
      </trkpt>
      <trkpt lat="48.58185" lon="1.79121">
        <ele>133</ele>
        <time>2010-05-15T10:55:03Z</time>
      </trkpt>
      <trkpt lat="48.58185" lon="1.79119">
        <ele>133</ele>
        <time>2010-05-15T10:55:04Z</time>
      </trkpt>
      <trkpt lat="48.58185" lon="1.79118">
        <ele>132</ele>
        <time>2010-05-15T10:55:05Z</time>
      </trkpt>
      <trkpt lat="48.58184" lon="1.79116">
        <ele>132</ele>
        <time>2010-05-15T10:55:06Z</time>
      </trkpt>
      <trkpt lat="48.58184" lon="1.79114">
        <ele>132</ele>
        <time>2010-05-15T10:55:07Z</time>
      </trkpt>
      <trkpt lat="48.58184" lon="1.79112">
        <ele>131</ele>
        <time>2010-05-15T10:55:08Z</time>
      </trkpt>
      <trkpt lat="48.58184" lon="1.7911">
        <ele>131</ele>
        <time>2010-05-15T10:55:09Z</time>
      </trkpt>
      <trkpt lat="48.58184" lon="1.79108">
        <ele>130</ele>
        <time>2010-05-15T10:55:10Z</time>
      </trkpt>
      <trkpt lat="48.58183" lon="1.79107">
        <ele>130</ele>
        <time>2010-05-15T10:55:11Z</time>
      </trkpt>
      <trkpt lat="48.58183" lon="1.79105">
        <ele>129</ele>
        <time>2010-05-15T10:55:12Z</time>
      </trkpt>
      <trkpt lat="48.58182" lon="1.79103">
        <ele>129</ele>
        <time>2010-05-15T10:55:13Z</time>
      </trkpt>
      <trkpt lat="48.58182" lon="1.79101">
        <ele>129</ele>
        <time>2010-05-15T10:55:14Z</time>
      </trkpt>
      <trkpt lat="48.58181" lon="1.79099">
        <ele>129</ele>
        <time>2010-05-15T10:55:15Z</time>
      </trkpt>
      <trkpt lat="48.58181" lon="1.79096">
        <ele>129</ele>
        <time>2010-05-15T10:55:16Z</time>
      </trkpt>
      <trkpt lat="48.58181" lon="1.79094">
        <ele>129</ele>
        <time>2010-05-15T10:55:17Z</time>
      </trkpt>
      <trkpt lat="48.58181" lon="1.79092">
        <ele>128</ele>
        <time>2010-05-15T10:55:18Z</time>
      </trkpt>
      <trkpt lat="48.5818" lon="1.79089">
        <ele>128</ele>
        <time>2010-05-15T10:55:19Z</time>
      </trkpt>
      <trkpt lat="48.5818" lon="1.79087">
        <ele>128</ele>
        <time>2010-05-15T10:55:20Z</time>
      </trkpt>
      <trkpt lat="48.5818" lon="1.79085">
        <ele>127</ele>
        <time>2010-05-15T10:55:21Z</time>
      </trkpt>
      <trkpt lat="48.5818" lon="1.79082">
        <ele>126</ele>
        <time>2010-05-15T10:55:22Z</time>
      </trkpt>
      <trkpt lat="48.58179" lon="1.79079">
        <ele>126</ele>
        <time>2010-05-15T10:55:23Z</time>
      </trkpt>
      <trkpt lat="48.58179" lon="1.79077">
        <ele>126</ele>
        <time>2010-05-15T10:55:24Z</time>
      </trkpt>
      <trkpt lat="48.58179" lon="1.79075">
        <ele>125</ele>
        <time>2010-05-15T10:55:25Z</time>
      </trkpt>
      <trkpt lat="48.58179" lon="1.79072">
        <ele>125</ele>
        <time>2010-05-15T10:55:26Z</time>
      </trkpt>
      <trkpt lat="48.58178" lon="1.7907">
        <ele>124</ele>
        <time>2010-05-15T10:55:27Z</time>
      </trkpt>
      <trkpt lat="48.58178" lon="1.79068">
        <ele>124</ele>
        <time>2010-05-15T10:55:28Z</time>
      </trkpt>
      <trkpt lat="48.58177" lon="1.79066">
        <ele>123</ele>
        <time>2010-05-15T10:55:29Z</time>
      </trkpt>
      <trkpt lat="48.58176" lon="1.79064">
        <ele>122</ele>
        <time>2010-05-15T10:55:30Z</time>
      </trkpt>
      <trkpt lat="48.58176" lon="1.79062">
        <ele>122</ele>
        <time>2010-05-15T10:55:31Z</time>
      </trkpt>
      <trkpt lat="48.58173" lon="1.79059">
        <ele>121</ele>
        <time>2010-05-15T10:55:33Z</time>
      </trkpt>
      <trkpt lat="48.58172" lon="1.79056">
        <ele>121</ele>
        <time>2010-05-15T10:55:35Z</time>
      </trkpt>
      <trkpt lat="48.58171" lon="1.79054">
        <ele>121</ele>
        <time>2010-05-15T10:55:36Z</time>
      </trkpt>
      <trkpt lat="48.58169" lon="1.79052">
        <ele>121</ele>
        <time>2010-05-15T10:55:38Z</time>
      </trkpt>
      <trkpt lat="48.58168" lon="1.79048">
        <ele>120</ele>
        <time>2010-05-15T10:55:40Z</time>
      </trkpt>
      <trkpt lat="48.58167" lon="1.79047">
        <ele>120</ele>
        <time>2010-05-15T10:55:41Z</time>
      </trkpt>
      <trkpt lat="48.58167" lon="1.79045">
        <ele>120</ele>
        <time>2010-05-15T10:55:42Z</time>
      </trkpt>
      <trkpt lat="48.58166" lon="1.79042">
        <ele>120</ele>
        <time>2010-05-15T10:55:43Z</time>
      </trkpt>
      <trkpt lat="48.58165" lon="1.79039">
        <ele>120</ele>
        <time>2010-05-15T10:55:44Z</time>
      </trkpt>
      <trkpt lat="48.58164" lon="1.79037">
        <ele>120</ele>
        <time>2010-05-15T10:55:45Z</time>
      </trkpt>
      <trkpt lat="48.58163" lon="1.79035">
        <ele>120</ele>
        <time>2010-05-15T10:55:46Z</time>
      </trkpt>
      <trkpt lat="48.58163" lon="1.79033">
        <ele>119</ele>
        <time>2010-05-15T10:55:47Z</time>
      </trkpt>
      <trkpt lat="48.58162" lon="1.79031">
        <ele>119</ele>
        <time>2010-05-15T10:55:48Z</time>
      </trkpt>
      <trkpt lat="48.58162" lon="1.79029">
        <ele>119</ele>
        <time>2010-05-15T10:55:49Z</time>
      </trkpt>
      <trkpt lat="48.5816" lon="1.79025">
        <ele>119</ele>
        <time>2010-05-15T10:55:50Z</time>
      </trkpt>
      <trkpt lat="48.5816" lon="1.79022">
        <ele>119</ele>
        <time>2010-05-15T10:55:51Z</time>
      </trkpt>
      <trkpt lat="48.58159" lon="1.7902">
        <ele>119</ele>
        <time>2010-05-15T10:55:52Z</time>
      </trkpt>
      <trkpt lat="48.58158" lon="1.79018">
        <ele>119</ele>
        <time>2010-05-15T10:55:53Z</time>
      </trkpt>
      <trkpt lat="48.58157" lon="1.79016">
        <ele>119</ele>
        <time>2010-05-15T10:55:54Z</time>
      </trkpt>
      <trkpt lat="48.58156" lon="1.79013">
        <ele>119</ele>
        <time>2010-05-15T10:55:56Z</time>
      </trkpt>
      <trkpt lat="48.58156" lon="1.79011">
        <ele>118</ele>
        <time>2010-05-15T10:55:57Z</time>
      </trkpt>
      <trkpt lat="48.58155" lon="1.79009">
        <ele>118</ele>
        <time>2010-05-15T10:55:58Z</time>
      </trkpt>
      <trkpt lat="48.58155" lon="1.79006">
        <ele>117</ele>
        <time>2010-05-15T10:55:59Z</time>
      </trkpt>
      <trkpt lat="48.58154" lon="1.79004">
        <ele>117</ele>
        <time>2010-05-15T10:56:00Z</time>
      </trkpt>
      <trkpt lat="48.58153" lon="1.79001">
        <ele>116</ele>
        <time>2010-05-15T10:56:01Z</time>
      </trkpt>
      <trkpt lat="48.58152" lon="1.78999">
        <ele>116</ele>
        <time>2010-05-15T10:56:02Z</time>
      </trkpt>
      <trkpt lat="48.58151" lon="1.78996">
        <ele>116</ele>
        <time>2010-05-15T10:56:03Z</time>
      </trkpt>
      <trkpt lat="48.5815" lon="1.78992">
        <ele>116</ele>
        <time>2010-05-15T10:56:04Z</time>
      </trkpt>
      <trkpt lat="48.58148" lon="1.78988">
        <ele>116</ele>
        <time>2010-05-15T10:56:06Z</time>
      </trkpt>
      <trkpt lat="48.58148" lon="1.78986">
        <ele>116</ele>
        <time>2010-05-15T10:56:07Z</time>
      </trkpt>
      <trkpt lat="48.58146" lon="1.78985">
        <ele>116</ele>
        <time>2010-05-15T10:56:08Z</time>
      </trkpt>
      <trkpt lat="48.58145" lon="1.78983">
        <ele>116</ele>
        <time>2010-05-15T10:56:09Z</time>
      </trkpt>
      <trkpt lat="48.58144" lon="1.78982">
        <ele>116</ele>
        <time>2010-05-15T10:56:10Z</time>
      </trkpt>
      <trkpt lat="48.58143" lon="1.7898">
        <ele>116</ele>
        <time>2010-05-15T10:56:11Z</time>
      </trkpt>
      <trkpt lat="48.58142" lon="1.78978">
        <ele>116</ele>
        <time>2010-05-15T10:56:12Z</time>
      </trkpt>
      <trkpt lat="48.58142" lon="1.78975">
        <ele>116</ele>
        <time>2010-05-15T10:56:13Z</time>
      </trkpt>
      <trkpt lat="48.58141" lon="1.78973">
        <ele>116</ele>
        <time>2010-05-15T10:56:14Z</time>
      </trkpt>
      <trkpt lat="48.5814" lon="1.7897">
        <ele>116</ele>
        <time>2010-05-15T10:56:15Z</time>
      </trkpt>
      <trkpt lat="48.58139" lon="1.78968">
        <ele>116</ele>
        <time>2010-05-15T10:56:16Z</time>
      </trkpt>
      <trkpt lat="48.58138" lon="1.78965">
        <ele>116</ele>
        <time>2010-05-15T10:56:17Z</time>
      </trkpt>
      <trkpt lat="48.58137" lon="1.78963">
        <ele>116</ele>
        <time>2010-05-15T10:56:18Z</time>
      </trkpt>
      <trkpt lat="48.58136" lon="1.78961">
        <ele>116</ele>
        <time>2010-05-15T10:56:19Z</time>
      </trkpt>
      <trkpt lat="48.58135" lon="1.78958">
        <ele>116</ele>
        <time>2010-05-15T10:56:20Z</time>
      </trkpt>
      <trkpt lat="48.58135" lon="1.78956">
        <ele>116</ele>
        <time>2010-05-15T10:56:21Z</time>
      </trkpt>
      <trkpt lat="48.58134" lon="1.78954">
        <ele>116</ele>
        <time>2010-05-15T10:56:22Z</time>
      </trkpt>
      <trkpt lat="48.58134" lon="1.78952">
        <ele>116</ele>
        <time>2010-05-15T10:56:23Z</time>
      </trkpt>
      <trkpt lat="48.58133" lon="1.78949">
        <ele>116</ele>
        <time>2010-05-15T10:56:24Z</time>
      </trkpt>
      <trkpt lat="48.58132" lon="1.78947">
        <ele>116</ele>
        <time>2010-05-15T10:56:25Z</time>
      </trkpt>
      <trkpt lat="48.58132" lon="1.78945">
        <ele>116</ele>
        <time>2010-05-15T10:56:26Z</time>
      </trkpt>
      <trkpt lat="48.58131" lon="1.78943">
        <ele>116</ele>
        <time>2010-05-15T10:56:27Z</time>
      </trkpt>
      <trkpt lat="48.5813" lon="1.78941">
        <ele>116</ele>
        <time>2010-05-15T10:56:28Z</time>
      </trkpt>
      <trkpt lat="48.5813" lon="1.78939">
        <ele>116</ele>
        <time>2010-05-15T10:56:29Z</time>
      </trkpt>
      <trkpt lat="48.58129" lon="1.78937">
        <ele>116</ele>
        <time>2010-05-15T10:56:30Z</time>
      </trkpt>
      <trkpt lat="48.58128" lon="1.78935">
        <ele>116</ele>
        <time>2010-05-15T10:56:31Z</time>
      </trkpt>
      <trkpt lat="48.58127" lon="1.78933">
        <ele>116</ele>
        <time>2010-05-15T10:56:32Z</time>
      </trkpt>
      <trkpt lat="48.58127" lon="1.78931">
        <ele>116</ele>
        <time>2010-05-15T10:56:33Z</time>
      </trkpt>
      <trkpt lat="48.58126" lon="1.78929">
        <ele>116</ele>
        <time>2010-05-15T10:56:34Z</time>
      </trkpt>
      <trkpt lat="48.58125" lon="1.78927">
        <ele>116</ele>
        <time>2010-05-15T10:56:35Z</time>
      </trkpt>
      <trkpt lat="48.58125" lon="1.78925">
        <ele>116</ele>
        <time>2010-05-15T10:56:36Z</time>
      </trkpt>
      <trkpt lat="48.58124" lon="1.78923">
        <ele>116</ele>
        <time>2010-05-15T10:56:37Z</time>
      </trkpt>
      <trkpt lat="48.58123" lon="1.78922">
        <ele>116</ele>
        <time>2010-05-15T10:56:38Z</time>
      </trkpt>
      <trkpt lat="48.58122" lon="1.78919">
        <ele>116</ele>
        <time>2010-05-15T10:56:39Z</time>
      </trkpt>
      <trkpt lat="48.58121" lon="1.78917">
        <ele>116</ele>
        <time>2010-05-15T10:56:40Z</time>
      </trkpt>
      <trkpt lat="48.5812" lon="1.78914">
        <ele>116</ele>
        <time>2010-05-15T10:56:41Z</time>
      </trkpt>
      <trkpt lat="48.58119" lon="1.78912">
        <ele>116</ele>
        <time>2010-05-15T10:56:42Z</time>
      </trkpt>
      <trkpt lat="48.58118" lon="1.78908">
        <ele>116</ele>
        <time>2010-05-15T10:56:43Z</time>
      </trkpt>
      <trkpt lat="48.58117" lon="1.78906">
        <ele>116</ele>
        <time>2010-05-15T10:56:44Z</time>
      </trkpt>
      <trkpt lat="48.58116" lon="1.78904">
        <ele>117</ele>
        <time>2010-05-15T10:56:45Z</time>
      </trkpt>
      <trkpt lat="48.58115" lon="1.78902">
        <ele>117</ele>
        <time>2010-05-15T10:56:46Z</time>
      </trkpt>
      <trkpt lat="48.58115" lon="1.78899">
        <ele>118</ele>
        <time>2010-05-15T10:56:47Z</time>
      </trkpt>
      <trkpt lat="48.58114" lon="1.78897">
        <ele>118</ele>
        <time>2010-05-15T10:56:48Z</time>
      </trkpt>
      <trkpt lat="48.58112" lon="1.78894">
        <ele>119</ele>
        <time>2010-05-15T10:56:49Z</time>
      </trkpt>
      <trkpt lat="48.58111" lon="1.78892">
        <ele>120</ele>
        <time>2010-05-15T10:56:50Z</time>
      </trkpt>
      <trkpt lat="48.5811" lon="1.78888">
        <ele>121</ele>
        <time>2010-05-15T10:56:51Z</time>
      </trkpt>
      <trkpt lat="48.58109" lon="1.78886">
        <ele>122</ele>
        <time>2010-05-15T10:56:52Z</time>
      </trkpt>
      <trkpt lat="48.58107" lon="1.78882">
        <ele>124</ele>
        <time>2010-05-15T10:56:54Z</time>
      </trkpt>
      <trkpt lat="48.58105" lon="1.7888">
        <ele>126</ele>
        <time>2010-05-15T10:56:56Z</time>
      </trkpt>
      <trkpt lat="48.58102" lon="1.78878">
        <ele>128</ele>
        <time>2010-05-15T10:56:58Z</time>
      </trkpt>
      <trkpt lat="48.58101" lon="1.78878">
        <ele>129</ele>
        <time>2010-05-15T10:56:59Z</time>
      </trkpt>
      <trkpt lat="48.58099" lon="1.78878">
        <ele>130</ele>
        <time>2010-05-15T10:57:00Z</time>
      </trkpt>
      <trkpt lat="48.58098" lon="1.78877">
        <ele>130</ele>
        <time>2010-05-15T10:57:01Z</time>
      </trkpt>
      <trkpt lat="48.58097" lon="1.78877">
        <ele>130</ele>
        <time>2010-05-15T10:57:02Z</time>
      </trkpt>
      <trkpt lat="48.58094" lon="1.78877">
        <ele>130</ele>
        <time>2010-05-15T10:57:04Z</time>
      </trkpt>
      <trkpt lat="48.58093" lon="1.78877">
        <ele>130</ele>
        <time>2010-05-15T10:57:05Z</time>
      </trkpt>
      <trkpt lat="48.58092" lon="1.78877">
        <ele>130</ele>
        <time>2010-05-15T10:57:06Z</time>
      </trkpt>
      <trkpt lat="48.5809" lon="1.78878">
        <ele>130</ele>
        <time>2010-05-15T10:57:07Z</time>
      </trkpt>
      <trkpt lat="48.58089" lon="1.78878">
        <ele>130</ele>
        <time>2010-05-15T10:57:08Z</time>
      </trkpt>
      <trkpt lat="48.58087" lon="1.78878">
        <ele>130</ele>
        <time>2010-05-15T10:57:09Z</time>
      </trkpt>
      <trkpt lat="48.58086" lon="1.78879">
        <ele>130</ele>
        <time>2010-05-15T10:57:10Z</time>
      </trkpt>
      <trkpt lat="48.58084" lon="1.7888">
        <ele>130</ele>
        <time>2010-05-15T10:57:11Z</time>
      </trkpt>
      <trkpt lat="48.58083" lon="1.78881">
        <ele>130</ele>
        <time>2010-05-15T10:57:12Z</time>
      </trkpt>
      <trkpt lat="48.58081" lon="1.78882">
        <ele>130</ele>
        <time>2010-05-15T10:57:13Z</time>
      </trkpt>
      <trkpt lat="48.5808" lon="1.78883">
        <ele>130</ele>
        <time>2010-05-15T10:57:14Z</time>
      </trkpt>
      <trkpt lat="48.58078" lon="1.78884">
        <ele>130</ele>
        <time>2010-05-15T10:57:15Z</time>
      </trkpt>
      <trkpt lat="48.58077" lon="1.78884">
        <ele>130</ele>
        <time>2010-05-15T10:57:16Z</time>
      </trkpt>
      <trkpt lat="48.58076" lon="1.78885">
        <ele>130</ele>
        <time>2010-05-15T10:57:17Z</time>
      </trkpt>
      <trkpt lat="48.58074" lon="1.78886">
        <ele>130</ele>
        <time>2010-05-15T10:57:18Z</time>
      </trkpt>
      <trkpt lat="48.58072" lon="1.78888">
        <ele>130</ele>
        <time>2010-05-15T10:57:19Z</time>
      </trkpt>
      <trkpt lat="48.58071" lon="1.78889">
        <ele>130</ele>
        <time>2010-05-15T10:57:20Z</time>
      </trkpt>
      <trkpt lat="48.5807" lon="1.78891">
        <ele>130</ele>
        <time>2010-05-15T10:57:21Z</time>
      </trkpt>
      <trkpt lat="48.58068" lon="1.78892">
        <ele>130</ele>
        <time>2010-05-15T10:57:22Z</time>
      </trkpt>
      <trkpt lat="48.58067" lon="1.78894">
        <ele>130</ele>
        <time>2010-05-15T10:57:23Z</time>
      </trkpt>
      <trkpt lat="48.58066" lon="1.78896">
        <ele>130</ele>
        <time>2010-05-15T10:57:24Z</time>
      </trkpt>
      <trkpt lat="48.58064" lon="1.78897">
        <ele>130</ele>
        <time>2010-05-15T10:57:25Z</time>
      </trkpt>
      <trkpt lat="48.58063" lon="1.78898">
        <ele>130</ele>
        <time>2010-05-15T10:57:26Z</time>
      </trkpt>
      <trkpt lat="48.58061" lon="1.78899">
        <ele>130</ele>
        <time>2010-05-15T10:57:27Z</time>
      </trkpt>
      <trkpt lat="48.5806" lon="1.78901">
        <ele>130</ele>
        <time>2010-05-15T10:57:28Z</time>
      </trkpt>
      <trkpt lat="48.58059" lon="1.78902">
        <ele>130</ele>
        <time>2010-05-15T10:57:29Z</time>
      </trkpt>
      <trkpt lat="48.58058" lon="1.78903">
        <ele>130</ele>
        <time>2010-05-15T10:57:30Z</time>
      </trkpt>
      <trkpt lat="48.58056" lon="1.78904">
        <ele>130</ele>
        <time>2010-05-15T10:57:31Z</time>
      </trkpt>
      <trkpt lat="48.58055" lon="1.78906">
        <ele>130</ele>
        <time>2010-05-15T10:57:32Z</time>
      </trkpt>
      <trkpt lat="48.58053" lon="1.78907">
        <ele>130</ele>
        <time>2010-05-15T10:57:33Z</time>
      </trkpt>
      <trkpt lat="48.58052" lon="1.78908">
        <ele>130</ele>
        <time>2010-05-15T10:57:34Z</time>
      </trkpt>
      <trkpt lat="48.5805" lon="1.7891">
        <ele>130</ele>
        <time>2010-05-15T10:57:35Z</time>
      </trkpt>
      <trkpt lat="48.58048" lon="1.78911">
        <ele>130</ele>
        <time>2010-05-15T10:57:36Z</time>
      </trkpt>
      <trkpt lat="48.58047" lon="1.78912">
        <ele>130</ele>
        <time>2010-05-15T10:57:37Z</time>
      </trkpt>
      <trkpt lat="48.58045" lon="1.78913">
        <ele>130</ele>
        <time>2010-05-15T10:57:38Z</time>
      </trkpt>
      <trkpt lat="48.58044" lon="1.78914">
        <ele>130</ele>
        <time>2010-05-15T10:57:39Z</time>
      </trkpt>
      <trkpt lat="48.58043" lon="1.78916">
        <ele>130</ele>
        <time>2010-05-15T10:57:40Z</time>
      </trkpt>
      <trkpt lat="48.58041" lon="1.78917">
        <ele>130</ele>
        <time>2010-05-15T10:57:41Z</time>
      </trkpt>
      <trkpt lat="48.5804" lon="1.78917">
        <ele>130</ele>
        <time>2010-05-15T10:57:42Z</time>
      </trkpt>
      <trkpt lat="48.58039" lon="1.78918">
        <ele>130</ele>
        <time>2010-05-15T10:57:43Z</time>
      </trkpt>
      <trkpt lat="48.58037" lon="1.78918">
        <ele>130</ele>
        <time>2010-05-15T10:57:44Z</time>
      </trkpt>
      <trkpt lat="48.58035" lon="1.78918">
        <ele>130</ele>
        <time>2010-05-15T10:57:45Z</time>
      </trkpt>
      <trkpt lat="48.58034" lon="1.78919">
        <ele>130</ele>
        <time>2010-05-15T10:57:46Z</time>
      </trkpt>
      <trkpt lat="48.58032" lon="1.78918">
        <ele>130</ele>
        <time>2010-05-15T10:57:47Z</time>
      </trkpt>
      <trkpt lat="48.5803" lon="1.78919">
        <ele>130</ele>
        <time>2010-05-15T10:57:48Z</time>
      </trkpt>
      <trkpt lat="48.58028" lon="1.78919">
        <ele>130</ele>
        <time>2010-05-15T10:57:49Z</time>
      </trkpt>
      <trkpt lat="48.58027" lon="1.7892">
        <ele>130</ele>
        <time>2010-05-15T10:57:50Z</time>
      </trkpt>
      <trkpt lat="48.58025" lon="1.7892">
        <ele>130</ele>
        <time>2010-05-15T10:57:51Z</time>
      </trkpt>
      <trkpt lat="48.58024" lon="1.7892">
        <ele>130</ele>
        <time>2010-05-15T10:57:52Z</time>
      </trkpt>
      <trkpt lat="48.58022" lon="1.78919">
        <ele>130</ele>
        <time>2010-05-15T10:57:53Z</time>
      </trkpt>
      <trkpt lat="48.58021" lon="1.78919">
        <ele>130</ele>
        <time>2010-05-15T10:57:54Z</time>
      </trkpt>
      <trkpt lat="48.5802" lon="1.78919">
        <ele>130</ele>
        <time>2010-05-15T10:57:55Z</time>
      </trkpt>
      <trkpt lat="48.58018" lon="1.78919">
        <ele>130</ele>
        <time>2010-05-15T10:57:56Z</time>
      </trkpt>
      <trkpt lat="48.58017" lon="1.78918">
        <ele>130</ele>
        <time>2010-05-15T10:57:57Z</time>
      </trkpt>
      <trkpt lat="48.58016" lon="1.78917">
        <ele>130</ele>
        <time>2010-05-15T10:57:58Z</time>
      </trkpt>
      <trkpt lat="48.58013" lon="1.78915">
        <ele>130</ele>
        <time>2010-05-15T10:58:00Z</time>
      </trkpt>
      <trkpt lat="48.58011" lon="1.78912">
        <ele>130</ele>
        <time>2010-05-15T10:58:02Z</time>
      </trkpt>
      <trkpt lat="48.58009" lon="1.78909">
        <ele>130</ele>
        <time>2010-05-15T10:58:04Z</time>
      </trkpt>
      <trkpt lat="48.58008" lon="1.78907">
        <ele>130</ele>
        <time>2010-05-15T10:58:05Z</time>
      </trkpt>
      <trkpt lat="48.58007" lon="1.78905">
        <ele>130</ele>
        <time>2010-05-15T10:58:07Z</time>
      </trkpt>
      <trkpt lat="48.58006" lon="1.78905">
        <ele>130</ele>
        <time>2010-05-15T10:58:13Z</time>
      </trkpt>
      <trkpt lat="48.58006" lon="1.78907">
        <ele>130</ele>
        <time>2010-05-15T10:58:15Z</time>
      </trkpt>
      <trkpt lat="48.58008" lon="1.7891">
        <ele>130</ele>
        <time>2010-05-15T10:58:17Z</time>
      </trkpt>
      <trkpt lat="48.58009" lon="1.78913">
        <ele>130</ele>
        <time>2010-05-15T10:58:19Z</time>
      </trkpt>
      <trkpt lat="48.5801" lon="1.78915">
        <ele>130</ele>
        <time>2010-05-15T10:58:21Z</time>
      </trkpt>
      <trkpt lat="48.58012" lon="1.78916">
        <ele>130</ele>
        <time>2010-05-15T10:58:23Z</time>
      </trkpt>
      <trkpt lat="48.58013" lon="1.78917">
        <ele>130</ele>
        <time>2010-05-15T10:58:24Z</time>
      </trkpt>
      <trkpt lat="48.58015" lon="1.78917">
        <ele>130</ele>
        <time>2010-05-15T10:58:25Z</time>
      </trkpt>
      <trkpt lat="48.58016" lon="1.78918">
        <ele>130</ele>
        <time>2010-05-15T10:58:26Z</time>
      </trkpt>
      <trkpt lat="48.58018" lon="1.78917">
        <ele>130</ele>
        <time>2010-05-15T10:58:28Z</time>
      </trkpt>
      <trkpt lat="48.58019" lon="1.78917">
        <ele>130</ele>
        <time>2010-05-15T10:58:29Z</time>
      </trkpt>
      <trkpt lat="48.58021" lon="1.78918">
        <ele>130</ele>
        <time>2010-05-15T10:58:30Z</time>
      </trkpt>
      <trkpt lat="48.58022" lon="1.78918">
        <ele>130</ele>
        <time>2010-05-15T10:58:31Z</time>
      </trkpt>
      <trkpt lat="48.58023" lon="1.78917">
        <ele>130</ele>
        <time>2010-05-15T10:58:32Z</time>
      </trkpt>
      <trkpt lat="48.58025" lon="1.78918">
        <ele>130</ele>
        <time>2010-05-15T10:58:33Z</time>
      </trkpt>
      <trkpt lat="48.58026" lon="1.78918">
        <ele>130</ele>
        <time>2010-05-15T10:58:34Z</time>
      </trkpt>
      <trkpt lat="48.58028" lon="1.78919">
        <ele>130</ele>
        <time>2010-05-15T10:58:35Z</time>
      </trkpt>
      <trkpt lat="48.58029" lon="1.78919">
        <ele>130</ele>
        <time>2010-05-15T10:58:36Z</time>
      </trkpt>
      <trkpt lat="48.58032" lon="1.7892">
        <ele>130</ele>
        <time>2010-05-15T10:58:37Z</time>
      </trkpt>
      <trkpt lat="48.58033" lon="1.7892">
        <ele>130</ele>
        <time>2010-05-15T10:58:38Z</time>
      </trkpt>
      <trkpt lat="48.58035" lon="1.78922">
        <ele>130</ele>
        <time>2010-05-15T10:58:39Z</time>
      </trkpt>
      <trkpt lat="48.58036" lon="1.78924">
        <ele>130</ele>
        <time>2010-05-15T10:58:40Z</time>
      </trkpt>
      <trkpt lat="48.58037" lon="1.78926">
        <ele>130</ele>
        <time>2010-05-15T10:58:41Z</time>
      </trkpt>
      <trkpt lat="48.58038" lon="1.78928">
        <ele>130</ele>
        <time>2010-05-15T10:58:42Z</time>
      </trkpt>
      <trkpt lat="48.58039" lon="1.7893">
        <ele>130</ele>
        <time>2010-05-15T10:58:43Z</time>
      </trkpt>
      <trkpt lat="48.58039" lon="1.78932">
        <ele>130</ele>
        <time>2010-05-15T10:58:44Z</time>
      </trkpt>
      <trkpt lat="48.5804" lon="1.78934">
        <ele>130</ele>
        <time>2010-05-15T10:58:45Z</time>
      </trkpt>
      <trkpt lat="48.58041" lon="1.78937">
        <ele>130</ele>
        <time>2010-05-15T10:58:47Z</time>
      </trkpt>
      <trkpt lat="48.58042" lon="1.78939">
        <ele>130</ele>
        <time>2010-05-15T10:58:49Z</time>
      </trkpt>
      <trkpt lat="48.58043" lon="1.78941">
        <ele>130</ele>
        <time>2010-05-15T10:58:50Z</time>
      </trkpt>
      <trkpt lat="48.58044" lon="1.78945">
        <ele>131</ele>
        <time>2010-05-15T10:58:52Z</time>
      </trkpt>
      <trkpt lat="48.58044" lon="1.78948">
        <ele>132</ele>
        <time>2010-05-15T10:58:53Z</time>
      </trkpt>
      <trkpt lat="48.58046" lon="1.7895">
        <ele>132</ele>
        <time>2010-05-15T10:58:54Z</time>
      </trkpt>
      <trkpt lat="48.58047" lon="1.78952">
        <ele>132</ele>
        <time>2010-05-15T10:58:55Z</time>
      </trkpt>
      <trkpt lat="48.58048" lon="1.78953">
        <ele>133</ele>
        <time>2010-05-15T10:58:56Z</time>
      </trkpt>
      <trkpt lat="48.5805" lon="1.78955">
        <ele>133</ele>
        <time>2010-05-15T10:58:57Z</time>
      </trkpt>
      <trkpt lat="48.58051" lon="1.78957">
        <ele>133</ele>
        <time>2010-05-15T10:58:58Z</time>
      </trkpt>
      <trkpt lat="48.58052" lon="1.78959">
        <ele>134</ele>
        <time>2010-05-15T10:58:59Z</time>
      </trkpt>
      <trkpt lat="48.58052" lon="1.7896">
        <ele>134</ele>
        <time>2010-05-15T10:59:00Z</time>
      </trkpt>
      <trkpt lat="48.58053" lon="1.78962">
        <ele>134</ele>
        <time>2010-05-15T10:59:01Z</time>
      </trkpt>
      <trkpt lat="48.58054" lon="1.78965">
        <ele>135</ele>
        <time>2010-05-15T10:59:02Z</time>
      </trkpt>
      <trkpt lat="48.58055" lon="1.78967">
        <ele>135</ele>
        <time>2010-05-15T10:59:03Z</time>
      </trkpt>
      <trkpt lat="48.58057" lon="1.78969">
        <ele>136</ele>
        <time>2010-05-15T10:59:04Z</time>
      </trkpt>
      <trkpt lat="48.58058" lon="1.78971">
        <ele>136</ele>
        <time>2010-05-15T10:59:05Z</time>
      </trkpt>
      <trkpt lat="48.58059" lon="1.78974">
        <ele>137</ele>
        <time>2010-05-15T10:59:06Z</time>
      </trkpt>
      <trkpt lat="48.58059" lon="1.78977">
        <ele>137</ele>
        <time>2010-05-15T10:59:07Z</time>
      </trkpt>
      <trkpt lat="48.58061" lon="1.7898">
        <ele>138</ele>
        <time>2010-05-15T10:59:08Z</time>
      </trkpt>
      <trkpt lat="48.58062" lon="1.78983">
        <ele>138</ele>
        <time>2010-05-15T10:59:09Z</time>
      </trkpt>
      <trkpt lat="48.58062" lon="1.78985">
        <ele>139</ele>
        <time>2010-05-15T10:59:10Z</time>
      </trkpt>
      <trkpt lat="48.58063" lon="1.78987">
        <ele>139</ele>
        <time>2010-05-15T10:59:11Z</time>
      </trkpt>
      <trkpt lat="48.58063" lon="1.78991">
        <ele>140</ele>
        <time>2010-05-15T10:59:12Z</time>
      </trkpt>
      <trkpt lat="48.58063" lon="1.78993">
        <ele>140</ele>
        <time>2010-05-15T10:59:13Z</time>
      </trkpt>
      <trkpt lat="48.58064" lon="1.78994">
        <ele>141</ele>
        <time>2010-05-15T10:59:14Z</time>
      </trkpt>
      <trkpt lat="48.58064" lon="1.78996">
        <ele>142</ele>
        <time>2010-05-15T10:59:15Z</time>
      </trkpt>
      <trkpt lat="48.58064" lon="1.78998">
        <ele>142</ele>
        <time>2010-05-15T10:59:16Z</time>
      </trkpt>
      <trkpt lat="48.58064" lon="1.79001">
        <ele>142</ele>
        <time>2010-05-15T10:59:17Z</time>
      </trkpt>
      <trkpt lat="48.58064" lon="1.79003">
        <ele>142</ele>
        <time>2010-05-15T10:59:18Z</time>
      </trkpt>
      <trkpt lat="48.58065" lon="1.79005">
        <ele>142</ele>
        <time>2010-05-15T10:59:19Z</time>
      </trkpt>
      <trkpt lat="48.58065" lon="1.79008">
        <ele>142</ele>
        <time>2010-05-15T10:59:20Z</time>
      </trkpt>
      <trkpt lat="48.58065" lon="1.7901">
        <ele>142</ele>
        <time>2010-05-15T10:59:21Z</time>
      </trkpt>
      <trkpt lat="48.58065" lon="1.79012">
        <ele>142</ele>
        <time>2010-05-15T10:59:22Z</time>
      </trkpt>
      <trkpt lat="48.58065" lon="1.79014">
        <ele>142</ele>
        <time>2010-05-15T10:59:23Z</time>
      </trkpt>
      <trkpt lat="48.58065" lon="1.79016">
        <ele>142</ele>
        <time>2010-05-15T10:59:24Z</time>
      </trkpt>
      <trkpt lat="48.58064" lon="1.79018">
        <ele>142</ele>
        <time>2010-05-15T10:59:25Z</time>
      </trkpt>
      <trkpt lat="48.58064" lon="1.7902">
        <ele>142</ele>
        <time>2010-05-15T10:59:26Z</time>
      </trkpt>
      <trkpt lat="48.58064" lon="1.79021">
        <ele>142</ele>
        <time>2010-05-15T10:59:27Z</time>
      </trkpt>
      <trkpt lat="48.58064" lon="1.79023">
        <ele>142</ele>
        <time>2010-05-15T10:59:28Z</time>
      </trkpt>
      <trkpt lat="48.58064" lon="1.79025">
        <ele>142</ele>
        <time>2010-05-15T10:59:29Z</time>
      </trkpt>
      <trkpt lat="48.58063" lon="1.79028">
        <ele>142</ele>
        <time>2010-05-15T10:59:30Z</time>
      </trkpt>
      <trkpt lat="48.58063" lon="1.7903">
        <ele>142</ele>
        <time>2010-05-15T10:59:31Z</time>
      </trkpt>
      <trkpt lat="48.58063" lon="1.79032">
        <ele>142</ele>
        <time>2010-05-15T10:59:32Z</time>
      </trkpt>
      <trkpt lat="48.58062" lon="1.79036">
        <ele>143</ele>
        <time>2010-05-15T10:59:34Z</time>
      </trkpt>
      <trkpt lat="48.58062" lon="1.79037">
        <ele>143</ele>
        <time>2010-05-15T10:59:35Z</time>
      </trkpt>
      <trkpt lat="48.58061" lon="1.7904">
        <ele>143</ele>
        <time>2010-05-15T10:59:36Z</time>
      </trkpt>
      <trkpt lat="48.5806" lon="1.79042">
        <ele>143</ele>
        <time>2010-05-15T10:59:37Z</time>
      </trkpt>
      <trkpt lat="48.58059" lon="1.79044">
        <ele>143</ele>
        <time>2010-05-15T10:59:38Z</time>
      </trkpt>
      <trkpt lat="48.58059" lon="1.79046">
        <ele>143</ele>
        <time>2010-05-15T10:59:39Z</time>
      </trkpt>
      <trkpt lat="48.58058" lon="1.79048">
        <ele>143</ele>
        <time>2010-05-15T10:59:40Z</time>
      </trkpt>
      <trkpt lat="48.58058" lon="1.79049">
        <ele>143</ele>
        <time>2010-05-15T10:59:41Z</time>
      </trkpt>
      <trkpt lat="48.58058" lon="1.79051">
        <ele>143</ele>
        <time>2010-05-15T10:59:42Z</time>
      </trkpt>
      <trkpt lat="48.58057" lon="1.79053">
        <ele>143</ele>
        <time>2010-05-15T10:59:43Z</time>
      </trkpt>
      <trkpt lat="48.58056" lon="1.79055">
        <ele>143</ele>
        <time>2010-05-15T10:59:44Z</time>
      </trkpt>
      <trkpt lat="48.58055" lon="1.79057">
        <ele>143</ele>
        <time>2010-05-15T10:59:45Z</time>
      </trkpt>
      <trkpt lat="48.58054" lon="1.79059">
        <ele>143</ele>
        <time>2010-05-15T10:59:46Z</time>
      </trkpt>
      <trkpt lat="48.58053" lon="1.79063">
        <ele>143</ele>
        <time>2010-05-15T10:59:48Z</time>
      </trkpt>
      <trkpt lat="48.58052" lon="1.79065">
        <ele>143</ele>
        <time>2010-05-15T10:59:49Z</time>
      </trkpt>
      <trkpt lat="48.58052" lon="1.79067">
        <ele>143</ele>
        <time>2010-05-15T10:59:50Z</time>
      </trkpt>
      <trkpt lat="48.58051" lon="1.79069">
        <ele>143</ele>
        <time>2010-05-15T10:59:51Z</time>
      </trkpt>
      <trkpt lat="48.5805" lon="1.79071">
        <ele>143</ele>
        <time>2010-05-15T10:59:52Z</time>
      </trkpt>
      <trkpt lat="48.58049" lon="1.79073">
        <ele>143</ele>
        <time>2010-05-15T10:59:53Z</time>
      </trkpt>
      <trkpt lat="48.58048" lon="1.79075">
        <ele>143</ele>
        <time>2010-05-15T10:59:54Z</time>
      </trkpt>
      <trkpt lat="48.58047" lon="1.79076">
        <ele>143</ele>
        <time>2010-05-15T10:59:55Z</time>
      </trkpt>
      <trkpt lat="48.58047" lon="1.79078">
        <ele>143</ele>
        <time>2010-05-15T10:59:56Z</time>
      </trkpt>
      <trkpt lat="48.58046" lon="1.79081">
        <ele>143</ele>
        <time>2010-05-15T10:59:57Z</time>
      </trkpt>
      <trkpt lat="48.58044" lon="1.79083">
        <ele>143</ele>
        <time>2010-05-15T10:59:58Z</time>
      </trkpt>
      <trkpt lat="48.58044" lon="1.79086">
        <ele>143</ele>
        <time>2010-05-15T10:59:59Z</time>
      </trkpt>
      <trkpt lat="48.58043" lon="1.79088">
        <ele>143</ele>
        <time>2010-05-15T11:00:00Z</time>
      </trkpt>
      <trkpt lat="48.58042" lon="1.7909">
        <ele>143</ele>
        <time>2010-05-15T11:00:01Z</time>
      </trkpt>
      <trkpt lat="48.58042" lon="1.79092">
        <ele>144</ele>
        <time>2010-05-15T11:00:02Z</time>
      </trkpt>
      <trkpt lat="48.58041" lon="1.79094">
        <ele>144</ele>
        <time>2010-05-15T11:00:03Z</time>
      </trkpt>
      <trkpt lat="48.5804" lon="1.79096">
        <ele>144</ele>
        <time>2010-05-15T11:00:04Z</time>
      </trkpt>
      <trkpt lat="48.58039" lon="1.79098">
        <ele>145</ele>
        <time>2010-05-15T11:00:05Z</time>
      </trkpt>
      <trkpt lat="48.58038" lon="1.791">
        <ele>145</ele>
        <time>2010-05-15T11:00:06Z</time>
      </trkpt>
      <trkpt lat="48.58037" lon="1.79102">
        <ele>145</ele>
        <time>2010-05-15T11:00:07Z</time>
      </trkpt>
      <trkpt lat="48.58036" lon="1.79104">
        <ele>145</ele>
        <time>2010-05-15T11:00:08Z</time>
      </trkpt>
      <trkpt lat="48.58036" lon="1.79106">
        <ele>145</ele>
        <time>2010-05-15T11:00:09Z</time>
      </trkpt>
      <trkpt lat="48.58034" lon="1.79109">
        <ele>146</ele>
        <time>2010-05-15T11:00:10Z</time>
      </trkpt>
      <trkpt lat="48.58033" lon="1.79112">
        <ele>146</ele>
        <time>2010-05-15T11:00:11Z</time>
      </trkpt>
      <trkpt lat="48.58032" lon="1.79114">
        <ele>147</ele>
        <time>2010-05-15T11:00:12Z</time>
      </trkpt>
      <trkpt lat="48.58031" lon="1.79116">
        <ele>147</ele>
        <time>2010-05-15T11:00:13Z</time>
      </trkpt>
      <trkpt lat="48.58031" lon="1.79118">
        <ele>147</ele>
        <time>2010-05-15T11:00:14Z</time>
      </trkpt>
      <trkpt lat="48.5803" lon="1.7912">
        <ele>148</ele>
        <time>2010-05-15T11:00:15Z</time>
      </trkpt>
      <trkpt lat="48.58029" lon="1.79122">
        <ele>148</ele>
        <time>2010-05-15T11:00:16Z</time>
      </trkpt>
      <trkpt lat="48.58029" lon="1.79124">
        <ele>148</ele>
        <time>2010-05-15T11:00:17Z</time>
      </trkpt>
      <trkpt lat="48.58028" lon="1.79126">
        <ele>148</ele>
        <time>2010-05-15T11:00:18Z</time>
      </trkpt>
      <trkpt lat="48.58028" lon="1.79128">
        <ele>148</ele>
        <time>2010-05-15T11:00:19Z</time>
      </trkpt>
      <trkpt lat="48.58027" lon="1.7913">
        <ele>148</ele>
        <time>2010-05-15T11:00:20Z</time>
      </trkpt>
      <trkpt lat="48.58027" lon="1.79132">
        <ele>148</ele>
        <time>2010-05-15T11:00:21Z</time>
      </trkpt>
      <trkpt lat="48.58026" lon="1.79134">
        <ele>148</ele>
        <time>2010-05-15T11:00:22Z</time>
      </trkpt>
      <trkpt lat="48.58026" lon="1.79137">
        <ele>149</ele>
        <time>2010-05-15T11:00:23Z</time>
      </trkpt>
      <trkpt lat="48.58026" lon="1.79139">
        <ele>149</ele>
        <time>2010-05-15T11:00:24Z</time>
      </trkpt>
      <trkpt lat="48.58025" lon="1.79141">
        <ele>149</ele>
        <time>2010-05-15T11:00:25Z</time>
      </trkpt>
      <trkpt lat="48.58025" lon="1.79143">
        <ele>149</ele>
        <time>2010-05-15T11:00:26Z</time>
      </trkpt>
      <trkpt lat="48.58024" lon="1.79146">
        <ele>149</ele>
        <time>2010-05-15T11:00:27Z</time>
      </trkpt>
      <trkpt lat="48.58024" lon="1.79148">
        <ele>149</ele>
        <time>2010-05-15T11:00:28Z</time>
      </trkpt>
      <trkpt lat="48.58024" lon="1.7915">
        <ele>149</ele>
        <time>2010-05-15T11:00:29Z</time>
      </trkpt>
      <trkpt lat="48.58023" lon="1.79152">
        <ele>149</ele>
        <time>2010-05-15T11:00:30Z</time>
      </trkpt>
      <trkpt lat="48.58023" lon="1.79154">
        <ele>149</ele>
        <time>2010-05-15T11:00:31Z</time>
      </trkpt>
      <trkpt lat="48.58023" lon="1.79156">
        <ele>149</ele>
        <time>2010-05-15T11:00:32Z</time>
      </trkpt>
      <trkpt lat="48.58022" lon="1.79158">
        <ele>149</ele>
        <time>2010-05-15T11:00:33Z</time>
      </trkpt>
      <trkpt lat="48.58022" lon="1.79161">
        <ele>149</ele>
        <time>2010-05-15T11:00:34Z</time>
      </trkpt>
      <trkpt lat="48.58022" lon="1.79163">
        <ele>149</ele>
        <time>2010-05-15T11:00:35Z</time>
      </trkpt>
      <trkpt lat="48.58022" lon="1.79165">
        <ele>149</ele>
        <time>2010-05-15T11:00:36Z</time>
      </trkpt>
      <trkpt lat="48.58021" lon="1.79167">
        <ele>149</ele>
        <time>2010-05-15T11:00:37Z</time>
      </trkpt>
      <trkpt lat="48.58021" lon="1.79169">
        <ele>149</ele>
        <time>2010-05-15T11:00:38Z</time>
      </trkpt>
      <trkpt lat="48.58021" lon="1.79171">
        <ele>149</ele>
        <time>2010-05-15T11:00:39Z</time>
      </trkpt>
      <trkpt lat="48.5802" lon="1.79173">
        <ele>149</ele>
        <time>2010-05-15T11:00:40Z</time>
      </trkpt>
      <trkpt lat="48.5802" lon="1.79175">
        <ele>149</ele>
        <time>2010-05-15T11:00:41Z</time>
      </trkpt>
      <trkpt lat="48.5802" lon="1.79177">
        <ele>149</ele>
        <time>2010-05-15T11:00:42Z</time>
      </trkpt>
      <trkpt lat="48.58019" lon="1.79179">
        <ele>149</ele>
        <time>2010-05-15T11:00:43Z</time>
      </trkpt>
      <trkpt lat="48.58019" lon="1.79182">
        <ele>149</ele>
        <time>2010-05-15T11:00:44Z</time>
      </trkpt>
      <trkpt lat="48.58018" lon="1.79184">
        <ele>149</ele>
        <time>2010-05-15T11:00:45Z</time>
      </trkpt>
      <trkpt lat="48.58018" lon="1.79186">
        <ele>149</ele>
        <time>2010-05-15T11:00:46Z</time>
      </trkpt>
      <trkpt lat="48.58018" lon="1.79188">
        <ele>149</ele>
        <time>2010-05-15T11:00:47Z</time>
      </trkpt>
      <trkpt lat="48.58017" lon="1.7919">
        <ele>149</ele>
        <time>2010-05-15T11:00:48Z</time>
      </trkpt>
      <trkpt lat="48.58017" lon="1.79192">
        <ele>149</ele>
        <time>2010-05-15T11:00:49Z</time>
      </trkpt>
      <trkpt lat="48.58016" lon="1.79195">
        <ele>149</ele>
        <time>2010-05-15T11:00:50Z</time>
      </trkpt>
      <trkpt lat="48.58016" lon="1.79197">
        <ele>149</ele>
        <time>2010-05-15T11:00:51Z</time>
      </trkpt>
      <trkpt lat="48.58016" lon="1.792">
        <ele>149</ele>
        <time>2010-05-15T11:00:52Z</time>
      </trkpt>
      <trkpt lat="48.58015" lon="1.79202">
        <ele>149</ele>
        <time>2010-05-15T11:00:53Z</time>
      </trkpt>
      <trkpt lat="48.58015" lon="1.79205">
        <ele>149</ele>
        <time>2010-05-15T11:00:54Z</time>
      </trkpt>
      <trkpt lat="48.58014" lon="1.79207">
        <ele>149</ele>
        <time>2010-05-15T11:00:55Z</time>
      </trkpt>
      <trkpt lat="48.58014" lon="1.79209">
        <ele>149</ele>
        <time>2010-05-15T11:00:56Z</time>
      </trkpt>
      <trkpt lat="48.58014" lon="1.79211">
        <ele>149</ele>
        <time>2010-05-15T11:00:57Z</time>
      </trkpt>
      <trkpt lat="48.58014" lon="1.79214">
        <ele>149</ele>
        <time>2010-05-15T11:00:58Z</time>
      </trkpt>
      <trkpt lat="48.58013" lon="1.79216">
        <ele>149</ele>
        <time>2010-05-15T11:00:59Z</time>
      </trkpt>
      <trkpt lat="48.58013" lon="1.79219">
        <ele>149</ele>
        <time>2010-05-15T11:01:00Z</time>
      </trkpt>
      <trkpt lat="48.58012" lon="1.79221">
        <ele>149</ele>
        <time>2010-05-15T11:01:01Z</time>
      </trkpt>
      <trkpt lat="48.58012" lon="1.79223">
        <ele>149</ele>
        <time>2010-05-15T11:01:02Z</time>
      </trkpt>
      <trkpt lat="48.58012" lon="1.79226">
        <ele>149</ele>
        <time>2010-05-15T11:01:03Z</time>
      </trkpt>
      <trkpt lat="48.58011" lon="1.79228">
        <ele>149</ele>
        <time>2010-05-15T11:01:04Z</time>
      </trkpt>
      <trkpt lat="48.58011" lon="1.7923">
        <ele>149</ele>
        <time>2010-05-15T11:01:05Z</time>
      </trkpt>
      <trkpt lat="48.5801" lon="1.79232">
        <ele>149</ele>
        <time>2010-05-15T11:01:06Z</time>
      </trkpt>
      <trkpt lat="48.5801" lon="1.79234">
        <ele>149</ele>
        <time>2010-05-15T11:01:07Z</time>
      </trkpt>
      <trkpt lat="48.5801" lon="1.79236">
        <ele>149</ele>
        <time>2010-05-15T11:01:08Z</time>
      </trkpt>
      <trkpt lat="48.58009" lon="1.79238">
        <ele>149</ele>
        <time>2010-05-15T11:01:09Z</time>
      </trkpt>
      <trkpt lat="48.58009" lon="1.7924">
        <ele>149</ele>
        <time>2010-05-15T11:01:10Z</time>
      </trkpt>
      <trkpt lat="48.58008" lon="1.79243">
        <ele>149</ele>
        <time>2010-05-15T11:01:11Z</time>
      </trkpt>
      <trkpt lat="48.58008" lon="1.79245">
        <ele>149</ele>
        <time>2010-05-15T11:01:12Z</time>
      </trkpt>
      <trkpt lat="48.58008" lon="1.79248">
        <ele>149</ele>
        <time>2010-05-15T11:01:13Z</time>
      </trkpt>
      <trkpt lat="48.58008" lon="1.7925">
        <ele>149</ele>
        <time>2010-05-15T11:01:14Z</time>
      </trkpt>
      <trkpt lat="48.58007" lon="1.79252">
        <ele>149</ele>
        <time>2010-05-15T11:01:15Z</time>
      </trkpt>
      <trkpt lat="48.58007" lon="1.79254">
        <ele>149</ele>
        <time>2010-05-15T11:01:16Z</time>
      </trkpt>
      <trkpt lat="48.58007" lon="1.79256">
        <ele>149</ele>
        <time>2010-05-15T11:01:17Z</time>
      </trkpt>
      <trkpt lat="48.58006" lon="1.79259">
        <ele>149</ele>
        <time>2010-05-15T11:01:18Z</time>
      </trkpt>
      <trkpt lat="48.58005" lon="1.79261">
        <ele>149</ele>
        <time>2010-05-15T11:01:19Z</time>
      </trkpt>
      <trkpt lat="48.58005" lon="1.79263">
        <ele>149</ele>
        <time>2010-05-15T11:01:20Z</time>
      </trkpt>
      <trkpt lat="48.58005" lon="1.79266">
        <ele>149</ele>
        <time>2010-05-15T11:01:21Z</time>
      </trkpt>
      <trkpt lat="48.58004" lon="1.79268">
        <ele>149</ele>
        <time>2010-05-15T11:01:22Z</time>
      </trkpt>
      <trkpt lat="48.58004" lon="1.7927">
        <ele>149</ele>
        <time>2010-05-15T11:01:23Z</time>
      </trkpt>
      <trkpt lat="48.58003" lon="1.79272">
        <ele>149</ele>
        <time>2010-05-15T11:01:24Z</time>
      </trkpt>
      <trkpt lat="48.58003" lon="1.79274">
        <ele>149</ele>
        <time>2010-05-15T11:01:25Z</time>
      </trkpt>
      <trkpt lat="48.58002" lon="1.79276">
        <ele>149</ele>
        <time>2010-05-15T11:01:26Z</time>
      </trkpt>
      <trkpt lat="48.58002" lon="1.79279">
        <ele>149</ele>
        <time>2010-05-15T11:01:27Z</time>
      </trkpt>
      <trkpt lat="48.58001" lon="1.79281">
        <ele>149</ele>
        <time>2010-05-15T11:01:28Z</time>
      </trkpt>
      <trkpt lat="48.58001" lon="1.79283">
        <ele>149</ele>
        <time>2010-05-15T11:01:29Z</time>
      </trkpt>
      <trkpt lat="48.58001" lon="1.79285">
        <ele>149</ele>
        <time>2010-05-15T11:01:30Z</time>
      </trkpt>
      <trkpt lat="48.58001" lon="1.79287">
        <ele>149</ele>
        <time>2010-05-15T11:01:31Z</time>
      </trkpt>
      <trkpt lat="48.58001" lon="1.79289">
        <ele>149</ele>
        <time>2010-05-15T11:01:32Z</time>
      </trkpt>
      <trkpt lat="48.58001" lon="1.79292">
        <ele>149</ele>
        <time>2010-05-15T11:01:33Z</time>
      </trkpt>
      <trkpt lat="48.58" lon="1.79294">
        <ele>149</ele>
        <time>2010-05-15T11:01:34Z</time>
      </trkpt>
      <trkpt lat="48.58" lon="1.79297">
        <ele>149</ele>
        <time>2010-05-15T11:01:35Z</time>
      </trkpt>
      <trkpt lat="48.58001" lon="1.79299">
        <ele>149</ele>
        <time>2010-05-15T11:01:36Z</time>
      </trkpt>
      <trkpt lat="48.58001" lon="1.79302">
        <ele>149</ele>
        <time>2010-05-15T11:01:37Z</time>
      </trkpt>
      <trkpt lat="48.58001" lon="1.79304">
        <ele>149</ele>
        <time>2010-05-15T11:01:38Z</time>
      </trkpt>
      <trkpt lat="48.58001" lon="1.79306">
        <ele>149</ele>
        <time>2010-05-15T11:01:39Z</time>
      </trkpt>
      <trkpt lat="48.58001" lon="1.79309">
        <ele>149</ele>
        <time>2010-05-15T11:01:40Z</time>
      </trkpt>
      <trkpt lat="48.58002" lon="1.79311">
        <ele>149</ele>
        <time>2010-05-15T11:01:41Z</time>
      </trkpt>
      <trkpt lat="48.58002" lon="1.79314">
        <ele>149</ele>
        <time>2010-05-15T11:01:42Z</time>
      </trkpt>
      <trkpt lat="48.58002" lon="1.79316">
        <ele>149</ele>
        <time>2010-05-15T11:01:43Z</time>
      </trkpt>
      <trkpt lat="48.58003" lon="1.79319">
        <ele>149</ele>
        <time>2010-05-15T11:01:44Z</time>
      </trkpt>
      <trkpt lat="48.58003" lon="1.79321">
        <ele>149</ele>
        <time>2010-05-15T11:01:45Z</time>
      </trkpt>
      <trkpt lat="48.58004" lon="1.79323">
        <ele>149</ele>
        <time>2010-05-15T11:01:46Z</time>
      </trkpt>
      <trkpt lat="48.58004" lon="1.79326">
        <ele>148</ele>
        <time>2010-05-15T11:01:47Z</time>
      </trkpt>
      <trkpt lat="48.58005" lon="1.79328">
        <ele>148</ele>
        <time>2010-05-15T11:01:48Z</time>
      </trkpt>
      <trkpt lat="48.58005" lon="1.79331">
        <ele>148</ele>
        <time>2010-05-15T11:01:49Z</time>
      </trkpt>
      <trkpt lat="48.58005" lon="1.79333">
        <ele>148</ele>
        <time>2010-05-15T11:01:50Z</time>
      </trkpt>
      <trkpt lat="48.58006" lon="1.79336">
        <ele>148</ele>
        <time>2010-05-15T11:01:51Z</time>
      </trkpt>
      <trkpt lat="48.58006" lon="1.79338">
        <ele>148</ele>
        <time>2010-05-15T11:01:52Z</time>
      </trkpt>
      <trkpt lat="48.58007" lon="1.7934">
        <ele>148</ele>
        <time>2010-05-15T11:01:53Z</time>
      </trkpt>
      <trkpt lat="48.58007" lon="1.79342">
        <ele>148</ele>
        <time>2010-05-15T11:01:54Z</time>
      </trkpt>
      <trkpt lat="48.58008" lon="1.79344">
        <ele>147</ele>
        <time>2010-05-15T11:01:55Z</time>
      </trkpt>
      <trkpt lat="48.58008" lon="1.79346">
        <ele>147</ele>
        <time>2010-05-15T11:01:56Z</time>
      </trkpt>
      <trkpt lat="48.58009" lon="1.79348">
        <ele>147</ele>
        <time>2010-05-15T11:01:57Z</time>
      </trkpt>
      <trkpt lat="48.58009" lon="1.7935">
        <ele>147</ele>
        <time>2010-05-15T11:01:58Z</time>
      </trkpt>
      <trkpt lat="48.5801" lon="1.79352">
        <ele>147</ele>
        <time>2010-05-15T11:01:59Z</time>
      </trkpt>
      <trkpt lat="48.5801" lon="1.79355">
        <ele>146</ele>
        <time>2010-05-15T11:02:00Z</time>
      </trkpt>
      <trkpt lat="48.58011" lon="1.79357">
        <ele>146</ele>
        <time>2010-05-15T11:02:01Z</time>
      </trkpt>
      <trkpt lat="48.58011" lon="1.79359">
        <ele>146</ele>
        <time>2010-05-15T11:02:02Z</time>
      </trkpt>
      <trkpt lat="48.58012" lon="1.79361">
        <ele>146</ele>
        <time>2010-05-15T11:02:03Z</time>
      </trkpt>
      <trkpt lat="48.58012" lon="1.79363">
        <ele>146</ele>
        <time>2010-05-15T11:02:04Z</time>
      </trkpt>
      <trkpt lat="48.58013" lon="1.79366">
        <ele>146</ele>
        <time>2010-05-15T11:02:05Z</time>
      </trkpt>
      <trkpt lat="48.58013" lon="1.79368">
        <ele>146</ele>
        <time>2010-05-15T11:02:06Z</time>
      </trkpt>
      <trkpt lat="48.58014" lon="1.7937">
        <ele>146</ele>
        <time>2010-05-15T11:02:07Z</time>
      </trkpt>
      <trkpt lat="48.58014" lon="1.79372">
        <ele>146</ele>
        <time>2010-05-15T11:02:08Z</time>
      </trkpt>
      <trkpt lat="48.58014" lon="1.79374">
        <ele>146</ele>
        <time>2010-05-15T11:02:09Z</time>
      </trkpt>
      <trkpt lat="48.58015" lon="1.79376">
        <ele>146</ele>
        <time>2010-05-15T11:02:10Z</time>
      </trkpt>
      <trkpt lat="48.58016" lon="1.79378">
        <ele>146</ele>
        <time>2010-05-15T11:02:11Z</time>
      </trkpt>
      <trkpt lat="48.58016" lon="1.7938">
        <ele>146</ele>
        <time>2010-05-15T11:02:12Z</time>
      </trkpt>
      <trkpt lat="48.58017" lon="1.79382">
        <ele>146</ele>
        <time>2010-05-15T11:02:13Z</time>
      </trkpt>
      <trkpt lat="48.58017" lon="1.79384">
        <ele>146</ele>
        <time>2010-05-15T11:02:14Z</time>
      </trkpt>
      <trkpt lat="48.58018" lon="1.79387">
        <ele>145</ele>
        <time>2010-05-15T11:02:15Z</time>
      </trkpt>
      <trkpt lat="48.58018" lon="1.79389">
        <ele>145</ele>
        <time>2010-05-15T11:02:16Z</time>
      </trkpt>
      <trkpt lat="48.58019" lon="1.79391">
        <ele>145</ele>
        <time>2010-05-15T11:02:17Z</time>
      </trkpt>
      <trkpt lat="48.58019" lon="1.79393">
        <ele>145</ele>
        <time>2010-05-15T11:02:18Z</time>
      </trkpt>
      <trkpt lat="48.5802" lon="1.79395">
        <ele>145</ele>
        <time>2010-05-15T11:02:19Z</time>
      </trkpt>
      <trkpt lat="48.5802" lon="1.79397">
        <ele>145</ele>
        <time>2010-05-15T11:02:20Z</time>
      </trkpt>
      <trkpt lat="48.58021" lon="1.79399">
        <ele>145</ele>
        <time>2010-05-15T11:02:21Z</time>
      </trkpt>
      <trkpt lat="48.58021" lon="1.79401">
        <ele>145</ele>
        <time>2010-05-15T11:02:22Z</time>
      </trkpt>
      <trkpt lat="48.58022" lon="1.79403">
        <ele>145</ele>
        <time>2010-05-15T11:02:23Z</time>
      </trkpt>
      <trkpt lat="48.58022" lon="1.79406">
        <ele>145</ele>
        <time>2010-05-15T11:02:24Z</time>
      </trkpt>
      <trkpt lat="48.58023" lon="1.79408">
        <ele>145</ele>
        <time>2010-05-15T11:02:25Z</time>
      </trkpt>
      <trkpt lat="48.58024" lon="1.7941">
        <ele>144</ele>
        <time>2010-05-15T11:02:26Z</time>
      </trkpt>
      <trkpt lat="48.58024" lon="1.79412">
        <ele>144</ele>
        <time>2010-05-15T11:02:27Z</time>
      </trkpt>
      <trkpt lat="48.58025" lon="1.79414">
        <ele>144</ele>
        <time>2010-05-15T11:02:28Z</time>
      </trkpt>
      <trkpt lat="48.58026" lon="1.79416">
        <ele>144</ele>
        <time>2010-05-15T11:02:29Z</time>
      </trkpt>
      <trkpt lat="48.58027" lon="1.79417">
        <ele>144</ele>
        <time>2010-05-15T11:02:30Z</time>
      </trkpt>
      <trkpt lat="48.58027" lon="1.79419">
        <ele>144</ele>
        <time>2010-05-15T11:02:31Z</time>
      </trkpt>
      <trkpt lat="48.58028" lon="1.79421">
        <ele>144</ele>
        <time>2010-05-15T11:02:32Z</time>
      </trkpt>
      <trkpt lat="48.58029" lon="1.79423">
        <ele>144</ele>
        <time>2010-05-15T11:02:33Z</time>
      </trkpt>
      <trkpt lat="48.58029" lon="1.79425">
        <ele>144</ele>
        <time>2010-05-15T11:02:34Z</time>
      </trkpt>
      <trkpt lat="48.5803" lon="1.79428">
        <ele>144</ele>
        <time>2010-05-15T11:02:35Z</time>
      </trkpt>
      <trkpt lat="48.5803" lon="1.7943">
        <ele>144</ele>
        <time>2010-05-15T11:02:36Z</time>
      </trkpt>
      <trkpt lat="48.58031" lon="1.79432">
        <ele>144</ele>
        <time>2010-05-15T11:02:37Z</time>
      </trkpt>
      <trkpt lat="48.58031" lon="1.79434">
        <ele>144</ele>
        <time>2010-05-15T11:02:38Z</time>
      </trkpt>
      <trkpt lat="48.58032" lon="1.79436">
        <ele>144</ele>
        <time>2010-05-15T11:02:39Z</time>
      </trkpt>
      <trkpt lat="48.58032" lon="1.79439">
        <ele>144</ele>
        <time>2010-05-15T11:02:40Z</time>
      </trkpt>
      <trkpt lat="48.58033" lon="1.79441">
        <ele>144</ele>
        <time>2010-05-15T11:02:41Z</time>
      </trkpt>
      <trkpt lat="48.58033" lon="1.79444">
        <ele>144</ele>
        <time>2010-05-15T11:02:42Z</time>
      </trkpt>
      <trkpt lat="48.58033" lon="1.79446">
        <ele>144</ele>
        <time>2010-05-15T11:02:43Z</time>
      </trkpt>
      <trkpt lat="48.58034" lon="1.79448">
        <ele>144</ele>
        <time>2010-05-15T11:02:44Z</time>
      </trkpt>
      <trkpt lat="48.58034" lon="1.7945">
        <ele>144</ele>
        <time>2010-05-15T11:02:45Z</time>
      </trkpt>
      <trkpt lat="48.58034" lon="1.79453">
        <ele>144</ele>
        <time>2010-05-15T11:02:46Z</time>
      </trkpt>
      <trkpt lat="48.58034" lon="1.79455">
        <ele>144</ele>
        <time>2010-05-15T11:02:47Z</time>
      </trkpt>
      <trkpt lat="48.58034" lon="1.79457">
        <ele>144</ele>
        <time>2010-05-15T11:02:48Z</time>
      </trkpt>
      <trkpt lat="48.58035" lon="1.79459">
        <ele>144</ele>
        <time>2010-05-15T11:02:49Z</time>
      </trkpt>
      <trkpt lat="48.58035" lon="1.79462">
        <ele>144</ele>
        <time>2010-05-15T11:02:50Z</time>
      </trkpt>
      <trkpt lat="48.58035" lon="1.79464">
        <ele>144</ele>
        <time>2010-05-15T11:02:51Z</time>
      </trkpt>
      <trkpt lat="48.58035" lon="1.79466">
        <ele>144</ele>
        <time>2010-05-15T11:02:52Z</time>
      </trkpt>
      <trkpt lat="48.58035" lon="1.79468">
        <ele>144</ele>
        <time>2010-05-15T11:02:53Z</time>
      </trkpt>
      <trkpt lat="48.58035" lon="1.7947">
        <ele>144</ele>
        <time>2010-05-15T11:02:54Z</time>
      </trkpt>
      <trkpt lat="48.58036" lon="1.79473">
        <ele>144</ele>
        <time>2010-05-15T11:02:55Z</time>
      </trkpt>
      <trkpt lat="48.58036" lon="1.79475">
        <ele>144</ele>
        <time>2010-05-15T11:02:56Z</time>
      </trkpt>
      <trkpt lat="48.58036" lon="1.79477">
        <ele>144</ele>
        <time>2010-05-15T11:02:57Z</time>
      </trkpt>
      <trkpt lat="48.58035" lon="1.79479">
        <ele>144</ele>
        <time>2010-05-15T11:02:58Z</time>
      </trkpt>
      <trkpt lat="48.58035" lon="1.79482">
        <ele>144</ele>
        <time>2010-05-15T11:02:59Z</time>
      </trkpt>
      <trkpt lat="48.58035" lon="1.79484">
        <ele>144</ele>
        <time>2010-05-15T11:03:00Z</time>
      </trkpt>
      <trkpt lat="48.58035" lon="1.79487">
        <ele>144</ele>
        <time>2010-05-15T11:03:01Z</time>
      </trkpt>
      <trkpt lat="48.58034" lon="1.79489">
        <ele>144</ele>
        <time>2010-05-15T11:03:02Z</time>
      </trkpt>
      <trkpt lat="48.58034" lon="1.79491">
        <ele>144</ele>
        <time>2010-05-15T11:03:03Z</time>
      </trkpt>
      <trkpt lat="48.58034" lon="1.79494">
        <ele>144</ele>
        <time>2010-05-15T11:03:04Z</time>
      </trkpt>
      <trkpt lat="48.58033" lon="1.79496">
        <ele>144</ele>
        <time>2010-05-15T11:03:05Z</time>
      </trkpt>
      <trkpt lat="48.58033" lon="1.79498">
        <ele>144</ele>
        <time>2010-05-15T11:03:06Z</time>
      </trkpt>
      <trkpt lat="48.58032" lon="1.795">
        <ele>144</ele>
        <time>2010-05-15T11:03:07Z</time>
      </trkpt>
      <trkpt lat="48.58031" lon="1.79503">
        <ele>144</ele>
        <time>2010-05-15T11:03:08Z</time>
      </trkpt>
      <trkpt lat="48.5803" lon="1.79505">
        <ele>144</ele>
        <time>2010-05-15T11:03:09Z</time>
      </trkpt>
      <trkpt lat="48.5803" lon="1.79507">
        <ele>144</ele>
        <time>2010-05-15T11:03:10Z</time>
      </trkpt>
      <trkpt lat="48.58029" lon="1.79509">
        <ele>144</ele>
        <time>2010-05-15T11:03:11Z</time>
      </trkpt>
      <trkpt lat="48.58028" lon="1.7951">
        <ele>144</ele>
        <time>2010-05-15T11:03:12Z</time>
      </trkpt>
      <trkpt lat="48.58027" lon="1.79512">
        <ele>144</ele>
        <time>2010-05-15T11:03:13Z</time>
      </trkpt>
      <trkpt lat="48.58027" lon="1.79514">
        <ele>144</ele>
        <time>2010-05-15T11:03:14Z</time>
      </trkpt>
      <trkpt lat="48.58026" lon="1.79516">
        <ele>144</ele>
        <time>2010-05-15T11:03:15Z</time>
      </trkpt>
      <trkpt lat="48.58026" lon="1.79518">
        <ele>144</ele>
        <time>2010-05-15T11:03:16Z</time>
      </trkpt>
      <trkpt lat="48.58025" lon="1.7952">
        <ele>144</ele>
        <time>2010-05-15T11:03:17Z</time>
      </trkpt>
      <trkpt lat="48.58024" lon="1.79522">
        <ele>144</ele>
        <time>2010-05-15T11:03:18Z</time>
      </trkpt>
      <trkpt lat="48.58024" lon="1.79524">
        <ele>144</ele>
        <time>2010-05-15T11:03:19Z</time>
      </trkpt>
      <trkpt lat="48.58023" lon="1.79526">
        <ele>144</ele>
        <time>2010-05-15T11:03:20Z</time>
      </trkpt>
      <trkpt lat="48.58022" lon="1.79528">
        <ele>144</ele>
        <time>2010-05-15T11:03:21Z</time>
      </trkpt>
      <trkpt lat="48.58021" lon="1.79529">
        <ele>144</ele>
        <time>2010-05-15T11:03:22Z</time>
      </trkpt>
      <trkpt lat="48.5802" lon="1.79531">
        <ele>144</ele>
        <time>2010-05-15T11:03:23Z</time>
      </trkpt>
      <trkpt lat="48.5802" lon="1.79533">
        <ele>144</ele>
        <time>2010-05-15T11:03:24Z</time>
      </trkpt>
      <trkpt lat="48.58018" lon="1.79536">
        <ele>144</ele>
        <time>2010-05-15T11:03:26Z</time>
      </trkpt>
      <trkpt lat="48.58017" lon="1.79539">
        <ele>144</ele>
        <time>2010-05-15T11:03:27Z</time>
      </trkpt>
      <trkpt lat="48.58016" lon="1.79541">
        <ele>144</ele>
        <time>2010-05-15T11:03:28Z</time>
      </trkpt>
      <trkpt lat="48.58016" lon="1.79543">
        <ele>144</ele>
        <time>2010-05-15T11:03:29Z</time>
      </trkpt>
      <trkpt lat="48.58015" lon="1.79545">
        <ele>144</ele>
        <time>2010-05-15T11:03:30Z</time>
      </trkpt>
      <trkpt lat="48.58015" lon="1.79547">
        <ele>144</ele>
        <time>2010-05-15T11:03:31Z</time>
      </trkpt>
      <trkpt lat="48.58014" lon="1.79549">
        <ele>144</ele>
        <time>2010-05-15T11:03:32Z</time>
      </trkpt>
      <trkpt lat="48.58014" lon="1.79551">
        <ele>144</ele>
        <time>2010-05-15T11:03:33Z</time>
      </trkpt>
      <trkpt lat="48.58014" lon="1.79554">
        <ele>144</ele>
        <time>2010-05-15T11:03:34Z</time>
      </trkpt>
      <trkpt lat="48.58014" lon="1.79556">
        <ele>144</ele>
        <time>2010-05-15T11:03:35Z</time>
      </trkpt>
      <trkpt lat="48.58013" lon="1.79559">
        <ele>144</ele>
        <time>2010-05-15T11:03:36Z</time>
      </trkpt>
      <trkpt lat="48.58014" lon="1.79561">
        <ele>144</ele>
        <time>2010-05-15T11:03:37Z</time>
      </trkpt>
      <trkpt lat="48.58014" lon="1.79564">
        <ele>144</ele>
        <time>2010-05-15T11:03:38Z</time>
      </trkpt>
      <trkpt lat="48.58015" lon="1.79566">
        <ele>144</ele>
        <time>2010-05-15T11:03:39Z</time>
      </trkpt>
      <trkpt lat="48.58015" lon="1.79568">
        <ele>144</ele>
        <time>2010-05-15T11:03:40Z</time>
      </trkpt>
      <trkpt lat="48.58016" lon="1.7957">
        <ele>144</ele>
        <time>2010-05-15T11:03:41Z</time>
      </trkpt>
      <trkpt lat="48.58017" lon="1.79573">
        <ele>144</ele>
        <time>2010-05-15T11:03:42Z</time>
      </trkpt>
      <trkpt lat="48.58017" lon="1.79575">
        <ele>144</ele>
        <time>2010-05-15T11:03:43Z</time>
      </trkpt>
      <trkpt lat="48.58018" lon="1.79577">
        <ele>144</ele>
        <time>2010-05-15T11:03:44Z</time>
      </trkpt>
      <trkpt lat="48.58019" lon="1.79579">
        <ele>144</ele>
        <time>2010-05-15T11:03:45Z</time>
      </trkpt>
      <trkpt lat="48.5802" lon="1.79581">
        <ele>144</ele>
        <time>2010-05-15T11:03:46Z</time>
      </trkpt>
      <trkpt lat="48.5802" lon="1.79583">
        <ele>144</ele>
        <time>2010-05-15T11:03:47Z</time>
      </trkpt>
      <trkpt lat="48.58021" lon="1.79584">
        <ele>144</ele>
        <time>2010-05-15T11:03:48Z</time>
      </trkpt>
      <trkpt lat="48.58022" lon="1.79586">
        <ele>144</ele>
        <time>2010-05-15T11:03:49Z</time>
      </trkpt>
      <trkpt lat="48.58023" lon="1.79589">
        <ele>144</ele>
        <time>2010-05-15T11:03:50Z</time>
      </trkpt>
      <trkpt lat="48.58023" lon="1.7959">
        <ele>144</ele>
        <time>2010-05-15T11:03:51Z</time>
      </trkpt>
      <trkpt lat="48.58024" lon="1.79593">
        <ele>144</ele>
        <time>2010-05-15T11:03:52Z</time>
      </trkpt>
      <trkpt lat="48.58025" lon="1.79595">
        <ele>144</ele>
        <time>2010-05-15T11:03:53Z</time>
      </trkpt>
      <trkpt lat="48.58025" lon="1.79597">
        <ele>144</ele>
        <time>2010-05-15T11:03:54Z</time>
      </trkpt>
      <trkpt lat="48.58026" lon="1.79599">
        <ele>144</ele>
        <time>2010-05-15T11:03:55Z</time>
      </trkpt>
      <trkpt lat="48.58027" lon="1.79601">
        <ele>144</ele>
        <time>2010-05-15T11:03:56Z</time>
      </trkpt>
      <trkpt lat="48.58027" lon="1.79603">
        <ele>144</ele>
        <time>2010-05-15T11:03:57Z</time>
      </trkpt>
      <trkpt lat="48.58028" lon="1.79605">
        <ele>144</ele>
        <time>2010-05-15T11:03:58Z</time>
      </trkpt>
      <trkpt lat="48.58029" lon="1.79607">
        <ele>144</ele>
        <time>2010-05-15T11:03:59Z</time>
      </trkpt>
      <trkpt lat="48.58029" lon="1.79609">
        <ele>144</ele>
        <time>2010-05-15T11:04:00Z</time>
      </trkpt>
      <trkpt lat="48.5803" lon="1.79611">
        <ele>144</ele>
        <time>2010-05-15T11:04:01Z</time>
      </trkpt>
      <trkpt lat="48.58031" lon="1.79613">
        <ele>144</ele>
        <time>2010-05-15T11:04:02Z</time>
      </trkpt>
      <trkpt lat="48.58032" lon="1.79615">
        <ele>144</ele>
        <time>2010-05-15T11:04:03Z</time>
      </trkpt>
      <trkpt lat="48.58032" lon="1.79617">
        <ele>144</ele>
        <time>2010-05-15T11:04:04Z</time>
      </trkpt>
      <trkpt lat="48.58033" lon="1.79619">
        <ele>144</ele>
        <time>2010-05-15T11:04:05Z</time>
      </trkpt>
      <trkpt lat="48.58034" lon="1.79621">
        <ele>144</ele>
        <time>2010-05-15T11:04:06Z</time>
      </trkpt>
      <trkpt lat="48.58034" lon="1.79623">
        <ele>144</ele>
        <time>2010-05-15T11:04:07Z</time>
      </trkpt>
      <trkpt lat="48.58035" lon="1.79626">
        <ele>144</ele>
        <time>2010-05-15T11:04:08Z</time>
      </trkpt>
      <trkpt lat="48.58036" lon="1.79628">
        <ele>144</ele>
        <time>2010-05-15T11:04:09Z</time>
      </trkpt>
      <trkpt lat="48.58036" lon="1.7963">
        <ele>144</ele>
        <time>2010-05-15T11:04:10Z</time>
      </trkpt>
      <trkpt lat="48.58037" lon="1.79632">
        <ele>144</ele>
        <time>2010-05-15T11:04:11Z</time>
      </trkpt>
      <trkpt lat="48.58038" lon="1.79634">
        <ele>144</ele>
        <time>2010-05-15T11:04:12Z</time>
      </trkpt>
      <trkpt lat="48.58038" lon="1.79636">
        <ele>144</ele>
        <time>2010-05-15T11:04:13Z</time>
      </trkpt>
      <trkpt lat="48.58039" lon="1.79638">
        <ele>144</ele>
        <time>2010-05-15T11:04:14Z</time>
      </trkpt>
      <trkpt lat="48.5804" lon="1.7964">
        <ele>144</ele>
        <time>2010-05-15T11:04:15Z</time>
      </trkpt>
      <trkpt lat="48.5804" lon="1.79642">
        <ele>144</ele>
        <time>2010-05-15T11:04:16Z</time>
      </trkpt>
      <trkpt lat="48.58041" lon="1.79644">
        <ele>144</ele>
        <time>2010-05-15T11:04:17Z</time>
      </trkpt>
      <trkpt lat="48.58042" lon="1.79646">
        <ele>144</ele>
        <time>2010-05-15T11:04:18Z</time>
      </trkpt>
      <trkpt lat="48.58042" lon="1.79648">
        <ele>144</ele>
        <time>2010-05-15T11:04:19Z</time>
      </trkpt>
      <trkpt lat="48.58043" lon="1.7965">
        <ele>144</ele>
        <time>2010-05-15T11:04:20Z</time>
      </trkpt>
      <trkpt lat="48.58043" lon="1.79653">
        <ele>144</ele>
        <time>2010-05-15T11:04:21Z</time>
      </trkpt>
      <trkpt lat="48.58044" lon="1.79655">
        <ele>144</ele>
        <time>2010-05-15T11:04:22Z</time>
      </trkpt>
      <trkpt lat="48.58045" lon="1.79657">
        <ele>144</ele>
        <time>2010-05-15T11:04:23Z</time>
      </trkpt>
      <trkpt lat="48.58045" lon="1.79659">
        <ele>144</ele>
        <time>2010-05-15T11:04:24Z</time>
      </trkpt>
      <trkpt lat="48.58046" lon="1.79661">
        <ele>144</ele>
        <time>2010-05-15T11:04:25Z</time>
      </trkpt>
      <trkpt lat="48.58047" lon="1.79663">
        <ele>144</ele>
        <time>2010-05-15T11:04:26Z</time>
      </trkpt>
      <trkpt lat="48.58048" lon="1.79665">
        <ele>144</ele>
        <time>2010-05-15T11:04:27Z</time>
      </trkpt>
      <trkpt lat="48.58048" lon="1.79667">
        <ele>144</ele>
        <time>2010-05-15T11:04:28Z</time>
      </trkpt>
      <trkpt lat="48.58049" lon="1.79669">
        <ele>144</ele>
        <time>2010-05-15T11:04:29Z</time>
      </trkpt>
      <trkpt lat="48.58049" lon="1.79671">
        <ele>144</ele>
        <time>2010-05-15T11:04:30Z</time>
      </trkpt>
      <trkpt lat="48.5805" lon="1.79673">
        <ele>144</ele>
        <time>2010-05-15T11:04:31Z</time>
      </trkpt>
      <trkpt lat="48.5805" lon="1.79675">
        <ele>144</ele>
        <time>2010-05-15T11:04:32Z</time>
      </trkpt>
      <trkpt lat="48.58051" lon="1.79677">
        <ele>144</ele>
        <time>2010-05-15T11:04:33Z</time>
      </trkpt>
      <trkpt lat="48.58051" lon="1.79679">
        <ele>144</ele>
        <time>2010-05-15T11:04:34Z</time>
      </trkpt>
      <trkpt lat="48.58052" lon="1.79681">
        <ele>144</ele>
        <time>2010-05-15T11:04:35Z</time>
      </trkpt>
      <trkpt lat="48.58052" lon="1.79683">
        <ele>144</ele>
        <time>2010-05-15T11:04:36Z</time>
      </trkpt>
      <trkpt lat="48.58052" lon="1.79685">
        <ele>144</ele>
        <time>2010-05-15T11:04:37Z</time>
      </trkpt>
      <trkpt lat="48.58052" lon="1.79687">
        <ele>144</ele>
        <time>2010-05-15T11:04:38Z</time>
      </trkpt>
      <trkpt lat="48.58053" lon="1.79689">
        <ele>144</ele>
        <time>2010-05-15T11:04:39Z</time>
      </trkpt>
      <trkpt lat="48.58053" lon="1.79691">
        <ele>144</ele>
        <time>2010-05-15T11:04:40Z</time>
      </trkpt>
      <trkpt lat="48.58053" lon="1.79693">
        <ele>144</ele>
        <time>2010-05-15T11:04:41Z</time>
      </trkpt>
      <trkpt lat="48.58053" lon="1.79695">
        <ele>144</ele>
        <time>2010-05-15T11:04:42Z</time>
      </trkpt>
      <trkpt lat="48.58054" lon="1.79697">
        <ele>145</ele>
        <time>2010-05-15T11:04:43Z</time>
      </trkpt>
      <trkpt lat="48.58054" lon="1.79699">
        <ele>145</ele>
        <time>2010-05-15T11:04:44Z</time>
      </trkpt>
      <trkpt lat="48.58054" lon="1.79701">
        <ele>145</ele>
        <time>2010-05-15T11:04:45Z</time>
      </trkpt>
      <trkpt lat="48.58054" lon="1.79703">
        <ele>145</ele>
        <time>2010-05-15T11:04:46Z</time>
      </trkpt>
      <trkpt lat="48.58054" lon="1.79705">
        <ele>145</ele>
        <time>2010-05-15T11:04:47Z</time>
      </trkpt>
      <trkpt lat="48.58055" lon="1.79707">
        <ele>145</ele>
        <time>2010-05-15T11:04:48Z</time>
      </trkpt>
      <trkpt lat="48.58055" lon="1.79709">
        <ele>145</ele>
        <time>2010-05-15T11:04:49Z</time>
      </trkpt>
      <trkpt lat="48.58055" lon="1.79712">
        <ele>145</ele>
        <time>2010-05-15T11:04:50Z</time>
      </trkpt>
      <trkpt lat="48.58055" lon="1.79714">
        <ele>145</ele>
        <time>2010-05-15T11:04:51Z</time>
      </trkpt>
      <trkpt lat="48.58055" lon="1.79716">
        <ele>145</ele>
        <time>2010-05-15T11:04:52Z</time>
      </trkpt>
      <trkpt lat="48.58055" lon="1.79718">
        <ele>145</ele>
        <time>2010-05-15T11:04:53Z</time>
      </trkpt>
      <trkpt lat="48.58055" lon="1.7972">
        <ele>145</ele>
        <time>2010-05-15T11:04:54Z</time>
      </trkpt>
      <trkpt lat="48.58056" lon="1.79722">
        <ele>146</ele>
        <time>2010-05-15T11:04:55Z</time>
      </trkpt>
      <trkpt lat="48.58056" lon="1.79724">
        <ele>146</ele>
        <time>2010-05-15T11:04:56Z</time>
      </trkpt>
      <trkpt lat="48.58056" lon="1.79727">
        <ele>146</ele>
        <time>2010-05-15T11:04:57Z</time>
      </trkpt>
      <trkpt lat="48.58056" lon="1.79729">
        <ele>146</ele>
        <time>2010-05-15T11:04:58Z</time>
      </trkpt>
      <trkpt lat="48.58057" lon="1.79731">
        <ele>146</ele>
        <time>2010-05-15T11:04:59Z</time>
      </trkpt>
      <trkpt lat="48.58057" lon="1.79733">
        <ele>146</ele>
        <time>2010-05-15T11:05:00Z</time>
      </trkpt>
      <trkpt lat="48.58057" lon="1.79736">
        <ele>146</ele>
        <time>2010-05-15T11:05:01Z</time>
      </trkpt>
      <trkpt lat="48.58057" lon="1.79738">
        <ele>146</ele>
        <time>2010-05-15T11:05:02Z</time>
      </trkpt>
      <trkpt lat="48.58058" lon="1.7974">
        <ele>146</ele>
        <time>2010-05-15T11:05:03Z</time>
      </trkpt>
      <trkpt lat="48.58058" lon="1.79742">
        <ele>146</ele>
        <time>2010-05-15T11:05:04Z</time>
      </trkpt>
      <trkpt lat="48.58058" lon="1.79744">
        <ele>146</ele>
        <time>2010-05-15T11:05:05Z</time>
      </trkpt>
      <trkpt lat="48.58058" lon="1.79746">
        <ele>146</ele>
        <time>2010-05-15T11:05:06Z</time>
      </trkpt>
      <trkpt lat="48.58059" lon="1.79748">
        <ele>146</ele>
        <time>2010-05-15T11:05:07Z</time>
      </trkpt>
      <trkpt lat="48.58059" lon="1.7975">
        <ele>146</ele>
        <time>2010-05-15T11:05:08Z</time>
      </trkpt>
      <trkpt lat="48.58059" lon="1.79752">
        <ele>147</ele>
        <time>2010-05-15T11:05:09Z</time>
      </trkpt>
      <trkpt lat="48.58059" lon="1.79754">
        <ele>147</ele>
        <time>2010-05-15T11:05:10Z</time>
      </trkpt>
      <trkpt lat="48.58059" lon="1.79756">
        <ele>147</ele>
        <time>2010-05-15T11:05:11Z</time>
      </trkpt>
      <trkpt lat="48.58059" lon="1.79758">
        <ele>147</ele>
        <time>2010-05-15T11:05:12Z</time>
      </trkpt>
      <trkpt lat="48.5806" lon="1.79761">
        <ele>147</ele>
        <time>2010-05-15T11:05:13Z</time>
      </trkpt>
      <trkpt lat="48.5806" lon="1.79763">
        <ele>147</ele>
        <time>2010-05-15T11:05:14Z</time>
      </trkpt>
      <trkpt lat="48.5806" lon="1.79765">
        <ele>147</ele>
        <time>2010-05-15T11:05:15Z</time>
      </trkpt>
      <trkpt lat="48.5806" lon="1.79767">
        <ele>147</ele>
        <time>2010-05-15T11:05:16Z</time>
      </trkpt>
      <trkpt lat="48.5806" lon="1.79769">
        <ele>147</ele>
        <time>2010-05-15T11:05:17Z</time>
      </trkpt>
      <trkpt lat="48.5806" lon="1.79772">
        <ele>147</ele>
        <time>2010-05-15T11:05:18Z</time>
      </trkpt>
      <trkpt lat="48.5806" lon="1.79774">
        <ele>148</ele>
        <time>2010-05-15T11:05:19Z</time>
      </trkpt>
      <trkpt lat="48.5806" lon="1.79776">
        <ele>148</ele>
        <time>2010-05-15T11:05:20Z</time>
      </trkpt>
      <trkpt lat="48.5806" lon="1.79778">
        <ele>148</ele>
        <time>2010-05-15T11:05:21Z</time>
      </trkpt>
      <trkpt lat="48.5806" lon="1.7978">
        <ele>148</ele>
        <time>2010-05-15T11:05:22Z</time>
      </trkpt>
      <trkpt lat="48.5806" lon="1.79782">
        <ele>148</ele>
        <time>2010-05-15T11:05:23Z</time>
      </trkpt>
      <trkpt lat="48.5806" lon="1.79784">
        <ele>149</ele>
        <time>2010-05-15T11:05:24Z</time>
      </trkpt>
      <trkpt lat="48.5806" lon="1.79786">
        <ele>149</ele>
        <time>2010-05-15T11:05:26Z</time>
      </trkpt>
      <trkpt lat="48.58059" lon="1.79785">
        <ele>149</ele>
        <time>2010-05-15T11:06:00Z</time>
      </trkpt>
      <trkpt lat="48.58059" lon="1.79782">
        <ele>150</ele>
        <time>2010-05-15T11:06:02Z</time>
      </trkpt>
      <trkpt lat="48.58059" lon="1.7978">
        <ele>150</ele>
        <time>2010-05-15T11:06:03Z</time>
      </trkpt>
      <trkpt lat="48.58059" lon="1.79778">
        <ele>150</ele>
        <time>2010-05-15T11:06:04Z</time>
      </trkpt>
      <trkpt lat="48.58059" lon="1.79776">
        <ele>150</ele>
        <time>2010-05-15T11:06:05Z</time>
      </trkpt>
      <trkpt lat="48.58059" lon="1.79774">
        <ele>150</ele>
        <time>2010-05-15T11:06:06Z</time>
      </trkpt>
      <trkpt lat="48.58059" lon="1.79772">
        <ele>150</ele>
        <time>2010-05-15T11:06:07Z</time>
      </trkpt>
      <trkpt lat="48.5806" lon="1.79771">
        <ele>150</ele>
        <time>2010-05-15T11:06:08Z</time>
      </trkpt>
      <trkpt lat="48.5806" lon="1.79768">
        <ele>150</ele>
        <time>2010-05-15T11:06:09Z</time>
      </trkpt>
      <trkpt lat="48.5806" lon="1.79766">
        <ele>150</ele>
        <time>2010-05-15T11:06:10Z</time>
      </trkpt>
      <trkpt lat="48.5806" lon="1.79764">
        <ele>150</ele>
        <time>2010-05-15T11:06:11Z</time>
      </trkpt>
      <trkpt lat="48.58059" lon="1.79762">
        <ele>150</ele>
        <time>2010-05-15T11:06:12Z</time>
      </trkpt>
      <trkpt lat="48.58059" lon="1.7976">
        <ele>150</ele>
        <time>2010-05-15T11:06:13Z</time>
      </trkpt>
      <trkpt lat="48.58059" lon="1.79758">
        <ele>150</ele>
        <time>2010-05-15T11:06:14Z</time>
      </trkpt>
      <trkpt lat="48.58059" lon="1.79756">
        <ele>150</ele>
        <time>2010-05-15T11:06:15Z</time>
      </trkpt>
      <trkpt lat="48.58058" lon="1.79754">
        <ele>150</ele>
        <time>2010-05-15T11:06:16Z</time>
      </trkpt>
      <trkpt lat="48.58058" lon="1.79752">
        <ele>150</ele>
        <time>2010-05-15T11:06:17Z</time>
      </trkpt>
      <trkpt lat="48.58058" lon="1.7975">
        <ele>150</ele>
        <time>2010-05-15T11:06:18Z</time>
      </trkpt>
      <trkpt lat="48.58058" lon="1.79748">
        <ele>150</ele>
        <time>2010-05-15T11:06:19Z</time>
      </trkpt>
      <trkpt lat="48.58058" lon="1.79746">
        <ele>150</ele>
        <time>2010-05-15T11:06:20Z</time>
      </trkpt>
      <trkpt lat="48.58057" lon="1.79744">
        <ele>150</ele>
        <time>2010-05-15T11:06:21Z</time>
      </trkpt>
      <trkpt lat="48.58057" lon="1.79742">
        <ele>150</ele>
        <time>2010-05-15T11:06:22Z</time>
      </trkpt>
      <trkpt lat="48.58057" lon="1.7974">
        <ele>150</ele>
        <time>2010-05-15T11:06:23Z</time>
      </trkpt>
      <trkpt lat="48.58057" lon="1.79738">
        <ele>150</ele>
        <time>2010-05-15T11:06:24Z</time>
      </trkpt>
      <trkpt lat="48.58056" lon="1.79736">
        <ele>150</ele>
        <time>2010-05-15T11:06:25Z</time>
      </trkpt>
      <trkpt lat="48.58056" lon="1.79734">
        <ele>150</ele>
        <time>2010-05-15T11:06:26Z</time>
      </trkpt>
      <trkpt lat="48.58056" lon="1.79732">
        <ele>150</ele>
        <time>2010-05-15T11:06:27Z</time>
      </trkpt>
      <trkpt lat="48.58056" lon="1.79729">
        <ele>150</ele>
        <time>2010-05-15T11:06:28Z</time>
      </trkpt>
      <trkpt lat="48.58055" lon="1.79727">
        <ele>150</ele>
        <time>2010-05-15T11:06:29Z</time>
      </trkpt>
      <trkpt lat="48.58055" lon="1.79725">
        <ele>150</ele>
        <time>2010-05-15T11:06:30Z</time>
      </trkpt>
      <trkpt lat="48.58055" lon="1.79722">
        <ele>150</ele>
        <time>2010-05-15T11:06:31Z</time>
      </trkpt>
      <trkpt lat="48.58055" lon="1.7972">
        <ele>150</ele>
        <time>2010-05-15T11:06:32Z</time>
      </trkpt>
      <trkpt lat="48.58054" lon="1.79718">
        <ele>150</ele>
        <time>2010-05-15T11:06:33Z</time>
      </trkpt>
      <trkpt lat="48.58054" lon="1.79716">
        <ele>150</ele>
        <time>2010-05-15T11:06:34Z</time>
      </trkpt>
      <trkpt lat="48.58054" lon="1.79714">
        <ele>150</ele>
        <time>2010-05-15T11:06:35Z</time>
      </trkpt>
      <trkpt lat="48.58054" lon="1.79711">
        <ele>150</ele>
        <time>2010-05-15T11:06:36Z</time>
      </trkpt>
      <trkpt lat="48.58054" lon="1.79709">
        <ele>150</ele>
        <time>2010-05-15T11:06:37Z</time>
      </trkpt>
      <trkpt lat="48.58053" lon="1.79707">
        <ele>150</ele>
        <time>2010-05-15T11:06:38Z</time>
      </trkpt>
      <trkpt lat="48.58053" lon="1.79705">
        <ele>150</ele>
        <time>2010-05-15T11:06:39Z</time>
      </trkpt>
      <trkpt lat="48.58053" lon="1.79703">
        <ele>150</ele>
        <time>2010-05-15T11:06:40Z</time>
      </trkpt>
      <trkpt lat="48.58053" lon="1.79701">
        <ele>150</ele>
        <time>2010-05-15T11:06:41Z</time>
      </trkpt>
      <trkpt lat="48.58053" lon="1.79699">
        <ele>150</ele>
        <time>2010-05-15T11:06:42Z</time>
      </trkpt>
      <trkpt lat="48.58053" lon="1.79697">
        <ele>150</ele>
        <time>2010-05-15T11:06:43Z</time>
      </trkpt>
      <trkpt lat="48.58052" lon="1.79696">
        <ele>150</ele>
        <time>2010-05-15T11:06:44Z</time>
      </trkpt>
      <trkpt lat="48.58052" lon="1.79694">
        <ele>150</ele>
        <time>2010-05-15T11:06:45Z</time>
      </trkpt>
      <trkpt lat="48.58052" lon="1.79691">
        <ele>150</ele>
        <time>2010-05-15T11:06:47Z</time>
      </trkpt>
      <trkpt lat="48.58052" lon="1.79689">
        <ele>150</ele>
        <time>2010-05-15T11:06:52Z</time>
      </trkpt>
      <trkpt lat="48.58052" lon="1.79688">
        <ele>150</ele>
        <time>2010-05-15T11:06:58Z</time>
      </trkpt>
      <trkpt lat="48.58051" lon="1.79685">
        <ele>150</ele>
        <time>2010-05-15T11:07:00Z</time>
      </trkpt>
      <trkpt lat="48.5805" lon="1.79683">
        <ele>150</ele>
        <time>2010-05-15T11:07:01Z</time>
      </trkpt>
      <trkpt lat="48.5805" lon="1.79681">
        <ele>150</ele>
        <time>2010-05-15T11:07:02Z</time>
      </trkpt>
      <trkpt lat="48.58049" lon="1.79679">
        <ele>150</ele>
        <time>2010-05-15T11:07:03Z</time>
      </trkpt>
      <trkpt lat="48.58049" lon="1.79677">
        <ele>150</ele>
        <time>2010-05-15T11:07:04Z</time>
      </trkpt>
      <trkpt lat="48.58049" lon="1.79679">
        <ele>150</ele>
        <time>2010-05-15T11:07:39Z</time>
      </trkpt>
      <trkpt lat="48.5805" lon="1.79678">
        <ele>150</ele>
        <time>2010-05-15T11:07:45Z</time>
      </trkpt>
      <trkpt lat="48.58055" lon="1.79794">
        <ele>151</ele>
        <time>2010-05-15T11:07:51Z</time>
      </trkpt>
      <trkpt lat="48.58053" lon="1.79796">
        <ele>151</ele>
        <time>2010-05-15T11:07:53Z</time>
      </trkpt>
      <trkpt lat="48.58052" lon="1.79796">
        <ele>151</ele>
        <time>2010-05-15T11:07:54Z</time>
      </trkpt>
      <trkpt lat="48.5805" lon="1.79797">
        <ele>151</ele>
        <time>2010-05-15T11:07:56Z</time>
      </trkpt>
      <trkpt lat="48.58049" lon="1.79798">
        <ele>151</ele>
        <time>2010-05-15T11:07:57Z</time>
      </trkpt>
      <trkpt lat="48.58046" lon="1.79799">
        <ele>151</ele>
        <time>2010-05-15T11:07:59Z</time>
      </trkpt>
      <trkpt lat="48.58045" lon="1.79801">
        <ele>151</ele>
        <time>2010-05-15T11:08:01Z</time>
      </trkpt>
      <trkpt lat="48.58043" lon="1.79801">
        <ele>151</ele>
        <time>2010-05-15T11:08:03Z</time>
      </trkpt>
      <trkpt lat="48.58042" lon="1.79802">
        <ele>151</ele>
        <time>2010-05-15T11:08:04Z</time>
      </trkpt>
      <trkpt lat="48.58041" lon="1.79802">
        <ele>151</ele>
        <time>2010-05-15T11:08:05Z</time>
      </trkpt>
      <trkpt lat="48.58039" lon="1.79802">
        <ele>151</ele>
        <time>2010-05-15T11:08:06Z</time>
      </trkpt>
      <trkpt lat="48.58038" lon="1.79803">
        <ele>151</ele>
        <time>2010-05-15T11:08:07Z</time>
      </trkpt>
      <trkpt lat="48.58036" lon="1.79804">
        <ele>151</ele>
        <time>2010-05-15T11:08:09Z</time>
      </trkpt>
      <trkpt lat="48.58035" lon="1.79804">
        <ele>151</ele>
        <time>2010-05-15T11:08:10Z</time>
      </trkpt>
      <trkpt lat="48.58033" lon="1.79806">
        <ele>151</ele>
        <time>2010-05-15T11:08:12Z</time>
      </trkpt>
      <trkpt lat="48.58032" lon="1.79806">
        <ele>151</ele>
        <time>2010-05-15T11:08:13Z</time>
      </trkpt>
      <trkpt lat="48.5803" lon="1.79806">
        <ele>151</ele>
        <time>2010-05-15T11:08:14Z</time>
      </trkpt>
      <trkpt lat="48.58029" lon="1.79808">
        <ele>151</ele>
        <time>2010-05-15T11:08:16Z</time>
      </trkpt>
      <trkpt lat="48.58027" lon="1.79809">
        <ele>151</ele>
        <time>2010-05-15T11:08:18Z</time>
      </trkpt>
      <trkpt lat="48.58025" lon="1.7981">
        <ele>151</ele>
        <time>2010-05-15T11:08:20Z</time>
      </trkpt>
      <trkpt lat="48.58023" lon="1.79811">
        <ele>151</ele>
        <time>2010-05-15T11:08:22Z</time>
      </trkpt>
      <trkpt lat="48.58021" lon="1.79811">
        <ele>151</ele>
        <time>2010-05-15T11:08:23Z</time>
      </trkpt>
      <trkpt lat="48.5802" lon="1.79813">
        <ele>151</ele>
        <time>2010-05-15T11:08:24Z</time>
      </trkpt>
      <trkpt lat="48.58019" lon="1.79813">
        <ele>151</ele>
        <time>2010-05-15T11:08:25Z</time>
      </trkpt>
      <trkpt lat="48.58017" lon="1.79814">
        <ele>151</ele>
        <time>2010-05-15T11:08:27Z</time>
      </trkpt>
      <trkpt lat="48.58015" lon="1.79816">
        <ele>151</ele>
        <time>2010-05-15T11:08:29Z</time>
      </trkpt>
      <trkpt lat="48.58013" lon="1.79817">
        <ele>151</ele>
        <time>2010-05-15T11:08:30Z</time>
      </trkpt>
      <trkpt lat="48.58011" lon="1.79818">
        <ele>151</ele>
        <time>2010-05-15T11:08:32Z</time>
      </trkpt>
      <trkpt lat="48.58009" lon="1.79819">
        <ele>151</ele>
        <time>2010-05-15T11:08:34Z</time>
      </trkpt>
      <trkpt lat="48.58007" lon="1.7982">
        <ele>151</ele>
        <time>2010-05-15T11:08:35Z</time>
      </trkpt>
      <trkpt lat="48.58006" lon="1.7982">
        <ele>151</ele>
        <time>2010-05-15T11:08:36Z</time>
      </trkpt>
      <trkpt lat="48.58005" lon="1.79821">
        <ele>151</ele>
        <time>2010-05-15T11:08:37Z</time>
      </trkpt>
      <trkpt lat="48.58004" lon="1.79822">
        <ele>151</ele>
        <time>2010-05-15T11:08:38Z</time>
      </trkpt>
      <trkpt lat="48.58001" lon="1.79823">
        <ele>151</ele>
        <time>2010-05-15T11:08:40Z</time>
      </trkpt>
      <trkpt lat="48.57999" lon="1.79825">
        <ele>151</ele>
        <time>2010-05-15T11:08:42Z</time>
      </trkpt>
      <trkpt lat="48.57997" lon="1.79826">
        <ele>151</ele>
        <time>2010-05-15T11:08:44Z</time>
      </trkpt>
      <trkpt lat="48.57995" lon="1.79827">
        <ele>151</ele>
        <time>2010-05-15T11:08:46Z</time>
      </trkpt>
      <trkpt lat="48.57994" lon="1.79828">
        <ele>151</ele>
        <time>2010-05-15T11:08:47Z</time>
      </trkpt>
      <trkpt lat="48.57992" lon="1.79829">
        <ele>151</ele>
        <time>2010-05-15T11:08:49Z</time>
      </trkpt>
      <trkpt lat="48.5799" lon="1.7983">
        <ele>151</ele>
        <time>2010-05-15T11:08:51Z</time>
      </trkpt>
      <trkpt lat="48.57989" lon="1.79831">
        <ele>151</ele>
        <time>2010-05-15T11:08:52Z</time>
      </trkpt>
      <trkpt lat="48.57987" lon="1.79831">
        <ele>151</ele>
        <time>2010-05-15T11:08:53Z</time>
      </trkpt>
      <trkpt lat="48.57985" lon="1.79832">
        <ele>151</ele>
        <time>2010-05-15T11:08:55Z</time>
      </trkpt>
      <trkpt lat="48.57983" lon="1.79834">
        <ele>151</ele>
        <time>2010-05-15T11:08:57Z</time>
      </trkpt>
      <trkpt lat="48.57981" lon="1.79835">
        <ele>151</ele>
        <time>2010-05-15T11:08:59Z</time>
      </trkpt>
      <trkpt lat="48.5798" lon="1.79836">
        <ele>151</ele>
        <time>2010-05-15T11:09:00Z</time>
      </trkpt>
      <trkpt lat="48.57979" lon="1.79836">
        <ele>151</ele>
        <time>2010-05-15T11:09:01Z</time>
      </trkpt>
      <trkpt lat="48.57978" lon="1.79837">
        <ele>151</ele>
        <time>2010-05-15T11:09:02Z</time>
      </trkpt>
      <trkpt lat="48.57975" lon="1.79838">
        <ele>151</ele>
        <time>2010-05-15T11:09:04Z</time>
      </trkpt>
      <trkpt lat="48.57974" lon="1.79839">
        <ele>151</ele>
        <time>2010-05-15T11:09:05Z</time>
      </trkpt>
      <trkpt lat="48.57973" lon="1.7984">
        <ele>151</ele>
        <time>2010-05-15T11:09:06Z</time>
      </trkpt>
      <trkpt lat="48.57972" lon="1.7984">
        <ele>151</ele>
        <time>2010-05-15T11:09:07Z</time>
      </trkpt>
      <trkpt lat="48.57971" lon="1.79841">
        <ele>151</ele>
        <time>2010-05-15T11:09:08Z</time>
      </trkpt>
      <trkpt lat="48.57969" lon="1.79842">
        <ele>151</ele>
        <time>2010-05-15T11:09:09Z</time>
      </trkpt>
      <trkpt lat="48.57968" lon="1.79842">
        <ele>151</ele>
        <time>2010-05-15T11:09:10Z</time>
      </trkpt>
      <trkpt lat="48.57967" lon="1.79843">
        <ele>151</ele>
        <time>2010-05-15T11:09:11Z</time>
      </trkpt>
      <trkpt lat="48.57966" lon="1.79844">
        <ele>151</ele>
        <time>2010-05-15T11:09:12Z</time>
      </trkpt>
      <trkpt lat="48.57965" lon="1.79844">
        <ele>151</ele>
        <time>2010-05-15T11:09:13Z</time>
      </trkpt>
      <trkpt lat="48.57963" lon="1.79845">
        <ele>151</ele>
        <time>2010-05-15T11:09:14Z</time>
      </trkpt>
      <trkpt lat="48.57962" lon="1.79846">
        <ele>151</ele>
        <time>2010-05-15T11:09:15Z</time>
      </trkpt>
      <trkpt lat="48.5796" lon="1.79847">
        <ele>151</ele>
        <time>2010-05-15T11:09:17Z</time>
      </trkpt>
      <trkpt lat="48.57959" lon="1.79848">
        <ele>151</ele>
        <time>2010-05-15T11:09:18Z</time>
      </trkpt>
      <trkpt lat="48.57957" lon="1.79848">
        <ele>151</ele>
        <time>2010-05-15T11:09:19Z</time>
      </trkpt>
      <trkpt lat="48.57955" lon="1.7985">
        <ele>151</ele>
        <time>2010-05-15T11:09:21Z</time>
      </trkpt>
      <trkpt lat="48.57954" lon="1.7985">
        <ele>151</ele>
        <time>2010-05-15T11:09:22Z</time>
      </trkpt>
      <trkpt lat="48.57952" lon="1.79851">
        <ele>151</ele>
        <time>2010-05-15T11:09:24Z</time>
      </trkpt>
      <trkpt lat="48.5795" lon="1.79853">
        <ele>151</ele>
        <time>2010-05-15T11:09:26Z</time>
      </trkpt>
      <trkpt lat="48.57948" lon="1.79854">
        <ele>151</ele>
        <time>2010-05-15T11:09:28Z</time>
      </trkpt>
      <trkpt lat="48.57946" lon="1.79856">
        <ele>151</ele>
        <time>2010-05-15T11:09:30Z</time>
      </trkpt>
      <trkpt lat="48.57944" lon="1.79857">
        <ele>151</ele>
        <time>2010-05-15T11:09:32Z</time>
      </trkpt>
      <trkpt lat="48.57942" lon="1.79857">
        <ele>151</ele>
        <time>2010-05-15T11:09:34Z</time>
      </trkpt>
      <trkpt lat="48.5794" lon="1.79858">
        <ele>151</ele>
        <time>2010-05-15T11:09:36Z</time>
      </trkpt>
      <trkpt lat="48.57939" lon="1.7986">
        <ele>151</ele>
        <time>2010-05-15T11:09:38Z</time>
      </trkpt>
      <trkpt lat="48.57939" lon="1.79858">
        <ele>151</ele>
        <time>2010-05-15T11:09:48Z</time>
      </trkpt>
      <trkpt lat="48.57939" lon="1.7986">
        <ele>151</ele>
        <time>2010-05-15T11:09:54Z</time>
      </trkpt>
      <trkpt lat="48.57941" lon="1.79859">
        <ele>153</ele>
        <time>2010-05-15T11:10:17Z</time>
      </trkpt>
      <trkpt lat="48.57939" lon="1.79858">
        <ele>153</ele>
        <time>2010-05-15T11:10:24Z</time>
      </trkpt>
      <trkpt lat="48.57938" lon="1.79858">
        <ele>154</ele>
        <time>2010-05-15T11:10:32Z</time>
      </trkpt>
      <trkpt lat="48.57937" lon="1.79859">
        <ele>154</ele>
        <time>2010-05-15T11:10:46Z</time>
      </trkpt>
      <trkpt lat="48.57936" lon="1.7986">
        <ele>154</ele>
        <time>2010-05-15T11:10:47Z</time>
      </trkpt>
      <trkpt lat="48.57933" lon="1.79861">
        <ele>154</ele>
        <time>2010-05-15T11:10:49Z</time>
      </trkpt>
      <trkpt lat="48.57932" lon="1.79862">
        <ele>154</ele>
        <time>2010-05-15T11:10:50Z</time>
      </trkpt>
      <trkpt lat="48.5793" lon="1.79863">
        <ele>154</ele>
        <time>2010-05-15T11:10:52Z</time>
      </trkpt>
      <trkpt lat="48.57928" lon="1.79865">
        <ele>154</ele>
        <time>2010-05-15T11:10:54Z</time>
      </trkpt>
      <trkpt lat="48.57927" lon="1.79865">
        <ele>154</ele>
        <time>2010-05-15T11:10:55Z</time>
      </trkpt>
      <trkpt lat="48.57924" lon="1.79867">
        <ele>154</ele>
        <time>2010-05-15T11:10:57Z</time>
      </trkpt>
      <trkpt lat="48.57923" lon="1.79867">
        <ele>154</ele>
        <time>2010-05-15T11:10:58Z</time>
      </trkpt>
      <trkpt lat="48.57922" lon="1.79868">
        <ele>154</ele>
        <time>2010-05-15T11:10:59Z</time>
      </trkpt>
      <trkpt lat="48.57921" lon="1.79869">
        <ele>154</ele>
        <time>2010-05-15T11:11:00Z</time>
      </trkpt>
      <trkpt lat="48.57919" lon="1.7987">
        <ele>154</ele>
        <time>2010-05-15T11:11:01Z</time>
      </trkpt>
      <trkpt lat="48.57918" lon="1.7987">
        <ele>154</ele>
        <time>2010-05-15T11:11:02Z</time>
      </trkpt>
      <trkpt lat="48.57917" lon="1.79871">
        <ele>154</ele>
        <time>2010-05-15T11:11:03Z</time>
      </trkpt>
      <trkpt lat="48.57915" lon="1.79872">
        <ele>154</ele>
        <time>2010-05-15T11:11:04Z</time>
      </trkpt>
      <trkpt lat="48.57914" lon="1.79873">
        <ele>154</ele>
        <time>2010-05-15T11:11:05Z</time>
      </trkpt>
      <trkpt lat="48.57912" lon="1.79873">
        <ele>154</ele>
        <time>2010-05-15T11:11:06Z</time>
      </trkpt>
      <trkpt lat="48.57911" lon="1.79874">
        <ele>154</ele>
        <time>2010-05-15T11:11:07Z</time>
      </trkpt>
      <trkpt lat="48.5791" lon="1.79875">
        <ele>154</ele>
        <time>2010-05-15T11:11:08Z</time>
      </trkpt>
      <trkpt lat="48.57909" lon="1.79876">
        <ele>154</ele>
        <time>2010-05-15T11:11:09Z</time>
      </trkpt>
      <trkpt lat="48.57907" lon="1.79876">
        <ele>154</ele>
        <time>2010-05-15T11:11:10Z</time>
      </trkpt>
      <trkpt lat="48.57906" lon="1.79877">
        <ele>154</ele>
        <time>2010-05-15T11:11:11Z</time>
      </trkpt>
      <trkpt lat="48.57905" lon="1.79878">
        <ele>154</ele>
        <time>2010-05-15T11:11:12Z</time>
      </trkpt>
      <trkpt lat="48.57904" lon="1.79879">
        <ele>154</ele>
        <time>2010-05-15T11:11:13Z</time>
      </trkpt>
      <trkpt lat="48.57903" lon="1.7988">
        <ele>154</ele>
        <time>2010-05-15T11:11:14Z</time>
      </trkpt>
      <trkpt lat="48.57901" lon="1.7988">
        <ele>154</ele>
        <time>2010-05-15T11:11:15Z</time>
      </trkpt>
      <trkpt lat="48.579" lon="1.79881">
        <ele>154</ele>
        <time>2010-05-15T11:11:16Z</time>
      </trkpt>
      <trkpt lat="48.57898" lon="1.79883">
        <ele>154</ele>
        <time>2010-05-15T11:11:18Z</time>
      </trkpt>
      <trkpt lat="48.57897" lon="1.79883">
        <ele>154</ele>
        <time>2010-05-15T11:11:19Z</time>
      </trkpt>
      <trkpt lat="48.57895" lon="1.79884">
        <ele>154</ele>
        <time>2010-05-15T11:11:20Z</time>
      </trkpt>
      <trkpt lat="48.57893" lon="1.79885">
        <ele>154</ele>
        <time>2010-05-15T11:11:21Z</time>
      </trkpt>
      <trkpt lat="48.57891" lon="1.79886">
        <ele>154</ele>
        <time>2010-05-15T11:11:22Z</time>
      </trkpt>
      <trkpt lat="48.5789" lon="1.79887">
        <ele>154</ele>
        <time>2010-05-15T11:11:23Z</time>
      </trkpt>
      <trkpt lat="48.57888" lon="1.79888">
        <ele>154</ele>
        <time>2010-05-15T11:11:24Z</time>
      </trkpt>
      <trkpt lat="48.57887" lon="1.79888">
        <ele>154</ele>
        <time>2010-05-15T11:11:25Z</time>
      </trkpt>
      <trkpt lat="48.57885" lon="1.79889">
        <ele>154</ele>
        <time>2010-05-15T11:11:26Z</time>
      </trkpt>
      <trkpt lat="48.57884" lon="1.79889">
        <ele>154</ele>
        <time>2010-05-15T11:11:27Z</time>
      </trkpt>
      <trkpt lat="48.57883" lon="1.7989">
        <ele>154</ele>
        <time>2010-05-15T11:11:28Z</time>
      </trkpt>
      <trkpt lat="48.57881" lon="1.7989">
        <ele>154</ele>
        <time>2010-05-15T11:11:29Z</time>
      </trkpt>
      <trkpt lat="48.5788" lon="1.7989">
        <ele>154</ele>
        <time>2010-05-15T11:11:30Z</time>
      </trkpt>
      <trkpt lat="48.57879" lon="1.7989">
        <ele>154</ele>
        <time>2010-05-15T11:11:31Z</time>
      </trkpt>
      <trkpt lat="48.57877" lon="1.7989">
        <ele>154</ele>
        <time>2010-05-15T11:11:32Z</time>
      </trkpt>
      <trkpt lat="48.57876" lon="1.79889">
        <ele>154</ele>
        <time>2010-05-15T11:11:33Z</time>
      </trkpt>
      <trkpt lat="48.57875" lon="1.79888">
        <ele>154</ele>
        <time>2010-05-15T11:11:34Z</time>
      </trkpt>
      <trkpt lat="48.57873" lon="1.79887">
        <ele>154</ele>
        <time>2010-05-15T11:11:35Z</time>
      </trkpt>
      <trkpt lat="48.57872" lon="1.79886">
        <ele>154</ele>
        <time>2010-05-15T11:11:36Z</time>
      </trkpt>
      <trkpt lat="48.57871" lon="1.79885">
        <ele>154</ele>
        <time>2010-05-15T11:11:37Z</time>
      </trkpt>
      <trkpt lat="48.57869" lon="1.79885">
        <ele>154</ele>
        <time>2010-05-15T11:11:38Z</time>
      </trkpt>
      <trkpt lat="48.57868" lon="1.79884">
        <ele>154</ele>
        <time>2010-05-15T11:11:39Z</time>
      </trkpt>
      <trkpt lat="48.57867" lon="1.79883">
        <ele>154</ele>
        <time>2010-05-15T11:11:40Z</time>
      </trkpt>
      <trkpt lat="48.57866" lon="1.79882">
        <ele>154</ele>
        <time>2010-05-15T11:11:41Z</time>
      </trkpt>
      <trkpt lat="48.57865" lon="1.79881">
        <ele>154</ele>
        <time>2010-05-15T11:11:42Z</time>
      </trkpt>
      <trkpt lat="48.57863" lon="1.7988">
        <ele>154</ele>
        <time>2010-05-15T11:11:43Z</time>
      </trkpt>
      <trkpt lat="48.57862" lon="1.79879">
        <ele>154</ele>
        <time>2010-05-15T11:11:44Z</time>
      </trkpt>
      <trkpt lat="48.5786" lon="1.79877">
        <ele>154</ele>
        <time>2010-05-15T11:11:46Z</time>
      </trkpt>
      <trkpt lat="48.57859" lon="1.79875">
        <ele>154</ele>
        <time>2010-05-15T11:11:47Z</time>
      </trkpt>
      <trkpt lat="48.57857" lon="1.79874">
        <ele>154</ele>
        <time>2010-05-15T11:11:48Z</time>
      </trkpt>
      <trkpt lat="48.57856" lon="1.79873">
        <ele>154</ele>
        <time>2010-05-15T11:11:49Z</time>
      </trkpt>
      <trkpt lat="48.57854" lon="1.79873">
        <ele>154</ele>
        <time>2010-05-15T11:11:50Z</time>
      </trkpt>
      <trkpt lat="48.57852" lon="1.79872">
        <ele>154</ele>
        <time>2010-05-15T11:11:51Z</time>
      </trkpt>
      <trkpt lat="48.57851" lon="1.79872">
        <ele>154</ele>
        <time>2010-05-15T11:11:52Z</time>
      </trkpt>
      <trkpt lat="48.57849" lon="1.79873">
        <ele>154</ele>
        <time>2010-05-15T11:11:53Z</time>
      </trkpt>
      <trkpt lat="48.57847" lon="1.79873">
        <ele>154</ele>
        <time>2010-05-15T11:11:54Z</time>
      </trkpt>
      <trkpt lat="48.57846" lon="1.79874">
        <ele>154</ele>
        <time>2010-05-15T11:11:55Z</time>
      </trkpt>
      <trkpt lat="48.57844" lon="1.79875">
        <ele>154</ele>
        <time>2010-05-15T11:11:56Z</time>
      </trkpt>
      <trkpt lat="48.57843" lon="1.79878">
        <ele>154</ele>
        <time>2010-05-15T11:11:58Z</time>
      </trkpt>
      <trkpt lat="48.57842" lon="1.79881">
        <ele>154</ele>
        <time>2010-05-15T11:11:59Z</time>
      </trkpt>
      <trkpt lat="48.57842" lon="1.79883">
        <ele>154</ele>
        <time>2010-05-15T11:12:00Z</time>
      </trkpt>
      <trkpt lat="48.57842" lon="1.79885">
        <ele>154</ele>
        <time>2010-05-15T11:12:01Z</time>
      </trkpt>
      <trkpt lat="48.57841" lon="1.79888">
        <ele>154</ele>
        <time>2010-05-15T11:12:02Z</time>
      </trkpt>
      <trkpt lat="48.57841" lon="1.7989">
        <ele>154</ele>
        <time>2010-05-15T11:12:03Z</time>
      </trkpt>
      <trkpt lat="48.57842" lon="1.79892">
        <ele>154</ele>
        <time>2010-05-15T11:12:04Z</time>
      </trkpt>
      <trkpt lat="48.57842" lon="1.79895">
        <ele>154</ele>
        <time>2010-05-15T11:12:05Z</time>
      </trkpt>
      <trkpt lat="48.57842" lon="1.79897">
        <ele>154</ele>
        <time>2010-05-15T11:12:06Z</time>
      </trkpt>
      <trkpt lat="48.57842" lon="1.799">
        <ele>154</ele>
        <time>2010-05-15T11:12:07Z</time>
      </trkpt>
      <trkpt lat="48.57843" lon="1.79903">
        <ele>154</ele>
        <time>2010-05-15T11:12:08Z</time>
      </trkpt>
      <trkpt lat="48.57843" lon="1.79905">
        <ele>154</ele>
        <time>2010-05-15T11:12:09Z</time>
      </trkpt>
      <trkpt lat="48.57843" lon="1.79908">
        <ele>154</ele>
        <time>2010-05-15T11:12:10Z</time>
      </trkpt>
      <trkpt lat="48.57843" lon="1.7991">
        <ele>154</ele>
        <time>2010-05-15T11:12:11Z</time>
      </trkpt>
      <trkpt lat="48.57844" lon="1.79913">
        <ele>154</ele>
        <time>2010-05-15T11:12:12Z</time>
      </trkpt>
      <trkpt lat="48.57844" lon="1.79915">
        <ele>154</ele>
        <time>2010-05-15T11:12:13Z</time>
      </trkpt>
      <trkpt lat="48.57844" lon="1.79918">
        <ele>154</ele>
        <time>2010-05-15T11:12:14Z</time>
      </trkpt>
      <trkpt lat="48.57844" lon="1.7992">
        <ele>154</ele>
        <time>2010-05-15T11:12:15Z</time>
      </trkpt>
      <trkpt lat="48.57844" lon="1.79923">
        <ele>154</ele>
        <time>2010-05-15T11:12:16Z</time>
      </trkpt>
      <trkpt lat="48.57845" lon="1.79925">
        <ele>154</ele>
        <time>2010-05-15T11:12:17Z</time>
      </trkpt>
      <trkpt lat="48.57845" lon="1.79927">
        <ele>154</ele>
        <time>2010-05-15T11:12:18Z</time>
      </trkpt>
      <trkpt lat="48.57845" lon="1.79929">
        <ele>154</ele>
        <time>2010-05-15T11:12:19Z</time>
      </trkpt>
      <trkpt lat="48.57845" lon="1.79931">
        <ele>154</ele>
        <time>2010-05-15T11:12:20Z</time>
      </trkpt>
      <trkpt lat="48.57846" lon="1.79934">
        <ele>154</ele>
        <time>2010-05-15T11:12:21Z</time>
      </trkpt>
      <trkpt lat="48.57846" lon="1.79936">
        <ele>154</ele>
        <time>2010-05-15T11:12:22Z</time>
      </trkpt>
      <trkpt lat="48.57846" lon="1.79938">
        <ele>154</ele>
        <time>2010-05-15T11:12:23Z</time>
      </trkpt>
      <trkpt lat="48.57846" lon="1.79941">
        <ele>154</ele>
        <time>2010-05-15T11:12:24Z</time>
      </trkpt>
      <trkpt lat="48.57847" lon="1.79943">
        <ele>154</ele>
        <time>2010-05-15T11:12:25Z</time>
      </trkpt>
      <trkpt lat="48.57847" lon="1.79945">
        <ele>154</ele>
        <time>2010-05-15T11:12:26Z</time>
      </trkpt>
      <trkpt lat="48.57847" lon="1.79948">
        <ele>154</ele>
        <time>2010-05-15T11:12:27Z</time>
      </trkpt>
      <trkpt lat="48.57847" lon="1.79951">
        <ele>154</ele>
        <time>2010-05-15T11:12:28Z</time>
      </trkpt>
      <trkpt lat="48.57848" lon="1.79954">
        <ele>154</ele>
        <time>2010-05-15T11:12:29Z</time>
      </trkpt>
      <trkpt lat="48.57848" lon="1.79956">
        <ele>154</ele>
        <time>2010-05-15T11:12:30Z</time>
      </trkpt>
      <trkpt lat="48.57848" lon="1.79959">
        <ele>154</ele>
        <time>2010-05-15T11:12:31Z</time>
      </trkpt>
      <trkpt lat="48.57848" lon="1.79961">
        <ele>154</ele>
        <time>2010-05-15T11:12:32Z</time>
      </trkpt>
      <trkpt lat="48.57848" lon="1.79964">
        <ele>154</ele>
        <time>2010-05-15T11:12:33Z</time>
      </trkpt>
      <trkpt lat="48.57848" lon="1.79966">
        <ele>154</ele>
        <time>2010-05-15T11:12:34Z</time>
      </trkpt>
      <trkpt lat="48.57848" lon="1.79969">
        <ele>154</ele>
        <time>2010-05-15T11:12:35Z</time>
      </trkpt>
      <trkpt lat="48.57849" lon="1.79971">
        <ele>154</ele>
        <time>2010-05-15T11:12:36Z</time>
      </trkpt>
      <trkpt lat="48.57849" lon="1.79973">
        <ele>154</ele>
        <time>2010-05-15T11:12:37Z</time>
      </trkpt>
      <trkpt lat="48.57849" lon="1.79976">
        <ele>154</ele>
        <time>2010-05-15T11:12:38Z</time>
      </trkpt>
      <trkpt lat="48.57849" lon="1.79978">
        <ele>154</ele>
        <time>2010-05-15T11:12:39Z</time>
      </trkpt>
      <trkpt lat="48.57849" lon="1.7998">
        <ele>154</ele>
        <time>2010-05-15T11:12:40Z</time>
      </trkpt>
      <trkpt lat="48.57849" lon="1.79982">
        <ele>154</ele>
        <time>2010-05-15T11:12:41Z</time>
      </trkpt>
      <trkpt lat="48.5785" lon="1.79984">
        <ele>154</ele>
        <time>2010-05-15T11:12:42Z</time>
      </trkpt>
      <trkpt lat="48.5785" lon="1.79987">
        <ele>154</ele>
        <time>2010-05-15T11:12:43Z</time>
      </trkpt>
      <trkpt lat="48.5785" lon="1.79989">
        <ele>154</ele>
        <time>2010-05-15T11:12:44Z</time>
      </trkpt>
      <trkpt lat="48.5785" lon="1.79992">
        <ele>154</ele>
        <time>2010-05-15T11:12:45Z</time>
      </trkpt>
      <trkpt lat="48.5785" lon="1.79994">
        <ele>154</ele>
        <time>2010-05-15T11:12:46Z</time>
      </trkpt>
      <trkpt lat="48.57851" lon="1.79997">
        <ele>154</ele>
        <time>2010-05-15T11:12:47Z</time>
      </trkpt>
      <trkpt lat="48.57851" lon="1.79999">
        <ele>154</ele>
        <time>2010-05-15T11:12:48Z</time>
      </trkpt>
      <trkpt lat="48.57851" lon="1.80002">
        <ele>154</ele>
        <time>2010-05-15T11:12:49Z</time>
      </trkpt>
      <trkpt lat="48.57851" lon="1.80004">
        <ele>154</ele>
        <time>2010-05-15T11:12:50Z</time>
      </trkpt>
      <trkpt lat="48.57851" lon="1.80006">
        <ele>154</ele>
        <time>2010-05-15T11:12:51Z</time>
      </trkpt>
      <trkpt lat="48.57852" lon="1.80008">
        <ele>154</ele>
        <time>2010-05-15T11:12:52Z</time>
      </trkpt>
      <trkpt lat="48.57852" lon="1.8001">
        <ele>154</ele>
        <time>2010-05-15T11:12:53Z</time>
      </trkpt>
      <trkpt lat="48.57852" lon="1.80012">
        <ele>154</ele>
        <time>2010-05-15T11:12:54Z</time>
      </trkpt>
      <trkpt lat="48.57852" lon="1.80015">
        <ele>154</ele>
        <time>2010-05-15T11:12:55Z</time>
      </trkpt>
      <trkpt lat="48.57852" lon="1.80017">
        <ele>154</ele>
        <time>2010-05-15T11:12:56Z</time>
      </trkpt>
      <trkpt lat="48.57853" lon="1.8002">
        <ele>154</ele>
        <time>2010-05-15T11:12:57Z</time>
      </trkpt>
      <trkpt lat="48.57853" lon="1.80022">
        <ele>154</ele>
        <time>2010-05-15T11:12:58Z</time>
      </trkpt>
      <trkpt lat="48.57853" lon="1.80025">
        <ele>154</ele>
        <time>2010-05-15T11:12:59Z</time>
      </trkpt>
      <trkpt lat="48.57854" lon="1.80027">
        <ele>154</ele>
        <time>2010-05-15T11:13:00Z</time>
      </trkpt>
      <trkpt lat="48.57854" lon="1.80029">
        <ele>154</ele>
        <time>2010-05-15T11:13:01Z</time>
      </trkpt>
      <trkpt lat="48.57854" lon="1.80032">
        <ele>154</ele>
        <time>2010-05-15T11:13:02Z</time>
      </trkpt>
      <trkpt lat="48.57854" lon="1.80034">
        <ele>154</ele>
        <time>2010-05-15T11:13:03Z</time>
      </trkpt>
      <trkpt lat="48.57855" lon="1.80036">
        <ele>154</ele>
        <time>2010-05-15T11:13:04Z</time>
      </trkpt>
      <trkpt lat="48.57855" lon="1.80038">
        <ele>154</ele>
        <time>2010-05-15T11:13:05Z</time>
      </trkpt>
      <trkpt lat="48.57855" lon="1.80041">
        <ele>154</ele>
        <time>2010-05-15T11:13:06Z</time>
      </trkpt>
      <trkpt lat="48.57855" lon="1.80043">
        <ele>154</ele>
        <time>2010-05-15T11:13:07Z</time>
      </trkpt>
      <trkpt lat="48.57855" lon="1.80045">
        <ele>154</ele>
        <time>2010-05-15T11:13:08Z</time>
      </trkpt>
      <trkpt lat="48.57856" lon="1.80048">
        <ele>154</ele>
        <time>2010-05-15T11:13:09Z</time>
      </trkpt>
      <trkpt lat="48.57856" lon="1.8005">
        <ele>154</ele>
        <time>2010-05-15T11:13:10Z</time>
      </trkpt>
      <trkpt lat="48.57856" lon="1.80053">
        <ele>154</ele>
        <time>2010-05-15T11:13:11Z</time>
      </trkpt>
      <trkpt lat="48.57856" lon="1.80055">
        <ele>154</ele>
        <time>2010-05-15T11:13:12Z</time>
      </trkpt>
      <trkpt lat="48.57856" lon="1.80058">
        <ele>154</ele>
        <time>2010-05-15T11:13:13Z</time>
      </trkpt>
      <trkpt lat="48.57857" lon="1.80061">
        <ele>154</ele>
        <time>2010-05-15T11:13:14Z</time>
      </trkpt>
      <trkpt lat="48.57857" lon="1.80063">
        <ele>154</ele>
        <time>2010-05-15T11:13:15Z</time>
      </trkpt>
      <trkpt lat="48.57857" lon="1.80066">
        <ele>154</ele>
        <time>2010-05-15T11:13:16Z</time>
      </trkpt>
      <trkpt lat="48.57857" lon="1.80068">
        <ele>154</ele>
        <time>2010-05-15T11:13:17Z</time>
      </trkpt>
      <trkpt lat="48.57858" lon="1.8007">
        <ele>154</ele>
        <time>2010-05-15T11:13:18Z</time>
      </trkpt>
      <trkpt lat="48.57858" lon="1.80073">
        <ele>154</ele>
        <time>2010-05-15T11:13:19Z</time>
      </trkpt>
      <trkpt lat="48.57858" lon="1.80075">
        <ele>154</ele>
        <time>2010-05-15T11:13:20Z</time>
      </trkpt>
      <trkpt lat="48.57858" lon="1.80077">
        <ele>154</ele>
        <time>2010-05-15T11:13:21Z</time>
      </trkpt>
      <trkpt lat="48.57859" lon="1.80079">
        <ele>154</ele>
        <time>2010-05-15T11:13:22Z</time>
      </trkpt>
      <trkpt lat="48.57859" lon="1.80081">
        <ele>154</ele>
        <time>2010-05-15T11:13:23Z</time>
      </trkpt>
      <trkpt lat="48.57859" lon="1.80083">
        <ele>154</ele>
        <time>2010-05-15T11:13:24Z</time>
      </trkpt>
      <trkpt lat="48.57859" lon="1.80085">
        <ele>154</ele>
        <time>2010-05-15T11:13:25Z</time>
      </trkpt>
      <trkpt lat="48.57859" lon="1.80087">
        <ele>154</ele>
        <time>2010-05-15T11:13:26Z</time>
      </trkpt>
      <trkpt lat="48.5786" lon="1.80089">
        <ele>154</ele>
        <time>2010-05-15T11:13:27Z</time>
      </trkpt>
      <trkpt lat="48.5786" lon="1.80091">
        <ele>154</ele>
        <time>2010-05-15T11:13:28Z</time>
      </trkpt>
      <trkpt lat="48.5786" lon="1.80093">
        <ele>154</ele>
        <time>2010-05-15T11:13:29Z</time>
      </trkpt>
      <trkpt lat="48.5786" lon="1.80096">
        <ele>154</ele>
        <time>2010-05-15T11:13:30Z</time>
      </trkpt>
      <trkpt lat="48.5786" lon="1.80098">
        <ele>154</ele>
        <time>2010-05-15T11:13:31Z</time>
      </trkpt>
      <trkpt lat="48.57861" lon="1.801">
        <ele>154</ele>
        <time>2010-05-15T11:13:32Z</time>
      </trkpt>
      <trkpt lat="48.57861" lon="1.80102">
        <ele>154</ele>
        <time>2010-05-15T11:13:33Z</time>
      </trkpt>
      <trkpt lat="48.57861" lon="1.80104">
        <ele>154</ele>
        <time>2010-05-15T11:13:34Z</time>
      </trkpt>
      <trkpt lat="48.57861" lon="1.80106">
        <ele>154</ele>
        <time>2010-05-15T11:13:35Z</time>
      </trkpt>
      <trkpt lat="48.57862" lon="1.80109">
        <ele>154</ele>
        <time>2010-05-15T11:13:36Z</time>
      </trkpt>
      <trkpt lat="48.57862" lon="1.80112">
        <ele>154</ele>
        <time>2010-05-15T11:13:37Z</time>
      </trkpt>
      <trkpt lat="48.57862" lon="1.80117">
        <ele>154</ele>
        <time>2010-05-15T11:13:38Z</time>
      </trkpt>
      <trkpt lat="48.57863" lon="1.80121">
        <ele>154</ele>
        <time>2010-05-15T11:13:39Z</time>
      </trkpt>
      <trkpt lat="48.57863" lon="1.80126">
        <ele>154</ele>
        <time>2010-05-15T11:13:40Z</time>
      </trkpt>
      <trkpt lat="48.57863" lon="1.8013">
        <ele>154</ele>
        <time>2010-05-15T11:13:41Z</time>
      </trkpt>
      <trkpt lat="48.57864" lon="1.80133">
        <ele>154</ele>
        <time>2010-05-15T11:13:42Z</time>
      </trkpt>
      <trkpt lat="48.57864" lon="1.80136">
        <ele>154</ele>
        <time>2010-05-15T11:13:43Z</time>
      </trkpt>
      <trkpt lat="48.57864" lon="1.80139">
        <ele>154</ele>
        <time>2010-05-15T11:13:44Z</time>
      </trkpt>
      <trkpt lat="48.57864" lon="1.80142">
        <ele>154</ele>
        <time>2010-05-15T11:13:45Z</time>
      </trkpt>
      <trkpt lat="48.57865" lon="1.80144">
        <ele>154</ele>
        <time>2010-05-15T11:13:46Z</time>
      </trkpt>
      <trkpt lat="48.57865" lon="1.80147">
        <ele>154</ele>
        <time>2010-05-15T11:13:47Z</time>
      </trkpt>
      <trkpt lat="48.57865" lon="1.8015">
        <ele>154</ele>
        <time>2010-05-15T11:13:48Z</time>
      </trkpt>
      <trkpt lat="48.57865" lon="1.80152">
        <ele>154</ele>
        <time>2010-05-15T11:13:49Z</time>
      </trkpt>
      <trkpt lat="48.57865" lon="1.80154">
        <ele>154</ele>
        <time>2010-05-15T11:13:50Z</time>
      </trkpt>
      <trkpt lat="48.57865" lon="1.80157">
        <ele>154</ele>
        <time>2010-05-15T11:13:51Z</time>
      </trkpt>
      <trkpt lat="48.57865" lon="1.80159">
        <ele>154</ele>
        <time>2010-05-15T11:13:52Z</time>
      </trkpt>
      <trkpt lat="48.57866" lon="1.80161">
        <ele>154</ele>
        <time>2010-05-15T11:13:53Z</time>
      </trkpt>
      <trkpt lat="48.57866" lon="1.80163">
        <ele>154</ele>
        <time>2010-05-15T11:13:54Z</time>
      </trkpt>
      <trkpt lat="48.57866" lon="1.80165">
        <ele>154</ele>
        <time>2010-05-15T11:13:55Z</time>
      </trkpt>
      <trkpt lat="48.57866" lon="1.80167">
        <ele>154</ele>
        <time>2010-05-15T11:13:56Z</time>
      </trkpt>
      <trkpt lat="48.57866" lon="1.80169">
        <ele>154</ele>
        <time>2010-05-15T11:13:57Z</time>
      </trkpt>
      <trkpt lat="48.57866" lon="1.80171">
        <ele>154</ele>
        <time>2010-05-15T11:13:58Z</time>
      </trkpt>
      <trkpt lat="48.57866" lon="1.80174">
        <ele>154</ele>
        <time>2010-05-15T11:13:59Z</time>
      </trkpt>
      <trkpt lat="48.57867" lon="1.80176">
        <ele>154</ele>
        <time>2010-05-15T11:14:00Z</time>
      </trkpt>
      <trkpt lat="48.57867" lon="1.80178">
        <ele>154</ele>
        <time>2010-05-15T11:14:01Z</time>
      </trkpt>
      <trkpt lat="48.57867" lon="1.80181">
        <ele>154</ele>
        <time>2010-05-15T11:14:02Z</time>
      </trkpt>
      <trkpt lat="48.57867" lon="1.80185">
        <ele>154</ele>
        <time>2010-05-15T11:14:03Z</time>
      </trkpt>
      <trkpt lat="48.57867" lon="1.80188">
        <ele>154</ele>
        <time>2010-05-15T11:14:04Z</time>
      </trkpt>
      <trkpt lat="48.57868" lon="1.80191">
        <ele>154</ele>
        <time>2010-05-15T11:14:05Z</time>
      </trkpt>
      <trkpt lat="48.57868" lon="1.80194">
        <ele>154</ele>
        <time>2010-05-15T11:14:06Z</time>
      </trkpt>
      <trkpt lat="48.57868" lon="1.80197">
        <ele>154</ele>
        <time>2010-05-15T11:14:07Z</time>
      </trkpt>
      <trkpt lat="48.57868" lon="1.80199">
        <ele>154</ele>
        <time>2010-05-15T11:14:08Z</time>
      </trkpt>
      <trkpt lat="48.57868" lon="1.80202">
        <ele>154</ele>
        <time>2010-05-15T11:14:09Z</time>
      </trkpt>
      <trkpt lat="48.57868" lon="1.80205">
        <ele>154</ele>
        <time>2010-05-15T11:14:10Z</time>
      </trkpt>
      <trkpt lat="48.57869" lon="1.80207">
        <ele>154</ele>
        <time>2010-05-15T11:14:11Z</time>
      </trkpt>
      <trkpt lat="48.57869" lon="1.8021">
        <ele>154</ele>
        <time>2010-05-15T11:14:12Z</time>
      </trkpt>
      <trkpt lat="48.57869" lon="1.80213">
        <ele>154</ele>
        <time>2010-05-15T11:14:13Z</time>
      </trkpt>
      <trkpt lat="48.57869" lon="1.80215">
        <ele>154</ele>
        <time>2010-05-15T11:14:14Z</time>
      </trkpt>
      <trkpt lat="48.57869" lon="1.80218">
        <ele>154</ele>
        <time>2010-05-15T11:14:15Z</time>
      </trkpt>
      <trkpt lat="48.5787" lon="1.80221">
        <ele>154</ele>
        <time>2010-05-15T11:14:16Z</time>
      </trkpt>
      <trkpt lat="48.5787" lon="1.80223">
        <ele>154</ele>
        <time>2010-05-15T11:14:17Z</time>
      </trkpt>
      <trkpt lat="48.5787" lon="1.80226">
        <ele>154</ele>
        <time>2010-05-15T11:14:18Z</time>
      </trkpt>
      <trkpt lat="48.5787" lon="1.80228">
        <ele>154</ele>
        <time>2010-05-15T11:14:19Z</time>
      </trkpt>
      <trkpt lat="48.5787" lon="1.80231">
        <ele>154</ele>
        <time>2010-05-15T11:14:20Z</time>
      </trkpt>
      <trkpt lat="48.5787" lon="1.80233">
        <ele>154</ele>
        <time>2010-05-15T11:14:21Z</time>
      </trkpt>
      <trkpt lat="48.5787" lon="1.80235">
        <ele>154</ele>
        <time>2010-05-15T11:14:22Z</time>
      </trkpt>
      <trkpt lat="48.57871" lon="1.80238">
        <ele>154</ele>
        <time>2010-05-15T11:14:23Z</time>
      </trkpt>
      <trkpt lat="48.57871" lon="1.8024">
        <ele>154</ele>
        <time>2010-05-15T11:14:24Z</time>
      </trkpt>
      <trkpt lat="48.57871" lon="1.80242">
        <ele>154</ele>
        <time>2010-05-15T11:14:25Z</time>
      </trkpt>
      <trkpt lat="48.57871" lon="1.80244">
        <ele>154</ele>
        <time>2010-05-15T11:14:26Z</time>
      </trkpt>
      <trkpt lat="48.57871" lon="1.80246">
        <ele>154</ele>
        <time>2010-05-15T11:14:27Z</time>
      </trkpt>
      <trkpt lat="48.57871" lon="1.80248">
        <ele>154</ele>
        <time>2010-05-15T11:14:28Z</time>
      </trkpt>
      <trkpt lat="48.57871" lon="1.8025">
        <ele>154</ele>
        <time>2010-05-15T11:14:29Z</time>
      </trkpt>
      <trkpt lat="48.57872" lon="1.80252">
        <ele>154</ele>
        <time>2010-05-15T11:14:30Z</time>
      </trkpt>
      <trkpt lat="48.57872" lon="1.80254">
        <ele>154</ele>
        <time>2010-05-15T11:14:31Z</time>
      </trkpt>
      <trkpt lat="48.57872" lon="1.80256">
        <ele>154</ele>
        <time>2010-05-15T11:14:32Z</time>
      </trkpt>
      <trkpt lat="48.57872" lon="1.8026">
        <ele>154</ele>
        <time>2010-05-15T11:14:33Z</time>
      </trkpt>
      <trkpt lat="48.57872" lon="1.80264">
        <ele>154</ele>
        <time>2010-05-15T11:14:34Z</time>
      </trkpt>
      <trkpt lat="48.57872" lon="1.80268">
        <ele>154</ele>
        <time>2010-05-15T11:14:35Z</time>
      </trkpt>
      <trkpt lat="48.57873" lon="1.80271">
        <ele>154</ele>
        <time>2010-05-15T11:14:36Z</time>
      </trkpt>
      <trkpt lat="48.57873" lon="1.80275">
        <ele>154</ele>
        <time>2010-05-15T11:14:37Z</time>
      </trkpt>
      <trkpt lat="48.57873" lon="1.80278">
        <ele>154</ele>
        <time>2010-05-15T11:14:38Z</time>
      </trkpt>
      <trkpt lat="48.57873" lon="1.8028">
        <ele>154</ele>
        <time>2010-05-15T11:14:39Z</time>
      </trkpt>
      <trkpt lat="48.57873" lon="1.80283">
        <ele>154</ele>
        <time>2010-05-15T11:14:40Z</time>
      </trkpt>
      <trkpt lat="48.57873" lon="1.80285">
        <ele>154</ele>
        <time>2010-05-15T11:14:41Z</time>
      </trkpt>
      <trkpt lat="48.57874" lon="1.80288">
        <ele>154</ele>
        <time>2010-05-15T11:14:42Z</time>
      </trkpt>
      <trkpt lat="48.57874" lon="1.8029">
        <ele>154</ele>
        <time>2010-05-15T11:14:43Z</time>
      </trkpt>
      <trkpt lat="48.57874" lon="1.80292">
        <ele>154</ele>
        <time>2010-05-15T11:14:44Z</time>
      </trkpt>
      <trkpt lat="48.57874" lon="1.80295">
        <ele>154</ele>
        <time>2010-05-15T11:14:45Z</time>
      </trkpt>
      <trkpt lat="48.57874" lon="1.80297">
        <ele>154</ele>
        <time>2010-05-15T11:14:46Z</time>
      </trkpt>
      <trkpt lat="48.57874" lon="1.803">
        <ele>154</ele>
        <time>2010-05-15T11:14:47Z</time>
      </trkpt>
      <trkpt lat="48.57874" lon="1.80302">
        <ele>154</ele>
        <time>2010-05-15T11:14:48Z</time>
      </trkpt>
      <trkpt lat="48.57875" lon="1.80304">
        <ele>154</ele>
        <time>2010-05-15T11:14:49Z</time>
      </trkpt>
      <trkpt lat="48.57875" lon="1.80307">
        <ele>154</ele>
        <time>2010-05-15T11:14:50Z</time>
      </trkpt>
      <trkpt lat="48.57875" lon="1.80309">
        <ele>154</ele>
        <time>2010-05-15T11:14:51Z</time>
      </trkpt>
      <trkpt lat="48.57875" lon="1.80311">
        <ele>154</ele>
        <time>2010-05-15T11:14:52Z</time>
      </trkpt>
      <trkpt lat="48.57875" lon="1.80314">
        <ele>154</ele>
        <time>2010-05-15T11:14:53Z</time>
      </trkpt>
      <trkpt lat="48.57875" lon="1.80316">
        <ele>154</ele>
        <time>2010-05-15T11:14:54Z</time>
      </trkpt>
      <trkpt lat="48.57875" lon="1.80319">
        <ele>154</ele>
        <time>2010-05-15T11:14:55Z</time>
      </trkpt>
      <trkpt lat="48.57876" lon="1.80321">
        <ele>154</ele>
        <time>2010-05-15T11:14:56Z</time>
      </trkpt>
      <trkpt lat="48.57876" lon="1.80324">
        <ele>154</ele>
        <time>2010-05-15T11:14:57Z</time>
      </trkpt>
      <trkpt lat="48.57876" lon="1.80327">
        <ele>154</ele>
        <time>2010-05-15T11:14:58Z</time>
      </trkpt>
      <trkpt lat="48.57876" lon="1.8033">
        <ele>154</ele>
        <time>2010-05-15T11:14:59Z</time>
      </trkpt>
      <trkpt lat="48.57876" lon="1.80332">
        <ele>154</ele>
        <time>2010-05-15T11:15:00Z</time>
      </trkpt>
      <trkpt lat="48.57876" lon="1.80335">
        <ele>154</ele>
        <time>2010-05-15T11:15:01Z</time>
      </trkpt>
      <trkpt lat="48.57877" lon="1.80338">
        <ele>154</ele>
        <time>2010-05-15T11:15:02Z</time>
      </trkpt>
      <trkpt lat="48.57877" lon="1.8034">
        <ele>154</ele>
        <time>2010-05-15T11:15:03Z</time>
      </trkpt>
      <trkpt lat="48.57877" lon="1.80343">
        <ele>154</ele>
        <time>2010-05-15T11:15:04Z</time>
      </trkpt>
      <trkpt lat="48.57877" lon="1.80345">
        <ele>154</ele>
        <time>2010-05-15T11:15:05Z</time>
      </trkpt>
      <trkpt lat="48.57877" lon="1.80348">
        <ele>154</ele>
        <time>2010-05-15T11:15:06Z</time>
      </trkpt>
      <trkpt lat="48.57877" lon="1.8035">
        <ele>154</ele>
        <time>2010-05-15T11:15:07Z</time>
      </trkpt>
      <trkpt lat="48.57878" lon="1.80353">
        <ele>154</ele>
        <time>2010-05-15T11:15:08Z</time>
      </trkpt>
      <trkpt lat="48.57878" lon="1.80355">
        <ele>154</ele>
        <time>2010-05-15T11:15:09Z</time>
      </trkpt>
      <trkpt lat="48.57878" lon="1.80358">
        <ele>154</ele>
        <time>2010-05-15T11:15:10Z</time>
      </trkpt>
      <trkpt lat="48.57878" lon="1.80361">
        <ele>154</ele>
        <time>2010-05-15T11:15:11Z</time>
      </trkpt>
      <trkpt lat="48.57878" lon="1.80363">
        <ele>154</ele>
        <time>2010-05-15T11:15:12Z</time>
      </trkpt>
      <trkpt lat="48.57878" lon="1.80365">
        <ele>154</ele>
        <time>2010-05-15T11:15:13Z</time>
      </trkpt>
      <trkpt lat="48.57879" lon="1.80367">
        <ele>154</ele>
        <time>2010-05-15T11:15:14Z</time>
      </trkpt>
      <trkpt lat="48.57879" lon="1.8037">
        <ele>154</ele>
        <time>2010-05-15T11:15:15Z</time>
      </trkpt>
      <trkpt lat="48.57879" lon="1.80372">
        <ele>154</ele>
        <time>2010-05-15T11:15:16Z</time>
      </trkpt>
      <trkpt lat="48.57879" lon="1.80375">
        <ele>154</ele>
        <time>2010-05-15T11:15:17Z</time>
      </trkpt>
      <trkpt lat="48.57879" lon="1.80378">
        <ele>154</ele>
        <time>2010-05-15T11:15:18Z</time>
      </trkpt>
      <trkpt lat="48.57879" lon="1.8038">
        <ele>154</ele>
        <time>2010-05-15T11:15:19Z</time>
      </trkpt>
      <trkpt lat="48.5788" lon="1.80383">
        <ele>154</ele>
        <time>2010-05-15T11:15:20Z</time>
      </trkpt>
      <trkpt lat="48.5788" lon="1.80385">
        <ele>154</ele>
        <time>2010-05-15T11:15:21Z</time>
      </trkpt>
      <trkpt lat="48.5788" lon="1.80387">
        <ele>154</ele>
        <time>2010-05-15T11:15:22Z</time>
      </trkpt>
      <trkpt lat="48.5788" lon="1.8039">
        <ele>154</ele>
        <time>2010-05-15T11:15:23Z</time>
      </trkpt>
      <trkpt lat="48.5788" lon="1.80393">
        <ele>154</ele>
        <time>2010-05-15T11:15:24Z</time>
      </trkpt>
      <trkpt lat="48.5788" lon="1.80395">
        <ele>154</ele>
        <time>2010-05-15T11:15:25Z</time>
      </trkpt>
      <trkpt lat="48.5788" lon="1.80398">
        <ele>154</ele>
        <time>2010-05-15T11:15:26Z</time>
      </trkpt>
      <trkpt lat="48.5788" lon="1.804">
        <ele>154</ele>
        <time>2010-05-15T11:15:27Z</time>
      </trkpt>
      <trkpt lat="48.5788" lon="1.80403">
        <ele>154</ele>
        <time>2010-05-15T11:15:28Z</time>
      </trkpt>
      <trkpt lat="48.5788" lon="1.80405">
        <ele>154</ele>
        <time>2010-05-15T11:15:29Z</time>
      </trkpt>
      <trkpt lat="48.5788" lon="1.80408">
        <ele>154</ele>
        <time>2010-05-15T11:15:30Z</time>
      </trkpt>
      <trkpt lat="48.57881" lon="1.80411">
        <ele>154</ele>
        <time>2010-05-15T11:15:31Z</time>
      </trkpt>
      <trkpt lat="48.57881" lon="1.80413">
        <ele>154</ele>
        <time>2010-05-15T11:15:32Z</time>
      </trkpt>
      <trkpt lat="48.57881" lon="1.80416">
        <ele>154</ele>
        <time>2010-05-15T11:15:33Z</time>
      </trkpt>
      <trkpt lat="48.57881" lon="1.80419">
        <ele>154</ele>
        <time>2010-05-15T11:15:34Z</time>
      </trkpt>
      <trkpt lat="48.57881" lon="1.80421">
        <ele>154</ele>
        <time>2010-05-15T11:15:35Z</time>
      </trkpt>
      <trkpt lat="48.57881" lon="1.80424">
        <ele>154</ele>
        <time>2010-05-15T11:15:36Z</time>
      </trkpt>
      <trkpt lat="48.57881" lon="1.80426">
        <ele>154</ele>
        <time>2010-05-15T11:15:37Z</time>
      </trkpt>
      <trkpt lat="48.57881" lon="1.80429">
        <ele>154</ele>
        <time>2010-05-15T11:15:38Z</time>
      </trkpt>
      <trkpt lat="48.57881" lon="1.80431">
        <ele>154</ele>
        <time>2010-05-15T11:15:39Z</time>
      </trkpt>
      <trkpt lat="48.57882" lon="1.80434">
        <ele>154</ele>
        <time>2010-05-15T11:15:40Z</time>
      </trkpt>
      <trkpt lat="48.57882" lon="1.80436">
        <ele>154</ele>
        <time>2010-05-15T11:15:41Z</time>
      </trkpt>
      <trkpt lat="48.57882" lon="1.80439">
        <ele>154</ele>
        <time>2010-05-15T11:15:42Z</time>
      </trkpt>
      <trkpt lat="48.57882" lon="1.80441">
        <ele>154</ele>
        <time>2010-05-15T11:15:43Z</time>
      </trkpt>
      <trkpt lat="48.57882" lon="1.80443">
        <ele>154</ele>
        <time>2010-05-15T11:15:44Z</time>
      </trkpt>
      <trkpt lat="48.57882" lon="1.80446">
        <ele>154</ele>
        <time>2010-05-15T11:15:45Z</time>
      </trkpt>
      <trkpt lat="48.57882" lon="1.80448">
        <ele>154</ele>
        <time>2010-05-15T11:15:46Z</time>
      </trkpt>
      <trkpt lat="48.57882" lon="1.8045">
        <ele>154</ele>
        <time>2010-05-15T11:15:47Z</time>
      </trkpt>
      <trkpt lat="48.57882" lon="1.80453">
        <ele>154</ele>
        <time>2010-05-15T11:15:48Z</time>
      </trkpt>
      <trkpt lat="48.57882" lon="1.80455">
        <ele>154</ele>
        <time>2010-05-15T11:15:49Z</time>
      </trkpt>
      <trkpt lat="48.57882" lon="1.80457">
        <ele>154</ele>
        <time>2010-05-15T11:15:50Z</time>
      </trkpt>
      <trkpt lat="48.57883" lon="1.80459">
        <ele>154</ele>
        <time>2010-05-15T11:15:51Z</time>
      </trkpt>
      <trkpt lat="48.57883" lon="1.80462">
        <ele>154</ele>
        <time>2010-05-15T11:15:52Z</time>
      </trkpt>
      <trkpt lat="48.57883" lon="1.80464">
        <ele>154</ele>
        <time>2010-05-15T11:15:53Z</time>
      </trkpt>
      <trkpt lat="48.57883" lon="1.80467">
        <ele>154</ele>
        <time>2010-05-15T11:15:54Z</time>
      </trkpt>
      <trkpt lat="48.57883" lon="1.8047">
        <ele>154</ele>
        <time>2010-05-15T11:15:55Z</time>
      </trkpt>
      <trkpt lat="48.57883" lon="1.80473">
        <ele>154</ele>
        <time>2010-05-15T11:15:56Z</time>
      </trkpt>
      <trkpt lat="48.57883" lon="1.80475">
        <ele>154</ele>
        <time>2010-05-15T11:15:57Z</time>
      </trkpt>
      <trkpt lat="48.57883" lon="1.80478">
        <ele>154</ele>
        <time>2010-05-15T11:15:58Z</time>
      </trkpt>
      <trkpt lat="48.57883" lon="1.80481">
        <ele>154</ele>
        <time>2010-05-15T11:15:59Z</time>
      </trkpt>
      <trkpt lat="48.57883" lon="1.80484">
        <ele>154</ele>
        <time>2010-05-15T11:16:00Z</time>
      </trkpt>
      <trkpt lat="48.57883" lon="1.80487">
        <ele>154</ele>
        <time>2010-05-15T11:16:01Z</time>
      </trkpt>
      <trkpt lat="48.57883" lon="1.80489">
        <ele>154</ele>
        <time>2010-05-15T11:16:02Z</time>
      </trkpt>
      <trkpt lat="48.57883" lon="1.80492">
        <ele>154</ele>
        <time>2010-05-15T11:16:03Z</time>
      </trkpt>
      <trkpt lat="48.57883" lon="1.80495">
        <ele>154</ele>
        <time>2010-05-15T11:16:04Z</time>
      </trkpt>
      <trkpt lat="48.57883" lon="1.80498">
        <ele>154</ele>
        <time>2010-05-15T11:16:05Z</time>
      </trkpt>
      <trkpt lat="48.57883" lon="1.80501">
        <ele>154</ele>
        <time>2010-05-15T11:16:06Z</time>
      </trkpt>
      <trkpt lat="48.57884" lon="1.80503">
        <ele>154</ele>
        <time>2010-05-15T11:16:07Z</time>
      </trkpt>
      <trkpt lat="48.57884" lon="1.80506">
        <ele>154</ele>
        <time>2010-05-15T11:16:08Z</time>
      </trkpt>
      <trkpt lat="48.57884" lon="1.80508">
        <ele>154</ele>
        <time>2010-05-15T11:16:09Z</time>
      </trkpt>
      <trkpt lat="48.57884" lon="1.80511">
        <ele>154</ele>
        <time>2010-05-15T11:16:10Z</time>
      </trkpt>
      <trkpt lat="48.57884" lon="1.80513">
        <ele>154</ele>
        <time>2010-05-15T11:16:11Z</time>
      </trkpt>
      <trkpt lat="48.57884" lon="1.80516">
        <ele>154</ele>
        <time>2010-05-15T11:16:12Z</time>
      </trkpt>
      <trkpt lat="48.57884" lon="1.80518">
        <ele>154</ele>
        <time>2010-05-15T11:16:13Z</time>
      </trkpt>
      <trkpt lat="48.57885" lon="1.80521">
        <ele>154</ele>
        <time>2010-05-15T11:16:14Z</time>
      </trkpt>
      <trkpt lat="48.57885" lon="1.80523">
        <ele>154</ele>
        <time>2010-05-15T11:16:15Z</time>
      </trkpt>
      <trkpt lat="48.57885" lon="1.80525">
        <ele>154</ele>
        <time>2010-05-15T11:16:16Z</time>
      </trkpt>
      <trkpt lat="48.57885" lon="1.80528">
        <ele>154</ele>
        <time>2010-05-15T11:16:17Z</time>
      </trkpt>
      <trkpt lat="48.57885" lon="1.8053">
        <ele>154</ele>
        <time>2010-05-15T11:16:18Z</time>
      </trkpt>
      <trkpt lat="48.57885" lon="1.80533">
        <ele>154</ele>
        <time>2010-05-15T11:16:19Z</time>
      </trkpt>
      <trkpt lat="48.57885" lon="1.80535">
        <ele>154</ele>
        <time>2010-05-15T11:16:20Z</time>
      </trkpt>
      <trkpt lat="48.57885" lon="1.80538">
        <ele>154</ele>
        <time>2010-05-15T11:16:21Z</time>
      </trkpt>
      <trkpt lat="48.57885" lon="1.8054">
        <ele>154</ele>
        <time>2010-05-15T11:16:22Z</time>
      </trkpt>
      <trkpt lat="48.57886" lon="1.80543">
        <ele>154</ele>
        <time>2010-05-15T11:16:23Z</time>
      </trkpt>
      <trkpt lat="48.57886" lon="1.80546">
        <ele>154</ele>
        <time>2010-05-15T11:16:24Z</time>
      </trkpt>
      <trkpt lat="48.57886" lon="1.80548">
        <ele>154</ele>
        <time>2010-05-15T11:16:25Z</time>
      </trkpt>
      <trkpt lat="48.57886" lon="1.80551">
        <ele>154</ele>
        <time>2010-05-15T11:16:26Z</time>
      </trkpt>
      <trkpt lat="48.57886" lon="1.80554">
        <ele>154</ele>
        <time>2010-05-15T11:16:27Z</time>
      </trkpt>
      <trkpt lat="48.57886" lon="1.80557">
        <ele>154</ele>
        <time>2010-05-15T11:16:28Z</time>
      </trkpt>
      <trkpt lat="48.57886" lon="1.80559">
        <ele>154</ele>
        <time>2010-05-15T11:16:29Z</time>
      </trkpt>
      <trkpt lat="48.57886" lon="1.80562">
        <ele>154</ele>
        <time>2010-05-15T11:16:30Z</time>
      </trkpt>
      <trkpt lat="48.57886" lon="1.80565">
        <ele>154</ele>
        <time>2010-05-15T11:16:31Z</time>
      </trkpt>
      <trkpt lat="48.57887" lon="1.80567">
        <ele>154</ele>
        <time>2010-05-15T11:16:32Z</time>
      </trkpt>
      <trkpt lat="48.57887" lon="1.8057">
        <ele>154</ele>
        <time>2010-05-15T11:16:33Z</time>
      </trkpt>
      <trkpt lat="48.57887" lon="1.80573">
        <ele>154</ele>
        <time>2010-05-15T11:16:34Z</time>
      </trkpt>
      <trkpt lat="48.57887" lon="1.80575">
        <ele>154</ele>
        <time>2010-05-15T11:16:35Z</time>
      </trkpt>
      <trkpt lat="48.57887" lon="1.80578">
        <ele>154</ele>
        <time>2010-05-15T11:16:36Z</time>
      </trkpt>
      <trkpt lat="48.57887" lon="1.8058">
        <ele>154</ele>
        <time>2010-05-15T11:16:37Z</time>
      </trkpt>
      <trkpt lat="48.57887" lon="1.80583">
        <ele>154</ele>
        <time>2010-05-15T11:16:38Z</time>
      </trkpt>
      <trkpt lat="48.57887" lon="1.80585">
        <ele>154</ele>
        <time>2010-05-15T11:16:39Z</time>
      </trkpt>
      <trkpt lat="48.57887" lon="1.80588">
        <ele>154</ele>
        <time>2010-05-15T11:16:40Z</time>
      </trkpt>
      <trkpt lat="48.57888" lon="1.8059">
        <ele>154</ele>
        <time>2010-05-15T11:16:41Z</time>
      </trkpt>
      <trkpt lat="48.57888" lon="1.80592">
        <ele>154</ele>
        <time>2010-05-15T11:16:42Z</time>
      </trkpt>
      <trkpt lat="48.57888" lon="1.80594">
        <ele>154</ele>
        <time>2010-05-15T11:16:43Z</time>
      </trkpt>
      <trkpt lat="48.57888" lon="1.80597">
        <ele>154</ele>
        <time>2010-05-15T11:16:44Z</time>
      </trkpt>
      <trkpt lat="48.57888" lon="1.806">
        <ele>154</ele>
        <time>2010-05-15T11:16:45Z</time>
      </trkpt>
      <trkpt lat="48.57888" lon="1.80602">
        <ele>154</ele>
        <time>2010-05-15T11:16:46Z</time>
      </trkpt>
      <trkpt lat="48.57888" lon="1.80605">
        <ele>154</ele>
        <time>2010-05-15T11:16:47Z</time>
      </trkpt>
      <trkpt lat="48.57888" lon="1.80607">
        <ele>154</ele>
        <time>2010-05-15T11:16:48Z</time>
      </trkpt>
      <trkpt lat="48.57889" lon="1.8061">
        <ele>154</ele>
        <time>2010-05-15T11:16:49Z</time>
      </trkpt>
      <trkpt lat="48.57889" lon="1.80612">
        <ele>154</ele>
        <time>2010-05-15T11:16:50Z</time>
      </trkpt>
      <trkpt lat="48.57889" lon="1.80615">
        <ele>154</ele>
        <time>2010-05-15T11:16:51Z</time>
      </trkpt>
      <trkpt lat="48.57889" lon="1.80618">
        <ele>154</ele>
        <time>2010-05-15T11:16:52Z</time>
      </trkpt>
      <trkpt lat="48.57889" lon="1.8062">
        <ele>154</ele>
        <time>2010-05-15T11:16:53Z</time>
      </trkpt>
      <trkpt lat="48.5789" lon="1.80623">
        <ele>154</ele>
        <time>2010-05-15T11:16:54Z</time>
      </trkpt>
      <trkpt lat="48.5789" lon="1.80626">
        <ele>154</ele>
        <time>2010-05-15T11:16:55Z</time>
      </trkpt>
      <trkpt lat="48.5789" lon="1.80628">
        <ele>154</ele>
        <time>2010-05-15T11:16:56Z</time>
      </trkpt>
      <trkpt lat="48.5789" lon="1.80631">
        <ele>154</ele>
        <time>2010-05-15T11:16:57Z</time>
      </trkpt>
      <trkpt lat="48.57891" lon="1.80634">
        <ele>154</ele>
        <time>2010-05-15T11:16:58Z</time>
      </trkpt>
      <trkpt lat="48.57891" lon="1.80637">
        <ele>154</ele>
        <time>2010-05-15T11:16:59Z</time>
      </trkpt>
      <trkpt lat="48.57891" lon="1.80639">
        <ele>154</ele>
        <time>2010-05-15T11:17:00Z</time>
      </trkpt>
      <trkpt lat="48.57892" lon="1.80642">
        <ele>154</ele>
        <time>2010-05-15T11:17:01Z</time>
      </trkpt>
      <trkpt lat="48.57892" lon="1.80644">
        <ele>154</ele>
        <time>2010-05-15T11:17:02Z</time>
      </trkpt>
      <trkpt lat="48.57892" lon="1.80647">
        <ele>154</ele>
        <time>2010-05-15T11:17:03Z</time>
      </trkpt>
      <trkpt lat="48.57892" lon="1.80649">
        <ele>154</ele>
        <time>2010-05-15T11:17:04Z</time>
      </trkpt>
      <trkpt lat="48.57892" lon="1.80651">
        <ele>154</ele>
        <time>2010-05-15T11:17:05Z</time>
      </trkpt>
      <trkpt lat="48.57892" lon="1.80653">
        <ele>154</ele>
        <time>2010-05-15T11:17:06Z</time>
      </trkpt>
      <trkpt lat="48.57892" lon="1.80655">
        <ele>154</ele>
        <time>2010-05-15T11:17:07Z</time>
      </trkpt>
      <trkpt lat="48.57892" lon="1.80658">
        <ele>154</ele>
        <time>2010-05-15T11:17:08Z</time>
      </trkpt>
      <trkpt lat="48.57892" lon="1.8066">
        <ele>154</ele>
        <time>2010-05-15T11:17:09Z</time>
      </trkpt>
      <trkpt lat="48.57893" lon="1.80662">
        <ele>154</ele>
        <time>2010-05-15T11:17:10Z</time>
      </trkpt>
      <trkpt lat="48.57893" lon="1.80664">
        <ele>154</ele>
        <time>2010-05-15T11:17:11Z</time>
      </trkpt>
      <trkpt lat="48.57893" lon="1.80666">
        <ele>154</ele>
        <time>2010-05-15T11:17:12Z</time>
      </trkpt>
      <trkpt lat="48.57893" lon="1.80668">
        <ele>154</ele>
        <time>2010-05-15T11:17:13Z</time>
      </trkpt>
      <trkpt lat="48.57893" lon="1.80671">
        <ele>154</ele>
        <time>2010-05-15T11:17:14Z</time>
      </trkpt>
      <trkpt lat="48.57893" lon="1.80673">
        <ele>154</ele>
        <time>2010-05-15T11:17:15Z</time>
      </trkpt>
      <trkpt lat="48.57894" lon="1.80676">
        <ele>154</ele>
        <time>2010-05-15T11:17:16Z</time>
      </trkpt>
      <trkpt lat="48.57894" lon="1.80678">
        <ele>154</ele>
        <time>2010-05-15T11:17:17Z</time>
      </trkpt>
      <trkpt lat="48.57894" lon="1.8068">
        <ele>154</ele>
        <time>2010-05-15T11:17:18Z</time>
      </trkpt>
      <trkpt lat="48.57894" lon="1.80682">
        <ele>154</ele>
        <time>2010-05-15T11:17:19Z</time>
      </trkpt>
      <trkpt lat="48.57894" lon="1.80684">
        <ele>154</ele>
        <time>2010-05-15T11:17:20Z</time>
      </trkpt>
      <trkpt lat="48.57894" lon="1.80686">
        <ele>154</ele>
        <time>2010-05-15T11:17:21Z</time>
      </trkpt>
      <trkpt lat="48.57894" lon="1.80689">
        <ele>154</ele>
        <time>2010-05-15T11:17:22Z</time>
      </trkpt>
      <trkpt lat="48.57894" lon="1.80691">
        <ele>154</ele>
        <time>2010-05-15T11:17:23Z</time>
      </trkpt>
      <trkpt lat="48.57894" lon="1.80693">
        <ele>154</ele>
        <time>2010-05-15T11:17:24Z</time>
      </trkpt>
      <trkpt lat="48.57894" lon="1.80695">
        <ele>154</ele>
        <time>2010-05-15T11:17:25Z</time>
      </trkpt>
      <trkpt lat="48.57894" lon="1.80697">
        <ele>154</ele>
        <time>2010-05-15T11:17:26Z</time>
      </trkpt>
      <trkpt lat="48.57894" lon="1.80699">
        <ele>154</ele>
        <time>2010-05-15T11:17:27Z</time>
      </trkpt>
      <trkpt lat="48.57894" lon="1.80702">
        <ele>154</ele>
        <time>2010-05-15T11:17:28Z</time>
      </trkpt>
      <trkpt lat="48.57894" lon="1.80704">
        <ele>154</ele>
        <time>2010-05-15T11:17:29Z</time>
      </trkpt>
      <trkpt lat="48.57895" lon="1.80706">
        <ele>154</ele>
        <time>2010-05-15T11:17:30Z</time>
      </trkpt>
      <trkpt lat="48.57895" lon="1.80708">
        <ele>154</ele>
        <time>2010-05-15T11:17:31Z</time>
      </trkpt>
      <trkpt lat="48.57895" lon="1.8071">
        <ele>154</ele>
        <time>2010-05-15T11:17:32Z</time>
      </trkpt>
      <trkpt lat="48.57895" lon="1.80713">
        <ele>154</ele>
        <time>2010-05-15T11:17:33Z</time>
      </trkpt>
      <trkpt lat="48.57895" lon="1.80715">
        <ele>154</ele>
        <time>2010-05-15T11:17:34Z</time>
      </trkpt>
      <trkpt lat="48.57895" lon="1.80717">
        <ele>154</ele>
        <time>2010-05-15T11:17:35Z</time>
      </trkpt>
      <trkpt lat="48.57895" lon="1.80719">
        <ele>154</ele>
        <time>2010-05-15T11:17:36Z</time>
      </trkpt>
      <trkpt lat="48.57896" lon="1.80722">
        <ele>154</ele>
        <time>2010-05-15T11:17:37Z</time>
      </trkpt>
      <trkpt lat="48.57896" lon="1.80724">
        <ele>154</ele>
        <time>2010-05-15T11:17:38Z</time>
      </trkpt>
      <trkpt lat="48.57896" lon="1.80726">
        <ele>154</ele>
        <time>2010-05-15T11:17:39Z</time>
      </trkpt>
      <trkpt lat="48.57896" lon="1.80729">
        <ele>154</ele>
        <time>2010-05-15T11:17:40Z</time>
      </trkpt>
      <trkpt lat="48.57896" lon="1.80731">
        <ele>154</ele>
        <time>2010-05-15T11:17:41Z</time>
      </trkpt>
      <trkpt lat="48.57896" lon="1.80734">
        <ele>154</ele>
        <time>2010-05-15T11:17:42Z</time>
      </trkpt>
      <trkpt lat="48.57896" lon="1.80736">
        <ele>154</ele>
        <time>2010-05-15T11:17:43Z</time>
      </trkpt>
      <trkpt lat="48.57897" lon="1.80739">
        <ele>154</ele>
        <time>2010-05-15T11:17:44Z</time>
      </trkpt>
      <trkpt lat="48.57897" lon="1.80741">
        <ele>154</ele>
        <time>2010-05-15T11:17:45Z</time>
      </trkpt>
      <trkpt lat="48.57897" lon="1.80744">
        <ele>154</ele>
        <time>2010-05-15T11:17:46Z</time>
      </trkpt>
      <trkpt lat="48.57897" lon="1.80746">
        <ele>154</ele>
        <time>2010-05-15T11:17:47Z</time>
      </trkpt>
      <trkpt lat="48.57897" lon="1.80749">
        <ele>154</ele>
        <time>2010-05-15T11:17:48Z</time>
      </trkpt>
      <trkpt lat="48.57897" lon="1.80751">
        <ele>154</ele>
        <time>2010-05-15T11:17:49Z</time>
      </trkpt>
      <trkpt lat="48.57897" lon="1.80754">
        <ele>154</ele>
        <time>2010-05-15T11:17:50Z</time>
      </trkpt>
      <trkpt lat="48.57897" lon="1.80756">
        <ele>154</ele>
        <time>2010-05-15T11:17:51Z</time>
      </trkpt>
      <trkpt lat="48.57897" lon="1.80758">
        <ele>154</ele>
        <time>2010-05-15T11:17:52Z</time>
      </trkpt>
      <trkpt lat="48.57898" lon="1.80761">
        <ele>154</ele>
        <time>2010-05-15T11:17:53Z</time>
      </trkpt>
      <trkpt lat="48.57898" lon="1.80763">
        <ele>154</ele>
        <time>2010-05-15T11:17:54Z</time>
      </trkpt>
      <trkpt lat="48.57898" lon="1.80766">
        <ele>154</ele>
        <time>2010-05-15T11:17:55Z</time>
      </trkpt>
      <trkpt lat="48.57898" lon="1.80768">
        <ele>154</ele>
        <time>2010-05-15T11:17:56Z</time>
      </trkpt>
      <trkpt lat="48.57898" lon="1.8077">
        <ele>154</ele>
        <time>2010-05-15T11:17:57Z</time>
      </trkpt>
      <trkpt lat="48.57898" lon="1.80773">
        <ele>154</ele>
        <time>2010-05-15T11:17:58Z</time>
      </trkpt>
      <trkpt lat="48.57898" lon="1.80775">
        <ele>154</ele>
        <time>2010-05-15T11:17:59Z</time>
      </trkpt>
      <trkpt lat="48.57899" lon="1.80778">
        <ele>154</ele>
        <time>2010-05-15T11:18:00Z</time>
      </trkpt>
      <trkpt lat="48.57899" lon="1.8078">
        <ele>154</ele>
        <time>2010-05-15T11:18:01Z</time>
      </trkpt>
      <trkpt lat="48.57899" lon="1.80782">
        <ele>154</ele>
        <time>2010-05-15T11:18:02Z</time>
      </trkpt>
      <trkpt lat="48.57899" lon="1.80785">
        <ele>154</ele>
        <time>2010-05-15T11:18:03Z</time>
      </trkpt>
      <trkpt lat="48.57899" lon="1.80787">
        <ele>154</ele>
        <time>2010-05-15T11:18:04Z</time>
      </trkpt>
      <trkpt lat="48.57899" lon="1.80789">
        <ele>154</ele>
        <time>2010-05-15T11:18:05Z</time>
      </trkpt>
      <trkpt lat="48.579" lon="1.80791">
        <ele>154</ele>
        <time>2010-05-15T11:18:06Z</time>
      </trkpt>
      <trkpt lat="48.579" lon="1.80793">
        <ele>154</ele>
        <time>2010-05-15T11:18:07Z</time>
      </trkpt>
      <trkpt lat="48.579" lon="1.80796">
        <ele>154</ele>
        <time>2010-05-15T11:18:08Z</time>
      </trkpt>
      <trkpt lat="48.579" lon="1.80798">
        <ele>154</ele>
        <time>2010-05-15T11:18:09Z</time>
      </trkpt>
      <trkpt lat="48.579" lon="1.808">
        <ele>154</ele>
        <time>2010-05-15T11:18:10Z</time>
      </trkpt>
      <trkpt lat="48.57901" lon="1.80802">
        <ele>154</ele>
        <time>2010-05-15T11:18:11Z</time>
      </trkpt>
      <trkpt lat="48.57901" lon="1.80804">
        <ele>154</ele>
        <time>2010-05-15T11:18:12Z</time>
      </trkpt>
      <trkpt lat="48.57901" lon="1.80807">
        <ele>154</ele>
        <time>2010-05-15T11:18:13Z</time>
      </trkpt>
      <trkpt lat="48.57901" lon="1.80809">
        <ele>154</ele>
        <time>2010-05-15T11:18:14Z</time>
      </trkpt>
      <trkpt lat="48.57901" lon="1.80811">
        <ele>154</ele>
        <time>2010-05-15T11:18:15Z</time>
      </trkpt>
      <trkpt lat="48.57902" lon="1.80813">
        <ele>154</ele>
        <time>2010-05-15T11:18:16Z</time>
      </trkpt>
      <trkpt lat="48.57902" lon="1.80816">
        <ele>154</ele>
        <time>2010-05-15T11:18:17Z</time>
      </trkpt>
      <trkpt lat="48.57902" lon="1.80818">
        <ele>154</ele>
        <time>2010-05-15T11:18:18Z</time>
      </trkpt>
      <trkpt lat="48.57902" lon="1.80821">
        <ele>154</ele>
        <time>2010-05-15T11:18:19Z</time>
      </trkpt>
      <trkpt lat="48.57902" lon="1.80823">
        <ele>154</ele>
        <time>2010-05-15T11:18:20Z</time>
      </trkpt>
      <trkpt lat="48.57902" lon="1.80825">
        <ele>154</ele>
        <time>2010-05-15T11:18:21Z</time>
      </trkpt>
      <trkpt lat="48.57902" lon="1.80827">
        <ele>154</ele>
        <time>2010-05-15T11:18:22Z</time>
      </trkpt>
      <trkpt lat="48.57902" lon="1.80829">
        <ele>154</ele>
        <time>2010-05-15T11:18:23Z</time>
      </trkpt>
      <trkpt lat="48.57902" lon="1.80832">
        <ele>154</ele>
        <time>2010-05-15T11:18:24Z</time>
      </trkpt>
      <trkpt lat="48.57903" lon="1.80834">
        <ele>154</ele>
        <time>2010-05-15T11:18:25Z</time>
      </trkpt>
      <trkpt lat="48.57903" lon="1.80836">
        <ele>154</ele>
        <time>2010-05-15T11:18:26Z</time>
      </trkpt>
      <trkpt lat="48.57903" lon="1.80839">
        <ele>154</ele>
        <time>2010-05-15T11:18:27Z</time>
      </trkpt>
      <trkpt lat="48.57903" lon="1.80841">
        <ele>154</ele>
        <time>2010-05-15T11:18:28Z</time>
      </trkpt>
      <trkpt lat="48.57903" lon="1.80843">
        <ele>154</ele>
        <time>2010-05-15T11:18:29Z</time>
      </trkpt>
      <trkpt lat="48.57903" lon="1.80845">
        <ele>154</ele>
        <time>2010-05-15T11:18:30Z</time>
      </trkpt>
      <trkpt lat="48.57903" lon="1.80848">
        <ele>154</ele>
        <time>2010-05-15T11:18:31Z</time>
      </trkpt>
      <trkpt lat="48.57903" lon="1.8085">
        <ele>154</ele>
        <time>2010-05-15T11:18:32Z</time>
      </trkpt>
      <trkpt lat="48.57903" lon="1.80853">
        <ele>154</ele>
        <time>2010-05-15T11:18:33Z</time>
      </trkpt>
      <trkpt lat="48.57904" lon="1.80855">
        <ele>154</ele>
        <time>2010-05-15T11:18:34Z</time>
      </trkpt>
      <trkpt lat="48.57904" lon="1.80857">
        <ele>154</ele>
        <time>2010-05-15T11:18:35Z</time>
      </trkpt>
      <trkpt lat="48.57904" lon="1.80859">
        <ele>154</ele>
        <time>2010-05-15T11:18:36Z</time>
      </trkpt>
      <trkpt lat="48.57905" lon="1.80861">
        <ele>154</ele>
        <time>2010-05-15T11:18:38Z</time>
      </trkpt>
      <trkpt lat="48.57905" lon="1.80864">
        <ele>154</ele>
        <time>2010-05-15T11:18:39Z</time>
      </trkpt>
      <trkpt lat="48.57905" lon="1.80866">
        <ele>154</ele>
        <time>2010-05-15T11:18:40Z</time>
      </trkpt>
      <trkpt lat="48.57905" lon="1.80869">
        <ele>154</ele>
        <time>2010-05-15T11:18:41Z</time>
      </trkpt>
      <trkpt lat="48.57905" lon="1.80871">
        <ele>154</ele>
        <time>2010-05-15T11:18:42Z</time>
      </trkpt>
      <trkpt lat="48.57905" lon="1.80873">
        <ele>154</ele>
        <time>2010-05-15T11:18:43Z</time>
      </trkpt>
      <trkpt lat="48.57905" lon="1.80876">
        <ele>154</ele>
        <time>2010-05-15T11:18:44Z</time>
      </trkpt>
      <trkpt lat="48.57905" lon="1.80878">
        <ele>154</ele>
        <time>2010-05-15T11:18:45Z</time>
      </trkpt>
      <trkpt lat="48.57905" lon="1.80881">
        <ele>154</ele>
        <time>2010-05-15T11:18:46Z</time>
      </trkpt>
      <trkpt lat="48.57905" lon="1.80883">
        <ele>154</ele>
        <time>2010-05-15T11:18:47Z</time>
      </trkpt>
      <trkpt lat="48.57905" lon="1.80886">
        <ele>154</ele>
        <time>2010-05-15T11:18:48Z</time>
      </trkpt>
      <trkpt lat="48.57905" lon="1.80888">
        <ele>154</ele>
        <time>2010-05-15T11:18:49Z</time>
      </trkpt>
      <trkpt lat="48.57905" lon="1.8089">
        <ele>154</ele>
        <time>2010-05-15T11:18:50Z</time>
      </trkpt>
      <trkpt lat="48.57905" lon="1.80893">
        <ele>154</ele>
        <time>2010-05-15T11:18:51Z</time>
      </trkpt>
      <trkpt lat="48.57905" lon="1.80895">
        <ele>154</ele>
        <time>2010-05-15T11:18:52Z</time>
      </trkpt>
      <trkpt lat="48.57905" lon="1.80897">
        <ele>154</ele>
        <time>2010-05-15T11:18:53Z</time>
      </trkpt>
      <trkpt lat="48.57905" lon="1.80899">
        <ele>154</ele>
        <time>2010-05-15T11:18:54Z</time>
      </trkpt>
      <trkpt lat="48.57905" lon="1.80901">
        <ele>154</ele>
        <time>2010-05-15T11:18:55Z</time>
      </trkpt>
      <trkpt lat="48.57905" lon="1.80903">
        <ele>154</ele>
        <time>2010-05-15T11:18:56Z</time>
      </trkpt>
      <trkpt lat="48.57905" lon="1.80905">
        <ele>154</ele>
        <time>2010-05-15T11:18:57Z</time>
      </trkpt>
      <trkpt lat="48.57905" lon="1.80908">
        <ele>154</ele>
        <time>2010-05-15T11:18:58Z</time>
      </trkpt>
      <trkpt lat="48.57905" lon="1.8091">
        <ele>154</ele>
        <time>2010-05-15T11:18:59Z</time>
      </trkpt>
      <trkpt lat="48.57905" lon="1.80912">
        <ele>154</ele>
        <time>2010-05-15T11:19:00Z</time>
      </trkpt>
      <trkpt lat="48.57905" lon="1.80914">
        <ele>154</ele>
        <time>2010-05-15T11:19:01Z</time>
      </trkpt>
      <trkpt lat="48.57905" lon="1.80917">
        <ele>154</ele>
        <time>2010-05-15T11:19:02Z</time>
      </trkpt>
      <trkpt lat="48.57905" lon="1.80919">
        <ele>154</ele>
        <time>2010-05-15T11:19:03Z</time>
      </trkpt>
      <trkpt lat="48.57905" lon="1.80921">
        <ele>154</ele>
        <time>2010-05-15T11:19:04Z</time>
      </trkpt>
      <trkpt lat="48.57905" lon="1.80923">
        <ele>154</ele>
        <time>2010-05-15T11:19:05Z</time>
      </trkpt>
      <trkpt lat="48.57905" lon="1.80926">
        <ele>154</ele>
        <time>2010-05-15T11:19:06Z</time>
      </trkpt>
      <trkpt lat="48.57905" lon="1.80928">
        <ele>154</ele>
        <time>2010-05-15T11:19:07Z</time>
      </trkpt>
      <trkpt lat="48.57906" lon="1.8093">
        <ele>154</ele>
        <time>2010-05-15T11:19:08Z</time>
      </trkpt>
      <trkpt lat="48.57906" lon="1.80932">
        <ele>154</ele>
        <time>2010-05-15T11:19:09Z</time>
      </trkpt>
      <trkpt lat="48.57906" lon="1.80934">
        <ele>154</ele>
        <time>2010-05-15T11:19:10Z</time>
      </trkpt>
      <trkpt lat="48.57906" lon="1.80937">
        <ele>154</ele>
        <time>2010-05-15T11:19:11Z</time>
      </trkpt>
      <trkpt lat="48.57906" lon="1.80939">
        <ele>154</ele>
        <time>2010-05-15T11:19:12Z</time>
      </trkpt>
      <trkpt lat="48.57906" lon="1.80941">
        <ele>154</ele>
        <time>2010-05-15T11:19:13Z</time>
      </trkpt>
      <trkpt lat="48.57906" lon="1.80943">
        <ele>154</ele>
        <time>2010-05-15T11:19:14Z</time>
      </trkpt>
      <trkpt lat="48.57906" lon="1.80946">
        <ele>154</ele>
        <time>2010-05-15T11:19:15Z</time>
      </trkpt>
      <trkpt lat="48.57906" lon="1.80948">
        <ele>154</ele>
        <time>2010-05-15T11:19:16Z</time>
      </trkpt>
      <trkpt lat="48.57906" lon="1.8095">
        <ele>154</ele>
        <time>2010-05-15T11:19:17Z</time>
      </trkpt>
      <trkpt lat="48.57907" lon="1.80952">
        <ele>154</ele>
        <time>2010-05-15T11:19:18Z</time>
      </trkpt>
      <trkpt lat="48.57907" lon="1.80954">
        <ele>154</ele>
        <time>2010-05-15T11:19:19Z</time>
      </trkpt>
      <trkpt lat="48.57907" lon="1.80957">
        <ele>154</ele>
        <time>2010-05-15T11:19:20Z</time>
      </trkpt>
      <trkpt lat="48.57907" lon="1.80959">
        <ele>154</ele>
        <time>2010-05-15T11:19:21Z</time>
      </trkpt>
      <trkpt lat="48.57907" lon="1.80961">
        <ele>154</ele>
        <time>2010-05-15T11:19:22Z</time>
      </trkpt>
      <trkpt lat="48.57907" lon="1.80964">
        <ele>154</ele>
        <time>2010-05-15T11:19:23Z</time>
      </trkpt>
      <trkpt lat="48.57907" lon="1.80965">
        <ele>154</ele>
        <time>2010-05-15T11:19:24Z</time>
      </trkpt>
      <trkpt lat="48.57907" lon="1.80967">
        <ele>154</ele>
        <time>2010-05-15T11:19:25Z</time>
      </trkpt>
      <trkpt lat="48.57907" lon="1.80969">
        <ele>154</ele>
        <time>2010-05-15T11:19:26Z</time>
      </trkpt>
      <trkpt lat="48.57907" lon="1.80972">
        <ele>154</ele>
        <time>2010-05-15T11:19:27Z</time>
      </trkpt>
      <trkpt lat="48.57907" lon="1.80974">
        <ele>154</ele>
        <time>2010-05-15T11:19:28Z</time>
      </trkpt>
      <trkpt lat="48.57907" lon="1.80976">
        <ele>154</ele>
        <time>2010-05-15T11:19:29Z</time>
      </trkpt>
      <trkpt lat="48.57908" lon="1.80978">
        <ele>154</ele>
        <time>2010-05-15T11:19:30Z</time>
      </trkpt>
      <trkpt lat="48.57908" lon="1.8098">
        <ele>154</ele>
        <time>2010-05-15T11:19:31Z</time>
      </trkpt>
      <trkpt lat="48.57908" lon="1.80981">
        <ele>154</ele>
        <time>2010-05-15T11:19:32Z</time>
      </trkpt>
      <trkpt lat="48.57908" lon="1.80983">
        <ele>154</ele>
        <time>2010-05-15T11:19:33Z</time>
      </trkpt>
      <trkpt lat="48.57908" lon="1.80985">
        <ele>154</ele>
        <time>2010-05-15T11:19:34Z</time>
      </trkpt>
      <trkpt lat="48.57908" lon="1.80988">
        <ele>154</ele>
        <time>2010-05-15T11:19:36Z</time>
      </trkpt>
      <trkpt lat="48.57908" lon="1.8099">
        <ele>154</ele>
        <time>2010-05-15T11:19:37Z</time>
      </trkpt>
      <trkpt lat="48.57908" lon="1.80992">
        <ele>154</ele>
        <time>2010-05-15T11:19:38Z</time>
      </trkpt>
      <trkpt lat="48.57908" lon="1.80994">
        <ele>154</ele>
        <time>2010-05-15T11:19:39Z</time>
      </trkpt>
      <trkpt lat="48.57908" lon="1.80996">
        <ele>154</ele>
        <time>2010-05-15T11:19:40Z</time>
      </trkpt>
      <trkpt lat="48.57908" lon="1.80999">
        <ele>154</ele>
        <time>2010-05-15T11:19:41Z</time>
      </trkpt>
      <trkpt lat="48.57908" lon="1.81001">
        <ele>154</ele>
        <time>2010-05-15T11:19:42Z</time>
      </trkpt>
      <trkpt lat="48.57909" lon="1.81003">
        <ele>154</ele>
        <time>2010-05-15T11:19:43Z</time>
      </trkpt>
      <trkpt lat="48.57909" lon="1.81006">
        <ele>154</ele>
        <time>2010-05-15T11:19:44Z</time>
      </trkpt>
      <trkpt lat="48.57909" lon="1.81008">
        <ele>154</ele>
        <time>2010-05-15T11:19:45Z</time>
      </trkpt>
      <trkpt lat="48.57909" lon="1.8101">
        <ele>154</ele>
        <time>2010-05-15T11:19:46Z</time>
      </trkpt>
      <trkpt lat="48.57909" lon="1.81013">
        <ele>154</ele>
        <time>2010-05-15T11:19:47Z</time>
      </trkpt>
      <trkpt lat="48.57909" lon="1.81015">
        <ele>154</ele>
        <time>2010-05-15T11:19:48Z</time>
      </trkpt>
      <trkpt lat="48.57909" lon="1.81017">
        <ele>154</ele>
        <time>2010-05-15T11:19:49Z</time>
      </trkpt>
      <trkpt lat="48.57909" lon="1.8102">
        <ele>154</ele>
        <time>2010-05-15T11:19:50Z</time>
      </trkpt>
      <trkpt lat="48.57909" lon="1.81023">
        <ele>154</ele>
        <time>2010-05-15T11:19:51Z</time>
      </trkpt>
      <trkpt lat="48.57909" lon="1.81025">
        <ele>154</ele>
        <time>2010-05-15T11:19:52Z</time>
      </trkpt>
      <trkpt lat="48.57909" lon="1.81028">
        <ele>154</ele>
        <time>2010-05-15T11:19:53Z</time>
      </trkpt>
      <trkpt lat="48.5791" lon="1.8103">
        <ele>154</ele>
        <time>2010-05-15T11:19:54Z</time>
      </trkpt>
      <trkpt lat="48.5791" lon="1.81032">
        <ele>154</ele>
        <time>2010-05-15T11:19:55Z</time>
      </trkpt>
      <trkpt lat="48.5791" lon="1.81035">
        <ele>154</ele>
        <time>2010-05-15T11:19:56Z</time>
      </trkpt>
      <trkpt lat="48.5791" lon="1.81037">
        <ele>154</ele>
        <time>2010-05-15T11:19:57Z</time>
      </trkpt>
      <trkpt lat="48.5791" lon="1.8104">
        <ele>154</ele>
        <time>2010-05-15T11:19:58Z</time>
      </trkpt>
      <trkpt lat="48.5791" lon="1.81042">
        <ele>154</ele>
        <time>2010-05-15T11:19:59Z</time>
      </trkpt>
      <trkpt lat="48.5791" lon="1.81045">
        <ele>154</ele>
        <time>2010-05-15T11:20:00Z</time>
      </trkpt>
      <trkpt lat="48.57911" lon="1.81047">
        <ele>154</ele>
        <time>2010-05-15T11:20:01Z</time>
      </trkpt>
      <trkpt lat="48.57911" lon="1.81049">
        <ele>154</ele>
        <time>2010-05-15T11:20:02Z</time>
      </trkpt>
      <trkpt lat="48.57911" lon="1.81052">
        <ele>154</ele>
        <time>2010-05-15T11:20:03Z</time>
      </trkpt>
      <trkpt lat="48.57911" lon="1.81054">
        <ele>154</ele>
        <time>2010-05-15T11:20:04Z</time>
      </trkpt>
      <trkpt lat="48.57911" lon="1.81057">
        <ele>154</ele>
        <time>2010-05-15T11:20:05Z</time>
      </trkpt>
      <trkpt lat="48.57911" lon="1.81059">
        <ele>154</ele>
        <time>2010-05-15T11:20:06Z</time>
      </trkpt>
      <trkpt lat="48.57912" lon="1.81062">
        <ele>154</ele>
        <time>2010-05-15T11:20:07Z</time>
      </trkpt>
      <trkpt lat="48.57912" lon="1.81064">
        <ele>154</ele>
        <time>2010-05-15T11:20:08Z</time>
      </trkpt>
      <trkpt lat="48.57912" lon="1.81067">
        <ele>154</ele>
        <time>2010-05-15T11:20:09Z</time>
      </trkpt>
      <trkpt lat="48.57912" lon="1.81069">
        <ele>154</ele>
        <time>2010-05-15T11:20:10Z</time>
      </trkpt>
      <trkpt lat="48.57913" lon="1.81072">
        <ele>154</ele>
        <time>2010-05-15T11:20:11Z</time>
      </trkpt>
      <trkpt lat="48.57913" lon="1.81075">
        <ele>154</ele>
        <time>2010-05-15T11:20:12Z</time>
      </trkpt>
      <trkpt lat="48.57913" lon="1.81077">
        <ele>154</ele>
        <time>2010-05-15T11:20:13Z</time>
      </trkpt>
      <trkpt lat="48.57913" lon="1.81079">
        <ele>154</ele>
        <time>2010-05-15T11:20:14Z</time>
      </trkpt>
      <trkpt lat="48.57913" lon="1.81081">
        <ele>154</ele>
        <time>2010-05-15T11:20:15Z</time>
      </trkpt>
      <trkpt lat="48.57913" lon="1.81084">
        <ele>154</ele>
        <time>2010-05-15T11:20:16Z</time>
      </trkpt>
      <trkpt lat="48.57913" lon="1.81086">
        <ele>154</ele>
        <time>2010-05-15T11:20:17Z</time>
      </trkpt>
      <trkpt lat="48.57913" lon="1.81089">
        <ele>154</ele>
        <time>2010-05-15T11:20:18Z</time>
      </trkpt>
      <trkpt lat="48.57913" lon="1.81092">
        <ele>154</ele>
        <time>2010-05-15T11:20:19Z</time>
      </trkpt>
      <trkpt lat="48.57914" lon="1.81094">
        <ele>154</ele>
        <time>2010-05-15T11:20:20Z</time>
      </trkpt>
      <trkpt lat="48.57914" lon="1.81097">
        <ele>154</ele>
        <time>2010-05-15T11:20:21Z</time>
      </trkpt>
      <trkpt lat="48.57914" lon="1.81099">
        <ele>154</ele>
        <time>2010-05-15T11:20:22Z</time>
      </trkpt>
      <trkpt lat="48.57914" lon="1.81101">
        <ele>154</ele>
        <time>2010-05-15T11:20:23Z</time>
      </trkpt>
      <trkpt lat="48.57914" lon="1.81103">
        <ele>154</ele>
        <time>2010-05-15T11:20:24Z</time>
      </trkpt>
      <trkpt lat="48.57915" lon="1.81105">
        <ele>154</ele>
        <time>2010-05-15T11:20:25Z</time>
      </trkpt>
      <trkpt lat="48.57915" lon="1.81108">
        <ele>154</ele>
        <time>2010-05-15T11:20:26Z</time>
      </trkpt>
      <trkpt lat="48.57915" lon="1.8111">
        <ele>154</ele>
        <time>2010-05-15T11:20:27Z</time>
      </trkpt>
      <trkpt lat="48.57915" lon="1.81112">
        <ele>154</ele>
        <time>2010-05-15T11:20:28Z</time>
      </trkpt>
      <trkpt lat="48.57916" lon="1.81114">
        <ele>154</ele>
        <time>2010-05-15T11:20:29Z</time>
      </trkpt>
      <trkpt lat="48.57916" lon="1.81116">
        <ele>154</ele>
        <time>2010-05-15T11:20:30Z</time>
      </trkpt>
      <trkpt lat="48.57916" lon="1.81119">
        <ele>154</ele>
        <time>2010-05-15T11:20:31Z</time>
      </trkpt>
      <trkpt lat="48.57916" lon="1.81121">
        <ele>154</ele>
        <time>2010-05-15T11:20:32Z</time>
      </trkpt>
      <trkpt lat="48.57916" lon="1.81124">
        <ele>154</ele>
        <time>2010-05-15T11:20:33Z</time>
      </trkpt>
      <trkpt lat="48.57916" lon="1.81126">
        <ele>154</ele>
        <time>2010-05-15T11:20:34Z</time>
      </trkpt>
      <trkpt lat="48.57916" lon="1.81129">
        <ele>154</ele>
        <time>2010-05-15T11:20:35Z</time>
      </trkpt>
      <trkpt lat="48.57916" lon="1.81131">
        <ele>154</ele>
        <time>2010-05-15T11:20:36Z</time>
      </trkpt>
      <trkpt lat="48.57916" lon="1.81134">
        <ele>154</ele>
        <time>2010-05-15T11:20:37Z</time>
      </trkpt>
      <trkpt lat="48.57916" lon="1.81136">
        <ele>154</ele>
        <time>2010-05-15T11:20:38Z</time>
      </trkpt>
      <trkpt lat="48.57916" lon="1.81139">
        <ele>154</ele>
        <time>2010-05-15T11:20:39Z</time>
      </trkpt>
      <trkpt lat="48.57916" lon="1.81141">
        <ele>154</ele>
        <time>2010-05-15T11:20:40Z</time>
      </trkpt>
      <trkpt lat="48.57916" lon="1.81144">
        <ele>154</ele>
        <time>2010-05-15T11:20:41Z</time>
      </trkpt>
      <trkpt lat="48.57916" lon="1.81146">
        <ele>154</ele>
        <time>2010-05-15T11:20:42Z</time>
      </trkpt>
      <trkpt lat="48.57916" lon="1.81149">
        <ele>154</ele>
        <time>2010-05-15T11:20:43Z</time>
      </trkpt>
      <trkpt lat="48.57916" lon="1.81151">
        <ele>154</ele>
        <time>2010-05-15T11:20:44Z</time>
      </trkpt>
      <trkpt lat="48.57916" lon="1.81153">
        <ele>154</ele>
        <time>2010-05-15T11:20:45Z</time>
      </trkpt>
      <trkpt lat="48.57916" lon="1.81155">
        <ele>154</ele>
        <time>2010-05-15T11:20:46Z</time>
      </trkpt>
      <trkpt lat="48.57917" lon="1.81157">
        <ele>154</ele>
        <time>2010-05-15T11:20:47Z</time>
      </trkpt>
      <trkpt lat="48.57917" lon="1.8116">
        <ele>154</ele>
        <time>2010-05-15T11:20:48Z</time>
      </trkpt>
      <trkpt lat="48.57917" lon="1.81162">
        <ele>154</ele>
        <time>2010-05-15T11:20:49Z</time>
      </trkpt>
      <trkpt lat="48.57917" lon="1.81164">
        <ele>154</ele>
        <time>2010-05-15T11:20:50Z</time>
      </trkpt>
      <trkpt lat="48.57917" lon="1.81167">
        <ele>154</ele>
        <time>2010-05-15T11:20:51Z</time>
      </trkpt>
      <trkpt lat="48.57917" lon="1.81169">
        <ele>154</ele>
        <time>2010-05-15T11:20:52Z</time>
      </trkpt>
      <trkpt lat="48.57918" lon="1.81172">
        <ele>154</ele>
        <time>2010-05-15T11:20:53Z</time>
      </trkpt>
      <trkpt lat="48.57918" lon="1.81174">
        <ele>154</ele>
        <time>2010-05-15T11:20:54Z</time>
      </trkpt>
      <trkpt lat="48.57918" lon="1.81176">
        <ele>154</ele>
        <time>2010-05-15T11:20:55Z</time>
      </trkpt>
      <trkpt lat="48.57918" lon="1.81179">
        <ele>154</ele>
        <time>2010-05-15T11:20:56Z</time>
      </trkpt>
      <trkpt lat="48.57918" lon="1.81181">
        <ele>154</ele>
        <time>2010-05-15T11:20:57Z</time>
      </trkpt>
      <trkpt lat="48.57918" lon="1.81183">
        <ele>154</ele>
        <time>2010-05-15T11:20:58Z</time>
      </trkpt>
      <trkpt lat="48.57918" lon="1.81186">
        <ele>154</ele>
        <time>2010-05-15T11:20:59Z</time>
      </trkpt>
      <trkpt lat="48.57918" lon="1.81188">
        <ele>154</ele>
        <time>2010-05-15T11:21:00Z</time>
      </trkpt>
      <trkpt lat="48.57918" lon="1.81191">
        <ele>154</ele>
        <time>2010-05-15T11:21:01Z</time>
      </trkpt>
      <trkpt lat="48.57918" lon="1.81193">
        <ele>154</ele>
        <time>2010-05-15T11:21:02Z</time>
      </trkpt>
      <trkpt lat="48.57919" lon="1.81196">
        <ele>154</ele>
        <time>2010-05-15T11:21:03Z</time>
      </trkpt>
      <trkpt lat="48.57919" lon="1.81198">
        <ele>154</ele>
        <time>2010-05-15T11:21:04Z</time>
      </trkpt>
      <trkpt lat="48.57919" lon="1.812">
        <ele>154</ele>
        <time>2010-05-15T11:21:05Z</time>
      </trkpt>
      <trkpt lat="48.57919" lon="1.81202">
        <ele>154</ele>
        <time>2010-05-15T11:21:06Z</time>
      </trkpt>
      <trkpt lat="48.57919" lon="1.81205">
        <ele>154</ele>
        <time>2010-05-15T11:21:07Z</time>
      </trkpt>
      <trkpt lat="48.5792" lon="1.81207">
        <ele>154</ele>
        <time>2010-05-15T11:21:08Z</time>
      </trkpt>
      <trkpt lat="48.5792" lon="1.81209">
        <ele>154</ele>
        <time>2010-05-15T11:21:09Z</time>
      </trkpt>
      <trkpt lat="48.5792" lon="1.81212">
        <ele>154</ele>
        <time>2010-05-15T11:21:10Z</time>
      </trkpt>
      <trkpt lat="48.5792" lon="1.81215">
        <ele>154</ele>
        <time>2010-05-15T11:21:11Z</time>
      </trkpt>
      <trkpt lat="48.5792" lon="1.81217">
        <ele>154</ele>
        <time>2010-05-15T11:21:12Z</time>
      </trkpt>
      <trkpt lat="48.5792" lon="1.8122">
        <ele>154</ele>
        <time>2010-05-15T11:21:13Z</time>
      </trkpt>
      <trkpt lat="48.5792" lon="1.81222">
        <ele>154</ele>
        <time>2010-05-15T11:21:14Z</time>
      </trkpt>
      <trkpt lat="48.57921" lon="1.81225">
        <ele>154</ele>
        <time>2010-05-15T11:21:15Z</time>
      </trkpt>
      <trkpt lat="48.57921" lon="1.81227">
        <ele>154</ele>
        <time>2010-05-15T11:21:16Z</time>
      </trkpt>
      <trkpt lat="48.57921" lon="1.81229">
        <ele>154</ele>
        <time>2010-05-15T11:21:17Z</time>
      </trkpt>
      <trkpt lat="48.57921" lon="1.81232">
        <ele>154</ele>
        <time>2010-05-15T11:21:18Z</time>
      </trkpt>
      <trkpt lat="48.57921" lon="1.81234">
        <ele>154</ele>
        <time>2010-05-15T11:21:19Z</time>
      </trkpt>
      <trkpt lat="48.57921" lon="1.81236">
        <ele>154</ele>
        <time>2010-05-15T11:21:20Z</time>
      </trkpt>
      <trkpt lat="48.57921" lon="1.81239">
        <ele>154</ele>
        <time>2010-05-15T11:21:21Z</time>
      </trkpt>
      <trkpt lat="48.57922" lon="1.81241">
        <ele>154</ele>
        <time>2010-05-15T11:21:22Z</time>
      </trkpt>
      <trkpt lat="48.57922" lon="1.81243">
        <ele>154</ele>
        <time>2010-05-15T11:21:23Z</time>
      </trkpt>
      <trkpt lat="48.57922" lon="1.81246">
        <ele>154</ele>
        <time>2010-05-15T11:21:24Z</time>
      </trkpt>
      <trkpt lat="48.57922" lon="1.81248">
        <ele>154</ele>
        <time>2010-05-15T11:21:25Z</time>
      </trkpt>
      <trkpt lat="48.57922" lon="1.81251">
        <ele>154</ele>
        <time>2010-05-15T11:21:26Z</time>
      </trkpt>
      <trkpt lat="48.57922" lon="1.81253">
        <ele>154</ele>
        <time>2010-05-15T11:21:27Z</time>
      </trkpt>
      <trkpt lat="48.57923" lon="1.81256">
        <ele>154</ele>
        <time>2010-05-15T11:21:28Z</time>
      </trkpt>
      <trkpt lat="48.57923" lon="1.81258">
        <ele>154</ele>
        <time>2010-05-15T11:21:29Z</time>
      </trkpt>
      <trkpt lat="48.57923" lon="1.81261">
        <ele>154</ele>
        <time>2010-05-15T11:21:30Z</time>
      </trkpt>
      <trkpt lat="48.57923" lon="1.81263">
        <ele>154</ele>
        <time>2010-05-15T11:21:31Z</time>
      </trkpt>
      <trkpt lat="48.57923" lon="1.81266">
        <ele>154</ele>
        <time>2010-05-15T11:21:32Z</time>
      </trkpt>
      <trkpt lat="48.57923" lon="1.81268">
        <ele>154</ele>
        <time>2010-05-15T11:21:33Z</time>
      </trkpt>
      <trkpt lat="48.57923" lon="1.81271">
        <ele>154</ele>
        <time>2010-05-15T11:21:34Z</time>
      </trkpt>
      <trkpt lat="48.57923" lon="1.81273">
        <ele>154</ele>
        <time>2010-05-15T11:21:35Z</time>
      </trkpt>
      <trkpt lat="48.57923" lon="1.81276">
        <ele>154</ele>
        <time>2010-05-15T11:21:36Z</time>
      </trkpt>
      <trkpt lat="48.57924" lon="1.81278">
        <ele>154</ele>
        <time>2010-05-15T11:21:37Z</time>
      </trkpt>
      <trkpt lat="48.57924" lon="1.81281">
        <ele>154</ele>
        <time>2010-05-15T11:21:38Z</time>
      </trkpt>
      <trkpt lat="48.57924" lon="1.81283">
        <ele>154</ele>
        <time>2010-05-15T11:21:39Z</time>
      </trkpt>
      <trkpt lat="48.57924" lon="1.81286">
        <ele>154</ele>
        <time>2010-05-15T11:21:40Z</time>
      </trkpt>
      <trkpt lat="48.57924" lon="1.81288">
        <ele>154</ele>
        <time>2010-05-15T11:21:41Z</time>
      </trkpt>
      <trkpt lat="48.57924" lon="1.81291">
        <ele>154</ele>
        <time>2010-05-15T11:21:42Z</time>
      </trkpt>
      <trkpt lat="48.57924" lon="1.81293">
        <ele>154</ele>
        <time>2010-05-15T11:21:43Z</time>
      </trkpt>
      <trkpt lat="48.57924" lon="1.81295">
        <ele>154</ele>
        <time>2010-05-15T11:21:44Z</time>
      </trkpt>
      <trkpt lat="48.57925" lon="1.81298">
        <ele>154</ele>
        <time>2010-05-15T11:21:45Z</time>
      </trkpt>
      <trkpt lat="48.57925" lon="1.813">
        <ele>154</ele>
        <time>2010-05-15T11:21:46Z</time>
      </trkpt>
      <trkpt lat="48.57925" lon="1.81302">
        <ele>154</ele>
        <time>2010-05-15T11:21:47Z</time>
      </trkpt>
      <trkpt lat="48.57925" lon="1.81305">
        <ele>154</ele>
        <time>2010-05-15T11:21:48Z</time>
      </trkpt>
      <trkpt lat="48.57925" lon="1.81308">
        <ele>154</ele>
        <time>2010-05-15T11:21:49Z</time>
      </trkpt>
      <trkpt lat="48.57925" lon="1.8131">
        <ele>154</ele>
        <time>2010-05-15T11:21:50Z</time>
      </trkpt>
      <trkpt lat="48.57925" lon="1.81313">
        <ele>154</ele>
        <time>2010-05-15T11:21:51Z</time>
      </trkpt>
      <trkpt lat="48.57925" lon="1.81316">
        <ele>154</ele>
        <time>2010-05-15T11:21:52Z</time>
      </trkpt>
      <trkpt lat="48.57926" lon="1.81318">
        <ele>154</ele>
        <time>2010-05-15T11:21:53Z</time>
      </trkpt>
      <trkpt lat="48.57926" lon="1.81321">
        <ele>154</ele>
        <time>2010-05-15T11:21:54Z</time>
      </trkpt>
      <trkpt lat="48.57926" lon="1.81323">
        <ele>154</ele>
        <time>2010-05-15T11:21:55Z</time>
      </trkpt>
      <trkpt lat="48.57926" lon="1.81326">
        <ele>154</ele>
        <time>2010-05-15T11:21:56Z</time>
      </trkpt>
      <trkpt lat="48.57926" lon="1.81329">
        <ele>154</ele>
        <time>2010-05-15T11:21:57Z</time>
      </trkpt>
      <trkpt lat="48.57926" lon="1.81331">
        <ele>154</ele>
        <time>2010-05-15T11:21:58Z</time>
      </trkpt>
      <trkpt lat="48.57926" lon="1.81334">
        <ele>154</ele>
        <time>2010-05-15T11:21:59Z</time>
      </trkpt>
      <trkpt lat="48.57926" lon="1.81336">
        <ele>154</ele>
        <time>2010-05-15T11:22:00Z</time>
      </trkpt>
      <trkpt lat="48.57926" lon="1.81339">
        <ele>154</ele>
        <time>2010-05-15T11:22:01Z</time>
      </trkpt>
      <trkpt lat="48.57926" lon="1.81341">
        <ele>154</ele>
        <time>2010-05-15T11:22:02Z</time>
      </trkpt>
      <trkpt lat="48.57926" lon="1.81344">
        <ele>154</ele>
        <time>2010-05-15T11:22:03Z</time>
      </trkpt>
      <trkpt lat="48.57926" lon="1.81346">
        <ele>154</ele>
        <time>2010-05-15T11:22:04Z</time>
      </trkpt>
      <trkpt lat="48.57926" lon="1.81349">
        <ele>154</ele>
        <time>2010-05-15T11:22:05Z</time>
      </trkpt>
      <trkpt lat="48.57926" lon="1.81352">
        <ele>154</ele>
        <time>2010-05-15T11:22:06Z</time>
      </trkpt>
      <trkpt lat="48.57927" lon="1.81354">
        <ele>154</ele>
        <time>2010-05-15T11:22:07Z</time>
      </trkpt>
      <trkpt lat="48.57927" lon="1.81356">
        <ele>154</ele>
        <time>2010-05-15T11:22:08Z</time>
      </trkpt>
      <trkpt lat="48.57927" lon="1.81359">
        <ele>154</ele>
        <time>2010-05-15T11:22:09Z</time>
      </trkpt>
      <trkpt lat="48.57927" lon="1.81361">
        <ele>154</ele>
        <time>2010-05-15T11:22:10Z</time>
      </trkpt>
      <trkpt lat="48.57927" lon="1.81364">
        <ele>154</ele>
        <time>2010-05-15T11:22:11Z</time>
      </trkpt>
      <trkpt lat="48.57927" lon="1.81366">
        <ele>154</ele>
        <time>2010-05-15T11:22:12Z</time>
      </trkpt>
      <trkpt lat="48.57927" lon="1.81369">
        <ele>154</ele>
        <time>2010-05-15T11:22:13Z</time>
      </trkpt>
      <trkpt lat="48.57927" lon="1.81372">
        <ele>154</ele>
        <time>2010-05-15T11:22:14Z</time>
      </trkpt>
      <trkpt lat="48.57927" lon="1.81374">
        <ele>154</ele>
        <time>2010-05-15T11:22:15Z</time>
      </trkpt>
      <trkpt lat="48.57927" lon="1.81377">
        <ele>154</ele>
        <time>2010-05-15T11:22:16Z</time>
      </trkpt>
      <trkpt lat="48.57927" lon="1.81379">
        <ele>154</ele>
        <time>2010-05-15T11:22:17Z</time>
      </trkpt>
      <trkpt lat="48.57927" lon="1.81382">
        <ele>154</ele>
        <time>2010-05-15T11:22:18Z</time>
      </trkpt>
      <trkpt lat="48.57927" lon="1.81385">
        <ele>155</ele>
        <time>2010-05-15T11:22:19Z</time>
      </trkpt>
      <trkpt lat="48.57927" lon="1.81387">
        <ele>155</ele>
        <time>2010-05-15T11:22:20Z</time>
      </trkpt>
      <trkpt lat="48.57927" lon="1.8139">
        <ele>155</ele>
        <time>2010-05-15T11:22:21Z</time>
      </trkpt>
      <trkpt lat="48.57927" lon="1.81392">
        <ele>155</ele>
        <time>2010-05-15T11:22:22Z</time>
      </trkpt>
      <trkpt lat="48.57927" lon="1.81395">
        <ele>155</ele>
        <time>2010-05-15T11:22:23Z</time>
      </trkpt>
      <trkpt lat="48.57927" lon="1.81398">
        <ele>155</ele>
        <time>2010-05-15T11:22:24Z</time>
      </trkpt>
      <trkpt lat="48.57927" lon="1.814">
        <ele>155</ele>
        <time>2010-05-15T11:22:25Z</time>
      </trkpt>
      <trkpt lat="48.57927" lon="1.81403">
        <ele>155</ele>
        <time>2010-05-15T11:22:26Z</time>
      </trkpt>
      <trkpt lat="48.57927" lon="1.81405">
        <ele>155</ele>
        <time>2010-05-15T11:22:27Z</time>
      </trkpt>
      <trkpt lat="48.57927" lon="1.81408">
        <ele>155</ele>
        <time>2010-05-15T11:22:28Z</time>
      </trkpt>
      <trkpt lat="48.57927" lon="1.8141">
        <ele>155</ele>
        <time>2010-05-15T11:22:29Z</time>
      </trkpt>
      <trkpt lat="48.57927" lon="1.81413">
        <ele>155</ele>
        <time>2010-05-15T11:22:30Z</time>
      </trkpt>
      <trkpt lat="48.57927" lon="1.81415">
        <ele>155</ele>
        <time>2010-05-15T11:22:31Z</time>
      </trkpt>
      <trkpt lat="48.57927" lon="1.81418">
        <ele>155</ele>
        <time>2010-05-15T11:22:32Z</time>
      </trkpt>
      <trkpt lat="48.57927" lon="1.8142">
        <ele>155</ele>
        <time>2010-05-15T11:22:33Z</time>
      </trkpt>
      <trkpt lat="48.57926" lon="1.81422">
        <ele>155</ele>
        <time>2010-05-15T11:22:34Z</time>
      </trkpt>
      <trkpt lat="48.57926" lon="1.81424">
        <ele>155</ele>
        <time>2010-05-15T11:22:35Z</time>
      </trkpt>
      <trkpt lat="48.57926" lon="1.81427">
        <ele>155</ele>
        <time>2010-05-15T11:22:36Z</time>
      </trkpt>
      <trkpt lat="48.57926" lon="1.81429">
        <ele>155</ele>
        <time>2010-05-15T11:22:37Z</time>
      </trkpt>
      <trkpt lat="48.57926" lon="1.81432">
        <ele>155</ele>
        <time>2010-05-15T11:22:38Z</time>
      </trkpt>
      <trkpt lat="48.57926" lon="1.81435">
        <ele>155</ele>
        <time>2010-05-15T11:22:39Z</time>
      </trkpt>
      <trkpt lat="48.57926" lon="1.81438">
        <ele>155</ele>
        <time>2010-05-15T11:22:40Z</time>
      </trkpt>
      <trkpt lat="48.57926" lon="1.81441">
        <ele>155</ele>
        <time>2010-05-15T11:22:41Z</time>
      </trkpt>
      <trkpt lat="48.57926" lon="1.81444">
        <ele>155</ele>
        <time>2010-05-15T11:22:42Z</time>
      </trkpt>
      <trkpt lat="48.57926" lon="1.81446">
        <ele>155</ele>
        <time>2010-05-15T11:22:43Z</time>
      </trkpt>
      <trkpt lat="48.57926" lon="1.81449">
        <ele>155</ele>
        <time>2010-05-15T11:22:44Z</time>
      </trkpt>
      <trkpt lat="48.57925" lon="1.81451">
        <ele>155</ele>
        <time>2010-05-15T11:22:45Z</time>
      </trkpt>
      <trkpt lat="48.57925" lon="1.81453">
        <ele>155</ele>
        <time>2010-05-15T11:22:46Z</time>
      </trkpt>
      <trkpt lat="48.57925" lon="1.81456">
        <ele>156</ele>
        <time>2010-05-15T11:22:47Z</time>
      </trkpt>
      <trkpt lat="48.57925" lon="1.81459">
        <ele>156</ele>
        <time>2010-05-15T11:22:48Z</time>
      </trkpt>
      <trkpt lat="48.57924" lon="1.81461">
        <ele>156</ele>
        <time>2010-05-15T11:22:49Z</time>
      </trkpt>
      <trkpt lat="48.57924" lon="1.81464">
        <ele>156</ele>
        <time>2010-05-15T11:22:50Z</time>
      </trkpt>
      <trkpt lat="48.57924" lon="1.81466">
        <ele>156</ele>
        <time>2010-05-15T11:22:51Z</time>
      </trkpt>
      <trkpt lat="48.57924" lon="1.81469">
        <ele>156</ele>
        <time>2010-05-15T11:22:52Z</time>
      </trkpt>
      <trkpt lat="48.57923" lon="1.81471">
        <ele>156</ele>
        <time>2010-05-15T11:22:53Z</time>
      </trkpt>
      <trkpt lat="48.57923" lon="1.81474">
        <ele>156</ele>
        <time>2010-05-15T11:22:54Z</time>
      </trkpt>
      <trkpt lat="48.57923" lon="1.81476">
        <ele>156</ele>
        <time>2010-05-15T11:22:55Z</time>
      </trkpt>
      <trkpt lat="48.57923" lon="1.81479">
        <ele>156</ele>
        <time>2010-05-15T11:22:56Z</time>
      </trkpt>
      <trkpt lat="48.57922" lon="1.81482">
        <ele>156</ele>
        <time>2010-05-15T11:22:57Z</time>
      </trkpt>
      <trkpt lat="48.57922" lon="1.81484">
        <ele>156</ele>
        <time>2010-05-15T11:22:58Z</time>
      </trkpt>
      <trkpt lat="48.57922" lon="1.81487">
        <ele>156</ele>
        <time>2010-05-15T11:22:59Z</time>
      </trkpt>
      <trkpt lat="48.57922" lon="1.81489">
        <ele>156</ele>
        <time>2010-05-15T11:23:00Z</time>
      </trkpt>
      <trkpt lat="48.57922" lon="1.81492">
        <ele>156</ele>
        <time>2010-05-15T11:23:01Z</time>
      </trkpt>
      <trkpt lat="48.57922" lon="1.81494">
        <ele>157</ele>
        <time>2010-05-15T11:23:02Z</time>
      </trkpt>
      <trkpt lat="48.57921" lon="1.81496">
        <ele>157</ele>
        <time>2010-05-15T11:23:03Z</time>
      </trkpt>
      <trkpt lat="48.57921" lon="1.81499">
        <ele>157</ele>
        <time>2010-05-15T11:23:04Z</time>
      </trkpt>
      <trkpt lat="48.57921" lon="1.81501">
        <ele>157</ele>
        <time>2010-05-15T11:23:05Z</time>
      </trkpt>
      <trkpt lat="48.57921" lon="1.81504">
        <ele>157</ele>
        <time>2010-05-15T11:23:06Z</time>
      </trkpt>
      <trkpt lat="48.5792" lon="1.81506">
        <ele>157</ele>
        <time>2010-05-15T11:23:07Z</time>
      </trkpt>
      <trkpt lat="48.5792" lon="1.81509">
        <ele>157</ele>
        <time>2010-05-15T11:23:08Z</time>
      </trkpt>
      <trkpt lat="48.5792" lon="1.81512">
        <ele>157</ele>
        <time>2010-05-15T11:23:09Z</time>
      </trkpt>
      <trkpt lat="48.57919" lon="1.81514">
        <ele>157</ele>
        <time>2010-05-15T11:23:10Z</time>
      </trkpt>
      <trkpt lat="48.57919" lon="1.81517">
        <ele>157</ele>
        <time>2010-05-15T11:23:11Z</time>
      </trkpt>
      <trkpt lat="48.57918" lon="1.8152">
        <ele>157</ele>
        <time>2010-05-15T11:23:12Z</time>
      </trkpt>
      <trkpt lat="48.57918" lon="1.81522">
        <ele>157</ele>
        <time>2010-05-15T11:23:13Z</time>
      </trkpt>
      <trkpt lat="48.57918" lon="1.81525">
        <ele>157</ele>
        <time>2010-05-15T11:23:14Z</time>
      </trkpt>
      <trkpt lat="48.57917" lon="1.81527">
        <ele>157</ele>
        <time>2010-05-15T11:23:15Z</time>
      </trkpt>
      <trkpt lat="48.57917" lon="1.8153">
        <ele>157</ele>
        <time>2010-05-15T11:23:16Z</time>
      </trkpt>
      <trkpt lat="48.57917" lon="1.81533">
        <ele>157</ele>
        <time>2010-05-15T11:23:17Z</time>
      </trkpt>
      <trkpt lat="48.57916" lon="1.81535">
        <ele>157</ele>
        <time>2010-05-15T11:23:18Z</time>
      </trkpt>
      <trkpt lat="48.57916" lon="1.81538">
        <ele>157</ele>
        <time>2010-05-15T11:23:19Z</time>
      </trkpt>
      <trkpt lat="48.57916" lon="1.8154">
        <ele>157</ele>
        <time>2010-05-15T11:23:20Z</time>
      </trkpt>
      <trkpt lat="48.57916" lon="1.81543">
        <ele>157</ele>
        <time>2010-05-15T11:23:21Z</time>
      </trkpt>
      <trkpt lat="48.57916" lon="1.81545">
        <ele>157</ele>
        <time>2010-05-15T11:23:22Z</time>
      </trkpt>
      <trkpt lat="48.57915" lon="1.81547">
        <ele>157</ele>
        <time>2010-05-15T11:23:23Z</time>
      </trkpt>
      <trkpt lat="48.57916" lon="1.8155">
        <ele>157</ele>
        <time>2010-05-15T11:23:24Z</time>
      </trkpt>
      <trkpt lat="48.57916" lon="1.81552">
        <ele>157</ele>
        <time>2010-05-15T11:23:25Z</time>
      </trkpt>
      <trkpt lat="48.57916" lon="1.81554">
        <ele>157</ele>
        <time>2010-05-15T11:23:26Z</time>
      </trkpt>
      <trkpt lat="48.57916" lon="1.81556">
        <ele>157</ele>
        <time>2010-05-15T11:23:27Z</time>
      </trkpt>
      <trkpt lat="48.57916" lon="1.81558">
        <ele>157</ele>
        <time>2010-05-15T11:23:28Z</time>
      </trkpt>
      <trkpt lat="48.57915" lon="1.81561">
        <ele>157</ele>
        <time>2010-05-15T11:23:29Z</time>
      </trkpt>
      <trkpt lat="48.57915" lon="1.81563">
        <ele>157</ele>
        <time>2010-05-15T11:23:30Z</time>
      </trkpt>
      <trkpt lat="48.57915" lon="1.81566">
        <ele>157</ele>
        <time>2010-05-15T11:23:31Z</time>
      </trkpt>
      <trkpt lat="48.57914" lon="1.81568">
        <ele>157</ele>
        <time>2010-05-15T11:23:32Z</time>
      </trkpt>
      <trkpt lat="48.57914" lon="1.81571">
        <ele>157</ele>
        <time>2010-05-15T11:23:33Z</time>
      </trkpt>
      <trkpt lat="48.57914" lon="1.81573">
        <ele>157</ele>
        <time>2010-05-15T11:23:34Z</time>
      </trkpt>
      <trkpt lat="48.57913" lon="1.81575">
        <ele>157</ele>
        <time>2010-05-15T11:23:35Z</time>
      </trkpt>
      <trkpt lat="48.57913" lon="1.81578">
        <ele>157</ele>
        <time>2010-05-15T11:23:36Z</time>
      </trkpt>
      <trkpt lat="48.57913" lon="1.8158">
        <ele>157</ele>
        <time>2010-05-15T11:23:37Z</time>
      </trkpt>
      <trkpt lat="48.57913" lon="1.81583">
        <ele>157</ele>
        <time>2010-05-15T11:23:38Z</time>
      </trkpt>
      <trkpt lat="48.57912" lon="1.81586">
        <ele>157</ele>
        <time>2010-05-15T11:23:39Z</time>
      </trkpt>
      <trkpt lat="48.57912" lon="1.81588">
        <ele>157</ele>
        <time>2010-05-15T11:23:40Z</time>
      </trkpt>
      <trkpt lat="48.57912" lon="1.8159">
        <ele>157</ele>
        <time>2010-05-15T11:23:41Z</time>
      </trkpt>
      <trkpt lat="48.57911" lon="1.81593">
        <ele>157</ele>
        <time>2010-05-15T11:23:42Z</time>
      </trkpt>
      <trkpt lat="48.57911" lon="1.81595">
        <ele>157</ele>
        <time>2010-05-15T11:23:43Z</time>
      </trkpt>
      <trkpt lat="48.57911" lon="1.81598">
        <ele>157</ele>
        <time>2010-05-15T11:23:44Z</time>
      </trkpt>
      <trkpt lat="48.5791" lon="1.816">
        <ele>157</ele>
        <time>2010-05-15T11:23:45Z</time>
      </trkpt>
      <trkpt lat="48.5791" lon="1.81602">
        <ele>157</ele>
        <time>2010-05-15T11:23:46Z</time>
      </trkpt>
      <trkpt lat="48.5791" lon="1.81605">
        <ele>157</ele>
        <time>2010-05-15T11:23:47Z</time>
      </trkpt>
      <trkpt lat="48.57909" lon="1.81607">
        <ele>157</ele>
        <time>2010-05-15T11:23:48Z</time>
      </trkpt>
      <trkpt lat="48.57909" lon="1.81609">
        <ele>157</ele>
        <time>2010-05-15T11:23:49Z</time>
      </trkpt>
      <trkpt lat="48.57909" lon="1.81612">
        <ele>157</ele>
        <time>2010-05-15T11:23:50Z</time>
      </trkpt>
      <trkpt lat="48.57908" lon="1.81615">
        <ele>157</ele>
        <time>2010-05-15T11:23:51Z</time>
      </trkpt>
      <trkpt lat="48.57908" lon="1.81617">
        <ele>157</ele>
        <time>2010-05-15T11:23:52Z</time>
      </trkpt>
      <trkpt lat="48.57908" lon="1.8162">
        <ele>157</ele>
        <time>2010-05-15T11:23:53Z</time>
      </trkpt>
      <trkpt lat="48.57908" lon="1.81623">
        <ele>157</ele>
        <time>2010-05-15T11:23:54Z</time>
      </trkpt>
      <trkpt lat="48.57908" lon="1.81626">
        <ele>157</ele>
        <time>2010-05-15T11:23:55Z</time>
      </trkpt>
      <trkpt lat="48.57908" lon="1.81628">
        <ele>157</ele>
        <time>2010-05-15T11:23:56Z</time>
      </trkpt>
      <trkpt lat="48.57908" lon="1.81631">
        <ele>157</ele>
        <time>2010-05-15T11:23:57Z</time>
      </trkpt>
      <trkpt lat="48.57908" lon="1.81634">
        <ele>157</ele>
        <time>2010-05-15T11:23:58Z</time>
      </trkpt>
      <trkpt lat="48.57908" lon="1.81637">
        <ele>157</ele>
        <time>2010-05-15T11:23:59Z</time>
      </trkpt>
      <trkpt lat="48.57908" lon="1.81639">
        <ele>157</ele>
        <time>2010-05-15T11:24:00Z</time>
      </trkpt>
      <trkpt lat="48.57908" lon="1.81642">
        <ele>157</ele>
        <time>2010-05-15T11:24:01Z</time>
      </trkpt>
      <trkpt lat="48.57908" lon="1.81644">
        <ele>157</ele>
        <time>2010-05-15T11:24:02Z</time>
      </trkpt>
      <trkpt lat="48.57908" lon="1.81647">
        <ele>157</ele>
        <time>2010-05-15T11:24:03Z</time>
      </trkpt>
      <trkpt lat="48.57908" lon="1.81649">
        <ele>157</ele>
        <time>2010-05-15T11:24:04Z</time>
      </trkpt>
      <trkpt lat="48.57907" lon="1.81651">
        <ele>157</ele>
        <time>2010-05-15T11:24:05Z</time>
      </trkpt>
      <trkpt lat="48.57907" lon="1.81654">
        <ele>157</ele>
        <time>2010-05-15T11:24:06Z</time>
      </trkpt>
      <trkpt lat="48.57907" lon="1.81656">
        <ele>158</ele>
        <time>2010-05-15T11:24:07Z</time>
      </trkpt>
      <trkpt lat="48.57907" lon="1.81659">
        <ele>158</ele>
        <time>2010-05-15T11:24:08Z</time>
      </trkpt>
      <trkpt lat="48.57907" lon="1.81662">
        <ele>158</ele>
        <time>2010-05-15T11:24:09Z</time>
      </trkpt>
      <trkpt lat="48.57907" lon="1.81666">
        <ele>158</ele>
        <time>2010-05-15T11:24:10Z</time>
      </trkpt>
      <trkpt lat="48.57907" lon="1.81669">
        <ele>158</ele>
        <time>2010-05-15T11:24:11Z</time>
      </trkpt>
      <trkpt lat="48.57907" lon="1.81672">
        <ele>158</ele>
        <time>2010-05-15T11:24:12Z</time>
      </trkpt>
      <trkpt lat="48.57907" lon="1.81675">
        <ele>158</ele>
        <time>2010-05-15T11:24:13Z</time>
      </trkpt>
      <trkpt lat="48.57906" lon="1.81678">
        <ele>158</ele>
        <time>2010-05-15T11:24:14Z</time>
      </trkpt>
      <trkpt lat="48.57907" lon="1.8168">
        <ele>158</ele>
        <time>2010-05-15T11:24:15Z</time>
      </trkpt>
      <trkpt lat="48.57907" lon="1.81683">
        <ele>158</ele>
        <time>2010-05-15T11:24:16Z</time>
      </trkpt>
      <trkpt lat="48.57907" lon="1.81685">
        <ele>158</ele>
        <time>2010-05-15T11:24:17Z</time>
      </trkpt>
      <trkpt lat="48.57907" lon="1.81688">
        <ele>158</ele>
        <time>2010-05-15T11:24:18Z</time>
      </trkpt>
      <trkpt lat="48.57907" lon="1.8169">
        <ele>158</ele>
        <time>2010-05-15T11:24:19Z</time>
      </trkpt>
      <trkpt lat="48.57907" lon="1.81693">
        <ele>158</ele>
        <time>2010-05-15T11:24:20Z</time>
      </trkpt>
      <trkpt lat="48.57907" lon="1.81696">
        <ele>158</ele>
        <time>2010-05-15T11:24:21Z</time>
      </trkpt>
      <trkpt lat="48.57907" lon="1.81698">
        <ele>158</ele>
        <time>2010-05-15T11:24:22Z</time>
      </trkpt>
      <trkpt lat="48.57907" lon="1.81701">
        <ele>158</ele>
        <time>2010-05-15T11:24:23Z</time>
      </trkpt>
      <trkpt lat="48.57908" lon="1.81703">
        <ele>158</ele>
        <time>2010-05-15T11:24:24Z</time>
      </trkpt>
      <trkpt lat="48.57908" lon="1.81706">
        <ele>158</ele>
        <time>2010-05-15T11:24:25Z</time>
      </trkpt>
      <trkpt lat="48.57908" lon="1.81708">
        <ele>158</ele>
        <time>2010-05-15T11:24:26Z</time>
      </trkpt>
      <trkpt lat="48.57908" lon="1.81711">
        <ele>158</ele>
        <time>2010-05-15T11:24:27Z</time>
      </trkpt>
      <trkpt lat="48.57908" lon="1.81713">
        <ele>158</ele>
        <time>2010-05-15T11:24:28Z</time>
      </trkpt>
      <trkpt lat="48.57908" lon="1.81716">
        <ele>158</ele>
        <time>2010-05-15T11:24:29Z</time>
      </trkpt>
      <trkpt lat="48.57908" lon="1.81718">
        <ele>158</ele>
        <time>2010-05-15T11:24:30Z</time>
      </trkpt>
      <trkpt lat="48.57908" lon="1.8172">
        <ele>158</ele>
        <time>2010-05-15T11:24:31Z</time>
      </trkpt>
      <trkpt lat="48.57908" lon="1.81722">
        <ele>158</ele>
        <time>2010-05-15T11:24:32Z</time>
      </trkpt>
      <trkpt lat="48.57908" lon="1.81724">
        <ele>158</ele>
        <time>2010-05-15T11:24:33Z</time>
      </trkpt>
      <trkpt lat="48.57909" lon="1.81727">
        <ele>158</ele>
        <time>2010-05-15T11:24:34Z</time>
      </trkpt>
      <trkpt lat="48.57909" lon="1.81729">
        <ele>158</ele>
        <time>2010-05-15T11:24:35Z</time>
      </trkpt>
      <trkpt lat="48.57909" lon="1.81732">
        <ele>158</ele>
        <time>2010-05-15T11:24:36Z</time>
      </trkpt>
      <trkpt lat="48.57909" lon="1.81735">
        <ele>158</ele>
        <time>2010-05-15T11:24:37Z</time>
      </trkpt>
      <trkpt lat="48.57909" lon="1.81738">
        <ele>158</ele>
        <time>2010-05-15T11:24:38Z</time>
      </trkpt>
      <trkpt lat="48.57909" lon="1.8174">
        <ele>158</ele>
        <time>2010-05-15T11:24:39Z</time>
      </trkpt>
      <trkpt lat="48.57909" lon="1.81743">
        <ele>158</ele>
        <time>2010-05-15T11:24:40Z</time>
      </trkpt>
      <trkpt lat="48.57909" lon="1.81745">
        <ele>158</ele>
        <time>2010-05-15T11:24:41Z</time>
      </trkpt>
      <trkpt lat="48.57909" lon="1.81748">
        <ele>158</ele>
        <time>2010-05-15T11:24:42Z</time>
      </trkpt>
      <trkpt lat="48.57909" lon="1.8175">
        <ele>158</ele>
        <time>2010-05-15T11:24:43Z</time>
      </trkpt>
      <trkpt lat="48.57909" lon="1.81752">
        <ele>158</ele>
        <time>2010-05-15T11:24:44Z</time>
      </trkpt>
      <trkpt lat="48.57909" lon="1.81755">
        <ele>158</ele>
        <time>2010-05-15T11:24:45Z</time>
      </trkpt>
      <trkpt lat="48.57909" lon="1.81757">
        <ele>158</ele>
        <time>2010-05-15T11:24:46Z</time>
      </trkpt>
      <trkpt lat="48.57908" lon="1.81759">
        <ele>158</ele>
        <time>2010-05-15T11:24:47Z</time>
      </trkpt>
      <trkpt lat="48.57908" lon="1.81762">
        <ele>158</ele>
        <time>2010-05-15T11:24:48Z</time>
      </trkpt>
      <trkpt lat="48.57908" lon="1.81764">
        <ele>158</ele>
        <time>2010-05-15T11:24:49Z</time>
      </trkpt>
      <trkpt lat="48.57909" lon="1.81766">
        <ele>158</ele>
        <time>2010-05-15T11:24:50Z</time>
      </trkpt>
      <trkpt lat="48.57909" lon="1.81769">
        <ele>158</ele>
        <time>2010-05-15T11:24:51Z</time>
      </trkpt>
      <trkpt lat="48.57909" lon="1.81771">
        <ele>158</ele>
        <time>2010-05-15T11:24:52Z</time>
      </trkpt>
      <trkpt lat="48.57909" lon="1.81774">
        <ele>158</ele>
        <time>2010-05-15T11:24:53Z</time>
      </trkpt>
      <trkpt lat="48.57909" lon="1.81778">
        <ele>158</ele>
        <time>2010-05-15T11:24:54Z</time>
      </trkpt>
      <trkpt lat="48.57909" lon="1.8178">
        <ele>158</ele>
        <time>2010-05-15T11:24:55Z</time>
      </trkpt>
      <trkpt lat="48.57909" lon="1.81783">
        <ele>158</ele>
        <time>2010-05-15T11:24:56Z</time>
      </trkpt>
      <trkpt lat="48.57909" lon="1.81785">
        <ele>158</ele>
        <time>2010-05-15T11:24:57Z</time>
      </trkpt>
      <trkpt lat="48.57909" lon="1.81788">
        <ele>158</ele>
        <time>2010-05-15T11:24:58Z</time>
      </trkpt>
      <trkpt lat="48.57909" lon="1.8179">
        <ele>158</ele>
        <time>2010-05-15T11:24:59Z</time>
      </trkpt>
      <trkpt lat="48.5791" lon="1.81792">
        <ele>158</ele>
        <time>2010-05-15T11:25:00Z</time>
      </trkpt>
      <trkpt lat="48.5791" lon="1.81794">
        <ele>158</ele>
        <time>2010-05-15T11:25:01Z</time>
      </trkpt>
      <trkpt lat="48.5791" lon="1.81797">
        <ele>158</ele>
        <time>2010-05-15T11:25:02Z</time>
      </trkpt>
      <trkpt lat="48.5791" lon="1.81799">
        <ele>158</ele>
        <time>2010-05-15T11:25:03Z</time>
      </trkpt>
      <trkpt lat="48.5791" lon="1.81802">
        <ele>158</ele>
        <time>2010-05-15T11:25:04Z</time>
      </trkpt>
      <trkpt lat="48.5791" lon="1.81805">
        <ele>158</ele>
        <time>2010-05-15T11:25:05Z</time>
      </trkpt>
      <trkpt lat="48.5791" lon="1.81808">
        <ele>158</ele>
        <time>2010-05-15T11:25:06Z</time>
      </trkpt>
      <trkpt lat="48.5791" lon="1.8181">
        <ele>158</ele>
        <time>2010-05-15T11:25:07Z</time>
      </trkpt>
      <trkpt lat="48.5791" lon="1.81813">
        <ele>158</ele>
        <time>2010-05-15T11:25:08Z</time>
      </trkpt>
      <trkpt lat="48.5791" lon="1.81815">
        <ele>158</ele>
        <time>2010-05-15T11:25:09Z</time>
      </trkpt>
      <trkpt lat="48.5791" lon="1.81818">
        <ele>158</ele>
        <time>2010-05-15T11:25:10Z</time>
      </trkpt>
      <trkpt lat="48.5791" lon="1.81821">
        <ele>158</ele>
        <time>2010-05-15T11:25:11Z</time>
      </trkpt>
      <trkpt lat="48.5791" lon="1.81823">
        <ele>158</ele>
        <time>2010-05-15T11:25:12Z</time>
      </trkpt>
      <trkpt lat="48.5791" lon="1.81826">
        <ele>158</ele>
        <time>2010-05-15T11:25:13Z</time>
      </trkpt>
      <trkpt lat="48.5791" lon="1.81828">
        <ele>158</ele>
        <time>2010-05-15T11:25:14Z</time>
      </trkpt>
      <trkpt lat="48.5791" lon="1.81831">
        <ele>158</ele>
        <time>2010-05-15T11:25:15Z</time>
      </trkpt>
      <trkpt lat="48.57911" lon="1.81833">
        <ele>158</ele>
        <time>2010-05-15T11:25:16Z</time>
      </trkpt>
      <trkpt lat="48.57911" lon="1.81835">
        <ele>158</ele>
        <time>2010-05-15T11:25:17Z</time>
      </trkpt>
      <trkpt lat="48.5791" lon="1.81838">
        <ele>158</ele>
        <time>2010-05-15T11:25:18Z</time>
      </trkpt>
      <trkpt lat="48.5791" lon="1.81841">
        <ele>158</ele>
        <time>2010-05-15T11:25:19Z</time>
      </trkpt>
      <trkpt lat="48.5791" lon="1.81843">
        <ele>158</ele>
        <time>2010-05-15T11:25:20Z</time>
      </trkpt>
      <trkpt lat="48.5791" lon="1.81846">
        <ele>158</ele>
        <time>2010-05-15T11:25:21Z</time>
      </trkpt>
      <trkpt lat="48.57909" lon="1.81849">
        <ele>158</ele>
        <time>2010-05-15T11:25:22Z</time>
      </trkpt>
      <trkpt lat="48.57909" lon="1.81852">
        <ele>158</ele>
        <time>2010-05-15T11:25:23Z</time>
      </trkpt>
      <trkpt lat="48.57909" lon="1.81855">
        <ele>158</ele>
        <time>2010-05-15T11:25:24Z</time>
      </trkpt>
      <trkpt lat="48.57909" lon="1.81857">
        <ele>158</ele>
        <time>2010-05-15T11:25:25Z</time>
      </trkpt>
      <trkpt lat="48.57909" lon="1.8186">
        <ele>158</ele>
        <time>2010-05-15T11:25:26Z</time>
      </trkpt>
      <trkpt lat="48.57909" lon="1.81862">
        <ele>159</ele>
        <time>2010-05-15T11:25:27Z</time>
      </trkpt>
      <trkpt lat="48.57909" lon="1.81865">
        <ele>159</ele>
        <time>2010-05-15T11:25:28Z</time>
      </trkpt>
      <trkpt lat="48.57909" lon="1.81867">
        <ele>159</ele>
        <time>2010-05-15T11:25:29Z</time>
      </trkpt>
      <trkpt lat="48.57909" lon="1.8187">
        <ele>159</ele>
        <time>2010-05-15T11:25:30Z</time>
      </trkpt>
      <trkpt lat="48.57909" lon="1.81871">
        <ele>159</ele>
        <time>2010-05-15T11:25:31Z</time>
      </trkpt>
      <trkpt lat="48.57909" lon="1.81874">
        <ele>159</ele>
        <time>2010-05-15T11:25:32Z</time>
      </trkpt>
      <trkpt lat="48.57909" lon="1.81876">
        <ele>159</ele>
        <time>2010-05-15T11:25:33Z</time>
      </trkpt>
      <trkpt lat="48.57908" lon="1.81879">
        <ele>159</ele>
        <time>2010-05-15T11:25:34Z</time>
      </trkpt>
      <trkpt lat="48.57909" lon="1.81881">
        <ele>159</ele>
        <time>2010-05-15T11:25:35Z</time>
      </trkpt>
      <trkpt lat="48.57909" lon="1.81884">
        <ele>159</ele>
        <time>2010-05-15T11:25:36Z</time>
      </trkpt>
      <trkpt lat="48.57908" lon="1.81886">
        <ele>159</ele>
        <time>2010-05-15T11:25:37Z</time>
      </trkpt>
      <trkpt lat="48.57908" lon="1.81888">
        <ele>159</ele>
        <time>2010-05-15T11:25:38Z</time>
      </trkpt>
      <trkpt lat="48.57908" lon="1.81891">
        <ele>159</ele>
        <time>2010-05-15T11:25:39Z</time>
      </trkpt>
      <trkpt lat="48.57908" lon="1.81893">
        <ele>160</ele>
        <time>2010-05-15T11:25:40Z</time>
      </trkpt>
      <trkpt lat="48.57908" lon="1.81896">
        <ele>160</ele>
        <time>2010-05-15T11:25:41Z</time>
      </trkpt>
      <trkpt lat="48.57908" lon="1.81899">
        <ele>160</ele>
        <time>2010-05-15T11:25:42Z</time>
      </trkpt>
      <trkpt lat="48.57908" lon="1.81902">
        <ele>160</ele>
        <time>2010-05-15T11:25:43Z</time>
      </trkpt>
      <trkpt lat="48.57909" lon="1.81904">
        <ele>160</ele>
        <time>2010-05-15T11:25:44Z</time>
      </trkpt>
      <trkpt lat="48.57909" lon="1.81907">
        <ele>160</ele>
        <time>2010-05-15T11:25:45Z</time>
      </trkpt>
      <trkpt lat="48.57909" lon="1.8191">
        <ele>160</ele>
        <time>2010-05-15T11:25:46Z</time>
      </trkpt>
      <trkpt lat="48.57909" lon="1.81913">
        <ele>160</ele>
        <time>2010-05-15T11:25:47Z</time>
      </trkpt>
      <trkpt lat="48.57909" lon="1.81916">
        <ele>160</ele>
        <time>2010-05-15T11:25:48Z</time>
      </trkpt>
      <trkpt lat="48.57909" lon="1.81918">
        <ele>160</ele>
        <time>2010-05-15T11:25:49Z</time>
      </trkpt>
      <trkpt lat="48.57909" lon="1.81921">
        <ele>160</ele>
        <time>2010-05-15T11:25:50Z</time>
      </trkpt>
      <trkpt lat="48.57909" lon="1.81924">
        <ele>160</ele>
        <time>2010-05-15T11:25:51Z</time>
      </trkpt>
      <trkpt lat="48.57909" lon="1.81926">
        <ele>160</ele>
        <time>2010-05-15T11:25:52Z</time>
      </trkpt>
      <trkpt lat="48.57909" lon="1.81929">
        <ele>160</ele>
        <time>2010-05-15T11:25:53Z</time>
      </trkpt>
      <trkpt lat="48.57909" lon="1.81932">
        <ele>160</ele>
        <time>2010-05-15T11:25:54Z</time>
      </trkpt>
      <trkpt lat="48.57909" lon="1.81935">
        <ele>160</ele>
        <time>2010-05-15T11:25:55Z</time>
      </trkpt>
      <trkpt lat="48.57909" lon="1.81937">
        <ele>160</ele>
        <time>2010-05-15T11:25:56Z</time>
      </trkpt>
      <trkpt lat="48.57909" lon="1.8194">
        <ele>160</ele>
        <time>2010-05-15T11:25:57Z</time>
      </trkpt>
      <trkpt lat="48.57909" lon="1.81943">
        <ele>159</ele>
        <time>2010-05-15T11:25:58Z</time>
      </trkpt>
      <trkpt lat="48.57908" lon="1.81944">
        <ele>159</ele>
        <time>2010-05-15T11:25:59Z</time>
      </trkpt>
      <trkpt lat="48.57907" lon="1.81946">
        <ele>159</ele>
        <time>2010-05-15T11:26:00Z</time>
      </trkpt>
      <trkpt lat="48.57907" lon="1.81949">
        <ele>159</ele>
        <time>2010-05-15T11:26:01Z</time>
      </trkpt>
      <trkpt lat="48.57907" lon="1.81951">
        <ele>159</ele>
        <time>2010-05-15T11:26:02Z</time>
      </trkpt>
      <trkpt lat="48.57907" lon="1.81953">
        <ele>159</ele>
        <time>2010-05-15T11:26:03Z</time>
      </trkpt>
      <trkpt lat="48.57907" lon="1.81956">
        <ele>159</ele>
        <time>2010-05-15T11:26:04Z</time>
      </trkpt>
      <trkpt lat="48.57907" lon="1.81958">
        <ele>159</ele>
        <time>2010-05-15T11:26:05Z</time>
      </trkpt>
      <trkpt lat="48.57907" lon="1.81961">
        <ele>159</ele>
        <time>2010-05-15T11:26:06Z</time>
      </trkpt>
      <trkpt lat="48.57907" lon="1.81964">
        <ele>159</ele>
        <time>2010-05-15T11:26:07Z</time>
      </trkpt>
      <trkpt lat="48.57907" lon="1.81967">
        <ele>159</ele>
        <time>2010-05-15T11:26:08Z</time>
      </trkpt>
      <trkpt lat="48.57907" lon="1.8197">
        <ele>158</ele>
        <time>2010-05-15T11:26:09Z</time>
      </trkpt>
      <trkpt lat="48.57907" lon="1.81973">
        <ele>158</ele>
        <time>2010-05-15T11:26:10Z</time>
      </trkpt>
      <trkpt lat="48.57907" lon="1.81976">
        <ele>158</ele>
        <time>2010-05-15T11:26:11Z</time>
      </trkpt>
      <trkpt lat="48.57906" lon="1.81979">
        <ele>158</ele>
        <time>2010-05-15T11:26:12Z</time>
      </trkpt>
      <trkpt lat="48.57906" lon="1.81982">
        <ele>158</ele>
        <time>2010-05-15T11:26:13Z</time>
      </trkpt>
      <trkpt lat="48.57906" lon="1.81985">
        <ele>158</ele>
        <time>2010-05-15T11:26:14Z</time>
      </trkpt>
      <trkpt lat="48.57906" lon="1.81988">
        <ele>158</ele>
        <time>2010-05-15T11:26:15Z</time>
      </trkpt>
      <trkpt lat="48.57906" lon="1.81991">
        <ele>158</ele>
        <time>2010-05-15T11:26:16Z</time>
      </trkpt>
      <trkpt lat="48.57906" lon="1.81993">
        <ele>158</ele>
        <time>2010-05-15T11:26:17Z</time>
      </trkpt>
      <trkpt lat="48.57905" lon="1.81995">
        <ele>158</ele>
        <time>2010-05-15T11:26:18Z</time>
      </trkpt>
      <trkpt lat="48.57905" lon="1.81998">
        <ele>158</ele>
        <time>2010-05-15T11:26:19Z</time>
      </trkpt>
      <trkpt lat="48.57905" lon="1.82">
        <ele>158</ele>
        <time>2010-05-15T11:26:20Z</time>
      </trkpt>
      <trkpt lat="48.57905" lon="1.82003">
        <ele>158</ele>
        <time>2010-05-15T11:26:21Z</time>
      </trkpt>
      <trkpt lat="48.57905" lon="1.82006">
        <ele>158</ele>
        <time>2010-05-15T11:26:22Z</time>
      </trkpt>
      <trkpt lat="48.57905" lon="1.82009">
        <ele>158</ele>
        <time>2010-05-15T11:26:23Z</time>
      </trkpt>
      <trkpt lat="48.57905" lon="1.82012">
        <ele>158</ele>
        <time>2010-05-15T11:26:24Z</time>
      </trkpt>
      <trkpt lat="48.57905" lon="1.82014">
        <ele>158</ele>
        <time>2010-05-15T11:26:25Z</time>
      </trkpt>
      <trkpt lat="48.57905" lon="1.82016">
        <ele>158</ele>
        <time>2010-05-15T11:26:26Z</time>
      </trkpt>
      <trkpt lat="48.57905" lon="1.82019">
        <ele>158</ele>
        <time>2010-05-15T11:26:27Z</time>
      </trkpt>
      <trkpt lat="48.57906" lon="1.82021">
        <ele>158</ele>
        <time>2010-05-15T11:26:28Z</time>
      </trkpt>
      <trkpt lat="48.57906" lon="1.82024">
        <ele>158</ele>
        <time>2010-05-15T11:26:29Z</time>
      </trkpt>
      <trkpt lat="48.57906" lon="1.82026">
        <ele>158</ele>
        <time>2010-05-15T11:26:30Z</time>
      </trkpt>
      <trkpt lat="48.57905" lon="1.82029">
        <ele>158</ele>
        <time>2010-05-15T11:26:31Z</time>
      </trkpt>
      <trkpt lat="48.57905" lon="1.82031">
        <ele>158</ele>
        <time>2010-05-15T11:26:32Z</time>
      </trkpt>
      <trkpt lat="48.57905" lon="1.82034">
        <ele>158</ele>
        <time>2010-05-15T11:26:33Z</time>
      </trkpt>
      <trkpt lat="48.57905" lon="1.82036">
        <ele>158</ele>
        <time>2010-05-15T11:26:34Z</time>
      </trkpt>
      <trkpt lat="48.57904" lon="1.82039">
        <ele>158</ele>
        <time>2010-05-15T11:26:35Z</time>
      </trkpt>
      <trkpt lat="48.57904" lon="1.82041">
        <ele>158</ele>
        <time>2010-05-15T11:26:36Z</time>
      </trkpt>
      <trkpt lat="48.57904" lon="1.82044">
        <ele>158</ele>
        <time>2010-05-15T11:26:37Z</time>
      </trkpt>
      <trkpt lat="48.57904" lon="1.82047">
        <ele>158</ele>
        <time>2010-05-15T11:26:38Z</time>
      </trkpt>
      <trkpt lat="48.57903" lon="1.8205">
        <ele>158</ele>
        <time>2010-05-15T11:26:39Z</time>
      </trkpt>
      <trkpt lat="48.57903" lon="1.82053">
        <ele>158</ele>
        <time>2010-05-15T11:26:40Z</time>
      </trkpt>
      <trkpt lat="48.57903" lon="1.82056">
        <ele>158</ele>
        <time>2010-05-15T11:26:41Z</time>
      </trkpt>
      <trkpt lat="48.57903" lon="1.82058">
        <ele>158</ele>
        <time>2010-05-15T11:26:42Z</time>
      </trkpt>
      <trkpt lat="48.57903" lon="1.82061">
        <ele>158</ele>
        <time>2010-05-15T11:26:43Z</time>
      </trkpt>
      <trkpt lat="48.57903" lon="1.82063">
        <ele>158</ele>
        <time>2010-05-15T11:26:44Z</time>
      </trkpt>
      <trkpt lat="48.57903" lon="1.82065">
        <ele>158</ele>
        <time>2010-05-15T11:26:45Z</time>
      </trkpt>
      <trkpt lat="48.57903" lon="1.82068">
        <ele>158</ele>
        <time>2010-05-15T11:26:46Z</time>
      </trkpt>
      <trkpt lat="48.57903" lon="1.82071">
        <ele>158</ele>
        <time>2010-05-15T11:26:47Z</time>
      </trkpt>
      <trkpt lat="48.57903" lon="1.82073">
        <ele>158</ele>
        <time>2010-05-15T11:26:48Z</time>
      </trkpt>
      <trkpt lat="48.57903" lon="1.82076">
        <ele>158</ele>
        <time>2010-05-15T11:26:49Z</time>
      </trkpt>
      <trkpt lat="48.57902" lon="1.82078">
        <ele>158</ele>
        <time>2010-05-15T11:26:50Z</time>
      </trkpt>
      <trkpt lat="48.57902" lon="1.82082">
        <ele>158</ele>
        <time>2010-05-15T11:26:51Z</time>
      </trkpt>
      <trkpt lat="48.57902" lon="1.82085">
        <ele>158</ele>
        <time>2010-05-15T11:26:52Z</time>
      </trkpt>
      <trkpt lat="48.57902" lon="1.82088">
        <ele>158</ele>
        <time>2010-05-15T11:26:53Z</time>
      </trkpt>
      <trkpt lat="48.57902" lon="1.82091">
        <ele>158</ele>
        <time>2010-05-15T11:26:54Z</time>
      </trkpt>
      <trkpt lat="48.57901" lon="1.82093">
        <ele>158</ele>
        <time>2010-05-15T11:26:55Z</time>
      </trkpt>
      <trkpt lat="48.57901" lon="1.82096">
        <ele>158</ele>
        <time>2010-05-15T11:26:56Z</time>
      </trkpt>
      <trkpt lat="48.57901" lon="1.82099">
        <ele>158</ele>
        <time>2010-05-15T11:26:57Z</time>
      </trkpt>
      <trkpt lat="48.57901" lon="1.82101">
        <ele>158</ele>
        <time>2010-05-15T11:26:58Z</time>
      </trkpt>
      <trkpt lat="48.57901" lon="1.82104">
        <ele>158</ele>
        <time>2010-05-15T11:26:59Z</time>
      </trkpt>
      <trkpt lat="48.579" lon="1.82107">
        <ele>158</ele>
        <time>2010-05-15T11:27:00Z</time>
      </trkpt>
      <trkpt lat="48.57899" lon="1.82109">
        <ele>158</ele>
        <time>2010-05-15T11:27:01Z</time>
      </trkpt>
      <trkpt lat="48.57899" lon="1.82111">
        <ele>158</ele>
        <time>2010-05-15T11:27:02Z</time>
      </trkpt>
      <trkpt lat="48.57899" lon="1.82114">
        <ele>158</ele>
        <time>2010-05-15T11:27:03Z</time>
      </trkpt>
      <trkpt lat="48.57899" lon="1.82116">
        <ele>158</ele>
        <time>2010-05-15T11:27:04Z</time>
      </trkpt>
      <trkpt lat="48.57899" lon="1.82119">
        <ele>158</ele>
        <time>2010-05-15T11:27:05Z</time>
      </trkpt>
      <trkpt lat="48.57899" lon="1.82122">
        <ele>158</ele>
        <time>2010-05-15T11:27:06Z</time>
      </trkpt>
      <trkpt lat="48.57899" lon="1.82125">
        <ele>158</ele>
        <time>2010-05-15T11:27:07Z</time>
      </trkpt>
      <trkpt lat="48.57899" lon="1.82128">
        <ele>158</ele>
        <time>2010-05-15T11:27:08Z</time>
      </trkpt>
      <trkpt lat="48.57898" lon="1.82131">
        <ele>158</ele>
        <time>2010-05-15T11:27:09Z</time>
      </trkpt>
      <trkpt lat="48.57897" lon="1.82134">
        <ele>158</ele>
        <time>2010-05-15T11:27:10Z</time>
      </trkpt>
      <trkpt lat="48.57897" lon="1.82137">
        <ele>158</ele>
        <time>2010-05-15T11:27:11Z</time>
      </trkpt>
      <trkpt lat="48.57897" lon="1.82141">
        <ele>158</ele>
        <time>2010-05-15T11:27:12Z</time>
      </trkpt>
      <trkpt lat="48.57897" lon="1.82144">
        <ele>158</ele>
        <time>2010-05-15T11:27:13Z</time>
      </trkpt>
      <trkpt lat="48.57896" lon="1.82147">
        <ele>158</ele>
        <time>2010-05-15T11:27:14Z</time>
      </trkpt>
      <trkpt lat="48.57896" lon="1.82149">
        <ele>158</ele>
        <time>2010-05-15T11:27:15Z</time>
      </trkpt>
      <trkpt lat="48.57896" lon="1.82153">
        <ele>158</ele>
        <time>2010-05-15T11:27:16Z</time>
      </trkpt>
      <trkpt lat="48.57896" lon="1.82156">
        <ele>158</ele>
        <time>2010-05-15T11:27:17Z</time>
      </trkpt>
      <trkpt lat="48.57896" lon="1.82158">
        <ele>158</ele>
        <time>2010-05-15T11:27:18Z</time>
      </trkpt>
      <trkpt lat="48.57896" lon="1.82161">
        <ele>158</ele>
        <time>2010-05-15T11:27:19Z</time>
      </trkpt>
      <trkpt lat="48.57896" lon="1.82163">
        <ele>158</ele>
        <time>2010-05-15T11:27:20Z</time>
      </trkpt>
      <trkpt lat="48.57895" lon="1.82166">
        <ele>158</ele>
        <time>2010-05-15T11:27:22Z</time>
      </trkpt>
      <trkpt lat="48.57895" lon="1.82168">
        <ele>158</ele>
        <time>2010-05-15T11:27:23Z</time>
      </trkpt>
      <trkpt lat="48.57894" lon="1.82171">
        <ele>158</ele>
        <time>2010-05-15T11:27:24Z</time>
      </trkpt>
      <trkpt lat="48.57894" lon="1.82173">
        <ele>158</ele>
        <time>2010-05-15T11:27:25Z</time>
      </trkpt>
      <trkpt lat="48.57894" lon="1.82176">
        <ele>158</ele>
        <time>2010-05-15T11:27:26Z</time>
      </trkpt>
      <trkpt lat="48.57894" lon="1.82178">
        <ele>158</ele>
        <time>2010-05-15T11:27:27Z</time>
      </trkpt>
      <trkpt lat="48.57893" lon="1.82181">
        <ele>158</ele>
        <time>2010-05-15T11:27:28Z</time>
      </trkpt>
      <trkpt lat="48.57893" lon="1.82184">
        <ele>158</ele>
        <time>2010-05-15T11:27:29Z</time>
      </trkpt>
      <trkpt lat="48.57893" lon="1.82186">
        <ele>158</ele>
        <time>2010-05-15T11:27:30Z</time>
      </trkpt>
      <trkpt lat="48.57893" lon="1.82188">
        <ele>158</ele>
        <time>2010-05-15T11:27:31Z</time>
      </trkpt>
      <trkpt lat="48.57892" lon="1.82191">
        <ele>158</ele>
        <time>2010-05-15T11:27:32Z</time>
      </trkpt>
      <trkpt lat="48.57892" lon="1.82194">
        <ele>158</ele>
        <time>2010-05-15T11:27:33Z</time>
      </trkpt>
      <trkpt lat="48.57892" lon="1.82196">
        <ele>158</ele>
        <time>2010-05-15T11:27:34Z</time>
      </trkpt>
      <trkpt lat="48.57892" lon="1.82199">
        <ele>158</ele>
        <time>2010-05-15T11:27:35Z</time>
      </trkpt>
      <trkpt lat="48.57892" lon="1.82202">
        <ele>158</ele>
        <time>2010-05-15T11:27:36Z</time>
      </trkpt>
      <trkpt lat="48.57892" lon="1.82204">
        <ele>158</ele>
        <time>2010-05-15T11:27:37Z</time>
      </trkpt>
      <trkpt lat="48.57892" lon="1.82207">
        <ele>158</ele>
        <time>2010-05-15T11:27:38Z</time>
      </trkpt>
      <trkpt lat="48.57891" lon="1.82209">
        <ele>158</ele>
        <time>2010-05-15T11:27:39Z</time>
      </trkpt>
      <trkpt lat="48.57891" lon="1.82211">
        <ele>159</ele>
        <time>2010-05-15T11:27:40Z</time>
      </trkpt>
      <trkpt lat="48.57891" lon="1.82214">
        <ele>159</ele>
        <time>2010-05-15T11:27:41Z</time>
      </trkpt>
      <trkpt lat="48.57891" lon="1.82217">
        <ele>159</ele>
        <time>2010-05-15T11:27:42Z</time>
      </trkpt>
      <trkpt lat="48.5789" lon="1.82219">
        <ele>159</ele>
        <time>2010-05-15T11:27:43Z</time>
      </trkpt>
      <trkpt lat="48.5789" lon="1.82222">
        <ele>159</ele>
        <time>2010-05-15T11:27:44Z</time>
      </trkpt>
      <trkpt lat="48.5789" lon="1.82225">
        <ele>159</ele>
        <time>2010-05-15T11:27:45Z</time>
      </trkpt>
      <trkpt lat="48.5789" lon="1.82228">
        <ele>159</ele>
        <time>2010-05-15T11:27:46Z</time>
      </trkpt>
      <trkpt lat="48.57889" lon="1.8223">
        <ele>159</ele>
        <time>2010-05-15T11:27:47Z</time>
      </trkpt>
      <trkpt lat="48.57889" lon="1.82233">
        <ele>159</ele>
        <time>2010-05-15T11:27:48Z</time>
      </trkpt>
      <trkpt lat="48.5789" lon="1.82236">
        <ele>159</ele>
        <time>2010-05-15T11:27:49Z</time>
      </trkpt>
      <trkpt lat="48.57889" lon="1.82239">
        <ele>159</ele>
        <time>2010-05-15T11:27:50Z</time>
      </trkpt>
      <trkpt lat="48.57889" lon="1.82241">
        <ele>159</ele>
        <time>2010-05-15T11:27:51Z</time>
      </trkpt>
      <trkpt lat="48.57889" lon="1.82244">
        <ele>159</ele>
        <time>2010-05-15T11:27:52Z</time>
      </trkpt>
      <trkpt lat="48.57888" lon="1.82248">
        <ele>159</ele>
        <time>2010-05-15T11:27:53Z</time>
      </trkpt>
      <trkpt lat="48.57888" lon="1.82251">
        <ele>159</ele>
        <time>2010-05-15T11:27:54Z</time>
      </trkpt>
      <trkpt lat="48.57888" lon="1.82254">
        <ele>159</ele>
        <time>2010-05-15T11:27:55Z</time>
      </trkpt>
      <trkpt lat="48.57888" lon="1.82256">
        <ele>159</ele>
        <time>2010-05-15T11:27:56Z</time>
      </trkpt>
      <trkpt lat="48.57888" lon="1.82258">
        <ele>159</ele>
        <time>2010-05-15T11:27:57Z</time>
      </trkpt>
      <trkpt lat="48.57888" lon="1.82261">
        <ele>159</ele>
        <time>2010-05-15T11:27:58Z</time>
      </trkpt>
      <trkpt lat="48.57887" lon="1.82264">
        <ele>159</ele>
        <time>2010-05-15T11:27:59Z</time>
      </trkpt>
      <trkpt lat="48.57887" lon="1.82267">
        <ele>159</ele>
        <time>2010-05-15T11:28:00Z</time>
      </trkpt>
      <trkpt lat="48.57887" lon="1.8227">
        <ele>159</ele>
        <time>2010-05-15T11:28:01Z</time>
      </trkpt>
      <trkpt lat="48.57887" lon="1.82273">
        <ele>159</ele>
        <time>2010-05-15T11:28:02Z</time>
      </trkpt>
      <trkpt lat="48.57887" lon="1.82276">
        <ele>159</ele>
        <time>2010-05-15T11:28:03Z</time>
      </trkpt>
      <trkpt lat="48.57887" lon="1.82278">
        <ele>159</ele>
        <time>2010-05-15T11:28:04Z</time>
      </trkpt>
      <trkpt lat="48.57887" lon="1.8228">
        <ele>159</ele>
        <time>2010-05-15T11:28:05Z</time>
      </trkpt>
      <trkpt lat="48.57887" lon="1.82283">
        <ele>159</ele>
        <time>2010-05-15T11:28:06Z</time>
      </trkpt>
      <trkpt lat="48.57887" lon="1.82286">
        <ele>159</ele>
        <time>2010-05-15T11:28:07Z</time>
      </trkpt>
      <trkpt lat="48.57886" lon="1.8229">
        <ele>159</ele>
        <time>2010-05-15T11:28:09Z</time>
      </trkpt>
      <trkpt lat="48.57886" lon="1.82292">
        <ele>159</ele>
        <time>2010-05-15T11:28:10Z</time>
      </trkpt>
      <trkpt lat="48.57885" lon="1.82294">
        <ele>159</ele>
        <time>2010-05-15T11:28:11Z</time>
      </trkpt>
      <trkpt lat="48.57885" lon="1.82296">
        <ele>159</ele>
        <time>2010-05-15T11:28:12Z</time>
      </trkpt>
      <trkpt lat="48.57885" lon="1.82299">
        <ele>159</ele>
        <time>2010-05-15T11:28:13Z</time>
      </trkpt>
      <trkpt lat="48.57885" lon="1.82301">
        <ele>159</ele>
        <time>2010-05-15T11:28:14Z</time>
      </trkpt>
      <trkpt lat="48.57884" lon="1.82305">
        <ele>159</ele>
        <time>2010-05-15T11:28:16Z</time>
      </trkpt>
      <trkpt lat="48.57884" lon="1.82307">
        <ele>159</ele>
        <time>2010-05-15T11:28:17Z</time>
      </trkpt>
      <trkpt lat="48.57884" lon="1.82309">
        <ele>160</ele>
        <time>2010-05-15T11:28:18Z</time>
      </trkpt>
      <trkpt lat="48.57884" lon="1.82312">
        <ele>160</ele>
        <time>2010-05-15T11:28:19Z</time>
      </trkpt>
      <trkpt lat="48.57884" lon="1.82314">
        <ele>161</ele>
        <time>2010-05-15T11:28:20Z</time>
      </trkpt>
      <trkpt lat="48.57884" lon="1.82316">
        <ele>161</ele>
        <time>2010-05-15T11:28:21Z</time>
      </trkpt>
      <trkpt lat="48.57884" lon="1.82319">
        <ele>161</ele>
        <time>2010-05-15T11:28:22Z</time>
      </trkpt>
      <trkpt lat="48.57884" lon="1.82321">
        <ele>161</ele>
        <time>2010-05-15T11:28:23Z</time>
      </trkpt>
      <trkpt lat="48.57884" lon="1.82323">
        <ele>162</ele>
        <time>2010-05-15T11:28:24Z</time>
      </trkpt>
      <trkpt lat="48.57884" lon="1.82326">
        <ele>162</ele>
        <time>2010-05-15T11:28:25Z</time>
      </trkpt>
      <trkpt lat="48.57883" lon="1.82328">
        <ele>162</ele>
        <time>2010-05-15T11:28:26Z</time>
      </trkpt>
      <trkpt lat="48.57883" lon="1.82331">
        <ele>162</ele>
        <time>2010-05-15T11:28:27Z</time>
      </trkpt>
      <trkpt lat="48.57883" lon="1.82333">
        <ele>162</ele>
        <time>2010-05-15T11:28:28Z</time>
      </trkpt>
      <trkpt lat="48.57883" lon="1.82335">
        <ele>162</ele>
        <time>2010-05-15T11:28:29Z</time>
      </trkpt>
      <trkpt lat="48.57883" lon="1.82337">
        <ele>162</ele>
        <time>2010-05-15T11:28:30Z</time>
      </trkpt>
      <trkpt lat="48.57882" lon="1.82339">
        <ele>162</ele>
        <time>2010-05-15T11:28:31Z</time>
      </trkpt>
      <trkpt lat="48.57882" lon="1.8234">
        <ele>163</ele>
        <time>2010-05-15T11:28:32Z</time>
      </trkpt>
      <trkpt lat="48.57882" lon="1.82342">
        <ele>163</ele>
        <time>2010-05-15T11:28:33Z</time>
      </trkpt>
      <trkpt lat="48.57882" lon="1.82344">
        <ele>164</ele>
        <time>2010-05-15T11:28:34Z</time>
      </trkpt>
      <trkpt lat="48.57882" lon="1.82347">
        <ele>164</ele>
        <time>2010-05-15T11:28:35Z</time>
      </trkpt>
      <trkpt lat="48.57881" lon="1.8235">
        <ele>164</ele>
        <time>2010-05-15T11:28:36Z</time>
      </trkpt>
      <trkpt lat="48.57881" lon="1.82353">
        <ele>165</ele>
        <time>2010-05-15T11:28:37Z</time>
      </trkpt>
      <trkpt lat="48.57881" lon="1.82356">
        <ele>165</ele>
        <time>2010-05-15T11:28:38Z</time>
      </trkpt>
      <trkpt lat="48.57881" lon="1.82358">
        <ele>165</ele>
        <time>2010-05-15T11:28:39Z</time>
      </trkpt>
      <trkpt lat="48.57881" lon="1.8236">
        <ele>165</ele>
        <time>2010-05-15T11:28:40Z</time>
      </trkpt>
      <trkpt lat="48.57881" lon="1.82363">
        <ele>165</ele>
        <time>2010-05-15T11:28:41Z</time>
      </trkpt>
      <trkpt lat="48.5788" lon="1.82366">
        <ele>165</ele>
        <time>2010-05-15T11:28:42Z</time>
      </trkpt>
      <trkpt lat="48.5788" lon="1.82368">
        <ele>165</ele>
        <time>2010-05-15T11:28:43Z</time>
      </trkpt>
      <trkpt lat="48.5788" lon="1.82371">
        <ele>165</ele>
        <time>2010-05-15T11:28:44Z</time>
      </trkpt>
      <trkpt lat="48.5788" lon="1.82374">
        <ele>165</ele>
        <time>2010-05-15T11:28:45Z</time>
      </trkpt>
      <trkpt lat="48.5788" lon="1.82376">
        <ele>165</ele>
        <time>2010-05-15T11:28:46Z</time>
      </trkpt>
      <trkpt lat="48.5788" lon="1.82378">
        <ele>166</ele>
        <time>2010-05-15T11:28:47Z</time>
      </trkpt>
      <trkpt lat="48.57879" lon="1.8238">
        <ele>166</ele>
        <time>2010-05-15T11:28:48Z</time>
      </trkpt>
      <trkpt lat="48.57879" lon="1.82383">
        <ele>166</ele>
        <time>2010-05-15T11:28:49Z</time>
      </trkpt>
      <trkpt lat="48.57879" lon="1.82385">
        <ele>166</ele>
        <time>2010-05-15T11:28:50Z</time>
      </trkpt>
      <trkpt lat="48.57879" lon="1.82387">
        <ele>166</ele>
        <time>2010-05-15T11:28:51Z</time>
      </trkpt>
      <trkpt lat="48.57878" lon="1.82389">
        <ele>166</ele>
        <time>2010-05-15T11:28:52Z</time>
      </trkpt>
      <trkpt lat="48.57878" lon="1.82392">
        <ele>166</ele>
        <time>2010-05-15T11:28:53Z</time>
      </trkpt>
      <trkpt lat="48.57878" lon="1.82394">
        <ele>166</ele>
        <time>2010-05-15T11:28:54Z</time>
      </trkpt>
      <trkpt lat="48.57878" lon="1.82397">
        <ele>166</ele>
        <time>2010-05-15T11:28:55Z</time>
      </trkpt>
      <trkpt lat="48.57877" lon="1.824">
        <ele>166</ele>
        <time>2010-05-15T11:28:56Z</time>
      </trkpt>
      <trkpt lat="48.57877" lon="1.82402">
        <ele>166</ele>
        <time>2010-05-15T11:28:57Z</time>
      </trkpt>
      <trkpt lat="48.57877" lon="1.82404">
        <ele>166</ele>
        <time>2010-05-15T11:28:58Z</time>
      </trkpt>
      <trkpt lat="48.57876" lon="1.82407">
        <ele>166</ele>
        <time>2010-05-15T11:28:59Z</time>
      </trkpt>
      <trkpt lat="48.57876" lon="1.82409">
        <ele>166</ele>
        <time>2010-05-15T11:29:00Z</time>
      </trkpt>
      <trkpt lat="48.57876" lon="1.82411">
        <ele>166</ele>
        <time>2010-05-15T11:29:01Z</time>
      </trkpt>
      <trkpt lat="48.57875" lon="1.82413">
        <ele>166</ele>
        <time>2010-05-15T11:29:02Z</time>
      </trkpt>
      <trkpt lat="48.57875" lon="1.82415">
        <ele>166</ele>
        <time>2010-05-15T11:29:03Z</time>
      </trkpt>
      <trkpt lat="48.57875" lon="1.82418">
        <ele>166</ele>
        <time>2010-05-15T11:29:04Z</time>
      </trkpt>
      <trkpt lat="48.57874" lon="1.8242">
        <ele>166</ele>
        <time>2010-05-15T11:29:05Z</time>
      </trkpt>
      <trkpt lat="48.57874" lon="1.82422">
        <ele>166</ele>
        <time>2010-05-15T11:29:06Z</time>
      </trkpt>
      <trkpt lat="48.57873" lon="1.82424">
        <ele>166</ele>
        <time>2010-05-15T11:29:07Z</time>
      </trkpt>
      <trkpt lat="48.57873" lon="1.82426">
        <ele>166</ele>
        <time>2010-05-15T11:29:08Z</time>
      </trkpt>
      <trkpt lat="48.57873" lon="1.82429">
        <ele>166</ele>
        <time>2010-05-15T11:29:09Z</time>
      </trkpt>
      <trkpt lat="48.57873" lon="1.82432">
        <ele>166</ele>
        <time>2010-05-15T11:29:10Z</time>
      </trkpt>
      <trkpt lat="48.57873" lon="1.82433">
        <ele>166</ele>
        <time>2010-05-15T11:29:11Z</time>
      </trkpt>
      <trkpt lat="48.57872" lon="1.82436">
        <ele>166</ele>
        <time>2010-05-15T11:29:12Z</time>
      </trkpt>
      <trkpt lat="48.57872" lon="1.82438">
        <ele>166</ele>
        <time>2010-05-15T11:29:13Z</time>
      </trkpt>
      <trkpt lat="48.57872" lon="1.82441">
        <ele>166</ele>
        <time>2010-05-15T11:29:14Z</time>
      </trkpt>
      <trkpt lat="48.57872" lon="1.82443">
        <ele>166</ele>
        <time>2010-05-15T11:29:15Z</time>
      </trkpt>
      <trkpt lat="48.57871" lon="1.82446">
        <ele>166</ele>
        <time>2010-05-15T11:29:16Z</time>
      </trkpt>
      <trkpt lat="48.57871" lon="1.82448">
        <ele>166</ele>
        <time>2010-05-15T11:29:17Z</time>
      </trkpt>
      <trkpt lat="48.57871" lon="1.8245">
        <ele>166</ele>
        <time>2010-05-15T11:29:18Z</time>
      </trkpt>
      <trkpt lat="48.57871" lon="1.82452">
        <ele>166</ele>
        <time>2010-05-15T11:29:19Z</time>
      </trkpt>
      <trkpt lat="48.5787" lon="1.82454">
        <ele>166</ele>
        <time>2010-05-15T11:29:20Z</time>
      </trkpt>
      <trkpt lat="48.5787" lon="1.82457">
        <ele>166</ele>
        <time>2010-05-15T11:29:21Z</time>
      </trkpt>
      <trkpt lat="48.5787" lon="1.82459">
        <ele>166</ele>
        <time>2010-05-15T11:29:22Z</time>
      </trkpt>
      <trkpt lat="48.5787" lon="1.82461">
        <ele>166</ele>
        <time>2010-05-15T11:29:23Z</time>
      </trkpt>
      <trkpt lat="48.57869" lon="1.82462">
        <ele>166</ele>
        <time>2010-05-15T11:29:24Z</time>
      </trkpt>
      <trkpt lat="48.57869" lon="1.82465">
        <ele>166</ele>
        <time>2010-05-15T11:29:26Z</time>
      </trkpt>
      <trkpt lat="48.57869" lon="1.82468">
        <ele>167</ele>
        <time>2010-05-15T11:29:27Z</time>
      </trkpt>
      <trkpt lat="48.57868" lon="1.82471">
        <ele>167</ele>
        <time>2010-05-15T11:29:28Z</time>
      </trkpt>
      <trkpt lat="48.57868" lon="1.82473">
        <ele>167</ele>
        <time>2010-05-15T11:29:29Z</time>
      </trkpt>
      <trkpt lat="48.57868" lon="1.82475">
        <ele>168</ele>
        <time>2010-05-15T11:29:30Z</time>
      </trkpt>
      <trkpt lat="48.57868" lon="1.82477">
        <ele>168</ele>
        <time>2010-05-15T11:29:31Z</time>
      </trkpt>
      <trkpt lat="48.57867" lon="1.82479">
        <ele>168</ele>
        <time>2010-05-15T11:29:32Z</time>
      </trkpt>
      <trkpt lat="48.57867" lon="1.82483">
        <ele>168</ele>
        <time>2010-05-15T11:29:34Z</time>
      </trkpt>
      <trkpt lat="48.57866" lon="1.82485">
        <ele>168</ele>
        <time>2010-05-15T11:29:35Z</time>
      </trkpt>
      <trkpt lat="48.57866" lon="1.82488">
        <ele>169</ele>
        <time>2010-05-15T11:29:36Z</time>
      </trkpt>
      <trkpt lat="48.57866" lon="1.8249">
        <ele>169</ele>
        <time>2010-05-15T11:29:37Z</time>
      </trkpt>
      <trkpt lat="48.57865" lon="1.82493">
        <ele>169</ele>
        <time>2010-05-15T11:29:38Z</time>
      </trkpt>
      <trkpt lat="48.57865" lon="1.82496">
        <ele>169</ele>
        <time>2010-05-15T11:29:39Z</time>
      </trkpt>
      <trkpt lat="48.57865" lon="1.82498">
        <ele>169</ele>
        <time>2010-05-15T11:29:40Z</time>
      </trkpt>
      <trkpt lat="48.57865" lon="1.825">
        <ele>169</ele>
        <time>2010-05-15T11:29:41Z</time>
      </trkpt>
      <trkpt lat="48.57865" lon="1.82502">
        <ele>169</ele>
        <time>2010-05-15T11:29:42Z</time>
      </trkpt>
      <trkpt lat="48.57864" lon="1.82504">
        <ele>169</ele>
        <time>2010-05-15T11:29:43Z</time>
      </trkpt>
      <trkpt lat="48.57864" lon="1.82508">
        <ele>169</ele>
        <time>2010-05-15T11:29:44Z</time>
      </trkpt>
      <trkpt lat="48.57863" lon="1.8251">
        <ele>169</ele>
        <time>2010-05-15T11:29:45Z</time>
      </trkpt>
      <trkpt lat="48.57863" lon="1.82513">
        <ele>169</ele>
        <time>2010-05-15T11:29:46Z</time>
      </trkpt>
      <trkpt lat="48.57863" lon="1.82516">
        <ele>169</ele>
        <time>2010-05-15T11:29:47Z</time>
      </trkpt>
      <trkpt lat="48.57863" lon="1.82518">
        <ele>169</ele>
        <time>2010-05-15T11:29:48Z</time>
      </trkpt>
      <trkpt lat="48.57862" lon="1.8252">
        <ele>169</ele>
        <time>2010-05-15T11:29:49Z</time>
      </trkpt>
      <trkpt lat="48.57862" lon="1.82521">
        <ele>170</ele>
        <time>2010-05-15T11:29:50Z</time>
      </trkpt>
      <trkpt lat="48.57862" lon="1.82524">
        <ele>170</ele>
        <time>2010-05-15T11:29:51Z</time>
      </trkpt>
      <trkpt lat="48.57862" lon="1.82526">
        <ele>170</ele>
        <time>2010-05-15T11:29:52Z</time>
      </trkpt>
      <trkpt lat="48.57862" lon="1.82528">
        <ele>170</ele>
        <time>2010-05-15T11:29:53Z</time>
      </trkpt>
      <trkpt lat="48.57861" lon="1.8253">
        <ele>170</ele>
        <time>2010-05-15T11:29:54Z</time>
      </trkpt>
      <trkpt lat="48.57861" lon="1.82533">
        <ele>170</ele>
        <time>2010-05-15T11:29:55Z</time>
      </trkpt>
      <trkpt lat="48.5786" lon="1.82536">
        <ele>170</ele>
        <time>2010-05-15T11:29:56Z</time>
      </trkpt>
      <trkpt lat="48.5786" lon="1.82538">
        <ele>170</ele>
        <time>2010-05-15T11:29:57Z</time>
      </trkpt>
      <trkpt lat="48.57859" lon="1.8254">
        <ele>170</ele>
        <time>2010-05-15T11:29:58Z</time>
      </trkpt>
      <trkpt lat="48.57859" lon="1.82543">
        <ele>170</ele>
        <time>2010-05-15T11:29:59Z</time>
      </trkpt>
      <trkpt lat="48.57858" lon="1.82545">
        <ele>170</ele>
        <time>2010-05-15T11:30:00Z</time>
      </trkpt>
      <trkpt lat="48.57858" lon="1.82547">
        <ele>170</ele>
        <time>2010-05-15T11:30:01Z</time>
      </trkpt>
      <trkpt lat="48.57858" lon="1.82549">
        <ele>170</ele>
        <time>2010-05-15T11:30:02Z</time>
      </trkpt>
      <trkpt lat="48.57857" lon="1.82551">
        <ele>171</ele>
        <time>2010-05-15T11:30:03Z</time>
      </trkpt>
      <trkpt lat="48.57857" lon="1.82554">
        <ele>171</ele>
        <time>2010-05-15T11:30:04Z</time>
      </trkpt>
      <trkpt lat="48.57856" lon="1.82557">
        <ele>171</ele>
        <time>2010-05-15T11:30:05Z</time>
      </trkpt>
      <trkpt lat="48.57856" lon="1.82561">
        <ele>171</ele>
        <time>2010-05-15T11:30:06Z</time>
      </trkpt>
      <trkpt lat="48.57855" lon="1.82564">
        <ele>171</ele>
        <time>2010-05-15T11:30:07Z</time>
      </trkpt>
      <trkpt lat="48.57855" lon="1.82566">
        <ele>171</ele>
        <time>2010-05-15T11:30:08Z</time>
      </trkpt>
      <trkpt lat="48.57855" lon="1.82568">
        <ele>171</ele>
        <time>2010-05-15T11:30:09Z</time>
      </trkpt>
      <trkpt lat="48.57854" lon="1.82571">
        <ele>171</ele>
        <time>2010-05-15T11:30:10Z</time>
      </trkpt>
      <trkpt lat="48.57854" lon="1.82573">
        <ele>171</ele>
        <time>2010-05-15T11:30:11Z</time>
      </trkpt>
      <trkpt lat="48.57853" lon="1.82575">
        <ele>171</ele>
        <time>2010-05-15T11:30:12Z</time>
      </trkpt>
      <trkpt lat="48.57852" lon="1.82577">
        <ele>171</ele>
        <time>2010-05-15T11:30:13Z</time>
      </trkpt>
      <trkpt lat="48.57852" lon="1.82579">
        <ele>171</ele>
        <time>2010-05-15T11:30:14Z</time>
      </trkpt>
      <trkpt lat="48.57851" lon="1.82582">
        <ele>171</ele>
        <time>2010-05-15T11:30:16Z</time>
      </trkpt>
      <trkpt lat="48.57851" lon="1.82585">
        <ele>171</ele>
        <time>2010-05-15T11:30:17Z</time>
      </trkpt>
      <trkpt lat="48.5785" lon="1.82588">
        <ele>171</ele>
        <time>2010-05-15T11:30:18Z</time>
      </trkpt>
      <trkpt lat="48.5785" lon="1.8259">
        <ele>171</ele>
        <time>2010-05-15T11:30:19Z</time>
      </trkpt>
      <trkpt lat="48.57849" lon="1.82592">
        <ele>171</ele>
        <time>2010-05-15T11:30:20Z</time>
      </trkpt>
      <trkpt lat="48.57849" lon="1.82595">
        <ele>171</ele>
        <time>2010-05-15T11:30:21Z</time>
      </trkpt>
      <trkpt lat="48.57848" lon="1.82597">
        <ele>171</ele>
        <time>2010-05-15T11:30:22Z</time>
      </trkpt>
      <trkpt lat="48.57848" lon="1.826">
        <ele>171</ele>
        <time>2010-05-15T11:30:23Z</time>
      </trkpt>
      <trkpt lat="48.57848" lon="1.82602">
        <ele>171</ele>
        <time>2010-05-15T11:30:24Z</time>
      </trkpt>
      <trkpt lat="48.57847" lon="1.82604">
        <ele>171</ele>
        <time>2010-05-15T11:30:25Z</time>
      </trkpt>
      <trkpt lat="48.57847" lon="1.82606">
        <ele>171</ele>
        <time>2010-05-15T11:30:26Z</time>
      </trkpt>
      <trkpt lat="48.57846" lon="1.82608">
        <ele>171</ele>
        <time>2010-05-15T11:30:27Z</time>
      </trkpt>
      <trkpt lat="48.57845" lon="1.8261">
        <ele>171</ele>
        <time>2010-05-15T11:30:28Z</time>
      </trkpt>
      <trkpt lat="48.57845" lon="1.82612">
        <ele>171</ele>
        <time>2010-05-15T11:30:29Z</time>
      </trkpt>
      <trkpt lat="48.57845" lon="1.82615">
        <ele>171</ele>
        <time>2010-05-15T11:30:30Z</time>
      </trkpt>
      <trkpt lat="48.57844" lon="1.82617">
        <ele>171</ele>
        <time>2010-05-15T11:30:31Z</time>
      </trkpt>
      <trkpt lat="48.57843" lon="1.82619">
        <ele>171</ele>
        <time>2010-05-15T11:30:32Z</time>
      </trkpt>
      <trkpt lat="48.57843" lon="1.82621">
        <ele>171</ele>
        <time>2010-05-15T11:30:33Z</time>
      </trkpt>
      <trkpt lat="48.57842" lon="1.82623">
        <ele>171</ele>
        <time>2010-05-15T11:30:34Z</time>
      </trkpt>
      <trkpt lat="48.57842" lon="1.82625">
        <ele>171</ele>
        <time>2010-05-15T11:30:35Z</time>
      </trkpt>
      <trkpt lat="48.57841" lon="1.82628">
        <ele>171</ele>
        <time>2010-05-15T11:30:36Z</time>
      </trkpt>
      <trkpt lat="48.57841" lon="1.82631">
        <ele>171</ele>
        <time>2010-05-15T11:30:38Z</time>
      </trkpt>
      <trkpt lat="48.5784" lon="1.82633">
        <ele>171</ele>
        <time>2010-05-15T11:30:39Z</time>
      </trkpt>
      <trkpt lat="48.57839" lon="1.82637">
        <ele>171</ele>
        <time>2010-05-15T11:30:41Z</time>
      </trkpt>
      <trkpt lat="48.57838" lon="1.82639">
        <ele>171</ele>
        <time>2010-05-15T11:30:42Z</time>
      </trkpt>
      <trkpt lat="48.57837" lon="1.82642">
        <ele>171</ele>
        <time>2010-05-15T11:30:43Z</time>
      </trkpt>
      <trkpt lat="48.57836" lon="1.82645">
        <ele>171</ele>
        <time>2010-05-15T11:30:44Z</time>
      </trkpt>
      <trkpt lat="48.57836" lon="1.82647">
        <ele>171</ele>
        <time>2010-05-15T11:30:45Z</time>
      </trkpt>
      <trkpt lat="48.57836" lon="1.82649">
        <ele>171</ele>
        <time>2010-05-15T11:30:46Z</time>
      </trkpt>
      <trkpt lat="48.57835" lon="1.82651">
        <ele>171</ele>
        <time>2010-05-15T11:30:47Z</time>
      </trkpt>
      <trkpt lat="48.57835" lon="1.82654">
        <ele>172</ele>
        <time>2010-05-15T11:30:49Z</time>
      </trkpt>
      <trkpt lat="48.57834" lon="1.82657">
        <ele>173</ele>
        <time>2010-05-15T11:30:51Z</time>
      </trkpt>
      <trkpt lat="48.57833" lon="1.82661">
        <ele>175</ele>
        <time>2010-05-15T11:30:53Z</time>
      </trkpt>
      <trkpt lat="48.57833" lon="1.82663">
        <ele>175</ele>
        <time>2010-05-15T11:30:54Z</time>
      </trkpt>
      <trkpt lat="48.57832" lon="1.82665">
        <ele>176</ele>
        <time>2010-05-15T11:30:55Z</time>
      </trkpt>
      <trkpt lat="48.57832" lon="1.82668">
        <ele>176</ele>
        <time>2010-05-15T11:30:56Z</time>
      </trkpt>
      <trkpt lat="48.57831" lon="1.82671">
        <ele>177</ele>
        <time>2010-05-15T11:30:57Z</time>
      </trkpt>
      <trkpt lat="48.57831" lon="1.82672">
        <ele>177</ele>
        <time>2010-05-15T11:30:58Z</time>
      </trkpt>
      <trkpt lat="48.5783" lon="1.82674">
        <ele>178</ele>
        <time>2010-05-15T11:30:59Z</time>
      </trkpt>
      <trkpt lat="48.5783" lon="1.82677">
        <ele>179</ele>
        <time>2010-05-15T11:31:01Z</time>
      </trkpt>
      <trkpt lat="48.57829" lon="1.82679">
        <ele>180</ele>
        <time>2010-05-15T11:31:02Z</time>
      </trkpt>
      <trkpt lat="48.57829" lon="1.82682">
        <ele>180</ele>
        <time>2010-05-15T11:31:03Z</time>
      </trkpt>
      <trkpt lat="48.57829" lon="1.82685">
        <ele>180</ele>
        <time>2010-05-15T11:31:04Z</time>
      </trkpt>
      <trkpt lat="48.57828" lon="1.82688">
        <ele>180</ele>
        <time>2010-05-15T11:31:05Z</time>
      </trkpt>
      <trkpt lat="48.57828" lon="1.82691">
        <ele>180</ele>
        <time>2010-05-15T11:31:06Z</time>
      </trkpt>
      <trkpt lat="48.57827" lon="1.82694">
        <ele>180</ele>
        <time>2010-05-15T11:31:07Z</time>
      </trkpt>
      <trkpt lat="48.57827" lon="1.82697">
        <ele>180</ele>
        <time>2010-05-15T11:31:08Z</time>
      </trkpt>
      <trkpt lat="48.57826" lon="1.82699">
        <ele>180</ele>
        <time>2010-05-15T11:31:09Z</time>
      </trkpt>
      <trkpt lat="48.57826" lon="1.82701">
        <ele>180</ele>
        <time>2010-05-15T11:31:10Z</time>
      </trkpt>
      <trkpt lat="48.57825" lon="1.82703">
        <ele>180</ele>
        <time>2010-05-15T11:31:11Z</time>
      </trkpt>
      <trkpt lat="48.57825" lon="1.82706">
        <ele>180</ele>
        <time>2010-05-15T11:31:12Z</time>
      </trkpt>
      <trkpt lat="48.57824" lon="1.82707">
        <ele>180</ele>
        <time>2010-05-15T11:31:13Z</time>
      </trkpt>
      <trkpt lat="48.57824" lon="1.8271">
        <ele>180</ele>
        <time>2010-05-15T11:31:14Z</time>
      </trkpt>
      <trkpt lat="48.57823" lon="1.82712">
        <ele>180</ele>
        <time>2010-05-15T11:31:15Z</time>
      </trkpt>
      <trkpt lat="48.57822" lon="1.82713">
        <ele>180</ele>
        <time>2010-05-15T11:31:16Z</time>
      </trkpt>
      <trkpt lat="48.57821" lon="1.82715">
        <ele>180</ele>
        <time>2010-05-15T11:31:17Z</time>
      </trkpt>
      <trkpt lat="48.5782" lon="1.82718">
        <ele>180</ele>
        <time>2010-05-15T11:31:19Z</time>
      </trkpt>
      <trkpt lat="48.5782" lon="1.8272">
        <ele>180</ele>
        <time>2010-05-15T11:31:20Z</time>
      </trkpt>
      <trkpt lat="48.57819" lon="1.82722">
        <ele>180</ele>
        <time>2010-05-15T11:31:21Z</time>
      </trkpt>
      <trkpt lat="48.57819" lon="1.82724">
        <ele>180</ele>
        <time>2010-05-15T11:31:22Z</time>
      </trkpt>
      <trkpt lat="48.57818" lon="1.82725">
        <ele>180</ele>
        <time>2010-05-15T11:31:23Z</time>
      </trkpt>
      <trkpt lat="48.57817" lon="1.82727">
        <ele>180</ele>
        <time>2010-05-15T11:31:24Z</time>
      </trkpt>
      <trkpt lat="48.57817" lon="1.82729">
        <ele>180</ele>
        <time>2010-05-15T11:31:25Z</time>
      </trkpt>
      <trkpt lat="48.57817" lon="1.82731">
        <ele>180</ele>
        <time>2010-05-15T11:31:26Z</time>
      </trkpt>
      <trkpt lat="48.57816" lon="1.82733">
        <ele>180</ele>
        <time>2010-05-15T11:31:27Z</time>
      </trkpt>
      <trkpt lat="48.57816" lon="1.82735">
        <ele>180</ele>
        <time>2010-05-15T11:31:28Z</time>
      </trkpt>
      <trkpt lat="48.57816" lon="1.82737">
        <ele>180</ele>
        <time>2010-05-15T11:31:29Z</time>
      </trkpt>
      <trkpt lat="48.57815" lon="1.82739">
        <ele>180</ele>
        <time>2010-05-15T11:31:30Z</time>
      </trkpt>
      <trkpt lat="48.57814" lon="1.82742">
        <ele>180</ele>
        <time>2010-05-15T11:31:31Z</time>
      </trkpt>
      <trkpt lat="48.57813" lon="1.82744">
        <ele>180</ele>
        <time>2010-05-15T11:31:32Z</time>
      </trkpt>
      <trkpt lat="48.57813" lon="1.82746">
        <ele>180</ele>
        <time>2010-05-15T11:31:33Z</time>
      </trkpt>
      <trkpt lat="48.57812" lon="1.82748">
        <ele>180</ele>
        <time>2010-05-15T11:31:34Z</time>
      </trkpt>
      <trkpt lat="48.57811" lon="1.8275">
        <ele>180</ele>
        <time>2010-05-15T11:31:35Z</time>
      </trkpt>
      <trkpt lat="48.5781" lon="1.82752">
        <ele>180</ele>
        <time>2010-05-15T11:31:36Z</time>
      </trkpt>
      <trkpt lat="48.57809" lon="1.82755">
        <ele>180</ele>
        <time>2010-05-15T11:31:38Z</time>
      </trkpt>
      <trkpt lat="48.57808" lon="1.82757">
        <ele>180</ele>
        <time>2010-05-15T11:31:39Z</time>
      </trkpt>
      <trkpt lat="48.57808" lon="1.8276">
        <ele>180</ele>
        <time>2010-05-15T11:31:40Z</time>
      </trkpt>
      <trkpt lat="48.57807" lon="1.82762">
        <ele>180</ele>
        <time>2010-05-15T11:31:41Z</time>
      </trkpt>
      <trkpt lat="48.57806" lon="1.82764">
        <ele>180</ele>
        <time>2010-05-15T11:31:42Z</time>
      </trkpt>
      <trkpt lat="48.57806" lon="1.82766">
        <ele>180</ele>
        <time>2010-05-15T11:31:43Z</time>
      </trkpt>
      <trkpt lat="48.57805" lon="1.82768">
        <ele>180</ele>
        <time>2010-05-15T11:31:44Z</time>
      </trkpt>
      <trkpt lat="48.57805" lon="1.8277">
        <ele>181</ele>
        <time>2010-05-15T11:31:45Z</time>
      </trkpt>
      <trkpt lat="48.57804" lon="1.82773">
        <ele>181</ele>
        <time>2010-05-15T11:31:46Z</time>
      </trkpt>
      <trkpt lat="48.57803" lon="1.82774">
        <ele>181</ele>
        <time>2010-05-15T11:31:47Z</time>
      </trkpt>
      <trkpt lat="48.57804" lon="1.82778">
        <ele>181</ele>
        <time>2010-05-15T11:31:48Z</time>
      </trkpt>
      <trkpt lat="48.57803" lon="1.82781">
        <ele>181</ele>
        <time>2010-05-15T11:31:49Z</time>
      </trkpt>
      <trkpt lat="48.57803" lon="1.82783">
        <ele>181</ele>
        <time>2010-05-15T11:31:50Z</time>
      </trkpt>
      <trkpt lat="48.57803" lon="1.82786">
        <ele>181</ele>
        <time>2010-05-15T11:31:51Z</time>
      </trkpt>
      <trkpt lat="48.57802" lon="1.82788">
        <ele>181</ele>
        <time>2010-05-15T11:31:52Z</time>
      </trkpt>
      <trkpt lat="48.57802" lon="1.82791">
        <ele>181</ele>
        <time>2010-05-15T11:31:53Z</time>
      </trkpt>
      <trkpt lat="48.57802" lon="1.82793">
        <ele>181</ele>
        <time>2010-05-15T11:31:54Z</time>
      </trkpt>
      <trkpt lat="48.57801" lon="1.82795">
        <ele>181</ele>
        <time>2010-05-15T11:31:55Z</time>
      </trkpt>
      <trkpt lat="48.57801" lon="1.82798">
        <ele>181</ele>
        <time>2010-05-15T11:31:56Z</time>
      </trkpt>
      <trkpt lat="48.578" lon="1.82801">
        <ele>181</ele>
        <time>2010-05-15T11:31:57Z</time>
      </trkpt>
      <trkpt lat="48.578" lon="1.82804">
        <ele>181</ele>
        <time>2010-05-15T11:31:58Z</time>
      </trkpt>
      <trkpt lat="48.57799" lon="1.82806">
        <ele>181</ele>
        <time>2010-05-15T11:31:59Z</time>
      </trkpt>
      <trkpt lat="48.57799" lon="1.82809">
        <ele>181</ele>
        <time>2010-05-15T11:32:00Z</time>
      </trkpt>
      <trkpt lat="48.57798" lon="1.82812">
        <ele>181</ele>
        <time>2010-05-15T11:32:01Z</time>
      </trkpt>
      <trkpt lat="48.57798" lon="1.82815">
        <ele>181</ele>
        <time>2010-05-15T11:32:02Z</time>
      </trkpt>
      <trkpt lat="48.57798" lon="1.82818">
        <ele>181</ele>
        <time>2010-05-15T11:32:03Z</time>
      </trkpt>
      <trkpt lat="48.57798" lon="1.82821">
        <ele>181</ele>
        <time>2010-05-15T11:32:05Z</time>
      </trkpt>
      <trkpt lat="48.57797" lon="1.82824">
        <ele>181</ele>
        <time>2010-05-15T11:32:06Z</time>
      </trkpt>
      <trkpt lat="48.57797" lon="1.82826">
        <ele>181</ele>
        <time>2010-05-15T11:32:07Z</time>
      </trkpt>
      <trkpt lat="48.57797" lon="1.82829">
        <ele>181</ele>
        <time>2010-05-15T11:32:08Z</time>
      </trkpt>
      <trkpt lat="48.57796" lon="1.82832">
        <ele>181</ele>
        <time>2010-05-15T11:32:09Z</time>
      </trkpt>
      <trkpt lat="48.57796" lon="1.82834">
        <ele>181</ele>
        <time>2010-05-15T11:32:10Z</time>
      </trkpt>
      <trkpt lat="48.57796" lon="1.82837">
        <ele>181</ele>
        <time>2010-05-15T11:32:11Z</time>
      </trkpt>
      <trkpt lat="48.57796" lon="1.82839">
        <ele>180</ele>
        <time>2010-05-15T11:32:12Z</time>
      </trkpt>
      <trkpt lat="48.57795" lon="1.82842">
        <ele>180</ele>
        <time>2010-05-15T11:32:13Z</time>
      </trkpt>
      <trkpt lat="48.57795" lon="1.82844">
        <ele>180</ele>
        <time>2010-05-15T11:32:14Z</time>
      </trkpt>
      <trkpt lat="48.57795" lon="1.82847">
        <ele>179</ele>
        <time>2010-05-15T11:32:15Z</time>
      </trkpt>
      <trkpt lat="48.57795" lon="1.8285">
        <ele>179</ele>
        <time>2010-05-15T11:32:16Z</time>
      </trkpt>
      <trkpt lat="48.57795" lon="1.82854">
        <ele>179</ele>
        <time>2010-05-15T11:32:17Z</time>
      </trkpt>
      <trkpt lat="48.57795" lon="1.82856">
        <ele>178</ele>
        <time>2010-05-15T11:32:18Z</time>
      </trkpt>
      <trkpt lat="48.57795" lon="1.82859">
        <ele>178</ele>
        <time>2010-05-15T11:32:19Z</time>
      </trkpt>
      <trkpt lat="48.57795" lon="1.82861">
        <ele>177</ele>
        <time>2010-05-15T11:32:20Z</time>
      </trkpt>
      <trkpt lat="48.57794" lon="1.82864">
        <ele>177</ele>
        <time>2010-05-15T11:32:21Z</time>
      </trkpt>
      <trkpt lat="48.57795" lon="1.82867">
        <ele>176</ele>
        <time>2010-05-15T11:32:22Z</time>
      </trkpt>
      <trkpt lat="48.57794" lon="1.8287">
        <ele>176</ele>
        <time>2010-05-15T11:32:23Z</time>
      </trkpt>
      <trkpt lat="48.57794" lon="1.82873">
        <ele>176</ele>
        <time>2010-05-15T11:32:24Z</time>
      </trkpt>
      <trkpt lat="48.57794" lon="1.82877">
        <ele>175</ele>
        <time>2010-05-15T11:32:25Z</time>
      </trkpt>
      <trkpt lat="48.57794" lon="1.82881">
        <ele>175</ele>
        <time>2010-05-15T11:32:26Z</time>
      </trkpt>
      <trkpt lat="48.57794" lon="1.82885">
        <ele>174</ele>
        <time>2010-05-15T11:32:27Z</time>
      </trkpt>
      <trkpt lat="48.57794" lon="1.82889">
        <ele>174</ele>
        <time>2010-05-15T11:32:28Z</time>
      </trkpt>
      <trkpt lat="48.57795" lon="1.82892">
        <ele>174</ele>
        <time>2010-05-15T11:32:29Z</time>
      </trkpt>
      <trkpt lat="48.57795" lon="1.82896">
        <ele>173</ele>
        <time>2010-05-15T11:32:30Z</time>
      </trkpt>
      <trkpt lat="48.57795" lon="1.82898">
        <ele>172</ele>
        <time>2010-05-15T11:32:31Z</time>
      </trkpt>
      <trkpt lat="48.57795" lon="1.82901">
        <ele>172</ele>
        <time>2010-05-15T11:32:32Z</time>
      </trkpt>
      <trkpt lat="48.57796" lon="1.82904">
        <ele>171</ele>
        <time>2010-05-15T11:32:33Z</time>
      </trkpt>
      <trkpt lat="48.57796" lon="1.82906">
        <ele>170</ele>
        <time>2010-05-15T11:32:34Z</time>
      </trkpt>
      <trkpt lat="48.57796" lon="1.82909">
        <ele>170</ele>
        <time>2010-05-15T11:32:35Z</time>
      </trkpt>
      <trkpt lat="48.57797" lon="1.82912">
        <ele>169</ele>
        <time>2010-05-15T11:32:36Z</time>
      </trkpt>
      <trkpt lat="48.57797" lon="1.82915">
        <ele>169</ele>
        <time>2010-05-15T11:32:37Z</time>
      </trkpt>
      <trkpt lat="48.57797" lon="1.82919">
        <ele>168</ele>
        <time>2010-05-15T11:32:38Z</time>
      </trkpt>
      <trkpt lat="48.57798" lon="1.82922">
        <ele>168</ele>
        <time>2010-05-15T11:32:39Z</time>
      </trkpt>
      <trkpt lat="48.57799" lon="1.82925">
        <ele>167</ele>
        <time>2010-05-15T11:32:40Z</time>
      </trkpt>
      <trkpt lat="48.57799" lon="1.82928">
        <ele>167</ele>
        <time>2010-05-15T11:32:41Z</time>
      </trkpt>
      <trkpt lat="48.578" lon="1.82931">
        <ele>166</ele>
        <time>2010-05-15T11:32:42Z</time>
      </trkpt>
      <trkpt lat="48.57801" lon="1.82933">
        <ele>166</ele>
        <time>2010-05-15T11:32:43Z</time>
      </trkpt>
      <trkpt lat="48.57801" lon="1.82936">
        <ele>166</ele>
        <time>2010-05-15T11:32:44Z</time>
      </trkpt>
      <trkpt lat="48.578" lon="1.82938">
        <ele>165</ele>
        <time>2010-05-15T11:32:46Z</time>
      </trkpt>
      <trkpt lat="48.57799" lon="1.82942">
        <ele>165</ele>
        <time>2010-05-15T11:32:48Z</time>
      </trkpt>
      <trkpt lat="48.578" lon="1.82944">
        <ele>165</ele>
        <time>2010-05-15T11:32:49Z</time>
      </trkpt>
      <trkpt lat="48.57801" lon="1.82946">
        <ele>165</ele>
        <time>2010-05-15T11:32:50Z</time>
      </trkpt>
      <trkpt lat="48.57801" lon="1.82949">
        <ele>165</ele>
        <time>2010-05-15T11:32:51Z</time>
      </trkpt>
      <trkpt lat="48.57801" lon="1.82953">
        <ele>165</ele>
        <time>2010-05-15T11:32:52Z</time>
      </trkpt>
      <trkpt lat="48.57802" lon="1.82956">
        <ele>165</ele>
        <time>2010-05-15T11:32:53Z</time>
      </trkpt>
      <trkpt lat="48.57803" lon="1.82958">
        <ele>164</ele>
        <time>2010-05-15T11:32:54Z</time>
      </trkpt>
      <trkpt lat="48.57804" lon="1.82961">
        <ele>164</ele>
        <time>2010-05-15T11:32:55Z</time>
      </trkpt>
      <trkpt lat="48.57805" lon="1.82963">
        <ele>164</ele>
        <time>2010-05-15T11:32:56Z</time>
      </trkpt>
      <trkpt lat="48.57806" lon="1.82966">
        <ele>164</ele>
        <time>2010-05-15T11:32:58Z</time>
      </trkpt>
      <trkpt lat="48.57807" lon="1.82967">
        <ele>164</ele>
        <time>2010-05-15T11:32:59Z</time>
      </trkpt>
      <trkpt lat="48.57809" lon="1.82969">
        <ele>164</ele>
        <time>2010-05-15T11:33:00Z</time>
      </trkpt>
      <trkpt lat="48.5781" lon="1.82971">
        <ele>164</ele>
        <time>2010-05-15T11:33:01Z</time>
      </trkpt>
      <trkpt lat="48.57811" lon="1.82972">
        <ele>164</ele>
        <time>2010-05-15T11:33:02Z</time>
      </trkpt>
      <trkpt lat="48.57812" lon="1.82974">
        <ele>164</ele>
        <time>2010-05-15T11:33:03Z</time>
      </trkpt>
      <trkpt lat="48.57814" lon="1.82978">
        <ele>164</ele>
        <time>2010-05-15T11:33:05Z</time>
      </trkpt>
      <trkpt lat="48.57815" lon="1.8298">
        <ele>164</ele>
        <time>2010-05-15T11:33:06Z</time>
      </trkpt>
      <trkpt lat="48.57816" lon="1.82982">
        <ele>164</ele>
        <time>2010-05-15T11:33:07Z</time>
      </trkpt>
      <trkpt lat="48.57817" lon="1.82984">
        <ele>164</ele>
        <time>2010-05-15T11:33:08Z</time>
      </trkpt>
      <trkpt lat="48.57818" lon="1.82986">
        <ele>164</ele>
        <time>2010-05-15T11:33:09Z</time>
      </trkpt>
      <trkpt lat="48.5782" lon="1.82989">
        <ele>164</ele>
        <time>2010-05-15T11:33:11Z</time>
      </trkpt>
      <trkpt lat="48.57821" lon="1.8299">
        <ele>164</ele>
        <time>2010-05-15T11:33:12Z</time>
      </trkpt>
      <trkpt lat="48.57823" lon="1.82993">
        <ele>164</ele>
        <time>2010-05-15T11:33:14Z</time>
      </trkpt>
      <trkpt lat="48.57824" lon="1.82995">
        <ele>164</ele>
        <time>2010-05-15T11:33:16Z</time>
      </trkpt>
      <trkpt lat="48.57826" lon="1.82996">
        <ele>164</ele>
        <time>2010-05-15T11:33:17Z</time>
      </trkpt>
      <trkpt lat="48.57827" lon="1.82998">
        <ele>164</ele>
        <time>2010-05-15T11:33:18Z</time>
      </trkpt>
      <trkpt lat="48.57828" lon="1.83">
        <ele>164</ele>
        <time>2010-05-15T11:33:19Z</time>
      </trkpt>
      <trkpt lat="48.5783" lon="1.83002">
        <ele>164</ele>
        <time>2010-05-15T11:33:20Z</time>
      </trkpt>
      <trkpt lat="48.57831" lon="1.83004">
        <ele>164</ele>
        <time>2010-05-15T11:33:21Z</time>
      </trkpt>
      <trkpt lat="48.57832" lon="1.83005">
        <ele>164</ele>
        <time>2010-05-15T11:33:22Z</time>
      </trkpt>
      <trkpt lat="48.57834" lon="1.83007">
        <ele>164</ele>
        <time>2010-05-15T11:33:23Z</time>
      </trkpt>
      <trkpt lat="48.57835" lon="1.83008">
        <ele>164</ele>
        <time>2010-05-15T11:33:24Z</time>
      </trkpt>
      <trkpt lat="48.57836" lon="1.8301">
        <ele>164</ele>
        <time>2010-05-15T11:33:25Z</time>
      </trkpt>
      <trkpt lat="48.57838" lon="1.83011">
        <ele>164</ele>
        <time>2010-05-15T11:33:26Z</time>
      </trkpt>
      <trkpt lat="48.57839" lon="1.83013">
        <ele>164</ele>
        <time>2010-05-15T11:33:27Z</time>
      </trkpt>
      <trkpt lat="48.5784" lon="1.83015">
        <ele>164</ele>
        <time>2010-05-15T11:33:28Z</time>
      </trkpt>
      <trkpt lat="48.57842" lon="1.83016">
        <ele>164</ele>
        <time>2010-05-15T11:33:29Z</time>
      </trkpt>
      <trkpt lat="48.57843" lon="1.83018">
        <ele>164</ele>
        <time>2010-05-15T11:33:30Z</time>
      </trkpt>
      <trkpt lat="48.57845" lon="1.83019">
        <ele>164</ele>
        <time>2010-05-15T11:33:31Z</time>
      </trkpt>
      <trkpt lat="48.57847" lon="1.83021">
        <ele>164</ele>
        <time>2010-05-15T11:33:32Z</time>
      </trkpt>
      <trkpt lat="48.57848" lon="1.83023">
        <ele>164</ele>
        <time>2010-05-15T11:33:33Z</time>
      </trkpt>
      <trkpt lat="48.57849" lon="1.83024">
        <ele>164</ele>
        <time>2010-05-15T11:33:34Z</time>
      </trkpt>
      <trkpt lat="48.57851" lon="1.83026">
        <ele>164</ele>
        <time>2010-05-15T11:33:35Z</time>
      </trkpt>
      <trkpt lat="48.57852" lon="1.83027">
        <ele>164</ele>
        <time>2010-05-15T11:33:36Z</time>
      </trkpt>
      <trkpt lat="48.57854" lon="1.83029">
        <ele>164</ele>
        <time>2010-05-15T11:33:37Z</time>
      </trkpt>
      <trkpt lat="48.57855" lon="1.8303">
        <ele>164</ele>
        <time>2010-05-15T11:33:38Z</time>
      </trkpt>
      <trkpt lat="48.57856" lon="1.83032">
        <ele>164</ele>
        <time>2010-05-15T11:33:39Z</time>
      </trkpt>
      <trkpt lat="48.57858" lon="1.83034">
        <ele>165</ele>
        <time>2010-05-15T11:33:40Z</time>
      </trkpt>
      <trkpt lat="48.5786" lon="1.83037">
        <ele>165</ele>
        <time>2010-05-15T11:33:42Z</time>
      </trkpt>
      <trkpt lat="48.57861" lon="1.83039">
        <ele>165</ele>
        <time>2010-05-15T11:33:43Z</time>
      </trkpt>
      <trkpt lat="48.57862" lon="1.83041">
        <ele>165</ele>
        <time>2010-05-15T11:33:44Z</time>
      </trkpt>
      <trkpt lat="48.57864" lon="1.83044">
        <ele>165</ele>
        <time>2010-05-15T11:33:46Z</time>
      </trkpt>
      <trkpt lat="48.57865" lon="1.83046">
        <ele>165</ele>
        <time>2010-05-15T11:33:47Z</time>
      </trkpt>
      <trkpt lat="48.57866" lon="1.83048">
        <ele>165</ele>
        <time>2010-05-15T11:33:48Z</time>
      </trkpt>
      <trkpt lat="48.57867" lon="1.83049">
        <ele>165</ele>
        <time>2010-05-15T11:33:49Z</time>
      </trkpt>
      <trkpt lat="48.57868" lon="1.83051">
        <ele>165</ele>
        <time>2010-05-15T11:33:50Z</time>
      </trkpt>
      <trkpt lat="48.57869" lon="1.83053">
        <ele>165</ele>
        <time>2010-05-15T11:33:51Z</time>
      </trkpt>
      <trkpt lat="48.5787" lon="1.83055">
        <ele>165</ele>
        <time>2010-05-15T11:33:52Z</time>
      </trkpt>
      <trkpt lat="48.57872" lon="1.83057">
        <ele>165</ele>
        <time>2010-05-15T11:33:53Z</time>
      </trkpt>
      <trkpt lat="48.57873" lon="1.83059">
        <ele>165</ele>
        <time>2010-05-15T11:33:54Z</time>
      </trkpt>
      <trkpt lat="48.57874" lon="1.83062">
        <ele>165</ele>
        <time>2010-05-15T11:33:55Z</time>
      </trkpt>
      <trkpt lat="48.57875" lon="1.83065">
        <ele>165</ele>
        <time>2010-05-15T11:33:56Z</time>
      </trkpt>
      <trkpt lat="48.57876" lon="1.83067">
        <ele>165</ele>
        <time>2010-05-15T11:33:57Z</time>
      </trkpt>
      <trkpt lat="48.57877" lon="1.83069">
        <ele>165</ele>
        <time>2010-05-15T11:33:58Z</time>
      </trkpt>
      <trkpt lat="48.57878" lon="1.83071">
        <ele>165</ele>
        <time>2010-05-15T11:33:59Z</time>
      </trkpt>
      <trkpt lat="48.57879" lon="1.83073">
        <ele>165</ele>
        <time>2010-05-15T11:34:00Z</time>
      </trkpt>
      <trkpt lat="48.57879" lon="1.83076">
        <ele>165</ele>
        <time>2010-05-15T11:34:01Z</time>
      </trkpt>
      <trkpt lat="48.5788" lon="1.83079">
        <ele>165</ele>
        <time>2010-05-15T11:34:02Z</time>
      </trkpt>
      <trkpt lat="48.5788" lon="1.83082">
        <ele>165</ele>
        <time>2010-05-15T11:34:03Z</time>
      </trkpt>
      <trkpt lat="48.5788" lon="1.83085">
        <ele>165</ele>
        <time>2010-05-15T11:34:04Z</time>
      </trkpt>
      <trkpt lat="48.5788" lon="1.83088">
        <ele>165</ele>
        <time>2010-05-15T11:34:05Z</time>
      </trkpt>
      <trkpt lat="48.57881" lon="1.8309">
        <ele>165</ele>
        <time>2010-05-15T11:34:06Z</time>
      </trkpt>
      <trkpt lat="48.57881" lon="1.83093">
        <ele>165</ele>
        <time>2010-05-15T11:34:07Z</time>
      </trkpt>
      <trkpt lat="48.57882" lon="1.83095">
        <ele>165</ele>
        <time>2010-05-15T11:34:08Z</time>
      </trkpt>
      <trkpt lat="48.57882" lon="1.83098">
        <ele>165</ele>
        <time>2010-05-15T11:34:09Z</time>
      </trkpt>
      <trkpt lat="48.57883" lon="1.83101">
        <ele>164</ele>
        <time>2010-05-15T11:34:10Z</time>
      </trkpt>
      <trkpt lat="48.57883" lon="1.83104">
        <ele>164</ele>
        <time>2010-05-15T11:34:11Z</time>
      </trkpt>
      <trkpt lat="48.57884" lon="1.83106">
        <ele>163</ele>
        <time>2010-05-15T11:34:12Z</time>
      </trkpt>
      <trkpt lat="48.57885" lon="1.83108">
        <ele>162</ele>
        <time>2010-05-15T11:34:13Z</time>
      </trkpt>
      <trkpt lat="48.57886" lon="1.8311">
        <ele>162</ele>
        <time>2010-05-15T11:34:15Z</time>
      </trkpt>
      <trkpt lat="48.57887" lon="1.83112">
        <ele>162</ele>
        <time>2010-05-15T11:34:16Z</time>
      </trkpt>
      <trkpt lat="48.57888" lon="1.83114">
        <ele>162</ele>
        <time>2010-05-15T11:34:17Z</time>
      </trkpt>
      <trkpt lat="48.5789" lon="1.83116">
        <ele>162</ele>
        <time>2010-05-15T11:34:18Z</time>
      </trkpt>
      <trkpt lat="48.57891" lon="1.83118">
        <ele>161</ele>
        <time>2010-05-15T11:34:19Z</time>
      </trkpt>
      <trkpt lat="48.57892" lon="1.83119">
        <ele>161</ele>
        <time>2010-05-15T11:34:20Z</time>
      </trkpt>
      <trkpt lat="48.57893" lon="1.8312">
        <ele>160</ele>
        <time>2010-05-15T11:34:21Z</time>
      </trkpt>
      <trkpt lat="48.57895" lon="1.83122">
        <ele>159</ele>
        <time>2010-05-15T11:34:23Z</time>
      </trkpt>
      <trkpt lat="48.57896" lon="1.83123">
        <ele>159</ele>
        <time>2010-05-15T11:34:27Z</time>
      </trkpt>
      <trkpt lat="48.57897" lon="1.83122">
        <ele>158</ele>
        <time>2010-05-15T11:34:37Z</time>
      </trkpt>
      <trkpt lat="48.57899" lon="1.83122">
        <ele>158</ele>
        <time>2010-05-15T11:34:50Z</time>
      </trkpt>
      <trkpt lat="48.579" lon="1.83123">
        <ele>158</ele>
        <time>2010-05-15T11:34:51Z</time>
      </trkpt>
      <trkpt lat="48.57901" lon="1.83123">
        <ele>158</ele>
        <time>2010-05-15T11:34:52Z</time>
      </trkpt>
      <trkpt lat="48.57902" lon="1.83124">
        <ele>158</ele>
        <time>2010-05-15T11:34:53Z</time>
      </trkpt>
      <trkpt lat="48.57904" lon="1.83126">
        <ele>158</ele>
        <time>2010-05-15T11:34:55Z</time>
      </trkpt>
      <trkpt lat="48.57905" lon="1.83129">
        <ele>158</ele>
        <time>2010-05-15T11:34:57Z</time>
      </trkpt>
      <trkpt lat="48.57906" lon="1.83131">
        <ele>158</ele>
        <time>2010-05-15T11:34:58Z</time>
      </trkpt>
      <trkpt lat="48.57907" lon="1.83133">
        <ele>158</ele>
        <time>2010-05-15T11:35:00Z</time>
      </trkpt>
      <trkpt lat="48.57907" lon="1.83136">
        <ele>158</ele>
        <time>2010-05-15T11:35:01Z</time>
      </trkpt>
      <trkpt lat="48.57907" lon="1.83139">
        <ele>158</ele>
        <time>2010-05-15T11:35:02Z</time>
      </trkpt>
      <trkpt lat="48.57907" lon="1.83142">
        <ele>158</ele>
        <time>2010-05-15T11:35:03Z</time>
      </trkpt>
      <trkpt lat="48.57908" lon="1.83145">
        <ele>158</ele>
        <time>2010-05-15T11:35:04Z</time>
      </trkpt>
      <trkpt lat="48.57908" lon="1.83147">
        <ele>158</ele>
        <time>2010-05-15T11:35:05Z</time>
      </trkpt>
      <trkpt lat="48.57909" lon="1.8315">
        <ele>158</ele>
        <time>2010-05-15T11:35:06Z</time>
      </trkpt>
      <trkpt lat="48.5791" lon="1.83153">
        <ele>158</ele>
        <time>2010-05-15T11:35:07Z</time>
      </trkpt>
      <trkpt lat="48.5791" lon="1.83155">
        <ele>158</ele>
        <time>2010-05-15T11:35:08Z</time>
      </trkpt>
      <trkpt lat="48.57911" lon="1.83158">
        <ele>158</ele>
        <time>2010-05-15T11:35:09Z</time>
      </trkpt>
      <trkpt lat="48.57911" lon="1.83161">
        <ele>158</ele>
        <time>2010-05-15T11:35:10Z</time>
      </trkpt>
      <trkpt lat="48.57912" lon="1.83163">
        <ele>157</ele>
        <time>2010-05-15T11:35:11Z</time>
      </trkpt>
      <trkpt lat="48.57913" lon="1.83166">
        <ele>157</ele>
        <time>2010-05-15T11:35:12Z</time>
      </trkpt>
      <trkpt lat="48.57913" lon="1.83169">
        <ele>156</ele>
        <time>2010-05-15T11:35:13Z</time>
      </trkpt>
      <trkpt lat="48.57914" lon="1.83172">
        <ele>156</ele>
        <time>2010-05-15T11:35:14Z</time>
      </trkpt>
      <trkpt lat="48.57915" lon="1.83174">
        <ele>155</ele>
        <time>2010-05-15T11:35:15Z</time>
      </trkpt>
      <trkpt lat="48.57915" lon="1.83177">
        <ele>155</ele>
        <time>2010-05-15T11:35:16Z</time>
      </trkpt>
      <trkpt lat="48.57916" lon="1.8318">
        <ele>154</ele>
        <time>2010-05-15T11:35:17Z</time>
      </trkpt>
      <trkpt lat="48.57916" lon="1.83182">
        <ele>154</ele>
        <time>2010-05-15T11:35:18Z</time>
      </trkpt>
      <trkpt lat="48.57917" lon="1.83185">
        <ele>154</ele>
        <time>2010-05-15T11:35:19Z</time>
      </trkpt>
      <trkpt lat="48.57917" lon="1.83187">
        <ele>153</ele>
        <time>2010-05-15T11:35:20Z</time>
      </trkpt>
      <trkpt lat="48.57917" lon="1.83189">
        <ele>153</ele>
        <time>2010-05-15T11:35:21Z</time>
      </trkpt>
      <trkpt lat="48.57917" lon="1.83191">
        <ele>153</ele>
        <time>2010-05-15T11:35:22Z</time>
      </trkpt>
      <trkpt lat="48.57918" lon="1.83193">
        <ele>153</ele>
        <time>2010-05-15T11:35:23Z</time>
      </trkpt>
      <trkpt lat="48.57918" lon="1.83195">
        <ele>153</ele>
        <time>2010-05-15T11:35:24Z</time>
      </trkpt>
      <trkpt lat="48.57919" lon="1.83198">
        <ele>153</ele>
        <time>2010-05-15T11:35:25Z</time>
      </trkpt>
      <trkpt lat="48.57919" lon="1.832">
        <ele>153</ele>
        <time>2010-05-15T11:35:26Z</time>
      </trkpt>
      <trkpt lat="48.57919" lon="1.83202">
        <ele>153</ele>
        <time>2010-05-15T11:35:27Z</time>
      </trkpt>
      <trkpt lat="48.5792" lon="1.83204">
        <ele>152</ele>
        <time>2010-05-15T11:35:28Z</time>
      </trkpt>
      <trkpt lat="48.57919" lon="1.83206">
        <ele>152</ele>
        <time>2010-05-15T11:35:30Z</time>
      </trkpt>
      <trkpt lat="48.57919" lon="1.8321">
        <ele>152</ele>
        <time>2010-05-15T11:35:32Z</time>
      </trkpt>
      <trkpt lat="48.5792" lon="1.83213">
        <ele>152</ele>
        <time>2010-05-15T11:35:33Z</time>
      </trkpt>
      <trkpt lat="48.5792" lon="1.83215">
        <ele>152</ele>
        <time>2010-05-15T11:35:34Z</time>
      </trkpt>
      <trkpt lat="48.5792" lon="1.83218">
        <ele>152</ele>
        <time>2010-05-15T11:35:35Z</time>
      </trkpt>
      <trkpt lat="48.57921" lon="1.8322">
        <ele>152</ele>
        <time>2010-05-15T11:35:36Z</time>
      </trkpt>
      <trkpt lat="48.57958" lon="1.83293">
        <ele>152</ele>
        <time>2010-05-15T11:35:58Z</time>
      </trkpt>
      <trkpt lat="48.57936" lon="1.83265">
        <ele>152</ele>
        <time>2010-05-15T11:35:59Z</time>
      </trkpt>
      <trkpt lat="48.57932" lon="1.83265">
        <ele>153</ele>
        <time>2010-05-15T11:35:59Z</time>
      </trkpt>
      <trkpt lat="48.57929" lon="1.83268">
        <ele>154</ele>
        <time>2010-05-15T11:36:00Z</time>
      </trkpt>
      <trkpt lat="48.57929" lon="1.83272">
        <ele>155</ele>
        <time>2010-05-15T11:36:02Z</time>
      </trkpt>
      <trkpt lat="48.57929" lon="1.83276">
        <ele>156</ele>
        <time>2010-05-15T11:36:03Z</time>
      </trkpt>
      <trkpt lat="48.5793" lon="1.83279">
        <ele>157</ele>
        <time>2010-05-15T11:36:04Z</time>
      </trkpt>
      <trkpt lat="48.5793" lon="1.83282">
        <ele>157</ele>
        <time>2010-05-15T11:36:05Z</time>
      </trkpt>
      <trkpt lat="48.5793" lon="1.83285">
        <ele>157</ele>
        <time>2010-05-15T11:36:06Z</time>
      </trkpt>
      <trkpt lat="48.5793" lon="1.83289">
        <ele>157</ele>
        <time>2010-05-15T11:36:07Z</time>
      </trkpt>
      <trkpt lat="48.5793" lon="1.83292">
        <ele>157</ele>
        <time>2010-05-15T11:36:08Z</time>
      </trkpt>
      <trkpt lat="48.57931" lon="1.83296">
        <ele>157</ele>
        <time>2010-05-15T11:36:09Z</time>
      </trkpt>
      <trkpt lat="48.57931" lon="1.83299">
        <ele>156</ele>
        <time>2010-05-15T11:36:10Z</time>
      </trkpt>
      <trkpt lat="48.57932" lon="1.83302">
        <ele>155</ele>
        <time>2010-05-15T11:36:11Z</time>
      </trkpt>
      <trkpt lat="48.57932" lon="1.83305">
        <ele>154</ele>
        <time>2010-05-15T11:36:12Z</time>
      </trkpt>
      <trkpt lat="48.57933" lon="1.83308">
        <ele>154</ele>
        <time>2010-05-15T11:36:13Z</time>
      </trkpt>
      <trkpt lat="48.57934" lon="1.8331">
        <ele>153</ele>
        <time>2010-05-15T11:36:14Z</time>
      </trkpt>
      <trkpt lat="48.57934" lon="1.83313">
        <ele>153</ele>
        <time>2010-05-15T11:36:15Z</time>
      </trkpt>
      <trkpt lat="48.57935" lon="1.83316">
        <ele>152</ele>
        <time>2010-05-15T11:36:16Z</time>
      </trkpt>
      <trkpt lat="48.57936" lon="1.83319">
        <ele>152</ele>
        <time>2010-05-15T11:36:17Z</time>
      </trkpt>
      <trkpt lat="48.57936" lon="1.83322">
        <ele>152</ele>
        <time>2010-05-15T11:36:18Z</time>
      </trkpt>
      <trkpt lat="48.57936" lon="1.83324">
        <ele>151</ele>
        <time>2010-05-15T11:36:19Z</time>
      </trkpt>
      <trkpt lat="48.57937" lon="1.83327">
        <ele>151</ele>
        <time>2010-05-15T11:36:20Z</time>
      </trkpt>
      <trkpt lat="48.57937" lon="1.8333">
        <ele>150</ele>
        <time>2010-05-15T11:36:21Z</time>
      </trkpt>
      <trkpt lat="48.57938" lon="1.83333">
        <ele>150</ele>
        <time>2010-05-15T11:36:22Z</time>
      </trkpt>
      <trkpt lat="48.57938" lon="1.83335">
        <ele>149</ele>
        <time>2010-05-15T11:36:23Z</time>
      </trkpt>
      <trkpt lat="48.57938" lon="1.83337">
        <ele>149</ele>
        <time>2010-05-15T11:36:24Z</time>
      </trkpt>
      <trkpt lat="48.57939" lon="1.8334">
        <ele>149</ele>
        <time>2010-05-15T11:36:25Z</time>
      </trkpt>
      <trkpt lat="48.57939" lon="1.83343">
        <ele>148</ele>
        <time>2010-05-15T11:36:26Z</time>
      </trkpt>
      <trkpt lat="48.57939" lon="1.83346">
        <ele>148</ele>
        <time>2010-05-15T11:36:27Z</time>
      </trkpt>
      <trkpt lat="48.57939" lon="1.83349">
        <ele>148</ele>
        <time>2010-05-15T11:36:28Z</time>
      </trkpt>
      <trkpt lat="48.5794" lon="1.83351">
        <ele>148</ele>
        <time>2010-05-15T11:36:29Z</time>
      </trkpt>
      <trkpt lat="48.5794" lon="1.83354">
        <ele>148</ele>
        <time>2010-05-15T11:36:30Z</time>
      </trkpt>
      <trkpt lat="48.5794" lon="1.83355">
        <ele>148</ele>
        <time>2010-05-15T11:36:31Z</time>
      </trkpt>
      <trkpt lat="48.5794" lon="1.83357">
        <ele>148</ele>
        <time>2010-05-15T11:36:32Z</time>
      </trkpt>
      <trkpt lat="48.5794" lon="1.8336">
        <ele>148</ele>
        <time>2010-05-15T11:36:33Z</time>
      </trkpt>
      <trkpt lat="48.5794" lon="1.83362">
        <ele>148</ele>
        <time>2010-05-15T11:36:34Z</time>
      </trkpt>
      <trkpt lat="48.5794" lon="1.83364">
        <ele>148</ele>
        <time>2010-05-15T11:36:35Z</time>
      </trkpt>
      <trkpt lat="48.5794" lon="1.83366">
        <ele>148</ele>
        <time>2010-05-15T11:36:36Z</time>
      </trkpt>
      <trkpt lat="48.5794" lon="1.83369">
        <ele>148</ele>
        <time>2010-05-15T11:36:37Z</time>
      </trkpt>
      <trkpt lat="48.57941" lon="1.83371">
        <ele>148</ele>
        <time>2010-05-15T11:36:38Z</time>
      </trkpt>
      <trkpt lat="48.5794" lon="1.83373">
        <ele>148</ele>
        <time>2010-05-15T11:36:40Z</time>
      </trkpt>
      <trkpt lat="48.57939" lon="1.83375">
        <ele>148</ele>
        <time>2010-05-15T11:36:42Z</time>
      </trkpt>
      <trkpt lat="48.57937" lon="1.83378">
        <ele>149</ele>
        <time>2010-05-15T11:36:44Z</time>
      </trkpt>
      <trkpt lat="48.57935" lon="1.8338">
        <ele>151</ele>
        <time>2010-05-15T11:36:46Z</time>
      </trkpt>
      <trkpt lat="48.57935" lon="1.83382">
        <ele>152</ele>
        <time>2010-05-15T11:36:47Z</time>
      </trkpt>
      <trkpt lat="48.57934" lon="1.83384">
        <ele>152</ele>
        <time>2010-05-15T11:36:48Z</time>
      </trkpt>
      <trkpt lat="48.57934" lon="1.83387">
        <ele>153</ele>
        <time>2010-05-15T11:36:49Z</time>
      </trkpt>
      <trkpt lat="48.57934" lon="1.83389">
        <ele>154</ele>
        <time>2010-05-15T11:36:50Z</time>
      </trkpt>
      <trkpt lat="48.57934" lon="1.83391">
        <ele>154</ele>
        <time>2010-05-15T11:36:51Z</time>
      </trkpt>
      <trkpt lat="48.57934" lon="1.83394">
        <ele>154</ele>
        <time>2010-05-15T11:36:52Z</time>
      </trkpt>
      <trkpt lat="48.57934" lon="1.83395">
        <ele>155</ele>
        <time>2010-05-15T11:36:53Z</time>
      </trkpt>
      <trkpt lat="48.57933" lon="1.83398">
        <ele>155</ele>
        <time>2010-05-15T11:36:54Z</time>
      </trkpt>
      <trkpt lat="48.57934" lon="1.83401">
        <ele>155</ele>
        <time>2010-05-15T11:36:55Z</time>
      </trkpt>
      <trkpt lat="48.57934" lon="1.83403">
        <ele>155</ele>
        <time>2010-05-15T11:36:56Z</time>
      </trkpt>
      <trkpt lat="48.57935" lon="1.83406">
        <ele>155</ele>
        <time>2010-05-15T11:36:57Z</time>
      </trkpt>
      <trkpt lat="48.57935" lon="1.83408">
        <ele>155</ele>
        <time>2010-05-15T11:36:58Z</time>
      </trkpt>
      <trkpt lat="48.57936" lon="1.8341">
        <ele>155</ele>
        <time>2010-05-15T11:36:59Z</time>
      </trkpt>
      <trkpt lat="48.57936" lon="1.83413">
        <ele>155</ele>
        <time>2010-05-15T11:37:00Z</time>
      </trkpt>
      <trkpt lat="48.57937" lon="1.83414">
        <ele>155</ele>
        <time>2010-05-15T11:37:01Z</time>
      </trkpt>
      <trkpt lat="48.57939" lon="1.83416">
        <ele>155</ele>
        <time>2010-05-15T11:37:03Z</time>
      </trkpt>
      <trkpt lat="48.5794" lon="1.83418">
        <ele>155</ele>
        <time>2010-05-15T11:37:04Z</time>
      </trkpt>
      <trkpt lat="48.57941" lon="1.83419">
        <ele>155</ele>
        <time>2010-05-15T11:37:05Z</time>
      </trkpt>
      <trkpt lat="48.57942" lon="1.8342">
        <ele>156</ele>
        <time>2010-05-15T11:37:06Z</time>
      </trkpt>
      <trkpt lat="48.57944" lon="1.83421">
        <ele>157</ele>
        <time>2010-05-15T11:37:07Z</time>
      </trkpt>
      <trkpt lat="48.57945" lon="1.83422">
        <ele>158</ele>
        <time>2010-05-15T11:37:08Z</time>
      </trkpt>
      <trkpt lat="48.57947" lon="1.83423">
        <ele>158</ele>
        <time>2010-05-15T11:37:09Z</time>
      </trkpt>
      <trkpt lat="48.57948" lon="1.83424">
        <ele>159</ele>
        <time>2010-05-15T11:37:10Z</time>
      </trkpt>
      <trkpt lat="48.57949" lon="1.83426">
        <ele>160</ele>
        <time>2010-05-15T11:37:11Z</time>
      </trkpt>
      <trkpt lat="48.5795" lon="1.83428">
        <ele>161</ele>
        <time>2010-05-15T11:37:12Z</time>
      </trkpt>
      <trkpt lat="48.57951" lon="1.83431">
        <ele>161</ele>
        <time>2010-05-15T11:37:13Z</time>
      </trkpt>
      <trkpt lat="48.57952" lon="1.83433">
        <ele>161</ele>
        <time>2010-05-15T11:37:14Z</time>
      </trkpt>
      <trkpt lat="48.57952" lon="1.83435">
        <ele>161</ele>
        <time>2010-05-15T11:37:15Z</time>
      </trkpt>
      <trkpt lat="48.57952" lon="1.83437">
        <ele>161</ele>
        <time>2010-05-15T11:37:16Z</time>
      </trkpt>
      <trkpt lat="48.57952" lon="1.8344">
        <ele>161</ele>
        <time>2010-05-15T11:37:18Z</time>
      </trkpt>
      <trkpt lat="48.57952" lon="1.83443">
        <ele>161</ele>
        <time>2010-05-15T11:37:20Z</time>
      </trkpt>
      <trkpt lat="48.57953" lon="1.83445">
        <ele>161</ele>
        <time>2010-05-15T11:37:24Z</time>
      </trkpt>
      <trkpt lat="48.57953" lon="1.83447">
        <ele>161</ele>
        <time>2010-05-15T11:37:25Z</time>
      </trkpt>
      <trkpt lat="48.57953" lon="1.83449">
        <ele>161</ele>
        <time>2010-05-15T11:37:26Z</time>
      </trkpt>
      <trkpt lat="48.57953" lon="1.83451">
        <ele>161</ele>
        <time>2010-05-15T11:37:27Z</time>
      </trkpt>
      <trkpt lat="48.57953" lon="1.83454">
        <ele>161</ele>
        <time>2010-05-15T11:37:28Z</time>
      </trkpt>
      <trkpt lat="48.57953" lon="1.83456">
        <ele>161</ele>
        <time>2010-05-15T11:37:29Z</time>
      </trkpt>
      <trkpt lat="48.57954" lon="1.83458">
        <ele>161</ele>
        <time>2010-05-15T11:37:30Z</time>
      </trkpt>
      <trkpt lat="48.57954" lon="1.8346">
        <ele>161</ele>
        <time>2010-05-15T11:37:31Z</time>
      </trkpt>
      <trkpt lat="48.57954" lon="1.83463">
        <ele>160</ele>
        <time>2010-05-15T11:37:32Z</time>
      </trkpt>
      <trkpt lat="48.57954" lon="1.83465">
        <ele>160</ele>
        <time>2010-05-15T11:37:33Z</time>
      </trkpt>
      <trkpt lat="48.57955" lon="1.83468">
        <ele>160</ele>
        <time>2010-05-15T11:37:34Z</time>
      </trkpt>
      <trkpt lat="48.57955" lon="1.83471">
        <ele>159</ele>
        <time>2010-05-15T11:37:35Z</time>
      </trkpt>
      <trkpt lat="48.57955" lon="1.83473">
        <ele>159</ele>
        <time>2010-05-15T11:37:36Z</time>
      </trkpt>
      <trkpt lat="48.57956" lon="1.83476">
        <ele>158</ele>
        <time>2010-05-15T11:37:37Z</time>
      </trkpt>
      <trkpt lat="48.57956" lon="1.83479">
        <ele>158</ele>
        <time>2010-05-15T11:37:38Z</time>
      </trkpt>
      <trkpt lat="48.57956" lon="1.83482">
        <ele>158</ele>
        <time>2010-05-15T11:37:39Z</time>
      </trkpt>
      <trkpt lat="48.57956" lon="1.83484">
        <ele>157</ele>
        <time>2010-05-15T11:37:40Z</time>
      </trkpt>
      <trkpt lat="48.57956" lon="1.83487">
        <ele>157</ele>
        <time>2010-05-15T11:37:41Z</time>
      </trkpt>
      <trkpt lat="48.57957" lon="1.8349">
        <ele>157</ele>
        <time>2010-05-15T11:37:42Z</time>
      </trkpt>
      <trkpt lat="48.57957" lon="1.83493">
        <ele>157</ele>
        <time>2010-05-15T11:37:43Z</time>
      </trkpt>
      <trkpt lat="48.57957" lon="1.83496">
        <ele>157</ele>
        <time>2010-05-15T11:37:44Z</time>
      </trkpt>
      <trkpt lat="48.57957" lon="1.83498">
        <ele>156</ele>
        <time>2010-05-15T11:37:45Z</time>
      </trkpt>
      <trkpt lat="48.57958" lon="1.83501">
        <ele>156</ele>
        <time>2010-05-15T11:37:46Z</time>
      </trkpt>
      <trkpt lat="48.57958" lon="1.83503">
        <ele>156</ele>
        <time>2010-05-15T11:37:47Z</time>
      </trkpt>
      <trkpt lat="48.57958" lon="1.83505">
        <ele>156</ele>
        <time>2010-05-15T11:37:48Z</time>
      </trkpt>
      <trkpt lat="48.57958" lon="1.83508">
        <ele>156</ele>
        <time>2010-05-15T11:37:49Z</time>
      </trkpt>
      <trkpt lat="48.57958" lon="1.8351">
        <ele>156</ele>
        <time>2010-05-15T11:37:50Z</time>
      </trkpt>
      <trkpt lat="48.57958" lon="1.83513">
        <ele>156</ele>
        <time>2010-05-15T11:37:51Z</time>
      </trkpt>
      <trkpt lat="48.57959" lon="1.83515">
        <ele>156</ele>
        <time>2010-05-15T11:37:52Z</time>
      </trkpt>
      <trkpt lat="48.57959" lon="1.83517">
        <ele>156</ele>
        <time>2010-05-15T11:37:53Z</time>
      </trkpt>
      <trkpt lat="48.57959" lon="1.83519">
        <ele>156</ele>
        <time>2010-05-15T11:37:54Z</time>
      </trkpt>
      <trkpt lat="48.57959" lon="1.83522">
        <ele>156</ele>
        <time>2010-05-15T11:37:55Z</time>
      </trkpt>
      <trkpt lat="48.57959" lon="1.83524">
        <ele>156</ele>
        <time>2010-05-15T11:37:56Z</time>
      </trkpt>
      <trkpt lat="48.57959" lon="1.83528">
        <ele>156</ele>
        <time>2010-05-15T11:37:58Z</time>
      </trkpt>
      <trkpt lat="48.57959" lon="1.8353">
        <ele>156</ele>
        <time>2010-05-15T11:37:59Z</time>
      </trkpt>
      <trkpt lat="48.57959" lon="1.83532">
        <ele>156</ele>
        <time>2010-05-15T11:38:00Z</time>
      </trkpt>
      <trkpt lat="48.57958" lon="1.83534">
        <ele>156</ele>
        <time>2010-05-15T11:38:02Z</time>
      </trkpt>
      <trkpt lat="48.57958" lon="1.83536">
        <ele>156</ele>
        <time>2010-05-15T11:38:03Z</time>
      </trkpt>
      <trkpt lat="48.57958" lon="1.8354">
        <ele>156</ele>
        <time>2010-05-15T11:38:05Z</time>
      </trkpt>
      <trkpt lat="48.57958" lon="1.83543">
        <ele>156</ele>
        <time>2010-05-15T11:38:06Z</time>
      </trkpt>
      <trkpt lat="48.57958" lon="1.83545">
        <ele>156</ele>
        <time>2010-05-15T11:38:07Z</time>
      </trkpt>
      <trkpt lat="48.57959" lon="1.83548">
        <ele>156</ele>
        <time>2010-05-15T11:38:08Z</time>
      </trkpt>
      <trkpt lat="48.57959" lon="1.8355">
        <ele>156</ele>
        <time>2010-05-15T11:38:09Z</time>
      </trkpt>
      <trkpt lat="48.57959" lon="1.83552">
        <ele>156</ele>
        <time>2010-05-15T11:38:10Z</time>
      </trkpt>
      <trkpt lat="48.57959" lon="1.83554">
        <ele>156</ele>
        <time>2010-05-15T11:38:11Z</time>
      </trkpt>
      <trkpt lat="48.57959" lon="1.83556">
        <ele>156</ele>
        <time>2010-05-15T11:38:12Z</time>
      </trkpt>
      <trkpt lat="48.5796" lon="1.83559">
        <ele>156</ele>
        <time>2010-05-15T11:38:13Z</time>
      </trkpt>
      <trkpt lat="48.5796" lon="1.83561">
        <ele>156</ele>
        <time>2010-05-15T11:38:14Z</time>
      </trkpt>
      <trkpt lat="48.5796" lon="1.83564">
        <ele>156</ele>
        <time>2010-05-15T11:38:15Z</time>
      </trkpt>
      <trkpt lat="48.5796" lon="1.83566">
        <ele>156</ele>
        <time>2010-05-15T11:38:16Z</time>
      </trkpt>
      <trkpt lat="48.57961" lon="1.83569">
        <ele>156</ele>
        <time>2010-05-15T11:38:17Z</time>
      </trkpt>
      <trkpt lat="48.57961" lon="1.83571">
        <ele>156</ele>
        <time>2010-05-15T11:38:18Z</time>
      </trkpt>
      <trkpt lat="48.57961" lon="1.83574">
        <ele>156</ele>
        <time>2010-05-15T11:38:19Z</time>
      </trkpt>
      <trkpt lat="48.57961" lon="1.83576">
        <ele>156</ele>
        <time>2010-05-15T11:38:20Z</time>
      </trkpt>
      <trkpt lat="48.57962" lon="1.83579">
        <ele>156</ele>
        <time>2010-05-15T11:38:21Z</time>
      </trkpt>
      <trkpt lat="48.57962" lon="1.83581">
        <ele>156</ele>
        <time>2010-05-15T11:38:22Z</time>
      </trkpt>
      <trkpt lat="48.57962" lon="1.83583">
        <ele>156</ele>
        <time>2010-05-15T11:38:23Z</time>
      </trkpt>
      <trkpt lat="48.57962" lon="1.83586">
        <ele>156</ele>
        <time>2010-05-15T11:38:24Z</time>
      </trkpt>
      <trkpt lat="48.57963" lon="1.83588">
        <ele>156</ele>
        <time>2010-05-15T11:38:25Z</time>
      </trkpt>
      <trkpt lat="48.57963" lon="1.8359">
        <ele>156</ele>
        <time>2010-05-15T11:38:26Z</time>
      </trkpt>
      <trkpt lat="48.57963" lon="1.83592">
        <ele>156</ele>
        <time>2010-05-15T11:38:27Z</time>
      </trkpt>
      <trkpt lat="48.57964" lon="1.83594">
        <ele>156</ele>
        <time>2010-05-15T11:38:28Z</time>
      </trkpt>
      <trkpt lat="48.57965" lon="1.83596">
        <ele>156</ele>
        <time>2010-05-15T11:38:31Z</time>
      </trkpt>
      <trkpt lat="48.57966" lon="1.83599">
        <ele>156</ele>
        <time>2010-05-15T11:38:33Z</time>
      </trkpt>
      <trkpt lat="48.57967" lon="1.83601">
        <ele>156</ele>
        <time>2010-05-15T11:38:35Z</time>
      </trkpt>
      <trkpt lat="48.57968" lon="1.83605">
        <ele>156</ele>
        <time>2010-05-15T11:38:37Z</time>
      </trkpt>
      <trkpt lat="48.57968" lon="1.83607">
        <ele>156</ele>
        <time>2010-05-15T11:38:38Z</time>
      </trkpt>
      <trkpt lat="48.57969" lon="1.83609">
        <ele>156</ele>
        <time>2010-05-15T11:38:39Z</time>
      </trkpt>
      <trkpt lat="48.5797" lon="1.83612">
        <ele>156</ele>
        <time>2010-05-15T11:38:40Z</time>
      </trkpt>
      <trkpt lat="48.57971" lon="1.83614">
        <ele>156</ele>
        <time>2010-05-15T11:38:41Z</time>
      </trkpt>
      <trkpt lat="48.57971" lon="1.83616">
        <ele>156</ele>
        <time>2010-05-15T11:38:42Z</time>
      </trkpt>
      <trkpt lat="48.57972" lon="1.83619">
        <ele>156</ele>
        <time>2010-05-15T11:38:44Z</time>
      </trkpt>
      <trkpt lat="48.57973" lon="1.8362">
        <ele>156</ele>
        <time>2010-05-15T11:38:45Z</time>
      </trkpt>
      <trkpt lat="48.57973" lon="1.83622">
        <ele>156</ele>
        <time>2010-05-15T11:38:46Z</time>
      </trkpt>
      <trkpt lat="48.57975" lon="1.83626">
        <ele>156</ele>
        <time>2010-05-15T11:38:48Z</time>
      </trkpt>
      <trkpt lat="48.57975" lon="1.83628">
        <ele>156</ele>
        <time>2010-05-15T11:38:49Z</time>
      </trkpt>
      <trkpt lat="48.57975" lon="1.8363">
        <ele>156</ele>
        <time>2010-05-15T11:38:51Z</time>
      </trkpt>
      <trkpt lat="48.57976" lon="1.83633">
        <ele>156</ele>
        <time>2010-05-15T11:38:53Z</time>
      </trkpt>
      <trkpt lat="48.57976" lon="1.83635">
        <ele>156</ele>
        <time>2010-05-15T11:38:54Z</time>
      </trkpt>
      <trkpt lat="48.57976" lon="1.83638">
        <ele>156</ele>
        <time>2010-05-15T11:38:56Z</time>
      </trkpt>
      <trkpt lat="48.57977" lon="1.83641">
        <ele>156</ele>
        <time>2010-05-15T11:38:57Z</time>
      </trkpt>
      <trkpt lat="48.57977" lon="1.83643">
        <ele>156</ele>
        <time>2010-05-15T11:38:58Z</time>
      </trkpt>
      <trkpt lat="48.57978" lon="1.83646">
        <ele>156</ele>
        <time>2010-05-15T11:38:59Z</time>
      </trkpt>
      <trkpt lat="48.57979" lon="1.83648">
        <ele>156</ele>
        <time>2010-05-15T11:39:00Z</time>
      </trkpt>
      <trkpt lat="48.57979" lon="1.83651">
        <ele>156</ele>
        <time>2010-05-15T11:39:01Z</time>
      </trkpt>
      <trkpt lat="48.57979" lon="1.83654">
        <ele>156</ele>
        <time>2010-05-15T11:39:02Z</time>
      </trkpt>
      <trkpt lat="48.5798" lon="1.83656">
        <ele>156</ele>
        <time>2010-05-15T11:39:03Z</time>
      </trkpt>
      <trkpt lat="48.5798" lon="1.83659">
        <ele>156</ele>
        <time>2010-05-15T11:39:04Z</time>
      </trkpt>
      <trkpt lat="48.57981" lon="1.83661">
        <ele>156</ele>
        <time>2010-05-15T11:39:05Z</time>
      </trkpt>
      <trkpt lat="48.57981" lon="1.83664">
        <ele>156</ele>
        <time>2010-05-15T11:39:06Z</time>
      </trkpt>
      <trkpt lat="48.57982" lon="1.83667">
        <ele>156</ele>
        <time>2010-05-15T11:39:07Z</time>
      </trkpt>
      <trkpt lat="48.57982" lon="1.83669">
        <ele>156</ele>
        <time>2010-05-15T11:39:08Z</time>
      </trkpt>
      <trkpt lat="48.57983" lon="1.83672">
        <ele>156</ele>
        <time>2010-05-15T11:39:09Z</time>
      </trkpt>
      <trkpt lat="48.57983" lon="1.83674">
        <ele>156</ele>
        <time>2010-05-15T11:39:10Z</time>
      </trkpt>
      <trkpt lat="48.57984" lon="1.83676">
        <ele>156</ele>
        <time>2010-05-15T11:39:11Z</time>
      </trkpt>
      <trkpt lat="48.57984" lon="1.83679">
        <ele>156</ele>
        <time>2010-05-15T11:39:12Z</time>
      </trkpt>
      <trkpt lat="48.57984" lon="1.8368">
        <ele>156</ele>
        <time>2010-05-15T11:39:13Z</time>
      </trkpt>
      <trkpt lat="48.57985" lon="1.83683">
        <ele>155</ele>
        <time>2010-05-15T11:39:13Z</time>
      </trkpt>
      <trkpt lat="48.57985" lon="1.83686">
        <ele>155</ele>
        <time>2010-05-15T11:39:14Z</time>
      </trkpt>
      <trkpt lat="48.57986" lon="1.83689">
        <ele>155</ele>
        <time>2010-05-15T11:39:15Z</time>
      </trkpt>
      <trkpt lat="48.57986" lon="1.83692">
        <ele>154</ele>
        <time>2010-05-15T11:39:16Z</time>
      </trkpt>
      <trkpt lat="48.57986" lon="1.83694">
        <ele>154</ele>
        <time>2010-05-15T11:39:17Z</time>
      </trkpt>
      <trkpt lat="48.57986" lon="1.83697">
        <ele>154</ele>
        <time>2010-05-15T11:39:19Z</time>
      </trkpt>
      <trkpt lat="48.57987" lon="1.83699">
        <ele>154</ele>
        <time>2010-05-15T11:39:19Z</time>
      </trkpt>
      <trkpt lat="48.57987" lon="1.83701">
        <ele>154</ele>
        <time>2010-05-15T11:39:20Z</time>
      </trkpt>
      <trkpt lat="48.57987" lon="1.83703">
        <ele>154</ele>
        <time>2010-05-15T11:39:22Z</time>
      </trkpt>
      <trkpt lat="48.57987" lon="1.83705">
        <ele>154</ele>
        <time>2010-05-15T11:39:22Z</time>
      </trkpt>
      <trkpt lat="48.57988" lon="1.83708">
        <ele>154</ele>
        <time>2010-05-15T11:39:24Z</time>
      </trkpt>
      <trkpt lat="48.57988" lon="1.8371">
        <ele>154</ele>
        <time>2010-05-15T11:39:24Z</time>
      </trkpt>
      <trkpt lat="48.57989" lon="1.83712">
        <ele>154</ele>
        <time>2010-05-15T11:39:25Z</time>
      </trkpt>
      <trkpt lat="48.5799" lon="1.83713">
        <ele>154</ele>
        <time>2010-05-15T11:39:26Z</time>
      </trkpt>
      <trkpt lat="48.57991" lon="1.83715">
        <ele>154</ele>
        <time>2010-05-15T11:39:29Z</time>
      </trkpt>
      <trkpt lat="48.57993" lon="1.83715">
        <ele>154</ele>
        <time>2010-05-15T11:39:29Z</time>
      </trkpt>
      <trkpt lat="48.57994" lon="1.83715">
        <ele>154</ele>
        <time>2010-05-15T11:39:31Z</time>
      </trkpt>
      <trkpt lat="48.57996" lon="1.83715">
        <ele>154</ele>
        <time>2010-05-15T11:39:31Z</time>
      </trkpt>
      <trkpt lat="48.57997" lon="1.83715">
        <ele>154</ele>
        <time>2010-05-15T11:39:32Z</time>
      </trkpt>
      <trkpt lat="48.57998" lon="1.83713">
        <ele>154</ele>
        <time>2010-05-15T11:39:37Z</time>
      </trkpt>
      <trkpt lat="48.57999" lon="1.83711">
        <ele>154</ele>
        <time>2010-05-15T11:39:38Z</time>
      </trkpt>
      <trkpt lat="48.58" lon="1.8371">
        <ele>154</ele>
        <time>2010-05-15T11:39:44Z</time>
      </trkpt>
      <trkpt lat="48.58" lon="1.83712">
        <ele>154</ele>
        <time>2010-05-15T11:39:47Z</time>
      </trkpt>
      <trkpt lat="48.58" lon="1.83714">
        <ele>154</ele>
        <time>2010-05-15T11:39:50Z</time>
      </trkpt>
      <trkpt lat="48.58003" lon="1.83716">
        <ele>154</ele>
        <time>2010-05-15T11:39:52Z</time>
      </trkpt>
      <trkpt lat="48.58004" lon="1.83717">
        <ele>154</ele>
        <time>2010-05-15T11:39:53Z</time>
      </trkpt>
      <trkpt lat="48.58006" lon="1.83717">
        <ele>154</ele>
        <time>2010-05-15T11:39:55Z</time>
      </trkpt>
      <trkpt lat="48.58007" lon="1.83717">
        <ele>154</ele>
        <time>2010-05-15T11:39:55Z</time>
      </trkpt>
      <trkpt lat="48.58009" lon="1.83717">
        <ele>154</ele>
        <time>2010-05-15T11:39:56Z</time>
      </trkpt>
      <trkpt lat="48.5801" lon="1.83717">
        <ele>154</ele>
        <time>2010-05-15T11:39:57Z</time>
      </trkpt>
      <trkpt lat="48.58011" lon="1.83717">
        <ele>154</ele>
        <time>2010-05-15T11:39:58Z</time>
      </trkpt>
      <trkpt lat="48.58013" lon="1.83716">
        <ele>155</ele>
        <time>2010-05-15T11:40:00Z</time>
      </trkpt>
      <trkpt lat="48.58015" lon="1.83716">
        <ele>155</ele>
        <time>2010-05-15T11:40:00Z</time>
      </trkpt>
      <trkpt lat="48.58016" lon="1.83716">
        <ele>155</ele>
        <time>2010-05-15T11:40:01Z</time>
      </trkpt>
      <trkpt lat="48.58018" lon="1.83715">
        <ele>156</ele>
        <time>2010-05-15T11:40:02Z</time>
      </trkpt>
      <trkpt lat="48.58019" lon="1.83715">
        <ele>156</ele>
        <time>2010-05-15T11:40:03Z</time>
      </trkpt>
      <trkpt lat="48.58021" lon="1.83714">
        <ele>156</ele>
        <time>2010-05-15T11:40:05Z</time>
      </trkpt>
      <trkpt lat="48.58022" lon="1.83713">
        <ele>156</ele>
        <time>2010-05-15T11:40:05Z</time>
      </trkpt>
      <trkpt lat="48.58023" lon="1.83713">
        <ele>156</ele>
        <time>2010-05-15T11:40:06Z</time>
      </trkpt>
      <trkpt lat="48.58025" lon="1.83711">
        <ele>156</ele>
        <time>2010-05-15T11:40:07Z</time>
      </trkpt>
      <trkpt lat="48.58026" lon="1.83711">
        <ele>156</ele>
        <time>2010-05-15T11:40:08Z</time>
      </trkpt>
      <trkpt lat="48.58028" lon="1.8371">
        <ele>156</ele>
        <time>2010-05-15T11:40:10Z</time>
      </trkpt>
      <trkpt lat="48.58029" lon="1.8371">
        <ele>157</ele>
        <time>2010-05-15T11:40:10Z</time>
      </trkpt>
      <trkpt lat="48.58031" lon="1.83708">
        <ele>157</ele>
        <time>2010-05-15T11:40:12Z</time>
      </trkpt>
      <trkpt lat="48.58034" lon="1.83706">
        <ele>158</ele>
        <time>2010-05-15T11:40:15Z</time>
      </trkpt>
      <trkpt lat="48.58035" lon="1.83705">
        <ele>158</ele>
        <time>2010-05-15T11:40:15Z</time>
      </trkpt>
      <trkpt lat="48.58037" lon="1.83705">
        <ele>158</ele>
        <time>2010-05-15T11:40:16Z</time>
      </trkpt>
      <trkpt lat="48.58038" lon="1.83704">
        <ele>158</ele>
        <time>2010-05-15T11:40:17Z</time>
      </trkpt>
      <trkpt lat="48.5804" lon="1.83703">
        <ele>158</ele>
        <time>2010-05-15T11:40:18Z</time>
      </trkpt>
      <trkpt lat="48.58041" lon="1.83703">
        <ele>158</ele>
        <time>2010-05-15T11:40:20Z</time>
      </trkpt>
      <trkpt lat="48.58043" lon="1.83701">
        <ele>159</ele>
        <time>2010-05-15T11:40:20Z</time>
      </trkpt>
      <trkpt lat="48.58044" lon="1.837">
        <ele>159</ele>
        <time>2010-05-15T11:40:21Z</time>
      </trkpt>
      <trkpt lat="48.58046" lon="1.83698">
        <ele>159</ele>
        <time>2010-05-15T11:40:23Z</time>
      </trkpt>
      <trkpt lat="48.58047" lon="1.83697">
        <ele>159</ele>
        <time>2010-05-15T11:40:25Z</time>
      </trkpt>
      <trkpt lat="48.58048" lon="1.83696">
        <ele>159</ele>
        <time>2010-05-15T11:40:25Z</time>
      </trkpt>
      <trkpt lat="48.5805" lon="1.83694">
        <ele>160</ele>
        <time>2010-05-15T11:40:27Z</time>
      </trkpt>
      <trkpt lat="48.58052" lon="1.83692">
        <ele>161</ele>
        <time>2010-05-15T11:40:30Z</time>
      </trkpt>
      <trkpt lat="48.58054" lon="1.83691">
        <ele>161</ele>
        <time>2010-05-15T11:40:30Z</time>
      </trkpt>
      <trkpt lat="48.58055" lon="1.8369">
        <ele>162</ele>
        <time>2010-05-15T11:40:31Z</time>
      </trkpt>
      <trkpt lat="48.58056" lon="1.83689">
        <ele>162</ele>
        <time>2010-05-15T11:40:32Z</time>
      </trkpt>
      <trkpt lat="48.58058" lon="1.83688">
        <ele>162</ele>
        <time>2010-05-15T11:40:33Z</time>
      </trkpt>
      <trkpt lat="48.58059" lon="1.83687">
        <ele>162</ele>
        <time>2010-05-15T11:40:35Z</time>
      </trkpt>
      <trkpt lat="48.58061" lon="1.83686">
        <ele>162</ele>
        <time>2010-05-15T11:40:36Z</time>
      </trkpt>
      <trkpt lat="48.58064" lon="1.83684">
        <ele>163</ele>
        <time>2010-05-15T11:40:38Z</time>
      </trkpt>
      <trkpt lat="48.58065" lon="1.83683">
        <ele>163</ele>
        <time>2010-05-15T11:40:40Z</time>
      </trkpt>
      <trkpt lat="48.58067" lon="1.83683">
        <ele>163</ele>
        <time>2010-05-15T11:40:40Z</time>
      </trkpt>
      <trkpt lat="48.58069" lon="1.83683">
        <ele>163</ele>
        <time>2010-05-15T11:40:41Z</time>
      </trkpt>
      <trkpt lat="48.5807" lon="1.83682">
        <ele>163</ele>
        <time>2010-05-15T11:40:42Z</time>
      </trkpt>
      <trkpt lat="48.58072" lon="1.83682">
        <ele>163</ele>
        <time>2010-05-15T11:40:43Z</time>
      </trkpt>
      <trkpt lat="48.58073" lon="1.83681">
        <ele>163</ele>
        <time>2010-05-15T11:40:45Z</time>
      </trkpt>
      <trkpt lat="48.58074" lon="1.8368">
        <ele>163</ele>
        <time>2010-05-15T11:40:45Z</time>
      </trkpt>
      <trkpt lat="48.58076" lon="1.8368">
        <ele>163</ele>
        <time>2010-05-15T11:40:46Z</time>
      </trkpt>
      <trkpt lat="48.58077" lon="1.83679">
        <ele>163</ele>
        <time>2010-05-15T11:40:47Z</time>
      </trkpt>
      <trkpt lat="48.58078" lon="1.83679">
        <ele>164</ele>
        <time>2010-05-15T11:40:48Z</time>
      </trkpt>
      <trkpt lat="48.5808" lon="1.83679">
        <ele>164</ele>
        <time>2010-05-15T11:40:50Z</time>
      </trkpt>
      <trkpt lat="48.58081" lon="1.83678">
        <ele>164</ele>
        <time>2010-05-15T11:40:50Z</time>
      </trkpt>
      <trkpt lat="48.58082" lon="1.83678">
        <ele>164</ele>
        <time>2010-05-15T11:40:51Z</time>
      </trkpt>
      <trkpt lat="48.58084" lon="1.83678">
        <ele>164</ele>
        <time>2010-05-15T11:40:52Z</time>
      </trkpt>
      <trkpt lat="48.58086" lon="1.83678">
        <ele>164</ele>
        <time>2010-05-15T11:40:53Z</time>
      </trkpt>
      <trkpt lat="48.58087" lon="1.83677">
        <ele>164</ele>
        <time>2010-05-15T11:40:55Z</time>
      </trkpt>
      <trkpt lat="48.58088" lon="1.83677">
        <ele>164</ele>
        <time>2010-05-15T11:40:55Z</time>
      </trkpt>
      <trkpt lat="48.5809" lon="1.83676">
        <ele>164</ele>
        <time>2010-05-15T11:40:56Z</time>
      </trkpt>
      <trkpt lat="48.58092" lon="1.83676">
        <ele>164</ele>
        <time>2010-05-15T11:40:57Z</time>
      </trkpt>
      <trkpt lat="48.58093" lon="1.83675">
        <ele>165</ele>
        <time>2010-05-15T11:40:58Z</time>
      </trkpt>
      <trkpt lat="48.58094" lon="1.83675">
        <ele>165</ele>
        <time>2010-05-15T11:41:00Z</time>
      </trkpt>
      <trkpt lat="48.58096" lon="1.83674">
        <ele>165</ele>
        <time>2010-05-15T11:41:00Z</time>
      </trkpt>
      <trkpt lat="48.58097" lon="1.83674">
        <ele>165</ele>
        <time>2010-05-15T11:41:01Z</time>
      </trkpt>
      <trkpt lat="48.58099" lon="1.83674">
        <ele>166</ele>
        <time>2010-05-15T11:41:02Z</time>
      </trkpt>
      <trkpt lat="48.58101" lon="1.83673">
        <ele>166</ele>
        <time>2010-05-15T11:41:03Z</time>
      </trkpt>
      <trkpt lat="48.58102" lon="1.83673">
        <ele>166</ele>
        <time>2010-05-15T11:41:05Z</time>
      </trkpt>
      <trkpt lat="48.58104" lon="1.83672">
        <ele>166</ele>
        <time>2010-05-15T11:41:05Z</time>
      </trkpt>
      <trkpt lat="48.58106" lon="1.83673">
        <ele>166</ele>
        <time>2010-05-15T11:41:06Z</time>
      </trkpt>
      <trkpt lat="48.58108" lon="1.83673">
        <ele>166</ele>
        <time>2010-05-15T11:41:07Z</time>
      </trkpt>
      <trkpt lat="48.5811" lon="1.83673">
        <ele>166</ele>
        <time>2010-05-15T11:41:08Z</time>
      </trkpt>
      <trkpt lat="48.58111" lon="1.83672">
        <ele>166</ele>
        <time>2010-05-15T11:41:10Z</time>
      </trkpt>
      <trkpt lat="48.58113" lon="1.83672">
        <ele>166</ele>
        <time>2010-05-15T11:41:10Z</time>
      </trkpt>
      <trkpt lat="48.58115" lon="1.83672">
        <ele>166</ele>
        <time>2010-05-15T11:41:11Z</time>
      </trkpt>
      <trkpt lat="48.58116" lon="1.83671">
        <ele>166</ele>
        <time>2010-05-15T11:41:12Z</time>
      </trkpt>
      <trkpt lat="48.58118" lon="1.83671">
        <ele>166</ele>
        <time>2010-05-15T11:41:13Z</time>
      </trkpt>
      <trkpt lat="48.58119" lon="1.8367">
        <ele>166</ele>
        <time>2010-05-15T11:41:14Z</time>
      </trkpt>
      <trkpt lat="48.5812" lon="1.8367">
        <ele>166</ele>
        <time>2010-05-15T11:41:16Z</time>
      </trkpt>
      <trkpt lat="48.58122" lon="1.83669">
        <ele>166</ele>
        <time>2010-05-15T11:41:16Z</time>
      </trkpt>
      <trkpt lat="48.58124" lon="1.83668">
        <ele>166</ele>
        <time>2010-05-15T11:41:17Z</time>
      </trkpt>
      <trkpt lat="48.58126" lon="1.83667">
        <ele>166</ele>
        <time>2010-05-15T11:41:18Z</time>
      </trkpt>
      <trkpt lat="48.58127" lon="1.83667">
        <ele>167</ele>
        <time>2010-05-15T11:41:19Z</time>
      </trkpt>
      <trkpt lat="48.5813" lon="1.83668">
        <ele>168</ele>
        <time>2010-05-15T11:41:22Z</time>
      </trkpt>
      <trkpt lat="48.58131" lon="1.83668">
        <ele>168</ele>
        <time>2010-05-15T11:41:23Z</time>
      </trkpt>
      <trkpt lat="48.58133" lon="1.83668">
        <ele>169</ele>
        <time>2010-05-15T11:41:24Z</time>
      </trkpt>
      <trkpt lat="48.58134" lon="1.83669">
        <ele>169</ele>
        <time>2010-05-15T11:41:25Z</time>
      </trkpt>
      <trkpt lat="48.58136" lon="1.8367">
        <ele>169</ele>
        <time>2010-05-15T11:41:26Z</time>
      </trkpt>
      <trkpt lat="48.58137" lon="1.8367">
        <ele>170</ele>
        <time>2010-05-15T11:41:27Z</time>
      </trkpt>
      <trkpt lat="48.58139" lon="1.83673">
        <ele>170</ele>
        <time>2010-05-15T11:41:29Z</time>
      </trkpt>
      <trkpt lat="48.5814" lon="1.83675">
        <ele>170</ele>
        <time>2010-05-15T11:41:30Z</time>
      </trkpt>
      <trkpt lat="48.58141" lon="1.83677">
        <ele>171</ele>
        <time>2010-05-15T11:41:32Z</time>
      </trkpt>
      <trkpt lat="48.58141" lon="1.83679">
        <ele>171</ele>
        <time>2010-05-15T11:41:33Z</time>
      </trkpt>
      <trkpt lat="48.58142" lon="1.83682">
        <ele>171</ele>
        <time>2010-05-15T11:41:34Z</time>
      </trkpt>
      <trkpt lat="48.58143" lon="1.83684">
        <ele>171</ele>
        <time>2010-05-15T11:41:35Z</time>
      </trkpt>
      <trkpt lat="48.58144" lon="1.83688">
        <ele>171</ele>
        <time>2010-05-15T11:41:37Z</time>
      </trkpt>
      <trkpt lat="48.58146" lon="1.83692">
        <ele>171</ele>
        <time>2010-05-15T11:41:38Z</time>
      </trkpt>
      <trkpt lat="48.58147" lon="1.83694">
        <ele>171</ele>
        <time>2010-05-15T11:41:40Z</time>
      </trkpt>
      <trkpt lat="48.58148" lon="1.83696">
        <ele>171</ele>
        <time>2010-05-15T11:41:41Z</time>
      </trkpt>
      <trkpt lat="48.58148" lon="1.83697">
        <ele>171</ele>
        <time>2010-05-15T11:41:42Z</time>
      </trkpt>
      <trkpt lat="48.58149" lon="1.837">
        <ele>171</ele>
        <time>2010-05-15T11:41:43Z</time>
      </trkpt>
      <trkpt lat="48.5815" lon="1.83701">
        <ele>171</ele>
        <time>2010-05-15T11:41:44Z</time>
      </trkpt>
      <trkpt lat="48.5815" lon="1.83703">
        <ele>171</ele>
        <time>2010-05-15T11:41:45Z</time>
      </trkpt>
      <trkpt lat="48.58152" lon="1.83707">
        <ele>171</ele>
        <time>2010-05-15T11:41:47Z</time>
      </trkpt>
      <trkpt lat="48.58154" lon="1.83709">
        <ele>171</ele>
        <time>2010-05-15T11:41:49Z</time>
      </trkpt>
      <trkpt lat="48.58155" lon="1.83711">
        <ele>171</ele>
        <time>2010-05-15T11:41:50Z</time>
      </trkpt>
      <trkpt lat="48.58156" lon="1.83713">
        <ele>171</ele>
        <time>2010-05-15T11:41:51Z</time>
      </trkpt>
      <trkpt lat="48.58156" lon="1.83715">
        <ele>171</ele>
        <time>2010-05-15T11:41:52Z</time>
      </trkpt>
      <trkpt lat="48.58157" lon="1.83717">
        <ele>171</ele>
        <time>2010-05-15T11:41:53Z</time>
      </trkpt>
      <trkpt lat="48.58158" lon="1.83719">
        <ele>170</ele>
        <time>2010-05-15T11:41:54Z</time>
      </trkpt>
      <trkpt lat="48.58158" lon="1.83721">
        <ele>170</ele>
        <time>2010-05-15T11:41:55Z</time>
      </trkpt>
      <trkpt lat="48.58159" lon="1.83723">
        <ele>169</ele>
        <time>2010-05-15T11:41:56Z</time>
      </trkpt>
      <trkpt lat="48.58159" lon="1.83725">
        <ele>169</ele>
        <time>2010-05-15T11:41:57Z</time>
      </trkpt>
      <trkpt lat="48.5816" lon="1.83727">
        <ele>169</ele>
        <time>2010-05-15T11:41:58Z</time>
      </trkpt>
      <trkpt lat="48.58162" lon="1.83727">
        <ele>169</ele>
        <time>2010-05-15T11:42:00Z</time>
      </trkpt>
      <trkpt lat="48.58163" lon="1.83729">
        <ele>169</ele>
        <time>2010-05-15T11:42:02Z</time>
      </trkpt>
      <trkpt lat="48.58164" lon="1.8373">
        <ele>169</ele>
        <time>2010-05-15T11:42:05Z</time>
      </trkpt>
      <trkpt lat="48.58164" lon="1.83733">
        <ele>169</ele>
        <time>2010-05-15T11:42:08Z</time>
      </trkpt>
      <trkpt lat="48.58163" lon="1.83735">
        <ele>169</ele>
        <time>2010-05-15T11:42:10Z</time>
      </trkpt>
      <trkpt lat="48.58161" lon="1.83738">
        <ele>169</ele>
        <time>2010-05-15T11:42:12Z</time>
      </trkpt>
      <trkpt lat="48.58161" lon="1.8374">
        <ele>169</ele>
        <time>2010-05-15T11:42:13Z</time>
      </trkpt>
      <trkpt lat="48.5816" lon="1.83742">
        <ele>169</ele>
        <time>2010-05-15T11:42:14Z</time>
      </trkpt>
      <trkpt lat="48.5816" lon="1.83743">
        <ele>169</ele>
        <time>2010-05-15T11:42:15Z</time>
      </trkpt>
      <trkpt lat="48.58159" lon="1.83745">
        <ele>169</ele>
        <time>2010-05-15T11:42:16Z</time>
      </trkpt>
      <trkpt lat="48.58158" lon="1.83747">
        <ele>169</ele>
        <time>2010-05-15T11:42:17Z</time>
      </trkpt>
      <trkpt lat="48.58157" lon="1.8375">
        <ele>169</ele>
        <time>2010-05-15T11:42:19Z</time>
      </trkpt>
      <trkpt lat="48.58157" lon="1.83752">
        <ele>169</ele>
        <time>2010-05-15T11:42:20Z</time>
      </trkpt>
      <trkpt lat="48.58156" lon="1.83754">
        <ele>169</ele>
        <time>2010-05-15T11:42:22Z</time>
      </trkpt>
      <trkpt lat="48.58156" lon="1.83757">
        <ele>169</ele>
        <time>2010-05-15T11:42:23Z</time>
      </trkpt>
      <trkpt lat="48.58156" lon="1.83759">
        <ele>169</ele>
        <time>2010-05-15T11:42:24Z</time>
      </trkpt>
      <trkpt lat="48.58156" lon="1.83762">
        <ele>169</ele>
        <time>2010-05-15T11:42:25Z</time>
      </trkpt>
      <trkpt lat="48.58159" lon="1.83766">
        <ele>169</ele>
        <time>2010-05-15T11:42:26Z</time>
      </trkpt>
      <trkpt lat="48.5816" lon="1.83768">
        <ele>169</ele>
        <time>2010-05-15T11:42:28Z</time>
      </trkpt>
      <trkpt lat="48.5816" lon="1.8377">
        <ele>169</ele>
        <time>2010-05-15T11:42:29Z</time>
      </trkpt>
      <trkpt lat="48.58159" lon="1.83773">
        <ele>169</ele>
        <time>2010-05-15T11:42:30Z</time>
      </trkpt>
      <trkpt lat="48.58158" lon="1.83776">
        <ele>169</ele>
        <time>2010-05-15T11:42:31Z</time>
      </trkpt>
      <trkpt lat="48.58157" lon="1.83778">
        <ele>169</ele>
        <time>2010-05-15T11:42:32Z</time>
      </trkpt>
      <trkpt lat="48.58157" lon="1.83781">
        <ele>169</ele>
        <time>2010-05-15T11:42:33Z</time>
      </trkpt>
      <trkpt lat="48.58157" lon="1.83784">
        <ele>169</ele>
        <time>2010-05-15T11:42:34Z</time>
      </trkpt>
      <trkpt lat="48.58157" lon="1.83787">
        <ele>169</ele>
        <time>2010-05-15T11:42:35Z</time>
      </trkpt>
      <trkpt lat="48.58157" lon="1.83789">
        <ele>169</ele>
        <time>2010-05-15T11:42:36Z</time>
      </trkpt>
      <trkpt lat="48.58158" lon="1.83792">
        <ele>169</ele>
        <time>2010-05-15T11:42:37Z</time>
      </trkpt>
      <trkpt lat="48.58159" lon="1.83794">
        <ele>169</ele>
        <time>2010-05-15T11:42:38Z</time>
      </trkpt>
      <trkpt lat="48.58158" lon="1.83796">
        <ele>169</ele>
        <time>2010-05-15T11:42:39Z</time>
      </trkpt>
      <trkpt lat="48.58158" lon="1.83799">
        <ele>169</ele>
        <time>2010-05-15T11:42:40Z</time>
      </trkpt>
      <trkpt lat="48.58158" lon="1.83801">
        <ele>169</ele>
        <time>2010-05-15T11:42:41Z</time>
      </trkpt>
      <trkpt lat="48.58158" lon="1.83803">
        <ele>169</ele>
        <time>2010-05-15T11:42:42Z</time>
      </trkpt>
      <trkpt lat="48.58158" lon="1.83805">
        <ele>168</ele>
        <time>2010-05-15T11:42:43Z</time>
      </trkpt>
      <trkpt lat="48.58158" lon="1.83807">
        <ele>168</ele>
        <time>2010-05-15T11:42:44Z</time>
      </trkpt>
      <trkpt lat="48.58158" lon="1.83809">
        <ele>168</ele>
        <time>2010-05-15T11:42:45Z</time>
      </trkpt>
      <trkpt lat="48.58158" lon="1.83812">
        <ele>168</ele>
        <time>2010-05-15T11:42:46Z</time>
      </trkpt>
      <trkpt lat="48.58158" lon="1.83814">
        <ele>167</ele>
        <time>2010-05-15T11:42:47Z</time>
      </trkpt>
      <trkpt lat="48.58158" lon="1.83817">
        <ele>167</ele>
        <time>2010-05-15T11:42:48Z</time>
      </trkpt>
      <trkpt lat="48.58158" lon="1.83819">
        <ele>167</ele>
        <time>2010-05-15T11:42:50Z</time>
      </trkpt>
      <trkpt lat="48.58158" lon="1.83821">
        <ele>167</ele>
        <time>2010-05-15T11:42:51Z</time>
      </trkpt>
      <trkpt lat="48.58157" lon="1.83823">
        <ele>167</ele>
        <time>2010-05-15T11:42:52Z</time>
      </trkpt>
      <trkpt lat="48.58157" lon="1.83827">
        <ele>167</ele>
        <time>2010-05-15T11:42:53Z</time>
      </trkpt>
      <trkpt lat="48.58158" lon="1.83829">
        <ele>167</ele>
        <time>2010-05-15T11:42:55Z</time>
      </trkpt>
      <trkpt lat="48.58159" lon="1.83831">
        <ele>167</ele>
        <time>2010-05-15T11:42:56Z</time>
      </trkpt>
      <trkpt lat="48.58159" lon="1.83834">
        <ele>166</ele>
        <time>2010-05-15T11:42:56Z</time>
      </trkpt>
      <trkpt lat="48.58158" lon="1.83836">
        <ele>166</ele>
        <time>2010-05-15T11:42:58Z</time>
      </trkpt>
      <trkpt lat="48.58158" lon="1.83839">
        <ele>165</ele>
        <time>2010-05-15T11:42:59Z</time>
      </trkpt>
      <trkpt lat="48.58158" lon="1.83842">
        <ele>165</ele>
        <time>2010-05-15T11:42:59Z</time>
      </trkpt>
      <trkpt lat="48.58158" lon="1.83844">
        <ele>164</ele>
        <time>2010-05-15T11:43:01Z</time>
      </trkpt>
      <trkpt lat="48.58156" lon="1.83847">
        <ele>163</ele>
        <time>2010-05-15T11:43:02Z</time>
      </trkpt>
      <trkpt lat="48.58155" lon="1.83848">
        <ele>162</ele>
        <time>2010-05-15T11:43:04Z</time>
      </trkpt>
      <trkpt lat="48.58153" lon="1.8385">
        <ele>162</ele>
        <time>2010-05-15T11:43:04Z</time>
      </trkpt>
      <trkpt lat="48.58153" lon="1.83852">
        <ele>162</ele>
        <time>2010-05-15T11:43:05Z</time>
      </trkpt>
      <trkpt lat="48.58153" lon="1.83853">
        <ele>162</ele>
        <time>2010-05-15T11:43:07Z</time>
      </trkpt>
      <trkpt lat="48.58153" lon="1.83857">
        <ele>162</ele>
        <time>2010-05-15T11:43:08Z</time>
      </trkpt>
      <trkpt lat="48.58152" lon="1.8386">
        <ele>162</ele>
        <time>2010-05-15T11:43:09Z</time>
      </trkpt>
      <trkpt lat="48.58153" lon="1.83862">
        <ele>162</ele>
        <time>2010-05-15T11:43:11Z</time>
      </trkpt>
      <trkpt lat="48.58153" lon="1.83864">
        <ele>161</ele>
        <time>2010-05-15T11:43:12Z</time>
      </trkpt>
      <trkpt lat="48.58154" lon="1.83867">
        <ele>161</ele>
        <time>2010-05-15T11:43:13Z</time>
      </trkpt>
      <trkpt lat="48.58155" lon="1.8387">
        <ele>161</ele>
        <time>2010-05-15T11:43:13Z</time>
      </trkpt>
      <trkpt lat="48.58156" lon="1.83872">
        <ele>161</ele>
        <time>2010-05-15T11:43:15Z</time>
      </trkpt>
      <trkpt lat="48.58157" lon="1.83875">
        <ele>161</ele>
        <time>2010-05-15T11:43:17Z</time>
      </trkpt>
      <trkpt lat="48.58157" lon="1.83878">
        <ele>161</ele>
        <time>2010-05-15T11:43:17Z</time>
      </trkpt>
      <trkpt lat="48.58157" lon="1.83879">
        <ele>161</ele>
        <time>2010-05-15T11:43:19Z</time>
      </trkpt>
      <trkpt lat="48.58158" lon="1.83883">
        <ele>161</ele>
        <time>2010-05-15T11:43:19Z</time>
      </trkpt>
      <trkpt lat="48.58159" lon="1.83885">
        <ele>161</ele>
        <time>2010-05-15T11:43:21Z</time>
      </trkpt>
      <trkpt lat="48.58159" lon="1.83887">
        <ele>161</ele>
        <time>2010-05-15T11:43:22Z</time>
      </trkpt>
      <trkpt lat="48.5816" lon="1.8389">
        <ele>161</ele>
        <time>2010-05-15T11:43:23Z</time>
      </trkpt>
      <trkpt lat="48.58161" lon="1.83892">
        <ele>161</ele>
        <time>2010-05-15T11:43:24Z</time>
      </trkpt>
      <trkpt lat="48.58161" lon="1.83895">
        <ele>161</ele>
        <time>2010-05-15T11:43:24Z</time>
      </trkpt>
      <trkpt lat="48.58161" lon="1.83897">
        <ele>161</ele>
        <time>2010-05-15T11:43:26Z</time>
      </trkpt>
      <trkpt lat="48.58161" lon="1.83899">
        <ele>161</ele>
        <time>2010-05-15T11:43:27Z</time>
      </trkpt>
      <trkpt lat="48.58162" lon="1.83901">
        <ele>161</ele>
        <time>2010-05-15T11:43:28Z</time>
      </trkpt>
      <trkpt lat="48.58161" lon="1.83904">
        <ele>161</ele>
        <time>2010-05-15T11:43:29Z</time>
      </trkpt>
      <trkpt lat="48.58162" lon="1.83906">
        <ele>161</ele>
        <time>2010-05-15T11:43:30Z</time>
      </trkpt>
      <trkpt lat="48.58162" lon="1.83908">
        <ele>161</ele>
        <time>2010-05-15T11:43:31Z</time>
      </trkpt>
      <trkpt lat="48.58162" lon="1.8391">
        <ele>161</ele>
        <time>2010-05-15T11:43:32Z</time>
      </trkpt>
      <trkpt lat="48.58162" lon="1.83913">
        <ele>161</ele>
        <time>2010-05-15T11:43:32Z</time>
      </trkpt>
      <trkpt lat="48.58162" lon="1.83916">
        <ele>161</ele>
        <time>2010-05-15T11:43:34Z</time>
      </trkpt>
      <trkpt lat="48.58162" lon="1.83918">
        <ele>161</ele>
        <time>2010-05-15T11:43:35Z</time>
      </trkpt>
      <trkpt lat="48.58163" lon="1.8392">
        <ele>161</ele>
        <time>2010-05-15T11:43:36Z</time>
      </trkpt>
      <trkpt lat="48.58163" lon="1.83923">
        <ele>161</ele>
        <time>2010-05-15T11:43:36Z</time>
      </trkpt>
      <trkpt lat="48.58164" lon="1.83926">
        <ele>161</ele>
        <time>2010-05-15T11:43:38Z</time>
      </trkpt>
      <trkpt lat="48.58164" lon="1.83928">
        <ele>161</ele>
        <time>2010-05-15T11:43:39Z</time>
      </trkpt>
      <trkpt lat="48.58165" lon="1.83932">
        <ele>161</ele>
        <time>2010-05-15T11:43:39Z</time>
      </trkpt>
      <trkpt lat="48.58165" lon="1.83935">
        <ele>161</ele>
        <time>2010-05-15T11:43:41Z</time>
      </trkpt>
      <trkpt lat="48.58166" lon="1.83938">
        <ele>161</ele>
        <time>2010-05-15T11:43:42Z</time>
      </trkpt>
      <trkpt lat="48.58167" lon="1.83941">
        <ele>161</ele>
        <time>2010-05-15T11:43:43Z</time>
      </trkpt>
      <trkpt lat="48.58167" lon="1.83943">
        <ele>161</ele>
        <time>2010-05-15T11:43:44Z</time>
      </trkpt>
      <trkpt lat="48.58167" lon="1.83946">
        <ele>161</ele>
        <time>2010-05-15T11:43:45Z</time>
      </trkpt>
      <trkpt lat="48.58167" lon="1.83948">
        <ele>161</ele>
        <time>2010-05-15T11:43:46Z</time>
      </trkpt>
      <trkpt lat="48.58167" lon="1.8395">
        <ele>161</ele>
        <time>2010-05-15T11:43:46Z</time>
      </trkpt>
      <trkpt lat="48.58168" lon="1.83952">
        <ele>161</ele>
        <time>2010-05-15T11:43:48Z</time>
      </trkpt>
      <trkpt lat="48.58168" lon="1.83955">
        <ele>161</ele>
        <time>2010-05-15T11:43:49Z</time>
      </trkpt>
      <trkpt lat="48.58169" lon="1.83958">
        <ele>161</ele>
        <time>2010-05-15T11:43:50Z</time>
      </trkpt>
      <trkpt lat="48.58168" lon="1.83961">
        <ele>161</ele>
        <time>2010-05-15T11:43:51Z</time>
      </trkpt>
      <trkpt lat="48.58168" lon="1.83964">
        <ele>161</ele>
        <time>2010-05-15T11:43:52Z</time>
      </trkpt>
      <trkpt lat="48.58168" lon="1.83966">
        <ele>161</ele>
        <time>2010-05-15T11:43:53Z</time>
      </trkpt>
      <trkpt lat="48.58168" lon="1.83969">
        <ele>160</ele>
        <time>2010-05-15T11:43:54Z</time>
      </trkpt>
      <trkpt lat="48.58169" lon="1.83972">
        <ele>160</ele>
        <time>2010-05-15T11:43:55Z</time>
      </trkpt>
      <trkpt lat="48.58169" lon="1.83974">
        <ele>160</ele>
        <time>2010-05-15T11:43:56Z</time>
      </trkpt>
      <trkpt lat="48.58169" lon="1.83976">
        <ele>159</ele>
        <time>2010-05-15T11:43:57Z</time>
      </trkpt>
      <trkpt lat="48.58169" lon="1.83979">
        <ele>159</ele>
        <time>2010-05-15T11:43:58Z</time>
      </trkpt>
      <trkpt lat="48.58169" lon="1.83982">
        <ele>158</ele>
        <time>2010-05-15T11:43:59Z</time>
      </trkpt>
      <trkpt lat="48.58169" lon="1.83984">
        <ele>158</ele>
        <time>2010-05-15T11:44:00Z</time>
      </trkpt>
      <trkpt lat="48.58169" lon="1.83988">
        <ele>157</ele>
        <time>2010-05-15T11:44:02Z</time>
      </trkpt>
      <trkpt lat="48.5817" lon="1.8399">
        <ele>157</ele>
        <time>2010-05-15T11:44:03Z</time>
      </trkpt>
      <trkpt lat="48.5817" lon="1.83993">
        <ele>157</ele>
        <time>2010-05-15T11:44:04Z</time>
      </trkpt>
      <trkpt lat="48.58171" lon="1.83995">
        <ele>157</ele>
        <time>2010-05-15T11:44:04Z</time>
      </trkpt>
      <trkpt lat="48.58171" lon="1.83998">
        <ele>157</ele>
        <time>2010-05-15T11:44:06Z</time>
      </trkpt>
      <trkpt lat="48.58171" lon="1.84001">
        <ele>157</ele>
        <time>2010-05-15T11:44:07Z</time>
      </trkpt>
      <trkpt lat="48.58172" lon="1.84003">
        <ele>157</ele>
        <time>2010-05-15T11:44:07Z</time>
      </trkpt>
      <trkpt lat="48.58172" lon="1.84005">
        <ele>157</ele>
        <time>2010-05-15T11:44:09Z</time>
      </trkpt>
      <trkpt lat="48.58173" lon="1.84007">
        <ele>157</ele>
        <time>2010-05-15T11:44:10Z</time>
      </trkpt>
      <trkpt lat="48.58173" lon="1.84009">
        <ele>157</ele>
        <time>2010-05-15T11:44:11Z</time>
      </trkpt>
      <trkpt lat="48.58173" lon="1.84012">
        <ele>157</ele>
        <time>2010-05-15T11:44:12Z</time>
      </trkpt>
      <trkpt lat="48.58174" lon="1.84015">
        <ele>157</ele>
        <time>2010-05-15T11:44:13Z</time>
      </trkpt>
      <trkpt lat="48.58174" lon="1.84017">
        <ele>157</ele>
        <time>2010-05-15T11:44:14Z</time>
      </trkpt>
      <trkpt lat="48.58174" lon="1.8402">
        <ele>157</ele>
        <time>2010-05-15T11:44:15Z</time>
      </trkpt>
      <trkpt lat="48.58175" lon="1.84023">
        <ele>157</ele>
        <time>2010-05-15T11:44:16Z</time>
      </trkpt>
      <trkpt lat="48.58174" lon="1.84026">
        <ele>157</ele>
        <time>2010-05-15T11:44:17Z</time>
      </trkpt>
      <trkpt lat="48.58174" lon="1.84028">
        <ele>156</ele>
        <time>2010-05-15T11:44:18Z</time>
      </trkpt>
      <trkpt lat="48.58174" lon="1.84031">
        <ele>156</ele>
        <time>2010-05-15T11:44:19Z</time>
      </trkpt>
      <trkpt lat="48.58174" lon="1.84033">
        <ele>155</ele>
        <time>2010-05-15T11:44:20Z</time>
      </trkpt>
      <trkpt lat="48.58175" lon="1.84036">
        <ele>154</ele>
        <time>2010-05-15T11:44:20Z</time>
      </trkpt>
      <trkpt lat="48.58175" lon="1.84039">
        <ele>154</ele>
        <time>2010-05-15T11:44:23Z</time>
      </trkpt>
      <trkpt lat="48.58175" lon="1.84041">
        <ele>154</ele>
        <time>2010-05-15T11:44:24Z</time>
      </trkpt>
      <trkpt lat="48.58175" lon="1.84044">
        <ele>154</ele>
        <time>2010-05-15T11:44:24Z</time>
      </trkpt>
      <trkpt lat="48.58175" lon="1.84047">
        <ele>154</ele>
        <time>2010-05-15T11:44:26Z</time>
      </trkpt>
      <trkpt lat="48.58175" lon="1.84049">
        <ele>154</ele>
        <time>2010-05-15T11:44:27Z</time>
      </trkpt>
      <trkpt lat="48.58173" lon="1.84052">
        <ele>154</ele>
        <time>2010-05-15T11:44:28Z</time>
      </trkpt>
      <trkpt lat="48.58173" lon="1.84055">
        <ele>154</ele>
        <time>2010-05-15T11:44:30Z</time>
      </trkpt>
      <trkpt lat="48.58172" lon="1.84058">
        <ele>154</ele>
        <time>2010-05-15T11:44:31Z</time>
      </trkpt>
      <trkpt lat="48.58172" lon="1.84059">
        <ele>154</ele>
        <time>2010-05-15T11:44:31Z</time>
      </trkpt>
      <trkpt lat="48.58171" lon="1.84063">
        <ele>154</ele>
        <time>2010-05-15T11:44:34Z</time>
      </trkpt>
      <trkpt lat="48.58172" lon="1.84066">
        <ele>154</ele>
        <time>2010-05-15T11:44:36Z</time>
      </trkpt>
      <trkpt lat="48.58173" lon="1.84067">
        <ele>155</ele>
        <time>2010-05-15T11:44:36Z</time>
      </trkpt>
      <trkpt lat="48.58173" lon="1.8407">
        <ele>157</ele>
        <time>2010-05-15T11:44:38Z</time>
      </trkpt>
      <trkpt lat="48.58172" lon="1.84073">
        <ele>159</ele>
        <time>2010-05-15T11:44:41Z</time>
      </trkpt>
      <trkpt lat="48.58172" lon="1.84075">
        <ele>160</ele>
        <time>2010-05-15T11:44:42Z</time>
      </trkpt>
      <trkpt lat="48.58171" lon="1.84077">
        <ele>161</ele>
        <time>2010-05-15T11:44:43Z</time>
      </trkpt>
      <trkpt lat="48.5817" lon="1.8408">
        <ele>162</ele>
        <time>2010-05-15T11:44:44Z</time>
      </trkpt>
      <trkpt lat="48.5817" lon="1.84083">
        <ele>163</ele>
        <time>2010-05-15T11:44:45Z</time>
      </trkpt>
      <trkpt lat="48.58169" lon="1.84085">
        <ele>164</ele>
        <time>2010-05-15T11:44:46Z</time>
      </trkpt>
      <trkpt lat="48.58169" lon="1.84089">
        <ele>164</ele>
        <time>2010-05-15T11:44:47Z</time>
      </trkpt>
      <trkpt lat="48.58169" lon="1.84093">
        <ele>164</ele>
        <time>2010-05-15T11:44:48Z</time>
      </trkpt>
      <trkpt lat="48.5817" lon="1.84097">
        <ele>164</ele>
        <time>2010-05-15T11:44:48Z</time>
      </trkpt>
      <trkpt lat="48.5817" lon="1.841">
        <ele>164</ele>
        <time>2010-05-15T11:44:50Z</time>
      </trkpt>
      <trkpt lat="48.58171" lon="1.84103">
        <ele>164</ele>
        <time>2010-05-15T11:44:51Z</time>
      </trkpt>
      <trkpt lat="48.58171" lon="1.84105">
        <ele>164</ele>
        <time>2010-05-15T11:44:52Z</time>
      </trkpt>
      <trkpt lat="48.58172" lon="1.84108">
        <ele>164</ele>
        <time>2010-05-15T11:44:53Z</time>
      </trkpt>
      <trkpt lat="48.58172" lon="1.84111">
        <ele>164</ele>
        <time>2010-05-15T11:44:54Z</time>
      </trkpt>
      <trkpt lat="48.58173" lon="1.84114">
        <ele>164</ele>
        <time>2010-05-15T11:44:55Z</time>
      </trkpt>
      <trkpt lat="48.58173" lon="1.84118">
        <ele>164</ele>
        <time>2010-05-15T11:44:55Z</time>
      </trkpt>
      <trkpt lat="48.58174" lon="1.8412">
        <ele>164</ele>
        <time>2010-05-15T11:44:57Z</time>
      </trkpt>
      <trkpt lat="48.58175" lon="1.84123">
        <ele>164</ele>
        <time>2010-05-15T11:44:57Z</time>
      </trkpt>
      <trkpt lat="48.58175" lon="1.84126">
        <ele>164</ele>
        <time>2010-05-15T11:44:58Z</time>
      </trkpt>
      <trkpt lat="48.58176" lon="1.84129">
        <ele>164</ele>
        <time>2010-05-15T11:44:59Z</time>
      </trkpt>
      <trkpt lat="48.58176" lon="1.84131">
        <ele>164</ele>
        <time>2010-05-15T11:45:00Z</time>
      </trkpt>
      <trkpt lat="48.58176" lon="1.84133">
        <ele>164</ele>
        <time>2010-05-15T11:45:02Z</time>
      </trkpt>
      <trkpt lat="48.58177" lon="1.84135">
        <ele>164</ele>
        <time>2010-05-15T11:45:02Z</time>
      </trkpt>
      <trkpt lat="48.58177" lon="1.84139">
        <ele>164</ele>
        <time>2010-05-15T11:45:04Z</time>
      </trkpt>
      <trkpt lat="48.58176" lon="1.84141">
        <ele>164</ele>
        <time>2010-05-15T11:45:05Z</time>
      </trkpt>
      <trkpt lat="48.58177" lon="1.84144">
        <ele>163</ele>
        <time>2010-05-15T11:45:07Z</time>
      </trkpt>
      <trkpt lat="48.58177" lon="1.84146">
        <ele>163</ele>
        <time>2010-05-15T11:45:07Z</time>
      </trkpt>
      <trkpt lat="48.58177" lon="1.84148">
        <ele>163</ele>
        <time>2010-05-15T11:45:08Z</time>
      </trkpt>
      <trkpt lat="48.58177" lon="1.8415">
        <ele>163</ele>
        <time>2010-05-15T11:45:09Z</time>
      </trkpt>
      <trkpt lat="48.58178" lon="1.84152">
        <ele>163</ele>
        <time>2010-05-15T11:45:11Z</time>
      </trkpt>
      <trkpt lat="48.58178" lon="1.84154">
        <ele>163</ele>
        <time>2010-05-15T11:45:12Z</time>
      </trkpt>
      <trkpt lat="48.58178" lon="1.84155">
        <ele>163</ele>
        <time>2010-05-15T11:45:12Z</time>
      </trkpt>
      <trkpt lat="48.58179" lon="1.84159">
        <ele>163</ele>
        <time>2010-05-15T11:45:14Z</time>
      </trkpt>
      <trkpt lat="48.58179" lon="1.84163">
        <ele>163</ele>
        <time>2010-05-15T11:45:17Z</time>
      </trkpt>
      <trkpt lat="48.58179" lon="1.84166">
        <ele>163</ele>
        <time>2010-05-15T11:45:18Z</time>
      </trkpt>
      <trkpt lat="48.5818" lon="1.84169">
        <ele>163</ele>
        <time>2010-05-15T11:45:19Z</time>
      </trkpt>
      <trkpt lat="48.5818" lon="1.84172">
        <ele>163</ele>
        <time>2010-05-15T11:45:19Z</time>
      </trkpt>
      <trkpt lat="48.5818" lon="1.84176">
        <ele>163</ele>
        <time>2010-05-15T11:45:22Z</time>
      </trkpt>
      <trkpt lat="48.5818" lon="1.84178">
        <ele>163</ele>
        <time>2010-05-15T11:45:23Z</time>
      </trkpt>
      <trkpt lat="48.58181" lon="1.84181">
        <ele>163</ele>
        <time>2010-05-15T11:45:23Z</time>
      </trkpt>
      <trkpt lat="48.58181" lon="1.84184">
        <ele>163</ele>
        <time>2010-05-15T11:45:24Z</time>
      </trkpt>
      <trkpt lat="48.58182" lon="1.84187">
        <ele>163</ele>
        <time>2010-05-15T11:45:25Z</time>
      </trkpt>
      <trkpt lat="48.58182" lon="1.84189">
        <ele>163</ele>
        <time>2010-05-15T11:45:27Z</time>
      </trkpt>
      <trkpt lat="48.58182" lon="1.84191">
        <ele>163</ele>
        <time>2010-05-15T11:45:28Z</time>
      </trkpt>
      <trkpt lat="48.58183" lon="1.84194">
        <ele>162</ele>
        <time>2010-05-15T11:45:29Z</time>
      </trkpt>
      <trkpt lat="48.58183" lon="1.84195">
        <ele>160</ele>
        <time>2010-05-15T11:45:33Z</time>
      </trkpt>
      <trkpt lat="48.58184" lon="1.84196">
        <ele>159</ele>
        <time>2010-05-15T11:45:36Z</time>
      </trkpt>
      <trkpt lat="48.58186" lon="1.84198">
        <ele>159</ele>
        <time>2010-05-15T11:45:40Z</time>
      </trkpt>
      <trkpt lat="48.58188" lon="1.84199">
        <ele>159</ele>
        <time>2010-05-15T11:45:41Z</time>
      </trkpt>
      <trkpt lat="48.58189" lon="1.84199">
        <ele>159</ele>
        <time>2010-05-15T11:45:45Z</time>
      </trkpt>
      <trkpt lat="48.5819" lon="1.84198">
        <ele>159</ele>
        <time>2010-05-15T11:45:50Z</time>
      </trkpt>
      <trkpt lat="48.5819" lon="1.84196">
        <ele>159</ele>
        <time>2010-05-15T11:45:55Z</time>
      </trkpt>
      <trkpt lat="48.58189" lon="1.84194">
        <ele>159</ele>
        <time>2010-05-15T11:45:56Z</time>
      </trkpt>
      <trkpt lat="48.58188" lon="1.84193">
        <ele>160</ele>
        <time>2010-05-15T11:46:01Z</time>
      </trkpt>
      <trkpt lat="48.58189" lon="1.84194">
        <ele>163</ele>
        <time>2010-05-15T11:46:06Z</time>
      </trkpt>
      <trkpt lat="48.5819" lon="1.84194">
        <ele>163</ele>
        <time>2010-05-15T11:46:06Z</time>
      </trkpt>
      <trkpt lat="48.58192" lon="1.84194">
        <ele>163</ele>
        <time>2010-05-15T11:46:07Z</time>
      </trkpt>
      <trkpt lat="48.58194" lon="1.84193">
        <ele>164</ele>
        <time>2010-05-15T11:46:09Z</time>
      </trkpt>
      <trkpt lat="48.58196" lon="1.84193">
        <ele>165</ele>
        <time>2010-05-15T11:46:12Z</time>
      </trkpt>
      <trkpt lat="48.58198" lon="1.84193">
        <ele>166</ele>
        <time>2010-05-15T11:46:12Z</time>
      </trkpt>
      <trkpt lat="48.58199" lon="1.84193">
        <ele>166</ele>
        <time>2010-05-15T11:46:13Z</time>
      </trkpt>
      <trkpt lat="48.58201" lon="1.84193">
        <ele>166</ele>
        <time>2010-05-15T11:46:14Z</time>
      </trkpt>
      <trkpt lat="48.58203" lon="1.84192">
        <ele>166</ele>
        <time>2010-05-15T11:46:15Z</time>
      </trkpt>
      <trkpt lat="48.58204" lon="1.84192">
        <ele>166</ele>
        <time>2010-05-15T11:46:17Z</time>
      </trkpt>
      <trkpt lat="48.58206" lon="1.84191">
        <ele>166</ele>
        <time>2010-05-15T11:46:17Z</time>
      </trkpt>
      <trkpt lat="48.58208" lon="1.8419">
        <ele>166</ele>
        <time>2010-05-15T11:46:18Z</time>
      </trkpt>
      <trkpt lat="48.5821" lon="1.8419">
        <ele>167</ele>
        <time>2010-05-15T11:46:19Z</time>
      </trkpt>
      <trkpt lat="48.58211" lon="1.84189">
        <ele>167</ele>
        <time>2010-05-15T11:46:20Z</time>
      </trkpt>
      <trkpt lat="48.58213" lon="1.84189">
        <ele>167</ele>
        <time>2010-05-15T11:46:22Z</time>
      </trkpt>
      <trkpt lat="48.58214" lon="1.84188">
        <ele>167</ele>
        <time>2010-05-15T11:46:23Z</time>
      </trkpt>
      <trkpt lat="48.58216" lon="1.84188">
        <ele>167</ele>
        <time>2010-05-15T11:46:23Z</time>
      </trkpt>
      <trkpt lat="48.58218" lon="1.84187">
        <ele>167</ele>
        <time>2010-05-15T11:46:24Z</time>
      </trkpt>
      <trkpt lat="48.5822" lon="1.84186">
        <ele>167</ele>
        <time>2010-05-15T11:46:25Z</time>
      </trkpt>
      <trkpt lat="48.58222" lon="1.84186">
        <ele>168</ele>
        <time>2010-05-15T11:46:27Z</time>
      </trkpt>
      <trkpt lat="48.58224" lon="1.84186">
        <ele>168</ele>
        <time>2010-05-15T11:46:27Z</time>
      </trkpt>
      <trkpt lat="48.58226" lon="1.84185">
        <ele>168</ele>
        <time>2010-05-15T11:46:28Z</time>
      </trkpt>
      <trkpt lat="48.58227" lon="1.84185">
        <ele>168</ele>
        <time>2010-05-15T11:46:29Z</time>
      </trkpt>
      <trkpt lat="48.58229" lon="1.84185">
        <ele>168</ele>
        <time>2010-05-15T11:46:30Z</time>
      </trkpt>
      <trkpt lat="48.58231" lon="1.84184">
        <ele>168</ele>
        <time>2010-05-15T11:46:32Z</time>
      </trkpt>
      <trkpt lat="48.58233" lon="1.84184">
        <ele>168</ele>
        <time>2010-05-15T11:46:32Z</time>
      </trkpt>
      <trkpt lat="48.58235" lon="1.84184">
        <ele>168</ele>
        <time>2010-05-15T11:46:33Z</time>
      </trkpt>
      <trkpt lat="48.58237" lon="1.84184">
        <ele>168</ele>
        <time>2010-05-15T11:46:34Z</time>
      </trkpt>
      <trkpt lat="48.58238" lon="1.84183">
        <ele>168</ele>
        <time>2010-05-15T11:46:35Z</time>
      </trkpt>
      <trkpt lat="48.58239" lon="1.84183">
        <ele>168</ele>
        <time>2010-05-15T11:46:37Z</time>
      </trkpt>
      <trkpt lat="48.58241" lon="1.84182">
        <ele>168</ele>
        <time>2010-05-15T11:46:37Z</time>
      </trkpt>
      <trkpt lat="48.58242" lon="1.84179">
        <ele>169</ele>
        <time>2010-05-15T11:46:39Z</time>
      </trkpt>
      <trkpt lat="48.58244" lon="1.84179">
        <ele>170</ele>
        <time>2010-05-15T11:46:40Z</time>
      </trkpt>
      <trkpt lat="48.58246" lon="1.84179">
        <ele>171</ele>
        <time>2010-05-15T11:46:42Z</time>
      </trkpt>
      <trkpt lat="48.58248" lon="1.84178">
        <ele>172</ele>
        <time>2010-05-15T11:46:42Z</time>
      </trkpt>
      <trkpt lat="48.58249" lon="1.84178">
        <ele>172</ele>
        <time>2010-05-15T11:46:43Z</time>
      </trkpt>
      <trkpt lat="48.58251" lon="1.84177">
        <ele>172</ele>
        <time>2010-05-15T11:46:44Z</time>
      </trkpt>
      <trkpt lat="48.58253" lon="1.84177">
        <ele>173</ele>
        <time>2010-05-15T11:46:45Z</time>
      </trkpt>
      <trkpt lat="48.58255" lon="1.84177">
        <ele>173</ele>
        <time>2010-05-15T11:46:47Z</time>
      </trkpt>
      <trkpt lat="48.58258" lon="1.84177">
        <ele>173</ele>
        <time>2010-05-15T11:46:47Z</time>
      </trkpt>
      <trkpt lat="48.5826" lon="1.84177">
        <ele>173</ele>
        <time>2010-05-15T11:46:48Z</time>
      </trkpt>
      <trkpt lat="48.58262" lon="1.84176">
        <ele>173</ele>
        <time>2010-05-15T11:46:49Z</time>
      </trkpt>
      <trkpt lat="48.58263" lon="1.84175">
        <ele>173</ele>
        <time>2010-05-15T11:46:50Z</time>
      </trkpt>
      <trkpt lat="48.58265" lon="1.84174">
        <ele>173</ele>
        <time>2010-05-15T11:46:52Z</time>
      </trkpt>
      <trkpt lat="48.58267" lon="1.84173">
        <ele>173</ele>
        <time>2010-05-15T11:46:52Z</time>
      </trkpt>
      <trkpt lat="48.58269" lon="1.84172">
        <ele>173</ele>
        <time>2010-05-15T11:46:53Z</time>
      </trkpt>
      <trkpt lat="48.5827" lon="1.84171">
        <ele>173</ele>
        <time>2010-05-15T11:46:54Z</time>
      </trkpt>
      <trkpt lat="48.58272" lon="1.84169">
        <ele>173</ele>
        <time>2010-05-15T11:46:57Z</time>
      </trkpt>
      <trkpt lat="48.58275" lon="1.84167">
        <ele>174</ele>
        <time>2010-05-15T11:46:58Z</time>
      </trkpt>
      <trkpt lat="48.58276" lon="1.84166">
        <ele>174</ele>
        <time>2010-05-15T11:46:59Z</time>
      </trkpt>
      <trkpt lat="48.58277" lon="1.84165">
        <ele>175</ele>
        <time>2010-05-15T11:47:00Z</time>
      </trkpt>
      <trkpt lat="48.58279" lon="1.84164">
        <ele>175</ele>
        <time>2010-05-15T11:47:02Z</time>
      </trkpt>
      <trkpt lat="48.5828" lon="1.84163">
        <ele>176</ele>
        <time>2010-05-15T11:47:02Z</time>
      </trkpt>
      <trkpt lat="48.58281" lon="1.84162">
        <ele>176</ele>
        <time>2010-05-15T11:47:03Z</time>
      </trkpt>
      <trkpt lat="48.58283" lon="1.84161">
        <ele>177</ele>
        <time>2010-05-15T11:47:04Z</time>
      </trkpt>
      <trkpt lat="48.58284" lon="1.8416">
        <ele>178</ele>
        <time>2010-05-15T11:47:05Z</time>
      </trkpt>
      <trkpt lat="48.58286" lon="1.84159">
        <ele>178</ele>
        <time>2010-05-15T11:47:07Z</time>
      </trkpt>
      <trkpt lat="48.58288" lon="1.84159">
        <ele>178</ele>
        <time>2010-05-15T11:47:07Z</time>
      </trkpt>
      <trkpt lat="48.58289" lon="1.84158">
        <ele>179</ele>
        <time>2010-05-15T11:47:08Z</time>
      </trkpt>
      <trkpt lat="48.58291" lon="1.84157">
        <ele>179</ele>
        <time>2010-05-15T11:47:09Z</time>
      </trkpt>
      <trkpt lat="48.58293" lon="1.84157">
        <ele>179</ele>
        <time>2010-05-15T11:47:10Z</time>
      </trkpt>
      <trkpt lat="48.58294" lon="1.84156">
        <ele>179</ele>
        <time>2010-05-15T11:47:12Z</time>
      </trkpt>
      <trkpt lat="48.58296" lon="1.84155">
        <ele>180</ele>
        <time>2010-05-15T11:47:12Z</time>
      </trkpt>
      <trkpt lat="48.58297" lon="1.84155">
        <ele>180</ele>
        <time>2010-05-15T11:47:13Z</time>
      </trkpt>
      <trkpt lat="48.58299" lon="1.84154">
        <ele>180</ele>
        <time>2010-05-15T11:47:14Z</time>
      </trkpt>
      <trkpt lat="48.58301" lon="1.84154">
        <ele>180</ele>
        <time>2010-05-15T11:47:15Z</time>
      </trkpt>
      <trkpt lat="48.58302" lon="1.84153">
        <ele>180</ele>
        <time>2010-05-15T11:47:17Z</time>
      </trkpt>
      <trkpt lat="48.58304" lon="1.84153">
        <ele>180</ele>
        <time>2010-05-15T11:47:17Z</time>
      </trkpt>
      <trkpt lat="48.58305" lon="1.84152">
        <ele>180</ele>
        <time>2010-05-15T11:47:18Z</time>
      </trkpt>
      <trkpt lat="48.58307" lon="1.84151">
        <ele>180</ele>
        <time>2010-05-15T11:47:19Z</time>
      </trkpt>
      <trkpt lat="48.58308" lon="1.8415">
        <ele>180</ele>
        <time>2010-05-15T11:47:20Z</time>
      </trkpt>
      <trkpt lat="48.5831" lon="1.8415">
        <ele>180</ele>
        <time>2010-05-15T11:47:22Z</time>
      </trkpt>
      <trkpt lat="48.58311" lon="1.84149">
        <ele>180</ele>
        <time>2010-05-15T11:47:22Z</time>
      </trkpt>
      <trkpt lat="48.58313" lon="1.84148">
        <ele>180</ele>
        <time>2010-05-15T11:47:23Z</time>
      </trkpt>
      <trkpt lat="48.58314" lon="1.84147">
        <ele>181</ele>
        <time>2010-05-15T11:47:24Z</time>
      </trkpt>
      <trkpt lat="48.58315" lon="1.84147">
        <ele>181</ele>
        <time>2010-05-15T11:47:25Z</time>
      </trkpt>
      <trkpt lat="48.58317" lon="1.84146">
        <ele>181</ele>
        <time>2010-05-15T11:47:27Z</time>
      </trkpt>
      <trkpt lat="48.58319" lon="1.84146">
        <ele>181</ele>
        <time>2010-05-15T11:47:27Z</time>
      </trkpt>
      <trkpt lat="48.58321" lon="1.84145">
        <ele>181</ele>
        <time>2010-05-15T11:47:28Z</time>
      </trkpt>
      <trkpt lat="48.58323" lon="1.84144">
        <ele>181</ele>
        <time>2010-05-15T11:47:29Z</time>
      </trkpt>
      <trkpt lat="48.58325" lon="1.84144">
        <ele>181</ele>
        <time>2010-05-15T11:47:30Z</time>
      </trkpt>
      <trkpt lat="48.58327" lon="1.84143">
        <ele>181</ele>
        <time>2010-05-15T11:47:32Z</time>
      </trkpt>
      <trkpt lat="48.58329" lon="1.84143">
        <ele>181</ele>
        <time>2010-05-15T11:47:32Z</time>
      </trkpt>
      <trkpt lat="48.58331" lon="1.84142">
        <ele>181</ele>
        <time>2010-05-15T11:47:33Z</time>
      </trkpt>
      <trkpt lat="48.58333" lon="1.84141">
        <ele>181</ele>
        <time>2010-05-15T11:47:34Z</time>
      </trkpt>
      <trkpt lat="48.58336" lon="1.8414">
        <ele>181</ele>
        <time>2010-05-15T11:47:35Z</time>
      </trkpt>
      <trkpt lat="48.58338" lon="1.84139">
        <ele>181</ele>
        <time>2010-05-15T11:47:37Z</time>
      </trkpt>
      <trkpt lat="48.58341" lon="1.84137">
        <ele>181</ele>
        <time>2010-05-15T11:47:37Z</time>
      </trkpt>
      <trkpt lat="48.58344" lon="1.84135">
        <ele>181</ele>
        <time>2010-05-15T11:47:38Z</time>
      </trkpt>
      <trkpt lat="48.58347" lon="1.84134">
        <ele>181</ele>
        <time>2010-05-15T11:47:39Z</time>
      </trkpt>
      <trkpt lat="48.58349" lon="1.84133">
        <ele>181</ele>
        <time>2010-05-15T11:47:40Z</time>
      </trkpt>
      <trkpt lat="48.58352" lon="1.84131">
        <ele>181</ele>
        <time>2010-05-15T11:47:42Z</time>
      </trkpt>
      <trkpt lat="48.58355" lon="1.84129">
        <ele>181</ele>
        <time>2010-05-15T11:47:42Z</time>
      </trkpt>
      <trkpt lat="48.58357" lon="1.84128">
        <ele>181</ele>
        <time>2010-05-15T11:47:43Z</time>
      </trkpt>
      <trkpt lat="48.5836" lon="1.84127">
        <ele>181</ele>
        <time>2010-05-15T11:47:44Z</time>
      </trkpt>
      <trkpt lat="48.58363" lon="1.84127">
        <ele>181</ele>
        <time>2010-05-15T11:47:45Z</time>
      </trkpt>
      <trkpt lat="48.58365" lon="1.84126">
        <ele>180</ele>
        <time>2010-05-15T11:47:47Z</time>
      </trkpt>
      <trkpt lat="48.58369" lon="1.84126">
        <ele>180</ele>
        <time>2010-05-15T11:47:47Z</time>
      </trkpt>
      <trkpt lat="48.58371" lon="1.84126">
        <ele>180</ele>
        <time>2010-05-15T11:47:48Z</time>
      </trkpt>
      <trkpt lat="48.58374" lon="1.84126">
        <ele>180</ele>
        <time>2010-05-15T11:47:49Z</time>
      </trkpt>
      <trkpt lat="48.58377" lon="1.84127">
        <ele>179</ele>
        <time>2010-05-15T11:47:50Z</time>
      </trkpt>
      <trkpt lat="48.58381" lon="1.84128">
        <ele>179</ele>
        <time>2010-05-15T11:47:52Z</time>
      </trkpt>
      <trkpt lat="48.58384" lon="1.84129">
        <ele>179</ele>
        <time>2010-05-15T11:47:52Z</time>
      </trkpt>
      <trkpt lat="48.58387" lon="1.84129">
        <ele>179</ele>
        <time>2010-05-15T11:47:53Z</time>
      </trkpt>
      <trkpt lat="48.58389" lon="1.8413">
        <ele>178</ele>
        <time>2010-05-15T11:47:54Z</time>
      </trkpt>
      <trkpt lat="48.58391" lon="1.84132">
        <ele>178</ele>
        <time>2010-05-15T11:47:55Z</time>
      </trkpt>
      <trkpt lat="48.58392" lon="1.84132">
        <ele>176</ele>
        <time>2010-05-15T11:47:59Z</time>
      </trkpt>
      <trkpt lat="48.58394" lon="1.84132">
        <ele>175</ele>
        <time>2010-05-15T11:48:03Z</time>
      </trkpt>
      <trkpt lat="48.58396" lon="1.84132">
        <ele>175</ele>
        <time>2010-05-15T11:48:05Z</time>
      </trkpt>
      <trkpt lat="48.58398" lon="1.84133">
        <ele>175</ele>
        <time>2010-05-15T11:48:06Z</time>
      </trkpt>
      <trkpt lat="48.584" lon="1.84135">
        <ele>175</ele>
        <time>2010-05-15T11:48:07Z</time>
      </trkpt>
      <trkpt lat="48.58402" lon="1.84137">
        <ele>175</ele>
        <time>2010-05-15T11:48:09Z</time>
      </trkpt>
      <trkpt lat="48.58405" lon="1.8414">
        <ele>175</ele>
        <time>2010-05-15T11:48:09Z</time>
      </trkpt>
      <trkpt lat="48.58407" lon="1.84142">
        <ele>175</ele>
        <time>2010-05-15T11:48:11Z</time>
      </trkpt>
      <trkpt lat="48.5841" lon="1.84144">
        <ele>175</ele>
        <time>2010-05-15T11:48:11Z</time>
      </trkpt>
      <trkpt lat="48.58413" lon="1.84147">
        <ele>175</ele>
        <time>2010-05-15T11:48:12Z</time>
      </trkpt>
      <trkpt lat="48.58416" lon="1.8415">
        <ele>175</ele>
        <time>2010-05-15T11:48:14Z</time>
      </trkpt>
      <trkpt lat="48.58419" lon="1.84152">
        <ele>175</ele>
        <time>2010-05-15T11:48:14Z</time>
      </trkpt>
      <trkpt lat="48.58422" lon="1.84155">
        <ele>175</ele>
        <time>2010-05-15T11:48:16Z</time>
      </trkpt>
      <trkpt lat="48.58425" lon="1.84157">
        <ele>175</ele>
        <time>2010-05-15T11:48:16Z</time>
      </trkpt>
      <trkpt lat="48.58428" lon="1.8416">
        <ele>175</ele>
        <time>2010-05-15T11:48:17Z</time>
      </trkpt>
      <trkpt lat="48.58431" lon="1.84162">
        <ele>174</ele>
        <time>2010-05-15T11:48:19Z</time>
      </trkpt>
      <trkpt lat="48.58434" lon="1.84165">
        <ele>174</ele>
        <time>2010-05-15T11:48:19Z</time>
      </trkpt>
      <trkpt lat="48.58438" lon="1.84168">
        <ele>174</ele>
        <time>2010-05-15T11:48:20Z</time>
      </trkpt>
      <trkpt lat="48.58441" lon="1.8417">
        <ele>174</ele>
        <time>2010-05-15T11:48:21Z</time>
      </trkpt>
      <trkpt lat="48.58444" lon="1.84173">
        <ele>174</ele>
        <time>2010-05-15T11:48:22Z</time>
      </trkpt>
      <trkpt lat="48.58447" lon="1.84176">
        <ele>174</ele>
        <time>2010-05-15T11:48:24Z</time>
      </trkpt>
      <trkpt lat="48.5845" lon="1.84178">
        <ele>174</ele>
        <time>2010-05-15T11:48:24Z</time>
      </trkpt>
      <trkpt lat="48.58453" lon="1.84181">
        <ele>174</ele>
        <time>2010-05-15T11:48:25Z</time>
      </trkpt>
      <trkpt lat="48.58456" lon="1.84183">
        <ele>174</ele>
        <time>2010-05-15T11:48:26Z</time>
      </trkpt>
      <trkpt lat="48.58459" lon="1.84187">
        <ele>174</ele>
        <time>2010-05-15T11:48:27Z</time>
      </trkpt>
      <trkpt lat="48.58462" lon="1.8419">
        <ele>174</ele>
        <time>2010-05-15T11:48:29Z</time>
      </trkpt>
      <trkpt lat="48.58465" lon="1.84193">
        <ele>174</ele>
        <time>2010-05-15T11:48:29Z</time>
      </trkpt>
      <trkpt lat="48.58468" lon="1.84196">
        <ele>174</ele>
        <time>2010-05-15T11:48:30Z</time>
      </trkpt>
      <trkpt lat="48.58471" lon="1.842">
        <ele>174</ele>
        <time>2010-05-15T11:48:31Z</time>
      </trkpt>
      <trkpt lat="48.58474" lon="1.84203">
        <ele>174</ele>
        <time>2010-05-15T11:48:32Z</time>
      </trkpt>
      <trkpt lat="48.58477" lon="1.84206">
        <ele>174</ele>
        <time>2010-05-15T11:48:34Z</time>
      </trkpt>
      <trkpt lat="48.5848" lon="1.84208">
        <ele>174</ele>
        <time>2010-05-15T11:48:34Z</time>
      </trkpt>
      <trkpt lat="48.58483" lon="1.84211">
        <ele>174</ele>
        <time>2010-05-15T11:48:35Z</time>
      </trkpt>
      <trkpt lat="48.58486" lon="1.84214">
        <ele>174</ele>
        <time>2010-05-15T11:48:36Z</time>
      </trkpt>
      <trkpt lat="48.5849" lon="1.84218">
        <ele>174</ele>
        <time>2010-05-15T11:48:37Z</time>
      </trkpt>
      <trkpt lat="48.58493" lon="1.8422">
        <ele>174</ele>
        <time>2010-05-15T11:48:38Z</time>
      </trkpt>
      <trkpt lat="48.58496" lon="1.84222">
        <ele>174</ele>
        <time>2010-05-15T11:48:40Z</time>
      </trkpt>
      <trkpt lat="48.58498" lon="1.84225">
        <ele>174</ele>
        <time>2010-05-15T11:48:40Z</time>
      </trkpt>
      <trkpt lat="48.585" lon="1.84227">
        <ele>174</ele>
        <time>2010-05-15T11:48:41Z</time>
      </trkpt>
      <trkpt lat="48.58502" lon="1.84229">
        <ele>174</ele>
        <time>2010-05-15T11:48:42Z</time>
      </trkpt>
      <trkpt lat="48.58505" lon="1.84232">
        <ele>174</ele>
        <time>2010-05-15T11:48:43Z</time>
      </trkpt>
      <trkpt lat="48.58508" lon="1.84234">
        <ele>174</ele>
        <time>2010-05-15T11:48:45Z</time>
      </trkpt>
      <trkpt lat="48.58511" lon="1.84237">
        <ele>174</ele>
        <time>2010-05-15T11:48:46Z</time>
      </trkpt>
      <trkpt lat="48.58514" lon="1.8424">
        <ele>174</ele>
        <time>2010-05-15T11:48:47Z</time>
      </trkpt>
      <trkpt lat="48.58517" lon="1.84242">
        <ele>174</ele>
        <time>2010-05-15T11:48:48Z</time>
      </trkpt>
      <trkpt lat="48.5852" lon="1.84244">
        <ele>174</ele>
        <time>2010-05-15T11:48:49Z</time>
      </trkpt>
      <trkpt lat="48.58523" lon="1.84247">
        <ele>174</ele>
        <time>2010-05-15T11:48:50Z</time>
      </trkpt>
      <trkpt lat="48.58526" lon="1.8425">
        <ele>174</ele>
        <time>2010-05-15T11:48:51Z</time>
      </trkpt>
      <trkpt lat="48.5853" lon="1.84252">
        <ele>174</ele>
        <time>2010-05-15T11:48:52Z</time>
      </trkpt>
      <trkpt lat="48.58534" lon="1.84255">
        <ele>174</ele>
        <time>2010-05-15T11:48:52Z</time>
      </trkpt>
      <trkpt lat="48.58538" lon="1.84258">
        <ele>174</ele>
        <time>2010-05-15T11:48:54Z</time>
      </trkpt>
      <trkpt lat="48.58542" lon="1.8426">
        <ele>174</ele>
        <time>2010-05-15T11:48:55Z</time>
      </trkpt>
      <trkpt lat="48.58546" lon="1.84262">
        <ele>174</ele>
        <time>2010-05-15T11:48:56Z</time>
      </trkpt>
      <trkpt lat="48.58549" lon="1.84263">
        <ele>174</ele>
        <time>2010-05-15T11:48:57Z</time>
      </trkpt>
      <trkpt lat="48.58552" lon="1.84264">
        <ele>174</ele>
        <time>2010-05-15T11:48:58Z</time>
      </trkpt>
      <trkpt lat="48.58554" lon="1.84265">
        <ele>174</ele>
        <time>2010-05-15T11:48:59Z</time>
      </trkpt>
      <trkpt lat="48.58556" lon="1.84265">
        <ele>174</ele>
        <time>2010-05-15T11:49:00Z</time>
      </trkpt>
      <trkpt lat="48.5856" lon="1.84266">
        <ele>174</ele>
        <time>2010-05-15T11:49:01Z</time>
      </trkpt>
      <trkpt lat="48.58563" lon="1.84267">
        <ele>174</ele>
        <time>2010-05-15T11:49:02Z</time>
      </trkpt>
      <trkpt lat="48.58566" lon="1.84268">
        <ele>174</ele>
        <time>2010-05-15T11:49:03Z</time>
      </trkpt>
      <trkpt lat="48.58569" lon="1.84269">
        <ele>174</ele>
        <time>2010-05-15T11:49:04Z</time>
      </trkpt>
      <trkpt lat="48.58571" lon="1.8427">
        <ele>174</ele>
        <time>2010-05-15T11:49:04Z</time>
      </trkpt>
      <trkpt lat="48.58573" lon="1.8427">
        <ele>174</ele>
        <time>2010-05-15T11:49:06Z</time>
      </trkpt>
      <trkpt lat="48.58575" lon="1.84271">
        <ele>174</ele>
        <time>2010-05-15T11:49:07Z</time>
      </trkpt>
      <trkpt lat="48.58578" lon="1.84272">
        <ele>174</ele>
        <time>2010-05-15T11:49:08Z</time>
      </trkpt>
      <trkpt lat="48.58582" lon="1.84272">
        <ele>174</ele>
        <time>2010-05-15T11:49:08Z</time>
      </trkpt>
      <trkpt lat="48.58586" lon="1.84273">
        <ele>174</ele>
        <time>2010-05-15T11:49:10Z</time>
      </trkpt>
      <trkpt lat="48.5859" lon="1.84274">
        <ele>174</ele>
        <time>2010-05-15T11:49:11Z</time>
      </trkpt>
      <trkpt lat="48.58594" lon="1.84274">
        <ele>174</ele>
        <time>2010-05-15T11:49:12Z</time>
      </trkpt>
      <trkpt lat="48.58597" lon="1.84275">
        <ele>174</ele>
        <time>2010-05-15T11:49:12Z</time>
      </trkpt>
      <trkpt lat="48.58601" lon="1.84275">
        <ele>174</ele>
        <time>2010-05-15T11:49:13Z</time>
      </trkpt>
      <trkpt lat="48.58604" lon="1.84275">
        <ele>174</ele>
        <time>2010-05-15T11:49:15Z</time>
      </trkpt>
      <trkpt lat="48.58607" lon="1.84276">
        <ele>174</ele>
        <time>2010-05-15T11:49:16Z</time>
      </trkpt>
      <trkpt lat="48.58611" lon="1.84277">
        <ele>174</ele>
        <time>2010-05-15T11:49:16Z</time>
      </trkpt>
      <trkpt lat="48.58614" lon="1.84278">
        <ele>173</ele>
        <time>2010-05-15T11:49:18Z</time>
      </trkpt>
      <trkpt lat="48.58618" lon="1.84278">
        <ele>173</ele>
        <time>2010-05-15T11:49:18Z</time>
      </trkpt>
      <trkpt lat="48.58621" lon="1.84279">
        <ele>173</ele>
        <time>2010-05-15T11:49:20Z</time>
      </trkpt>
      <trkpt lat="48.58624" lon="1.84279">
        <ele>173</ele>
        <time>2010-05-15T11:49:21Z</time>
      </trkpt>
      <trkpt lat="48.58626" lon="1.8428">
        <ele>173</ele>
        <time>2010-05-15T11:49:22Z</time>
      </trkpt>
      <trkpt lat="48.58627" lon="1.84279">
        <ele>173</ele>
        <time>2010-05-15T11:49:23Z</time>
      </trkpt>
      <trkpt lat="48.58629" lon="1.8428">
        <ele>173</ele>
        <time>2010-05-15T11:49:24Z</time>
      </trkpt>
      <trkpt lat="48.58631" lon="1.8428">
        <ele>173</ele>
        <time>2010-05-15T11:49:25Z</time>
      </trkpt>
      <trkpt lat="48.58633" lon="1.84281">
        <ele>173</ele>
        <time>2010-05-15T11:49:27Z</time>
      </trkpt>
      <trkpt lat="48.58635" lon="1.84281">
        <ele>173</ele>
        <time>2010-05-15T11:49:28Z</time>
      </trkpt>
      <trkpt lat="48.58636" lon="1.84282">
        <ele>173</ele>
        <time>2010-05-15T11:49:31Z</time>
      </trkpt>
      <trkpt lat="48.58638" lon="1.84282">
        <ele>173</ele>
        <time>2010-05-15T11:49:34Z</time>
      </trkpt>
      <trkpt lat="48.5864" lon="1.84283">
        <ele>173</ele>
        <time>2010-05-15T11:49:35Z</time>
      </trkpt>
      <trkpt lat="48.58641" lon="1.84284">
        <ele>173</ele>
        <time>2010-05-15T11:49:37Z</time>
      </trkpt>
      <trkpt lat="48.58642" lon="1.84287">
        <ele>173</ele>
        <time>2010-05-15T11:49:44Z</time>
      </trkpt>
      <trkpt lat="48.58643" lon="1.84288">
        <ele>173</ele>
        <time>2010-05-15T11:49:47Z</time>
      </trkpt>
      <trkpt lat="48.58645" lon="1.84288">
        <ele>173</ele>
        <time>2010-05-15T11:49:49Z</time>
      </trkpt>
      <trkpt lat="48.58648" lon="1.84288">
        <ele>173</ele>
        <time>2010-05-15T11:49:49Z</time>
      </trkpt>
      <trkpt lat="48.58651" lon="1.84289">
        <ele>173</ele>
        <time>2010-05-15T11:49:51Z</time>
      </trkpt>
      <trkpt lat="48.58654" lon="1.84289">
        <ele>173</ele>
        <time>2010-05-15T11:49:52Z</time>
      </trkpt>
      <trkpt lat="48.58657" lon="1.8429">
        <ele>173</ele>
        <time>2010-05-15T11:49:52Z</time>
      </trkpt>
      <trkpt lat="48.5866" lon="1.8429">
        <ele>173</ele>
        <time>2010-05-15T11:49:54Z</time>
      </trkpt>
      <trkpt lat="48.58662" lon="1.8429">
        <ele>173</ele>
        <time>2010-05-15T11:49:54Z</time>
      </trkpt>
      <trkpt lat="48.58664" lon="1.8429">
        <ele>173</ele>
        <time>2010-05-15T11:49:55Z</time>
      </trkpt>
      <trkpt lat="48.58665" lon="1.8429">
        <ele>173</ele>
        <time>2010-05-15T11:49:56Z</time>
      </trkpt>
      <trkpt lat="48.58667" lon="1.84291">
        <ele>173</ele>
        <time>2010-05-15T11:49:58Z</time>
      </trkpt>
      <trkpt lat="48.58668" lon="1.84291">
        <ele>173</ele>
        <time>2010-05-15T11:49:59Z</time>
      </trkpt>
      <trkpt lat="48.5867" lon="1.84291">
        <ele>173</ele>
        <time>2010-05-15T11:49:59Z</time>
      </trkpt>
      <trkpt lat="48.58672" lon="1.84291">
        <ele>173</ele>
        <time>2010-05-15T11:50:00Z</time>
      </trkpt>
      <trkpt lat="48.58674" lon="1.84291">
        <ele>173</ele>
        <time>2010-05-15T11:50:01Z</time>
      </trkpt>
      <trkpt lat="48.58677" lon="1.84292">
        <ele>173</ele>
        <time>2010-05-15T11:50:02Z</time>
      </trkpt>
      <trkpt lat="48.5868" lon="1.84292">
        <ele>173</ele>
        <time>2010-05-15T11:50:04Z</time>
      </trkpt>
      <trkpt lat="48.58683" lon="1.84292">
        <ele>173</ele>
        <time>2010-05-15T11:50:04Z</time>
      </trkpt>
      <trkpt lat="48.58686" lon="1.84292">
        <ele>173</ele>
        <time>2010-05-15T11:50:05Z</time>
      </trkpt>
      <trkpt lat="48.58689" lon="1.84293">
        <ele>173</ele>
        <time>2010-05-15T11:50:06Z</time>
      </trkpt>
      <trkpt lat="48.58692" lon="1.84294">
        <ele>173</ele>
        <time>2010-05-15T11:50:08Z</time>
      </trkpt>
      <trkpt lat="48.58694" lon="1.84294">
        <ele>173</ele>
        <time>2010-05-15T11:50:08Z</time>
      </trkpt>
      <trkpt lat="48.58697" lon="1.84295">
        <ele>173</ele>
        <time>2010-05-15T11:50:10Z</time>
      </trkpt>
      <trkpt lat="48.58701" lon="1.84295">
        <ele>173</ele>
        <time>2010-05-15T11:50:11Z</time>
      </trkpt>
      <trkpt lat="48.58704" lon="1.84296">
        <ele>173</ele>
        <time>2010-05-15T11:50:11Z</time>
      </trkpt>
      <trkpt lat="48.58707" lon="1.84296">
        <ele>173</ele>
        <time>2010-05-15T11:50:12Z</time>
      </trkpt>
      <trkpt lat="48.5871" lon="1.84297">
        <ele>173</ele>
        <time>2010-05-15T11:50:13Z</time>
      </trkpt>
      <trkpt lat="48.58714" lon="1.84298">
        <ele>173</ele>
        <time>2010-05-15T11:50:15Z</time>
      </trkpt>
      <trkpt lat="48.58717" lon="1.84298">
        <ele>173</ele>
        <time>2010-05-15T11:50:16Z</time>
      </trkpt>
      <trkpt lat="48.58721" lon="1.84299">
        <ele>173</ele>
        <time>2010-05-15T11:50:17Z</time>
      </trkpt>
      <trkpt lat="48.58724" lon="1.84299">
        <ele>173</ele>
        <time>2010-05-15T11:50:18Z</time>
      </trkpt>
      <trkpt lat="48.58727" lon="1.843">
        <ele>173</ele>
        <time>2010-05-15T11:50:19Z</time>
      </trkpt>
      <trkpt lat="48.5873" lon="1.843">
        <ele>173</ele>
        <time>2010-05-15T11:50:20Z</time>
      </trkpt>
      <trkpt lat="48.58733" lon="1.843">
        <ele>173</ele>
        <time>2010-05-15T11:50:21Z</time>
      </trkpt>
      <trkpt lat="48.58735" lon="1.84301">
        <ele>173</ele>
        <time>2010-05-15T11:50:22Z</time>
      </trkpt>
      <trkpt lat="48.58738" lon="1.84301">
        <ele>173</ele>
        <time>2010-05-15T11:50:23Z</time>
      </trkpt>
      <trkpt lat="48.5874" lon="1.84302">
        <ele>173</ele>
        <time>2010-05-15T11:50:24Z</time>
      </trkpt>
      <trkpt lat="48.58742" lon="1.84302">
        <ele>173</ele>
        <time>2010-05-15T11:50:25Z</time>
      </trkpt>
      <trkpt lat="48.58743" lon="1.84301">
        <ele>173</ele>
        <time>2010-05-15T11:50:26Z</time>
      </trkpt>
      <trkpt lat="48.58745" lon="1.84302">
        <ele>173</ele>
        <time>2010-05-15T11:50:27Z</time>
      </trkpt>
      <trkpt lat="48.58747" lon="1.84302">
        <ele>173</ele>
        <time>2010-05-15T11:50:28Z</time>
      </trkpt>
      <trkpt lat="48.58748" lon="1.84303">
        <ele>173</ele>
        <time>2010-05-15T11:50:29Z</time>
      </trkpt>
      <trkpt lat="48.5875" lon="1.84303">
        <ele>173</ele>
        <time>2010-05-15T11:50:30Z</time>
      </trkpt>
      <trkpt lat="48.58752" lon="1.84303">
        <ele>173</ele>
        <time>2010-05-15T11:50:30Z</time>
      </trkpt>
      <trkpt lat="48.58753" lon="1.84304">
        <ele>173</ele>
        <time>2010-05-15T11:50:31Z</time>
      </trkpt>
      <trkpt lat="48.58756" lon="1.84304">
        <ele>173</ele>
        <time>2010-05-15T11:50:32Z</time>
      </trkpt>
      <trkpt lat="48.58758" lon="1.84305">
        <ele>173</ele>
        <time>2010-05-15T11:50:34Z</time>
      </trkpt>
      <trkpt lat="48.58761" lon="1.84306">
        <ele>173</ele>
        <time>2010-05-15T11:50:35Z</time>
      </trkpt>
      <trkpt lat="48.58763" lon="1.84306">
        <ele>173</ele>
        <time>2010-05-15T11:50:35Z</time>
      </trkpt>
      <trkpt lat="48.58765" lon="1.84307">
        <ele>173</ele>
        <time>2010-05-15T11:50:37Z</time>
      </trkpt>
      <trkpt lat="48.58767" lon="1.84307">
        <ele>173</ele>
        <time>2010-05-15T11:50:37Z</time>
      </trkpt>
      <trkpt lat="48.58769" lon="1.84307">
        <ele>173</ele>
        <time>2010-05-15T11:50:38Z</time>
      </trkpt>
      <trkpt lat="48.58771" lon="1.84308">
        <ele>173</ele>
        <time>2010-05-15T11:50:40Z</time>
      </trkpt>
      <trkpt lat="48.58774" lon="1.84309">
        <ele>173</ele>
        <time>2010-05-15T11:50:41Z</time>
      </trkpt>
      <trkpt lat="48.58777" lon="1.8431">
        <ele>173</ele>
        <time>2010-05-15T11:50:41Z</time>
      </trkpt>
      <trkpt lat="48.5878" lon="1.84311">
        <ele>173</ele>
        <time>2010-05-15T11:50:43Z</time>
      </trkpt>
      <trkpt lat="48.58782" lon="1.84311">
        <ele>173</ele>
        <time>2010-05-15T11:50:44Z</time>
      </trkpt>
      <trkpt lat="48.58785" lon="1.84312">
        <ele>173</ele>
        <time>2010-05-15T11:50:45Z</time>
      </trkpt>
      <trkpt lat="48.58788" lon="1.84312">
        <ele>173</ele>
        <time>2010-05-15T11:50:46Z</time>
      </trkpt>
      <trkpt lat="48.58791" lon="1.84313">
        <ele>173</ele>
        <time>2010-05-15T11:50:46Z</time>
      </trkpt>
      <trkpt lat="48.58794" lon="1.84313">
        <ele>173</ele>
        <time>2010-05-15T11:50:48Z</time>
      </trkpt>
      <trkpt lat="48.58796" lon="1.84313">
        <ele>173</ele>
        <time>2010-05-15T11:50:48Z</time>
      </trkpt>
      <trkpt lat="48.58799" lon="1.84313">
        <ele>173</ele>
        <time>2010-05-15T11:50:50Z</time>
      </trkpt>
      <trkpt lat="48.58802" lon="1.84314">
        <ele>174</ele>
        <time>2010-05-15T11:50:50Z</time>
      </trkpt>
      <trkpt lat="48.58805" lon="1.84314">
        <ele>174</ele>
        <time>2010-05-15T11:50:52Z</time>
      </trkpt>
      <trkpt lat="48.58809" lon="1.84315">
        <ele>174</ele>
        <time>2010-05-15T11:50:52Z</time>
      </trkpt>
      <trkpt lat="48.58812" lon="1.84316">
        <ele>174</ele>
        <time>2010-05-15T11:50:53Z</time>
      </trkpt>
      <trkpt lat="48.58816" lon="1.84316">
        <ele>174</ele>
        <time>2010-05-15T11:50:54Z</time>
      </trkpt>
      <trkpt lat="48.58819" lon="1.84316">
        <ele>174</ele>
        <time>2010-05-15T11:50:55Z</time>
      </trkpt>
      <trkpt lat="48.58822" lon="1.84316">
        <ele>174</ele>
        <time>2010-05-15T11:50:56Z</time>
      </trkpt>
      <trkpt lat="48.58825" lon="1.84317">
        <ele>174</ele>
        <time>2010-05-15T11:50:58Z</time>
      </trkpt>
      <trkpt lat="48.58827" lon="1.84318">
        <ele>174</ele>
        <time>2010-05-15T11:50:58Z</time>
      </trkpt>
      <trkpt lat="48.5883" lon="1.84319">
        <ele>174</ele>
        <time>2010-05-15T11:50:59Z</time>
      </trkpt>
      <trkpt lat="48.58831" lon="1.84318">
        <ele>174</ele>
        <time>2010-05-15T11:51:00Z</time>
      </trkpt>
      <trkpt lat="48.58833" lon="1.84319">
        <ele>174</ele>
        <time>2010-05-15T11:51:02Z</time>
      </trkpt>
      <trkpt lat="48.58835" lon="1.84318">
        <ele>174</ele>
        <time>2010-05-15T11:51:03Z</time>
      </trkpt>
      <trkpt lat="48.58837" lon="1.84318">
        <ele>174</ele>
        <time>2010-05-15T11:51:03Z</time>
      </trkpt>
      <trkpt lat="48.58839" lon="1.84318">
        <ele>174</ele>
        <time>2010-05-15T11:51:04Z</time>
      </trkpt>
      <trkpt lat="48.58842" lon="1.84318">
        <ele>174</ele>
        <time>2010-05-15T11:51:05Z</time>
      </trkpt>
      <trkpt lat="48.58845" lon="1.84319">
        <ele>174</ele>
        <time>2010-05-15T11:51:06Z</time>
      </trkpt>
      <trkpt lat="48.58849" lon="1.8432">
        <ele>174</ele>
        <time>2010-05-15T11:51:07Z</time>
      </trkpt>
      <trkpt lat="48.58852" lon="1.8432">
        <ele>174</ele>
        <time>2010-05-15T11:51:09Z</time>
      </trkpt>
      <trkpt lat="48.58854" lon="1.84321">
        <ele>174</ele>
        <time>2010-05-15T11:51:09Z</time>
      </trkpt>
      <trkpt lat="48.58856" lon="1.84321">
        <ele>174</ele>
        <time>2010-05-15T11:51:11Z</time>
      </trkpt>
      <trkpt lat="48.58858" lon="1.84322">
        <ele>174</ele>
        <time>2010-05-15T11:51:11Z</time>
      </trkpt>
      <trkpt lat="48.5886" lon="1.84322">
        <ele>174</ele>
        <time>2010-05-15T11:51:12Z</time>
      </trkpt>
      <trkpt lat="48.58862" lon="1.84323">
        <ele>174</ele>
        <time>2010-05-15T11:51:13Z</time>
      </trkpt>
      <trkpt lat="48.58865" lon="1.84323">
        <ele>174</ele>
        <time>2010-05-15T11:51:15Z</time>
      </trkpt>
      <trkpt lat="48.58868" lon="1.84323">
        <ele>174</ele>
        <time>2010-05-15T11:51:16Z</time>
      </trkpt>
      <trkpt lat="48.5887" lon="1.84323">
        <ele>174</ele>
        <time>2010-05-15T11:51:17Z</time>
      </trkpt>
      <trkpt lat="48.58872" lon="1.84323">
        <ele>174</ele>
        <time>2010-05-15T11:51:17Z</time>
      </trkpt>
      <trkpt lat="48.58875" lon="1.84323">
        <ele>174</ele>
        <time>2010-05-15T11:51:19Z</time>
      </trkpt>
      <trkpt lat="48.58877" lon="1.84324">
        <ele>175</ele>
        <time>2010-05-15T11:51:20Z</time>
      </trkpt>
      <trkpt lat="48.58879" lon="1.84325">
        <ele>175</ele>
        <time>2010-05-15T11:51:20Z</time>
      </trkpt>
      <trkpt lat="48.58882" lon="1.84325">
        <ele>176</ele>
        <time>2010-05-15T11:51:21Z</time>
      </trkpt>
      <trkpt lat="48.58884" lon="1.84326">
        <ele>177</ele>
        <time>2010-05-15T11:51:22Z</time>
      </trkpt>
      <trkpt lat="48.58885" lon="1.84326">
        <ele>177</ele>
        <time>2010-05-15T11:51:23Z</time>
      </trkpt>
      <trkpt lat="48.58887" lon="1.84327">
        <ele>177</ele>
        <time>2010-05-15T11:51:25Z</time>
      </trkpt>
      <trkpt lat="48.58889" lon="1.84328">
        <ele>177</ele>
        <time>2010-05-15T11:51:25Z</time>
      </trkpt>
      <trkpt lat="48.58892" lon="1.84328">
        <ele>177</ele>
        <time>2010-05-15T11:51:26Z</time>
      </trkpt>
      <trkpt lat="48.58894" lon="1.84329">
        <ele>177</ele>
        <time>2010-05-15T11:51:27Z</time>
      </trkpt>
      <trkpt lat="48.58897" lon="1.84329">
        <ele>177</ele>
        <time>2010-05-15T11:51:29Z</time>
      </trkpt>
      <trkpt lat="48.589" lon="1.8433">
        <ele>177</ele>
        <time>2010-05-15T11:51:29Z</time>
      </trkpt>
      <trkpt lat="48.58903" lon="1.8433">
        <ele>177</ele>
        <time>2010-05-15T11:51:31Z</time>
      </trkpt>
      <trkpt lat="48.58906" lon="1.8433">
        <ele>177</ele>
        <time>2010-05-15T11:51:31Z</time>
      </trkpt>
      <trkpt lat="48.58909" lon="1.84331">
        <ele>178</ele>
        <time>2010-05-15T11:51:32Z</time>
      </trkpt>
      <trkpt lat="48.58911" lon="1.84331">
        <ele>179</ele>
        <time>2010-05-15T11:51:34Z</time>
      </trkpt>
      <trkpt lat="48.58913" lon="1.84332">
        <ele>179</ele>
        <time>2010-05-15T11:51:34Z</time>
      </trkpt>
      <trkpt lat="48.58915" lon="1.84331">
        <ele>179</ele>
        <time>2010-05-15T11:51:36Z</time>
      </trkpt>
      <trkpt lat="48.58918" lon="1.84331">
        <ele>180</ele>
        <time>2010-05-15T11:51:37Z</time>
      </trkpt>
      <trkpt lat="48.5892" lon="1.84332">
        <ele>180</ele>
        <time>2010-05-15T11:51:37Z</time>
      </trkpt>
      <trkpt lat="48.58922" lon="1.84332">
        <ele>180</ele>
        <time>2010-05-15T11:51:38Z</time>
      </trkpt>
      <trkpt lat="48.58924" lon="1.84332">
        <ele>180</ele>
        <time>2010-05-15T11:51:39Z</time>
      </trkpt>
      <trkpt lat="48.58926" lon="1.84333">
        <ele>180</ele>
        <time>2010-05-15T11:51:41Z</time>
      </trkpt>
      <trkpt lat="48.58927" lon="1.84334">
        <ele>180</ele>
        <time>2010-05-15T11:51:41Z</time>
      </trkpt>
      <trkpt lat="48.58929" lon="1.84333">
        <ele>180</ele>
        <time>2010-05-15T11:51:43Z</time>
      </trkpt>
      <trkpt lat="48.58931" lon="1.84334">
        <ele>180</ele>
        <time>2010-05-15T11:51:46Z</time>
      </trkpt>
      <trkpt lat="48.58932" lon="1.84333">
        <ele>180</ele>
        <time>2010-05-15T11:51:46Z</time>
      </trkpt>
      <trkpt lat="48.58934" lon="1.84333">
        <ele>180</ele>
        <time>2010-05-15T11:51:47Z</time>
      </trkpt>
      <trkpt lat="48.58936" lon="1.84333">
        <ele>180</ele>
        <time>2010-05-15T11:51:49Z</time>
      </trkpt>
      <trkpt lat="48.58938" lon="1.84334">
        <ele>180</ele>
        <time>2010-05-15T11:51:50Z</time>
      </trkpt>
      <trkpt lat="48.5894" lon="1.84333">
        <ele>180</ele>
        <time>2010-05-15T11:51:50Z</time>
      </trkpt>
      <trkpt lat="48.58941" lon="1.84333">
        <ele>180</ele>
        <time>2010-05-15T11:51:52Z</time>
      </trkpt>
      <trkpt lat="48.58943" lon="1.84332">
        <ele>180</ele>
        <time>2010-05-15T11:51:53Z</time>
      </trkpt>
      <trkpt lat="48.58945" lon="1.84333">
        <ele>180</ele>
        <time>2010-05-15T11:51:53Z</time>
      </trkpt>
      <trkpt lat="48.58947" lon="1.84333">
        <ele>180</ele>
        <time>2010-05-15T11:51:54Z</time>
      </trkpt>
      <trkpt lat="48.58949" lon="1.84334">
        <ele>180</ele>
        <time>2010-05-15T11:51:56Z</time>
      </trkpt>
      <trkpt lat="48.5895" lon="1.84334">
        <ele>180</ele>
        <time>2010-05-15T11:51:57Z</time>
      </trkpt>
      <trkpt lat="48.58952" lon="1.84333">
        <ele>180</ele>
        <time>2010-05-15T11:51:57Z</time>
      </trkpt>
      <trkpt lat="48.58953" lon="1.84333">
        <ele>180</ele>
        <time>2010-05-15T11:51:58Z</time>
      </trkpt>
      <trkpt lat="48.58955" lon="1.84333">
        <ele>180</ele>
        <time>2010-05-15T11:51:59Z</time>
      </trkpt>
      <trkpt lat="48.58958" lon="1.84332">
        <ele>180</ele>
        <time>2010-05-15T11:52:00Z</time>
      </trkpt>
      <trkpt lat="48.5896" lon="1.84331">
        <ele>180</ele>
        <time>2010-05-15T11:52:02Z</time>
      </trkpt>
      <trkpt lat="48.58963" lon="1.84329">
        <ele>180</ele>
        <time>2010-05-15T11:52:02Z</time>
      </trkpt>
      <trkpt lat="48.58965" lon="1.84328">
        <ele>180</ele>
        <time>2010-05-15T11:52:03Z</time>
      </trkpt>
      <trkpt lat="48.58968" lon="1.84327">
        <ele>180</ele>
        <time>2010-05-15T11:52:04Z</time>
      </trkpt>
      <trkpt lat="48.58971" lon="1.84326">
        <ele>180</ele>
        <time>2010-05-15T11:52:05Z</time>
      </trkpt>
      <trkpt lat="48.58973" lon="1.84325">
        <ele>180</ele>
        <time>2010-05-15T11:52:07Z</time>
      </trkpt>
      <trkpt lat="48.58976" lon="1.84325">
        <ele>180</ele>
        <time>2010-05-15T11:52:07Z</time>
      </trkpt>
      <trkpt lat="48.58979" lon="1.84326">
        <ele>180</ele>
        <time>2010-05-15T11:52:08Z</time>
      </trkpt>
      <trkpt lat="48.58982" lon="1.84325">
        <ele>180</ele>
        <time>2010-05-15T11:52:09Z</time>
      </trkpt>
      <trkpt lat="48.58984" lon="1.84325">
        <ele>180</ele>
        <time>2010-05-15T11:52:10Z</time>
      </trkpt>
      <trkpt lat="48.58988" lon="1.84324">
        <ele>180</ele>
        <time>2010-05-15T11:52:12Z</time>
      </trkpt>
      <trkpt lat="48.5899" lon="1.84324">
        <ele>180</ele>
        <time>2010-05-15T11:52:12Z</time>
      </trkpt>
      <trkpt lat="48.58993" lon="1.84323">
        <ele>180</ele>
        <time>2010-05-15T11:52:13Z</time>
      </trkpt>
      <trkpt lat="48.58996" lon="1.84323">
        <ele>180</ele>
        <time>2010-05-15T11:52:14Z</time>
      </trkpt>
      <trkpt lat="48.58998" lon="1.84322">
        <ele>180</ele>
        <time>2010-05-15T11:52:15Z</time>
      </trkpt>
      <trkpt lat="48.59" lon="1.84321">
        <ele>180</ele>
        <time>2010-05-15T11:52:17Z</time>
      </trkpt>
      <trkpt lat="48.59001" lon="1.84321">
        <ele>180</ele>
        <time>2010-05-15T11:52:17Z</time>
      </trkpt>
      <trkpt lat="48.59003" lon="1.84321">
        <ele>180</ele>
        <time>2010-05-15T11:52:18Z</time>
      </trkpt>
      <trkpt lat="48.59005" lon="1.84321">
        <ele>180</ele>
        <time>2010-05-15T11:52:19Z</time>
      </trkpt>
      <trkpt lat="48.59007" lon="1.84322">
        <ele>180</ele>
        <time>2010-05-15T11:52:20Z</time>
      </trkpt>
      <trkpt lat="48.59009" lon="1.84322">
        <ele>180</ele>
        <time>2010-05-15T11:52:22Z</time>
      </trkpt>
      <trkpt lat="48.59011" lon="1.84322">
        <ele>180</ele>
        <time>2010-05-15T11:52:22Z</time>
      </trkpt>
      <trkpt lat="48.59014" lon="1.84322">
        <ele>180</ele>
        <time>2010-05-15T11:52:23Z</time>
      </trkpt>
      <trkpt lat="48.59016" lon="1.84322">
        <ele>180</ele>
        <time>2010-05-15T11:52:24Z</time>
      </trkpt>
      <trkpt lat="48.59019" lon="1.84322">
        <ele>180</ele>
        <time>2010-05-15T11:52:25Z</time>
      </trkpt>
      <trkpt lat="48.59022" lon="1.84321">
        <ele>180</ele>
        <time>2010-05-15T11:52:27Z</time>
      </trkpt>
      <trkpt lat="48.59024" lon="1.84321">
        <ele>180</ele>
        <time>2010-05-15T11:52:27Z</time>
      </trkpt>
      <trkpt lat="48.59027" lon="1.8432">
        <ele>180</ele>
        <time>2010-05-15T11:52:28Z</time>
      </trkpt>
      <trkpt lat="48.59029" lon="1.8432">
        <ele>180</ele>
        <time>2010-05-15T11:52:29Z</time>
      </trkpt>
      <trkpt lat="48.59032" lon="1.8432">
        <ele>180</ele>
        <time>2010-05-15T11:52:30Z</time>
      </trkpt>
      <trkpt lat="48.59035" lon="1.8432">
        <ele>180</ele>
        <time>2010-05-15T11:52:32Z</time>
      </trkpt>
      <trkpt lat="48.59037" lon="1.8432">
        <ele>180</ele>
        <time>2010-05-15T11:52:32Z</time>
      </trkpt>
      <trkpt lat="48.5904" lon="1.8432">
        <ele>180</ele>
        <time>2010-05-15T11:52:33Z</time>
      </trkpt>
      <trkpt lat="48.59043" lon="1.8432">
        <ele>180</ele>
        <time>2010-05-15T11:52:34Z</time>
      </trkpt>
      <trkpt lat="48.59047" lon="1.84319">
        <ele>180</ele>
        <time>2010-05-15T11:52:35Z</time>
      </trkpt>
      <trkpt lat="48.5905" lon="1.84319">
        <ele>180</ele>
        <time>2010-05-15T11:52:37Z</time>
      </trkpt>
      <trkpt lat="48.59054" lon="1.84319">
        <ele>180</ele>
        <time>2010-05-15T11:52:37Z</time>
      </trkpt>
      <trkpt lat="48.59057" lon="1.84319">
        <ele>180</ele>
        <time>2010-05-15T11:52:38Z</time>
      </trkpt>
      <trkpt lat="48.5906" lon="1.84318">
        <ele>180</ele>
        <time>2010-05-15T11:52:39Z</time>
      </trkpt>
      <trkpt lat="48.59064" lon="1.84318">
        <ele>180</ele>
        <time>2010-05-15T11:52:40Z</time>
      </trkpt>
      <trkpt lat="48.59068" lon="1.84319">
        <ele>180</ele>
        <time>2010-05-15T11:52:42Z</time>
      </trkpt>
      <trkpt lat="48.59072" lon="1.84319">
        <ele>180</ele>
        <time>2010-05-15T11:52:42Z</time>
      </trkpt>
      <trkpt lat="48.59076" lon="1.8432">
        <ele>180</ele>
        <time>2010-05-15T11:52:43Z</time>
      </trkpt>
      <trkpt lat="48.5908" lon="1.8432">
        <ele>180</ele>
        <time>2010-05-15T11:52:44Z</time>
      </trkpt>
      <trkpt lat="48.59084" lon="1.84321">
        <ele>180</ele>
        <time>2010-05-15T11:52:46Z</time>
      </trkpt>
      <trkpt lat="48.59088" lon="1.84321">
        <ele>179</ele>
        <time>2010-05-15T11:52:47Z</time>
      </trkpt>
      <trkpt lat="48.59091" lon="1.84321">
        <ele>179</ele>
        <time>2010-05-15T11:52:47Z</time>
      </trkpt>
      <trkpt lat="48.59095" lon="1.84321">
        <ele>178</ele>
        <time>2010-05-15T11:52:48Z</time>
      </trkpt>
      <trkpt lat="48.59098" lon="1.84321">
        <ele>178</ele>
        <time>2010-05-15T11:52:49Z</time>
      </trkpt>
      <trkpt lat="48.59102" lon="1.84321">
        <ele>177</ele>
        <time>2010-05-15T11:52:50Z</time>
      </trkpt>
      <trkpt lat="48.59105" lon="1.84321">
        <ele>177</ele>
        <time>2010-05-15T11:52:52Z</time>
      </trkpt>
      <trkpt lat="48.59109" lon="1.84321">
        <ele>177</ele>
        <time>2010-05-15T11:52:52Z</time>
      </trkpt>
      <trkpt lat="48.59112" lon="1.84322">
        <ele>177</ele>
        <time>2010-05-15T11:52:53Z</time>
      </trkpt>
      <trkpt lat="48.59116" lon="1.84323">
        <ele>177</ele>
        <time>2010-05-15T11:52:54Z</time>
      </trkpt>
      <trkpt lat="48.5912" lon="1.84324">
        <ele>177</ele>
        <time>2010-05-15T11:52:55Z</time>
      </trkpt>
      <trkpt lat="48.59123" lon="1.84324">
        <ele>177</ele>
        <time>2010-05-15T11:52:57Z</time>
      </trkpt>
      <trkpt lat="48.59127" lon="1.84325">
        <ele>177</ele>
        <time>2010-05-15T11:52:57Z</time>
      </trkpt>
      <trkpt lat="48.59131" lon="1.84326">
        <ele>177</ele>
        <time>2010-05-15T11:52:58Z</time>
      </trkpt>
      <trkpt lat="48.59135" lon="1.84327">
        <ele>177</ele>
        <time>2010-05-15T11:52:59Z</time>
      </trkpt>
      <trkpt lat="48.59139" lon="1.84328">
        <ele>177</ele>
        <time>2010-05-15T11:53:01Z</time>
      </trkpt>
      <trkpt lat="48.59143" lon="1.84329">
        <ele>177</ele>
        <time>2010-05-15T11:53:02Z</time>
      </trkpt>
      <trkpt lat="48.59147" lon="1.8433">
        <ele>177</ele>
        <time>2010-05-15T11:53:02Z</time>
      </trkpt>
      <trkpt lat="48.59151" lon="1.84331">
        <ele>177</ele>
        <time>2010-05-15T11:53:03Z</time>
      </trkpt>
      <trkpt lat="48.59155" lon="1.84331">
        <ele>177</ele>
        <time>2010-05-15T11:53:04Z</time>
      </trkpt>
      <trkpt lat="48.59159" lon="1.84331">
        <ele>177</ele>
        <time>2010-05-15T11:53:05Z</time>
      </trkpt>
      <trkpt lat="48.59163" lon="1.84332">
        <ele>177</ele>
        <time>2010-05-15T11:53:07Z</time>
      </trkpt>
      <trkpt lat="48.59167" lon="1.84334">
        <ele>177</ele>
        <time>2010-05-15T11:53:07Z</time>
      </trkpt>
      <trkpt lat="48.59171" lon="1.84335">
        <ele>177</ele>
        <time>2010-05-15T11:53:08Z</time>
      </trkpt>
      <trkpt lat="48.59174" lon="1.84337">
        <ele>177</ele>
        <time>2010-05-15T11:53:09Z</time>
      </trkpt>
      <trkpt lat="48.59177" lon="1.84337">
        <ele>177</ele>
        <time>2010-05-15T11:53:10Z</time>
      </trkpt>
      <trkpt lat="48.5918" lon="1.84338">
        <ele>177</ele>
        <time>2010-05-15T11:53:12Z</time>
      </trkpt>
      <trkpt lat="48.59184" lon="1.84338">
        <ele>177</ele>
        <time>2010-05-15T11:53:12Z</time>
      </trkpt>
      <trkpt lat="48.59188" lon="1.84338">
        <ele>177</ele>
        <time>2010-05-15T11:53:13Z</time>
      </trkpt>
      <trkpt lat="48.59192" lon="1.84339">
        <ele>177</ele>
        <time>2010-05-15T11:53:14Z</time>
      </trkpt>
      <trkpt lat="48.59195" lon="1.84339">
        <ele>177</ele>
        <time>2010-05-15T11:53:15Z</time>
      </trkpt>
      <trkpt lat="48.592" lon="1.84341">
        <ele>177</ele>
        <time>2010-05-15T11:53:17Z</time>
      </trkpt>
      <trkpt lat="48.59204" lon="1.84341">
        <ele>177</ele>
        <time>2010-05-15T11:53:17Z</time>
      </trkpt>
      <trkpt lat="48.59208" lon="1.84342">
        <ele>177</ele>
        <time>2010-05-15T11:53:18Z</time>
      </trkpt>
      <trkpt lat="48.59212" lon="1.84343">
        <ele>177</ele>
        <time>2010-05-15T11:53:19Z</time>
      </trkpt>
      <trkpt lat="48.59216" lon="1.84344">
        <ele>177</ele>
        <time>2010-05-15T11:53:20Z</time>
      </trkpt>
      <trkpt lat="48.59219" lon="1.84344">
        <ele>177</ele>
        <time>2010-05-15T11:53:22Z</time>
      </trkpt>
      <trkpt lat="48.59223" lon="1.84345">
        <ele>177</ele>
        <time>2010-05-15T11:53:22Z</time>
      </trkpt>
      <trkpt lat="48.59227" lon="1.84345">
        <ele>177</ele>
        <time>2010-05-15T11:53:23Z</time>
      </trkpt>
      <trkpt lat="48.59231" lon="1.84347">
        <ele>177</ele>
        <time>2010-05-15T11:53:24Z</time>
      </trkpt>
      <trkpt lat="48.59235" lon="1.84348">
        <ele>177</ele>
        <time>2010-05-15T11:53:25Z</time>
      </trkpt>
      <trkpt lat="48.59239" lon="1.84349">
        <ele>177</ele>
        <time>2010-05-15T11:53:27Z</time>
      </trkpt>
      <trkpt lat="48.59243" lon="1.8435">
        <ele>177</ele>
        <time>2010-05-15T11:53:27Z</time>
      </trkpt>
      <trkpt lat="48.59247" lon="1.84351">
        <ele>177</ele>
        <time>2010-05-15T11:53:28Z</time>
      </trkpt>
      <trkpt lat="48.5925" lon="1.8435">
        <ele>177</ele>
        <time>2010-05-15T11:53:29Z</time>
      </trkpt>
      <trkpt lat="48.59253" lon="1.84348">
        <ele>177</ele>
        <time>2010-05-15T11:53:30Z</time>
      </trkpt>
      <trkpt lat="48.59256" lon="1.84345">
        <ele>177</ele>
        <time>2010-05-15T11:53:32Z</time>
      </trkpt>
      <trkpt lat="48.59258" lon="1.84342">
        <ele>177</ele>
        <time>2010-05-15T11:53:32Z</time>
      </trkpt>
      <trkpt lat="48.59261" lon="1.84338">
        <ele>177</ele>
        <time>2010-05-15T11:53:33Z</time>
      </trkpt>
      <trkpt lat="48.59263" lon="1.84335">
        <ele>177</ele>
        <time>2010-05-15T11:53:34Z</time>
      </trkpt>
      <trkpt lat="48.59265" lon="1.84332">
        <ele>177</ele>
        <time>2010-05-15T11:53:35Z</time>
      </trkpt>
      <trkpt lat="48.59267" lon="1.84329">
        <ele>177</ele>
        <time>2010-05-15T11:53:37Z</time>
      </trkpt>
      <trkpt lat="48.5927" lon="1.84326">
        <ele>177</ele>
        <time>2010-05-15T11:53:37Z</time>
      </trkpt>
      <trkpt lat="48.59273" lon="1.84322">
        <ele>177</ele>
        <time>2010-05-15T11:53:39Z</time>
      </trkpt>
      <trkpt lat="48.59275" lon="1.84319">
        <ele>176</ele>
        <time>2010-05-15T11:53:40Z</time>
      </trkpt>
      <trkpt lat="48.59278" lon="1.84315">
        <ele>176</ele>
        <time>2010-05-15T11:53:40Z</time>
      </trkpt>
      <trkpt lat="48.59281" lon="1.84313">
        <ele>175</ele>
        <time>2010-05-15T11:53:42Z</time>
      </trkpt>
      <trkpt lat="48.59284" lon="1.84311">
        <ele>174</ele>
        <time>2010-05-15T11:53:42Z</time>
      </trkpt>
      <trkpt lat="48.59287" lon="1.84309">
        <ele>174</ele>
        <time>2010-05-15T11:53:43Z</time>
      </trkpt>
      <trkpt lat="48.5929" lon="1.84308">
        <ele>174</ele>
        <time>2010-05-15T11:53:44Z</time>
      </trkpt>
      <trkpt lat="48.59293" lon="1.84307">
        <ele>174</ele>
        <time>2010-05-15T11:53:46Z</time>
      </trkpt>
      <trkpt lat="48.59295" lon="1.84307">
        <ele>174</ele>
        <time>2010-05-15T11:53:47Z</time>
      </trkpt>
      <trkpt lat="48.59298" lon="1.84306">
        <ele>174</ele>
        <time>2010-05-15T11:53:47Z</time>
      </trkpt>
      <trkpt lat="48.593" lon="1.84305">
        <ele>174</ele>
        <time>2010-05-15T11:53:48Z</time>
      </trkpt>
      <trkpt lat="48.59303" lon="1.84304">
        <ele>174</ele>
        <time>2010-05-15T11:53:49Z</time>
      </trkpt>
      <trkpt lat="48.59305" lon="1.84304">
        <ele>174</ele>
        <time>2010-05-15T11:53:50Z</time>
      </trkpt>
      <trkpt lat="48.59307" lon="1.84303">
        <ele>174</ele>
        <time>2010-05-15T11:53:52Z</time>
      </trkpt>
      <trkpt lat="48.59309" lon="1.84303">
        <ele>174</ele>
        <time>2010-05-15T11:53:52Z</time>
      </trkpt>
      <trkpt lat="48.59312" lon="1.84303">
        <ele>174</ele>
        <time>2010-05-15T11:53:53Z</time>
      </trkpt>
      <trkpt lat="48.59315" lon="1.84303">
        <ele>174</ele>
        <time>2010-05-15T11:53:54Z</time>
      </trkpt>
      <trkpt lat="48.59318" lon="1.84303">
        <ele>173</ele>
        <time>2010-05-15T11:53:55Z</time>
      </trkpt>
      <trkpt lat="48.5932" lon="1.84304">
        <ele>173</ele>
        <time>2010-05-15T11:53:57Z</time>
      </trkpt>
      <trkpt lat="48.59322" lon="1.84305">
        <ele>172</ele>
        <time>2010-05-15T11:53:57Z</time>
      </trkpt>
      <trkpt lat="48.59324" lon="1.84306">
        <ele>172</ele>
        <time>2010-05-15T11:53:58Z</time>
      </trkpt>
      <trkpt lat="48.59326" lon="1.84308">
        <ele>172</ele>
        <time>2010-05-15T11:53:59Z</time>
      </trkpt>
      <trkpt lat="48.59328" lon="1.8431">
        <ele>172</ele>
        <time>2010-05-15T11:54:00Z</time>
      </trkpt>
      <trkpt lat="48.5933" lon="1.84311">
        <ele>172</ele>
        <time>2010-05-15T11:54:02Z</time>
      </trkpt>
      <trkpt lat="48.59333" lon="1.84313">
        <ele>172</ele>
        <time>2010-05-15T11:54:02Z</time>
      </trkpt>
      <trkpt lat="48.59335" lon="1.84314">
        <ele>172</ele>
        <time>2010-05-15T11:54:03Z</time>
      </trkpt>
      <trkpt lat="48.59337" lon="1.84316">
        <ele>172</ele>
        <time>2010-05-15T11:54:04Z</time>
      </trkpt>
      <trkpt lat="48.59339" lon="1.84318">
        <ele>172</ele>
        <time>2010-05-15T11:54:05Z</time>
      </trkpt>
      <trkpt lat="48.59342" lon="1.84319">
        <ele>172</ele>
        <time>2010-05-15T11:54:07Z</time>
      </trkpt>
      <trkpt lat="48.59344" lon="1.84321">
        <ele>172</ele>
        <time>2010-05-15T11:54:07Z</time>
      </trkpt>
      <trkpt lat="48.59346" lon="1.84323">
        <ele>172</ele>
        <time>2010-05-15T11:54:08Z</time>
      </trkpt>
      <trkpt lat="48.59349" lon="1.84325">
        <ele>172</ele>
        <time>2010-05-15T11:54:09Z</time>
      </trkpt>
      <trkpt lat="48.59351" lon="1.84326">
        <ele>172</ele>
        <time>2010-05-15T11:54:10Z</time>
      </trkpt>
      <trkpt lat="48.59353" lon="1.84328">
        <ele>172</ele>
        <time>2010-05-15T11:54:12Z</time>
      </trkpt>
      <trkpt lat="48.59355" lon="1.84329">
        <ele>172</ele>
        <time>2010-05-15T11:54:12Z</time>
      </trkpt>
      <trkpt lat="48.59358" lon="1.84332">
        <ele>172</ele>
        <time>2010-05-15T11:54:13Z</time>
      </trkpt>
      <trkpt lat="48.59361" lon="1.84334">
        <ele>172</ele>
        <time>2010-05-15T11:54:14Z</time>
      </trkpt>
      <trkpt lat="48.59363" lon="1.84337">
        <ele>172</ele>
        <time>2010-05-15T11:54:15Z</time>
      </trkpt>
      <trkpt lat="48.59365" lon="1.84338">
        <ele>172</ele>
        <time>2010-05-15T11:54:17Z</time>
      </trkpt>
      <trkpt lat="48.59368" lon="1.8434">
        <ele>172</ele>
        <time>2010-05-15T11:54:17Z</time>
      </trkpt>
      <trkpt lat="48.5937" lon="1.84342">
        <ele>172</ele>
        <time>2010-05-15T11:54:18Z</time>
      </trkpt>
      <trkpt lat="48.59372" lon="1.84345">
        <ele>172</ele>
        <time>2010-05-15T11:54:19Z</time>
      </trkpt>
      <trkpt lat="48.59375" lon="1.84349">
        <ele>172</ele>
        <time>2010-05-15T11:54:20Z</time>
      </trkpt>
      <trkpt lat="48.59377" lon="1.84351">
        <ele>172</ele>
        <time>2010-05-15T11:54:22Z</time>
      </trkpt>
      <trkpt lat="48.5938" lon="1.84354">
        <ele>172</ele>
        <time>2010-05-15T11:54:22Z</time>
      </trkpt>
      <trkpt lat="48.59383" lon="1.84358">
        <ele>172</ele>
        <time>2010-05-15T11:54:23Z</time>
      </trkpt>
      <trkpt lat="48.59386" lon="1.84361">
        <ele>172</ele>
        <time>2010-05-15T11:54:24Z</time>
      </trkpt>
      <trkpt lat="48.5939" lon="1.84364">
        <ele>172</ele>
        <time>2010-05-15T11:54:25Z</time>
      </trkpt>
      <trkpt lat="48.59393" lon="1.84367">
        <ele>172</ele>
        <time>2010-05-15T11:54:27Z</time>
      </trkpt>
      <trkpt lat="48.59396" lon="1.8437">
        <ele>172</ele>
        <time>2010-05-15T11:54:27Z</time>
      </trkpt>
      <trkpt lat="48.59397" lon="1.84372">
        <ele>172</ele>
        <time>2010-05-15T11:54:28Z</time>
      </trkpt>
      <trkpt lat="48.594" lon="1.84375">
        <ele>172</ele>
        <time>2010-05-15T11:54:29Z</time>
      </trkpt>
      <trkpt lat="48.59402" lon="1.84378">
        <ele>172</ele>
        <time>2010-05-15T11:54:30Z</time>
      </trkpt>
      <trkpt lat="48.59404" lon="1.84381">
        <ele>172</ele>
        <time>2010-05-15T11:54:32Z</time>
      </trkpt>
      <trkpt lat="48.59406" lon="1.84384">
        <ele>172</ele>
        <time>2010-05-15T11:54:32Z</time>
      </trkpt>
      <trkpt lat="48.59408" lon="1.84387">
        <ele>172</ele>
        <time>2010-05-15T11:54:33Z</time>
      </trkpt>
      <trkpt lat="48.5941" lon="1.84391">
        <ele>172</ele>
        <time>2010-05-15T11:54:34Z</time>
      </trkpt>
      <trkpt lat="48.59412" lon="1.84393">
        <ele>172</ele>
        <time>2010-05-15T11:54:35Z</time>
      </trkpt>
      <trkpt lat="48.59413" lon="1.84395">
        <ele>172</ele>
        <time>2010-05-15T11:54:37Z</time>
      </trkpt>
      <trkpt lat="48.59416" lon="1.84399">
        <ele>172</ele>
        <time>2010-05-15T11:54:37Z</time>
      </trkpt>
      <trkpt lat="48.59419" lon="1.84402">
        <ele>172</ele>
        <time>2010-05-15T11:54:38Z</time>
      </trkpt>
      <trkpt lat="48.59421" lon="1.84405">
        <ele>172</ele>
        <time>2010-05-15T11:54:39Z</time>
      </trkpt>
      <trkpt lat="48.59422" lon="1.84408">
        <ele>172</ele>
        <time>2010-05-15T11:54:40Z</time>
      </trkpt>
      <trkpt lat="48.59424" lon="1.8441">
        <ele>172</ele>
        <time>2010-05-15T11:54:43Z</time>
      </trkpt>
      <trkpt lat="48.59425" lon="1.84412">
        <ele>172</ele>
        <time>2010-05-15T11:54:43Z</time>
      </trkpt>
      <trkpt lat="48.59425" lon="1.84414">
        <ele>172</ele>
        <time>2010-05-15T11:54:44Z</time>
      </trkpt>
      <trkpt lat="48.59426" lon="1.84416">
        <ele>172</ele>
        <time>2010-05-15T11:54:45Z</time>
      </trkpt>
      <trkpt lat="48.59427" lon="1.84419">
        <ele>172</ele>
        <time>2010-05-15T11:54:48Z</time>
      </trkpt>
      <trkpt lat="48.59428" lon="1.84421">
        <ele>172</ele>
        <time>2010-05-15T11:54:48Z</time>
      </trkpt>
      <trkpt lat="48.59429" lon="1.84423">
        <ele>172</ele>
        <time>2010-05-15T11:54:49Z</time>
      </trkpt>
      <trkpt lat="48.5943" lon="1.84426">
        <ele>172</ele>
        <time>2010-05-15T11:54:51Z</time>
      </trkpt>
      <trkpt lat="48.59431" lon="1.84428">
        <ele>172</ele>
        <time>2010-05-15T11:54:53Z</time>
      </trkpt>
      <trkpt lat="48.59432" lon="1.8443">
        <ele>172</ele>
        <time>2010-05-15T11:54:53Z</time>
      </trkpt>
      <trkpt lat="48.59432" lon="1.84431">
        <ele>172</ele>
        <time>2010-05-15T11:54:54Z</time>
      </trkpt>
      <trkpt lat="48.59433" lon="1.84433">
        <ele>172</ele>
        <time>2010-05-15T11:54:55Z</time>
      </trkpt>
      <trkpt lat="48.59434" lon="1.84435">
        <ele>172</ele>
        <time>2010-05-15T11:54:57Z</time>
      </trkpt>
      <trkpt lat="48.59435" lon="1.84436">
        <ele>172</ele>
        <time>2010-05-15T11:54:58Z</time>
      </trkpt>
      <trkpt lat="48.59436" lon="1.84439">
        <ele>172</ele>
        <time>2010-05-15T11:54:58Z</time>
      </trkpt>
      <trkpt lat="48.59437" lon="1.84441">
        <ele>172</ele>
        <time>2010-05-15T11:54:59Z</time>
      </trkpt>
      <trkpt lat="48.59438" lon="1.84443">
        <ele>172</ele>
        <time>2010-05-15T11:55:00Z</time>
      </trkpt>
      <trkpt lat="48.59439" lon="1.84445">
        <ele>172</ele>
        <time>2010-05-15T11:55:01Z</time>
      </trkpt>
      <trkpt lat="48.5944" lon="1.84447">
        <ele>172</ele>
        <time>2010-05-15T11:55:03Z</time>
      </trkpt>
      <trkpt lat="48.59441" lon="1.84449">
        <ele>172</ele>
        <time>2010-05-15T11:55:03Z</time>
      </trkpt>
      <trkpt lat="48.59442" lon="1.8445">
        <ele>171</ele>
        <time>2010-05-15T11:55:04Z</time>
      </trkpt>
      <trkpt lat="48.59443" lon="1.84452">
        <ele>171</ele>
        <time>2010-05-15T11:55:05Z</time>
      </trkpt>
      <trkpt lat="48.59444" lon="1.84454">
        <ele>171</ele>
        <time>2010-05-15T11:55:06Z</time>
      </trkpt>
      <trkpt lat="48.59445" lon="1.84456">
        <ele>170</ele>
        <time>2010-05-15T11:55:07Z</time>
      </trkpt>
      <trkpt lat="48.59446" lon="1.84458">
        <ele>170</ele>
        <time>2010-05-15T11:55:10Z</time>
      </trkpt>
      <trkpt lat="48.59448" lon="1.84462">
        <ele>170</ele>
        <time>2010-05-15T11:55:11Z</time>
      </trkpt>
      <trkpt lat="48.5945" lon="1.84465">
        <ele>169</ele>
        <time>2010-05-15T11:55:13Z</time>
      </trkpt>
      <trkpt lat="48.59451" lon="1.84467">
        <ele>169</ele>
        <time>2010-05-15T11:55:16Z</time>
      </trkpt>
      <trkpt lat="48.59453" lon="1.84469">
        <ele>169</ele>
        <time>2010-05-15T11:55:17Z</time>
      </trkpt>
      <trkpt lat="48.59455" lon="1.84472">
        <ele>168</ele>
        <time>2010-05-15T11:55:19Z</time>
      </trkpt>
      <trkpt lat="48.59457" lon="1.84474">
        <ele>168</ele>
        <time>2010-05-15T11:55:21Z</time>
      </trkpt>
      <trkpt lat="48.59458" lon="1.84476">
        <ele>168</ele>
        <time>2010-05-15T11:55:21Z</time>
      </trkpt>
      <trkpt lat="48.59459" lon="1.84478">
        <ele>168</ele>
        <time>2010-05-15T11:55:22Z</time>
      </trkpt>
      <trkpt lat="48.59461" lon="1.84481">
        <ele>168</ele>
        <time>2010-05-15T11:55:24Z</time>
      </trkpt>
      <trkpt lat="48.59462" lon="1.84483">
        <ele>168</ele>
        <time>2010-05-15T11:55:26Z</time>
      </trkpt>
      <trkpt lat="48.59463" lon="1.84485">
        <ele>168</ele>
        <time>2010-05-15T11:55:26Z</time>
      </trkpt>
      <trkpt lat="48.59465" lon="1.84486">
        <ele>167</ele>
        <time>2010-05-15T11:55:28Z</time>
      </trkpt>
      <trkpt lat="48.59466" lon="1.84488">
        <ele>167</ele>
        <time>2010-05-15T11:55:28Z</time>
      </trkpt>
      <trkpt lat="48.59468" lon="1.8449">
        <ele>167</ele>
        <time>2010-05-15T11:55:29Z</time>
      </trkpt>
      <trkpt lat="48.59469" lon="1.84492">
        <ele>167</ele>
        <time>2010-05-15T11:55:31Z</time>
      </trkpt>
      <trkpt lat="48.5947" lon="1.84494">
        <ele>167</ele>
        <time>2010-05-15T11:55:31Z</time>
      </trkpt>
      <trkpt lat="48.59471" lon="1.84496">
        <ele>167</ele>
        <time>2010-05-15T11:55:32Z</time>
      </trkpt>
      <trkpt lat="48.59472" lon="1.84498">
        <ele>167</ele>
        <time>2010-05-15T11:55:33Z</time>
      </trkpt>
      <trkpt lat="48.59473" lon="1.845">
        <ele>167</ele>
        <time>2010-05-15T11:55:34Z</time>
      </trkpt>
      <trkpt lat="48.59474" lon="1.84501">
        <ele>167</ele>
        <time>2010-05-15T11:55:36Z</time>
      </trkpt>
      <trkpt lat="48.59475" lon="1.84503">
        <ele>166</ele>
        <time>2010-05-15T11:55:36Z</time>
      </trkpt>
      <trkpt lat="48.59476" lon="1.84505">
        <ele>166</ele>
        <time>2010-05-15T11:55:37Z</time>
      </trkpt>
      <trkpt lat="48.59477" lon="1.84507">
        <ele>166</ele>
        <time>2010-05-15T11:55:38Z</time>
      </trkpt>
      <trkpt lat="48.59479" lon="1.84508">
        <ele>166</ele>
        <time>2010-05-15T11:55:39Z</time>
      </trkpt>
      <trkpt lat="48.5948" lon="1.8451">
        <ele>166</ele>
        <time>2010-05-15T11:55:41Z</time>
      </trkpt>
      <trkpt lat="48.59481" lon="1.84511">
        <ele>166</ele>
        <time>2010-05-15T11:55:41Z</time>
      </trkpt>
      <trkpt lat="48.59482" lon="1.84512">
        <ele>166</ele>
        <time>2010-05-15T11:55:42Z</time>
      </trkpt>
      <trkpt lat="48.59484" lon="1.84515">
        <ele>166</ele>
        <time>2010-05-15T11:55:44Z</time>
      </trkpt>
      <trkpt lat="48.59486" lon="1.84517">
        <ele>166</ele>
        <time>2010-05-15T11:55:47Z</time>
      </trkpt>
      <trkpt lat="48.59487" lon="1.84518">
        <ele>166</ele>
        <time>2010-05-15T11:55:47Z</time>
      </trkpt>
      <trkpt lat="48.5949" lon="1.84521">
        <ele>166</ele>
        <time>2010-05-15T11:55:49Z</time>
      </trkpt>
      <trkpt lat="48.59491" lon="1.84522">
        <ele>166</ele>
        <time>2010-05-15T11:55:50Z</time>
      </trkpt>
      <trkpt lat="48.59492" lon="1.84524">
        <ele>166</ele>
        <time>2010-05-15T11:55:52Z</time>
      </trkpt>
      <trkpt lat="48.59493" lon="1.84525">
        <ele>166</ele>
        <time>2010-05-15T11:55:52Z</time>
      </trkpt>
      <trkpt lat="48.59494" lon="1.84527">
        <ele>166</ele>
        <time>2010-05-15T11:55:53Z</time>
      </trkpt>
      <trkpt lat="48.59495" lon="1.84529">
        <ele>166</ele>
        <time>2010-05-15T11:55:54Z</time>
      </trkpt>
      <trkpt lat="48.59497" lon="1.84532">
        <ele>166</ele>
        <time>2010-05-15T11:55:57Z</time>
      </trkpt>
      <trkpt lat="48.59499" lon="1.84535">
        <ele>166</ele>
        <time>2010-05-15T11:55:58Z</time>
      </trkpt>
      <trkpt lat="48.595" lon="1.84536">
        <ele>166</ele>
        <time>2010-05-15T11:55:59Z</time>
      </trkpt>
      <trkpt lat="48.59501" lon="1.84538">
        <ele>166</ele>
        <time>2010-05-15T11:56:00Z</time>
      </trkpt>
      <trkpt lat="48.59502" lon="1.8454">
        <ele>166</ele>
        <time>2010-05-15T11:56:02Z</time>
      </trkpt>
      <trkpt lat="48.59503" lon="1.84542">
        <ele>166</ele>
        <time>2010-05-15T11:56:02Z</time>
      </trkpt>
      <trkpt lat="48.59505" lon="1.84545">
        <ele>166</ele>
        <time>2010-05-15T11:56:04Z</time>
      </trkpt>
      <trkpt lat="48.59507" lon="1.84546">
        <ele>166</ele>
        <time>2010-05-15T11:56:07Z</time>
      </trkpt>
      <trkpt lat="48.59508" lon="1.84547">
        <ele>166</ele>
        <time>2010-05-15T11:56:07Z</time>
      </trkpt>
      <trkpt lat="48.59509" lon="1.84548">
        <ele>166</ele>
        <time>2010-05-15T11:56:08Z</time>
      </trkpt>
      <trkpt lat="48.5951" lon="1.84548">
        <ele>166</ele>
        <time>2010-05-15T11:56:10Z</time>
      </trkpt>
      <trkpt lat="48.59512" lon="1.84549">
        <ele>166</ele>
        <time>2010-05-15T11:56:11Z</time>
      </trkpt>
      <trkpt lat="48.59513" lon="1.8455">
        <ele>166</ele>
        <time>2010-05-15T11:56:12Z</time>
      </trkpt>
      <trkpt lat="48.59514" lon="1.84551">
        <ele>166</ele>
        <time>2010-05-15T11:56:12Z</time>
      </trkpt>
      <trkpt lat="48.59515" lon="1.84552">
        <ele>166</ele>
        <time>2010-05-15T11:56:13Z</time>
      </trkpt>
      <trkpt lat="48.59517" lon="1.84553">
        <ele>166</ele>
        <time>2010-05-15T11:56:14Z</time>
      </trkpt>
      <trkpt lat="48.59518" lon="1.84554">
        <ele>166</ele>
        <time>2010-05-15T11:56:15Z</time>
      </trkpt>
      <trkpt lat="48.59519" lon="1.84555">
        <ele>166</ele>
        <time>2010-05-15T11:56:17Z</time>
      </trkpt>
      <trkpt lat="48.5952" lon="1.84556">
        <ele>166</ele>
        <time>2010-05-15T11:56:17Z</time>
      </trkpt>
      <trkpt lat="48.59522" lon="1.84558">
        <ele>166</ele>
        <time>2010-05-15T11:56:19Z</time>
      </trkpt>
      <trkpt lat="48.59525" lon="1.8456">
        <ele>166</ele>
        <time>2010-05-15T11:56:22Z</time>
      </trkpt>
      <trkpt lat="48.59526" lon="1.84562">
        <ele>166</ele>
        <time>2010-05-15T11:56:23Z</time>
      </trkpt>
      <trkpt lat="48.59528" lon="1.84563">
        <ele>166</ele>
        <time>2010-05-15T11:56:24Z</time>
      </trkpt>
      <trkpt lat="48.5953" lon="1.84565">
        <ele>166</ele>
        <time>2010-05-15T11:56:25Z</time>
      </trkpt>
      <trkpt lat="48.59532" lon="1.84566">
        <ele>166</ele>
        <time>2010-05-15T11:56:28Z</time>
      </trkpt>
      <trkpt lat="48.59533" lon="1.84567">
        <ele>166</ele>
        <time>2010-05-15T11:56:29Z</time>
      </trkpt>
      <trkpt lat="48.59534" lon="1.84568">
        <ele>167</ele>
        <time>2010-05-15T11:56:34Z</time>
      </trkpt>
      <trkpt lat="48.59535" lon="1.8457">
        <ele>168</ele>
        <time>2010-05-15T11:56:40Z</time>
      </trkpt>
      <trkpt lat="48.59536" lon="1.84572">
        <ele>169</ele>
        <time>2010-05-15T11:56:49Z</time>
      </trkpt>
      <trkpt lat="48.59537" lon="1.84574">
        <ele>169</ele>
        <time>2010-05-15T11:56:54Z</time>
      </trkpt>
      <trkpt lat="48.59539" lon="1.84575">
        <ele>169</ele>
        <time>2010-05-15T11:56:55Z</time>
      </trkpt>
      <trkpt lat="48.5954" lon="1.84576">
        <ele>169</ele>
        <time>2010-05-15T11:56:56Z</time>
      </trkpt>
      <trkpt lat="48.59542" lon="1.84578">
        <ele>169</ele>
        <time>2010-05-15T11:56:59Z</time>
      </trkpt>
      <trkpt lat="48.59543" lon="1.8458">
        <ele>169</ele>
        <time>2010-05-15T11:56:59Z</time>
      </trkpt>
      <trkpt lat="48.59545" lon="1.84582">
        <ele>169</ele>
        <time>2010-05-15T11:57:00Z</time>
      </trkpt>
      <trkpt lat="48.59546" lon="1.84584">
        <ele>169</ele>
        <time>2010-05-15T11:57:01Z</time>
      </trkpt>
      <trkpt lat="48.59548" lon="1.84585">
        <ele>169</ele>
        <time>2010-05-15T11:57:03Z</time>
      </trkpt>
      <trkpt lat="48.59549" lon="1.84586">
        <ele>169</ele>
        <time>2010-05-15T11:57:04Z</time>
      </trkpt>
      <trkpt lat="48.5955" lon="1.84588">
        <ele>169</ele>
        <time>2010-05-15T11:57:04Z</time>
      </trkpt>
      <trkpt lat="48.59551" lon="1.84589">
        <ele>169</ele>
        <time>2010-05-15T11:57:06Z</time>
      </trkpt>
      <trkpt lat="48.59554" lon="1.84592">
        <ele>169</ele>
        <time>2010-05-15T11:57:09Z</time>
      </trkpt>
      <trkpt lat="48.59557" lon="1.84594">
        <ele>169</ele>
        <time>2010-05-15T11:57:09Z</time>
      </trkpt>
      <trkpt lat="48.5956" lon="1.84597">
        <ele>169</ele>
        <time>2010-05-15T11:57:10Z</time>
      </trkpt>
      <trkpt lat="48.59563" lon="1.846">
        <ele>169</ele>
        <time>2010-05-15T11:57:11Z</time>
      </trkpt>
      <trkpt lat="48.59566" lon="1.84602">
        <ele>169</ele>
        <time>2010-05-15T11:57:12Z</time>
      </trkpt>
      <trkpt lat="48.59568" lon="1.84605">
        <ele>169</ele>
        <time>2010-05-15T11:57:14Z</time>
      </trkpt>
      <trkpt lat="48.59571" lon="1.84607">
        <ele>169</ele>
        <time>2010-05-15T11:57:14Z</time>
      </trkpt>
      <trkpt lat="48.59573" lon="1.84609">
        <ele>169</ele>
        <time>2010-05-15T11:57:15Z</time>
      </trkpt>
      <trkpt lat="48.59576" lon="1.84613">
        <ele>169</ele>
        <time>2010-05-15T11:57:16Z</time>
      </trkpt>
      <trkpt lat="48.59579" lon="1.84615">
        <ele>169</ele>
        <time>2010-05-15T11:57:17Z</time>
      </trkpt>
      <trkpt lat="48.59581" lon="1.84617">
        <ele>169</ele>
        <time>2010-05-15T11:57:19Z</time>
      </trkpt>
      <trkpt lat="48.59583" lon="1.84619">
        <ele>169</ele>
        <time>2010-05-15T11:57:20Z</time>
      </trkpt>
      <trkpt lat="48.59585" lon="1.84621">
        <ele>169</ele>
        <time>2010-05-15T11:57:22Z</time>
      </trkpt>
      <trkpt lat="48.59587" lon="1.84622">
        <ele>169</ele>
        <time>2010-05-15T11:57:24Z</time>
      </trkpt>
      <trkpt lat="48.59588" lon="1.84623">
        <ele>169</ele>
        <time>2010-05-15T11:57:24Z</time>
      </trkpt>
      <trkpt lat="48.5959" lon="1.84624">
        <ele>169</ele>
        <time>2010-05-15T11:57:25Z</time>
      </trkpt>
      <trkpt lat="48.59591" lon="1.84626">
        <ele>169</ele>
        <time>2010-05-15T11:57:26Z</time>
      </trkpt>
      <trkpt lat="48.59593" lon="1.84628">
        <ele>169</ele>
        <time>2010-05-15T11:57:27Z</time>
      </trkpt>
      <trkpt lat="48.59594" lon="1.84629">
        <ele>169</ele>
        <time>2010-05-15T11:57:29Z</time>
      </trkpt>
      <trkpt lat="48.59596" lon="1.8463">
        <ele>169</ele>
        <time>2010-05-15T11:57:29Z</time>
      </trkpt>
      <trkpt lat="48.59597" lon="1.84632">
        <ele>169</ele>
        <time>2010-05-15T11:57:30Z</time>
      </trkpt>
      <trkpt lat="48.59598" lon="1.84633">
        <ele>169</ele>
        <time>2010-05-15T11:57:31Z</time>
      </trkpt>
      <trkpt lat="48.59599" lon="1.84634">
        <ele>169</ele>
        <time>2010-05-15T11:57:32Z</time>
      </trkpt>
      <trkpt lat="48.59601" lon="1.84635">
        <ele>169</ele>
        <time>2010-05-15T11:57:34Z</time>
      </trkpt>
      <trkpt lat="48.59602" lon="1.84636">
        <ele>169</ele>
        <time>2010-05-15T11:57:34Z</time>
      </trkpt>
      <trkpt lat="48.59603" lon="1.84637">
        <ele>169</ele>
        <time>2010-05-15T11:57:35Z</time>
      </trkpt>
      <trkpt lat="48.59605" lon="1.84639">
        <ele>169</ele>
        <time>2010-05-15T11:57:37Z</time>
      </trkpt>
      <trkpt lat="48.59606" lon="1.8464">
        <ele>169</ele>
        <time>2010-05-15T11:57:39Z</time>
      </trkpt>
      <trkpt lat="48.59608" lon="1.84641">
        <ele>169</ele>
        <time>2010-05-15T11:57:39Z</time>
      </trkpt>
      <trkpt lat="48.59609" lon="1.84642">
        <ele>169</ele>
        <time>2010-05-15T11:57:40Z</time>
      </trkpt>
      <trkpt lat="48.59611" lon="1.84644">
        <ele>169</ele>
        <time>2010-05-15T11:57:42Z</time>
      </trkpt>
      <trkpt lat="48.59612" lon="1.84646">
        <ele>169</ele>
        <time>2010-05-15T11:57:44Z</time>
      </trkpt>
      <trkpt lat="48.59614" lon="1.84648">
        <ele>169</ele>
        <time>2010-05-15T11:57:44Z</time>
      </trkpt>
      <trkpt lat="48.59615" lon="1.84649">
        <ele>169</ele>
        <time>2010-05-15T11:57:45Z</time>
      </trkpt>
      <trkpt lat="48.59616" lon="1.84651">
        <ele>169</ele>
        <time>2010-05-15T11:57:46Z</time>
      </trkpt>
      <trkpt lat="48.59618" lon="1.84652">
        <ele>169</ele>
        <time>2010-05-15T11:57:47Z</time>
      </trkpt>
      <trkpt lat="48.59619" lon="1.84654">
        <ele>169</ele>
        <time>2010-05-15T11:57:49Z</time>
      </trkpt>
      <trkpt lat="48.5962" lon="1.84655">
        <ele>169</ele>
        <time>2010-05-15T11:57:49Z</time>
      </trkpt>
      <trkpt lat="48.59621" lon="1.84656">
        <ele>169</ele>
        <time>2010-05-15T11:57:50Z</time>
      </trkpt>
      <trkpt lat="48.59623" lon="1.84659">
        <ele>169</ele>
        <time>2010-05-15T11:57:52Z</time>
      </trkpt>
      <trkpt lat="48.59625" lon="1.8466">
        <ele>169</ele>
        <time>2010-05-15T11:57:54Z</time>
      </trkpt>
      <trkpt lat="48.59627" lon="1.84662">
        <ele>169</ele>
        <time>2010-05-15T11:57:55Z</time>
      </trkpt>
      <trkpt lat="48.59628" lon="1.84664">
        <ele>169</ele>
        <time>2010-05-15T11:57:56Z</time>
      </trkpt>
      <trkpt lat="48.5963" lon="1.84666">
        <ele>169</ele>
        <time>2010-05-15T11:57:57Z</time>
      </trkpt>
      <trkpt lat="48.59631" lon="1.84668">
        <ele>169</ele>
        <time>2010-05-15T11:57:59Z</time>
      </trkpt>
      <trkpt lat="48.59633" lon="1.8467">
        <ele>169</ele>
        <time>2010-05-15T11:57:59Z</time>
      </trkpt>
      <trkpt lat="48.59634" lon="1.84672">
        <ele>169</ele>
        <time>2010-05-15T11:58:00Z</time>
      </trkpt>
      <trkpt lat="48.59635" lon="1.84674">
        <ele>169</ele>
        <time>2010-05-15T11:58:01Z</time>
      </trkpt>
      <trkpt lat="48.59636" lon="1.84676">
        <ele>169</ele>
        <time>2010-05-15T11:58:02Z</time>
      </trkpt>
      <trkpt lat="48.59637" lon="1.84677">
        <ele>169</ele>
        <time>2010-05-15T11:58:04Z</time>
      </trkpt>
      <trkpt lat="48.59638" lon="1.84679">
        <ele>169</ele>
        <time>2010-05-15T11:58:04Z</time>
      </trkpt>
      <trkpt lat="48.59639" lon="1.84681">
        <ele>169</ele>
        <time>2010-05-15T11:58:05Z</time>
      </trkpt>
      <trkpt lat="48.5964" lon="1.84683">
        <ele>169</ele>
        <time>2010-05-15T11:58:06Z</time>
      </trkpt>
      <trkpt lat="48.59642" lon="1.84685">
        <ele>169</ele>
        <time>2010-05-15T11:58:07Z</time>
      </trkpt>
      <trkpt lat="48.59643" lon="1.84687">
        <ele>169</ele>
        <time>2010-05-15T11:58:09Z</time>
      </trkpt>
      <trkpt lat="48.59644" lon="1.84688">
        <ele>169</ele>
        <time>2010-05-15T11:58:09Z</time>
      </trkpt>
      <trkpt lat="48.59646" lon="1.84691">
        <ele>169</ele>
        <time>2010-05-15T11:58:11Z</time>
      </trkpt>
      <trkpt lat="48.59647" lon="1.84692">
        <ele>169</ele>
        <time>2010-05-15T11:58:12Z</time>
      </trkpt>
      <trkpt lat="48.59649" lon="1.84692">
        <ele>169</ele>
        <time>2010-05-15T11:58:14Z</time>
      </trkpt>
      <trkpt lat="48.59651" lon="1.84694">
        <ele>169</ele>
        <time>2010-05-15T11:58:15Z</time>
      </trkpt>
      <trkpt lat="48.59654" lon="1.84698">
        <ele>169</ele>
        <time>2010-05-15T11:58:17Z</time>
      </trkpt>
      <trkpt lat="48.59655" lon="1.847">
        <ele>169</ele>
        <time>2010-05-15T11:58:19Z</time>
      </trkpt>
      <trkpt lat="48.59656" lon="1.84702">
        <ele>169</ele>
        <time>2010-05-15T11:58:19Z</time>
      </trkpt>
      <trkpt lat="48.59658" lon="1.84705">
        <ele>169</ele>
        <time>2010-05-15T11:58:21Z</time>
      </trkpt>
      <trkpt lat="48.59661" lon="1.84708">
        <ele>169</ele>
        <time>2010-05-15T11:58:24Z</time>
      </trkpt>
      <trkpt lat="48.59662" lon="1.8471">
        <ele>169</ele>
        <time>2010-05-15T11:58:24Z</time>
      </trkpt>
      <trkpt lat="48.59663" lon="1.84712">
        <ele>169</ele>
        <time>2010-05-15T11:58:25Z</time>
      </trkpt>
      <trkpt lat="48.59664" lon="1.84713">
        <ele>169</ele>
        <time>2010-05-15T11:58:26Z</time>
      </trkpt>
      <trkpt lat="48.59666" lon="1.84717">
        <ele>169</ele>
        <time>2010-05-15T11:58:29Z</time>
      </trkpt>
      <trkpt lat="48.59667" lon="1.84718">
        <ele>169</ele>
        <time>2010-05-15T11:58:29Z</time>
      </trkpt>
      <trkpt lat="48.59668" lon="1.84719">
        <ele>169</ele>
        <time>2010-05-15T11:58:30Z</time>
      </trkpt>
      <trkpt lat="48.5967" lon="1.84722">
        <ele>169</ele>
        <time>2010-05-15T11:58:32Z</time>
      </trkpt>
      <trkpt lat="48.59671" lon="1.84723">
        <ele>169</ele>
        <time>2010-05-15T11:58:34Z</time>
      </trkpt>
      <trkpt lat="48.59674" lon="1.84726">
        <ele>169</ele>
        <time>2010-05-15T11:58:35Z</time>
      </trkpt>
      <trkpt lat="48.59675" lon="1.84728">
        <ele>169</ele>
        <time>2010-05-15T11:58:36Z</time>
      </trkpt>
      <trkpt lat="48.59676" lon="1.8473">
        <ele>169</ele>
        <time>2010-05-15T11:58:37Z</time>
      </trkpt>
      <trkpt lat="48.59678" lon="1.84731">
        <ele>169</ele>
        <time>2010-05-15T11:58:39Z</time>
      </trkpt>
      <trkpt lat="48.59679" lon="1.84733">
        <ele>169</ele>
        <time>2010-05-15T11:58:39Z</time>
      </trkpt>
      <trkpt lat="48.5968" lon="1.84734">
        <ele>169</ele>
        <time>2010-05-15T11:58:40Z</time>
      </trkpt>
      <trkpt lat="48.59681" lon="1.84736">
        <ele>169</ele>
        <time>2010-05-15T11:58:41Z</time>
      </trkpt>
      <trkpt lat="48.59682" lon="1.84738">
        <ele>169</ele>
        <time>2010-05-15T11:58:42Z</time>
      </trkpt>
      <trkpt lat="48.59684" lon="1.8474">
        <ele>169</ele>
        <time>2010-05-15T11:58:44Z</time>
      </trkpt>
      <trkpt lat="48.59685" lon="1.84743">
        <ele>169</ele>
        <time>2010-05-15T11:58:44Z</time>
      </trkpt>
      <trkpt lat="48.59686" lon="1.84745">
        <ele>169</ele>
        <time>2010-05-15T11:58:46Z</time>
      </trkpt>
      <trkpt lat="48.59687" lon="1.84746">
        <ele>169</ele>
        <time>2010-05-15T11:58:46Z</time>
      </trkpt>
      <trkpt lat="48.59688" lon="1.84747">
        <ele>169</ele>
        <time>2010-05-15T11:58:47Z</time>
      </trkpt>
      <trkpt lat="48.59689" lon="1.84749">
        <ele>169</ele>
        <time>2010-05-15T11:58:49Z</time>
      </trkpt>
      <trkpt lat="48.59691" lon="1.84751">
        <ele>169</ele>
        <time>2010-05-15T11:58:49Z</time>
      </trkpt>
      <trkpt lat="48.59692" lon="1.84753">
        <ele>169</ele>
        <time>2010-05-15T11:58:50Z</time>
      </trkpt>
      <trkpt lat="48.59693" lon="1.84754">
        <ele>169</ele>
        <time>2010-05-15T11:58:51Z</time>
      </trkpt>
      <trkpt lat="48.59694" lon="1.84756">
        <ele>169</ele>
        <time>2010-05-15T11:58:52Z</time>
      </trkpt>
      <trkpt lat="48.59695" lon="1.84758">
        <ele>169</ele>
        <time>2010-05-15T11:58:54Z</time>
      </trkpt>
      <trkpt lat="48.59697" lon="1.8476">
        <ele>169</ele>
        <time>2010-05-15T11:58:54Z</time>
      </trkpt>
      <trkpt lat="48.59698" lon="1.84761">
        <ele>169</ele>
        <time>2010-05-15T11:58:55Z</time>
      </trkpt>
      <trkpt lat="48.59699" lon="1.84763">
        <ele>169</ele>
        <time>2010-05-15T11:58:56Z</time>
      </trkpt>
      <trkpt lat="48.59701" lon="1.84765">
        <ele>169</ele>
        <time>2010-05-15T11:58:58Z</time>
      </trkpt>
      <trkpt lat="48.59702" lon="1.84767">
        <ele>169</ele>
        <time>2010-05-15T11:58:59Z</time>
      </trkpt>
      <trkpt lat="48.59703" lon="1.84769">
        <ele>169</ele>
        <time>2010-05-15T11:59:00Z</time>
      </trkpt>
      <trkpt lat="48.59704" lon="1.84771">
        <ele>169</ele>
        <time>2010-05-15T11:59:01Z</time>
      </trkpt>
      <trkpt lat="48.59706" lon="1.84772">
        <ele>169</ele>
        <time>2010-05-15T11:59:02Z</time>
      </trkpt>
      <trkpt lat="48.59708" lon="1.84775">
        <ele>169</ele>
        <time>2010-05-15T11:59:05Z</time>
      </trkpt>
      <trkpt lat="48.59709" lon="1.84778">
        <ele>169</ele>
        <time>2010-05-15T11:59:05Z</time>
      </trkpt>
      <trkpt lat="48.5971" lon="1.8478">
        <ele>169</ele>
        <time>2010-05-15T11:59:06Z</time>
      </trkpt>
      <trkpt lat="48.59711" lon="1.84781">
        <ele>169</ele>
        <time>2010-05-15T11:59:07Z</time>
      </trkpt>
      <trkpt lat="48.59712" lon="1.84783">
        <ele>169</ele>
        <time>2010-05-15T11:59:08Z</time>
      </trkpt>
      <trkpt lat="48.59713" lon="1.84785">
        <ele>169</ele>
        <time>2010-05-15T11:59:10Z</time>
      </trkpt>
      <trkpt lat="48.59715" lon="1.84786">
        <ele>169</ele>
        <time>2010-05-15T11:59:10Z</time>
      </trkpt>
      <trkpt lat="48.59715" lon="1.84788">
        <ele>170</ele>
        <time>2010-05-15T11:59:11Z</time>
      </trkpt>
      <trkpt lat="48.59717" lon="1.8479">
        <ele>170</ele>
        <time>2010-05-15T11:59:12Z</time>
      </trkpt>
      <trkpt lat="48.59718" lon="1.84791">
        <ele>170</ele>
        <time>2010-05-15T11:59:13Z</time>
      </trkpt>
      <trkpt lat="48.59719" lon="1.84794">
        <ele>170</ele>
        <time>2010-05-15T11:59:16Z</time>
      </trkpt>
      <trkpt lat="48.5972" lon="1.84796">
        <ele>170</ele>
        <time>2010-05-15T11:59:16Z</time>
      </trkpt>
      <trkpt lat="48.59724" lon="1.848">
        <ele>171</ele>
        <time>2010-05-15T11:59:18Z</time>
      </trkpt>
      <trkpt lat="48.59726" lon="1.84804">
        <ele>171</ele>
        <time>2010-05-15T11:59:19Z</time>
      </trkpt>
      <trkpt lat="48.59727" lon="1.84805">
        <ele>171</ele>
        <time>2010-05-15T11:59:21Z</time>
      </trkpt>
      <trkpt lat="48.59728" lon="1.84807">
        <ele>171</ele>
        <time>2010-05-15T11:59:21Z</time>
      </trkpt>
      <trkpt lat="48.59729" lon="1.84808">
        <ele>171</ele>
        <time>2010-05-15T11:59:22Z</time>
      </trkpt>
      <trkpt lat="48.5973" lon="1.84811">
        <ele>171</ele>
        <time>2010-05-15T11:59:23Z</time>
      </trkpt>
      <trkpt lat="48.59731" lon="1.84812">
        <ele>171</ele>
        <time>2010-05-15T11:59:24Z</time>
      </trkpt>
      <trkpt lat="48.59732" lon="1.84815">
        <ele>171</ele>
        <time>2010-05-15T11:59:26Z</time>
      </trkpt>
      <trkpt lat="48.59733" lon="1.84817">
        <ele>171</ele>
        <time>2010-05-15T11:59:26Z</time>
      </trkpt>
      <trkpt lat="48.59735" lon="1.8482">
        <ele>171</ele>
        <time>2010-05-15T11:59:27Z</time>
      </trkpt>
      <trkpt lat="48.59736" lon="1.84823">
        <ele>171</ele>
        <time>2010-05-15T11:59:28Z</time>
      </trkpt>
      <trkpt lat="48.59737" lon="1.84825">
        <ele>171</ele>
        <time>2010-05-15T11:59:29Z</time>
      </trkpt>
      <trkpt lat="48.5974" lon="1.84828">
        <ele>171</ele>
        <time>2010-05-15T11:59:31Z</time>
      </trkpt>
      <trkpt lat="48.59741" lon="1.84829">
        <ele>171</ele>
        <time>2010-05-15T11:59:32Z</time>
      </trkpt>
      <trkpt lat="48.59742" lon="1.84831">
        <ele>171</ele>
        <time>2010-05-15T11:59:33Z</time>
      </trkpt>
      <trkpt lat="48.59744" lon="1.84833">
        <ele>171</ele>
        <time>2010-05-15T11:59:35Z</time>
      </trkpt>
      <trkpt lat="48.59746" lon="1.84835">
        <ele>171</ele>
        <time>2010-05-15T11:59:38Z</time>
      </trkpt>
      <trkpt lat="48.59747" lon="1.84837">
        <ele>171</ele>
        <time>2010-05-15T11:59:38Z</time>
      </trkpt>
      <trkpt lat="48.59748" lon="1.8484">
        <ele>171</ele>
        <time>2010-05-15T11:59:39Z</time>
      </trkpt>
      <trkpt lat="48.59749" lon="1.84842">
        <ele>171</ele>
        <time>2010-05-15T11:59:40Z</time>
      </trkpt>
      <trkpt lat="48.59751" lon="1.84845">
        <ele>171</ele>
        <time>2010-05-15T11:59:42Z</time>
      </trkpt>
      <trkpt lat="48.59752" lon="1.84847">
        <ele>171</ele>
        <time>2010-05-15T11:59:43Z</time>
      </trkpt>
      <trkpt lat="48.59753" lon="1.84849">
        <ele>171</ele>
        <time>2010-05-15T11:59:44Z</time>
      </trkpt>
      <trkpt lat="48.59755" lon="1.84852">
        <ele>171</ele>
        <time>2010-05-15T11:59:46Z</time>
      </trkpt>
      <trkpt lat="48.59755" lon="1.84853">
        <ele>171</ele>
        <time>2010-05-15T11:59:46Z</time>
      </trkpt>
      <trkpt lat="48.59756" lon="1.84855">
        <ele>171</ele>
        <time>2010-05-15T11:59:48Z</time>
      </trkpt>
      <trkpt lat="48.59756" lon="1.84857">
        <ele>171</ele>
        <time>2010-05-15T11:59:48Z</time>
      </trkpt>
      <trkpt lat="48.59757" lon="1.84859">
        <ele>171</ele>
        <time>2010-05-15T11:59:49Z</time>
      </trkpt>
      <trkpt lat="48.59757" lon="1.84861">
        <ele>171</ele>
        <time>2010-05-15T11:59:50Z</time>
      </trkpt>
      <trkpt lat="48.59756" lon="1.84864">
        <ele>171</ele>
        <time>2010-05-15T11:59:51Z</time>
      </trkpt>
      <trkpt lat="48.59755" lon="1.84865">
        <ele>171</ele>
        <time>2010-05-15T11:59:53Z</time>
      </trkpt>
      <trkpt lat="48.59755" lon="1.84868">
        <ele>171</ele>
        <time>2010-05-15T11:59:53Z</time>
      </trkpt>
      <trkpt lat="48.59754" lon="1.8487">
        <ele>171</ele>
        <time>2010-05-15T11:59:54Z</time>
      </trkpt>
      <trkpt lat="48.59752" lon="1.84872">
        <ele>171</ele>
        <time>2010-05-15T11:59:55Z</time>
      </trkpt>
      <trkpt lat="48.59751" lon="1.84874">
        <ele>171</ele>
        <time>2010-05-15T11:59:56Z</time>
      </trkpt>
      <trkpt lat="48.5975" lon="1.84876">
        <ele>171</ele>
        <time>2010-05-15T11:59:58Z</time>
      </trkpt>
      <trkpt lat="48.59749" lon="1.84877">
        <ele>171</ele>
        <time>2010-05-15T11:59:58Z</time>
      </trkpt>
      <trkpt lat="48.59748" lon="1.84879">
        <ele>171</ele>
        <time>2010-05-15T11:59:59Z</time>
      </trkpt>
      <trkpt lat="48.59747" lon="1.84881">
        <ele>171</ele>
        <time>2010-05-15T12:00:00Z</time>
      </trkpt>
      <trkpt lat="48.59745" lon="1.84882">
        <ele>171</ele>
        <time>2010-05-15T12:00:01Z</time>
      </trkpt>
      <trkpt lat="48.59744" lon="1.84883">
        <ele>171</ele>
        <time>2010-05-15T12:00:02Z</time>
      </trkpt>
      <trkpt lat="48.59743" lon="1.84885">
        <ele>171</ele>
        <time>2010-05-15T12:00:03Z</time>
      </trkpt>
      <trkpt lat="48.59741" lon="1.84888">
        <ele>171</ele>
        <time>2010-05-15T12:00:05Z</time>
      </trkpt>
      <trkpt lat="48.5974" lon="1.84889">
        <ele>171</ele>
        <time>2010-05-15T12:00:06Z</time>
      </trkpt>
      <trkpt lat="48.59738" lon="1.84891">
        <ele>171</ele>
        <time>2010-05-15T12:00:07Z</time>
      </trkpt>
      <trkpt lat="48.59737" lon="1.84892">
        <ele>172</ele>
        <time>2010-05-15T12:00:08Z</time>
      </trkpt>
      <trkpt lat="48.59736" lon="1.84894">
        <ele>172</ele>
        <time>2010-05-15T12:00:09Z</time>
      </trkpt>
      <trkpt lat="48.59734" lon="1.84896">
        <ele>172</ele>
        <time>2010-05-15T12:00:10Z</time>
      </trkpt>
      <trkpt lat="48.59733" lon="1.84897">
        <ele>173</ele>
        <time>2010-05-15T12:00:11Z</time>
      </trkpt>
      <trkpt lat="48.59732" lon="1.84899">
        <ele>173</ele>
        <time>2010-05-15T12:00:12Z</time>
      </trkpt>
      <trkpt lat="48.59731" lon="1.84901">
        <ele>173</ele>
        <time>2010-05-15T12:00:13Z</time>
      </trkpt>
      <trkpt lat="48.59729" lon="1.84902">
        <ele>174</ele>
        <time>2010-05-15T12:00:14Z</time>
      </trkpt>
      <trkpt lat="48.59728" lon="1.84904">
        <ele>174</ele>
        <time>2010-05-15T12:00:15Z</time>
      </trkpt>
      <trkpt lat="48.59727" lon="1.84906">
        <ele>174</ele>
        <time>2010-05-15T12:00:16Z</time>
      </trkpt>
      <trkpt lat="48.59725" lon="1.84907">
        <ele>174</ele>
        <time>2010-05-15T12:00:18Z</time>
      </trkpt>
      <trkpt lat="48.59724" lon="1.84909">
        <ele>175</ele>
        <time>2010-05-15T12:00:18Z</time>
      </trkpt>
      <trkpt lat="48.59723" lon="1.84911">
        <ele>175</ele>
        <time>2010-05-15T12:00:19Z</time>
      </trkpt>
      <trkpt lat="48.59722" lon="1.84913">
        <ele>175</ele>
        <time>2010-05-15T12:00:20Z</time>
      </trkpt>
      <trkpt lat="48.59721" lon="1.84915">
        <ele>175</ele>
        <time>2010-05-15T12:00:21Z</time>
      </trkpt>
      <trkpt lat="48.59719" lon="1.84917">
        <ele>175</ele>
        <time>2010-05-15T12:00:22Z</time>
      </trkpt>
      <trkpt lat="48.59718" lon="1.84919">
        <ele>175</ele>
        <time>2010-05-15T12:00:23Z</time>
      </trkpt>
      <trkpt lat="48.59717" lon="1.8492">
        <ele>175</ele>
        <time>2010-05-15T12:00:24Z</time>
      </trkpt>
      <trkpt lat="48.59715" lon="1.84922">
        <ele>175</ele>
        <time>2010-05-15T12:00:25Z</time>
      </trkpt>
      <trkpt lat="48.59714" lon="1.84923">
        <ele>176</ele>
        <time>2010-05-15T12:00:26Z</time>
      </trkpt>
      <trkpt lat="48.59713" lon="1.84924">
        <ele>176</ele>
        <time>2010-05-15T12:00:28Z</time>
      </trkpt>
      <trkpt lat="48.59712" lon="1.84926">
        <ele>176</ele>
        <time>2010-05-15T12:00:28Z</time>
      </trkpt>
      <trkpt lat="48.59711" lon="1.84928">
        <ele>176</ele>
        <time>2010-05-15T12:00:29Z</time>
      </trkpt>
      <trkpt lat="48.5971" lon="1.8493">
        <ele>177</ele>
        <time>2010-05-15T12:00:30Z</time>
      </trkpt>
      <trkpt lat="48.59708" lon="1.84931">
        <ele>177</ele>
        <time>2010-05-15T12:00:31Z</time>
      </trkpt>
      <trkpt lat="48.59707" lon="1.84934">
        <ele>177</ele>
        <time>2010-05-15T12:00:32Z</time>
      </trkpt>
      <trkpt lat="48.59706" lon="1.84935">
        <ele>177</ele>
        <time>2010-05-15T12:00:33Z</time>
      </trkpt>
      <trkpt lat="48.59705" lon="1.84937">
        <ele>177</ele>
        <time>2010-05-15T12:00:34Z</time>
      </trkpt>
      <trkpt lat="48.59704" lon="1.84939">
        <ele>177</ele>
        <time>2010-05-15T12:00:35Z</time>
      </trkpt>
      <trkpt lat="48.59703" lon="1.8494">
        <ele>177</ele>
        <time>2010-05-15T12:00:36Z</time>
      </trkpt>
      <trkpt lat="48.59701" lon="1.84942">
        <ele>177</ele>
        <time>2010-05-15T12:00:37Z</time>
      </trkpt>
      <trkpt lat="48.597" lon="1.84943">
        <ele>177</ele>
        <time>2010-05-15T12:00:38Z</time>
      </trkpt>
      <trkpt lat="48.59699" lon="1.84945">
        <ele>177</ele>
        <time>2010-05-15T12:00:39Z</time>
      </trkpt>
      <trkpt lat="48.59698" lon="1.84948">
        <ele>177</ele>
        <time>2010-05-15T12:00:40Z</time>
      </trkpt>
      <trkpt lat="48.59696" lon="1.84951">
        <ele>177</ele>
        <time>2010-05-15T12:00:41Z</time>
      </trkpt>
      <trkpt lat="48.59694" lon="1.84956">
        <ele>177</ele>
        <time>2010-05-15T12:00:42Z</time>
      </trkpt>
      <trkpt lat="48.59692" lon="1.84961">
        <ele>177</ele>
        <time>2010-05-15T12:00:43Z</time>
      </trkpt>
      <trkpt lat="48.59689" lon="1.84966">
        <ele>177</ele>
        <time>2010-05-15T12:00:44Z</time>
      </trkpt>
      <trkpt lat="48.59686" lon="1.84971">
        <ele>177</ele>
        <time>2010-05-15T12:00:45Z</time>
      </trkpt>
      <trkpt lat="48.59682" lon="1.84977">
        <ele>177</ele>
        <time>2010-05-15T12:00:46Z</time>
      </trkpt>
      <trkpt lat="48.59679" lon="1.84983">
        <ele>177</ele>
        <time>2010-05-15T12:00:47Z</time>
      </trkpt>
      <trkpt lat="48.59675" lon="1.8499">
        <ele>177</ele>
        <time>2010-05-15T12:00:48Z</time>
      </trkpt>
      <trkpt lat="48.59671" lon="1.84995">
        <ele>177</ele>
        <time>2010-05-15T12:00:49Z</time>
      </trkpt>
      <trkpt lat="48.59667" lon="1.85001">
        <ele>177</ele>
        <time>2010-05-15T12:00:50Z</time>
      </trkpt>
      <trkpt lat="48.59663" lon="1.85008">
        <ele>177</ele>
        <time>2010-05-15T12:00:51Z</time>
      </trkpt>
      <trkpt lat="48.59659" lon="1.85015">
        <ele>177</ele>
        <time>2010-05-15T12:00:53Z</time>
      </trkpt>
      <trkpt lat="48.59655" lon="1.85022">
        <ele>177</ele>
        <time>2010-05-15T12:00:53Z</time>
      </trkpt>
      <trkpt lat="48.59651" lon="1.85029">
        <ele>177</ele>
        <time>2010-05-15T12:00:54Z</time>
      </trkpt>
      <trkpt lat="48.59646" lon="1.85037">
        <ele>177</ele>
        <time>2010-05-15T12:00:55Z</time>
      </trkpt>
      <trkpt lat="48.59641" lon="1.85044">
        <ele>177</ele>
        <time>2010-05-15T12:00:56Z</time>
      </trkpt>
      <trkpt lat="48.59637" lon="1.85052">
        <ele>177</ele>
        <time>2010-05-15T12:00:58Z</time>
      </trkpt>
      <trkpt lat="48.59632" lon="1.8506">
        <ele>177</ele>
        <time>2010-05-15T12:00:58Z</time>
      </trkpt>
      <trkpt lat="48.59627" lon="1.85068">
        <ele>177</ele>
        <time>2010-05-15T12:00:59Z</time>
      </trkpt>
      <trkpt lat="48.59622" lon="1.85077">
        <ele>177</ele>
        <time>2010-05-15T12:01:00Z</time>
      </trkpt>
      <trkpt lat="48.59617" lon="1.85085">
        <ele>177</ele>
        <time>2010-05-15T12:01:01Z</time>
      </trkpt>
      <trkpt lat="48.59611" lon="1.85093">
        <ele>177</ele>
        <time>2010-05-15T12:01:02Z</time>
      </trkpt>
      <trkpt lat="48.59606" lon="1.85101">
        <ele>177</ele>
        <time>2010-05-15T12:01:04Z</time>
      </trkpt>
      <trkpt lat="48.59601" lon="1.85109">
        <ele>177</ele>
        <time>2010-05-15T12:01:04Z</time>
      </trkpt>
      <trkpt lat="48.59595" lon="1.85118">
        <ele>177</ele>
        <time>2010-05-15T12:01:05Z</time>
      </trkpt>
      <trkpt lat="48.5959" lon="1.85127">
        <ele>177</ele>
        <time>2010-05-15T12:01:06Z</time>
      </trkpt>
      <trkpt lat="48.59584" lon="1.85136">
        <ele>177</ele>
        <time>2010-05-15T12:01:07Z</time>
      </trkpt>
      <trkpt lat="48.59578" lon="1.85145">
        <ele>177</ele>
        <time>2010-05-15T12:01:09Z</time>
      </trkpt>
      <trkpt lat="48.59573" lon="1.85154">
        <ele>177</ele>
        <time>2010-05-15T12:01:10Z</time>
      </trkpt>
      <trkpt lat="48.59568" lon="1.85163">
        <ele>177</ele>
        <time>2010-05-15T12:01:10Z</time>
      </trkpt>
      <trkpt lat="48.59562" lon="1.85171">
        <ele>177</ele>
        <time>2010-05-15T12:01:11Z</time>
      </trkpt>
      <trkpt lat="48.59556" lon="1.8518">
        <ele>177</ele>
        <time>2010-05-15T12:01:12Z</time>
      </trkpt>
      <trkpt lat="48.59551" lon="1.85188">
        <ele>177</ele>
        <time>2010-05-15T12:01:14Z</time>
      </trkpt>
      <trkpt lat="48.59545" lon="1.85197">
        <ele>177</ele>
        <time>2010-05-15T12:01:14Z</time>
      </trkpt>
      <trkpt lat="48.59539" lon="1.85205">
        <ele>177</ele>
        <time>2010-05-15T12:01:15Z</time>
      </trkpt>
      <trkpt lat="48.59533" lon="1.85214">
        <ele>177</ele>
        <time>2010-05-15T12:01:16Z</time>
      </trkpt>
      <trkpt lat="48.59528" lon="1.85223">
        <ele>177</ele>
        <time>2010-05-15T12:01:17Z</time>
      </trkpt>
      <trkpt lat="48.59522" lon="1.85232">
        <ele>177</ele>
        <time>2010-05-15T12:01:18Z</time>
      </trkpt>
      <trkpt lat="48.59516" lon="1.85241">
        <ele>177</ele>
        <time>2010-05-15T12:01:19Z</time>
      </trkpt>
      <trkpt lat="48.59509" lon="1.85251">
        <ele>177</ele>
        <time>2010-05-15T12:01:20Z</time>
      </trkpt>
      <trkpt lat="48.59502" lon="1.85262">
        <ele>177</ele>
        <time>2010-05-15T12:01:21Z</time>
      </trkpt>
      <trkpt lat="48.59495" lon="1.85273">
        <ele>177</ele>
        <time>2010-05-15T12:01:22Z</time>
      </trkpt>
      <trkpt lat="48.59487" lon="1.85285">
        <ele>177</ele>
        <time>2010-05-15T12:01:23Z</time>
      </trkpt>
      <trkpt lat="48.59478" lon="1.85297">
        <ele>177</ele>
        <time>2010-05-15T12:01:24Z</time>
      </trkpt>
      <trkpt lat="48.5947" lon="1.85311">
        <ele>177</ele>
        <time>2010-05-15T12:01:25Z</time>
      </trkpt>
      <trkpt lat="48.59461" lon="1.85325">
        <ele>177</ele>
        <time>2010-05-15T12:01:26Z</time>
      </trkpt>
      <trkpt lat="48.59453" lon="1.85338">
        <ele>177</ele>
        <time>2010-05-15T12:01:27Z</time>
      </trkpt>
      <trkpt lat="48.59444" lon="1.85351">
        <ele>177</ele>
        <time>2010-05-15T12:01:28Z</time>
      </trkpt>
      <trkpt lat="48.59436" lon="1.85364">
        <ele>177</ele>
        <time>2010-05-15T12:01:29Z</time>
      </trkpt>
      <trkpt lat="48.59427" lon="1.85378">
        <ele>177</ele>
        <time>2010-05-15T12:01:30Z</time>
      </trkpt>
      <trkpt lat="48.59419" lon="1.85391">
        <ele>177</ele>
        <time>2010-05-15T12:01:31Z</time>
      </trkpt>
      <trkpt lat="48.5941" lon="1.85404">
        <ele>177</ele>
        <time>2010-05-15T12:01:32Z</time>
      </trkpt>
      <trkpt lat="48.59402" lon="1.85417">
        <ele>177</ele>
        <time>2010-05-15T12:01:33Z</time>
      </trkpt>
      <trkpt lat="48.59394" lon="1.85429">
        <ele>177</ele>
        <time>2010-05-15T12:01:34Z</time>
      </trkpt>
      <trkpt lat="48.59386" lon="1.85441">
        <ele>177</ele>
        <time>2010-05-15T12:01:35Z</time>
      </trkpt>
      <trkpt lat="48.59378" lon="1.85452">
        <ele>177</ele>
        <time>2010-05-15T12:01:36Z</time>
      </trkpt>
      <trkpt lat="48.5937" lon="1.85463">
        <ele>177</ele>
        <time>2010-05-15T12:01:37Z</time>
      </trkpt>
      <trkpt lat="48.59363" lon="1.85475">
        <ele>177</ele>
        <time>2010-05-15T12:01:38Z</time>
      </trkpt>
      <trkpt lat="48.59355" lon="1.85487">
        <ele>177</ele>
        <time>2010-05-15T12:01:39Z</time>
      </trkpt>
      <trkpt lat="48.59347" lon="1.85499">
        <ele>177</ele>
        <time>2010-05-15T12:01:40Z</time>
      </trkpt>
      <trkpt lat="48.59338" lon="1.85511">
        <ele>177</ele>
        <time>2010-05-15T12:01:41Z</time>
      </trkpt>
      <trkpt lat="48.59329" lon="1.85525">
        <ele>177</ele>
        <time>2010-05-15T12:01:42Z</time>
      </trkpt>
      <trkpt lat="48.5932" lon="1.85538">
        <ele>177</ele>
        <time>2010-05-15T12:01:43Z</time>
      </trkpt>
      <trkpt lat="48.59311" lon="1.85553">
        <ele>177</ele>
        <time>2010-05-15T12:01:44Z</time>
      </trkpt>
      <trkpt lat="48.59302" lon="1.85567">
        <ele>176</ele>
        <time>2010-05-15T12:01:45Z</time>
      </trkpt>
      <trkpt lat="48.59293" lon="1.85581">
        <ele>176</ele>
        <time>2010-05-15T12:01:46Z</time>
      </trkpt>
      <trkpt lat="48.59283" lon="1.85595">
        <ele>176</ele>
        <time>2010-05-15T12:01:47Z</time>
      </trkpt>
      <trkpt lat="48.59274" lon="1.85609">
        <ele>175</ele>
        <time>2010-05-15T12:01:48Z</time>
      </trkpt>
      <trkpt lat="48.59265" lon="1.85623">
        <ele>175</ele>
        <time>2010-05-15T12:01:49Z</time>
      </trkpt>
      <trkpt lat="48.59256" lon="1.85637">
        <ele>175</ele>
        <time>2010-05-15T12:01:50Z</time>
      </trkpt>
      <trkpt lat="48.59247" lon="1.85651">
        <ele>175</ele>
        <time>2010-05-15T12:01:51Z</time>
      </trkpt>
      <trkpt lat="48.59239" lon="1.85664">
        <ele>175</ele>
        <time>2010-05-15T12:01:52Z</time>
      </trkpt>
      <trkpt lat="48.5923" lon="1.85676">
        <ele>175</ele>
        <time>2010-05-15T12:01:53Z</time>
      </trkpt>
      <trkpt lat="48.59222" lon="1.85689">
        <ele>175</ele>
        <time>2010-05-15T12:01:54Z</time>
      </trkpt>
      <trkpt lat="48.59215" lon="1.85701">
        <ele>175</ele>
        <time>2010-05-15T12:01:55Z</time>
      </trkpt>
      <trkpt lat="48.59207" lon="1.85712">
        <ele>175</ele>
        <time>2010-05-15T12:01:56Z</time>
      </trkpt>
      <trkpt lat="48.592" lon="1.85724">
        <ele>175</ele>
        <time>2010-05-15T12:01:57Z</time>
      </trkpt>
      <trkpt lat="48.59192" lon="1.85734">
        <ele>175</ele>
        <time>2010-05-15T12:01:58Z</time>
      </trkpt>
      <trkpt lat="48.59185" lon="1.85744">
        <ele>175</ele>
        <time>2010-05-15T12:01:59Z</time>
      </trkpt>
      <trkpt lat="48.59179" lon="1.85754">
        <ele>175</ele>
        <time>2010-05-15T12:02:00Z</time>
      </trkpt>
      <trkpt lat="48.59172" lon="1.85764">
        <ele>175</ele>
        <time>2010-05-15T12:02:01Z</time>
      </trkpt>
      <trkpt lat="48.59166" lon="1.85774">
        <ele>175</ele>
        <time>2010-05-15T12:02:02Z</time>
      </trkpt>
      <trkpt lat="48.59159" lon="1.85784">
        <ele>175</ele>
        <time>2010-05-15T12:02:03Z</time>
      </trkpt>
      <trkpt lat="48.59153" lon="1.85794">
        <ele>175</ele>
        <time>2010-05-15T12:02:04Z</time>
      </trkpt>
      <trkpt lat="48.59147" lon="1.85803">
        <ele>175</ele>
        <time>2010-05-15T12:02:05Z</time>
      </trkpt>
      <trkpt lat="48.5914" lon="1.85812">
        <ele>175</ele>
        <time>2010-05-15T12:02:06Z</time>
      </trkpt>
      <trkpt lat="48.59134" lon="1.85822">
        <ele>175</ele>
        <time>2010-05-15T12:02:07Z</time>
      </trkpt>
      <trkpt lat="48.59129" lon="1.85831">
        <ele>175</ele>
        <time>2010-05-15T12:02:08Z</time>
      </trkpt>
      <trkpt lat="48.59123" lon="1.8584">
        <ele>175</ele>
        <time>2010-05-15T12:02:09Z</time>
      </trkpt>
      <trkpt lat="48.59117" lon="1.85848">
        <ele>175</ele>
        <time>2010-05-15T12:02:10Z</time>
      </trkpt>
      <trkpt lat="48.59112" lon="1.85856">
        <ele>175</ele>
        <time>2010-05-15T12:02:11Z</time>
      </trkpt>
      <trkpt lat="48.59107" lon="1.85864">
        <ele>175</ele>
        <time>2010-05-15T12:02:12Z</time>
      </trkpt>
      <trkpt lat="48.59102" lon="1.85871">
        <ele>175</ele>
        <time>2010-05-15T12:02:13Z</time>
      </trkpt>
      <trkpt lat="48.59097" lon="1.85878">
        <ele>175</ele>
        <time>2010-05-15T12:02:14Z</time>
      </trkpt>
      <trkpt lat="48.59093" lon="1.85884">
        <ele>175</ele>
        <time>2010-05-15T12:02:15Z</time>
      </trkpt>
      <trkpt lat="48.59088" lon="1.85888">
        <ele>175</ele>
        <time>2010-05-15T12:02:16Z</time>
      </trkpt>
      <trkpt lat="48.59083" lon="1.85891">
        <ele>175</ele>
        <time>2010-05-15T12:02:17Z</time>
      </trkpt>
      <trkpt lat="48.59077" lon="1.85888">
        <ele>175</ele>
        <time>2010-05-15T12:02:18Z</time>
      </trkpt>
      <trkpt lat="48.5907" lon="1.85886">
        <ele>175</ele>
        <time>2010-05-15T12:02:19Z</time>
      </trkpt>
      <trkpt lat="48.59063" lon="1.85883">
        <ele>175</ele>
        <time>2010-05-15T12:02:20Z</time>
      </trkpt>
      <trkpt lat="48.59057" lon="1.85881">
        <ele>175</ele>
        <time>2010-05-15T12:02:21Z</time>
      </trkpt>
      <trkpt lat="48.5905" lon="1.85879">
        <ele>175</ele>
        <time>2010-05-15T12:02:22Z</time>
      </trkpt>
      <trkpt lat="48.59043" lon="1.85877">
        <ele>174</ele>
        <time>2010-05-15T12:02:23Z</time>
      </trkpt>
      <trkpt lat="48.59037" lon="1.85876">
        <ele>174</ele>
        <time>2010-05-15T12:02:24Z</time>
      </trkpt>
      <trkpt lat="48.59031" lon="1.85874">
        <ele>173</ele>
        <time>2010-05-15T12:02:25Z</time>
      </trkpt>
      <trkpt lat="48.59024" lon="1.85873">
        <ele>173</ele>
        <time>2010-05-15T12:02:26Z</time>
      </trkpt>
      <trkpt lat="48.59018" lon="1.85872">
        <ele>173</ele>
        <time>2010-05-15T12:02:27Z</time>
      </trkpt>
      <trkpt lat="48.5901" lon="1.8587">
        <ele>172</ele>
        <time>2010-05-15T12:02:28Z</time>
      </trkpt>
      <trkpt lat="48.59003" lon="1.85869">
        <ele>172</ele>
        <time>2010-05-15T12:02:29Z</time>
      </trkpt>
      <trkpt lat="48.58995" lon="1.85867">
        <ele>171</ele>
        <time>2010-05-15T12:02:30Z</time>
      </trkpt>
      <trkpt lat="48.58986" lon="1.85866">
        <ele>171</ele>
        <time>2010-05-15T12:02:31Z</time>
      </trkpt>
      <trkpt lat="48.58977" lon="1.85864">
        <ele>171</ele>
        <time>2010-05-15T12:02:32Z</time>
      </trkpt>
      <trkpt lat="48.58968" lon="1.85863">
        <ele>171</ele>
        <time>2010-05-15T12:02:33Z</time>
      </trkpt>
      <trkpt lat="48.58959" lon="1.85862">
        <ele>170</ele>
        <time>2010-05-15T12:02:34Z</time>
      </trkpt>
      <trkpt lat="48.5895" lon="1.85862">
        <ele>170</ele>
        <time>2010-05-15T12:02:35Z</time>
      </trkpt>
      <trkpt lat="48.58942" lon="1.85861">
        <ele>170</ele>
        <time>2010-05-15T12:02:36Z</time>
      </trkpt>
      <trkpt lat="48.58933" lon="1.85861">
        <ele>170</ele>
        <time>2010-05-15T12:02:37Z</time>
      </trkpt>
      <trkpt lat="48.58925" lon="1.85862">
        <ele>169</ele>
        <time>2010-05-15T12:02:38Z</time>
      </trkpt>
      <trkpt lat="48.58916" lon="1.85863">
        <ele>169</ele>
        <time>2010-05-15T12:02:39Z</time>
      </trkpt>
      <trkpt lat="48.58909" lon="1.85864">
        <ele>169</ele>
        <time>2010-05-15T12:02:40Z</time>
      </trkpt>
      <trkpt lat="48.58901" lon="1.85866">
        <ele>169</ele>
        <time>2010-05-15T12:02:41Z</time>
      </trkpt>
      <trkpt lat="48.58893" lon="1.85869">
        <ele>168</ele>
        <time>2010-05-15T12:02:42Z</time>
      </trkpt>
      <trkpt lat="48.58887" lon="1.85871">
        <ele>168</ele>
        <time>2010-05-15T12:02:43Z</time>
      </trkpt>
      <trkpt lat="48.5888" lon="1.85875">
        <ele>168</ele>
        <time>2010-05-15T12:02:44Z</time>
      </trkpt>
      <trkpt lat="48.58874" lon="1.85878">
        <ele>168</ele>
        <time>2010-05-15T12:02:45Z</time>
      </trkpt>
      <trkpt lat="48.58868" lon="1.85882">
        <ele>167</ele>
        <time>2010-05-15T12:02:46Z</time>
      </trkpt>
      <trkpt lat="48.58862" lon="1.85886">
        <ele>167</ele>
        <time>2010-05-15T12:02:47Z</time>
      </trkpt>
      <trkpt lat="48.58857" lon="1.85892">
        <ele>167</ele>
        <time>2010-05-15T12:02:48Z</time>
      </trkpt>
      <trkpt lat="48.58853" lon="1.85901">
        <ele>167</ele>
        <time>2010-05-15T12:02:49Z</time>
      </trkpt>
      <trkpt lat="48.5885" lon="1.8591">
        <ele>167</ele>
        <time>2010-05-15T12:02:50Z</time>
      </trkpt>
      <trkpt lat="48.58847" lon="1.8592">
        <ele>167</ele>
        <time>2010-05-15T12:02:51Z</time>
      </trkpt>
      <trkpt lat="48.58843" lon="1.8593">
        <ele>167</ele>
        <time>2010-05-15T12:02:52Z</time>
      </trkpt>
      <trkpt lat="48.5884" lon="1.8594">
        <ele>167</ele>
        <time>2010-05-15T12:02:53Z</time>
      </trkpt>
      <trkpt lat="48.58837" lon="1.85951">
        <ele>167</ele>
        <time>2010-05-15T12:02:54Z</time>
      </trkpt>
      <trkpt lat="48.58833" lon="1.85961">
        <ele>167</ele>
        <time>2010-05-15T12:02:55Z</time>
      </trkpt>
      <trkpt lat="48.5883" lon="1.85972">
        <ele>167</ele>
        <time>2010-05-15T12:02:56Z</time>
      </trkpt>
      <trkpt lat="48.58827" lon="1.85982">
        <ele>167</ele>
        <time>2010-05-15T12:02:57Z</time>
      </trkpt>
      <trkpt lat="48.58824" lon="1.85992">
        <ele>167</ele>
        <time>2010-05-15T12:02:58Z</time>
      </trkpt>
      <trkpt lat="48.58821" lon="1.86001">
        <ele>167</ele>
        <time>2010-05-15T12:02:59Z</time>
      </trkpt>
      <trkpt lat="48.58818" lon="1.86011">
        <ele>167</ele>
        <time>2010-05-15T12:03:00Z</time>
      </trkpt>
      <trkpt lat="48.58815" lon="1.8602">
        <ele>167</ele>
        <time>2010-05-15T12:03:01Z</time>
      </trkpt>
      <trkpt lat="48.58812" lon="1.86028">
        <ele>167</ele>
        <time>2010-05-15T12:03:02Z</time>
      </trkpt>
      <trkpt lat="48.5881" lon="1.86036">
        <ele>167</ele>
        <time>2010-05-15T12:03:03Z</time>
      </trkpt>
      <trkpt lat="48.58808" lon="1.86043">
        <ele>167</ele>
        <time>2010-05-15T12:03:04Z</time>
      </trkpt>
      <trkpt lat="48.58806" lon="1.8605">
        <ele>167</ele>
        <time>2010-05-15T12:03:05Z</time>
      </trkpt>
      <trkpt lat="48.58803" lon="1.86057">
        <ele>167</ele>
        <time>2010-05-15T12:03:06Z</time>
      </trkpt>
      <trkpt lat="48.58801" lon="1.86063">
        <ele>167</ele>
        <time>2010-05-15T12:03:07Z</time>
      </trkpt>
      <trkpt lat="48.58799" lon="1.86069">
        <ele>167</ele>
        <time>2010-05-15T12:03:08Z</time>
      </trkpt>
      <trkpt lat="48.58797" lon="1.86076">
        <ele>167</ele>
        <time>2010-05-15T12:03:09Z</time>
      </trkpt>
      <trkpt lat="48.58795" lon="1.86082">
        <ele>167</ele>
        <time>2010-05-15T12:03:10Z</time>
      </trkpt>
      <trkpt lat="48.58793" lon="1.86087">
        <ele>167</ele>
        <time>2010-05-15T12:03:11Z</time>
      </trkpt>
      <trkpt lat="48.58792" lon="1.86092">
        <ele>167</ele>
        <time>2010-05-15T12:03:12Z</time>
      </trkpt>
      <trkpt lat="48.5879" lon="1.86097">
        <ele>167</ele>
        <time>2010-05-15T12:03:13Z</time>
      </trkpt>
      <trkpt lat="48.58788" lon="1.86102">
        <ele>167</ele>
        <time>2010-05-15T12:03:14Z</time>
      </trkpt>
      <trkpt lat="48.58787" lon="1.86107">
        <ele>167</ele>
        <time>2010-05-15T12:03:15Z</time>
      </trkpt>
      <trkpt lat="48.58785" lon="1.86112">
        <ele>167</ele>
        <time>2010-05-15T12:03:16Z</time>
      </trkpt>
      <trkpt lat="48.58783" lon="1.86118">
        <ele>167</ele>
        <time>2010-05-15T12:03:17Z</time>
      </trkpt>
      <trkpt lat="48.58781" lon="1.86123">
        <ele>167</ele>
        <time>2010-05-15T12:03:18Z</time>
      </trkpt>
      <trkpt lat="48.58779" lon="1.86128">
        <ele>167</ele>
        <time>2010-05-15T12:03:19Z</time>
      </trkpt>
      <trkpt lat="48.58778" lon="1.86133">
        <ele>167</ele>
        <time>2010-05-15T12:03:20Z</time>
      </trkpt>
      <trkpt lat="48.58776" lon="1.86137">
        <ele>167</ele>
        <time>2010-05-15T12:03:21Z</time>
      </trkpt>
      <trkpt lat="48.58775" lon="1.86141">
        <ele>167</ele>
        <time>2010-05-15T12:03:22Z</time>
      </trkpt>
      <trkpt lat="48.58774" lon="1.86144">
        <ele>167</ele>
        <time>2010-05-15T12:03:23Z</time>
      </trkpt>
      <trkpt lat="48.58773" lon="1.86147">
        <ele>167</ele>
        <time>2010-05-15T12:03:24Z</time>
      </trkpt>
      <trkpt lat="48.58772" lon="1.86149">
        <ele>167</ele>
        <time>2010-05-15T12:03:25Z</time>
      </trkpt>
      <trkpt lat="48.58771" lon="1.86151">
        <ele>167</ele>
        <time>2010-05-15T12:03:27Z</time>
      </trkpt>
      <trkpt lat="48.5877" lon="1.86153">
        <ele>167</ele>
        <time>2010-05-15T12:03:28Z</time>
      </trkpt>
      <trkpt lat="48.58769" lon="1.86156">
        <ele>167</ele>
        <time>2010-05-15T12:03:30Z</time>
      </trkpt>
      <trkpt lat="48.58767" lon="1.86159">
        <ele>167</ele>
        <time>2010-05-15T12:03:32Z</time>
      </trkpt>
      <trkpt lat="48.58766" lon="1.86162">
        <ele>167</ele>
        <time>2010-05-15T12:03:33Z</time>
      </trkpt>
      <trkpt lat="48.58766" lon="1.86164">
        <ele>167</ele>
        <time>2010-05-15T12:03:34Z</time>
      </trkpt>
      <trkpt lat="48.58764" lon="1.86166">
        <ele>167</ele>
        <time>2010-05-15T12:03:36Z</time>
      </trkpt>
      <trkpt lat="48.58763" lon="1.86169">
        <ele>167</ele>
        <time>2010-05-15T12:03:38Z</time>
      </trkpt>
      <trkpt lat="48.58761" lon="1.86172">
        <ele>167</ele>
        <time>2010-05-15T12:03:40Z</time>
      </trkpt>
      <trkpt lat="48.5876" lon="1.86175">
        <ele>167</ele>
        <time>2010-05-15T12:03:42Z</time>
      </trkpt>
      <trkpt lat="48.58759" lon="1.86178">
        <ele>167</ele>
        <time>2010-05-15T12:03:44Z</time>
      </trkpt>
      <trkpt lat="48.58758" lon="1.8618">
        <ele>167</ele>
        <time>2010-05-15T12:03:45Z</time>
      </trkpt>
      <trkpt lat="48.58757" lon="1.86181">
        <ele>168</ele>
        <time>2010-05-15T12:03:46Z</time>
      </trkpt>
      <trkpt lat="48.58756" lon="1.86183">
        <ele>168</ele>
        <time>2010-05-15T12:03:47Z</time>
      </trkpt>
      <trkpt lat="48.58755" lon="1.86185">
        <ele>168</ele>
        <time>2010-05-15T12:03:48Z</time>
      </trkpt>
      <trkpt lat="48.58754" lon="1.86187">
        <ele>169</ele>
        <time>2010-05-15T12:03:49Z</time>
      </trkpt>
      <trkpt lat="48.58754" lon="1.86189">
        <ele>169</ele>
        <time>2010-05-15T12:03:50Z</time>
      </trkpt>
      <trkpt lat="48.58753" lon="1.86191">
        <ele>169</ele>
        <time>2010-05-15T12:03:51Z</time>
      </trkpt>
      <trkpt lat="48.58752" lon="1.86193">
        <ele>169</ele>
        <time>2010-05-15T12:03:52Z</time>
      </trkpt>
      <trkpt lat="48.5875" lon="1.86196">
        <ele>170</ele>
        <time>2010-05-15T12:03:54Z</time>
      </trkpt>
      <trkpt lat="48.5875" lon="1.86198">
        <ele>170</ele>
        <time>2010-05-15T12:03:55Z</time>
      </trkpt>
      <trkpt lat="48.58749" lon="1.862">
        <ele>171</ele>
        <time>2010-05-15T12:03:56Z</time>
      </trkpt>
      <trkpt lat="48.58749" lon="1.86202">
        <ele>171</ele>
        <time>2010-05-15T12:03:57Z</time>
      </trkpt>
      <trkpt lat="48.58748" lon="1.86205">
        <ele>171</ele>
        <time>2010-05-15T12:03:58Z</time>
      </trkpt>
      <trkpt lat="48.58747" lon="1.86207">
        <ele>171</ele>
        <time>2010-05-15T12:03:59Z</time>
      </trkpt>
      <trkpt lat="48.58746" lon="1.86209">
        <ele>171</ele>
        <time>2010-05-15T12:04:00Z</time>
      </trkpt>
      <trkpt lat="48.58745" lon="1.86211">
        <ele>171</ele>
        <time>2010-05-15T12:04:01Z</time>
      </trkpt>
      <trkpt lat="48.58745" lon="1.86213">
        <ele>171</ele>
        <time>2010-05-15T12:04:02Z</time>
      </trkpt>
      <trkpt lat="48.58745" lon="1.86214">
        <ele>171</ele>
        <time>2010-05-15T12:04:03Z</time>
      </trkpt>
      <trkpt lat="48.58744" lon="1.86216">
        <ele>172</ele>
        <time>2010-05-15T12:04:04Z</time>
      </trkpt>
      <trkpt lat="48.58744" lon="1.86219">
        <ele>172</ele>
        <time>2010-05-15T12:04:05Z</time>
      </trkpt>
      <trkpt lat="48.58743" lon="1.86222">
        <ele>172</ele>
        <time>2010-05-15T12:04:06Z</time>
      </trkpt>
      <trkpt lat="48.58742" lon="1.86224">
        <ele>172</ele>
        <time>2010-05-15T12:04:07Z</time>
      </trkpt>
      <trkpt lat="48.58741" lon="1.86227">
        <ele>172</ele>
        <time>2010-05-15T12:04:08Z</time>
      </trkpt>
      <trkpt lat="48.5874" lon="1.86229">
        <ele>172</ele>
        <time>2010-05-15T12:04:09Z</time>
      </trkpt>
      <trkpt lat="48.58739" lon="1.86232">
        <ele>172</ele>
        <time>2010-05-15T12:04:10Z</time>
      </trkpt>
      <trkpt lat="48.58739" lon="1.86235">
        <ele>172</ele>
        <time>2010-05-15T12:04:11Z</time>
      </trkpt>
      <trkpt lat="48.58738" lon="1.86238">
        <ele>172</ele>
        <time>2010-05-15T12:04:12Z</time>
      </trkpt>
      <trkpt lat="48.58737" lon="1.86241">
        <ele>172</ele>
        <time>2010-05-15T12:04:13Z</time>
      </trkpt>
      <trkpt lat="48.58736" lon="1.86244">
        <ele>172</ele>
        <time>2010-05-15T12:04:15Z</time>
      </trkpt>
      <trkpt lat="48.58734" lon="1.86247">
        <ele>172</ele>
        <time>2010-05-15T12:04:17Z</time>
      </trkpt>
      <trkpt lat="48.58734" lon="1.86249">
        <ele>172</ele>
        <time>2010-05-15T12:04:18Z</time>
      </trkpt>
      <trkpt lat="48.58733" lon="1.8625">
        <ele>172</ele>
        <time>2010-05-15T12:04:19Z</time>
      </trkpt>
      <trkpt lat="48.58732" lon="1.86254">
        <ele>172</ele>
        <time>2010-05-15T12:04:21Z</time>
      </trkpt>
      <trkpt lat="48.58732" lon="1.86257">
        <ele>172</ele>
        <time>2010-05-15T12:04:22Z</time>
      </trkpt>
      <trkpt lat="48.58731" lon="1.86259">
        <ele>172</ele>
        <time>2010-05-15T12:04:23Z</time>
      </trkpt>
      <trkpt lat="48.58731" lon="1.86261">
        <ele>172</ele>
        <time>2010-05-15T12:04:24Z</time>
      </trkpt>
      <trkpt lat="48.5873" lon="1.86263">
        <ele>172</ele>
        <time>2010-05-15T12:04:25Z</time>
      </trkpt>
      <trkpt lat="48.58729" lon="1.86266">
        <ele>172</ele>
        <time>2010-05-15T12:04:26Z</time>
      </trkpt>
      <trkpt lat="48.58729" lon="1.86269">
        <ele>172</ele>
        <time>2010-05-15T12:04:27Z</time>
      </trkpt>
      <trkpt lat="48.58729" lon="1.86272">
        <ele>172</ele>
        <time>2010-05-15T12:04:28Z</time>
      </trkpt>
      <trkpt lat="48.58728" lon="1.86275">
        <ele>172</ele>
        <time>2010-05-15T12:04:29Z</time>
      </trkpt>
      <trkpt lat="48.58727" lon="1.86277">
        <ele>172</ele>
        <time>2010-05-15T12:04:30Z</time>
      </trkpt>
      <trkpt lat="48.58726" lon="1.8628">
        <ele>172</ele>
        <time>2010-05-15T12:04:31Z</time>
      </trkpt>
      <trkpt lat="48.58726" lon="1.86282">
        <ele>172</ele>
        <time>2010-05-15T12:04:32Z</time>
      </trkpt>
      <trkpt lat="48.58725" lon="1.86284">
        <ele>172</ele>
        <time>2010-05-15T12:04:33Z</time>
      </trkpt>
      <trkpt lat="48.58724" lon="1.86286">
        <ele>172</ele>
        <time>2010-05-15T12:04:34Z</time>
      </trkpt>
      <trkpt lat="48.58723" lon="1.86289">
        <ele>172</ele>
        <time>2010-05-15T12:04:36Z</time>
      </trkpt>
      <trkpt lat="48.58723" lon="1.86291">
        <ele>172</ele>
        <time>2010-05-15T12:04:37Z</time>
      </trkpt>
      <trkpt lat="48.58722" lon="1.86292">
        <ele>172</ele>
        <time>2010-05-15T12:04:38Z</time>
      </trkpt>
      <trkpt lat="48.58721" lon="1.86294">
        <ele>172</ele>
        <time>2010-05-15T12:04:39Z</time>
      </trkpt>
      <trkpt lat="48.5872" lon="1.86296">
        <ele>172</ele>
        <time>2010-05-15T12:04:40Z</time>
      </trkpt>
      <trkpt lat="48.58719" lon="1.86299">
        <ele>173</ele>
        <time>2010-05-15T12:04:42Z</time>
      </trkpt>
      <trkpt lat="48.58719" lon="1.86301">
        <ele>173</ele>
        <time>2010-05-15T12:04:43Z</time>
      </trkpt>
      <trkpt lat="48.58718" lon="1.86303">
        <ele>173</ele>
        <time>2010-05-15T12:04:44Z</time>
      </trkpt>
      <trkpt lat="48.58718" lon="1.86305">
        <ele>174</ele>
        <time>2010-05-15T12:04:45Z</time>
      </trkpt>
      <trkpt lat="48.58717" lon="1.86307">
        <ele>174</ele>
        <time>2010-05-15T12:04:46Z</time>
      </trkpt>
      <trkpt lat="48.58716" lon="1.8631">
        <ele>174</ele>
        <time>2010-05-15T12:04:47Z</time>
      </trkpt>
      <trkpt lat="48.58715" lon="1.86312">
        <ele>174</ele>
        <time>2010-05-15T12:04:48Z</time>
      </trkpt>
      <trkpt lat="48.58715" lon="1.86314">
        <ele>174</ele>
        <time>2010-05-15T12:04:49Z</time>
      </trkpt>
      <trkpt lat="48.58714" lon="1.86316">
        <ele>174</ele>
        <time>2010-05-15T12:04:50Z</time>
      </trkpt>
      <trkpt lat="48.58713" lon="1.86318">
        <ele>174</ele>
        <time>2010-05-15T12:04:51Z</time>
      </trkpt>
      <trkpt lat="48.58712" lon="1.8632">
        <ele>174</ele>
        <time>2010-05-15T12:04:52Z</time>
      </trkpt>
      <trkpt lat="48.58712" lon="1.86322">
        <ele>174</ele>
        <time>2010-05-15T12:04:53Z</time>
      </trkpt>
      <trkpt lat="48.58711" lon="1.86324">
        <ele>174</ele>
        <time>2010-05-15T12:04:54Z</time>
      </trkpt>
      <trkpt lat="48.58711" lon="1.86326">
        <ele>174</ele>
        <time>2010-05-15T12:04:55Z</time>
      </trkpt>
      <trkpt lat="48.5871" lon="1.86328">
        <ele>174</ele>
        <time>2010-05-15T12:04:56Z</time>
      </trkpt>
      <trkpt lat="48.58709" lon="1.8633">
        <ele>174</ele>
        <time>2010-05-15T12:04:57Z</time>
      </trkpt>
      <trkpt lat="48.58709" lon="1.86332">
        <ele>174</ele>
        <time>2010-05-15T12:04:58Z</time>
      </trkpt>
      <trkpt lat="48.58708" lon="1.86335">
        <ele>175</ele>
        <time>2010-05-15T12:04:59Z</time>
      </trkpt>
      <trkpt lat="48.58707" lon="1.86338">
        <ele>175</ele>
        <time>2010-05-15T12:05:00Z</time>
      </trkpt>
      <trkpt lat="48.58707" lon="1.8634">
        <ele>175</ele>
        <time>2010-05-15T12:05:01Z</time>
      </trkpt>
      <trkpt lat="48.58706" lon="1.86342">
        <ele>175</ele>
        <time>2010-05-15T12:05:02Z</time>
      </trkpt>
      <trkpt lat="48.58705" lon="1.86344">
        <ele>175</ele>
        <time>2010-05-15T12:05:03Z</time>
      </trkpt>
      <trkpt lat="48.58704" lon="1.86346">
        <ele>175</ele>
        <time>2010-05-15T12:05:04Z</time>
      </trkpt>
      <trkpt lat="48.58704" lon="1.86348">
        <ele>175</ele>
        <time>2010-05-15T12:05:05Z</time>
      </trkpt>
      <trkpt lat="48.58702" lon="1.86351">
        <ele>176</ele>
        <time>2010-05-15T12:05:07Z</time>
      </trkpt>
      <trkpt lat="48.58701" lon="1.86353">
        <ele>176</ele>
        <time>2010-05-15T12:05:08Z</time>
      </trkpt>
      <trkpt lat="48.587" lon="1.86356">
        <ele>176</ele>
        <time>2010-05-15T12:05:09Z</time>
      </trkpt>
      <trkpt lat="48.58699" lon="1.86358">
        <ele>177</ele>
        <time>2010-05-15T12:05:10Z</time>
      </trkpt>
      <trkpt lat="48.58698" lon="1.86361">
        <ele>177</ele>
        <time>2010-05-15T12:05:11Z</time>
      </trkpt>
      <trkpt lat="48.58696" lon="1.86364">
        <ele>177</ele>
        <time>2010-05-15T12:05:12Z</time>
      </trkpt>
      <trkpt lat="48.58695" lon="1.86368">
        <ele>177</ele>
        <time>2010-05-15T12:05:13Z</time>
      </trkpt>
      <trkpt lat="48.58694" lon="1.86372">
        <ele>177</ele>
        <time>2010-05-15T12:05:14Z</time>
      </trkpt>
      <trkpt lat="48.58693" lon="1.86377">
        <ele>177</ele>
        <time>2010-05-15T12:05:15Z</time>
      </trkpt>
      <trkpt lat="48.58691" lon="1.86382">
        <ele>177</ele>
        <time>2010-05-15T12:05:16Z</time>
      </trkpt>
      <trkpt lat="48.5869" lon="1.86387">
        <ele>177</ele>
        <time>2010-05-15T12:05:17Z</time>
      </trkpt>
      <trkpt lat="48.58688" lon="1.86394">
        <ele>177</ele>
        <time>2010-05-15T12:05:18Z</time>
      </trkpt>
      <trkpt lat="48.58688" lon="1.86402">
        <ele>177</ele>
        <time>2010-05-15T12:05:19Z</time>
      </trkpt>
      <trkpt lat="48.58686" lon="1.86409">
        <ele>177</ele>
        <time>2010-05-15T12:05:20Z</time>
      </trkpt>
      <trkpt lat="48.58684" lon="1.86415">
        <ele>177</ele>
        <time>2010-05-15T12:05:21Z</time>
      </trkpt>
      <trkpt lat="48.58682" lon="1.86421">
        <ele>177</ele>
        <time>2010-05-15T12:05:22Z</time>
      </trkpt>
      <trkpt lat="48.5868" lon="1.86428">
        <ele>177</ele>
        <time>2010-05-15T12:05:23Z</time>
      </trkpt>
      <trkpt lat="48.58678" lon="1.86434">
        <ele>177</ele>
        <time>2010-05-15T12:05:24Z</time>
      </trkpt>
      <trkpt lat="48.58676" lon="1.86439">
        <ele>177</ele>
        <time>2010-05-15T12:05:25Z</time>
      </trkpt>
      <trkpt lat="48.58673" lon="1.86445">
        <ele>177</ele>
        <time>2010-05-15T12:05:26Z</time>
      </trkpt>
      <trkpt lat="48.58671" lon="1.8645">
        <ele>177</ele>
        <time>2010-05-15T12:05:27Z</time>
      </trkpt>
      <trkpt lat="48.58668" lon="1.86456">
        <ele>177</ele>
        <time>2010-05-15T12:05:28Z</time>
      </trkpt>
      <trkpt lat="48.58665" lon="1.86462">
        <ele>177</ele>
        <time>2010-05-15T12:05:29Z</time>
      </trkpt>
      <trkpt lat="48.58662" lon="1.86468">
        <ele>177</ele>
        <time>2010-05-15T12:05:30Z</time>
      </trkpt>
      <trkpt lat="48.58659" lon="1.86474">
        <ele>177</ele>
        <time>2010-05-15T12:05:31Z</time>
      </trkpt>
      <trkpt lat="48.58656" lon="1.8648">
        <ele>177</ele>
        <time>2010-05-15T12:05:32Z</time>
      </trkpt>
      <trkpt lat="48.58652" lon="1.86486">
        <ele>177</ele>
        <time>2010-05-15T12:05:33Z</time>
      </trkpt>
      <trkpt lat="48.58649" lon="1.86492">
        <ele>177</ele>
        <time>2010-05-15T12:05:34Z</time>
      </trkpt>
      <trkpt lat="48.58645" lon="1.86499">
        <ele>177</ele>
        <time>2010-05-15T12:05:35Z</time>
      </trkpt>
      <trkpt lat="48.58642" lon="1.86506">
        <ele>177</ele>
        <time>2010-05-15T12:05:36Z</time>
      </trkpt>
      <trkpt lat="48.58638" lon="1.86513">
        <ele>176</ele>
        <time>2010-05-15T12:05:37Z</time>
      </trkpt>
      <trkpt lat="48.58635" lon="1.86521">
        <ele>176</ele>
        <time>2010-05-15T12:05:38Z</time>
      </trkpt>
      <trkpt lat="48.58632" lon="1.8653">
        <ele>176</ele>
        <time>2010-05-15T12:05:39Z</time>
      </trkpt>
      <trkpt lat="48.58628" lon="1.86539">
        <ele>175</ele>
        <time>2010-05-15T12:05:40Z</time>
      </trkpt>
      <trkpt lat="48.58626" lon="1.86547">
        <ele>175</ele>
        <time>2010-05-15T12:05:41Z</time>
      </trkpt>
      <trkpt lat="48.58623" lon="1.86556">
        <ele>175</ele>
        <time>2010-05-15T12:05:42Z</time>
      </trkpt>
      <trkpt lat="48.5862" lon="1.86565">
        <ele>174</ele>
        <time>2010-05-15T12:05:43Z</time>
      </trkpt>
      <trkpt lat="48.58618" lon="1.86574">
        <ele>174</ele>
        <time>2010-05-15T12:05:44Z</time>
      </trkpt>
      <trkpt lat="48.58616" lon="1.86583">
        <ele>173</ele>
        <time>2010-05-15T12:05:45Z</time>
      </trkpt>
      <trkpt lat="48.58613" lon="1.86592">
        <ele>173</ele>
        <time>2010-05-15T12:05:46Z</time>
      </trkpt>
      <trkpt lat="48.58612" lon="1.86601">
        <ele>172</ele>
        <time>2010-05-15T12:05:47Z</time>
      </trkpt>
      <trkpt lat="48.5861" lon="1.8661">
        <ele>172</ele>
        <time>2010-05-15T12:05:48Z</time>
      </trkpt>
      <trkpt lat="48.58608" lon="1.86619">
        <ele>172</ele>
        <time>2010-05-15T12:05:49Z</time>
      </trkpt>
      <trkpt lat="48.58606" lon="1.86628">
        <ele>172</ele>
        <time>2010-05-15T12:05:50Z</time>
      </trkpt>
      <trkpt lat="48.58604" lon="1.86638">
        <ele>172</ele>
        <time>2010-05-15T12:05:51Z</time>
      </trkpt>
      <trkpt lat="48.58602" lon="1.86648">
        <ele>172</ele>
        <time>2010-05-15T12:05:52Z</time>
      </trkpt>
      <trkpt lat="48.586" lon="1.86657">
        <ele>171</ele>
        <time>2010-05-15T12:05:53Z</time>
      </trkpt>
      <trkpt lat="48.58598" lon="1.86667">
        <ele>171</ele>
        <time>2010-05-15T12:05:54Z</time>
      </trkpt>
      <trkpt lat="48.58597" lon="1.86677">
        <ele>171</ele>
        <time>2010-05-15T12:05:55Z</time>
      </trkpt>
      <trkpt lat="48.58595" lon="1.86687">
        <ele>170</ele>
        <time>2010-05-15T12:05:56Z</time>
      </trkpt>
      <trkpt lat="48.58593" lon="1.86695">
        <ele>170</ele>
        <time>2010-05-15T12:05:57Z</time>
      </trkpt>
      <trkpt lat="48.58592" lon="1.86704">
        <ele>170</ele>
        <time>2010-05-15T12:05:58Z</time>
      </trkpt>
      <trkpt lat="48.5859" lon="1.86713">
        <ele>170</ele>
        <time>2010-05-15T12:05:59Z</time>
      </trkpt>
      <trkpt lat="48.58588" lon="1.86722">
        <ele>170</ele>
        <time>2010-05-15T12:06:00Z</time>
      </trkpt>
      <trkpt lat="48.58587" lon="1.86731">
        <ele>170</ele>
        <time>2010-05-15T12:06:01Z</time>
      </trkpt>
      <trkpt lat="48.58586" lon="1.86739">
        <ele>169</ele>
        <time>2010-05-15T12:06:02Z</time>
      </trkpt>
      <trkpt lat="48.58584" lon="1.86748">
        <ele>169</ele>
        <time>2010-05-15T12:06:03Z</time>
      </trkpt>
      <trkpt lat="48.58583" lon="1.86756">
        <ele>169</ele>
        <time>2010-05-15T12:06:04Z</time>
      </trkpt>
      <trkpt lat="48.58582" lon="1.86765">
        <ele>169</ele>
        <time>2010-05-15T12:06:05Z</time>
      </trkpt>
      <trkpt lat="48.58581" lon="1.86773">
        <ele>169</ele>
        <time>2010-05-15T12:06:06Z</time>
      </trkpt>
      <trkpt lat="48.5858" lon="1.86781">
        <ele>169</ele>
        <time>2010-05-15T12:06:07Z</time>
      </trkpt>
      <trkpt lat="48.58578" lon="1.86789">
        <ele>169</ele>
        <time>2010-05-15T12:06:08Z</time>
      </trkpt>
      <trkpt lat="48.58577" lon="1.86797">
        <ele>169</ele>
        <time>2010-05-15T12:06:09Z</time>
      </trkpt>
      <trkpt lat="48.58576" lon="1.86805">
        <ele>169</ele>
        <time>2010-05-15T12:06:10Z</time>
      </trkpt>
      <trkpt lat="48.58575" lon="1.86814">
        <ele>169</ele>
        <time>2010-05-15T12:06:11Z</time>
      </trkpt>
      <trkpt lat="48.58574" lon="1.86822">
        <ele>169</ele>
        <time>2010-05-15T12:06:12Z</time>
      </trkpt>
      <trkpt lat="48.58573" lon="1.86831">
        <ele>169</ele>
        <time>2010-05-15T12:06:13Z</time>
      </trkpt>
      <trkpt lat="48.58572" lon="1.8684">
        <ele>169</ele>
        <time>2010-05-15T12:06:14Z</time>
      </trkpt>
      <trkpt lat="48.58572" lon="1.86849">
        <ele>169</ele>
        <time>2010-05-15T12:06:15Z</time>
      </trkpt>
      <trkpt lat="48.58571" lon="1.86857">
        <ele>169</ele>
        <time>2010-05-15T12:06:16Z</time>
      </trkpt>
      <trkpt lat="48.58571" lon="1.86866">
        <ele>169</ele>
        <time>2010-05-15T12:06:17Z</time>
      </trkpt>
      <trkpt lat="48.5857" lon="1.86875">
        <ele>168</ele>
        <time>2010-05-15T12:06:18Z</time>
      </trkpt>
      <trkpt lat="48.5857" lon="1.86885">
        <ele>168</ele>
        <time>2010-05-15T12:06:19Z</time>
      </trkpt>
      <trkpt lat="48.5857" lon="1.86893">
        <ele>168</ele>
        <time>2010-05-15T12:06:20Z</time>
      </trkpt>
      <trkpt lat="48.5857" lon="1.86901">
        <ele>167</ele>
        <time>2010-05-15T12:06:21Z</time>
      </trkpt>
      <trkpt lat="48.5857" lon="1.86908">
        <ele>167</ele>
        <time>2010-05-15T12:06:22Z</time>
      </trkpt>
      <trkpt lat="48.5857" lon="1.86914">
        <ele>166</ele>
        <time>2010-05-15T12:06:23Z</time>
      </trkpt>
      <trkpt lat="48.5857" lon="1.8692">
        <ele>166</ele>
        <time>2010-05-15T12:06:24Z</time>
      </trkpt>
      <trkpt lat="48.5857" lon="1.86925">
        <ele>166</ele>
        <time>2010-05-15T12:06:25Z</time>
      </trkpt>
      <trkpt lat="48.5857" lon="1.8693">
        <ele>165</ele>
        <time>2010-05-15T12:06:26Z</time>
      </trkpt>
      <trkpt lat="48.5857" lon="1.86935">
        <ele>165</ele>
        <time>2010-05-15T12:06:27Z</time>
      </trkpt>
      <trkpt lat="48.5857" lon="1.86939">
        <ele>165</ele>
        <time>2010-05-15T12:06:28Z</time>
      </trkpt>
      <trkpt lat="48.5857" lon="1.86943">
        <ele>164</ele>
        <time>2010-05-15T12:06:29Z</time>
      </trkpt>
      <trkpt lat="48.5857" lon="1.86947">
        <ele>164</ele>
        <time>2010-05-15T12:06:30Z</time>
      </trkpt>
      <trkpt lat="48.58571" lon="1.86951">
        <ele>164</ele>
        <time>2010-05-15T12:06:31Z</time>
      </trkpt>
      <trkpt lat="48.58571" lon="1.86954">
        <ele>163</ele>
        <time>2010-05-15T12:06:32Z</time>
      </trkpt>
      <trkpt lat="48.58571" lon="1.86958">
        <ele>163</ele>
        <time>2010-05-15T12:06:33Z</time>
      </trkpt>
      <trkpt lat="48.58571" lon="1.8696">
        <ele>162</ele>
        <time>2010-05-15T12:06:34Z</time>
      </trkpt>
      <trkpt lat="48.58571" lon="1.86962">
        <ele>162</ele>
        <time>2010-05-15T12:06:35Z</time>
      </trkpt>
      <trkpt lat="48.58571" lon="1.86964">
        <ele>162</ele>
        <time>2010-05-15T12:06:36Z</time>
      </trkpt>
      <trkpt lat="48.58571" lon="1.86966">
        <ele>162</ele>
        <time>2010-05-15T12:06:37Z</time>
      </trkpt>
      <trkpt lat="48.58572" lon="1.86968">
        <ele>162</ele>
        <time>2010-05-15T12:06:38Z</time>
      </trkpt>
      <trkpt lat="48.58572" lon="1.86969">
        <ele>162</ele>
        <time>2010-05-15T12:06:39Z</time>
      </trkpt>
      <trkpt lat="48.58572" lon="1.86971">
        <ele>162</ele>
        <time>2010-05-15T12:06:40Z</time>
      </trkpt>
      <trkpt lat="48.58572" lon="1.86973">
        <ele>162</ele>
        <time>2010-05-15T12:06:41Z</time>
      </trkpt>
      <trkpt lat="48.58572" lon="1.86976">
        <ele>162</ele>
        <time>2010-05-15T12:06:43Z</time>
      </trkpt>
      <trkpt lat="48.58572" lon="1.86979">
        <ele>162</ele>
        <time>2010-05-15T12:06:45Z</time>
      </trkpt>
      <trkpt lat="48.58572" lon="1.86982">
        <ele>162</ele>
        <time>2010-05-15T12:06:46Z</time>
      </trkpt>
      <trkpt lat="48.58573" lon="1.86985">
        <ele>162</ele>
        <time>2010-05-15T12:06:47Z</time>
      </trkpt>
      <trkpt lat="48.58574" lon="1.86988">
        <ele>162</ele>
        <time>2010-05-15T12:06:48Z</time>
      </trkpt>
      <trkpt lat="48.58574" lon="1.86991">
        <ele>162</ele>
        <time>2010-05-15T12:06:49Z</time>
      </trkpt>
      <trkpt lat="48.58575" lon="1.86993">
        <ele>162</ele>
        <time>2010-05-15T12:06:50Z</time>
      </trkpt>
      <trkpt lat="48.58575" lon="1.86996">
        <ele>162</ele>
        <time>2010-05-15T12:06:51Z</time>
      </trkpt>
      <trkpt lat="48.58575" lon="1.86998">
        <ele>162</ele>
        <time>2010-05-15T12:06:52Z</time>
      </trkpt>
      <trkpt lat="48.58575" lon="1.87">
        <ele>162</ele>
        <time>2010-05-15T12:06:54Z</time>
      </trkpt>
      <trkpt lat="48.58575" lon="1.87002">
        <ele>162</ele>
        <time>2010-05-15T12:06:56Z</time>
      </trkpt>
      <trkpt lat="48.58575" lon="1.87004">
        <ele>163</ele>
        <time>2010-05-15T12:06:57Z</time>
      </trkpt>
      <trkpt lat="48.58574" lon="1.87007">
        <ele>163</ele>
        <time>2010-05-15T12:06:58Z</time>
      </trkpt>
      <trkpt lat="48.58574" lon="1.87009">
        <ele>164</ele>
        <time>2010-05-15T12:06:59Z</time>
      </trkpt>
      <trkpt lat="48.58574" lon="1.87013">
        <ele>164</ele>
        <time>2010-05-15T12:07:00Z</time>
      </trkpt>
      <trkpt lat="48.58574" lon="1.87017">
        <ele>164</ele>
        <time>2010-05-15T12:07:01Z</time>
      </trkpt>
      <trkpt lat="48.58574" lon="1.8702">
        <ele>164</ele>
        <time>2010-05-15T12:07:02Z</time>
      </trkpt>
      <trkpt lat="48.58574" lon="1.87023">
        <ele>164</ele>
        <time>2010-05-15T12:07:03Z</time>
      </trkpt>
      <trkpt lat="48.58574" lon="1.87025">
        <ele>164</ele>
        <time>2010-05-15T12:07:04Z</time>
      </trkpt>
      <trkpt lat="48.58574" lon="1.87027">
        <ele>164</ele>
        <time>2010-05-15T12:07:05Z</time>
      </trkpt>
      <trkpt lat="48.58574" lon="1.87031">
        <ele>164</ele>
        <time>2010-05-15T12:07:06Z</time>
      </trkpt>
      <trkpt lat="48.58574" lon="1.87033">
        <ele>164</ele>
        <time>2010-05-15T12:07:07Z</time>
      </trkpt>
      <trkpt lat="48.58574" lon="1.87036">
        <ele>164</ele>
        <time>2010-05-15T12:07:08Z</time>
      </trkpt>
      <trkpt lat="48.58574" lon="1.87038">
        <ele>164</ele>
        <time>2010-05-15T12:07:09Z</time>
      </trkpt>
      <trkpt lat="48.58573" lon="1.87041">
        <ele>164</ele>
        <time>2010-05-15T12:07:10Z</time>
      </trkpt>
      <trkpt lat="48.58573" lon="1.87044">
        <ele>164</ele>
        <time>2010-05-15T12:07:11Z</time>
      </trkpt>
      <trkpt lat="48.58573" lon="1.87048">
        <ele>164</ele>
        <time>2010-05-15T12:07:12Z</time>
      </trkpt>
      <trkpt lat="48.58573" lon="1.87052">
        <ele>164</ele>
        <time>2010-05-15T12:07:13Z</time>
      </trkpt>
      <trkpt lat="48.58572" lon="1.87056">
        <ele>164</ele>
        <time>2010-05-15T12:07:14Z</time>
      </trkpt>
      <trkpt lat="48.58572" lon="1.87061">
        <ele>164</ele>
        <time>2010-05-15T12:07:15Z</time>
      </trkpt>
      <trkpt lat="48.58571" lon="1.87066">
        <ele>164</ele>
        <time>2010-05-15T12:07:16Z</time>
      </trkpt>
      <trkpt lat="48.5857" lon="1.87072">
        <ele>164</ele>
        <time>2010-05-15T12:07:17Z</time>
      </trkpt>
      <trkpt lat="48.5857" lon="1.87078">
        <ele>164</ele>
        <time>2010-05-15T12:07:18Z</time>
      </trkpt>
      <trkpt lat="48.58569" lon="1.87084">
        <ele>164</ele>
        <time>2010-05-15T12:07:19Z</time>
      </trkpt>
      <trkpt lat="48.58568" lon="1.8709">
        <ele>164</ele>
        <time>2010-05-15T12:07:20Z</time>
      </trkpt>
      <trkpt lat="48.58568" lon="1.87096">
        <ele>164</ele>
        <time>2010-05-15T12:07:21Z</time>
      </trkpt>
      <trkpt lat="48.58567" lon="1.87103">
        <ele>163</ele>
        <time>2010-05-15T12:07:22Z</time>
      </trkpt>
      <trkpt lat="48.58567" lon="1.87108">
        <ele>163</ele>
        <time>2010-05-15T12:07:23Z</time>
      </trkpt>
      <trkpt lat="48.58566" lon="1.87113">
        <ele>163</ele>
        <time>2010-05-15T12:07:24Z</time>
      </trkpt>
      <trkpt lat="48.58566" lon="1.87119">
        <ele>163</ele>
        <time>2010-05-15T12:07:25Z</time>
      </trkpt>
      <trkpt lat="48.58565" lon="1.87125">
        <ele>163</ele>
        <time>2010-05-15T12:07:26Z</time>
      </trkpt>
      <trkpt lat="48.58565" lon="1.8713">
        <ele>163</ele>
        <time>2010-05-15T12:07:27Z</time>
      </trkpt>
      <trkpt lat="48.58564" lon="1.87136">
        <ele>163</ele>
        <time>2010-05-15T12:07:28Z</time>
      </trkpt>
      <trkpt lat="48.58563" lon="1.87141">
        <ele>163</ele>
        <time>2010-05-15T12:07:29Z</time>
      </trkpt>
      <trkpt lat="48.58563" lon="1.87145">
        <ele>163</ele>
        <time>2010-05-15T12:07:30Z</time>
      </trkpt>
      <trkpt lat="48.58562" lon="1.8715">
        <ele>163</ele>
        <time>2010-05-15T12:07:31Z</time>
      </trkpt>
      <trkpt lat="48.58561" lon="1.87155">
        <ele>163</ele>
        <time>2010-05-15T12:07:32Z</time>
      </trkpt>
      <trkpt lat="48.58559" lon="1.8716">
        <ele>163</ele>
        <time>2010-05-15T12:07:33Z</time>
      </trkpt>
      <trkpt lat="48.58558" lon="1.87165">
        <ele>163</ele>
        <time>2010-05-15T12:07:34Z</time>
      </trkpt>
      <trkpt lat="48.58556" lon="1.8717">
        <ele>163</ele>
        <time>2010-05-15T12:07:35Z</time>
      </trkpt>
      <trkpt lat="48.58555" lon="1.87176">
        <ele>163</ele>
        <time>2010-05-15T12:07:36Z</time>
      </trkpt>
      <trkpt lat="48.58554" lon="1.87182">
        <ele>163</ele>
        <time>2010-05-15T12:07:37Z</time>
      </trkpt>
      <trkpt lat="48.58552" lon="1.87187">
        <ele>162</ele>
        <time>2010-05-15T12:07:38Z</time>
      </trkpt>
      <trkpt lat="48.5855" lon="1.87192">
        <ele>162</ele>
        <time>2010-05-15T12:07:39Z</time>
      </trkpt>
      <trkpt lat="48.58549" lon="1.87197">
        <ele>162</ele>
        <time>2010-05-15T12:07:40Z</time>
      </trkpt>
      <trkpt lat="48.58547" lon="1.87202">
        <ele>162</ele>
        <time>2010-05-15T12:07:41Z</time>
      </trkpt>
      <trkpt lat="48.58546" lon="1.87207">
        <ele>162</ele>
        <time>2010-05-15T12:07:42Z</time>
      </trkpt>
      <trkpt lat="48.58544" lon="1.87212">
        <ele>162</ele>
        <time>2010-05-15T12:07:43Z</time>
      </trkpt>
      <trkpt lat="48.58542" lon="1.87217">
        <ele>162</ele>
        <time>2010-05-15T12:07:44Z</time>
      </trkpt>
      <trkpt lat="48.5854" lon="1.87221">
        <ele>162</ele>
        <time>2010-05-15T12:07:45Z</time>
      </trkpt>
      <trkpt lat="48.58538" lon="1.87224">
        <ele>162</ele>
        <time>2010-05-15T12:07:46Z</time>
      </trkpt>
      <trkpt lat="48.58536" lon="1.87228">
        <ele>162</ele>
        <time>2010-05-15T12:07:47Z</time>
      </trkpt>
      <trkpt lat="48.58534" lon="1.87232">
        <ele>162</ele>
        <time>2010-05-15T12:07:48Z</time>
      </trkpt>
      <trkpt lat="48.58532" lon="1.87237">
        <ele>162</ele>
        <time>2010-05-15T12:07:49Z</time>
      </trkpt>
      <trkpt lat="48.5853" lon="1.87241">
        <ele>162</ele>
        <time>2010-05-15T12:07:50Z</time>
      </trkpt>
      <trkpt lat="48.58527" lon="1.87246">
        <ele>162</ele>
        <time>2010-05-15T12:07:51Z</time>
      </trkpt>
      <trkpt lat="48.58525" lon="1.87251">
        <ele>162</ele>
        <time>2010-05-15T12:07:52Z</time>
      </trkpt>
      <trkpt lat="48.58524" lon="1.87256">
        <ele>162</ele>
        <time>2010-05-15T12:07:53Z</time>
      </trkpt>
      <trkpt lat="48.58522" lon="1.87261">
        <ele>162</ele>
        <time>2010-05-15T12:07:54Z</time>
      </trkpt>
      <trkpt lat="48.5852" lon="1.87265">
        <ele>162</ele>
        <time>2010-05-15T12:07:55Z</time>
      </trkpt>
      <trkpt lat="48.58519" lon="1.8727">
        <ele>162</ele>
        <time>2010-05-15T12:07:56Z</time>
      </trkpt>
      <trkpt lat="48.58517" lon="1.87275">
        <ele>162</ele>
        <time>2010-05-15T12:07:57Z</time>
      </trkpt>
      <trkpt lat="48.58516" lon="1.87281">
        <ele>162</ele>
        <time>2010-05-15T12:07:58Z</time>
      </trkpt>
      <trkpt lat="48.58515" lon="1.87285">
        <ele>162</ele>
        <time>2010-05-15T12:07:59Z</time>
      </trkpt>
      <trkpt lat="48.58514" lon="1.87289">
        <ele>162</ele>
        <time>2010-05-15T12:08:00Z</time>
      </trkpt>
      <trkpt lat="48.58512" lon="1.87294">
        <ele>162</ele>
        <time>2010-05-15T12:08:01Z</time>
      </trkpt>
      <trkpt lat="48.5851" lon="1.87298">
        <ele>162</ele>
        <time>2010-05-15T12:08:02Z</time>
      </trkpt>
      <trkpt lat="48.58508" lon="1.87303">
        <ele>162</ele>
        <time>2010-05-15T12:08:03Z</time>
      </trkpt>
      <trkpt lat="48.58507" lon="1.87309">
        <ele>162</ele>
        <time>2010-05-15T12:08:04Z</time>
      </trkpt>
      <trkpt lat="48.58505" lon="1.87315">
        <ele>162</ele>
        <time>2010-05-15T12:08:05Z</time>
      </trkpt>
      <trkpt lat="48.58504" lon="1.87321">
        <ele>162</ele>
        <time>2010-05-15T12:08:06Z</time>
      </trkpt>
      <trkpt lat="48.58502" lon="1.87326">
        <ele>162</ele>
        <time>2010-05-15T12:08:07Z</time>
      </trkpt>
      <trkpt lat="48.58501" lon="1.87333">
        <ele>161</ele>
        <time>2010-05-15T12:08:08Z</time>
      </trkpt>
      <trkpt lat="48.58499" lon="1.87339">
        <ele>160</ele>
        <time>2010-05-15T12:08:09Z</time>
      </trkpt>
      <trkpt lat="48.58498" lon="1.87345">
        <ele>160</ele>
        <time>2010-05-15T12:08:10Z</time>
      </trkpt>
      <trkpt lat="48.58496" lon="1.87351">
        <ele>160</ele>
        <time>2010-05-15T12:08:11Z</time>
      </trkpt>
      <trkpt lat="48.58495" lon="1.87357">
        <ele>159</ele>
        <time>2010-05-15T12:08:12Z</time>
      </trkpt>
      <trkpt lat="48.58494" lon="1.87364">
        <ele>159</ele>
        <time>2010-05-15T12:08:13Z</time>
      </trkpt>
      <trkpt lat="48.58492" lon="1.87369">
        <ele>158</ele>
        <time>2010-05-15T12:08:14Z</time>
      </trkpt>
      <trkpt lat="48.58491" lon="1.87375">
        <ele>158</ele>
        <time>2010-05-15T12:08:15Z</time>
      </trkpt>
      <trkpt lat="48.5849" lon="1.87382">
        <ele>157</ele>
        <time>2010-05-15T12:08:16Z</time>
      </trkpt>
      <trkpt lat="48.58489" lon="1.87388">
        <ele>157</ele>
        <time>2010-05-15T12:08:17Z</time>
      </trkpt>
      <trkpt lat="48.58487" lon="1.87393">
        <ele>156</ele>
        <time>2010-05-15T12:08:18Z</time>
      </trkpt>
      <trkpt lat="48.58486" lon="1.87398">
        <ele>156</ele>
        <time>2010-05-15T12:08:19Z</time>
      </trkpt>
      <trkpt lat="48.58485" lon="1.87403">
        <ele>156</ele>
        <time>2010-05-15T12:08:20Z</time>
      </trkpt>
      <trkpt lat="48.58484" lon="1.87408">
        <ele>156</ele>
        <time>2010-05-15T12:08:21Z</time>
      </trkpt>
      <trkpt lat="48.58482" lon="1.87413">
        <ele>156</ele>
        <time>2010-05-15T12:08:22Z</time>
      </trkpt>
      <trkpt lat="48.5848" lon="1.87417">
        <ele>156</ele>
        <time>2010-05-15T12:08:23Z</time>
      </trkpt>
      <trkpt lat="48.58478" lon="1.87421">
        <ele>156</ele>
        <time>2010-05-15T12:08:24Z</time>
      </trkpt>
      <trkpt lat="48.58476" lon="1.87426">
        <ele>156</ele>
        <time>2010-05-15T12:08:25Z</time>
      </trkpt>
      <trkpt lat="48.58473" lon="1.87431">
        <ele>156</ele>
        <time>2010-05-15T12:08:26Z</time>
      </trkpt>
      <trkpt lat="48.5847" lon="1.87435">
        <ele>156</ele>
        <time>2010-05-15T12:08:27Z</time>
      </trkpt>
      <trkpt lat="48.58467" lon="1.87439">
        <ele>155</ele>
        <time>2010-05-15T12:08:28Z</time>
      </trkpt>
      <trkpt lat="48.58465" lon="1.87444">
        <ele>155</ele>
        <time>2010-05-15T12:08:29Z</time>
      </trkpt>
      <trkpt lat="48.58462" lon="1.87448">
        <ele>155</ele>
        <time>2010-05-15T12:08:30Z</time>
      </trkpt>
      <trkpt lat="48.58459" lon="1.87451">
        <ele>155</ele>
        <time>2010-05-15T12:08:31Z</time>
      </trkpt>
      <trkpt lat="48.58457" lon="1.87455">
        <ele>154</ele>
        <time>2010-05-15T12:08:32Z</time>
      </trkpt>
      <trkpt lat="48.58455" lon="1.87459">
        <ele>154</ele>
        <time>2010-05-15T12:08:33Z</time>
      </trkpt>
      <trkpt lat="48.58451" lon="1.87463">
        <ele>154</ele>
        <time>2010-05-15T12:08:34Z</time>
      </trkpt>
      <trkpt lat="48.58448" lon="1.87467">
        <ele>153</ele>
        <time>2010-05-15T12:08:35Z</time>
      </trkpt>
      <trkpt lat="48.58445" lon="1.8747">
        <ele>153</ele>
        <time>2010-05-15T12:08:36Z</time>
      </trkpt>
      <trkpt lat="48.58442" lon="1.87474">
        <ele>153</ele>
        <time>2010-05-15T12:08:37Z</time>
      </trkpt>
      <trkpt lat="48.5844" lon="1.87479">
        <ele>152</ele>
        <time>2010-05-15T12:08:38Z</time>
      </trkpt>
      <trkpt lat="48.58437" lon="1.87483">
        <ele>152</ele>
        <time>2010-05-15T12:08:39Z</time>
      </trkpt>
      <trkpt lat="48.58434" lon="1.87487">
        <ele>151</ele>
        <time>2010-05-15T12:08:40Z</time>
      </trkpt>
      <trkpt lat="48.58432" lon="1.87491">
        <ele>151</ele>
        <time>2010-05-15T12:08:41Z</time>
      </trkpt>
      <trkpt lat="48.5843" lon="1.87494">
        <ele>151</ele>
        <time>2010-05-15T12:08:42Z</time>
      </trkpt>
      <trkpt lat="48.58428" lon="1.87496">
        <ele>150</ele>
        <time>2010-05-15T12:08:43Z</time>
      </trkpt>
      <trkpt lat="48.58426" lon="1.87499">
        <ele>149</ele>
        <time>2010-05-15T12:08:44Z</time>
      </trkpt>
      <trkpt lat="48.58424" lon="1.87501">
        <ele>149</ele>
        <time>2010-05-15T12:08:45Z</time>
      </trkpt>
      <trkpt lat="48.58424" lon="1.87502">
        <ele>148</ele>
        <time>2010-05-15T12:08:46Z</time>
      </trkpt>
      <trkpt lat="48.58422" lon="1.87506">
        <ele>148</ele>
        <time>2010-05-15T12:08:48Z</time>
      </trkpt>
      <trkpt lat="48.58421" lon="1.87508">
        <ele>148</ele>
        <time>2010-05-15T12:08:49Z</time>
      </trkpt>
      <trkpt lat="48.5842" lon="1.87509">
        <ele>148</ele>
        <time>2010-05-15T12:08:50Z</time>
      </trkpt>
      <trkpt lat="48.5842" lon="1.87513">
        <ele>148</ele>
        <time>2010-05-15T12:08:52Z</time>
      </trkpt>
      <trkpt lat="48.5842" lon="1.87515">
        <ele>148</ele>
        <time>2010-05-15T12:08:53Z</time>
      </trkpt>
      <trkpt lat="48.58419" lon="1.87517">
        <ele>149</ele>
        <time>2010-05-15T12:08:55Z</time>
      </trkpt>
      <trkpt lat="48.58417" lon="1.87521">
        <ele>150</ele>
        <time>2010-05-15T12:08:57Z</time>
      </trkpt>
      <trkpt lat="48.58415" lon="1.87524">
        <ele>151</ele>
        <time>2010-05-15T12:08:59Z</time>
      </trkpt>
      <trkpt lat="48.58414" lon="1.87525">
        <ele>151</ele>
        <time>2010-05-15T12:09:00Z</time>
      </trkpt>
      <trkpt lat="48.58413" lon="1.87527">
        <ele>151</ele>
        <time>2010-05-15T12:09:01Z</time>
      </trkpt>
      <trkpt lat="48.58411" lon="1.87529">
        <ele>151</ele>
        <time>2010-05-15T12:09:02Z</time>
      </trkpt>
      <trkpt lat="48.5841" lon="1.8753">
        <ele>151</ele>
        <time>2010-05-15T12:09:03Z</time>
      </trkpt>
      <trkpt lat="48.58409" lon="1.87531">
        <ele>151</ele>
        <time>2010-05-15T12:09:04Z</time>
      </trkpt>
      <trkpt lat="48.58407" lon="1.87534">
        <ele>151</ele>
        <time>2010-05-15T12:09:06Z</time>
      </trkpt>
      <trkpt lat="48.58406" lon="1.87535">
        <ele>151</ele>
        <time>2010-05-15T12:09:07Z</time>
      </trkpt>
      <trkpt lat="48.58405" lon="1.87537">
        <ele>151</ele>
        <time>2010-05-15T12:09:08Z</time>
      </trkpt>
      <trkpt lat="48.58403" lon="1.87539">
        <ele>151</ele>
        <time>2010-05-15T12:09:09Z</time>
      </trkpt>
      <trkpt lat="48.58402" lon="1.87542">
        <ele>151</ele>
        <time>2010-05-15T12:09:11Z</time>
      </trkpt>
      <trkpt lat="48.58401" lon="1.87544">
        <ele>151</ele>
        <time>2010-05-15T12:09:12Z</time>
      </trkpt>
      <trkpt lat="48.58399" lon="1.87545">
        <ele>151</ele>
        <time>2010-05-15T12:09:13Z</time>
      </trkpt>
      <trkpt lat="48.58397" lon="1.87546">
        <ele>151</ele>
        <time>2010-05-15T12:09:14Z</time>
      </trkpt>
      <trkpt lat="48.58396" lon="1.87549">
        <ele>150</ele>
        <time>2010-05-15T12:09:16Z</time>
      </trkpt>
      <trkpt lat="48.58397" lon="1.87551">
        <ele>149</ele>
        <time>2010-05-15T12:09:17Z</time>
      </trkpt>
      <trkpt lat="48.58398" lon="1.87553">
        <ele>148</ele>
        <time>2010-05-15T12:09:18Z</time>
      </trkpt>
      <trkpt lat="48.58398" lon="1.87555">
        <ele>147</ele>
        <time>2010-05-15T12:09:19Z</time>
      </trkpt>
      <trkpt lat="48.58398" lon="1.87558">
        <ele>145</ele>
        <time>2010-05-15T12:09:21Z</time>
      </trkpt>
      <trkpt lat="48.58399" lon="1.87561">
        <ele>143</ele>
        <time>2010-05-15T12:09:23Z</time>
      </trkpt>
      <trkpt lat="48.584" lon="1.87563">
        <ele>142</ele>
        <time>2010-05-15T12:09:24Z</time>
      </trkpt>
      <trkpt lat="48.58401" lon="1.87565">
        <ele>141</ele>
        <time>2010-05-15T12:09:25Z</time>
      </trkpt>
      <trkpt lat="48.58402" lon="1.87567">
        <ele>140</ele>
        <time>2010-05-15T12:09:26Z</time>
      </trkpt>
      <trkpt lat="48.58403" lon="1.87569">
        <ele>139</ele>
        <time>2010-05-15T12:09:27Z</time>
      </trkpt>
      <trkpt lat="48.58404" lon="1.87572">
        <ele>139</ele>
        <time>2010-05-15T12:09:28Z</time>
      </trkpt>
      <trkpt lat="48.58406" lon="1.87574">
        <ele>139</ele>
        <time>2010-05-15T12:09:29Z</time>
      </trkpt>
      <trkpt lat="48.58407" lon="1.87577">
        <ele>139</ele>
        <time>2010-05-15T12:09:30Z</time>
      </trkpt>
      <trkpt lat="48.58409" lon="1.8758">
        <ele>139</ele>
        <time>2010-05-15T12:09:31Z</time>
      </trkpt>
      <trkpt lat="48.5841" lon="1.87582">
        <ele>139</ele>
        <time>2010-05-15T12:09:32Z</time>
      </trkpt>
      <trkpt lat="48.58412" lon="1.87585">
        <ele>139</ele>
        <time>2010-05-15T12:09:33Z</time>
      </trkpt>
      <trkpt lat="48.58413" lon="1.87586">
        <ele>139</ele>
        <time>2010-05-15T12:09:34Z</time>
      </trkpt>
      <trkpt lat="48.58415" lon="1.87588">
        <ele>139</ele>
        <time>2010-05-15T12:09:35Z</time>
      </trkpt>
      <trkpt lat="48.58416" lon="1.8759">
        <ele>139</ele>
        <time>2010-05-15T12:09:36Z</time>
      </trkpt>
      <trkpt lat="48.58417" lon="1.87592">
        <ele>139</ele>
        <time>2010-05-15T12:09:37Z</time>
      </trkpt>
      <trkpt lat="48.58419" lon="1.87595">
        <ele>139</ele>
        <time>2010-05-15T12:09:39Z</time>
      </trkpt>
      <trkpt lat="48.5842" lon="1.87597">
        <ele>139</ele>
        <time>2010-05-15T12:09:40Z</time>
      </trkpt>
      <trkpt lat="48.58421" lon="1.87599">
        <ele>139</ele>
        <time>2010-05-15T12:09:41Z</time>
      </trkpt>
      <trkpt lat="48.58423" lon="1.87601">
        <ele>139</ele>
        <time>2010-05-15T12:09:42Z</time>
      </trkpt>
      <trkpt lat="48.58424" lon="1.87603">
        <ele>139</ele>
        <time>2010-05-15T12:09:43Z</time>
      </trkpt>
      <trkpt lat="48.58426" lon="1.87605">
        <ele>139</ele>
        <time>2010-05-15T12:09:44Z</time>
      </trkpt>
      <trkpt lat="48.58427" lon="1.87607">
        <ele>139</ele>
        <time>2010-05-15T12:09:45Z</time>
      </trkpt>
      <trkpt lat="48.58429" lon="1.87608">
        <ele>139</ele>
        <time>2010-05-15T12:09:46Z</time>
      </trkpt>
      <trkpt lat="48.58431" lon="1.8761">
        <ele>139</ele>
        <time>2010-05-15T12:09:47Z</time>
      </trkpt>
      <trkpt lat="48.58432" lon="1.87611">
        <ele>139</ele>
        <time>2010-05-15T12:09:48Z</time>
      </trkpt>
      <trkpt lat="48.58433" lon="1.87612">
        <ele>140</ele>
        <time>2010-05-15T12:09:49Z</time>
      </trkpt>
      <trkpt lat="48.58435" lon="1.87613">
        <ele>140</ele>
        <time>2010-05-15T12:09:50Z</time>
      </trkpt>
      <trkpt lat="48.58436" lon="1.87615">
        <ele>141</ele>
        <time>2010-05-15T12:09:51Z</time>
      </trkpt>
      <trkpt lat="48.58437" lon="1.87616">
        <ele>141</ele>
        <time>2010-05-15T12:09:52Z</time>
      </trkpt>
      <trkpt lat="48.58439" lon="1.87619">
        <ele>141</ele>
        <time>2010-05-15T12:09:53Z</time>
      </trkpt>
      <trkpt lat="48.5844" lon="1.87621">
        <ele>142</ele>
        <time>2010-05-15T12:09:54Z</time>
      </trkpt>
      <trkpt lat="48.58442" lon="1.87622">
        <ele>142</ele>
        <time>2010-05-15T12:09:55Z</time>
      </trkpt>
      <trkpt lat="48.58444" lon="1.87623">
        <ele>142</ele>
        <time>2010-05-15T12:09:56Z</time>
      </trkpt>
      <trkpt lat="48.58445" lon="1.87625">
        <ele>143</ele>
        <time>2010-05-15T12:09:57Z</time>
      </trkpt>
      <trkpt lat="48.58446" lon="1.87627">
        <ele>143</ele>
        <time>2010-05-15T12:09:58Z</time>
      </trkpt>
      <trkpt lat="48.58448" lon="1.8763">
        <ele>143</ele>
        <time>2010-05-15T12:09:59Z</time>
      </trkpt>
      <trkpt lat="48.58449" lon="1.87632">
        <ele>143</ele>
        <time>2010-05-15T12:10:00Z</time>
      </trkpt>
      <trkpt lat="48.5845" lon="1.87633">
        <ele>143</ele>
        <time>2010-05-15T12:10:01Z</time>
      </trkpt>
      <trkpt lat="48.58451" lon="1.87636">
        <ele>143</ele>
        <time>2010-05-15T12:10:02Z</time>
      </trkpt>
      <trkpt lat="48.58453" lon="1.87637">
        <ele>143</ele>
        <time>2010-05-15T12:10:03Z</time>
      </trkpt>
      <trkpt lat="48.58454" lon="1.87639">
        <ele>143</ele>
        <time>2010-05-15T12:10:04Z</time>
      </trkpt>
      <trkpt lat="48.58456" lon="1.8764">
        <ele>143</ele>
        <time>2010-05-15T12:10:05Z</time>
      </trkpt>
      <trkpt lat="48.58457" lon="1.87642">
        <ele>143</ele>
        <time>2010-05-15T12:10:06Z</time>
      </trkpt>
      <trkpt lat="48.58458" lon="1.87644">
        <ele>144</ele>
        <time>2010-05-15T12:10:07Z</time>
      </trkpt>
      <trkpt lat="48.58459" lon="1.87646">
        <ele>144</ele>
        <time>2010-05-15T12:10:08Z</time>
      </trkpt>
      <trkpt lat="48.58461" lon="1.87648">
        <ele>144</ele>
        <time>2010-05-15T12:10:09Z</time>
      </trkpt>
      <trkpt lat="48.58462" lon="1.8765">
        <ele>144</ele>
        <time>2010-05-15T12:10:10Z</time>
      </trkpt>
      <trkpt lat="48.58463" lon="1.87652">
        <ele>144</ele>
        <time>2010-05-15T12:10:11Z</time>
      </trkpt>
      <trkpt lat="48.58465" lon="1.87654">
        <ele>144</ele>
        <time>2010-05-15T12:10:12Z</time>
      </trkpt>
      <trkpt lat="48.58466" lon="1.87656">
        <ele>144</ele>
        <time>2010-05-15T12:10:13Z</time>
      </trkpt>
      <trkpt lat="48.58467" lon="1.87658">
        <ele>144</ele>
        <time>2010-05-15T12:10:14Z</time>
      </trkpt>
      <trkpt lat="48.58469" lon="1.87659">
        <ele>144</ele>
        <time>2010-05-15T12:10:15Z</time>
      </trkpt>
      <trkpt lat="48.5847" lon="1.8766">
        <ele>144</ele>
        <time>2010-05-15T12:10:16Z</time>
      </trkpt>
      <trkpt lat="48.58472" lon="1.87663">
        <ele>144</ele>
        <time>2010-05-15T12:10:17Z</time>
      </trkpt>
      <trkpt lat="48.58473" lon="1.87664">
        <ele>144</ele>
        <time>2010-05-15T12:10:18Z</time>
      </trkpt>
      <trkpt lat="48.58475" lon="1.87666">
        <ele>145</ele>
        <time>2010-05-15T12:10:19Z</time>
      </trkpt>
      <trkpt lat="48.58476" lon="1.87668">
        <ele>145</ele>
        <time>2010-05-15T12:10:20Z</time>
      </trkpt>
      <trkpt lat="48.58477" lon="1.87669">
        <ele>145</ele>
        <time>2010-05-15T12:10:21Z</time>
      </trkpt>
      <trkpt lat="48.58478" lon="1.87671">
        <ele>145</ele>
        <time>2010-05-15T12:10:22Z</time>
      </trkpt>
      <trkpt lat="48.58479" lon="1.87673">
        <ele>145</ele>
        <time>2010-05-15T12:10:23Z</time>
      </trkpt>
      <trkpt lat="48.5848" lon="1.87674">
        <ele>145</ele>
        <time>2010-05-15T12:10:24Z</time>
      </trkpt>
      <trkpt lat="48.58482" lon="1.87676">
        <ele>145</ele>
        <time>2010-05-15T12:10:25Z</time>
      </trkpt>
      <trkpt lat="48.58483" lon="1.87678">
        <ele>145</ele>
        <time>2010-05-15T12:10:26Z</time>
      </trkpt>
      <trkpt lat="48.58484" lon="1.87679">
        <ele>145</ele>
        <time>2010-05-15T12:10:27Z</time>
      </trkpt>
      <trkpt lat="48.58486" lon="1.87681">
        <ele>145</ele>
        <time>2010-05-15T12:10:29Z</time>
      </trkpt>
      <trkpt lat="48.58488" lon="1.87682">
        <ele>145</ele>
        <time>2010-05-15T12:10:30Z</time>
      </trkpt>
      <trkpt lat="48.58489" lon="1.87684">
        <ele>145</ele>
        <time>2010-05-15T12:10:31Z</time>
      </trkpt>
      <trkpt lat="48.5849" lon="1.87685">
        <ele>145</ele>
        <time>2010-05-15T12:10:32Z</time>
      </trkpt>
      <trkpt lat="48.58491" lon="1.87686">
        <ele>145</ele>
        <time>2010-05-15T12:10:33Z</time>
      </trkpt>
      <trkpt lat="48.58493" lon="1.87686">
        <ele>145</ele>
        <time>2010-05-15T12:10:34Z</time>
      </trkpt>
      <trkpt lat="48.58494" lon="1.87687">
        <ele>145</ele>
        <time>2010-05-15T12:10:35Z</time>
      </trkpt>
      <trkpt lat="48.58495" lon="1.87688">
        <ele>145</ele>
        <time>2010-05-15T12:10:36Z</time>
      </trkpt>
      <trkpt lat="48.58498" lon="1.8769">
        <ele>145</ele>
        <time>2010-05-15T12:10:38Z</time>
      </trkpt>
      <trkpt lat="48.58499" lon="1.8769">
        <ele>145</ele>
        <time>2010-05-15T12:10:39Z</time>
      </trkpt>
      <trkpt lat="48.585" lon="1.8769">
        <ele>145</ele>
        <time>2010-05-15T12:10:40Z</time>
      </trkpt>
      <trkpt lat="48.58502" lon="1.8769">
        <ele>145</ele>
        <time>2010-05-15T12:10:41Z</time>
      </trkpt>
      <trkpt lat="48.58504" lon="1.87692">
        <ele>145</ele>
        <time>2010-05-15T12:10:42Z</time>
      </trkpt>
      <trkpt lat="48.58505" lon="1.87692">
        <ele>145</ele>
        <time>2010-05-15T12:10:43Z</time>
      </trkpt>
      <trkpt lat="48.58507" lon="1.87693">
        <ele>145</ele>
        <time>2010-05-15T12:10:44Z</time>
      </trkpt>
      <trkpt lat="48.58508" lon="1.87694">
        <ele>145</ele>
        <time>2010-05-15T12:10:45Z</time>
      </trkpt>
      <trkpt lat="48.5851" lon="1.87696">
        <ele>145</ele>
        <time>2010-05-15T12:10:46Z</time>
      </trkpt>
      <trkpt lat="48.58512" lon="1.87696">
        <ele>145</ele>
        <time>2010-05-15T12:10:47Z</time>
      </trkpt>
      <trkpt lat="48.58513" lon="1.87696">
        <ele>145</ele>
        <time>2010-05-15T12:10:48Z</time>
      </trkpt>
      <trkpt lat="48.58515" lon="1.87697">
        <ele>145</ele>
        <time>2010-05-15T12:10:50Z</time>
      </trkpt>
      <trkpt lat="48.58517" lon="1.87697">
        <ele>145</ele>
        <time>2010-05-15T12:10:51Z</time>
      </trkpt>
      <trkpt lat="48.58518" lon="1.87697">
        <ele>145</ele>
        <time>2010-05-15T12:10:52Z</time>
      </trkpt>
      <trkpt lat="48.58519" lon="1.87697">
        <ele>145</ele>
        <time>2010-05-15T12:10:53Z</time>
      </trkpt>
      <trkpt lat="48.58521" lon="1.87697">
        <ele>145</ele>
        <time>2010-05-15T12:10:54Z</time>
      </trkpt>
      <trkpt lat="48.58522" lon="1.87697">
        <ele>145</ele>
        <time>2010-05-15T12:10:55Z</time>
      </trkpt>
      <trkpt lat="48.58525" lon="1.87697">
        <ele>145</ele>
        <time>2010-05-15T12:10:57Z</time>
      </trkpt>
      <trkpt lat="48.58527" lon="1.87698">
        <ele>145</ele>
        <time>2010-05-15T12:10:58Z</time>
      </trkpt>
      <trkpt lat="48.58528" lon="1.87699">
        <ele>145</ele>
        <time>2010-05-15T12:10:59Z</time>
      </trkpt>
      <trkpt lat="48.5853" lon="1.877">
        <ele>145</ele>
        <time>2010-05-15T12:11:00Z</time>
      </trkpt>
      <trkpt lat="48.58532" lon="1.877">
        <ele>145</ele>
        <time>2010-05-15T12:11:01Z</time>
      </trkpt>
      <trkpt lat="48.58533" lon="1.877">
        <ele>145</ele>
        <time>2010-05-15T12:11:02Z</time>
      </trkpt>
      <trkpt lat="48.58535" lon="1.87699">
        <ele>145</ele>
        <time>2010-05-15T12:11:04Z</time>
      </trkpt>
      <trkpt lat="48.58536" lon="1.877">
        <ele>145</ele>
        <time>2010-05-15T12:11:05Z</time>
      </trkpt>
      <trkpt lat="48.58538" lon="1.877">
        <ele>145</ele>
        <time>2010-05-15T12:11:06Z</time>
      </trkpt>
      <trkpt lat="48.5854" lon="1.877">
        <ele>145</ele>
        <time>2010-05-15T12:11:07Z</time>
      </trkpt>
      <trkpt lat="48.58541" lon="1.87701">
        <ele>145</ele>
        <time>2010-05-15T12:11:08Z</time>
      </trkpt>
      <trkpt lat="48.58543" lon="1.87701">
        <ele>145</ele>
        <time>2010-05-15T12:11:09Z</time>
      </trkpt>
      <trkpt lat="48.58544" lon="1.87701">
        <ele>145</ele>
        <time>2010-05-15T12:11:10Z</time>
      </trkpt>
      <trkpt lat="48.58546" lon="1.87701">
        <ele>145</ele>
        <time>2010-05-15T12:11:11Z</time>
      </trkpt>
      <trkpt lat="48.58547" lon="1.87701">
        <ele>145</ele>
        <time>2010-05-15T12:11:12Z</time>
      </trkpt>
      <trkpt lat="48.58549" lon="1.87701">
        <ele>145</ele>
        <time>2010-05-15T12:11:13Z</time>
      </trkpt>
      <trkpt lat="48.5855" lon="1.87701">
        <ele>145</ele>
        <time>2010-05-15T12:11:14Z</time>
      </trkpt>
      <trkpt lat="48.58551" lon="1.87701">
        <ele>145</ele>
        <time>2010-05-15T12:11:15Z</time>
      </trkpt>
      <trkpt lat="48.58553" lon="1.87701">
        <ele>145</ele>
        <time>2010-05-15T12:11:16Z</time>
      </trkpt>
      <trkpt lat="48.58556" lon="1.87703">
        <ele>145</ele>
        <time>2010-05-15T12:11:18Z</time>
      </trkpt>
      <trkpt lat="48.58557" lon="1.87704">
        <ele>145</ele>
        <time>2010-05-15T12:11:19Z</time>
      </trkpt>
      <trkpt lat="48.58559" lon="1.87706">
        <ele>145</ele>
        <time>2010-05-15T12:11:21Z</time>
      </trkpt>
      <trkpt lat="48.58559" lon="1.87708">
        <ele>146</ele>
        <time>2010-05-15T12:11:22Z</time>
      </trkpt>
      <trkpt lat="48.58559" lon="1.8771">
        <ele>146</ele>
        <time>2010-05-15T12:11:23Z</time>
      </trkpt>
      <trkpt lat="48.58558" lon="1.87711">
        <ele>148</ele>
        <time>2010-05-15T12:11:25Z</time>
      </trkpt>
      <trkpt lat="48.58557" lon="1.87713">
        <ele>149</ele>
        <time>2010-05-15T12:11:27Z</time>
      </trkpt>
      <trkpt lat="48.58556" lon="1.87715">
        <ele>150</ele>
        <time>2010-05-15T12:11:28Z</time>
      </trkpt>
      <trkpt lat="48.58555" lon="1.87717">
        <ele>152</ele>
        <time>2010-05-15T12:11:30Z</time>
      </trkpt>
      <trkpt lat="48.58554" lon="1.87719">
        <ele>154</ele>
        <time>2010-05-15T12:11:32Z</time>
      </trkpt>
      <trkpt lat="48.58554" lon="1.87721">
        <ele>154</ele>
        <time>2010-05-15T12:11:33Z</time>
      </trkpt>
      <trkpt lat="48.58553" lon="1.87723">
        <ele>155</ele>
        <time>2010-05-15T12:11:34Z</time>
      </trkpt>
      <trkpt lat="48.58552" lon="1.87725">
        <ele>156</ele>
        <time>2010-05-15T12:11:36Z</time>
      </trkpt>
      <trkpt lat="48.58552" lon="1.87729">
        <ele>156</ele>
        <time>2010-05-15T12:11:38Z</time>
      </trkpt>
      <trkpt lat="48.58552" lon="1.87731">
        <ele>156</ele>
        <time>2010-05-15T12:11:39Z</time>
      </trkpt>
      <trkpt lat="48.58552" lon="1.87734">
        <ele>156</ele>
        <time>2010-05-15T12:11:40Z</time>
      </trkpt>
      <trkpt lat="48.58552" lon="1.87736">
        <ele>156</ele>
        <time>2010-05-15T12:11:41Z</time>
      </trkpt>
      <trkpt lat="48.58551" lon="1.87738">
        <ele>156</ele>
        <time>2010-05-15T12:11:42Z</time>
      </trkpt>
      <trkpt lat="48.58551" lon="1.8774">
        <ele>156</ele>
        <time>2010-05-15T12:11:43Z</time>
      </trkpt>
      <trkpt lat="48.5855" lon="1.87743">
        <ele>156</ele>
        <time>2010-05-15T12:11:45Z</time>
      </trkpt>
      <trkpt lat="48.5855" lon="1.87745">
        <ele>156</ele>
        <time>2010-05-15T12:11:46Z</time>
      </trkpt>
      <trkpt lat="48.5855" lon="1.87748">
        <ele>156</ele>
        <time>2010-05-15T12:11:48Z</time>
      </trkpt>
      <trkpt lat="48.58547" lon="1.8775">
        <ele>156</ele>
        <time>2010-05-15T12:11:50Z</time>
      </trkpt>
      <trkpt lat="48.58546" lon="1.87751">
        <ele>156</ele>
        <time>2010-05-15T12:11:51Z</time>
      </trkpt>
      <trkpt lat="48.58545" lon="1.87752">
        <ele>157</ele>
        <time>2010-05-15T12:11:52Z</time>
      </trkpt>
      <trkpt lat="48.58543" lon="1.87754">
        <ele>157</ele>
        <time>2010-05-15T12:11:53Z</time>
      </trkpt>
      <trkpt lat="48.58541" lon="1.87757">
        <ele>158</ele>
        <time>2010-05-15T12:11:55Z</time>
      </trkpt>
      <trkpt lat="48.58541" lon="1.87759">
        <ele>158</ele>
        <time>2010-05-15T12:11:56Z</time>
      </trkpt>
      <trkpt lat="48.5854" lon="1.87762">
        <ele>158</ele>
        <time>2010-05-15T12:11:57Z</time>
      </trkpt>
      <trkpt lat="48.58539" lon="1.87765">
        <ele>158</ele>
        <time>2010-05-15T12:11:58Z</time>
      </trkpt>
      <trkpt lat="48.58539" lon="1.87767">
        <ele>158</ele>
        <time>2010-05-15T12:11:59Z</time>
      </trkpt>
      <trkpt lat="48.58538" lon="1.87769">
        <ele>158</ele>
        <time>2010-05-15T12:12:00Z</time>
      </trkpt>
      <trkpt lat="48.58538" lon="1.87771">
        <ele>158</ele>
        <time>2010-05-15T12:12:01Z</time>
      </trkpt>
      <trkpt lat="48.58538" lon="1.87774">
        <ele>158</ele>
        <time>2010-05-15T12:12:02Z</time>
      </trkpt>
      <trkpt lat="48.58538" lon="1.87777">
        <ele>158</ele>
        <time>2010-05-15T12:12:03Z</time>
      </trkpt>
      <trkpt lat="48.58538" lon="1.8778">
        <ele>158</ele>
        <time>2010-05-15T12:12:04Z</time>
      </trkpt>
      <trkpt lat="48.58539" lon="1.87782">
        <ele>158</ele>
        <time>2010-05-15T12:12:05Z</time>
      </trkpt>
      <trkpt lat="48.58539" lon="1.87784">
        <ele>158</ele>
        <time>2010-05-15T12:12:06Z</time>
      </trkpt>
      <trkpt lat="48.58539" lon="1.87786">
        <ele>158</ele>
        <time>2010-05-15T12:12:08Z</time>
      </trkpt>
      <trkpt lat="48.5854" lon="1.87789">
        <ele>158</ele>
        <time>2010-05-15T12:12:10Z</time>
      </trkpt>
      <trkpt lat="48.58539" lon="1.87791">
        <ele>158</ele>
        <time>2010-05-15T12:12:11Z</time>
      </trkpt>
      <trkpt lat="48.58539" lon="1.87792">
        <ele>158</ele>
        <time>2010-05-15T12:12:12Z</time>
      </trkpt>
      <trkpt lat="48.58537" lon="1.87798">
        <ele>157</ele>
        <time>2010-05-15T12:12:16Z</time>
      </trkpt>
      <trkpt lat="48.58538" lon="1.87804">
        <ele>156</ele>
        <time>2010-05-15T12:12:18Z</time>
      </trkpt>
      <trkpt lat="48.58537" lon="1.87808">
        <ele>156</ele>
        <time>2010-05-15T12:12:19Z</time>
      </trkpt>
      <trkpt lat="48.58535" lon="1.87808">
        <ele>156</ele>
        <time>2010-05-15T12:12:20Z</time>
      </trkpt>
      <trkpt lat="48.58533" lon="1.87808">
        <ele>156</ele>
        <time>2010-05-15T12:12:21Z</time>
      </trkpt>
      <trkpt lat="48.58532" lon="1.87808">
        <ele>156</ele>
        <time>2010-05-15T12:12:22Z</time>
      </trkpt>
      <trkpt lat="48.58531" lon="1.87809">
        <ele>156</ele>
        <time>2010-05-15T12:12:23Z</time>
      </trkpt>
      <trkpt lat="48.5853" lon="1.87811">
        <ele>156</ele>
        <time>2010-05-15T12:12:24Z</time>
      </trkpt>
      <trkpt lat="48.58529" lon="1.87813">
        <ele>156</ele>
        <time>2010-05-15T12:12:25Z</time>
      </trkpt>
      <trkpt lat="48.58527" lon="1.87815">
        <ele>156</ele>
        <time>2010-05-15T12:12:26Z</time>
      </trkpt>
      <trkpt lat="48.58526" lon="1.87816">
        <ele>156</ele>
        <time>2010-05-15T12:12:27Z</time>
      </trkpt>
      <trkpt lat="48.58524" lon="1.87817">
        <ele>156</ele>
        <time>2010-05-15T12:12:28Z</time>
      </trkpt>
      <trkpt lat="48.58522" lon="1.87818">
        <ele>156</ele>
        <time>2010-05-15T12:12:29Z</time>
      </trkpt>
      <trkpt lat="48.58521" lon="1.87819">
        <ele>156</ele>
        <time>2010-05-15T12:12:30Z</time>
      </trkpt>
      <trkpt lat="48.5852" lon="1.87822">
        <ele>156</ele>
        <time>2010-05-15T12:12:31Z</time>
      </trkpt>
      <trkpt lat="48.58519" lon="1.87825">
        <ele>157</ele>
        <time>2010-05-15T12:12:33Z</time>
      </trkpt>
      <trkpt lat="48.58519" lon="1.87827">
        <ele>158</ele>
        <time>2010-05-15T12:12:34Z</time>
      </trkpt>
      <trkpt lat="48.58517" lon="1.87827">
        <ele>158</ele>
        <time>2010-05-15T12:12:35Z</time>
      </trkpt>
      <trkpt lat="48.58515" lon="1.87828">
        <ele>159</ele>
        <time>2010-05-15T12:12:36Z</time>
      </trkpt>
      <trkpt lat="48.58514" lon="1.87829">
        <ele>159</ele>
        <time>2010-05-15T12:12:37Z</time>
      </trkpt>
      <trkpt lat="48.58513" lon="1.87831">
        <ele>159</ele>
        <time>2010-05-15T12:12:39Z</time>
      </trkpt>
      <trkpt lat="48.58511" lon="1.87833">
        <ele>159</ele>
        <time>2010-05-15T12:12:41Z</time>
      </trkpt>
      <trkpt lat="48.5851" lon="1.87836">
        <ele>160</ele>
        <time>2010-05-15T12:12:43Z</time>
      </trkpt>
      <trkpt lat="48.58508" lon="1.87837">
        <ele>161</ele>
        <time>2010-05-15T12:12:44Z</time>
      </trkpt>
      <trkpt lat="48.58507" lon="1.87838">
        <ele>161</ele>
        <time>2010-05-15T12:12:45Z</time>
      </trkpt>
      <trkpt lat="48.58506" lon="1.8784">
        <ele>162</ele>
        <time>2010-05-15T12:12:46Z</time>
      </trkpt>
      <trkpt lat="48.58505" lon="1.87842">
        <ele>162</ele>
        <time>2010-05-15T12:12:47Z</time>
      </trkpt>
      <trkpt lat="48.58505" lon="1.87845">
        <ele>164</ele>
        <time>2010-05-15T12:12:49Z</time>
      </trkpt>
      <trkpt lat="48.58504" lon="1.87847">
        <ele>165</ele>
        <time>2010-05-15T12:12:51Z</time>
      </trkpt>
      <trkpt lat="48.58503" lon="1.87849">
        <ele>166</ele>
        <time>2010-05-15T12:12:52Z</time>
      </trkpt>
      <trkpt lat="48.58502" lon="1.87852">
        <ele>166</ele>
        <time>2010-05-15T12:12:54Z</time>
      </trkpt>
      <trkpt lat="48.58501" lon="1.87854">
        <ele>166</ele>
        <time>2010-05-15T12:12:55Z</time>
      </trkpt>
      <trkpt lat="48.585" lon="1.87857">
        <ele>166</ele>
        <time>2010-05-15T12:12:58Z</time>
      </trkpt>
      <trkpt lat="48.58499" lon="1.87859">
        <ele>164</ele>
        <time>2010-05-15T12:13:00Z</time>
      </trkpt>
      <trkpt lat="48.58498" lon="1.87862">
        <ele>162</ele>
        <time>2010-05-15T12:13:02Z</time>
      </trkpt>
      <trkpt lat="48.58498" lon="1.87864">
        <ele>161</ele>
        <time>2010-05-15T12:13:03Z</time>
      </trkpt>
      <trkpt lat="48.58497" lon="1.87864">
        <ele>156</ele>
        <time>2010-05-15T12:13:08Z</time>
      </trkpt>
      <trkpt lat="48.58499" lon="1.87862">
        <ele>153</ele>
        <time>2010-05-15T12:13:11Z</time>
      </trkpt>
      <trkpt lat="48.58498" lon="1.8786">
        <ele>152</ele>
        <time>2010-05-15T12:13:13Z</time>
      </trkpt>
      <trkpt lat="48.58497" lon="1.8786">
        <ele>151</ele>
        <time>2010-05-15T12:13:20Z</time>
      </trkpt>
      <trkpt lat="48.58496" lon="1.87861">
        <ele>150</ele>
        <time>2010-05-15T12:13:21Z</time>
      </trkpt>
      <trkpt lat="48.58493" lon="1.87862">
        <ele>149</ele>
        <time>2010-05-15T12:13:23Z</time>
      </trkpt>
      <trkpt lat="48.58491" lon="1.87864">
        <ele>147</ele>
        <time>2010-05-15T12:13:25Z</time>
      </trkpt>
      <trkpt lat="48.58489" lon="1.87864">
        <ele>146</ele>
        <time>2010-05-15T12:13:27Z</time>
      </trkpt>
      <trkpt lat="48.5849" lon="1.87865">
        <ele>142</ele>
        <time>2010-05-15T12:13:32Z</time>
      </trkpt>
      <trkpt lat="48.58489" lon="1.87868">
        <ele>142</ele>
        <time>2010-05-15T12:13:34Z</time>
      </trkpt>
      <trkpt lat="48.58489" lon="1.8787">
        <ele>141</ele>
        <time>2010-05-15T12:13:36Z</time>
      </trkpt>
      <trkpt lat="48.5849" lon="1.87872">
        <ele>139</ele>
        <time>2010-05-15T12:13:38Z</time>
      </trkpt>
      <trkpt lat="48.58491" lon="1.87874">
        <ele>138</ele>
        <time>2010-05-15T12:13:40Z</time>
      </trkpt>
      <trkpt lat="48.58492" lon="1.87876">
        <ele>138</ele>
        <time>2010-05-15T12:13:42Z</time>
      </trkpt>
      <trkpt lat="48.58494" lon="1.87878">
        <ele>138</ele>
        <time>2010-05-15T12:13:45Z</time>
      </trkpt>
      <trkpt lat="48.58495" lon="1.87878">
        <ele>138</ele>
        <time>2010-05-15T12:13:48Z</time>
      </trkpt>
      <trkpt lat="48.58497" lon="1.87878">
        <ele>141</ele>
        <time>2010-05-15T12:13:52Z</time>
      </trkpt>
      <trkpt lat="48.58497" lon="1.8788">
        <ele>142</ele>
        <time>2010-05-15T12:14:02Z</time>
      </trkpt>
      <trkpt lat="48.58496" lon="1.8788">
        <ele>142</ele>
        <time>2010-05-15T12:14:04Z</time>
      </trkpt>
      <trkpt lat="48.58494" lon="1.87881">
        <ele>142</ele>
        <time>2010-05-15T12:14:05Z</time>
      </trkpt>
      <trkpt lat="48.58493" lon="1.87881">
        <ele>142</ele>
        <time>2010-05-15T12:14:07Z</time>
      </trkpt>
      <trkpt lat="48.58492" lon="1.87883">
        <ele>142</ele>
        <time>2010-05-15T12:14:10Z</time>
      </trkpt>
      <trkpt lat="48.58492" lon="1.87881">
        <ele>141</ele>
        <time>2010-05-15T12:14:16Z</time>
      </trkpt>
      <trkpt lat="48.58493" lon="1.87879">
        <ele>141</ele>
        <time>2010-05-15T12:14:21Z</time>
      </trkpt>
      <trkpt lat="48.58495" lon="1.87878">
        <ele>144</ele>
        <time>2010-05-15T12:14:27Z</time>
      </trkpt>
      <trkpt lat="48.58494" lon="1.87879">
        <ele>145</ele>
        <time>2010-05-15T12:14:37Z</time>
      </trkpt>
      <trkpt lat="48.58493" lon="1.87881">
        <ele>145</ele>
        <time>2010-05-15T12:14:40Z</time>
      </trkpt>
      <trkpt lat="48.58493" lon="1.87882">
        <ele>145</ele>
        <time>2010-05-15T12:14:43Z</time>
      </trkpt>
      <trkpt lat="48.58493" lon="1.87884">
        <ele>145</ele>
        <time>2010-05-15T12:14:52Z</time>
      </trkpt>
      <trkpt lat="48.58491" lon="1.87885">
        <ele>142</ele>
        <time>2010-05-15T12:15:02Z</time>
      </trkpt>
      <trkpt lat="48.58492" lon="1.87886">
        <ele>140</ele>
        <time>2010-05-15T12:15:12Z</time>
      </trkpt>
      <trkpt lat="48.58491" lon="1.87888">
        <ele>140</ele>
        <time>2010-05-15T12:15:16Z</time>
      </trkpt>
      <trkpt lat="48.58491" lon="1.87889">
        <ele>140</ele>
        <time>2010-05-15T12:15:18Z</time>
      </trkpt>
      <trkpt lat="48.58492" lon="1.8789">
        <ele>140</ele>
        <time>2010-05-15T12:15:25Z</time>
      </trkpt>
      <trkpt lat="48.58493" lon="1.87889">
        <ele>140</ele>
        <time>2010-05-15T12:15:29Z</time>
      </trkpt>
      <trkpt lat="48.58494" lon="1.8789">
        <ele>140</ele>
        <time>2010-05-15T12:15:40Z</time>
      </trkpt>
      <trkpt lat="48.58493" lon="1.87891">
        <ele>140</ele>
        <time>2010-05-15T12:15:42Z</time>
      </trkpt>
      <trkpt lat="48.58492" lon="1.87891">
        <ele>140</ele>
        <time>2010-05-15T12:15:45Z</time>
      </trkpt>
      <trkpt lat="48.58493" lon="1.8789">
        <ele>140</ele>
        <time>2010-05-15T12:15:58Z</time>
      </trkpt>
      <trkpt lat="48.58494" lon="1.87888">
        <ele>140</ele>
        <time>2010-05-15T12:16:05Z</time>
      </trkpt>
      <trkpt lat="48.58493" lon="1.87887">
        <ele>140</ele>
        <time>2010-05-15T12:16:11Z</time>
      </trkpt>
      <trkpt lat="48.58492" lon="1.87887">
        <ele>140</ele>
        <time>2010-05-15T12:16:14Z</time>
      </trkpt>
      <trkpt lat="48.58492" lon="1.8789">
        <ele>140</ele>
        <time>2010-05-15T12:16:17Z</time>
      </trkpt>
      <trkpt lat="48.58493" lon="1.8789">
        <ele>140</ele>
        <time>2010-05-15T12:16:22Z</time>
      </trkpt>
      <trkpt lat="48.58493" lon="1.87892">
        <ele>141</ele>
        <time>2010-05-15T12:16:30Z</time>
      </trkpt>
      <trkpt lat="48.58491" lon="1.87894">
        <ele>141</ele>
        <time>2010-05-15T12:16:34Z</time>
      </trkpt>
      <trkpt lat="48.5849" lon="1.87895">
        <ele>141</ele>
        <time>2010-05-15T12:16:37Z</time>
      </trkpt>
      <trkpt lat="48.58491" lon="1.87893">
        <ele>141</ele>
        <time>2010-05-15T12:16:39Z</time>
      </trkpt>
      <trkpt lat="48.58492" lon="1.87893">
        <ele>141</ele>
        <time>2010-05-15T12:16:42Z</time>
      </trkpt>
      <trkpt lat="48.58493" lon="1.8789">
        <ele>141</ele>
        <time>2010-05-15T12:16:45Z</time>
      </trkpt>
      <trkpt lat="48.58491" lon="1.87889">
        <ele>141</ele>
        <time>2010-05-15T12:16:50Z</time>
      </trkpt>
      <trkpt lat="48.5849" lon="1.87888">
        <ele>141</ele>
        <time>2010-05-15T12:16:52Z</time>
      </trkpt>
      <trkpt lat="48.58489" lon="1.87887">
        <ele>143</ele>
        <time>2010-05-15T12:16:54Z</time>
      </trkpt>
      <trkpt lat="48.58488" lon="1.87887">
        <ele>146</ele>
        <time>2010-05-15T12:16:58Z</time>
      </trkpt>
      <trkpt lat="48.58487" lon="1.87889">
        <ele>146</ele>
        <time>2010-05-15T12:17:00Z</time>
      </trkpt>
      <trkpt lat="48.58486" lon="1.87892">
        <ele>146</ele>
        <time>2010-05-15T12:17:03Z</time>
      </trkpt>
      <trkpt lat="48.58486" lon="1.8789">
        <ele>149</ele>
        <time>2010-05-15T12:17:08Z</time>
      </trkpt>
      <trkpt lat="48.58487" lon="1.87888">
        <ele>150</ele>
        <time>2010-05-15T12:17:10Z</time>
      </trkpt>
      <trkpt lat="48.58487" lon="1.87885">
        <ele>151</ele>
        <time>2010-05-15T12:17:12Z</time>
      </trkpt>
      <trkpt lat="48.58489" lon="1.87885">
        <ele>152</ele>
        <time>2010-05-15T12:17:15Z</time>
      </trkpt>
      <trkpt lat="48.5849" lon="1.87883">
        <ele>153</ele>
        <time>2010-05-15T12:17:23Z</time>
      </trkpt>
      <trkpt lat="48.5849" lon="1.87881">
        <ele>153</ele>
        <time>2010-05-15T12:17:25Z</time>
      </trkpt>
      <trkpt lat="48.58492" lon="1.87881">
        <ele>153</ele>
        <time>2010-05-15T12:17:27Z</time>
      </trkpt>
      <trkpt lat="48.58493" lon="1.8788">
        <ele>153</ele>
        <time>2010-05-15T12:17:34Z</time>
      </trkpt>
      <trkpt lat="48.58492" lon="1.8788">
        <ele>153</ele>
        <time>2010-05-15T12:17:36Z</time>
      </trkpt>
      <trkpt lat="48.5849" lon="1.87881">
        <ele>153</ele>
        <time>2010-05-15T12:17:39Z</time>
      </trkpt>
      <trkpt lat="48.5849" lon="1.87878">
        <ele>153</ele>
        <time>2010-05-15T12:17:46Z</time>
      </trkpt>
      <trkpt lat="48.5849" lon="1.87877">
        <ele>152</ele>
        <time>2010-05-15T12:17:51Z</time>
      </trkpt>
      <trkpt lat="48.58489" lon="1.87878">
        <ele>151</ele>
        <time>2010-05-15T12:17:56Z</time>
      </trkpt>
      <trkpt lat="48.58489" lon="1.87881">
        <ele>150</ele>
        <time>2010-05-15T12:17:57Z</time>
      </trkpt>
      <trkpt lat="48.5849" lon="1.87879">
        <ele>148</ele>
        <time>2010-05-15T12:18:07Z</time>
      </trkpt>
      <trkpt lat="48.58491" lon="1.87878">
        <ele>148</ele>
        <time>2010-05-15T12:18:09Z</time>
      </trkpt>
      <trkpt lat="48.58492" lon="1.87877">
        <ele>146</ele>
        <time>2010-05-15T12:18:11Z</time>
      </trkpt>
      <trkpt lat="48.58493" lon="1.87877">
        <ele>146</ele>
        <time>2010-05-15T12:18:13Z</time>
      </trkpt>
      <trkpt lat="48.58492" lon="1.87877">
        <ele>146</ele>
        <time>2010-05-15T12:18:18Z</time>
      </trkpt>
      <trkpt lat="48.5849" lon="1.87876">
        <ele>146</ele>
        <time>2010-05-15T12:18:20Z</time>
      </trkpt>
      <trkpt lat="48.58488" lon="1.87875">
        <ele>144</ele>
        <time>2010-05-15T12:18:24Z</time>
      </trkpt>
      <trkpt lat="48.58487" lon="1.87873">
        <ele>144</ele>
        <time>2010-05-15T12:18:28Z</time>
      </trkpt>
      <trkpt lat="48.58488" lon="1.87871">
        <ele>144</ele>
        <time>2010-05-15T12:18:33Z</time>
      </trkpt>
      <trkpt lat="48.58487" lon="1.87869">
        <ele>144</ele>
        <time>2010-05-15T12:18:40Z</time>
      </trkpt>
      <trkpt lat="48.58488" lon="1.87868">
        <ele>144</ele>
        <time>2010-05-15T12:18:47Z</time>
      </trkpt>
      <trkpt lat="48.5849" lon="1.87869">
        <ele>144</ele>
        <time>2010-05-15T12:18:49Z</time>
      </trkpt>
      <trkpt lat="48.58492" lon="1.87869">
        <ele>146</ele>
        <time>2010-05-15T12:18:58Z</time>
      </trkpt>
      <trkpt lat="48.58493" lon="1.87871">
        <ele>146</ele>
        <time>2010-05-15T12:19:03Z</time>
      </trkpt>
      <trkpt lat="48.58494" lon="1.87871">
        <ele>145</ele>
        <time>2010-05-15T12:19:13Z</time>
      </trkpt>
      <trkpt lat="48.58493" lon="1.87871">
        <ele>145</ele>
        <time>2010-05-15T12:19:24Z</time>
      </trkpt>
      <trkpt lat="48.58491" lon="1.87869">
        <ele>145</ele>
        <time>2010-05-15T12:19:34Z</time>
      </trkpt>
      <trkpt lat="48.5849" lon="1.87868">
        <ele>145</ele>
        <time>2010-05-15T12:19:36Z</time>
      </trkpt>
      <trkpt lat="48.58491" lon="1.87869">
        <ele>145</ele>
        <time>2010-05-15T12:19:43Z</time>
      </trkpt>
      <trkpt lat="48.58492" lon="1.87871">
        <ele>140</ele>
        <time>2010-05-15T12:19:50Z</time>
      </trkpt>
      <trkpt lat="48.58493" lon="1.87872">
        <ele>138</ele>
        <time>2010-05-15T12:19:54Z</time>
      </trkpt>
      <trkpt lat="48.58493" lon="1.87873">
        <ele>136</ele>
        <time>2010-05-15T12:20:03Z</time>
      </trkpt>
      <trkpt lat="48.58493" lon="1.87875">
        <ele>136</ele>
        <time>2010-05-15T12:20:06Z</time>
      </trkpt>
      <trkpt lat="48.58493" lon="1.87877">
        <ele>136</ele>
        <time>2010-05-15T12:20:09Z</time>
      </trkpt>
      <trkpt lat="48.58491" lon="1.87877">
        <ele>135</ele>
        <time>2010-05-15T12:20:11Z</time>
      </trkpt>
      <trkpt lat="48.58489" lon="1.87876">
        <ele>134</ele>
        <time>2010-05-15T12:20:14Z</time>
      </trkpt>
      <trkpt lat="48.58488" lon="1.87875">
        <ele>134</ele>
        <time>2010-05-15T12:20:17Z</time>
      </trkpt>
      <trkpt lat="48.58487" lon="1.87874">
        <ele>134</ele>
        <time>2010-05-15T12:20:21Z</time>
      </trkpt>
      <trkpt lat="48.58485" lon="1.87874">
        <ele>135</ele>
        <time>2010-05-15T12:20:24Z</time>
      </trkpt>
      <trkpt lat="48.58484" lon="1.87874">
        <ele>135</ele>
        <time>2010-05-15T12:20:27Z</time>
      </trkpt>
      <trkpt lat="48.58482" lon="1.87874">
        <ele>135</ele>
        <time>2010-05-15T12:20:30Z</time>
      </trkpt>
      <trkpt lat="48.58481" lon="1.87872">
        <ele>135</ele>
        <time>2010-05-15T12:20:33Z</time>
      </trkpt>
      <trkpt lat="48.58482" lon="1.87872">
        <ele>138</ele>
        <time>2010-05-15T12:20:37Z</time>
      </trkpt>
      <trkpt lat="48.58484" lon="1.87871">
        <ele>140</ele>
        <time>2010-05-15T12:20:39Z</time>
      </trkpt>
      <trkpt lat="48.58485" lon="1.87873">
        <ele>147</ele>
        <time>2010-05-15T12:20:46Z</time>
      </trkpt>
      <trkpt lat="48.58484" lon="1.87872">
        <ele>148</ele>
        <time>2010-05-15T12:20:59Z</time>
      </trkpt>
      <trkpt lat="48.58483" lon="1.8787">
        <ele>147</ele>
        <time>2010-05-15T12:21:01Z</time>
      </trkpt>
      <trkpt lat="48.58483" lon="1.87872">
        <ele>145</ele>
        <time>2010-05-15T12:21:05Z</time>
      </trkpt>
      <trkpt lat="48.58484" lon="1.87873">
        <ele>143</ele>
        <time>2010-05-15T12:21:09Z</time>
      </trkpt>
      <trkpt lat="48.58485" lon="1.87874">
        <ele>143</ele>
        <time>2010-05-15T12:21:12Z</time>
      </trkpt>
      <trkpt lat="48.58485" lon="1.87871">
        <ele>143</ele>
        <time>2010-05-15T12:21:15Z</time>
      </trkpt>
      <trkpt lat="48.58483" lon="1.87869">
        <ele>143</ele>
        <time>2010-05-15T12:21:17Z</time>
      </trkpt>
      <trkpt lat="48.58483" lon="1.87866">
        <ele>143</ele>
        <time>2010-05-15T12:21:19Z</time>
      </trkpt>
      <trkpt lat="48.58482" lon="1.87865">
        <ele>143</ele>
        <time>2010-05-15T12:21:22Z</time>
      </trkpt>
      <trkpt lat="48.5848" lon="1.87865">
        <ele>143</ele>
        <time>2010-05-15T12:21:23Z</time>
      </trkpt>
      <trkpt lat="48.58481" lon="1.87867">
        <ele>143</ele>
        <time>2010-05-15T12:21:27Z</time>
      </trkpt>
      <trkpt lat="48.58482" lon="1.87867">
        <ele>142</ele>
        <time>2010-05-15T12:21:32Z</time>
      </trkpt>
      <trkpt lat="48.58483" lon="1.87868">
        <ele>142</ele>
        <time>2010-05-15T12:21:35Z</time>
      </trkpt>
      <trkpt lat="48.58484" lon="1.8787">
        <ele>142</ele>
        <time>2010-05-15T12:21:40Z</time>
      </trkpt>
      <trkpt lat="48.58483" lon="1.87869">
        <ele>142</ele>
        <time>2010-05-15T12:21:50Z</time>
      </trkpt>
      <trkpt lat="48.58482" lon="1.87869">
        <ele>142</ele>
        <time>2010-05-15T12:21:53Z</time>
      </trkpt>
      <trkpt lat="48.58481" lon="1.8787">
        <ele>140</ele>
        <time>2010-05-15T12:21:55Z</time>
      </trkpt>
      <trkpt lat="48.58479" lon="1.8787">
        <ele>139</ele>
        <time>2010-05-15T12:21:57Z</time>
      </trkpt>
      <trkpt lat="48.58479" lon="1.87872">
        <ele>135</ele>
        <time>2010-05-15T12:22:02Z</time>
      </trkpt>
      <trkpt lat="48.5848" lon="1.87873">
        <ele>135</ele>
        <time>2010-05-15T12:22:06Z</time>
      </trkpt>
      <trkpt lat="48.58481" lon="1.87874">
        <ele>135</ele>
        <time>2010-05-15T12:22:08Z</time>
      </trkpt>
      <trkpt lat="48.58482" lon="1.87875">
        <ele>135</ele>
        <time>2010-05-15T12:22:10Z</time>
      </trkpt>
      <trkpt lat="48.58484" lon="1.87877">
        <ele>135</ele>
        <time>2010-05-15T12:22:12Z</time>
      </trkpt>
      <trkpt lat="48.58486" lon="1.87878">
        <ele>135</ele>
        <time>2010-05-15T12:22:14Z</time>
      </trkpt>
      <trkpt lat="48.58487" lon="1.87877">
        <ele>135</ele>
        <time>2010-05-15T12:22:17Z</time>
      </trkpt>
      <trkpt lat="48.58489" lon="1.87877">
        <ele>135</ele>
        <time>2010-05-15T12:22:20Z</time>
      </trkpt>
      <trkpt lat="48.58491" lon="1.87878">
        <ele>137</ele>
        <time>2010-05-15T12:22:22Z</time>
      </trkpt>
      <trkpt lat="48.58492" lon="1.87878">
        <ele>138</ele>
        <time>2010-05-15T12:22:23Z</time>
      </trkpt>
      <trkpt lat="48.58494" lon="1.87879">
        <ele>145</ele>
        <time>2010-05-15T12:22:30Z</time>
      </trkpt>
      <trkpt lat="48.58495" lon="1.87879">
        <ele>147</ele>
        <time>2010-05-15T12:22:32Z</time>
      </trkpt>
      <trkpt lat="48.58496" lon="1.87879">
        <ele>148</ele>
        <time>2010-05-15T12:22:34Z</time>
      </trkpt>
      <trkpt lat="48.58497" lon="1.87879">
        <ele>149</ele>
        <time>2010-05-15T12:22:37Z</time>
      </trkpt>
      <trkpt lat="48.58499" lon="1.87879">
        <ele>149</ele>
        <time>2010-05-15T12:22:41Z</time>
      </trkpt>
      <trkpt lat="48.58499" lon="1.87877">
        <ele>149</ele>
        <time>2010-05-15T12:22:48Z</time>
      </trkpt>
      <trkpt lat="48.58498" lon="1.87875">
        <ele>150</ele>
        <time>2010-05-15T12:22:54Z</time>
      </trkpt>
      <trkpt lat="48.58497" lon="1.87874">
        <ele>153</ele>
        <time>2010-05-15T12:22:59Z</time>
      </trkpt>
      <trkpt lat="48.58496" lon="1.87875">
        <ele>154</ele>
        <time>2010-05-15T12:23:10Z</time>
      </trkpt>
      <trkpt lat="48.58494" lon="1.87875">
        <ele>154</ele>
        <time>2010-05-15T12:23:12Z</time>
      </trkpt>
      <trkpt lat="48.58493" lon="1.87874">
        <ele>155</ele>
        <time>2010-05-15T12:23:14Z</time>
      </trkpt>
      <trkpt lat="48.58494" lon="1.87874">
        <ele>156</ele>
        <time>2010-05-15T12:23:18Z</time>
      </trkpt>
      <trkpt lat="48.58493" lon="1.87872">
        <ele>156</ele>
        <time>2010-05-15T12:23:22Z</time>
      </trkpt>
      <trkpt lat="48.58492" lon="1.87871">
        <ele>156</ele>
        <time>2010-05-15T12:23:26Z</time>
      </trkpt>
      <trkpt lat="48.58493" lon="1.87872">
        <ele>156</ele>
        <time>2010-05-15T12:23:28Z</time>
      </trkpt>
      <trkpt lat="48.58494" lon="1.87872">
        <ele>156</ele>
        <time>2010-05-15T12:23:31Z</time>
      </trkpt>
      <trkpt lat="48.58493" lon="1.87871">
        <ele>156</ele>
        <time>2010-05-15T12:23:35Z</time>
      </trkpt>
      <trkpt lat="48.58492" lon="1.87872">
        <ele>155</ele>
        <time>2010-05-15T12:23:38Z</time>
      </trkpt>
      <trkpt lat="48.5849" lon="1.87873">
        <ele>154</ele>
        <time>2010-05-15T12:23:40Z</time>
      </trkpt>
      <trkpt lat="48.58489" lon="1.87873">
        <ele>154</ele>
        <time>2010-05-15T12:23:44Z</time>
      </trkpt>
      <trkpt lat="48.58487" lon="1.87873">
        <ele>152</ele>
        <time>2010-05-15T12:23:49Z</time>
      </trkpt>
      <trkpt lat="48.58486" lon="1.87873">
        <ele>151</ele>
        <time>2010-05-15T12:23:51Z</time>
      </trkpt>
      <trkpt lat="48.58484" lon="1.87873">
        <ele>148</ele>
        <time>2010-05-15T12:23:56Z</time>
      </trkpt>
      <trkpt lat="48.58483" lon="1.87873">
        <ele>148</ele>
        <time>2010-05-15T12:24:01Z</time>
      </trkpt>
      <trkpt lat="48.58482" lon="1.87873">
        <ele>148</ele>
        <time>2010-05-15T12:24:03Z</time>
      </trkpt>
      <trkpt lat="48.58481" lon="1.87876">
        <ele>148</ele>
        <time>2010-05-15T12:24:09Z</time>
      </trkpt>
      <trkpt lat="48.58482" lon="1.87878">
        <ele>148</ele>
        <time>2010-05-15T12:24:12Z</time>
      </trkpt>
      <trkpt lat="48.58486" lon="1.87878">
        <ele>148</ele>
        <time>2010-05-15T12:24:14Z</time>
      </trkpt>
      <trkpt lat="48.58487" lon="1.87878">
        <ele>148</ele>
        <time>2010-05-15T12:24:15Z</time>
      </trkpt>
      <trkpt lat="48.58489" lon="1.87879">
        <ele>148</ele>
        <time>2010-05-15T12:24:16Z</time>
      </trkpt>
      <trkpt lat="48.58491" lon="1.87877">
        <ele>148</ele>
        <time>2010-05-15T12:24:18Z</time>
      </trkpt>
      <trkpt lat="48.58492" lon="1.87876">
        <ele>148</ele>
        <time>2010-05-15T12:24:21Z</time>
      </trkpt>
      <trkpt lat="48.58494" lon="1.87875">
        <ele>148</ele>
        <time>2010-05-15T12:24:23Z</time>
      </trkpt>
      <trkpt lat="48.58495" lon="1.87874">
        <ele>148</ele>
        <time>2010-05-15T12:24:24Z</time>
      </trkpt>
      <trkpt lat="48.58496" lon="1.87873">
        <ele>149</ele>
        <time>2010-05-15T12:24:25Z</time>
      </trkpt>
      <trkpt lat="48.58498" lon="1.87873">
        <ele>149</ele>
        <time>2010-05-15T12:24:26Z</time>
      </trkpt>
      <trkpt lat="48.58499" lon="1.87872">
        <ele>150</ele>
        <time>2010-05-15T12:24:27Z</time>
      </trkpt>
      <trkpt lat="48.58499" lon="1.8787">
        <ele>151</ele>
        <time>2010-05-15T12:24:28Z</time>
      </trkpt>
      <trkpt lat="48.58501" lon="1.87869">
        <ele>151</ele>
        <time>2010-05-15T12:24:29Z</time>
      </trkpt>
      <trkpt lat="48.58503" lon="1.87867">
        <ele>153</ele>
        <time>2010-05-15T12:24:31Z</time>
      </trkpt>
      <trkpt lat="48.58504" lon="1.87865">
        <ele>153</ele>
        <time>2010-05-15T12:24:33Z</time>
      </trkpt>
      <trkpt lat="48.58505" lon="1.87863">
        <ele>153</ele>
        <time>2010-05-15T12:24:35Z</time>
      </trkpt>
      <trkpt lat="48.58507" lon="1.8786">
        <ele>153</ele>
        <time>2010-05-15T12:24:37Z</time>
      </trkpt>
      <trkpt lat="48.58508" lon="1.87859">
        <ele>153</ele>
        <time>2010-05-15T12:24:39Z</time>
      </trkpt>
      <trkpt lat="48.58509" lon="1.87857">
        <ele>153</ele>
        <time>2010-05-15T12:24:41Z</time>
      </trkpt>
      <trkpt lat="48.5851" lon="1.87856">
        <ele>153</ele>
        <time>2010-05-15T12:24:43Z</time>
      </trkpt>
      <trkpt lat="48.58512" lon="1.87856">
        <ele>153</ele>
        <time>2010-05-15T12:24:44Z</time>
      </trkpt>
      <trkpt lat="48.58513" lon="1.87854">
        <ele>153</ele>
        <time>2010-05-15T12:24:45Z</time>
      </trkpt>
      <trkpt lat="48.58515" lon="1.87852">
        <ele>153</ele>
        <time>2010-05-15T12:24:46Z</time>
      </trkpt>
      <trkpt lat="48.58516" lon="1.8785">
        <ele>153</ele>
        <time>2010-05-15T12:24:47Z</time>
      </trkpt>
      <trkpt lat="48.58517" lon="1.87848">
        <ele>153</ele>
        <time>2010-05-15T12:24:48Z</time>
      </trkpt>
      <trkpt lat="48.58519" lon="1.87846">
        <ele>153</ele>
        <time>2010-05-15T12:24:49Z</time>
      </trkpt>
      <trkpt lat="48.5852" lon="1.87845">
        <ele>153</ele>
        <time>2010-05-15T12:24:50Z</time>
      </trkpt>
      <trkpt lat="48.58521" lon="1.87843">
        <ele>153</ele>
        <time>2010-05-15T12:24:51Z</time>
      </trkpt>
      <trkpt lat="48.58523" lon="1.8784">
        <ele>154</ele>
        <time>2010-05-15T12:24:53Z</time>
      </trkpt>
      <trkpt lat="48.58525" lon="1.87837">
        <ele>154</ele>
        <time>2010-05-15T12:24:55Z</time>
      </trkpt>
      <trkpt lat="48.58527" lon="1.87836">
        <ele>154</ele>
        <time>2010-05-15T12:24:57Z</time>
      </trkpt>
      <trkpt lat="48.58529" lon="1.87834">
        <ele>156</ele>
        <time>2010-05-15T12:24:59Z</time>
      </trkpt>
      <trkpt lat="48.5853" lon="1.87833">
        <ele>156</ele>
        <time>2010-05-15T12:25:00Z</time>
      </trkpt>
      <trkpt lat="48.58531" lon="1.87832">
        <ele>156</ele>
        <time>2010-05-15T12:25:01Z</time>
      </trkpt>
      <trkpt lat="48.58533" lon="1.87831">
        <ele>156</ele>
        <time>2010-05-15T12:25:03Z</time>
      </trkpt>
      <trkpt lat="48.58535" lon="1.8783">
        <ele>157</ele>
        <time>2010-05-15T12:25:06Z</time>
      </trkpt>
      <trkpt lat="48.58537" lon="1.87828">
        <ele>158</ele>
        <time>2010-05-15T12:25:08Z</time>
      </trkpt>
      <trkpt lat="48.58537" lon="1.87826">
        <ele>158</ele>
        <time>2010-05-15T12:25:09Z</time>
      </trkpt>
      <trkpt lat="48.58538" lon="1.87823">
        <ele>158</ele>
        <time>2010-05-15T12:25:11Z</time>
      </trkpt>
      <trkpt lat="48.58539" lon="1.87821">
        <ele>158</ele>
        <time>2010-05-15T12:25:12Z</time>
      </trkpt>
      <trkpt lat="48.58541" lon="1.87818">
        <ele>158</ele>
        <time>2010-05-15T12:25:13Z</time>
      </trkpt>
      <trkpt lat="48.58543" lon="1.87815">
        <ele>158</ele>
        <time>2010-05-15T12:25:15Z</time>
      </trkpt>
      <trkpt lat="48.58544" lon="1.87813">
        <ele>158</ele>
        <time>2010-05-15T12:25:16Z</time>
      </trkpt>
      <trkpt lat="48.58544" lon="1.87811">
        <ele>158</ele>
        <time>2010-05-15T12:25:17Z</time>
      </trkpt>
      <trkpt lat="48.58546" lon="1.87808">
        <ele>158</ele>
        <time>2010-05-15T12:25:19Z</time>
      </trkpt>
      <trkpt lat="48.58547" lon="1.87806">
        <ele>158</ele>
        <time>2010-05-15T12:25:20Z</time>
      </trkpt>
      <trkpt lat="48.58548" lon="1.87805">
        <ele>158</ele>
        <time>2010-05-15T12:25:21Z</time>
      </trkpt>
      <trkpt lat="48.58548" lon="1.87803">
        <ele>158</ele>
        <time>2010-05-15T12:25:22Z</time>
      </trkpt>
      <trkpt lat="48.58549" lon="1.87801">
        <ele>158</ele>
        <time>2010-05-15T12:25:24Z</time>
      </trkpt>
      <trkpt lat="48.5855" lon="1.87799">
        <ele>158</ele>
        <time>2010-05-15T12:25:26Z</time>
      </trkpt>
      <trkpt lat="48.58551" lon="1.87796">
        <ele>160</ele>
        <time>2010-05-15T12:25:28Z</time>
      </trkpt>
      <trkpt lat="48.58551" lon="1.87794">
        <ele>160</ele>
        <time>2010-05-15T12:25:29Z</time>
      </trkpt>
      <trkpt lat="48.58552" lon="1.87791">
        <ele>162</ele>
        <time>2010-05-15T12:25:31Z</time>
      </trkpt>
      <trkpt lat="48.58552" lon="1.87788">
        <ele>162</ele>
        <time>2010-05-15T12:25:32Z</time>
      </trkpt>
      <trkpt lat="48.58553" lon="1.87785">
        <ele>162</ele>
        <time>2010-05-15T12:25:33Z</time>
      </trkpt>
      <trkpt lat="48.58554" lon="1.87781">
        <ele>162</ele>
        <time>2010-05-15T12:25:34Z</time>
      </trkpt>
      <trkpt lat="48.58555" lon="1.87777">
        <ele>162</ele>
        <time>2010-05-15T12:25:35Z</time>
      </trkpt>
      <trkpt lat="48.58556" lon="1.87774">
        <ele>162</ele>
        <time>2010-05-15T12:25:36Z</time>
      </trkpt>
      <trkpt lat="48.58557" lon="1.87771">
        <ele>163</ele>
        <time>2010-05-15T12:25:37Z</time>
      </trkpt>
      <trkpt lat="48.58558" lon="1.87768">
        <ele>164</ele>
        <time>2010-05-15T12:25:38Z</time>
      </trkpt>
      <trkpt lat="48.58558" lon="1.87766">
        <ele>165</ele>
        <time>2010-05-15T12:25:39Z</time>
      </trkpt>
      <trkpt lat="48.58558" lon="1.87764">
        <ele>166</ele>
        <time>2010-05-15T12:25:40Z</time>
      </trkpt>
      <trkpt lat="48.58559" lon="1.87762">
        <ele>166</ele>
        <time>2010-05-15T12:25:41Z</time>
      </trkpt>
      <trkpt lat="48.58559" lon="1.87759">
        <ele>166</ele>
        <time>2010-05-15T12:25:43Z</time>
      </trkpt>
      <trkpt lat="48.5856" lon="1.87758">
        <ele>166</ele>
        <time>2010-05-15T12:25:44Z</time>
      </trkpt>
      <trkpt lat="48.5856" lon="1.87756">
        <ele>166</ele>
        <time>2010-05-15T12:25:45Z</time>
      </trkpt>
      <trkpt lat="48.5856" lon="1.87754">
        <ele>166</ele>
        <time>2010-05-15T12:25:46Z</time>
      </trkpt>
      <trkpt lat="48.58561" lon="1.87752">
        <ele>166</ele>
        <time>2010-05-15T12:25:47Z</time>
      </trkpt>
      <trkpt lat="48.58562" lon="1.8775">
        <ele>166</ele>
        <time>2010-05-15T12:25:48Z</time>
      </trkpt>
      <trkpt lat="48.58563" lon="1.87748">
        <ele>166</ele>
        <time>2010-05-15T12:25:49Z</time>
      </trkpt>
      <trkpt lat="48.58563" lon="1.87746">
        <ele>166</ele>
        <time>2010-05-15T12:25:50Z</time>
      </trkpt>
      <trkpt lat="48.58563" lon="1.87744">
        <ele>166</ele>
        <time>2010-05-15T12:25:51Z</time>
      </trkpt>
      <trkpt lat="48.58564" lon="1.87741">
        <ele>166</ele>
        <time>2010-05-15T12:25:52Z</time>
      </trkpt>
      <trkpt lat="48.58564" lon="1.87739">
        <ele>166</ele>
        <time>2010-05-15T12:25:53Z</time>
      </trkpt>
      <trkpt lat="48.58564" lon="1.87737">
        <ele>166</ele>
        <time>2010-05-15T12:25:54Z</time>
      </trkpt>
      <trkpt lat="48.58565" lon="1.87735">
        <ele>166</ele>
        <time>2010-05-15T12:25:55Z</time>
      </trkpt>
      <trkpt lat="48.58565" lon="1.87733">
        <ele>166</ele>
        <time>2010-05-15T12:25:56Z</time>
      </trkpt>
      <trkpt lat="48.58566" lon="1.87729">
        <ele>166</ele>
        <time>2010-05-15T12:25:58Z</time>
      </trkpt>
      <trkpt lat="48.58567" lon="1.87727">
        <ele>167</ele>
        <time>2010-05-15T12:25:59Z</time>
      </trkpt>
      <trkpt lat="48.58568" lon="1.87726">
        <ele>167</ele>
        <time>2010-05-15T12:26:00Z</time>
      </trkpt>
      <trkpt lat="48.58569" lon="1.87722">
        <ele>167</ele>
        <time>2010-05-15T12:26:02Z</time>
      </trkpt>
      <trkpt lat="48.58571" lon="1.87721">
        <ele>167</ele>
        <time>2010-05-15T12:26:03Z</time>
      </trkpt>
      <trkpt lat="48.58572" lon="1.87719">
        <ele>167</ele>
        <time>2010-05-15T12:26:04Z</time>
      </trkpt>
      <trkpt lat="48.58573" lon="1.87717">
        <ele>167</ele>
        <time>2010-05-15T12:26:05Z</time>
      </trkpt>
      <trkpt lat="48.58574" lon="1.87715">
        <ele>168</ele>
        <time>2010-05-15T12:26:06Z</time>
      </trkpt>
      <trkpt lat="48.58576" lon="1.87713">
        <ele>168</ele>
        <time>2010-05-15T12:26:08Z</time>
      </trkpt>
      <trkpt lat="48.58577" lon="1.87711">
        <ele>168</ele>
        <time>2010-05-15T12:26:09Z</time>
      </trkpt>
      <trkpt lat="48.58578" lon="1.8771">
        <ele>168</ele>
        <time>2010-05-15T12:26:10Z</time>
      </trkpt>
      <trkpt lat="48.5858" lon="1.87708">
        <ele>168</ele>
        <time>2010-05-15T12:26:11Z</time>
      </trkpt>
      <trkpt lat="48.58581" lon="1.87706">
        <ele>168</ele>
        <time>2010-05-15T12:26:12Z</time>
      </trkpt>
      <trkpt lat="48.58584" lon="1.87704">
        <ele>169</ele>
        <time>2010-05-15T12:26:14Z</time>
      </trkpt>
      <trkpt lat="48.58585" lon="1.87703">
        <ele>169</ele>
        <time>2010-05-15T12:26:15Z</time>
      </trkpt>
      <trkpt lat="48.58587" lon="1.87702">
        <ele>169</ele>
        <time>2010-05-15T12:26:16Z</time>
      </trkpt>
      <trkpt lat="48.58588" lon="1.877">
        <ele>169</ele>
        <time>2010-05-15T12:26:17Z</time>
      </trkpt>
      <trkpt lat="48.5859" lon="1.87699">
        <ele>169</ele>
        <time>2010-05-15T12:26:18Z</time>
      </trkpt>
      <trkpt lat="48.58591" lon="1.87698">
        <ele>169</ele>
        <time>2010-05-15T12:26:19Z</time>
      </trkpt>
      <trkpt lat="48.58593" lon="1.87696">
        <ele>169</ele>
        <time>2010-05-15T12:26:21Z</time>
      </trkpt>
      <trkpt lat="48.58595" lon="1.87696">
        <ele>169</ele>
        <time>2010-05-15T12:26:22Z</time>
      </trkpt>
      <trkpt lat="48.58597" lon="1.87694">
        <ele>169</ele>
        <time>2010-05-15T12:26:24Z</time>
      </trkpt>
      <trkpt lat="48.58598" lon="1.87693">
        <ele>169</ele>
        <time>2010-05-15T12:26:25Z</time>
      </trkpt>
      <trkpt lat="48.586" lon="1.87693">
        <ele>169</ele>
        <time>2010-05-15T12:26:26Z</time>
      </trkpt>
      <trkpt lat="48.58601" lon="1.87692">
        <ele>169</ele>
        <time>2010-05-15T12:26:27Z</time>
      </trkpt>
      <trkpt lat="48.58602" lon="1.87692">
        <ele>169</ele>
        <time>2010-05-15T12:26:28Z</time>
      </trkpt>
      <trkpt lat="48.58604" lon="1.87691">
        <ele>169</ele>
        <time>2010-05-15T12:26:30Z</time>
      </trkpt>
      <trkpt lat="48.58605" lon="1.8769">
        <ele>169</ele>
        <time>2010-05-15T12:26:31Z</time>
      </trkpt>
      <trkpt lat="48.58607" lon="1.87689">
        <ele>169</ele>
        <time>2010-05-15T12:26:32Z</time>
      </trkpt>
      <trkpt lat="48.58608" lon="1.87689">
        <ele>169</ele>
        <time>2010-05-15T12:26:33Z</time>
      </trkpt>
      <trkpt lat="48.58609" lon="1.87689">
        <ele>169</ele>
        <time>2010-05-15T12:26:34Z</time>
      </trkpt>
      <trkpt lat="48.58611" lon="1.87689">
        <ele>169</ele>
        <time>2010-05-15T12:26:35Z</time>
      </trkpt>
      <trkpt lat="48.58612" lon="1.87688">
        <ele>169</ele>
        <time>2010-05-15T12:26:36Z</time>
      </trkpt>
      <trkpt lat="48.58614" lon="1.87688">
        <ele>169</ele>
        <time>2010-05-15T12:26:37Z</time>
      </trkpt>
      <trkpt lat="48.58615" lon="1.87687">
        <ele>169</ele>
        <time>2010-05-15T12:26:38Z</time>
      </trkpt>
      <trkpt lat="48.58617" lon="1.87686">
        <ele>169</ele>
        <time>2010-05-15T12:26:39Z</time>
      </trkpt>
      <trkpt lat="48.58618" lon="1.87685">
        <ele>169</ele>
        <time>2010-05-15T12:26:40Z</time>
      </trkpt>
      <trkpt lat="48.58619" lon="1.87685">
        <ele>169</ele>
        <time>2010-05-15T12:26:41Z</time>
      </trkpt>
      <trkpt lat="48.58621" lon="1.87683">
        <ele>169</ele>
        <time>2010-05-15T12:26:42Z</time>
      </trkpt>
      <trkpt lat="48.58623" lon="1.87682">
        <ele>169</ele>
        <time>2010-05-15T12:26:43Z</time>
      </trkpt>
      <trkpt lat="48.58624" lon="1.87681">
        <ele>169</ele>
        <time>2010-05-15T12:26:44Z</time>
      </trkpt>
      <trkpt lat="48.58626" lon="1.87679">
        <ele>168</ele>
        <time>2010-05-15T12:26:45Z</time>
      </trkpt>
      <trkpt lat="48.58627" lon="1.87679">
        <ele>167</ele>
        <time>2010-05-15T12:26:46Z</time>
      </trkpt>
      <trkpt lat="48.58629" lon="1.87678">
        <ele>167</ele>
        <time>2010-05-15T12:26:47Z</time>
      </trkpt>
      <trkpt lat="48.5863" lon="1.87677">
        <ele>166</ele>
        <time>2010-05-15T12:26:48Z</time>
      </trkpt>
      <trkpt lat="48.58632" lon="1.87676">
        <ele>166</ele>
        <time>2010-05-15T12:26:49Z</time>
      </trkpt>
      <trkpt lat="48.58633" lon="1.87676">
        <ele>166</ele>
        <time>2010-05-15T12:26:50Z</time>
      </trkpt>
      <trkpt lat="48.58635" lon="1.87675">
        <ele>166</ele>
        <time>2010-05-15T12:26:51Z</time>
      </trkpt>
      <trkpt lat="48.58636" lon="1.87675">
        <ele>166</ele>
        <time>2010-05-15T12:26:52Z</time>
      </trkpt>
      <trkpt lat="48.58637" lon="1.87674">
        <ele>166</ele>
        <time>2010-05-15T12:26:53Z</time>
      </trkpt>
      <trkpt lat="48.58639" lon="1.87674">
        <ele>166</ele>
        <time>2010-05-15T12:26:54Z</time>
      </trkpt>
      <trkpt lat="48.5864" lon="1.87674">
        <ele>166</ele>
        <time>2010-05-15T12:26:55Z</time>
      </trkpt>
      <trkpt lat="48.58642" lon="1.87674">
        <ele>166</ele>
        <time>2010-05-15T12:26:56Z</time>
      </trkpt>
      <trkpt lat="48.58643" lon="1.87674">
        <ele>166</ele>
        <time>2010-05-15T12:26:57Z</time>
      </trkpt>
      <trkpt lat="48.58645" lon="1.87673">
        <ele>166</ele>
        <time>2010-05-15T12:26:58Z</time>
      </trkpt>
      <trkpt lat="48.58647" lon="1.87673">
        <ele>166</ele>
        <time>2010-05-15T12:26:59Z</time>
      </trkpt>
      <trkpt lat="48.58648" lon="1.87672">
        <ele>166</ele>
        <time>2010-05-15T12:27:00Z</time>
      </trkpt>
      <trkpt lat="48.5865" lon="1.87672">
        <ele>165</ele>
        <time>2010-05-15T12:27:01Z</time>
      </trkpt>
      <trkpt lat="48.58652" lon="1.87673">
        <ele>165</ele>
        <time>2010-05-15T12:27:02Z</time>
      </trkpt>
      <trkpt lat="48.58654" lon="1.87672">
        <ele>165</ele>
        <time>2010-05-15T12:27:03Z</time>
      </trkpt>
      <trkpt lat="48.58656" lon="1.87672">
        <ele>165</ele>
        <time>2010-05-15T12:27:04Z</time>
      </trkpt>
      <trkpt lat="48.58657" lon="1.87672">
        <ele>165</ele>
        <time>2010-05-15T12:27:05Z</time>
      </trkpt>
      <trkpt lat="48.58659" lon="1.87671">
        <ele>165</ele>
        <time>2010-05-15T12:27:06Z</time>
      </trkpt>
      <trkpt lat="48.58661" lon="1.87671">
        <ele>165</ele>
        <time>2010-05-15T12:27:07Z</time>
      </trkpt>
      <trkpt lat="48.58662" lon="1.87671">
        <ele>165</ele>
        <time>2010-05-15T12:27:08Z</time>
      </trkpt>
      <trkpt lat="48.58664" lon="1.87671">
        <ele>165</ele>
        <time>2010-05-15T12:27:09Z</time>
      </trkpt>
      <trkpt lat="48.58665" lon="1.87671">
        <ele>165</ele>
        <time>2010-05-15T12:27:10Z</time>
      </trkpt>
      <trkpt lat="48.58667" lon="1.87671">
        <ele>164</ele>
        <time>2010-05-15T12:27:11Z</time>
      </trkpt>
      <trkpt lat="48.58669" lon="1.8767">
        <ele>164</ele>
        <time>2010-05-15T12:27:12Z</time>
      </trkpt>
      <trkpt lat="48.5867" lon="1.8767">
        <ele>164</ele>
        <time>2010-05-15T12:27:13Z</time>
      </trkpt>
      <trkpt lat="48.58672" lon="1.87669">
        <ele>164</ele>
        <time>2010-05-15T12:27:14Z</time>
      </trkpt>
      <trkpt lat="48.58674" lon="1.87669">
        <ele>164</ele>
        <time>2010-05-15T12:27:15Z</time>
      </trkpt>
      <trkpt lat="48.58675" lon="1.87669">
        <ele>164</ele>
        <time>2010-05-15T12:27:16Z</time>
      </trkpt>
      <trkpt lat="48.58677" lon="1.87669">
        <ele>164</ele>
        <time>2010-05-15T12:27:17Z</time>
      </trkpt>
      <trkpt lat="48.58679" lon="1.87668">
        <ele>164</ele>
        <time>2010-05-15T12:27:18Z</time>
      </trkpt>
      <trkpt lat="48.5868" lon="1.87668">
        <ele>164</ele>
        <time>2010-05-15T12:27:19Z</time>
      </trkpt>
      <trkpt lat="48.58681" lon="1.87668">
        <ele>164</ele>
        <time>2010-05-15T12:27:20Z</time>
      </trkpt>
      <trkpt lat="48.58683" lon="1.87668">
        <ele>164</ele>
        <time>2010-05-15T12:27:21Z</time>
      </trkpt>
      <trkpt lat="48.58685" lon="1.87668">
        <ele>164</ele>
        <time>2010-05-15T12:27:22Z</time>
      </trkpt>
      <trkpt lat="48.58686" lon="1.87668">
        <ele>164</ele>
        <time>2010-05-15T12:27:23Z</time>
      </trkpt>
      <trkpt lat="48.58688" lon="1.87667">
        <ele>164</ele>
        <time>2010-05-15T12:27:24Z</time>
      </trkpt>
      <trkpt lat="48.58689" lon="1.87667">
        <ele>164</ele>
        <time>2010-05-15T12:27:25Z</time>
      </trkpt>
      <trkpt lat="48.58691" lon="1.87667">
        <ele>164</ele>
        <time>2010-05-15T12:27:26Z</time>
      </trkpt>
      <trkpt lat="48.58692" lon="1.87667">
        <ele>164</ele>
        <time>2010-05-15T12:27:27Z</time>
      </trkpt>
      <trkpt lat="48.58694" lon="1.87667">
        <ele>164</ele>
        <time>2010-05-15T12:27:28Z</time>
      </trkpt>
      <trkpt lat="48.58695" lon="1.87666">
        <ele>164</ele>
        <time>2010-05-15T12:27:29Z</time>
      </trkpt>
      <trkpt lat="48.58696" lon="1.87666">
        <ele>164</ele>
        <time>2010-05-15T12:27:30Z</time>
      </trkpt>
      <trkpt lat="48.58698" lon="1.87665">
        <ele>164</ele>
        <time>2010-05-15T12:27:31Z</time>
      </trkpt>
      <trkpt lat="48.58699" lon="1.87665">
        <ele>164</ele>
        <time>2010-05-15T12:27:32Z</time>
      </trkpt>
      <trkpt lat="48.58701" lon="1.87665">
        <ele>164</ele>
        <time>2010-05-15T12:27:33Z</time>
      </trkpt>
      <trkpt lat="48.58703" lon="1.87665">
        <ele>164</ele>
        <time>2010-05-15T12:27:34Z</time>
      </trkpt>
      <trkpt lat="48.58704" lon="1.87665">
        <ele>164</ele>
        <time>2010-05-15T12:27:35Z</time>
      </trkpt>
      <trkpt lat="48.58706" lon="1.87664">
        <ele>164</ele>
        <time>2010-05-15T12:27:36Z</time>
      </trkpt>
      <trkpt lat="48.58707" lon="1.87664">
        <ele>164</ele>
        <time>2010-05-15T12:27:37Z</time>
      </trkpt>
      <trkpt lat="48.58708" lon="1.87663">
        <ele>164</ele>
        <time>2010-05-15T12:27:38Z</time>
      </trkpt>
      <trkpt lat="48.58709" lon="1.87663">
        <ele>164</ele>
        <time>2010-05-15T12:27:39Z</time>
      </trkpt>
      <trkpt lat="48.58711" lon="1.87662">
        <ele>164</ele>
        <time>2010-05-15T12:27:41Z</time>
      </trkpt>
      <trkpt lat="48.58712" lon="1.87662">
        <ele>164</ele>
        <time>2010-05-15T12:27:42Z</time>
      </trkpt>
      <trkpt lat="48.58713" lon="1.87661">
        <ele>164</ele>
        <time>2010-05-15T12:27:43Z</time>
      </trkpt>
      <trkpt lat="48.58715" lon="1.87661">
        <ele>164</ele>
        <time>2010-05-15T12:27:44Z</time>
      </trkpt>
      <trkpt lat="48.58716" lon="1.87661">
        <ele>164</ele>
        <time>2010-05-15T12:27:45Z</time>
      </trkpt>
      <trkpt lat="48.58717" lon="1.8766">
        <ele>164</ele>
        <time>2010-05-15T12:27:47Z</time>
      </trkpt>
      <trkpt lat="48.5872" lon="1.87659">
        <ele>164</ele>
        <time>2010-05-15T12:27:49Z</time>
      </trkpt>
      <trkpt lat="48.58721" lon="1.87658">
        <ele>164</ele>
        <time>2010-05-15T12:27:50Z</time>
      </trkpt>
      <trkpt lat="48.58723" lon="1.87658">
        <ele>164</ele>
        <time>2010-05-15T12:27:51Z</time>
      </trkpt>
      <trkpt lat="48.58725" lon="1.87659">
        <ele>164</ele>
        <time>2010-05-15T12:27:52Z</time>
      </trkpt>
      <trkpt lat="48.58727" lon="1.8766">
        <ele>164</ele>
        <time>2010-05-15T12:27:53Z</time>
      </trkpt>
      <trkpt lat="48.58728" lon="1.8766">
        <ele>164</ele>
        <time>2010-05-15T12:27:54Z</time>
      </trkpt>
      <trkpt lat="48.58729" lon="1.87661">
        <ele>164</ele>
        <time>2010-05-15T12:27:55Z</time>
      </trkpt>
      <trkpt lat="48.58731" lon="1.87661">
        <ele>164</ele>
        <time>2010-05-15T12:27:56Z</time>
      </trkpt>
      <trkpt lat="48.58732" lon="1.87661">
        <ele>164</ele>
        <time>2010-05-15T12:27:57Z</time>
      </trkpt>
      <trkpt lat="48.58734" lon="1.87661">
        <ele>164</ele>
        <time>2010-05-15T12:27:58Z</time>
      </trkpt>
      <trkpt lat="48.58736" lon="1.87662">
        <ele>164</ele>
        <time>2010-05-15T12:28:00Z</time>
      </trkpt>
      <trkpt lat="48.58738" lon="1.87663">
        <ele>164</ele>
        <time>2010-05-15T12:28:02Z</time>
      </trkpt>
      <trkpt lat="48.58739" lon="1.87663">
        <ele>164</ele>
        <time>2010-05-15T12:28:03Z</time>
      </trkpt>
      <trkpt lat="48.5874" lon="1.87663">
        <ele>164</ele>
        <time>2010-05-15T12:28:04Z</time>
      </trkpt>
      <trkpt lat="48.58742" lon="1.87662">
        <ele>164</ele>
        <time>2010-05-15T12:28:05Z</time>
      </trkpt>
      <trkpt lat="48.58743" lon="1.87662">
        <ele>164</ele>
        <time>2010-05-15T12:28:06Z</time>
      </trkpt>
      <trkpt lat="48.58745" lon="1.87662">
        <ele>164</ele>
        <time>2010-05-15T12:28:08Z</time>
      </trkpt>
      <trkpt lat="48.58747" lon="1.87662">
        <ele>164</ele>
        <time>2010-05-15T12:28:09Z</time>
      </trkpt>
      <trkpt lat="48.58749" lon="1.87663">
        <ele>164</ele>
        <time>2010-05-15T12:28:10Z</time>
      </trkpt>
      <trkpt lat="48.5875" lon="1.87663">
        <ele>164</ele>
        <time>2010-05-15T12:28:11Z</time>
      </trkpt>
      <trkpt lat="48.58752" lon="1.87663">
        <ele>164</ele>
        <time>2010-05-15T12:28:12Z</time>
      </trkpt>
      <trkpt lat="48.58754" lon="1.87663">
        <ele>164</ele>
        <time>2010-05-15T12:28:13Z</time>
      </trkpt>
      <trkpt lat="48.58756" lon="1.87663">
        <ele>164</ele>
        <time>2010-05-15T12:28:14Z</time>
      </trkpt>
      <trkpt lat="48.58758" lon="1.87662">
        <ele>164</ele>
        <time>2010-05-15T12:28:15Z</time>
      </trkpt>
      <trkpt lat="48.5876" lon="1.87662">
        <ele>164</ele>
        <time>2010-05-15T12:28:16Z</time>
      </trkpt>
      <trkpt lat="48.58762" lon="1.87661">
        <ele>164</ele>
        <time>2010-05-15T12:28:17Z</time>
      </trkpt>
      <trkpt lat="48.58764" lon="1.8766">
        <ele>164</ele>
        <time>2010-05-15T12:28:18Z</time>
      </trkpt>
      <trkpt lat="48.58766" lon="1.87659">
        <ele>164</ele>
        <time>2010-05-15T12:28:19Z</time>
      </trkpt>
      <trkpt lat="48.58768" lon="1.87659">
        <ele>164</ele>
        <time>2010-05-15T12:28:20Z</time>
      </trkpt>
      <trkpt lat="48.5877" lon="1.87659">
        <ele>164</ele>
        <time>2010-05-15T12:28:21Z</time>
      </trkpt>
      <trkpt lat="48.58771" lon="1.87658">
        <ele>164</ele>
        <time>2010-05-15T12:28:22Z</time>
      </trkpt>
      <trkpt lat="48.58774" lon="1.87658">
        <ele>164</ele>
        <time>2010-05-15T12:28:23Z</time>
      </trkpt>
      <trkpt lat="48.58775" lon="1.87658">
        <ele>164</ele>
        <time>2010-05-15T12:28:24Z</time>
      </trkpt>
      <trkpt lat="48.58777" lon="1.87659">
        <ele>164</ele>
        <time>2010-05-15T12:28:25Z</time>
      </trkpt>
      <trkpt lat="48.58779" lon="1.87658">
        <ele>164</ele>
        <time>2010-05-15T12:28:26Z</time>
      </trkpt>
      <trkpt lat="48.58781" lon="1.87657">
        <ele>164</ele>
        <time>2010-05-15T12:28:27Z</time>
      </trkpt>
      <trkpt lat="48.58783" lon="1.87657">
        <ele>164</ele>
        <time>2010-05-15T12:28:28Z</time>
      </trkpt>
      <trkpt lat="48.58784" lon="1.87656">
        <ele>164</ele>
        <time>2010-05-15T12:28:29Z</time>
      </trkpt>
      <trkpt lat="48.58786" lon="1.87655">
        <ele>164</ele>
        <time>2010-05-15T12:28:30Z</time>
      </trkpt>
      <trkpt lat="48.58788" lon="1.87655">
        <ele>164</ele>
        <time>2010-05-15T12:28:31Z</time>
      </trkpt>
      <trkpt lat="48.5879" lon="1.87654">
        <ele>164</ele>
        <time>2010-05-15T12:28:32Z</time>
      </trkpt>
      <trkpt lat="48.58792" lon="1.87654">
        <ele>164</ele>
        <time>2010-05-15T12:28:33Z</time>
      </trkpt>
      <trkpt lat="48.58794" lon="1.87653">
        <ele>164</ele>
        <time>2010-05-15T12:28:34Z</time>
      </trkpt>
      <trkpt lat="48.58795" lon="1.87653">
        <ele>164</ele>
        <time>2010-05-15T12:28:35Z</time>
      </trkpt>
      <trkpt lat="48.58797" lon="1.87652">
        <ele>164</ele>
        <time>2010-05-15T12:28:36Z</time>
      </trkpt>
      <trkpt lat="48.58799" lon="1.87652">
        <ele>164</ele>
        <time>2010-05-15T12:28:37Z</time>
      </trkpt>
      <trkpt lat="48.58801" lon="1.87652">
        <ele>164</ele>
        <time>2010-05-15T12:28:38Z</time>
      </trkpt>
      <trkpt lat="48.58802" lon="1.87652">
        <ele>164</ele>
        <time>2010-05-15T12:28:39Z</time>
      </trkpt>
      <trkpt lat="48.58804" lon="1.87652">
        <ele>164</ele>
        <time>2010-05-15T12:28:40Z</time>
      </trkpt>
      <trkpt lat="48.58806" lon="1.87651">
        <ele>164</ele>
        <time>2010-05-15T12:28:41Z</time>
      </trkpt>
      <trkpt lat="48.58807" lon="1.87651">
        <ele>164</ele>
        <time>2010-05-15T12:28:42Z</time>
      </trkpt>
      <trkpt lat="48.58809" lon="1.87651">
        <ele>164</ele>
        <time>2010-05-15T12:28:43Z</time>
      </trkpt>
      <trkpt lat="48.5881" lon="1.8765">
        <ele>164</ele>
        <time>2010-05-15T12:28:44Z</time>
      </trkpt>
      <trkpt lat="48.58812" lon="1.8765">
        <ele>164</ele>
        <time>2010-05-15T12:28:45Z</time>
      </trkpt>
      <trkpt lat="48.58814" lon="1.8765">
        <ele>164</ele>
        <time>2010-05-15T12:28:46Z</time>
      </trkpt>
      <trkpt lat="48.58815" lon="1.8765">
        <ele>164</ele>
        <time>2010-05-15T12:28:47Z</time>
      </trkpt>
      <trkpt lat="48.58817" lon="1.8765">
        <ele>164</ele>
        <time>2010-05-15T12:28:48Z</time>
      </trkpt>
      <trkpt lat="48.58819" lon="1.8765">
        <ele>164</ele>
        <time>2010-05-15T12:28:49Z</time>
      </trkpt>
      <trkpt lat="48.5882" lon="1.8765">
        <ele>164</ele>
        <time>2010-05-15T12:28:50Z</time>
      </trkpt>
      <trkpt lat="48.58822" lon="1.8765">
        <ele>164</ele>
        <time>2010-05-15T12:28:51Z</time>
      </trkpt>
      <trkpt lat="48.58823" lon="1.8765">
        <ele>164</ele>
        <time>2010-05-15T12:28:52Z</time>
      </trkpt>
      <trkpt lat="48.58825" lon="1.8765">
        <ele>164</ele>
        <time>2010-05-15T12:28:53Z</time>
      </trkpt>
      <trkpt lat="48.58826" lon="1.8765">
        <ele>164</ele>
        <time>2010-05-15T12:28:54Z</time>
      </trkpt>
      <trkpt lat="48.58828" lon="1.8765">
        <ele>164</ele>
        <time>2010-05-15T12:28:55Z</time>
      </trkpt>
      <trkpt lat="48.5883" lon="1.8765">
        <ele>164</ele>
        <time>2010-05-15T12:28:56Z</time>
      </trkpt>
      <trkpt lat="48.58832" lon="1.8765">
        <ele>164</ele>
        <time>2010-05-15T12:28:57Z</time>
      </trkpt>
      <trkpt lat="48.58833" lon="1.8765">
        <ele>164</ele>
        <time>2010-05-15T12:28:58Z</time>
      </trkpt>
      <trkpt lat="48.58835" lon="1.8765">
        <ele>164</ele>
        <time>2010-05-15T12:28:59Z</time>
      </trkpt>
      <trkpt lat="48.58837" lon="1.8765">
        <ele>164</ele>
        <time>2010-05-15T12:29:00Z</time>
      </trkpt>
      <trkpt lat="48.58839" lon="1.8765">
        <ele>164</ele>
        <time>2010-05-15T12:29:01Z</time>
      </trkpt>
      <trkpt lat="48.5884" lon="1.8765">
        <ele>164</ele>
        <time>2010-05-15T12:29:02Z</time>
      </trkpt>
      <trkpt lat="48.58842" lon="1.8765">
        <ele>164</ele>
        <time>2010-05-15T12:29:03Z</time>
      </trkpt>
      <trkpt lat="48.58843" lon="1.8765">
        <ele>164</ele>
        <time>2010-05-15T12:29:04Z</time>
      </trkpt>
      <trkpt lat="48.58844" lon="1.8765">
        <ele>164</ele>
        <time>2010-05-15T12:29:05Z</time>
      </trkpt>
      <trkpt lat="48.58846" lon="1.8765">
        <ele>164</ele>
        <time>2010-05-15T12:29:06Z</time>
      </trkpt>
      <trkpt lat="48.58847" lon="1.87651">
        <ele>164</ele>
        <time>2010-05-15T12:29:07Z</time>
      </trkpt>
      <trkpt lat="48.58849" lon="1.87651">
        <ele>164</ele>
        <time>2010-05-15T12:29:08Z</time>
      </trkpt>
      <trkpt lat="48.58851" lon="1.87651">
        <ele>164</ele>
        <time>2010-05-15T12:29:09Z</time>
      </trkpt>
      <trkpt lat="48.58852" lon="1.87651">
        <ele>164</ele>
        <time>2010-05-15T12:29:10Z</time>
      </trkpt>
      <trkpt lat="48.58854" lon="1.87652">
        <ele>164</ele>
        <time>2010-05-15T12:29:11Z</time>
      </trkpt>
      <trkpt lat="48.58855" lon="1.87652">
        <ele>164</ele>
        <time>2010-05-15T12:29:12Z</time>
      </trkpt>
      <trkpt lat="48.58857" lon="1.87652">
        <ele>164</ele>
        <time>2010-05-15T12:29:13Z</time>
      </trkpt>
      <trkpt lat="48.58859" lon="1.87652">
        <ele>164</ele>
        <time>2010-05-15T12:29:14Z</time>
      </trkpt>
      <trkpt lat="48.5886" lon="1.87652">
        <ele>164</ele>
        <time>2010-05-15T12:29:15Z</time>
      </trkpt>
      <trkpt lat="48.58862" lon="1.87652">
        <ele>164</ele>
        <time>2010-05-15T12:29:16Z</time>
      </trkpt>
      <trkpt lat="48.58864" lon="1.87653">
        <ele>164</ele>
        <time>2010-05-15T12:29:17Z</time>
      </trkpt>
      <trkpt lat="48.58865" lon="1.87653">
        <ele>164</ele>
        <time>2010-05-15T12:29:18Z</time>
      </trkpt>
      <trkpt lat="48.58867" lon="1.87653">
        <ele>164</ele>
        <time>2010-05-15T12:29:19Z</time>
      </trkpt>
      <trkpt lat="48.58869" lon="1.87653">
        <ele>164</ele>
        <time>2010-05-15T12:29:20Z</time>
      </trkpt>
      <trkpt lat="48.5887" lon="1.87654">
        <ele>164</ele>
        <time>2010-05-15T12:29:21Z</time>
      </trkpt>
      <trkpt lat="48.58872" lon="1.87654">
        <ele>164</ele>
        <time>2010-05-15T12:29:22Z</time>
      </trkpt>
      <trkpt lat="48.58874" lon="1.87655">
        <ele>164</ele>
        <time>2010-05-15T12:29:23Z</time>
      </trkpt>
      <trkpt lat="48.58875" lon="1.87655">
        <ele>164</ele>
        <time>2010-05-15T12:29:24Z</time>
      </trkpt>
      <trkpt lat="48.58877" lon="1.87655">
        <ele>164</ele>
        <time>2010-05-15T12:29:25Z</time>
      </trkpt>
      <trkpt lat="48.58879" lon="1.87655">
        <ele>164</ele>
        <time>2010-05-15T12:29:26Z</time>
      </trkpt>
      <trkpt lat="48.5888" lon="1.87655">
        <ele>164</ele>
        <time>2010-05-15T12:29:27Z</time>
      </trkpt>
      <trkpt lat="48.58881" lon="1.87655">
        <ele>164</ele>
        <time>2010-05-15T12:29:28Z</time>
      </trkpt>
      <trkpt lat="48.58883" lon="1.87655">
        <ele>164</ele>
        <time>2010-05-15T12:29:29Z</time>
      </trkpt>
      <trkpt lat="48.58885" lon="1.87655">
        <ele>164</ele>
        <time>2010-05-15T12:29:30Z</time>
      </trkpt>
      <trkpt lat="48.58886" lon="1.87655">
        <ele>164</ele>
        <time>2010-05-15T12:29:31Z</time>
      </trkpt>
      <trkpt lat="48.58888" lon="1.87655">
        <ele>164</ele>
        <time>2010-05-15T12:29:32Z</time>
      </trkpt>
      <trkpt lat="48.58889" lon="1.87655">
        <ele>164</ele>
        <time>2010-05-15T12:29:33Z</time>
      </trkpt>
      <trkpt lat="48.58891" lon="1.87655">
        <ele>164</ele>
        <time>2010-05-15T12:29:34Z</time>
      </trkpt>
      <trkpt lat="48.58892" lon="1.87655">
        <ele>164</ele>
        <time>2010-05-15T12:29:35Z</time>
      </trkpt>
      <trkpt lat="48.58894" lon="1.87655">
        <ele>164</ele>
        <time>2010-05-15T12:29:36Z</time>
      </trkpt>
      <trkpt lat="48.58895" lon="1.87655">
        <ele>164</ele>
        <time>2010-05-15T12:29:37Z</time>
      </trkpt>
      <trkpt lat="48.58897" lon="1.87655">
        <ele>164</ele>
        <time>2010-05-15T12:29:38Z</time>
      </trkpt>
      <trkpt lat="48.58898" lon="1.87655">
        <ele>164</ele>
        <time>2010-05-15T12:29:39Z</time>
      </trkpt>
      <trkpt lat="48.589" lon="1.87656">
        <ele>164</ele>
        <time>2010-05-15T12:29:40Z</time>
      </trkpt>
      <trkpt lat="48.58901" lon="1.87656">
        <ele>165</ele>
        <time>2010-05-15T12:29:41Z</time>
      </trkpt>
      <trkpt lat="48.58903" lon="1.87656">
        <ele>165</ele>
        <time>2010-05-15T12:29:42Z</time>
      </trkpt>
      <trkpt lat="48.58905" lon="1.87656">
        <ele>165</ele>
        <time>2010-05-15T12:29:43Z</time>
      </trkpt>
      <trkpt lat="48.58906" lon="1.87657">
        <ele>165</ele>
        <time>2010-05-15T12:29:44Z</time>
      </trkpt>
      <trkpt lat="48.58908" lon="1.87657">
        <ele>165</ele>
        <time>2010-05-15T12:29:45Z</time>
      </trkpt>
      <trkpt lat="48.58909" lon="1.87657">
        <ele>165</ele>
        <time>2010-05-15T12:29:46Z</time>
      </trkpt>
      <trkpt lat="48.58911" lon="1.87657">
        <ele>165</ele>
        <time>2010-05-15T12:29:47Z</time>
      </trkpt>
      <trkpt lat="48.58912" lon="1.87657">
        <ele>165</ele>
        <time>2010-05-15T12:29:48Z</time>
      </trkpt>
      <trkpt lat="48.58913" lon="1.87657">
        <ele>165</ele>
        <time>2010-05-15T12:29:49Z</time>
      </trkpt>
      <trkpt lat="48.58914" lon="1.87657">
        <ele>165</ele>
        <time>2010-05-15T12:29:50Z</time>
      </trkpt>
      <trkpt lat="48.58916" lon="1.87657">
        <ele>165</ele>
        <time>2010-05-15T12:29:51Z</time>
      </trkpt>
      <trkpt lat="48.58917" lon="1.87657">
        <ele>165</ele>
        <time>2010-05-15T12:29:52Z</time>
      </trkpt>
      <trkpt lat="48.58918" lon="1.87657">
        <ele>165</ele>
        <time>2010-05-15T12:29:53Z</time>
      </trkpt>
      <trkpt lat="48.58919" lon="1.87657">
        <ele>165</ele>
        <time>2010-05-15T12:29:54Z</time>
      </trkpt>
      <trkpt lat="48.58921" lon="1.87657">
        <ele>165</ele>
        <time>2010-05-15T12:29:55Z</time>
      </trkpt>
      <trkpt lat="48.58922" lon="1.87657">
        <ele>165</ele>
        <time>2010-05-15T12:29:56Z</time>
      </trkpt>
      <trkpt lat="48.58924" lon="1.87658">
        <ele>165</ele>
        <time>2010-05-15T12:29:57Z</time>
      </trkpt>
      <trkpt lat="48.58925" lon="1.87658">
        <ele>165</ele>
        <time>2010-05-15T12:29:58Z</time>
      </trkpt>
      <trkpt lat="48.58927" lon="1.87659">
        <ele>165</ele>
        <time>2010-05-15T12:29:59Z</time>
      </trkpt>
      <trkpt lat="48.58928" lon="1.8766">
        <ele>165</ele>
        <time>2010-05-15T12:30:00Z</time>
      </trkpt>
      <trkpt lat="48.5893" lon="1.8766">
        <ele>165</ele>
        <time>2010-05-15T12:30:01Z</time>
      </trkpt>
      <trkpt lat="48.58931" lon="1.87662">
        <ele>165</ele>
        <time>2010-05-15T12:30:02Z</time>
      </trkpt>
      <trkpt lat="48.58933" lon="1.87663">
        <ele>165</ele>
        <time>2010-05-15T12:30:03Z</time>
      </trkpt>
      <trkpt lat="48.58935" lon="1.87664">
        <ele>165</ele>
        <time>2010-05-15T12:30:04Z</time>
      </trkpt>
      <trkpt lat="48.58936" lon="1.87666">
        <ele>165</ele>
        <time>2010-05-15T12:30:05Z</time>
      </trkpt>
      <trkpt lat="48.58937" lon="1.87668">
        <ele>165</ele>
        <time>2010-05-15T12:30:06Z</time>
      </trkpt>
      <trkpt lat="48.58938" lon="1.8767">
        <ele>165</ele>
        <time>2010-05-15T12:30:07Z</time>
      </trkpt>
      <trkpt lat="48.58939" lon="1.87672">
        <ele>165</ele>
        <time>2010-05-15T12:30:08Z</time>
      </trkpt>
      <trkpt lat="48.5894" lon="1.87674">
        <ele>165</ele>
        <time>2010-05-15T12:30:09Z</time>
      </trkpt>
      <trkpt lat="48.5894" lon="1.87677">
        <ele>165</ele>
        <time>2010-05-15T12:30:10Z</time>
      </trkpt>
      <trkpt lat="48.5894" lon="1.8768">
        <ele>165</ele>
        <time>2010-05-15T12:30:11Z</time>
      </trkpt>
      <trkpt lat="48.58939" lon="1.87682">
        <ele>165</ele>
        <time>2010-05-15T12:30:12Z</time>
      </trkpt>
      <trkpt lat="48.58939" lon="1.87685">
        <ele>165</ele>
        <time>2010-05-15T12:30:14Z</time>
      </trkpt>
      <trkpt lat="48.58939" lon="1.87689">
        <ele>165</ele>
        <time>2010-05-15T12:30:16Z</time>
      </trkpt>
      <trkpt lat="48.58938" lon="1.87691">
        <ele>165</ele>
        <time>2010-05-15T12:30:17Z</time>
      </trkpt>
      <trkpt lat="48.58938" lon="1.87693">
        <ele>165</ele>
        <time>2010-05-15T12:30:18Z</time>
      </trkpt>
      <trkpt lat="48.58938" lon="1.87696">
        <ele>165</ele>
        <time>2010-05-15T12:30:19Z</time>
      </trkpt>
      <trkpt lat="48.58937" lon="1.87698">
        <ele>165</ele>
        <time>2010-05-15T12:30:20Z</time>
      </trkpt>
      <trkpt lat="48.58937" lon="1.877">
        <ele>165</ele>
        <time>2010-05-15T12:30:21Z</time>
      </trkpt>
      <trkpt lat="48.58937" lon="1.87703">
        <ele>165</ele>
        <time>2010-05-15T12:30:22Z</time>
      </trkpt>
      <trkpt lat="48.58937" lon="1.87705">
        <ele>165</ele>
        <time>2010-05-15T12:30:23Z</time>
      </trkpt>
      <trkpt lat="48.58937" lon="1.87707">
        <ele>165</ele>
        <time>2010-05-15T12:30:24Z</time>
      </trkpt>
      <trkpt lat="48.58936" lon="1.8771">
        <ele>165</ele>
        <time>2010-05-15T12:30:25Z</time>
      </trkpt>
      <trkpt lat="48.58936" lon="1.87712">
        <ele>165</ele>
        <time>2010-05-15T12:30:26Z</time>
      </trkpt>
      <trkpt lat="48.58936" lon="1.87715">
        <ele>165</ele>
        <time>2010-05-15T12:30:28Z</time>
      </trkpt>
      <trkpt lat="48.58936" lon="1.87718">
        <ele>165</ele>
        <time>2010-05-15T12:30:29Z</time>
      </trkpt>
      <trkpt lat="48.58936" lon="1.8772">
        <ele>165</ele>
        <time>2010-05-15T12:30:30Z</time>
      </trkpt>
      <trkpt lat="48.58935" lon="1.87723">
        <ele>165</ele>
        <time>2010-05-15T12:30:31Z</time>
      </trkpt>
      <trkpt lat="48.58935" lon="1.87724">
        <ele>165</ele>
        <time>2010-05-15T12:30:32Z</time>
      </trkpt>
      <trkpt lat="48.58935" lon="1.87726">
        <ele>165</ele>
        <time>2010-05-15T12:30:33Z</time>
      </trkpt>
      <trkpt lat="48.58935" lon="1.87728">
        <ele>165</ele>
        <time>2010-05-15T12:30:34Z</time>
      </trkpt>
      <trkpt lat="48.58935" lon="1.8773">
        <ele>165</ele>
        <time>2010-05-15T12:30:35Z</time>
      </trkpt>
      <trkpt lat="48.58935" lon="1.87732">
        <ele>165</ele>
        <time>2010-05-15T12:30:36Z</time>
      </trkpt>
      <trkpt lat="48.58935" lon="1.87735">
        <ele>165</ele>
        <time>2010-05-15T12:30:37Z</time>
      </trkpt>
      <trkpt lat="48.58935" lon="1.87739">
        <ele>165</ele>
        <time>2010-05-15T12:30:38Z</time>
      </trkpt>
      <trkpt lat="48.58935" lon="1.87743">
        <ele>165</ele>
        <time>2010-05-15T12:30:39Z</time>
      </trkpt>
      <trkpt lat="48.58935" lon="1.87747">
        <ele>165</ele>
        <time>2010-05-15T12:30:40Z</time>
      </trkpt>
      <trkpt lat="48.58935" lon="1.87751">
        <ele>165</ele>
        <time>2010-05-15T12:30:41Z</time>
      </trkpt>
      <trkpt lat="48.58935" lon="1.87755">
        <ele>165</ele>
        <time>2010-05-15T12:30:42Z</time>
      </trkpt>
      <trkpt lat="48.58935" lon="1.87758">
        <ele>165</ele>
        <time>2010-05-15T12:30:43Z</time>
      </trkpt>
      <trkpt lat="48.58935" lon="1.87761">
        <ele>165</ele>
        <time>2010-05-15T12:30:44Z</time>
      </trkpt>
      <trkpt lat="48.58936" lon="1.87764">
        <ele>165</ele>
        <time>2010-05-15T12:30:45Z</time>
      </trkpt>
      <trkpt lat="48.58936" lon="1.87766">
        <ele>165</ele>
        <time>2010-05-15T12:30:46Z</time>
      </trkpt>
      <trkpt lat="48.58936" lon="1.87769">
        <ele>165</ele>
        <time>2010-05-15T12:30:47Z</time>
      </trkpt>
      <trkpt lat="48.58936" lon="1.87771">
        <ele>165</ele>
        <time>2010-05-15T12:30:48Z</time>
      </trkpt>
      <trkpt lat="48.58936" lon="1.87774">
        <ele>165</ele>
        <time>2010-05-15T12:30:49Z</time>
      </trkpt>
      <trkpt lat="48.58936" lon="1.87776">
        <ele>165</ele>
        <time>2010-05-15T12:30:50Z</time>
      </trkpt>
      <trkpt lat="48.58936" lon="1.87779">
        <ele>165</ele>
        <time>2010-05-15T12:30:51Z</time>
      </trkpt>
      <trkpt lat="48.58936" lon="1.87781">
        <ele>165</ele>
        <time>2010-05-15T12:30:52Z</time>
      </trkpt>
      <trkpt lat="48.58936" lon="1.87784">
        <ele>165</ele>
        <time>2010-05-15T12:30:53Z</time>
      </trkpt>
      <trkpt lat="48.58935" lon="1.87786">
        <ele>165</ele>
        <time>2010-05-15T12:30:54Z</time>
      </trkpt>
      <trkpt lat="48.58935" lon="1.87789">
        <ele>165</ele>
        <time>2010-05-15T12:30:55Z</time>
      </trkpt>
      <trkpt lat="48.58935" lon="1.87791">
        <ele>165</ele>
        <time>2010-05-15T12:30:56Z</time>
      </trkpt>
      <trkpt lat="48.58935" lon="1.87794">
        <ele>165</ele>
        <time>2010-05-15T12:30:57Z</time>
      </trkpt>
      <trkpt lat="48.58935" lon="1.87797">
        <ele>165</ele>
        <time>2010-05-15T12:30:58Z</time>
      </trkpt>
      <trkpt lat="48.58934" lon="1.878">
        <ele>165</ele>
        <time>2010-05-15T12:30:59Z</time>
      </trkpt>
      <trkpt lat="48.58934" lon="1.87803">
        <ele>165</ele>
        <time>2010-05-15T12:31:00Z</time>
      </trkpt>
      <trkpt lat="48.58934" lon="1.87805">
        <ele>165</ele>
        <time>2010-05-15T12:31:01Z</time>
      </trkpt>
      <trkpt lat="48.58934" lon="1.87808">
        <ele>165</ele>
        <time>2010-05-15T12:31:02Z</time>
      </trkpt>
      <trkpt lat="48.58934" lon="1.87811">
        <ele>165</ele>
        <time>2010-05-15T12:31:03Z</time>
      </trkpt>
      <trkpt lat="48.58934" lon="1.87814">
        <ele>165</ele>
        <time>2010-05-15T12:31:04Z</time>
      </trkpt>
      <trkpt lat="48.58933" lon="1.87817">
        <ele>165</ele>
        <time>2010-05-15T12:31:05Z</time>
      </trkpt>
      <trkpt lat="48.58933" lon="1.8782">
        <ele>165</ele>
        <time>2010-05-15T12:31:06Z</time>
      </trkpt>
      <trkpt lat="48.58933" lon="1.87822">
        <ele>165</ele>
        <time>2010-05-15T12:31:07Z</time>
      </trkpt>
      <trkpt lat="48.58932" lon="1.87825">
        <ele>165</ele>
        <time>2010-05-15T12:31:08Z</time>
      </trkpt>
      <trkpt lat="48.58932" lon="1.87828">
        <ele>165</ele>
        <time>2010-05-15T12:31:09Z</time>
      </trkpt>
      <trkpt lat="48.58931" lon="1.8783">
        <ele>165</ele>
        <time>2010-05-15T12:31:10Z</time>
      </trkpt>
      <trkpt lat="48.58931" lon="1.87833">
        <ele>165</ele>
        <time>2010-05-15T12:31:11Z</time>
      </trkpt>
      <trkpt lat="48.5893" lon="1.87836">
        <ele>165</ele>
        <time>2010-05-15T12:31:12Z</time>
      </trkpt>
      <trkpt lat="48.5893" lon="1.87838">
        <ele>165</ele>
        <time>2010-05-15T12:31:13Z</time>
      </trkpt>
      <trkpt lat="48.58929" lon="1.87841">
        <ele>165</ele>
        <time>2010-05-15T12:31:14Z</time>
      </trkpt>
      <trkpt lat="48.58929" lon="1.87844">
        <ele>164</ele>
        <time>2010-05-15T12:31:15Z</time>
      </trkpt>
      <trkpt lat="48.58928" lon="1.87846">
        <ele>164</ele>
        <time>2010-05-15T12:31:16Z</time>
      </trkpt>
      <trkpt lat="48.58928" lon="1.87849">
        <ele>164</ele>
        <time>2010-05-15T12:31:17Z</time>
      </trkpt>
      <trkpt lat="48.58927" lon="1.87851">
        <ele>164</ele>
        <time>2010-05-15T12:31:18Z</time>
      </trkpt>
      <trkpt lat="48.58926" lon="1.87854">
        <ele>164</ele>
        <time>2010-05-15T12:31:19Z</time>
      </trkpt>
      <trkpt lat="48.58926" lon="1.87856">
        <ele>164</ele>
        <time>2010-05-15T12:31:20Z</time>
      </trkpt>
      <trkpt lat="48.58925" lon="1.87859">
        <ele>164</ele>
        <time>2010-05-15T12:31:21Z</time>
      </trkpt>
      <trkpt lat="48.58924" lon="1.87862">
        <ele>164</ele>
        <time>2010-05-15T12:31:22Z</time>
      </trkpt>
      <trkpt lat="48.58924" lon="1.87864">
        <ele>164</ele>
        <time>2010-05-15T12:31:23Z</time>
      </trkpt>
      <trkpt lat="48.58923" lon="1.87867">
        <ele>164</ele>
        <time>2010-05-15T12:31:24Z</time>
      </trkpt>
      <trkpt lat="48.58922" lon="1.87869">
        <ele>164</ele>
        <time>2010-05-15T12:31:25Z</time>
      </trkpt>
      <trkpt lat="48.58921" lon="1.87872">
        <ele>163</ele>
        <time>2010-05-15T12:31:26Z</time>
      </trkpt>
      <trkpt lat="48.5892" lon="1.87874">
        <ele>163</ele>
        <time>2010-05-15T12:31:27Z</time>
      </trkpt>
      <trkpt lat="48.58919" lon="1.87877">
        <ele>163</ele>
        <time>2010-05-15T12:31:28Z</time>
      </trkpt>
      <trkpt lat="48.58919" lon="1.87879">
        <ele>163</ele>
        <time>2010-05-15T12:31:29Z</time>
      </trkpt>
      <trkpt lat="48.58918" lon="1.87882">
        <ele>163</ele>
        <time>2010-05-15T12:31:30Z</time>
      </trkpt>
      <trkpt lat="48.58917" lon="1.87884">
        <ele>163</ele>
        <time>2010-05-15T12:31:31Z</time>
      </trkpt>
      <trkpt lat="48.58916" lon="1.87887">
        <ele>162</ele>
        <time>2010-05-15T12:31:32Z</time>
      </trkpt>
      <trkpt lat="48.58915" lon="1.8789">
        <ele>162</ele>
        <time>2010-05-15T12:31:34Z</time>
      </trkpt>
      <trkpt lat="48.58914" lon="1.87892">
        <ele>162</ele>
        <time>2010-05-15T12:31:35Z</time>
      </trkpt>
      <trkpt lat="48.58912" lon="1.87894">
        <ele>162</ele>
        <time>2010-05-15T12:31:36Z</time>
      </trkpt>
      <trkpt lat="48.58912" lon="1.87897">
        <ele>162</ele>
        <time>2010-05-15T12:31:37Z</time>
      </trkpt>
      <trkpt lat="48.58911" lon="1.87899">
        <ele>162</ele>
        <time>2010-05-15T12:31:38Z</time>
      </trkpt>
      <trkpt lat="48.5891" lon="1.879">
        <ele>162</ele>
        <time>2010-05-15T12:31:39Z</time>
      </trkpt>
      <trkpt lat="48.58909" lon="1.87902">
        <ele>162</ele>
        <time>2010-05-15T12:31:40Z</time>
      </trkpt>
      <trkpt lat="48.58908" lon="1.87904">
        <ele>162</ele>
        <time>2010-05-15T12:31:41Z</time>
      </trkpt>
      <trkpt lat="48.58907" lon="1.87906">
        <ele>162</ele>
        <time>2010-05-15T12:31:42Z</time>
      </trkpt>
      <trkpt lat="48.58906" lon="1.87908">
        <ele>162</ele>
        <time>2010-05-15T12:31:43Z</time>
      </trkpt>
      <trkpt lat="48.58905" lon="1.8791">
        <ele>162</ele>
        <time>2010-05-15T12:31:44Z</time>
      </trkpt>
      <trkpt lat="48.58904" lon="1.87912">
        <ele>162</ele>
        <time>2010-05-15T12:31:45Z</time>
      </trkpt>
      <trkpt lat="48.58903" lon="1.87913">
        <ele>162</ele>
        <time>2010-05-15T12:31:46Z</time>
      </trkpt>
      <trkpt lat="48.58902" lon="1.87915">
        <ele>162</ele>
        <time>2010-05-15T12:31:47Z</time>
      </trkpt>
      <trkpt lat="48.58901" lon="1.87917">
        <ele>162</ele>
        <time>2010-05-15T12:31:48Z</time>
      </trkpt>
      <trkpt lat="48.589" lon="1.87919">
        <ele>161</ele>
        <time>2010-05-15T12:31:49Z</time>
      </trkpt>
      <trkpt lat="48.58899" lon="1.87921">
        <ele>161</ele>
        <time>2010-05-15T12:31:50Z</time>
      </trkpt>
      <trkpt lat="48.58899" lon="1.87923">
        <ele>161</ele>
        <time>2010-05-15T12:31:51Z</time>
      </trkpt>
      <trkpt lat="48.58897" lon="1.87926">
        <ele>160</ele>
        <time>2010-05-15T12:31:53Z</time>
      </trkpt>
      <trkpt lat="48.58897" lon="1.87928">
        <ele>160</ele>
        <time>2010-05-15T12:31:54Z</time>
      </trkpt>
      <trkpt lat="48.58896" lon="1.87931">
        <ele>160</ele>
        <time>2010-05-15T12:31:55Z</time>
      </trkpt>
      <trkpt lat="48.58895" lon="1.87932">
        <ele>160</ele>
        <time>2010-05-15T12:31:56Z</time>
      </trkpt>
      <trkpt lat="48.58894" lon="1.87934">
        <ele>160</ele>
        <time>2010-05-15T12:31:57Z</time>
      </trkpt>
      <trkpt lat="48.58892" lon="1.87937">
        <ele>159</ele>
        <time>2010-05-15T12:31:58Z</time>
      </trkpt>
      <trkpt lat="48.58891" lon="1.87939">
        <ele>159</ele>
        <time>2010-05-15T12:31:59Z</time>
      </trkpt>
      <trkpt lat="48.5889" lon="1.87942">
        <ele>159</ele>
        <time>2010-05-15T12:32:00Z</time>
      </trkpt>
      <trkpt lat="48.58889" lon="1.87943">
        <ele>159</ele>
        <time>2010-05-15T12:32:01Z</time>
      </trkpt>
      <trkpt lat="48.58888" lon="1.87945">
        <ele>159</ele>
        <time>2010-05-15T12:32:02Z</time>
      </trkpt>
      <trkpt lat="48.58887" lon="1.87948">
        <ele>159</ele>
        <time>2010-05-15T12:32:04Z</time>
      </trkpt>
      <trkpt lat="48.58885" lon="1.87952">
        <ele>159</ele>
        <time>2010-05-15T12:32:06Z</time>
      </trkpt>
      <trkpt lat="48.58884" lon="1.87953">
        <ele>158</ele>
        <time>2010-05-15T12:32:08Z</time>
      </trkpt>
      <trkpt lat="48.58884" lon="1.87955">
        <ele>158</ele>
        <time>2010-05-15T12:32:08Z</time>
      </trkpt>
      <trkpt lat="48.58883" lon="1.87957">
        <ele>158</ele>
        <time>2010-05-15T12:32:09Z</time>
      </trkpt>
      <trkpt lat="48.58882" lon="1.87959">
        <ele>157</ele>
        <time>2010-05-15T12:32:10Z</time>
      </trkpt>
      <trkpt lat="48.58881" lon="1.87962">
        <ele>157</ele>
        <time>2010-05-15T12:32:12Z</time>
      </trkpt>
      <trkpt lat="48.5888" lon="1.87964">
        <ele>157</ele>
        <time>2010-05-15T12:32:13Z</time>
      </trkpt>
      <trkpt lat="48.58879" lon="1.87966">
        <ele>157</ele>
        <time>2010-05-15T12:32:15Z</time>
      </trkpt>
      <trkpt lat="48.58878" lon="1.87968">
        <ele>157</ele>
        <time>2010-05-15T12:32:16Z</time>
      </trkpt>
      <trkpt lat="48.58876" lon="1.8797">
        <ele>157</ele>
        <time>2010-05-15T12:32:18Z</time>
      </trkpt>
      <trkpt lat="48.58874" lon="1.87973">
        <ele>157</ele>
        <time>2010-05-15T12:32:20Z</time>
      </trkpt>
      <trkpt lat="48.58873" lon="1.87975">
        <ele>157</ele>
        <time>2010-05-15T12:32:21Z</time>
      </trkpt>
      <trkpt lat="48.58872" lon="1.87977">
        <ele>156</ele>
        <time>2010-05-15T12:32:22Z</time>
      </trkpt>
      <trkpt lat="48.5887" lon="1.87979">
        <ele>156</ele>
        <time>2010-05-15T12:32:23Z</time>
      </trkpt>
      <trkpt lat="48.58869" lon="1.87981">
        <ele>155</ele>
        <time>2010-05-15T12:32:24Z</time>
      </trkpt>
      <trkpt lat="48.58868" lon="1.87982">
        <ele>154</ele>
        <time>2010-05-15T12:32:25Z</time>
      </trkpt>
      <trkpt lat="48.58866" lon="1.87985">
        <ele>152</ele>
        <time>2010-05-15T12:32:27Z</time>
      </trkpt>
      <trkpt lat="48.58865" lon="1.87988">
        <ele>151</ele>
        <time>2010-05-15T12:32:29Z</time>
      </trkpt>
      <trkpt lat="48.58863" lon="1.87992">
        <ele>149</ele>
        <time>2010-05-15T12:32:31Z</time>
      </trkpt>
      <trkpt lat="48.58863" lon="1.87994">
        <ele>148</ele>
        <time>2010-05-15T12:32:32Z</time>
      </trkpt>
      <trkpt lat="48.58861" lon="1.87996">
        <ele>147</ele>
        <time>2010-05-15T12:32:33Z</time>
      </trkpt>
      <trkpt lat="48.5886" lon="1.87998">
        <ele>147</ele>
        <time>2010-05-15T12:32:34Z</time>
      </trkpt>
      <trkpt lat="48.58859" lon="1.88">
        <ele>146</ele>
        <time>2010-05-15T12:32:35Z</time>
      </trkpt>
      <trkpt lat="48.58857" lon="1.88001">
        <ele>145</ele>
        <time>2010-05-15T12:32:36Z</time>
      </trkpt>
      <trkpt lat="48.58856" lon="1.88004">
        <ele>143</ele>
        <time>2010-05-15T12:32:38Z</time>
      </trkpt>
      <trkpt lat="48.58854" lon="1.88006">
        <ele>142</ele>
        <time>2010-05-15T12:32:40Z</time>
      </trkpt>
      <trkpt lat="48.58853" lon="1.88008">
        <ele>141</ele>
        <time>2010-05-15T12:32:41Z</time>
      </trkpt>
      <trkpt lat="48.58851" lon="1.8801">
        <ele>141</ele>
        <time>2010-05-15T12:32:42Z</time>
      </trkpt>
      <trkpt lat="48.5885" lon="1.88012">
        <ele>140</ele>
        <time>2010-05-15T12:32:43Z</time>
      </trkpt>
      <trkpt lat="48.58848" lon="1.88014">
        <ele>140</ele>
        <time>2010-05-15T12:32:44Z</time>
      </trkpt>
      <trkpt lat="48.58846" lon="1.88015">
        <ele>140</ele>
        <time>2010-05-15T12:32:45Z</time>
      </trkpt>
      <trkpt lat="48.58844" lon="1.88017">
        <ele>140</ele>
        <time>2010-05-15T12:32:47Z</time>
      </trkpt>
      <trkpt lat="48.58842" lon="1.8802">
        <ele>140</ele>
        <time>2010-05-15T12:32:49Z</time>
      </trkpt>
      <trkpt lat="48.58841" lon="1.88021">
        <ele>140</ele>
        <time>2010-05-15T12:32:50Z</time>
      </trkpt>
      <trkpt lat="48.5884" lon="1.88025">
        <ele>140</ele>
        <time>2010-05-15T12:32:53Z</time>
      </trkpt>
      <trkpt lat="48.58839" lon="1.88027">
        <ele>140</ele>
        <time>2010-05-15T12:32:54Z</time>
      </trkpt>
      <trkpt lat="48.58839" lon="1.8803">
        <ele>140</ele>
        <time>2010-05-15T12:32:55Z</time>
      </trkpt>
      <trkpt lat="48.58838" lon="1.88033">
        <ele>140</ele>
        <time>2010-05-15T12:32:56Z</time>
      </trkpt>
      <trkpt lat="48.58838" lon="1.88035">
        <ele>140</ele>
        <time>2010-05-15T12:32:57Z</time>
      </trkpt>
      <trkpt lat="48.58838" lon="1.88038">
        <ele>140</ele>
        <time>2010-05-15T12:32:58Z</time>
      </trkpt>
      <trkpt lat="48.58836" lon="1.88041">
        <ele>140</ele>
        <time>2010-05-15T12:32:59Z</time>
      </trkpt>
      <trkpt lat="48.58835" lon="1.88043">
        <ele>140</ele>
        <time>2010-05-15T12:33:00Z</time>
      </trkpt>
      <trkpt lat="48.58834" lon="1.88046">
        <ele>140</ele>
        <time>2010-05-15T12:33:01Z</time>
      </trkpt>
      <trkpt lat="48.58833" lon="1.88049">
        <ele>140</ele>
        <time>2010-05-15T12:33:02Z</time>
      </trkpt>
      <trkpt lat="48.58832" lon="1.88051">
        <ele>140</ele>
        <time>2010-05-15T12:33:03Z</time>
      </trkpt>
      <trkpt lat="48.5883" lon="1.88057">
        <ele>140</ele>
        <time>2010-05-15T12:33:07Z</time>
      </trkpt>
      <trkpt lat="48.58827" lon="1.8806">
        <ele>140</ele>
        <time>2010-05-15T12:33:08Z</time>
      </trkpt>
      <trkpt lat="48.58824" lon="1.88062">
        <ele>140</ele>
        <time>2010-05-15T12:33:09Z</time>
      </trkpt>
      <trkpt lat="48.58823" lon="1.88064">
        <ele>140</ele>
        <time>2010-05-15T12:33:10Z</time>
      </trkpt>
      <trkpt lat="48.58822" lon="1.88066">
        <ele>140</ele>
        <time>2010-05-15T12:33:11Z</time>
      </trkpt>
      <trkpt lat="48.5882" lon="1.88068">
        <ele>140</ele>
        <time>2010-05-15T12:33:12Z</time>
      </trkpt>
      <trkpt lat="48.58817" lon="1.88069">
        <ele>140</ele>
        <time>2010-05-15T12:33:13Z</time>
      </trkpt>
      <trkpt lat="48.58816" lon="1.8807">
        <ele>140</ele>
        <time>2010-05-15T12:33:14Z</time>
      </trkpt>
      <trkpt lat="48.58814" lon="1.88071">
        <ele>140</ele>
        <time>2010-05-15T12:33:15Z</time>
      </trkpt>
      <trkpt lat="48.58812" lon="1.88074">
        <ele>140</ele>
        <time>2010-05-15T12:33:17Z</time>
      </trkpt>
      <trkpt lat="48.5881" lon="1.88076">
        <ele>140</ele>
        <time>2010-05-15T12:33:18Z</time>
      </trkpt>
      <trkpt lat="48.58808" lon="1.8808">
        <ele>140</ele>
        <time>2010-05-15T12:33:21Z</time>
      </trkpt>
      <trkpt lat="48.58805" lon="1.88081">
        <ele>140</ele>
        <time>2010-05-15T12:33:22Z</time>
      </trkpt>
      <trkpt lat="48.58802" lon="1.88081">
        <ele>140</ele>
        <time>2010-05-15T12:33:23Z</time>
      </trkpt>
      <trkpt lat="48.588" lon="1.88082">
        <ele>140</ele>
        <time>2010-05-15T12:33:24Z</time>
      </trkpt>
      <trkpt lat="48.58798" lon="1.88084">
        <ele>140</ele>
        <time>2010-05-15T12:33:25Z</time>
      </trkpt>
      <trkpt lat="48.58797" lon="1.88086">
        <ele>140</ele>
        <time>2010-05-15T12:33:26Z</time>
      </trkpt>
      <trkpt lat="48.58796" lon="1.88088">
        <ele>140</ele>
        <time>2010-05-15T12:33:27Z</time>
      </trkpt>
      <trkpt lat="48.58794" lon="1.8809">
        <ele>140</ele>
        <time>2010-05-15T12:33:28Z</time>
      </trkpt>
      <trkpt lat="48.58793" lon="1.88091">
        <ele>140</ele>
        <time>2010-05-15T12:33:29Z</time>
      </trkpt>
      <trkpt lat="48.58792" lon="1.88093">
        <ele>140</ele>
        <time>2010-05-15T12:33:30Z</time>
      </trkpt>
      <trkpt lat="48.58791" lon="1.88096">
        <ele>140</ele>
        <time>2010-05-15T12:33:32Z</time>
      </trkpt>
      <trkpt lat="48.5879" lon="1.88098">
        <ele>141</ele>
        <time>2010-05-15T12:33:33Z</time>
      </trkpt>
      <trkpt lat="48.58788" lon="1.88099">
        <ele>141</ele>
        <time>2010-05-15T12:33:34Z</time>
      </trkpt>
      <trkpt lat="48.58786" lon="1.881">
        <ele>141</ele>
        <time>2010-05-15T12:33:35Z</time>
      </trkpt>
      <trkpt lat="48.58785" lon="1.88101">
        <ele>141</ele>
        <time>2010-05-15T12:33:36Z</time>
      </trkpt>
      <trkpt lat="48.58784" lon="1.88102">
        <ele>141</ele>
        <time>2010-05-15T12:33:37Z</time>
      </trkpt>
      <trkpt lat="48.58783" lon="1.88105">
        <ele>141</ele>
        <time>2010-05-15T12:33:38Z</time>
      </trkpt>
      <trkpt lat="48.58782" lon="1.88106">
        <ele>141</ele>
        <time>2010-05-15T12:33:39Z</time>
      </trkpt>
      <trkpt lat="48.58781" lon="1.88109">
        <ele>141</ele>
        <time>2010-05-15T12:33:40Z</time>
      </trkpt>
      <trkpt lat="48.5878" lon="1.88111">
        <ele>141</ele>
        <time>2010-05-15T12:33:41Z</time>
      </trkpt>
      <trkpt lat="48.5878" lon="1.88114">
        <ele>141</ele>
        <time>2010-05-15T12:33:42Z</time>
      </trkpt>
      <trkpt lat="48.58778" lon="1.88115">
        <ele>141</ele>
        <time>2010-05-15T12:33:43Z</time>
      </trkpt>
      <trkpt lat="48.58777" lon="1.88117">
        <ele>141</ele>
        <time>2010-05-15T12:33:44Z</time>
      </trkpt>
      <trkpt lat="48.58775" lon="1.88119">
        <ele>141</ele>
        <time>2010-05-15T12:33:45Z</time>
      </trkpt>
      <trkpt lat="48.58773" lon="1.8812">
        <ele>141</ele>
        <time>2010-05-15T12:33:46Z</time>
      </trkpt>
      <trkpt lat="48.58771" lon="1.88121">
        <ele>141</ele>
        <time>2010-05-15T12:33:47Z</time>
      </trkpt>
      <trkpt lat="48.5877" lon="1.88123">
        <ele>141</ele>
        <time>2010-05-15T12:33:48Z</time>
      </trkpt>
      <trkpt lat="48.58768" lon="1.88125">
        <ele>141</ele>
        <time>2010-05-15T12:33:49Z</time>
      </trkpt>
      <trkpt lat="48.58768" lon="1.88127">
        <ele>141</ele>
        <time>2010-05-15T12:33:50Z</time>
      </trkpt>
      <trkpt lat="48.58766" lon="1.88129">
        <ele>141</ele>
        <time>2010-05-15T12:33:52Z</time>
      </trkpt>
      <trkpt lat="48.58764" lon="1.8813">
        <ele>141</ele>
        <time>2010-05-15T12:33:53Z</time>
      </trkpt>
      <trkpt lat="48.58762" lon="1.88133">
        <ele>141</ele>
        <time>2010-05-15T12:33:55Z</time>
      </trkpt>
      <trkpt lat="48.58761" lon="1.88135">
        <ele>141</ele>
        <time>2010-05-15T12:33:56Z</time>
      </trkpt>
      <trkpt lat="48.5876" lon="1.88137">
        <ele>141</ele>
        <time>2010-05-15T12:33:57Z</time>
      </trkpt>
      <trkpt lat="48.58758" lon="1.8814">
        <ele>141</ele>
        <time>2010-05-15T12:33:59Z</time>
      </trkpt>
      <trkpt lat="48.58757" lon="1.88142">
        <ele>141</ele>
        <time>2010-05-15T12:34:00Z</time>
      </trkpt>
      <trkpt lat="48.58756" lon="1.88144">
        <ele>141</ele>
        <time>2010-05-15T12:34:01Z</time>
      </trkpt>
      <trkpt lat="48.58754" lon="1.88146">
        <ele>141</ele>
        <time>2010-05-15T12:34:02Z</time>
      </trkpt>
      <trkpt lat="48.58753" lon="1.88148">
        <ele>141</ele>
        <time>2010-05-15T12:34:03Z</time>
      </trkpt>
      <trkpt lat="48.58752" lon="1.8815">
        <ele>141</ele>
        <time>2010-05-15T12:34:04Z</time>
      </trkpt>
      <trkpt lat="48.58751" lon="1.88151">
        <ele>141</ele>
        <time>2010-05-15T12:34:05Z</time>
      </trkpt>
      <trkpt lat="48.58748" lon="1.88155">
        <ele>141</ele>
        <time>2010-05-15T12:34:07Z</time>
      </trkpt>
      <trkpt lat="48.58747" lon="1.88157">
        <ele>141</ele>
        <time>2010-05-15T12:34:08Z</time>
      </trkpt>
      <trkpt lat="48.58746" lon="1.88159">
        <ele>141</ele>
        <time>2010-05-15T12:34:09Z</time>
      </trkpt>
      <trkpt lat="48.58744" lon="1.88162">
        <ele>141</ele>
        <time>2010-05-15T12:34:10Z</time>
      </trkpt>
      <trkpt lat="48.58743" lon="1.88163">
        <ele>141</ele>
        <time>2010-05-15T12:34:11Z</time>
      </trkpt>
      <trkpt lat="48.58741" lon="1.88166">
        <ele>141</ele>
        <time>2010-05-15T12:34:12Z</time>
      </trkpt>
      <trkpt lat="48.5874" lon="1.88168">
        <ele>141</ele>
        <time>2010-05-15T12:34:13Z</time>
      </trkpt>
      <trkpt lat="48.58738" lon="1.8817">
        <ele>141</ele>
        <time>2010-05-15T12:34:14Z</time>
      </trkpt>
      <trkpt lat="48.58736" lon="1.88172">
        <ele>141</ele>
        <time>2010-05-15T12:34:15Z</time>
      </trkpt>
      <trkpt lat="48.58734" lon="1.88174">
        <ele>141</ele>
        <time>2010-05-15T12:34:16Z</time>
      </trkpt>
      <trkpt lat="48.58733" lon="1.88176">
        <ele>141</ele>
        <time>2010-05-15T12:34:17Z</time>
      </trkpt>
      <trkpt lat="48.58731" lon="1.88179">
        <ele>141</ele>
        <time>2010-05-15T12:34:18Z</time>
      </trkpt>
      <trkpt lat="48.5873" lon="1.88181">
        <ele>141</ele>
        <time>2010-05-15T12:34:19Z</time>
      </trkpt>
      <trkpt lat="48.58728" lon="1.88184">
        <ele>141</ele>
        <time>2010-05-15T12:34:20Z</time>
      </trkpt>
      <trkpt lat="48.58726" lon="1.88186">
        <ele>141</ele>
        <time>2010-05-15T12:34:21Z</time>
      </trkpt>
      <trkpt lat="48.58724" lon="1.88189">
        <ele>141</ele>
        <time>2010-05-15T12:34:22Z</time>
      </trkpt>
      <trkpt lat="48.58722" lon="1.88191">
        <ele>140</ele>
        <time>2010-05-15T12:34:23Z</time>
      </trkpt>
      <trkpt lat="48.5872" lon="1.88193">
        <ele>140</ele>
        <time>2010-05-15T12:34:24Z</time>
      </trkpt>
      <trkpt lat="48.58718" lon="1.88196">
        <ele>140</ele>
        <time>2010-05-15T12:34:25Z</time>
      </trkpt>
      <trkpt lat="48.58716" lon="1.88197">
        <ele>139</ele>
        <time>2010-05-15T12:34:26Z</time>
      </trkpt>
      <trkpt lat="48.58715" lon="1.88199">
        <ele>139</ele>
        <time>2010-05-15T12:34:27Z</time>
      </trkpt>
      <trkpt lat="48.58713" lon="1.88201">
        <ele>139</ele>
        <time>2010-05-15T12:34:28Z</time>
      </trkpt>
      <trkpt lat="48.58712" lon="1.88203">
        <ele>139</ele>
        <time>2010-05-15T12:34:29Z</time>
      </trkpt>
      <trkpt lat="48.5871" lon="1.88205">
        <ele>139</ele>
        <time>2010-05-15T12:34:30Z</time>
      </trkpt>
      <trkpt lat="48.58708" lon="1.88206">
        <ele>139</ele>
        <time>2010-05-15T12:34:31Z</time>
      </trkpt>
      <trkpt lat="48.58706" lon="1.88208">
        <ele>139</ele>
        <time>2010-05-15T12:34:32Z</time>
      </trkpt>
      <trkpt lat="48.58705" lon="1.8821">
        <ele>139</ele>
        <time>2010-05-15T12:34:33Z</time>
      </trkpt>
      <trkpt lat="48.58703" lon="1.88212">
        <ele>139</ele>
        <time>2010-05-15T12:34:34Z</time>
      </trkpt>
      <trkpt lat="48.58701" lon="1.88214">
        <ele>139</ele>
        <time>2010-05-15T12:34:35Z</time>
      </trkpt>
      <trkpt lat="48.58699" lon="1.88216">
        <ele>139</ele>
        <time>2010-05-15T12:34:36Z</time>
      </trkpt>
      <trkpt lat="48.58698" lon="1.88218">
        <ele>139</ele>
        <time>2010-05-15T12:34:37Z</time>
      </trkpt>
      <trkpt lat="48.58696" lon="1.88219">
        <ele>139</ele>
        <time>2010-05-15T12:34:38Z</time>
      </trkpt>
      <trkpt lat="48.58695" lon="1.88221">
        <ele>139</ele>
        <time>2010-05-15T12:34:39Z</time>
      </trkpt>
      <trkpt lat="48.58694" lon="1.88223">
        <ele>139</ele>
        <time>2010-05-15T12:34:40Z</time>
      </trkpt>
      <trkpt lat="48.58692" lon="1.88224">
        <ele>139</ele>
        <time>2010-05-15T12:34:41Z</time>
      </trkpt>
      <trkpt lat="48.5869" lon="1.88226">
        <ele>139</ele>
        <time>2010-05-15T12:34:42Z</time>
      </trkpt>
      <trkpt lat="48.58689" lon="1.88228">
        <ele>139</ele>
        <time>2010-05-15T12:34:43Z</time>
      </trkpt>
      <trkpt lat="48.58687" lon="1.88229">
        <ele>139</ele>
        <time>2010-05-15T12:34:44Z</time>
      </trkpt>
      <trkpt lat="48.58686" lon="1.88229">
        <ele>139</ele>
        <time>2010-05-15T12:34:45Z</time>
      </trkpt>
      <trkpt lat="48.58684" lon="1.88231">
        <ele>139</ele>
        <time>2010-05-15T12:34:46Z</time>
      </trkpt>
      <trkpt lat="48.58682" lon="1.88232">
        <ele>139</ele>
        <time>2010-05-15T12:34:47Z</time>
      </trkpt>
      <trkpt lat="48.58681" lon="1.88234">
        <ele>139</ele>
        <time>2010-05-15T12:34:48Z</time>
      </trkpt>
      <trkpt lat="48.5868" lon="1.88235">
        <ele>139</ele>
        <time>2010-05-15T12:34:49Z</time>
      </trkpt>
      <trkpt lat="48.58678" lon="1.88237">
        <ele>139</ele>
        <time>2010-05-15T12:34:50Z</time>
      </trkpt>
      <trkpt lat="48.58677" lon="1.88238">
        <ele>139</ele>
        <time>2010-05-15T12:34:51Z</time>
      </trkpt>
      <trkpt lat="48.58676" lon="1.8824">
        <ele>139</ele>
        <time>2010-05-15T12:34:52Z</time>
      </trkpt>
      <trkpt lat="48.58674" lon="1.88241">
        <ele>139</ele>
        <time>2010-05-15T12:34:53Z</time>
      </trkpt>
      <trkpt lat="48.58673" lon="1.88243">
        <ele>139</ele>
        <time>2010-05-15T12:34:54Z</time>
      </trkpt>
      <trkpt lat="48.58671" lon="1.88244">
        <ele>139</ele>
        <time>2010-05-15T12:34:55Z</time>
      </trkpt>
      <trkpt lat="48.5867" lon="1.88245">
        <ele>139</ele>
        <time>2010-05-15T12:34:56Z</time>
      </trkpt>
      <trkpt lat="48.58668" lon="1.88247">
        <ele>139</ele>
        <time>2010-05-15T12:34:57Z</time>
      </trkpt>
      <trkpt lat="48.58667" lon="1.88249">
        <ele>139</ele>
        <time>2010-05-15T12:34:58Z</time>
      </trkpt>
      <trkpt lat="48.58666" lon="1.8825">
        <ele>139</ele>
        <time>2010-05-15T12:34:59Z</time>
      </trkpt>
      <trkpt lat="48.58664" lon="1.88252">
        <ele>139</ele>
        <time>2010-05-15T12:35:00Z</time>
      </trkpt>
      <trkpt lat="48.58663" lon="1.88253">
        <ele>139</ele>
        <time>2010-05-15T12:35:01Z</time>
      </trkpt>
      <trkpt lat="48.58662" lon="1.88255">
        <ele>139</ele>
        <time>2010-05-15T12:35:02Z</time>
      </trkpt>
      <trkpt lat="48.58661" lon="1.88257">
        <ele>139</ele>
        <time>2010-05-15T12:35:03Z</time>
      </trkpt>
      <trkpt lat="48.58659" lon="1.88258">
        <ele>139</ele>
        <time>2010-05-15T12:35:04Z</time>
      </trkpt>
      <trkpt lat="48.58657" lon="1.88261">
        <ele>139</ele>
        <time>2010-05-15T12:35:06Z</time>
      </trkpt>
      <trkpt lat="48.58655" lon="1.88262">
        <ele>139</ele>
        <time>2010-05-15T12:35:08Z</time>
      </trkpt>
      <trkpt lat="48.58654" lon="1.88264">
        <ele>139</ele>
        <time>2010-05-15T12:35:09Z</time>
      </trkpt>
      <trkpt lat="48.58653" lon="1.88265">
        <ele>139</ele>
        <time>2010-05-15T12:35:10Z</time>
      </trkpt>
      <trkpt lat="48.58651" lon="1.88266">
        <ele>139</ele>
        <time>2010-05-15T12:35:11Z</time>
      </trkpt>
      <trkpt lat="48.5865" lon="1.88266">
        <ele>139</ele>
        <time>2010-05-15T12:35:12Z</time>
      </trkpt>
      <trkpt lat="48.58649" lon="1.88267">
        <ele>139</ele>
        <time>2010-05-15T12:35:13Z</time>
      </trkpt>
      <trkpt lat="48.58648" lon="1.88269">
        <ele>139</ele>
        <time>2010-05-15T12:35:14Z</time>
      </trkpt>
      <trkpt lat="48.58646" lon="1.8827">
        <ele>139</ele>
        <time>2010-05-15T12:35:15Z</time>
      </trkpt>
      <trkpt lat="48.58645" lon="1.88271">
        <ele>139</ele>
        <time>2010-05-15T12:35:16Z</time>
      </trkpt>
      <trkpt lat="48.58644" lon="1.88273">
        <ele>140</ele>
        <time>2010-05-15T12:35:17Z</time>
      </trkpt>
      <trkpt lat="48.58643" lon="1.88273">
        <ele>140</ele>
        <time>2010-05-15T12:35:18Z</time>
      </trkpt>
      <trkpt lat="48.58641" lon="1.88274">
        <ele>140</ele>
        <time>2010-05-15T12:35:19Z</time>
      </trkpt>
      <trkpt lat="48.5864" lon="1.88276">
        <ele>140</ele>
        <time>2010-05-15T12:35:20Z</time>
      </trkpt>
      <trkpt lat="48.58638" lon="1.88277">
        <ele>141</ele>
        <time>2010-05-15T12:35:21Z</time>
      </trkpt>
      <trkpt lat="48.58637" lon="1.88279">
        <ele>141</ele>
        <time>2010-05-15T12:35:22Z</time>
      </trkpt>
      <trkpt lat="48.58636" lon="1.88281">
        <ele>141</ele>
        <time>2010-05-15T12:35:23Z</time>
      </trkpt>
      <trkpt lat="48.58634" lon="1.88283">
        <ele>141</ele>
        <time>2010-05-15T12:35:24Z</time>
      </trkpt>
      <trkpt lat="48.58633" lon="1.88285">
        <ele>141</ele>
        <time>2010-05-15T12:35:25Z</time>
      </trkpt>
      <trkpt lat="48.58632" lon="1.88287">
        <ele>141</ele>
        <time>2010-05-15T12:35:26Z</time>
      </trkpt>
      <trkpt lat="48.5863" lon="1.8829">
        <ele>141</ele>
        <time>2010-05-15T12:35:28Z</time>
      </trkpt>
      <trkpt lat="48.58629" lon="1.88292">
        <ele>142</ele>
        <time>2010-05-15T12:35:29Z</time>
      </trkpt>
      <trkpt lat="48.58628" lon="1.88293">
        <ele>142</ele>
        <time>2010-05-15T12:35:30Z</time>
      </trkpt>
      <trkpt lat="48.58626" lon="1.88295">
        <ele>143</ele>
        <time>2010-05-15T12:35:32Z</time>
      </trkpt>
      <trkpt lat="48.58625" lon="1.88296">
        <ele>143</ele>
        <time>2010-05-15T12:35:33Z</time>
      </trkpt>
      <trkpt lat="48.58623" lon="1.88299">
        <ele>144</ele>
        <time>2010-05-15T12:35:34Z</time>
      </trkpt>
      <trkpt lat="48.58622" lon="1.88301">
        <ele>144</ele>
        <time>2010-05-15T12:35:35Z</time>
      </trkpt>
      <trkpt lat="48.5862" lon="1.88302">
        <ele>144</ele>
        <time>2010-05-15T12:35:36Z</time>
      </trkpt>
      <trkpt lat="48.58619" lon="1.88304">
        <ele>144</ele>
        <time>2010-05-15T12:35:37Z</time>
      </trkpt>
      <trkpt lat="48.58617" lon="1.88308">
        <ele>144</ele>
        <time>2010-05-15T12:35:39Z</time>
      </trkpt>
      <trkpt lat="48.58616" lon="1.88309">
        <ele>144</ele>
        <time>2010-05-15T12:35:41Z</time>
      </trkpt>
      <trkpt lat="48.58614" lon="1.88311">
        <ele>144</ele>
        <time>2010-05-15T12:35:42Z</time>
      </trkpt>
      <trkpt lat="48.58613" lon="1.88312">
        <ele>144</ele>
        <time>2010-05-15T12:35:43Z</time>
      </trkpt>
      <trkpt lat="48.58611" lon="1.88314">
        <ele>145</ele>
        <time>2010-05-15T12:35:45Z</time>
      </trkpt>
      <trkpt lat="48.5861" lon="1.88314">
        <ele>145</ele>
        <time>2010-05-15T12:35:46Z</time>
      </trkpt>
      <trkpt lat="48.58608" lon="1.88315">
        <ele>146</ele>
        <time>2010-05-15T12:35:47Z</time>
      </trkpt>
      <trkpt lat="48.58607" lon="1.88316">
        <ele>146</ele>
        <time>2010-05-15T12:35:48Z</time>
      </trkpt>
      <trkpt lat="48.58606" lon="1.88317">
        <ele>147</ele>
        <time>2010-05-15T12:35:49Z</time>
      </trkpt>
      <trkpt lat="48.58604" lon="1.88318">
        <ele>147</ele>
        <time>2010-05-15T12:35:50Z</time>
      </trkpt>
      <trkpt lat="48.58603" lon="1.88319">
        <ele>147</ele>
        <time>2010-05-15T12:35:51Z</time>
      </trkpt>
      <trkpt lat="48.58602" lon="1.88321">
        <ele>148</ele>
        <time>2010-05-15T12:35:52Z</time>
      </trkpt>
      <trkpt lat="48.586" lon="1.88323">
        <ele>148</ele>
        <time>2010-05-15T12:35:53Z</time>
      </trkpt>
      <trkpt lat="48.58598" lon="1.88326">
        <ele>148</ele>
        <time>2010-05-15T12:35:54Z</time>
      </trkpt>
      <trkpt lat="48.58597" lon="1.88328">
        <ele>148</ele>
        <time>2010-05-15T12:35:55Z</time>
      </trkpt>
      <trkpt lat="48.58595" lon="1.8833">
        <ele>148</ele>
        <time>2010-05-15T12:35:56Z</time>
      </trkpt>
      <trkpt lat="48.58594" lon="1.88331">
        <ele>148</ele>
        <time>2010-05-15T12:35:57Z</time>
      </trkpt>
      <trkpt lat="48.58593" lon="1.88333">
        <ele>148</ele>
        <time>2010-05-15T12:35:58Z</time>
      </trkpt>
      <trkpt lat="48.58591" lon="1.88334">
        <ele>148</ele>
        <time>2010-05-15T12:35:59Z</time>
      </trkpt>
      <trkpt lat="48.5859" lon="1.88336">
        <ele>148</ele>
        <time>2010-05-15T12:36:00Z</time>
      </trkpt>
      <trkpt lat="48.58588" lon="1.88339">
        <ele>148</ele>
        <time>2010-05-15T12:36:02Z</time>
      </trkpt>
      <trkpt lat="48.58588" lon="1.88342">
        <ele>148</ele>
        <time>2010-05-15T12:36:03Z</time>
      </trkpt>
      <trkpt lat="48.58587" lon="1.88345">
        <ele>148</ele>
        <time>2010-05-15T12:36:05Z</time>
      </trkpt>
      <trkpt lat="48.58586" lon="1.88348">
        <ele>149</ele>
        <time>2010-05-15T12:36:07Z</time>
      </trkpt>
      <trkpt lat="48.58584" lon="1.8835">
        <ele>150</ele>
        <time>2010-05-15T12:36:09Z</time>
      </trkpt>
      <trkpt lat="48.58583" lon="1.88353">
        <ele>151</ele>
        <time>2010-05-15T12:36:11Z</time>
      </trkpt>
      <trkpt lat="48.58581" lon="1.88355">
        <ele>151</ele>
        <time>2010-05-15T12:36:12Z</time>
      </trkpt>
      <trkpt lat="48.5858" lon="1.88357">
        <ele>151</ele>
        <time>2010-05-15T12:36:13Z</time>
      </trkpt>
      <trkpt lat="48.58578" lon="1.88359">
        <ele>151</ele>
        <time>2010-05-15T12:36:14Z</time>
      </trkpt>
      <trkpt lat="48.58577" lon="1.8836">
        <ele>151</ele>
        <time>2010-05-15T12:36:15Z</time>
      </trkpt>
      <trkpt lat="48.58575" lon="1.88361">
        <ele>151</ele>
        <time>2010-05-15T12:36:17Z</time>
      </trkpt>
      <trkpt lat="48.58574" lon="1.88361">
        <ele>151</ele>
        <time>2010-05-15T12:36:19Z</time>
      </trkpt>
      <trkpt lat="48.58573" lon="1.88359">
        <ele>151</ele>
        <time>2010-05-15T12:36:23Z</time>
      </trkpt>
      <trkpt lat="48.58572" lon="1.88356">
        <ele>151</ele>
        <time>2010-05-15T12:36:25Z</time>
      </trkpt>
      <trkpt lat="48.58573" lon="1.88353">
        <ele>152</ele>
        <time>2010-05-15T12:36:27Z</time>
      </trkpt>
      <trkpt lat="48.58575" lon="1.8835">
        <ele>154</ele>
        <time>2010-05-15T12:36:29Z</time>
      </trkpt>
      <trkpt lat="48.58575" lon="1.88348">
        <ele>155</ele>
        <time>2010-05-15T12:36:30Z</time>
      </trkpt>
      <trkpt lat="48.58575" lon="1.88347">
        <ele>156</ele>
        <time>2010-05-15T12:36:31Z</time>
      </trkpt>
      <trkpt lat="48.58573" lon="1.88344">
        <ele>158</ele>
        <time>2010-05-15T12:36:33Z</time>
      </trkpt>
      <trkpt lat="48.58571" lon="1.88342">
        <ele>158</ele>
        <time>2010-05-15T12:36:34Z</time>
      </trkpt>
      <trkpt lat="48.5857" lon="1.88341">
        <ele>158</ele>
        <time>2010-05-15T12:36:35Z</time>
      </trkpt>
      <trkpt lat="48.58569" lon="1.88339">
        <ele>158</ele>
        <time>2010-05-15T12:36:36Z</time>
      </trkpt>
      <trkpt lat="48.58568" lon="1.88337">
        <ele>158</ele>
        <time>2010-05-15T12:36:37Z</time>
      </trkpt>
      <trkpt lat="48.58567" lon="1.88335">
        <ele>158</ele>
        <time>2010-05-15T12:36:38Z</time>
      </trkpt>
      <trkpt lat="48.58567" lon="1.88334">
        <ele>158</ele>
        <time>2010-05-15T12:36:39Z</time>
      </trkpt>
      <trkpt lat="48.58565" lon="1.8833">
        <ele>158</ele>
        <time>2010-05-15T12:36:41Z</time>
      </trkpt>
      <trkpt lat="48.58563" lon="1.88328">
        <ele>158</ele>
        <time>2010-05-15T12:36:42Z</time>
      </trkpt>
      <trkpt lat="48.58562" lon="1.88326">
        <ele>158</ele>
        <time>2010-05-15T12:36:43Z</time>
      </trkpt>
      <trkpt lat="48.58561" lon="1.88324">
        <ele>158</ele>
        <time>2010-05-15T12:36:44Z</time>
      </trkpt>
      <trkpt lat="48.5856" lon="1.88323">
        <ele>158</ele>
        <time>2010-05-15T12:36:45Z</time>
      </trkpt>
      <trkpt lat="48.58558" lon="1.8832">
        <ele>158</ele>
        <time>2010-05-15T12:36:47Z</time>
      </trkpt>
      <trkpt lat="48.58557" lon="1.88318">
        <ele>158</ele>
        <time>2010-05-15T12:36:48Z</time>
      </trkpt>
      <trkpt lat="48.58555" lon="1.88316">
        <ele>158</ele>
        <time>2010-05-15T12:36:50Z</time>
      </trkpt>
      <trkpt lat="48.58554" lon="1.88313">
        <ele>158</ele>
        <time>2010-05-15T12:36:52Z</time>
      </trkpt>
      <trkpt lat="48.58554" lon="1.88311">
        <ele>158</ele>
        <time>2010-05-15T12:36:53Z</time>
      </trkpt>
      <trkpt lat="48.58554" lon="1.88309">
        <ele>158</ele>
        <time>2010-05-15T12:36:54Z</time>
      </trkpt>
      <trkpt lat="48.58553" lon="1.88307">
        <ele>158</ele>
        <time>2010-05-15T12:36:55Z</time>
      </trkpt>
      <trkpt lat="48.58552" lon="1.88305">
        <ele>158</ele>
        <time>2010-05-15T12:36:56Z</time>
      </trkpt>
      <trkpt lat="48.5855" lon="1.88304">
        <ele>158</ele>
        <time>2010-05-15T12:36:57Z</time>
      </trkpt>
      <trkpt lat="48.58548" lon="1.88301">
        <ele>158</ele>
        <time>2010-05-15T12:36:59Z</time>
      </trkpt>
      <trkpt lat="48.58546" lon="1.88299">
        <ele>158</ele>
        <time>2010-05-15T12:37:00Z</time>
      </trkpt>
      <trkpt lat="48.58545" lon="1.88298">
        <ele>158</ele>
        <time>2010-05-15T12:37:01Z</time>
      </trkpt>
      <trkpt lat="48.58544" lon="1.88296">
        <ele>158</ele>
        <time>2010-05-15T12:37:02Z</time>
      </trkpt>
      <trkpt lat="48.58543" lon="1.88294">
        <ele>158</ele>
        <time>2010-05-15T12:37:03Z</time>
      </trkpt>
      <trkpt lat="48.58543" lon="1.88292">
        <ele>158</ele>
        <time>2010-05-15T12:37:04Z</time>
      </trkpt>
      <trkpt lat="48.58542" lon="1.8829">
        <ele>158</ele>
        <time>2010-05-15T12:37:05Z</time>
      </trkpt>
      <trkpt lat="48.5854" lon="1.88288">
        <ele>158</ele>
        <time>2010-05-15T12:37:06Z</time>
      </trkpt>
      <trkpt lat="48.58539" lon="1.88286">
        <ele>158</ele>
        <time>2010-05-15T12:37:07Z</time>
      </trkpt>
      <trkpt lat="48.58538" lon="1.88284">
        <ele>158</ele>
        <time>2010-05-15T12:37:08Z</time>
      </trkpt>
      <trkpt lat="48.58537" lon="1.88282">
        <ele>158</ele>
        <time>2010-05-15T12:37:09Z</time>
      </trkpt>
      <trkpt lat="48.58536" lon="1.88281">
        <ele>158</ele>
        <time>2010-05-15T12:37:10Z</time>
      </trkpt>
      <trkpt lat="48.58534" lon="1.88279">
        <ele>159</ele>
        <time>2010-05-15T12:37:11Z</time>
      </trkpt>
      <trkpt lat="48.58533" lon="1.88277">
        <ele>159</ele>
        <time>2010-05-15T12:37:12Z</time>
      </trkpt>
      <trkpt lat="48.58532" lon="1.88275">
        <ele>160</ele>
        <time>2010-05-15T12:37:13Z</time>
      </trkpt>
      <trkpt lat="48.58532" lon="1.88273">
        <ele>161</ele>
        <time>2010-05-15T12:37:14Z</time>
      </trkpt>
      <trkpt lat="48.58531" lon="1.88272">
        <ele>161</ele>
        <time>2010-05-15T12:37:15Z</time>
      </trkpt>
      <trkpt lat="48.5853" lon="1.8827">
        <ele>162</ele>
        <time>2010-05-15T12:37:16Z</time>
      </trkpt>
      <trkpt lat="48.5853" lon="1.88268">
        <ele>163</ele>
        <time>2010-05-15T12:37:17Z</time>
      </trkpt>
      <trkpt lat="48.58529" lon="1.88267">
        <ele>163</ele>
        <time>2010-05-15T12:37:18Z</time>
      </trkpt>
      <trkpt lat="48.58528" lon="1.88265">
        <ele>164</ele>
        <time>2010-05-15T12:37:19Z</time>
      </trkpt>
      <trkpt lat="48.58526" lon="1.88262">
        <ele>164</ele>
        <time>2010-05-15T12:37:20Z</time>
      </trkpt>
      <trkpt lat="48.58525" lon="1.8826">
        <ele>164</ele>
        <time>2010-05-15T12:37:21Z</time>
      </trkpt>
      <trkpt lat="48.58523" lon="1.88258">
        <ele>164</ele>
        <time>2010-05-15T12:37:22Z</time>
      </trkpt>
      <trkpt lat="48.58522" lon="1.88256">
        <ele>164</ele>
        <time>2010-05-15T12:37:23Z</time>
      </trkpt>
      <trkpt lat="48.5852" lon="1.88254">
        <ele>164</ele>
        <time>2010-05-15T12:37:24Z</time>
      </trkpt>
      <trkpt lat="48.58519" lon="1.88253">
        <ele>164</ele>
        <time>2010-05-15T12:37:25Z</time>
      </trkpt>
      <trkpt lat="48.58517" lon="1.88251">
        <ele>164</ele>
        <time>2010-05-15T12:37:26Z</time>
      </trkpt>
      <trkpt lat="48.58515" lon="1.88249">
        <ele>164</ele>
        <time>2010-05-15T12:37:27Z</time>
      </trkpt>
      <trkpt lat="48.58514" lon="1.88247">
        <ele>164</ele>
        <time>2010-05-15T12:37:28Z</time>
      </trkpt>
      <trkpt lat="48.58513" lon="1.88245">
        <ele>164</ele>
        <time>2010-05-15T12:37:29Z</time>
      </trkpt>
      <trkpt lat="48.58512" lon="1.88243">
        <ele>164</ele>
        <time>2010-05-15T12:37:30Z</time>
      </trkpt>
      <trkpt lat="48.58511" lon="1.88241">
        <ele>164</ele>
        <time>2010-05-15T12:37:31Z</time>
      </trkpt>
      <trkpt lat="48.58509" lon="1.88239">
        <ele>164</ele>
        <time>2010-05-15T12:37:32Z</time>
      </trkpt>
      <trkpt lat="48.58507" lon="1.88238">
        <ele>164</ele>
        <time>2010-05-15T12:37:33Z</time>
      </trkpt>
      <trkpt lat="48.58506" lon="1.88236">
        <ele>164</ele>
        <time>2010-05-15T12:37:34Z</time>
      </trkpt>
      <trkpt lat="48.58505" lon="1.88234">
        <ele>164</ele>
        <time>2010-05-15T12:37:35Z</time>
      </trkpt>
      <trkpt lat="48.58504" lon="1.88232">
        <ele>164</ele>
        <time>2010-05-15T12:37:36Z</time>
      </trkpt>
      <trkpt lat="48.58502" lon="1.88231">
        <ele>164</ele>
        <time>2010-05-15T12:37:37Z</time>
      </trkpt>
      <trkpt lat="48.58501" lon="1.88229">
        <ele>164</ele>
        <time>2010-05-15T12:37:38Z</time>
      </trkpt>
      <trkpt lat="48.585" lon="1.88228">
        <ele>164</ele>
        <time>2010-05-15T12:37:39Z</time>
      </trkpt>
      <trkpt lat="48.58498" lon="1.88228">
        <ele>165</ele>
        <time>2010-05-15T12:37:40Z</time>
      </trkpt>
      <trkpt lat="48.58495" lon="1.88228">
        <ele>165</ele>
        <time>2010-05-15T12:37:41Z</time>
      </trkpt>
      <trkpt lat="48.58493" lon="1.88228">
        <ele>165</ele>
        <time>2010-05-15T12:37:42Z</time>
      </trkpt>
      <trkpt lat="48.58491" lon="1.88228">
        <ele>165</ele>
        <time>2010-05-15T12:37:43Z</time>
      </trkpt>
      <trkpt lat="48.58488" lon="1.88229">
        <ele>165</ele>
        <time>2010-05-15T12:37:44Z</time>
      </trkpt>
      <trkpt lat="48.58486" lon="1.8823">
        <ele>165</ele>
        <time>2010-05-15T12:37:45Z</time>
      </trkpt>
      <trkpt lat="48.58484" lon="1.88231">
        <ele>165</ele>
        <time>2010-05-15T12:37:46Z</time>
      </trkpt>
      <trkpt lat="48.58482" lon="1.88232">
        <ele>165</ele>
        <time>2010-05-15T12:37:47Z</time>
      </trkpt>
      <trkpt lat="48.5848" lon="1.88233">
        <ele>165</ele>
        <time>2010-05-15T12:37:48Z</time>
      </trkpt>
      <trkpt lat="48.58478" lon="1.88235">
        <ele>165</ele>
        <time>2010-05-15T12:37:49Z</time>
      </trkpt>
      <trkpt lat="48.58476" lon="1.88237">
        <ele>165</ele>
        <time>2010-05-15T12:37:50Z</time>
      </trkpt>
      <trkpt lat="48.58474" lon="1.88239">
        <ele>165</ele>
        <time>2010-05-15T12:37:51Z</time>
      </trkpt>
      <trkpt lat="48.58472" lon="1.88241">
        <ele>165</ele>
        <time>2010-05-15T12:37:52Z</time>
      </trkpt>
      <trkpt lat="48.5847" lon="1.88242">
        <ele>165</ele>
        <time>2010-05-15T12:37:53Z</time>
      </trkpt>
      <trkpt lat="48.58469" lon="1.88243">
        <ele>164</ele>
        <time>2010-05-15T12:37:54Z</time>
      </trkpt>
      <trkpt lat="48.58468" lon="1.88245">
        <ele>163</ele>
        <time>2010-05-15T12:37:55Z</time>
      </trkpt>
      <trkpt lat="48.58466" lon="1.88246">
        <ele>163</ele>
        <time>2010-05-15T12:37:56Z</time>
      </trkpt>
      <trkpt lat="48.58465" lon="1.88247">
        <ele>163</ele>
        <time>2010-05-15T12:37:57Z</time>
      </trkpt>
      <trkpt lat="48.58464" lon="1.88248">
        <ele>162</ele>
        <time>2010-05-15T12:37:58Z</time>
      </trkpt>
      <trkpt lat="48.58462" lon="1.8825">
        <ele>162</ele>
        <time>2010-05-15T12:37:59Z</time>
      </trkpt>
      <trkpt lat="48.58461" lon="1.88252">
        <ele>162</ele>
        <time>2010-05-15T12:38:00Z</time>
      </trkpt>
      <trkpt lat="48.5846" lon="1.88254">
        <ele>162</ele>
        <time>2010-05-15T12:38:01Z</time>
      </trkpt>
      <trkpt lat="48.58458" lon="1.88255">
        <ele>162</ele>
        <time>2010-05-15T12:38:02Z</time>
      </trkpt>
      <trkpt lat="48.58457" lon="1.88257">
        <ele>161</ele>
        <time>2010-05-15T12:38:03Z</time>
      </trkpt>
      <trkpt lat="48.58455" lon="1.88258">
        <ele>161</ele>
        <time>2010-05-15T12:38:04Z</time>
      </trkpt>
      <trkpt lat="48.58454" lon="1.8826">
        <ele>161</ele>
        <time>2010-05-15T12:38:05Z</time>
      </trkpt>
      <trkpt lat="48.58452" lon="1.88263">
        <ele>161</ele>
        <time>2010-05-15T12:38:07Z</time>
      </trkpt>
      <trkpt lat="48.58451" lon="1.88264">
        <ele>161</ele>
        <time>2010-05-15T12:38:08Z</time>
      </trkpt>
      <trkpt lat="48.58449" lon="1.88266">
        <ele>161</ele>
        <time>2010-05-15T12:38:09Z</time>
      </trkpt>
      <trkpt lat="48.58448" lon="1.88267">
        <ele>161</ele>
        <time>2010-05-15T12:38:10Z</time>
      </trkpt>
      <trkpt lat="48.58447" lon="1.88268">
        <ele>161</ele>
        <time>2010-05-15T12:38:11Z</time>
      </trkpt>
      <trkpt lat="48.58445" lon="1.88269">
        <ele>160</ele>
        <time>2010-05-15T12:38:12Z</time>
      </trkpt>
      <trkpt lat="48.58444" lon="1.88271">
        <ele>160</ele>
        <time>2010-05-15T12:38:13Z</time>
      </trkpt>
      <trkpt lat="48.58442" lon="1.88272">
        <ele>160</ele>
        <time>2010-05-15T12:38:14Z</time>
      </trkpt>
      <trkpt lat="48.5844" lon="1.88273">
        <ele>159</ele>
        <time>2010-05-15T12:38:15Z</time>
      </trkpt>
      <trkpt lat="48.58438" lon="1.88275">
        <ele>159</ele>
        <time>2010-05-15T12:38:16Z</time>
      </trkpt>
      <trkpt lat="48.58437" lon="1.88277">
        <ele>159</ele>
        <time>2010-05-15T12:38:17Z</time>
      </trkpt>
      <trkpt lat="48.58435" lon="1.88278">
        <ele>158</ele>
        <time>2010-05-15T12:38:18Z</time>
      </trkpt>
      <trkpt lat="48.58434" lon="1.8828">
        <ele>158</ele>
        <time>2010-05-15T12:38:19Z</time>
      </trkpt>
      <trkpt lat="48.58432" lon="1.88282">
        <ele>158</ele>
        <time>2010-05-15T12:38:20Z</time>
      </trkpt>
      <trkpt lat="48.58431" lon="1.88283">
        <ele>157</ele>
        <time>2010-05-15T12:38:21Z</time>
      </trkpt>
      <trkpt lat="48.5843" lon="1.88284">
        <ele>157</ele>
        <time>2010-05-15T12:38:22Z</time>
      </trkpt>
      <trkpt lat="48.58428" lon="1.88286">
        <ele>157</ele>
        <time>2010-05-15T12:38:23Z</time>
      </trkpt>
      <trkpt lat="48.58427" lon="1.88287">
        <ele>157</ele>
        <time>2010-05-15T12:38:24Z</time>
      </trkpt>
      <trkpt lat="48.58426" lon="1.88289">
        <ele>157</ele>
        <time>2010-05-15T12:38:25Z</time>
      </trkpt>
      <trkpt lat="48.58424" lon="1.88291">
        <ele>157</ele>
        <time>2010-05-15T12:38:26Z</time>
      </trkpt>
      <trkpt lat="48.58423" lon="1.88292">
        <ele>157</ele>
        <time>2010-05-15T12:38:27Z</time>
      </trkpt>
      <trkpt lat="48.58421" lon="1.88294">
        <ele>157</ele>
        <time>2010-05-15T12:38:28Z</time>
      </trkpt>
      <trkpt lat="48.5842" lon="1.88295">
        <ele>157</ele>
        <time>2010-05-15T12:38:29Z</time>
      </trkpt>
      <trkpt lat="48.58418" lon="1.88297">
        <ele>157</ele>
        <time>2010-05-15T12:38:30Z</time>
      </trkpt>
      <trkpt lat="48.58417" lon="1.88298">
        <ele>157</ele>
        <time>2010-05-15T12:38:31Z</time>
      </trkpt>
      <trkpt lat="48.58416" lon="1.883">
        <ele>157</ele>
        <time>2010-05-15T12:38:32Z</time>
      </trkpt>
      <trkpt lat="48.58414" lon="1.88301">
        <ele>157</ele>
        <time>2010-05-15T12:38:33Z</time>
      </trkpt>
      <trkpt lat="48.58413" lon="1.88303">
        <ele>157</ele>
        <time>2010-05-15T12:38:34Z</time>
      </trkpt>
      <trkpt lat="48.58412" lon="1.88305">
        <ele>157</ele>
        <time>2010-05-15T12:38:35Z</time>
      </trkpt>
      <trkpt lat="48.58411" lon="1.88307">
        <ele>157</ele>
        <time>2010-05-15T12:38:36Z</time>
      </trkpt>
      <trkpt lat="48.5841" lon="1.88309">
        <ele>157</ele>
        <time>2010-05-15T12:38:37Z</time>
      </trkpt>
      <trkpt lat="48.58408" lon="1.8831">
        <ele>157</ele>
        <time>2010-05-15T12:38:38Z</time>
      </trkpt>
      <trkpt lat="48.58407" lon="1.88312">
        <ele>157</ele>
        <time>2010-05-15T12:38:39Z</time>
      </trkpt>
      <trkpt lat="48.58406" lon="1.88313">
        <ele>157</ele>
        <time>2010-05-15T12:38:40Z</time>
      </trkpt>
      <trkpt lat="48.58405" lon="1.88315">
        <ele>157</ele>
        <time>2010-05-15T12:38:41Z</time>
      </trkpt>
      <trkpt lat="48.58403" lon="1.88316">
        <ele>157</ele>
        <time>2010-05-15T12:38:42Z</time>
      </trkpt>
      <trkpt lat="48.58402" lon="1.88318">
        <ele>157</ele>
        <time>2010-05-15T12:38:43Z</time>
      </trkpt>
      <trkpt lat="48.58401" lon="1.88319">
        <ele>157</ele>
        <time>2010-05-15T12:38:44Z</time>
      </trkpt>
      <trkpt lat="48.58399" lon="1.88321">
        <ele>157</ele>
        <time>2010-05-15T12:38:45Z</time>
      </trkpt>
      <trkpt lat="48.58398" lon="1.88322">
        <ele>157</ele>
        <time>2010-05-15T12:38:46Z</time>
      </trkpt>
      <trkpt lat="48.58397" lon="1.88324">
        <ele>157</ele>
        <time>2010-05-15T12:38:47Z</time>
      </trkpt>
      <trkpt lat="48.58395" lon="1.88325">
        <ele>157</ele>
        <time>2010-05-15T12:38:48Z</time>
      </trkpt>
      <trkpt lat="48.58394" lon="1.88327">
        <ele>157</ele>
        <time>2010-05-15T12:38:49Z</time>
      </trkpt>
      <trkpt lat="48.58393" lon="1.88328">
        <ele>157</ele>
        <time>2010-05-15T12:38:50Z</time>
      </trkpt>
      <trkpt lat="48.58391" lon="1.8833">
        <ele>157</ele>
        <time>2010-05-15T12:38:51Z</time>
      </trkpt>
      <trkpt lat="48.5839" lon="1.88332">
        <ele>157</ele>
        <time>2010-05-15T12:38:52Z</time>
      </trkpt>
      <trkpt lat="48.58389" lon="1.88333">
        <ele>157</ele>
        <time>2010-05-15T12:38:53Z</time>
      </trkpt>
      <trkpt lat="48.58387" lon="1.88334">
        <ele>157</ele>
        <time>2010-05-15T12:38:54Z</time>
      </trkpt>
      <trkpt lat="48.58386" lon="1.88336">
        <ele>157</ele>
        <time>2010-05-15T12:38:55Z</time>
      </trkpt>
      <trkpt lat="48.58385" lon="1.88337">
        <ele>157</ele>
        <time>2010-05-15T12:38:56Z</time>
      </trkpt>
      <trkpt lat="48.58383" lon="1.88339">
        <ele>157</ele>
        <time>2010-05-15T12:38:57Z</time>
      </trkpt>
      <trkpt lat="48.58382" lon="1.8834">
        <ele>157</ele>
        <time>2010-05-15T12:38:58Z</time>
      </trkpt>
      <trkpt lat="48.5838" lon="1.88341">
        <ele>157</ele>
        <time>2010-05-15T12:38:59Z</time>
      </trkpt>
      <trkpt lat="48.58379" lon="1.88343">
        <ele>157</ele>
        <time>2010-05-15T12:39:00Z</time>
      </trkpt>
      <trkpt lat="48.58377" lon="1.88344">
        <ele>157</ele>
        <time>2010-05-15T12:39:01Z</time>
      </trkpt>
      <trkpt lat="48.58376" lon="1.88345">
        <ele>157</ele>
        <time>2010-05-15T12:39:02Z</time>
      </trkpt>
      <trkpt lat="48.58374" lon="1.88347">
        <ele>157</ele>
        <time>2010-05-15T12:39:03Z</time>
      </trkpt>
      <trkpt lat="48.58373" lon="1.88348">
        <ele>157</ele>
        <time>2010-05-15T12:39:04Z</time>
      </trkpt>
      <trkpt lat="48.58371" lon="1.8835">
        <ele>157</ele>
        <time>2010-05-15T12:39:05Z</time>
      </trkpt>
      <trkpt lat="48.5837" lon="1.88351">
        <ele>157</ele>
        <time>2010-05-15T12:39:06Z</time>
      </trkpt>
      <trkpt lat="48.58369" lon="1.88353">
        <ele>157</ele>
        <time>2010-05-15T12:39:07Z</time>
      </trkpt>
      <trkpt lat="48.58367" lon="1.88354">
        <ele>157</ele>
        <time>2010-05-15T12:39:08Z</time>
      </trkpt>
      <trkpt lat="48.58366" lon="1.88356">
        <ele>157</ele>
        <time>2010-05-15T12:39:09Z</time>
      </trkpt>
      <trkpt lat="48.58365" lon="1.88357">
        <ele>157</ele>
        <time>2010-05-15T12:39:10Z</time>
      </trkpt>
      <trkpt lat="48.58364" lon="1.88359">
        <ele>157</ele>
        <time>2010-05-15T12:39:11Z</time>
      </trkpt>
      <trkpt lat="48.58362" lon="1.8836">
        <ele>157</ele>
        <time>2010-05-15T12:39:12Z</time>
      </trkpt>
      <trkpt lat="48.58361" lon="1.88362">
        <ele>157</ele>
        <time>2010-05-15T12:39:13Z</time>
      </trkpt>
      <trkpt lat="48.5836" lon="1.88364">
        <ele>157</ele>
        <time>2010-05-15T12:39:14Z</time>
      </trkpt>
      <trkpt lat="48.58359" lon="1.88366">
        <ele>157</ele>
        <time>2010-05-15T12:39:15Z</time>
      </trkpt>
      <trkpt lat="48.58357" lon="1.88367">
        <ele>157</ele>
        <time>2010-05-15T12:39:16Z</time>
      </trkpt>
      <trkpt lat="48.58356" lon="1.88369">
        <ele>157</ele>
        <time>2010-05-15T12:39:17Z</time>
      </trkpt>
      <trkpt lat="48.58355" lon="1.8837">
        <ele>157</ele>
        <time>2010-05-15T12:39:18Z</time>
      </trkpt>
      <trkpt lat="48.58354" lon="1.88372">
        <ele>157</ele>
        <time>2010-05-15T12:39:19Z</time>
      </trkpt>
      <trkpt lat="48.58352" lon="1.88373">
        <ele>157</ele>
        <time>2010-05-15T12:39:20Z</time>
      </trkpt>
      <trkpt lat="48.5835" lon="1.88376">
        <ele>157</ele>
        <time>2010-05-15T12:39:22Z</time>
      </trkpt>
      <trkpt lat="48.58349" lon="1.88377">
        <ele>157</ele>
        <time>2010-05-15T12:39:23Z</time>
      </trkpt>
      <trkpt lat="48.58348" lon="1.88379">
        <ele>157</ele>
        <time>2010-05-15T12:39:24Z</time>
      </trkpt>
      <trkpt lat="48.58347" lon="1.8838">
        <ele>157</ele>
        <time>2010-05-15T12:39:25Z</time>
      </trkpt>
      <trkpt lat="48.58346" lon="1.88381">
        <ele>157</ele>
        <time>2010-05-15T12:39:26Z</time>
      </trkpt>
      <trkpt lat="48.58345" lon="1.88383">
        <ele>157</ele>
        <time>2010-05-15T12:39:27Z</time>
      </trkpt>
      <trkpt lat="48.58343" lon="1.88384">
        <ele>157</ele>
        <time>2010-05-15T12:39:28Z</time>
      </trkpt>
      <trkpt lat="48.58342" lon="1.88385">
        <ele>157</ele>
        <time>2010-05-15T12:39:29Z</time>
      </trkpt>
      <trkpt lat="48.58341" lon="1.88387">
        <ele>157</ele>
        <time>2010-05-15T12:39:30Z</time>
      </trkpt>
      <trkpt lat="48.58339" lon="1.88388">
        <ele>157</ele>
        <time>2010-05-15T12:39:31Z</time>
      </trkpt>
      <trkpt lat="48.58338" lon="1.8839">
        <ele>157</ele>
        <time>2010-05-15T12:39:32Z</time>
      </trkpt>
      <trkpt lat="48.58337" lon="1.88391">
        <ele>157</ele>
        <time>2010-05-15T12:39:33Z</time>
      </trkpt>
      <trkpt lat="48.58336" lon="1.88392">
        <ele>157</ele>
        <time>2010-05-15T12:39:34Z</time>
      </trkpt>
      <trkpt lat="48.58334" lon="1.88394">
        <ele>157</ele>
        <time>2010-05-15T12:39:35Z</time>
      </trkpt>
      <trkpt lat="48.58333" lon="1.88396">
        <ele>157</ele>
        <time>2010-05-15T12:39:36Z</time>
      </trkpt>
      <trkpt lat="48.58331" lon="1.88398">
        <ele>157</ele>
        <time>2010-05-15T12:39:37Z</time>
      </trkpt>
      <trkpt lat="48.5833" lon="1.884">
        <ele>157</ele>
        <time>2010-05-15T12:39:38Z</time>
      </trkpt>
      <trkpt lat="48.58329" lon="1.88401">
        <ele>157</ele>
        <time>2010-05-15T12:39:39Z</time>
      </trkpt>
      <trkpt lat="48.58327" lon="1.88403">
        <ele>157</ele>
        <time>2010-05-15T12:39:40Z</time>
      </trkpt>
      <trkpt lat="48.58326" lon="1.88405">
        <ele>157</ele>
        <time>2010-05-15T12:39:41Z</time>
      </trkpt>
      <trkpt lat="48.58326" lon="1.88408">
        <ele>157</ele>
        <time>2010-05-15T12:39:42Z</time>
      </trkpt>
      <trkpt lat="48.58325" lon="1.8841">
        <ele>157</ele>
        <time>2010-05-15T12:39:43Z</time>
      </trkpt>
      <trkpt lat="48.58325" lon="1.88412">
        <ele>157</ele>
        <time>2010-05-15T12:39:44Z</time>
      </trkpt>
      <trkpt lat="48.58325" lon="1.88415">
        <ele>157</ele>
        <time>2010-05-15T12:39:45Z</time>
      </trkpt>
      <trkpt lat="48.58325" lon="1.88417">
        <ele>157</ele>
        <time>2010-05-15T12:39:46Z</time>
      </trkpt>
      <trkpt lat="48.58326" lon="1.8842">
        <ele>157</ele>
        <time>2010-05-15T12:39:47Z</time>
      </trkpt>
      <trkpt lat="48.58326" lon="1.88422">
        <ele>157</ele>
        <time>2010-05-15T12:39:48Z</time>
      </trkpt>
      <trkpt lat="48.58328" lon="1.88425">
        <ele>157</ele>
        <time>2010-05-15T12:39:49Z</time>
      </trkpt>
      <trkpt lat="48.58329" lon="1.88427">
        <ele>157</ele>
        <time>2010-05-15T12:39:50Z</time>
      </trkpt>
      <trkpt lat="48.5833" lon="1.8843">
        <ele>157</ele>
        <time>2010-05-15T12:39:51Z</time>
      </trkpt>
      <trkpt lat="48.58331" lon="1.88433">
        <ele>157</ele>
        <time>2010-05-15T12:39:52Z</time>
      </trkpt>
      <trkpt lat="48.58333" lon="1.88436">
        <ele>157</ele>
        <time>2010-05-15T12:39:53Z</time>
      </trkpt>
      <trkpt lat="48.58334" lon="1.88438">
        <ele>157</ele>
        <time>2010-05-15T12:39:54Z</time>
      </trkpt>
      <trkpt lat="48.58335" lon="1.88441">
        <ele>157</ele>
        <time>2010-05-15T12:39:55Z</time>
      </trkpt>
      <trkpt lat="48.58336" lon="1.88443">
        <ele>157</ele>
        <time>2010-05-15T12:39:56Z</time>
      </trkpt>
      <trkpt lat="48.58338" lon="1.88446">
        <ele>157</ele>
        <time>2010-05-15T12:39:57Z</time>
      </trkpt>
      <trkpt lat="48.58339" lon="1.88448">
        <ele>158</ele>
        <time>2010-05-15T12:39:58Z</time>
      </trkpt>
      <trkpt lat="48.5834" lon="1.88451">
        <ele>158</ele>
        <time>2010-05-15T12:39:59Z</time>
      </trkpt>
      <trkpt lat="48.58342" lon="1.88453">
        <ele>158</ele>
        <time>2010-05-15T12:40:00Z</time>
      </trkpt>
      <trkpt lat="48.58343" lon="1.88455">
        <ele>159</ele>
        <time>2010-05-15T12:40:01Z</time>
      </trkpt>
      <trkpt lat="48.58344" lon="1.88457">
        <ele>159</ele>
        <time>2010-05-15T12:40:02Z</time>
      </trkpt>
      <trkpt lat="48.58346" lon="1.88459">
        <ele>160</ele>
        <time>2010-05-15T12:40:03Z</time>
      </trkpt>
      <trkpt lat="48.58347" lon="1.8846">
        <ele>160</ele>
        <time>2010-05-15T12:40:04Z</time>
      </trkpt>
      <trkpt lat="48.58348" lon="1.88462">
        <ele>160</ele>
        <time>2010-05-15T12:40:05Z</time>
      </trkpt>
      <trkpt lat="48.5835" lon="1.88464">
        <ele>161</ele>
        <time>2010-05-15T12:40:06Z</time>
      </trkpt>
      <trkpt lat="48.58351" lon="1.88465">
        <ele>161</ele>
        <time>2010-05-15T12:40:07Z</time>
      </trkpt>
      <trkpt lat="48.58352" lon="1.88467">
        <ele>161</ele>
        <time>2010-05-15T12:40:08Z</time>
      </trkpt>
      <trkpt lat="48.58353" lon="1.88469">
        <ele>161</ele>
        <time>2010-05-15T12:40:09Z</time>
      </trkpt>
      <trkpt lat="48.58354" lon="1.88471">
        <ele>162</ele>
        <time>2010-05-15T12:40:10Z</time>
      </trkpt>
      <trkpt lat="48.58355" lon="1.88473">
        <ele>162</ele>
        <time>2010-05-15T12:40:11Z</time>
      </trkpt>
      <trkpt lat="48.58356" lon="1.88475">
        <ele>162</ele>
        <time>2010-05-15T12:40:12Z</time>
      </trkpt>
      <trkpt lat="48.58357" lon="1.88477">
        <ele>163</ele>
        <time>2010-05-15T12:40:13Z</time>
      </trkpt>
      <trkpt lat="48.58358" lon="1.88479">
        <ele>163</ele>
        <time>2010-05-15T12:40:14Z</time>
      </trkpt>
      <trkpt lat="48.5836" lon="1.8848">
        <ele>163</ele>
        <time>2010-05-15T12:40:15Z</time>
      </trkpt>
      <trkpt lat="48.58361" lon="1.88482">
        <ele>163</ele>
        <time>2010-05-15T12:40:16Z</time>
      </trkpt>
      <trkpt lat="48.58362" lon="1.88484">
        <ele>164</ele>
        <time>2010-05-15T12:40:17Z</time>
      </trkpt>
      <trkpt lat="48.58363" lon="1.88485">
        <ele>164</ele>
        <time>2010-05-15T12:40:18Z</time>
      </trkpt>
      <trkpt lat="48.58364" lon="1.88487">
        <ele>164</ele>
        <time>2010-05-15T12:40:19Z</time>
      </trkpt>
      <trkpt lat="48.58365" lon="1.88489">
        <ele>164</ele>
        <time>2010-05-15T12:40:20Z</time>
      </trkpt>
      <trkpt lat="48.58366" lon="1.88491">
        <ele>164</ele>
        <time>2010-05-15T12:40:21Z</time>
      </trkpt>
      <trkpt lat="48.58367" lon="1.88493">
        <ele>165</ele>
        <time>2010-05-15T12:40:22Z</time>
      </trkpt>
      <trkpt lat="48.58368" lon="1.88495">
        <ele>165</ele>
        <time>2010-05-15T12:40:24Z</time>
      </trkpt>
      <trkpt lat="48.58369" lon="1.88495">
        <ele>166</ele>
        <time>2010-05-15T12:40:41Z</time>
      </trkpt>
      <trkpt lat="48.5837" lon="1.88497">
        <ele>166</ele>
        <time>2010-05-15T12:41:18Z</time>
      </trkpt>
      <trkpt lat="48.58371" lon="1.88499">
        <ele>164</ele>
        <time>2010-05-15T12:41:42Z</time>
      </trkpt>
      <trkpt lat="48.58372" lon="1.88497">
        <ele>163</ele>
        <time>2010-05-15T12:41:51Z</time>
      </trkpt>
      <trkpt lat="48.58373" lon="1.88495">
        <ele>161</ele>
        <time>2010-05-15T12:42:06Z</time>
      </trkpt>
      <trkpt lat="48.58371" lon="1.88494">
        <ele>159</ele>
        <time>2010-05-15T12:42:14Z</time>
      </trkpt>
      <trkpt lat="48.5837" lon="1.88494">
        <ele>158</ele>
        <time>2010-05-15T12:42:18Z</time>
      </trkpt>
      <trkpt lat="48.58369" lon="1.88494">
        <ele>158</ele>
        <time>2010-05-15T12:42:21Z</time>
      </trkpt>
      <trkpt lat="48.58368" lon="1.88496">
        <ele>158</ele>
        <time>2010-05-15T12:42:26Z</time>
      </trkpt>
      <trkpt lat="48.58368" lon="1.88498">
        <ele>158</ele>
        <time>2010-05-15T12:42:28Z</time>
      </trkpt>
      <trkpt lat="48.58369" lon="1.88501">
        <ele>158</ele>
        <time>2010-05-15T12:42:30Z</time>
      </trkpt>
      <trkpt lat="48.58371" lon="1.88503">
        <ele>158</ele>
        <time>2010-05-15T12:42:32Z</time>
      </trkpt>
      <trkpt lat="48.58372" lon="1.88506">
        <ele>158</ele>
        <time>2010-05-15T12:42:34Z</time>
      </trkpt>
      <trkpt lat="48.58374" lon="1.88509">
        <ele>158</ele>
        <time>2010-05-15T12:42:36Z</time>
      </trkpt>
      <trkpt lat="48.58376" lon="1.8851">
        <ele>158</ele>
        <time>2010-05-15T12:42:38Z</time>
      </trkpt>
      <trkpt lat="48.58377" lon="1.88511">
        <ele>158</ele>
        <time>2010-05-15T12:42:40Z</time>
      </trkpt>
      <trkpt lat="48.58378" lon="1.88512">
        <ele>158</ele>
        <time>2010-05-15T12:42:41Z</time>
      </trkpt>
      <trkpt lat="48.58379" lon="1.88513">
        <ele>158</ele>
        <time>2010-05-15T12:42:42Z</time>
      </trkpt>
      <trkpt lat="48.58381" lon="1.88515">
        <ele>158</ele>
        <time>2010-05-15T12:42:44Z</time>
      </trkpt>
      <trkpt lat="48.58383" lon="1.88517">
        <ele>158</ele>
        <time>2010-05-15T12:42:46Z</time>
      </trkpt>
      <trkpt lat="48.58385" lon="1.8852">
        <ele>158</ele>
        <time>2010-05-15T12:42:48Z</time>
      </trkpt>
      <trkpt lat="48.58386" lon="1.88522">
        <ele>159</ele>
        <time>2010-05-15T12:42:49Z</time>
      </trkpt>
      <trkpt lat="48.58386" lon="1.88524">
        <ele>159</ele>
        <time>2010-05-15T12:42:50Z</time>
      </trkpt>
      <trkpt lat="48.58388" lon="1.88527">
        <ele>159</ele>
        <time>2010-05-15T12:42:52Z</time>
      </trkpt>
      <trkpt lat="48.58389" lon="1.88528">
        <ele>159</ele>
        <time>2010-05-15T12:42:53Z</time>
      </trkpt>
      <trkpt lat="48.5839" lon="1.8853">
        <ele>159</ele>
        <time>2010-05-15T12:42:54Z</time>
      </trkpt>
      <trkpt lat="48.58391" lon="1.88533">
        <ele>159</ele>
        <time>2010-05-15T12:42:56Z</time>
      </trkpt>
      <trkpt lat="48.58393" lon="1.88536">
        <ele>159</ele>
        <time>2010-05-15T12:42:58Z</time>
      </trkpt>
      <trkpt lat="48.58395" lon="1.88538">
        <ele>159</ele>
        <time>2010-05-15T12:43:00Z</time>
      </trkpt>
      <trkpt lat="48.58396" lon="1.88541">
        <ele>159</ele>
        <time>2010-05-15T12:43:02Z</time>
      </trkpt>
      <trkpt lat="48.58398" lon="1.88543">
        <ele>159</ele>
        <time>2010-05-15T12:43:04Z</time>
      </trkpt>
      <trkpt lat="48.58399" lon="1.88544">
        <ele>159</ele>
        <time>2010-05-15T12:43:13Z</time>
      </trkpt>
      <trkpt lat="48.58399" lon="1.88546">
        <ele>159</ele>
        <time>2010-05-15T12:43:24Z</time>
      </trkpt>
      <trkpt lat="48.58398" lon="1.88547">
        <ele>159</ele>
        <time>2010-05-15T12:43:35Z</time>
      </trkpt>
      <trkpt lat="48.58398" lon="1.88549">
        <ele>158</ele>
        <time>2010-05-15T12:43:39Z</time>
      </trkpt>
      <trkpt lat="48.58397" lon="1.88547">
        <ele>158</ele>
        <time>2010-05-15T12:43:51Z</time>
      </trkpt>
      <trkpt lat="48.58397" lon="1.88544">
        <ele>158</ele>
        <time>2010-05-15T12:43:53Z</time>
      </trkpt>
      <trkpt lat="48.58398" lon="1.88543">
        <ele>158</ele>
        <time>2010-05-15T12:43:56Z</time>
      </trkpt>
      <trkpt lat="48.584" lon="1.88543">
        <ele>158</ele>
        <time>2010-05-15T12:43:58Z</time>
      </trkpt>
      <trkpt lat="48.58401" lon="1.88545">
        <ele>158</ele>
        <time>2010-05-15T12:44:00Z</time>
      </trkpt>
      <trkpt lat="48.58402" lon="1.88547">
        <ele>158</ele>
        <time>2010-05-15T12:44:03Z</time>
      </trkpt>
      <trkpt lat="48.58404" lon="1.88549">
        <ele>158</ele>
        <time>2010-05-15T12:44:05Z</time>
      </trkpt>
      <trkpt lat="48.58406" lon="1.88552">
        <ele>158</ele>
        <time>2010-05-15T12:44:07Z</time>
      </trkpt>
      <trkpt lat="48.58407" lon="1.88554">
        <ele>158</ele>
        <time>2010-05-15T12:44:09Z</time>
      </trkpt>
      <trkpt lat="48.58408" lon="1.88557">
        <ele>158</ele>
        <time>2010-05-15T12:44:10Z</time>
      </trkpt>
      <trkpt lat="48.58409" lon="1.88559">
        <ele>158</ele>
        <time>2010-05-15T12:44:11Z</time>
      </trkpt>
      <trkpt lat="48.5841" lon="1.88562">
        <ele>158</ele>
        <time>2010-05-15T12:44:12Z</time>
      </trkpt>
      <trkpt lat="48.58411" lon="1.88565">
        <ele>158</ele>
        <time>2010-05-15T12:44:13Z</time>
      </trkpt>
      <trkpt lat="48.58412" lon="1.88567">
        <ele>158</ele>
        <time>2010-05-15T12:44:14Z</time>
      </trkpt>
      <trkpt lat="48.58413" lon="1.88569">
        <ele>158</ele>
        <time>2010-05-15T12:44:15Z</time>
      </trkpt>
      <trkpt lat="48.58414" lon="1.88572">
        <ele>158</ele>
        <time>2010-05-15T12:44:16Z</time>
      </trkpt>
      <trkpt lat="48.58415" lon="1.88575">
        <ele>158</ele>
        <time>2010-05-15T12:44:17Z</time>
      </trkpt>
      <trkpt lat="48.58416" lon="1.88577">
        <ele>158</ele>
        <time>2010-05-15T12:44:18Z</time>
      </trkpt>
      <trkpt lat="48.58417" lon="1.88578">
        <ele>158</ele>
        <time>2010-05-15T12:44:19Z</time>
      </trkpt>
      <trkpt lat="48.58418" lon="1.8858">
        <ele>158</ele>
        <time>2010-05-15T12:44:20Z</time>
      </trkpt>
      <trkpt lat="48.58419" lon="1.88582">
        <ele>158</ele>
        <time>2010-05-15T12:44:21Z</time>
      </trkpt>
      <trkpt lat="48.5842" lon="1.88583">
        <ele>158</ele>
        <time>2010-05-15T12:44:22Z</time>
      </trkpt>
      <trkpt lat="48.58421" lon="1.88585">
        <ele>158</ele>
        <time>2010-05-15T12:44:23Z</time>
      </trkpt>
      <trkpt lat="48.58422" lon="1.88587">
        <ele>158</ele>
        <time>2010-05-15T12:44:24Z</time>
      </trkpt>
      <trkpt lat="48.58423" lon="1.88589">
        <ele>158</ele>
        <time>2010-05-15T12:44:25Z</time>
      </trkpt>
      <trkpt lat="48.58424" lon="1.88591">
        <ele>158</ele>
        <time>2010-05-15T12:44:26Z</time>
      </trkpt>
      <trkpt lat="48.58425" lon="1.88593">
        <ele>158</ele>
        <time>2010-05-15T12:44:27Z</time>
      </trkpt>
      <trkpt lat="48.58427" lon="1.88595">
        <ele>158</ele>
        <time>2010-05-15T12:44:28Z</time>
      </trkpt>
      <trkpt lat="48.58428" lon="1.88596">
        <ele>158</ele>
        <time>2010-05-15T12:44:29Z</time>
      </trkpt>
      <trkpt lat="48.58429" lon="1.88598">
        <ele>158</ele>
        <time>2010-05-15T12:44:30Z</time>
      </trkpt>
      <trkpt lat="48.58429" lon="1.886">
        <ele>158</ele>
        <time>2010-05-15T12:44:31Z</time>
      </trkpt>
      <trkpt lat="48.5843" lon="1.88602">
        <ele>158</ele>
        <time>2010-05-15T12:44:32Z</time>
      </trkpt>
      <trkpt lat="48.5843" lon="1.88604">
        <ele>158</ele>
        <time>2010-05-15T12:44:33Z</time>
      </trkpt>
      <trkpt lat="48.58431" lon="1.88606">
        <ele>158</ele>
        <time>2010-05-15T12:44:34Z</time>
      </trkpt>
      <trkpt lat="48.58431" lon="1.88608">
        <ele>158</ele>
        <time>2010-05-15T12:44:35Z</time>
      </trkpt>
      <trkpt lat="48.58432" lon="1.8861">
        <ele>158</ele>
        <time>2010-05-15T12:44:36Z</time>
      </trkpt>
      <trkpt lat="48.58432" lon="1.88612">
        <ele>158</ele>
        <time>2010-05-15T12:44:37Z</time>
      </trkpt>
      <trkpt lat="48.58432" lon="1.88615">
        <ele>158</ele>
        <time>2010-05-15T12:44:38Z</time>
      </trkpt>
      <trkpt lat="48.58432" lon="1.88619">
        <ele>158</ele>
        <time>2010-05-15T12:44:39Z</time>
      </trkpt>
      <trkpt lat="48.58432" lon="1.88623">
        <ele>158</ele>
        <time>2010-05-15T12:44:40Z</time>
      </trkpt>
      <trkpt lat="48.58431" lon="1.88627">
        <ele>158</ele>
        <time>2010-05-15T12:44:41Z</time>
      </trkpt>
      <trkpt lat="48.58431" lon="1.88631">
        <ele>158</ele>
        <time>2010-05-15T12:44:42Z</time>
      </trkpt>
      <trkpt lat="48.5843" lon="1.88635">
        <ele>158</ele>
        <time>2010-05-15T12:44:43Z</time>
      </trkpt>
      <trkpt lat="48.5843" lon="1.88638">
        <ele>158</ele>
        <time>2010-05-15T12:44:44Z</time>
      </trkpt>
      <trkpt lat="48.58429" lon="1.88642">
        <ele>158</ele>
        <time>2010-05-15T12:44:45Z</time>
      </trkpt>
      <trkpt lat="48.58429" lon="1.88645">
        <ele>158</ele>
        <time>2010-05-15T12:44:46Z</time>
      </trkpt>
      <trkpt lat="48.58428" lon="1.88647">
        <ele>158</ele>
        <time>2010-05-15T12:44:47Z</time>
      </trkpt>
      <trkpt lat="48.58428" lon="1.8865">
        <ele>158</ele>
        <time>2010-05-15T12:44:48Z</time>
      </trkpt>
      <trkpt lat="48.58427" lon="1.88653">
        <ele>158</ele>
        <time>2010-05-15T12:44:49Z</time>
      </trkpt>
      <trkpt lat="48.58427" lon="1.88655">
        <ele>158</ele>
        <time>2010-05-15T12:44:50Z</time>
      </trkpt>
      <trkpt lat="48.58426" lon="1.88658">
        <ele>158</ele>
        <time>2010-05-15T12:44:51Z</time>
      </trkpt>
      <trkpt lat="48.58425" lon="1.8866">
        <ele>158</ele>
        <time>2010-05-15T12:44:52Z</time>
      </trkpt>
      <trkpt lat="48.58425" lon="1.88663">
        <ele>158</ele>
        <time>2010-05-15T12:44:53Z</time>
      </trkpt>
      <trkpt lat="48.58425" lon="1.88665">
        <ele>158</ele>
        <time>2010-05-15T12:44:54Z</time>
      </trkpt>
      <trkpt lat="48.58424" lon="1.88668">
        <ele>158</ele>
        <time>2010-05-15T12:44:55Z</time>
      </trkpt>
      <trkpt lat="48.58424" lon="1.8867">
        <ele>158</ele>
        <time>2010-05-15T12:44:56Z</time>
      </trkpt>
      <trkpt lat="48.58423" lon="1.88672">
        <ele>158</ele>
        <time>2010-05-15T12:44:57Z</time>
      </trkpt>
      <trkpt lat="48.58423" lon="1.88675">
        <ele>158</ele>
        <time>2010-05-15T12:44:58Z</time>
      </trkpt>
      <trkpt lat="48.58423" lon="1.88677">
        <ele>158</ele>
        <time>2010-05-15T12:44:59Z</time>
      </trkpt>
      <trkpt lat="48.58422" lon="1.88679">
        <ele>158</ele>
        <time>2010-05-15T12:45:00Z</time>
      </trkpt>
      <trkpt lat="48.58422" lon="1.88682">
        <ele>158</ele>
        <time>2010-05-15T12:45:01Z</time>
      </trkpt>
      <trkpt lat="48.58421" lon="1.88684">
        <ele>158</ele>
        <time>2010-05-15T12:45:02Z</time>
      </trkpt>
      <trkpt lat="48.58421" lon="1.88687">
        <ele>158</ele>
        <time>2010-05-15T12:45:03Z</time>
      </trkpt>
      <trkpt lat="48.5842" lon="1.88689">
        <ele>158</ele>
        <time>2010-05-15T12:45:04Z</time>
      </trkpt>
      <trkpt lat="48.5842" lon="1.88691">
        <ele>158</ele>
        <time>2010-05-15T12:45:05Z</time>
      </trkpt>
      <trkpt lat="48.5842" lon="1.88694">
        <ele>158</ele>
        <time>2010-05-15T12:45:06Z</time>
      </trkpt>
      <trkpt lat="48.58419" lon="1.88697">
        <ele>158</ele>
        <time>2010-05-15T12:45:07Z</time>
      </trkpt>
      <trkpt lat="48.58419" lon="1.88699">
        <ele>158</ele>
        <time>2010-05-15T12:45:08Z</time>
      </trkpt>
      <trkpt lat="48.58419" lon="1.88702">
        <ele>158</ele>
        <time>2010-05-15T12:45:09Z</time>
      </trkpt>
      <trkpt lat="48.58418" lon="1.88704">
        <ele>158</ele>
        <time>2010-05-15T12:45:10Z</time>
      </trkpt>
      <trkpt lat="48.58418" lon="1.88707">
        <ele>158</ele>
        <time>2010-05-15T12:45:11Z</time>
      </trkpt>
      <trkpt lat="48.58417" lon="1.88709">
        <ele>158</ele>
        <time>2010-05-15T12:45:12Z</time>
      </trkpt>
      <trkpt lat="48.58417" lon="1.88712">
        <ele>158</ele>
        <time>2010-05-15T12:45:13Z</time>
      </trkpt>
      <trkpt lat="48.58417" lon="1.88715">
        <ele>158</ele>
        <time>2010-05-15T12:45:14Z</time>
      </trkpt>
      <trkpt lat="48.58416" lon="1.88718">
        <ele>158</ele>
        <time>2010-05-15T12:45:15Z</time>
      </trkpt>
      <trkpt lat="48.58416" lon="1.8872">
        <ele>158</ele>
        <time>2010-05-15T12:45:16Z</time>
      </trkpt>
      <trkpt lat="48.58415" lon="1.88723">
        <ele>158</ele>
        <time>2010-05-15T12:45:17Z</time>
      </trkpt>
      <trkpt lat="48.58415" lon="1.88726">
        <ele>158</ele>
        <time>2010-05-15T12:45:18Z</time>
      </trkpt>
      <trkpt lat="48.58414" lon="1.88729">
        <ele>158</ele>
        <time>2010-05-15T12:45:19Z</time>
      </trkpt>
      <trkpt lat="48.58414" lon="1.88732">
        <ele>158</ele>
        <time>2010-05-15T12:45:20Z</time>
      </trkpt>
      <trkpt lat="48.58414" lon="1.88734">
        <ele>158</ele>
        <time>2010-05-15T12:45:21Z</time>
      </trkpt>
      <trkpt lat="48.58413" lon="1.88737">
        <ele>158</ele>
        <time>2010-05-15T12:45:22Z</time>
      </trkpt>
      <trkpt lat="48.58413" lon="1.8874">
        <ele>158</ele>
        <time>2010-05-15T12:45:23Z</time>
      </trkpt>
      <trkpt lat="48.58412" lon="1.88743">
        <ele>158</ele>
        <time>2010-05-15T12:45:24Z</time>
      </trkpt>
      <trkpt lat="48.58412" lon="1.88746">
        <ele>158</ele>
        <time>2010-05-15T12:45:25Z</time>
      </trkpt>
      <trkpt lat="48.58412" lon="1.88749">
        <ele>157</ele>
        <time>2010-05-15T12:45:26Z</time>
      </trkpt>
      <trkpt lat="48.58412" lon="1.88751">
        <ele>157</ele>
        <time>2010-05-15T12:45:27Z</time>
      </trkpt>
      <trkpt lat="48.58411" lon="1.88754">
        <ele>157</ele>
        <time>2010-05-15T12:45:28Z</time>
      </trkpt>
      <trkpt lat="48.58411" lon="1.88757">
        <ele>157</ele>
        <time>2010-05-15T12:45:29Z</time>
      </trkpt>
      <trkpt lat="48.58411" lon="1.88759">
        <ele>157</ele>
        <time>2010-05-15T12:45:30Z</time>
      </trkpt>
      <trkpt lat="48.58411" lon="1.88762">
        <ele>157</ele>
        <time>2010-05-15T12:45:31Z</time>
      </trkpt>
      <trkpt lat="48.5841" lon="1.88764">
        <ele>157</ele>
        <time>2010-05-15T12:45:32Z</time>
      </trkpt>
      <trkpt lat="48.5841" lon="1.88767">
        <ele>157</ele>
        <time>2010-05-15T12:45:33Z</time>
      </trkpt>
      <trkpt lat="48.5841" lon="1.8877">
        <ele>157</ele>
        <time>2010-05-15T12:45:34Z</time>
      </trkpt>
      <trkpt lat="48.5841" lon="1.88773">
        <ele>157</ele>
        <time>2010-05-15T12:45:35Z</time>
      </trkpt>
      <trkpt lat="48.58409" lon="1.88775">
        <ele>157</ele>
        <time>2010-05-15T12:45:36Z</time>
      </trkpt>
      <trkpt lat="48.58409" lon="1.88778">
        <ele>157</ele>
        <time>2010-05-15T12:45:37Z</time>
      </trkpt>
      <trkpt lat="48.58409" lon="1.88781">
        <ele>157</ele>
        <time>2010-05-15T12:45:38Z</time>
      </trkpt>
      <trkpt lat="48.58408" lon="1.88783">
        <ele>157</ele>
        <time>2010-05-15T12:45:39Z</time>
      </trkpt>
      <trkpt lat="48.58408" lon="1.88786">
        <ele>157</ele>
        <time>2010-05-15T12:45:40Z</time>
      </trkpt>
      <trkpt lat="48.58407" lon="1.88789">
        <ele>157</ele>
        <time>2010-05-15T12:45:41Z</time>
      </trkpt>
      <trkpt lat="48.58407" lon="1.88791">
        <ele>157</ele>
        <time>2010-05-15T12:45:42Z</time>
      </trkpt>
      <trkpt lat="48.58407" lon="1.88794">
        <ele>157</ele>
        <time>2010-05-15T12:45:43Z</time>
      </trkpt>
      <trkpt lat="48.58407" lon="1.88796">
        <ele>157</ele>
        <time>2010-05-15T12:45:44Z</time>
      </trkpt>
      <trkpt lat="48.58406" lon="1.88798">
        <ele>157</ele>
        <time>2010-05-15T12:45:45Z</time>
      </trkpt>
      <trkpt lat="48.58406" lon="1.888">
        <ele>157</ele>
        <time>2010-05-15T12:45:46Z</time>
      </trkpt>
      <trkpt lat="48.58406" lon="1.88803">
        <ele>157</ele>
        <time>2010-05-15T12:45:47Z</time>
      </trkpt>
      <trkpt lat="48.58405" lon="1.88805">
        <ele>157</ele>
        <time>2010-05-15T12:45:48Z</time>
      </trkpt>
      <trkpt lat="48.58405" lon="1.88808">
        <ele>157</ele>
        <time>2010-05-15T12:45:49Z</time>
      </trkpt>
      <trkpt lat="48.58405" lon="1.88811">
        <ele>156</ele>
        <time>2010-05-15T12:45:50Z</time>
      </trkpt>
      <trkpt lat="48.58404" lon="1.88813">
        <ele>156</ele>
        <time>2010-05-15T12:45:51Z</time>
      </trkpt>
      <trkpt lat="48.58404" lon="1.88816">
        <ele>156</ele>
        <time>2010-05-15T12:45:52Z</time>
      </trkpt>
      <trkpt lat="48.58403" lon="1.88818">
        <ele>156</ele>
        <time>2010-05-15T12:45:53Z</time>
      </trkpt>
      <trkpt lat="48.58403" lon="1.88821">
        <ele>156</ele>
        <time>2010-05-15T12:45:54Z</time>
      </trkpt>
      <trkpt lat="48.58402" lon="1.88824">
        <ele>156</ele>
        <time>2010-05-15T12:45:55Z</time>
      </trkpt>
      <trkpt lat="48.58402" lon="1.88826">
        <ele>156</ele>
        <time>2010-05-15T12:45:56Z</time>
      </trkpt>
      <trkpt lat="48.58402" lon="1.88829">
        <ele>156</ele>
        <time>2010-05-15T12:45:57Z</time>
      </trkpt>
      <trkpt lat="48.58401" lon="1.88831">
        <ele>156</ele>
        <time>2010-05-15T12:45:58Z</time>
      </trkpt>
      <trkpt lat="48.58401" lon="1.88834">
        <ele>156</ele>
        <time>2010-05-15T12:45:59Z</time>
      </trkpt>
      <trkpt lat="48.584" lon="1.88837">
        <ele>156</ele>
        <time>2010-05-15T12:46:00Z</time>
      </trkpt>
      <trkpt lat="48.584" lon="1.88839">
        <ele>156</ele>
        <time>2010-05-15T12:46:01Z</time>
      </trkpt>
      <trkpt lat="48.58399" lon="1.88842">
        <ele>156</ele>
        <time>2010-05-15T12:46:02Z</time>
      </trkpt>
      <trkpt lat="48.58399" lon="1.88845">
        <ele>156</ele>
        <time>2010-05-15T12:46:03Z</time>
      </trkpt>
      <trkpt lat="48.58399" lon="1.88847">
        <ele>156</ele>
        <time>2010-05-15T12:46:04Z</time>
      </trkpt>
      <trkpt lat="48.58398" lon="1.88849">
        <ele>156</ele>
        <time>2010-05-15T12:46:05Z</time>
      </trkpt>
      <trkpt lat="48.58398" lon="1.88852">
        <ele>156</ele>
        <time>2010-05-15T12:46:06Z</time>
      </trkpt>
      <trkpt lat="48.58398" lon="1.88854">
        <ele>156</ele>
        <time>2010-05-15T12:46:07Z</time>
      </trkpt>
      <trkpt lat="48.58397" lon="1.88857">
        <ele>156</ele>
        <time>2010-05-15T12:46:08Z</time>
      </trkpt>
      <trkpt lat="48.58397" lon="1.88859">
        <ele>156</ele>
        <time>2010-05-15T12:46:09Z</time>
      </trkpt>
      <trkpt lat="48.58396" lon="1.88862">
        <ele>156</ele>
        <time>2010-05-15T12:46:10Z</time>
      </trkpt>
      <trkpt lat="48.58396" lon="1.88864">
        <ele>156</ele>
        <time>2010-05-15T12:46:11Z</time>
      </trkpt>
      <trkpt lat="48.58396" lon="1.88867">
        <ele>156</ele>
        <time>2010-05-15T12:46:12Z</time>
      </trkpt>
      <trkpt lat="48.58395" lon="1.88869">
        <ele>156</ele>
        <time>2010-05-15T12:46:13Z</time>
      </trkpt>
      <trkpt lat="48.58395" lon="1.88871">
        <ele>156</ele>
        <time>2010-05-15T12:46:14Z</time>
      </trkpt>
      <trkpt lat="48.58394" lon="1.88873">
        <ele>156</ele>
        <time>2010-05-15T12:46:15Z</time>
      </trkpt>
      <trkpt lat="48.58394" lon="1.88876">
        <ele>156</ele>
        <time>2010-05-15T12:46:16Z</time>
      </trkpt>
      <trkpt lat="48.58394" lon="1.88878">
        <ele>156</ele>
        <time>2010-05-15T12:46:17Z</time>
      </trkpt>
      <trkpt lat="48.58394" lon="1.8888">
        <ele>156</ele>
        <time>2010-05-15T12:46:18Z</time>
      </trkpt>
      <trkpt lat="48.58394" lon="1.88882">
        <ele>156</ele>
        <time>2010-05-15T12:46:19Z</time>
      </trkpt>
      <trkpt lat="48.58394" lon="1.88885">
        <ele>156</ele>
        <time>2010-05-15T12:46:20Z</time>
      </trkpt>
      <trkpt lat="48.58393" lon="1.88888">
        <ele>156</ele>
        <time>2010-05-15T12:46:21Z</time>
      </trkpt>
      <trkpt lat="48.58393" lon="1.88891">
        <ele>156</ele>
        <time>2010-05-15T12:46:22Z</time>
      </trkpt>
      <trkpt lat="48.58393" lon="1.88895">
        <ele>156</ele>
        <time>2010-05-15T12:46:23Z</time>
      </trkpt>
      <trkpt lat="48.58393" lon="1.88899">
        <ele>156</ele>
        <time>2010-05-15T12:46:24Z</time>
      </trkpt>
      <trkpt lat="48.58393" lon="1.88902">
        <ele>156</ele>
        <time>2010-05-15T12:46:25Z</time>
      </trkpt>
      <trkpt lat="48.58392" lon="1.88905">
        <ele>156</ele>
        <time>2010-05-15T12:46:26Z</time>
      </trkpt>
      <trkpt lat="48.58392" lon="1.88908">
        <ele>156</ele>
        <time>2010-05-15T12:46:27Z</time>
      </trkpt>
      <trkpt lat="48.58391" lon="1.88911">
        <ele>156</ele>
        <time>2010-05-15T12:46:28Z</time>
      </trkpt>
      <trkpt lat="48.58391" lon="1.88914">
        <ele>156</ele>
        <time>2010-05-15T12:46:29Z</time>
      </trkpt>
      <trkpt lat="48.58391" lon="1.88917">
        <ele>156</ele>
        <time>2010-05-15T12:46:30Z</time>
      </trkpt>
      <trkpt lat="48.5839" lon="1.88922">
        <ele>156</ele>
        <time>2010-05-15T12:46:31Z</time>
      </trkpt>
      <trkpt lat="48.5839" lon="1.88927">
        <ele>156</ele>
        <time>2010-05-15T12:46:32Z</time>
      </trkpt>
      <trkpt lat="48.5839" lon="1.88932">
        <ele>156</ele>
        <time>2010-05-15T12:46:33Z</time>
      </trkpt>
      <trkpt lat="48.58389" lon="1.88938">
        <ele>156</ele>
        <time>2010-05-15T12:46:34Z</time>
      </trkpt>
      <trkpt lat="48.58388" lon="1.88944">
        <ele>156</ele>
        <time>2010-05-15T12:46:35Z</time>
      </trkpt>
      <trkpt lat="48.58387" lon="1.88951">
        <ele>156</ele>
        <time>2010-05-15T12:46:36Z</time>
      </trkpt>
      <trkpt lat="48.58387" lon="1.88958">
        <ele>156</ele>
        <time>2010-05-15T12:46:37Z</time>
      </trkpt>
      <trkpt lat="48.58386" lon="1.88965">
        <ele>156</ele>
        <time>2010-05-15T12:46:38Z</time>
      </trkpt>
      <trkpt lat="48.58385" lon="1.88972">
        <ele>156</ele>
        <time>2010-05-15T12:46:39Z</time>
      </trkpt>
      <trkpt lat="48.58384" lon="1.8898">
        <ele>156</ele>
        <time>2010-05-15T12:46:40Z</time>
      </trkpt>
      <trkpt lat="48.58384" lon="1.88988">
        <ele>156</ele>
        <time>2010-05-15T12:46:41Z</time>
      </trkpt>
      <trkpt lat="48.58383" lon="1.88996">
        <ele>156</ele>
        <time>2010-05-15T12:46:42Z</time>
      </trkpt>
      <trkpt lat="48.58382" lon="1.89004">
        <ele>156</ele>
        <time>2010-05-15T12:46:43Z</time>
      </trkpt>
      <trkpt lat="48.58382" lon="1.89011">
        <ele>156</ele>
        <time>2010-05-15T12:46:44Z</time>
      </trkpt>
      <trkpt lat="48.58381" lon="1.89019">
        <ele>156</ele>
        <time>2010-05-15T12:46:45Z</time>
      </trkpt>
      <trkpt lat="48.5838" lon="1.89026">
        <ele>156</ele>
        <time>2010-05-15T12:46:46Z</time>
      </trkpt>
      <trkpt lat="48.5838" lon="1.89034">
        <ele>156</ele>
        <time>2010-05-15T12:46:47Z</time>
      </trkpt>
      <trkpt lat="48.58379" lon="1.89041">
        <ele>156</ele>
        <time>2010-05-15T12:46:48Z</time>
      </trkpt>
      <trkpt lat="48.58378" lon="1.89048">
        <ele>156</ele>
        <time>2010-05-15T12:46:49Z</time>
      </trkpt>
      <trkpt lat="48.58378" lon="1.89056">
        <ele>156</ele>
        <time>2010-05-15T12:46:50Z</time>
      </trkpt>
      <trkpt lat="48.58377" lon="1.89064">
        <ele>156</ele>
        <time>2010-05-15T12:46:51Z</time>
      </trkpt>
      <trkpt lat="48.58377" lon="1.89071">
        <ele>156</ele>
        <time>2010-05-15T12:46:52Z</time>
      </trkpt>
      <trkpt lat="48.58376" lon="1.89079">
        <ele>156</ele>
        <time>2010-05-15T12:46:53Z</time>
      </trkpt>
      <trkpt lat="48.58376" lon="1.89088">
        <ele>156</ele>
        <time>2010-05-15T12:46:54Z</time>
      </trkpt>
      <trkpt lat="48.58376" lon="1.89097">
        <ele>156</ele>
        <time>2010-05-15T12:46:55Z</time>
      </trkpt>
      <trkpt lat="48.58377" lon="1.89107">
        <ele>156</ele>
        <time>2010-05-15T12:46:56Z</time>
      </trkpt>
      <trkpt lat="48.58378" lon="1.89117">
        <ele>156</ele>
        <time>2010-05-15T12:46:57Z</time>
      </trkpt>
      <trkpt lat="48.58379" lon="1.89127">
        <ele>156</ele>
        <time>2010-05-15T12:46:58Z</time>
      </trkpt>
      <trkpt lat="48.5838" lon="1.89137">
        <ele>156</ele>
        <time>2010-05-15T12:46:59Z</time>
      </trkpt>
      <trkpt lat="48.58381" lon="1.89147">
        <ele>156</ele>
        <time>2010-05-15T12:47:00Z</time>
      </trkpt>
      <trkpt lat="48.58383" lon="1.89158">
        <ele>156</ele>
        <time>2010-05-15T12:47:01Z</time>
      </trkpt>
      <trkpt lat="48.58386" lon="1.89168">
        <ele>156</ele>
        <time>2010-05-15T12:47:02Z</time>
      </trkpt>
      <trkpt lat="48.58388" lon="1.89178">
        <ele>156</ele>
        <time>2010-05-15T12:47:03Z</time>
      </trkpt>
      <trkpt lat="48.58391" lon="1.89187">
        <ele>156</ele>
        <time>2010-05-15T12:47:04Z</time>
      </trkpt>
      <trkpt lat="48.58394" lon="1.89196">
        <ele>156</ele>
        <time>2010-05-15T12:47:05Z</time>
      </trkpt>
      <trkpt lat="48.58396" lon="1.89205">
        <ele>156</ele>
        <time>2010-05-15T12:47:06Z</time>
      </trkpt>
      <trkpt lat="48.58399" lon="1.89213">
        <ele>156</ele>
        <time>2010-05-15T12:47:07Z</time>
      </trkpt>
      <trkpt lat="48.58402" lon="1.89221">
        <ele>156</ele>
        <time>2010-05-15T12:47:08Z</time>
      </trkpt>
      <trkpt lat="48.58405" lon="1.8923">
        <ele>156</ele>
        <time>2010-05-15T12:47:09Z</time>
      </trkpt>
      <trkpt lat="48.58408" lon="1.89239">
        <ele>156</ele>
        <time>2010-05-15T12:47:10Z</time>
      </trkpt>
      <trkpt lat="48.58411" lon="1.89248">
        <ele>156</ele>
        <time>2010-05-15T12:47:11Z</time>
      </trkpt>
      <trkpt lat="48.58413" lon="1.89258">
        <ele>156</ele>
        <time>2010-05-15T12:47:12Z</time>
      </trkpt>
      <trkpt lat="48.58416" lon="1.89267">
        <ele>156</ele>
        <time>2010-05-15T12:47:13Z</time>
      </trkpt>
      <trkpt lat="48.58418" lon="1.89276">
        <ele>156</ele>
        <time>2010-05-15T12:47:14Z</time>
      </trkpt>
      <trkpt lat="48.58421" lon="1.89286">
        <ele>156</ele>
        <time>2010-05-15T12:47:15Z</time>
      </trkpt>
      <trkpt lat="48.58423" lon="1.89296">
        <ele>156</ele>
        <time>2010-05-15T12:47:16Z</time>
      </trkpt>
      <trkpt lat="48.58426" lon="1.89306">
        <ele>156</ele>
        <time>2010-05-15T12:47:17Z</time>
      </trkpt>
      <trkpt lat="48.58428" lon="1.89316">
        <ele>156</ele>
        <time>2010-05-15T12:47:18Z</time>
      </trkpt>
      <trkpt lat="48.5843" lon="1.89325">
        <ele>156</ele>
        <time>2010-05-15T12:47:19Z</time>
      </trkpt>
      <trkpt lat="48.58432" lon="1.89335">
        <ele>156</ele>
        <time>2010-05-15T12:47:20Z</time>
      </trkpt>
      <trkpt lat="48.58434" lon="1.89345">
        <ele>156</ele>
        <time>2010-05-15T12:47:21Z</time>
      </trkpt>
      <trkpt lat="48.58437" lon="1.89356">
        <ele>156</ele>
        <time>2010-05-15T12:47:22Z</time>
      </trkpt>
      <trkpt lat="48.58439" lon="1.89366">
        <ele>156</ele>
        <time>2010-05-15T12:47:23Z</time>
      </trkpt>
      <trkpt lat="48.58441" lon="1.89377">
        <ele>156</ele>
        <time>2010-05-15T12:47:24Z</time>
      </trkpt>
      <trkpt lat="48.58442" lon="1.89388">
        <ele>156</ele>
        <time>2010-05-15T12:47:25Z</time>
      </trkpt>
      <trkpt lat="48.58444" lon="1.89399">
        <ele>156</ele>
        <time>2010-05-15T12:47:26Z</time>
      </trkpt>
      <trkpt lat="48.58445" lon="1.8941">
        <ele>156</ele>
        <time>2010-05-15T12:47:27Z</time>
      </trkpt>
      <trkpt lat="48.58446" lon="1.89422">
        <ele>156</ele>
        <time>2010-05-15T12:47:28Z</time>
      </trkpt>
      <trkpt lat="48.58446" lon="1.89433">
        <ele>156</ele>
        <time>2010-05-15T12:47:29Z</time>
      </trkpt>
      <trkpt lat="48.58445" lon="1.89445">
        <ele>156</ele>
        <time>2010-05-15T12:47:30Z</time>
      </trkpt>
      <trkpt lat="48.58443" lon="1.89456">
        <ele>156</ele>
        <time>2010-05-15T12:47:31Z</time>
      </trkpt>
      <trkpt lat="48.58441" lon="1.89467">
        <ele>156</ele>
        <time>2010-05-15T12:47:32Z</time>
      </trkpt>
      <trkpt lat="48.58439" lon="1.89478">
        <ele>156</ele>
        <time>2010-05-15T12:47:33Z</time>
      </trkpt>
      <trkpt lat="48.58435" lon="1.89489">
        <ele>156</ele>
        <time>2010-05-15T12:47:34Z</time>
      </trkpt>
      <trkpt lat="48.58432" lon="1.895">
        <ele>156</ele>
        <time>2010-05-15T12:47:35Z</time>
      </trkpt>
      <trkpt lat="48.58428" lon="1.8951">
        <ele>156</ele>
        <time>2010-05-15T12:47:36Z</time>
      </trkpt>
      <trkpt lat="48.58424" lon="1.89521">
        <ele>156</ele>
        <time>2010-05-15T12:47:37Z</time>
      </trkpt>
      <trkpt lat="48.58419" lon="1.89531">
        <ele>156</ele>
        <time>2010-05-15T12:47:38Z</time>
      </trkpt>
      <trkpt lat="48.58415" lon="1.89542">
        <ele>156</ele>
        <time>2010-05-15T12:47:39Z</time>
      </trkpt>
      <trkpt lat="48.5841" lon="1.89553">
        <ele>156</ele>
        <time>2010-05-15T12:47:40Z</time>
      </trkpt>
      <trkpt lat="48.58404" lon="1.89563">
        <ele>156</ele>
        <time>2010-05-15T12:47:41Z</time>
      </trkpt>
      <trkpt lat="48.58399" lon="1.89574">
        <ele>156</ele>
        <time>2010-05-15T12:47:42Z</time>
      </trkpt>
      <trkpt lat="48.58393" lon="1.89585">
        <ele>156</ele>
        <time>2010-05-15T12:47:43Z</time>
      </trkpt>
      <trkpt lat="48.58386" lon="1.89595">
        <ele>156</ele>
        <time>2010-05-15T12:47:44Z</time>
      </trkpt>
      <trkpt lat="48.5838" lon="1.89606">
        <ele>156</ele>
        <time>2010-05-15T12:47:45Z</time>
      </trkpt>
      <trkpt lat="48.58373" lon="1.89617">
        <ele>156</ele>
        <time>2010-05-15T12:47:46Z</time>
      </trkpt>
      <trkpt lat="48.58366" lon="1.89628">
        <ele>156</ele>
        <time>2010-05-15T12:47:47Z</time>
      </trkpt>
      <trkpt lat="48.5836" lon="1.89639">
        <ele>156</ele>
        <time>2010-05-15T12:47:48Z</time>
      </trkpt>
      <trkpt lat="48.58354" lon="1.89649">
        <ele>156</ele>
        <time>2010-05-15T12:47:49Z</time>
      </trkpt>
      <trkpt lat="48.58347" lon="1.8966">
        <ele>156</ele>
        <time>2010-05-15T12:47:50Z</time>
      </trkpt>
      <trkpt lat="48.58341" lon="1.89671">
        <ele>156</ele>
        <time>2010-05-15T12:47:51Z</time>
      </trkpt>
      <trkpt lat="48.58334" lon="1.89682">
        <ele>156</ele>
        <time>2010-05-15T12:47:52Z</time>
      </trkpt>
      <trkpt lat="48.58328" lon="1.89693">
        <ele>156</ele>
        <time>2010-05-15T12:47:53Z</time>
      </trkpt>
      <trkpt lat="48.58322" lon="1.89703">
        <ele>156</ele>
        <time>2010-05-15T12:47:54Z</time>
      </trkpt>
      <trkpt lat="48.58315" lon="1.89713">
        <ele>156</ele>
        <time>2010-05-15T12:47:55Z</time>
      </trkpt>
      <trkpt lat="48.58308" lon="1.89723">
        <ele>156</ele>
        <time>2010-05-15T12:47:56Z</time>
      </trkpt>
      <trkpt lat="48.58301" lon="1.89732">
        <ele>156</ele>
        <time>2010-05-15T12:47:57Z</time>
      </trkpt>
      <trkpt lat="48.58294" lon="1.89741">
        <ele>156</ele>
        <time>2010-05-15T12:47:58Z</time>
      </trkpt>
      <trkpt lat="48.58287" lon="1.89751">
        <ele>156</ele>
        <time>2010-05-15T12:47:59Z</time>
      </trkpt>
      <trkpt lat="48.58281" lon="1.8976">
        <ele>156</ele>
        <time>2010-05-15T12:48:00Z</time>
      </trkpt>
      <trkpt lat="48.58275" lon="1.89769">
        <ele>156</ele>
        <time>2010-05-15T12:48:01Z</time>
      </trkpt>
      <trkpt lat="48.58269" lon="1.89777">
        <ele>156</ele>
        <time>2010-05-15T12:48:02Z</time>
      </trkpt>
      <trkpt lat="48.58263" lon="1.89785">
        <ele>156</ele>
        <time>2010-05-15T12:48:03Z</time>
      </trkpt>
      <trkpt lat="48.58257" lon="1.89793">
        <ele>156</ele>
        <time>2010-05-15T12:48:04Z</time>
      </trkpt>
      <trkpt lat="48.58251" lon="1.89802">
        <ele>156</ele>
        <time>2010-05-15T12:48:05Z</time>
      </trkpt>
      <trkpt lat="48.58245" lon="1.89811">
        <ele>156</ele>
        <time>2010-05-15T12:48:06Z</time>
      </trkpt>
      <trkpt lat="48.58238" lon="1.8982">
        <ele>156</ele>
        <time>2010-05-15T12:48:07Z</time>
      </trkpt>
      <trkpt lat="48.58232" lon="1.89829">
        <ele>156</ele>
        <time>2010-05-15T12:48:08Z</time>
      </trkpt>
      <trkpt lat="48.58226" lon="1.89839">
        <ele>156</ele>
        <time>2010-05-15T12:48:09Z</time>
      </trkpt>
      <trkpt lat="48.5822" lon="1.89848">
        <ele>156</ele>
        <time>2010-05-15T12:48:10Z</time>
      </trkpt>
      <trkpt lat="48.58214" lon="1.89858">
        <ele>156</ele>
        <time>2010-05-15T12:48:11Z</time>
      </trkpt>
      <trkpt lat="48.58208" lon="1.89867">
        <ele>156</ele>
        <time>2010-05-15T12:48:12Z</time>
      </trkpt>
      <trkpt lat="48.58201" lon="1.89876">
        <ele>156</ele>
        <time>2010-05-15T12:48:13Z</time>
      </trkpt>
      <trkpt lat="48.58195" lon="1.89885">
        <ele>156</ele>
        <time>2010-05-15T12:48:14Z</time>
      </trkpt>
      <trkpt lat="48.58189" lon="1.89894">
        <ele>156</ele>
        <time>2010-05-15T12:48:15Z</time>
      </trkpt>
      <trkpt lat="48.58183" lon="1.89904">
        <ele>156</ele>
        <time>2010-05-15T12:48:16Z</time>
      </trkpt>
      <trkpt lat="48.58177" lon="1.89913">
        <ele>156</ele>
        <time>2010-05-15T12:48:17Z</time>
      </trkpt>
      <trkpt lat="48.58173" lon="1.89924">
        <ele>156</ele>
        <time>2010-05-15T12:48:18Z</time>
      </trkpt>
      <trkpt lat="48.58168" lon="1.89934">
        <ele>156</ele>
        <time>2010-05-15T12:48:19Z</time>
      </trkpt>
      <trkpt lat="48.58164" lon="1.89945">
        <ele>156</ele>
        <time>2010-05-15T12:48:20Z</time>
      </trkpt>
      <trkpt lat="48.5816" lon="1.89956">
        <ele>156</ele>
        <time>2010-05-15T12:48:21Z</time>
      </trkpt>
      <trkpt lat="48.58155" lon="1.89967">
        <ele>156</ele>
        <time>2010-05-15T12:48:22Z</time>
      </trkpt>
      <trkpt lat="48.5815" lon="1.89977">
        <ele>156</ele>
        <time>2010-05-15T12:48:23Z</time>
      </trkpt>
      <trkpt lat="48.58146" lon="1.89988">
        <ele>156</ele>
        <time>2010-05-15T12:48:24Z</time>
      </trkpt>
      <trkpt lat="48.58141" lon="1.89999">
        <ele>156</ele>
        <time>2010-05-15T12:48:25Z</time>
      </trkpt>
      <trkpt lat="48.58136" lon="1.90009">
        <ele>156</ele>
        <time>2010-05-15T12:48:26Z</time>
      </trkpt>
      <trkpt lat="48.5813" lon="1.9002">
        <ele>156</ele>
        <time>2010-05-15T12:48:27Z</time>
      </trkpt>
      <trkpt lat="48.58124" lon="1.90031">
        <ele>156</ele>
        <time>2010-05-15T12:48:28Z</time>
      </trkpt>
      <trkpt lat="48.58118" lon="1.90041">
        <ele>156</ele>
        <time>2010-05-15T12:48:29Z</time>
      </trkpt>
      <trkpt lat="48.58111" lon="1.90051">
        <ele>156</ele>
        <time>2010-05-15T12:48:30Z</time>
      </trkpt>
      <trkpt lat="48.58104" lon="1.9006">
        <ele>156</ele>
        <time>2010-05-15T12:48:31Z</time>
      </trkpt>
      <trkpt lat="48.58097" lon="1.90069">
        <ele>156</ele>
        <time>2010-05-15T12:48:32Z</time>
      </trkpt>
      <trkpt lat="48.5809" lon="1.90077">
        <ele>156</ele>
        <time>2010-05-15T12:48:33Z</time>
      </trkpt>
      <trkpt lat="48.58083" lon="1.90085">
        <ele>156</ele>
        <time>2010-05-15T12:48:34Z</time>
      </trkpt>
      <trkpt lat="48.58076" lon="1.90093">
        <ele>156</ele>
        <time>2010-05-15T12:48:35Z</time>
      </trkpt>
      <trkpt lat="48.5807" lon="1.90102">
        <ele>156</ele>
        <time>2010-05-15T12:48:36Z</time>
      </trkpt>
      <trkpt lat="48.58064" lon="1.90109">
        <ele>156</ele>
        <time>2010-05-15T12:48:37Z</time>
      </trkpt>
      <trkpt lat="48.58058" lon="1.90117">
        <ele>156</ele>
        <time>2010-05-15T12:48:38Z</time>
      </trkpt>
      <trkpt lat="48.58052" lon="1.90125">
        <ele>156</ele>
        <time>2010-05-15T12:48:39Z</time>
      </trkpt>
      <trkpt lat="48.58046" lon="1.90133">
        <ele>156</ele>
        <time>2010-05-15T12:48:40Z</time>
      </trkpt>
      <trkpt lat="48.58041" lon="1.90142">
        <ele>156</ele>
        <time>2010-05-15T12:48:41Z</time>
      </trkpt>
      <trkpt lat="48.58036" lon="1.9015">
        <ele>156</ele>
        <time>2010-05-15T12:48:42Z</time>
      </trkpt>
      <trkpt lat="48.5803" lon="1.9016">
        <ele>156</ele>
        <time>2010-05-15T12:48:43Z</time>
      </trkpt>
      <trkpt lat="48.58025" lon="1.90171">
        <ele>156</ele>
        <time>2010-05-15T12:48:44Z</time>
      </trkpt>
      <trkpt lat="48.58021" lon="1.90181">
        <ele>156</ele>
        <time>2010-05-15T12:48:45Z</time>
      </trkpt>
      <trkpt lat="48.58017" lon="1.90191">
        <ele>156</ele>
        <time>2010-05-15T12:48:46Z</time>
      </trkpt>
      <trkpt lat="48.58013" lon="1.90201">
        <ele>156</ele>
        <time>2010-05-15T12:48:47Z</time>
      </trkpt>
      <trkpt lat="48.5801" lon="1.9021">
        <ele>156</ele>
        <time>2010-05-15T12:48:48Z</time>
      </trkpt>
      <trkpt lat="48.58006" lon="1.90219">
        <ele>156</ele>
        <time>2010-05-15T12:48:49Z</time>
      </trkpt>
      <trkpt lat="48.58003" lon="1.90228">
        <ele>156</ele>
        <time>2010-05-15T12:48:50Z</time>
      </trkpt>
      <trkpt lat="48.58001" lon="1.90236">
        <ele>156</ele>
        <time>2010-05-15T12:48:51Z</time>
      </trkpt>
      <trkpt lat="48.57998" lon="1.90244">
        <ele>156</ele>
        <time>2010-05-15T12:48:52Z</time>
      </trkpt>
      <trkpt lat="48.57996" lon="1.90251">
        <ele>156</ele>
        <time>2010-05-15T12:48:53Z</time>
      </trkpt>
      <trkpt lat="48.57993" lon="1.90259">
        <ele>156</ele>
        <time>2010-05-15T12:48:54Z</time>
      </trkpt>
      <trkpt lat="48.57991" lon="1.90266">
        <ele>156</ele>
        <time>2010-05-15T12:48:55Z</time>
      </trkpt>
      <trkpt lat="48.57989" lon="1.90274">
        <ele>156</ele>
        <time>2010-05-15T12:48:56Z</time>
      </trkpt>
      <trkpt lat="48.57987" lon="1.90281">
        <ele>156</ele>
        <time>2010-05-15T12:48:57Z</time>
      </trkpt>
      <trkpt lat="48.57984" lon="1.90289">
        <ele>156</ele>
        <time>2010-05-15T12:48:58Z</time>
      </trkpt>
      <trkpt lat="48.57982" lon="1.90298">
        <ele>156</ele>
        <time>2010-05-15T12:48:59Z</time>
      </trkpt>
      <trkpt lat="48.57979" lon="1.90306">
        <ele>156</ele>
        <time>2010-05-15T12:49:00Z</time>
      </trkpt>
      <trkpt lat="48.57977" lon="1.90314">
        <ele>156</ele>
        <time>2010-05-15T12:49:01Z</time>
      </trkpt>
      <trkpt lat="48.57975" lon="1.90321">
        <ele>156</ele>
        <time>2010-05-15T12:49:02Z</time>
      </trkpt>
      <trkpt lat="48.57972" lon="1.90329">
        <ele>156</ele>
        <time>2010-05-15T12:49:03Z</time>
      </trkpt>
      <trkpt lat="48.5797" lon="1.90337">
        <ele>156</ele>
        <time>2010-05-15T12:49:04Z</time>
      </trkpt>
      <trkpt lat="48.57968" lon="1.90345">
        <ele>156</ele>
        <time>2010-05-15T12:49:05Z</time>
      </trkpt>
      <trkpt lat="48.57965" lon="1.90353">
        <ele>156</ele>
        <time>2010-05-15T12:49:06Z</time>
      </trkpt>
      <trkpt lat="48.57963" lon="1.9036">
        <ele>156</ele>
        <time>2010-05-15T12:49:07Z</time>
      </trkpt>
      <trkpt lat="48.57961" lon="1.90368">
        <ele>156</ele>
        <time>2010-05-15T12:49:08Z</time>
      </trkpt>
      <trkpt lat="48.57958" lon="1.90377">
        <ele>156</ele>
        <time>2010-05-15T12:49:09Z</time>
      </trkpt>
      <trkpt lat="48.57956" lon="1.90385">
        <ele>156</ele>
        <time>2010-05-15T12:49:10Z</time>
      </trkpt>
      <trkpt lat="48.57954" lon="1.90393">
        <ele>156</ele>
        <time>2010-05-15T12:49:11Z</time>
      </trkpt>
      <trkpt lat="48.57951" lon="1.90401">
        <ele>156</ele>
        <time>2010-05-15T12:49:12Z</time>
      </trkpt>
      <trkpt lat="48.57948" lon="1.90409">
        <ele>156</ele>
        <time>2010-05-15T12:49:13Z</time>
      </trkpt>
      <trkpt lat="48.57945" lon="1.90417">
        <ele>156</ele>
        <time>2010-05-15T12:49:14Z</time>
      </trkpt>
      <trkpt lat="48.57943" lon="1.90425">
        <ele>156</ele>
        <time>2010-05-15T12:49:15Z</time>
      </trkpt>
      <trkpt lat="48.5794" lon="1.90433">
        <ele>156</ele>
        <time>2010-05-15T12:49:16Z</time>
      </trkpt>
      <trkpt lat="48.57937" lon="1.90441">
        <ele>156</ele>
        <time>2010-05-15T12:49:17Z</time>
      </trkpt>
      <trkpt lat="48.57935" lon="1.90448">
        <ele>156</ele>
        <time>2010-05-15T12:49:18Z</time>
      </trkpt>
      <trkpt lat="48.57932" lon="1.90456">
        <ele>156</ele>
        <time>2010-05-15T12:49:19Z</time>
      </trkpt>
      <trkpt lat="48.5793" lon="1.90464">
        <ele>156</ele>
        <time>2010-05-15T12:49:20Z</time>
      </trkpt>
      <trkpt lat="48.57928" lon="1.90472">
        <ele>156</ele>
        <time>2010-05-15T12:49:21Z</time>
      </trkpt>
      <trkpt lat="48.57926" lon="1.90479">
        <ele>156</ele>
        <time>2010-05-15T12:49:22Z</time>
      </trkpt>
      <trkpt lat="48.57923" lon="1.90487">
        <ele>156</ele>
        <time>2010-05-15T12:49:23Z</time>
      </trkpt>
      <trkpt lat="48.57921" lon="1.90495">
        <ele>156</ele>
        <time>2010-05-15T12:49:24Z</time>
      </trkpt>
      <trkpt lat="48.57918" lon="1.90503">
        <ele>156</ele>
        <time>2010-05-15T12:49:25Z</time>
      </trkpt>
      <trkpt lat="48.57916" lon="1.9051">
        <ele>156</ele>
        <time>2010-05-15T12:49:26Z</time>
      </trkpt>
      <trkpt lat="48.57913" lon="1.90517">
        <ele>156</ele>
        <time>2010-05-15T12:49:27Z</time>
      </trkpt>
      <trkpt lat="48.57911" lon="1.90525">
        <ele>156</ele>
        <time>2010-05-15T12:49:28Z</time>
      </trkpt>
      <trkpt lat="48.57909" lon="1.90533">
        <ele>156</ele>
        <time>2010-05-15T12:49:29Z</time>
      </trkpt>
      <trkpt lat="48.57907" lon="1.9054">
        <ele>156</ele>
        <time>2010-05-15T12:49:30Z</time>
      </trkpt>
      <trkpt lat="48.57904" lon="1.90548">
        <ele>156</ele>
        <time>2010-05-15T12:49:31Z</time>
      </trkpt>
      <trkpt lat="48.57902" lon="1.90556">
        <ele>156</ele>
        <time>2010-05-15T12:49:32Z</time>
      </trkpt>
      <trkpt lat="48.579" lon="1.90564">
        <ele>156</ele>
        <time>2010-05-15T12:49:33Z</time>
      </trkpt>
      <trkpt lat="48.57897" lon="1.90572">
        <ele>156</ele>
        <time>2010-05-15T12:49:34Z</time>
      </trkpt>
      <trkpt lat="48.57895" lon="1.90579">
        <ele>156</ele>
        <time>2010-05-15T12:49:35Z</time>
      </trkpt>
      <trkpt lat="48.57892" lon="1.90587">
        <ele>156</ele>
        <time>2010-05-15T12:49:36Z</time>
      </trkpt>
      <trkpt lat="48.5789" lon="1.90595">
        <ele>156</ele>
        <time>2010-05-15T12:49:37Z</time>
      </trkpt>
      <trkpt lat="48.57888" lon="1.90602">
        <ele>156</ele>
        <time>2010-05-15T12:49:38Z</time>
      </trkpt>
      <trkpt lat="48.57886" lon="1.90609">
        <ele>155</ele>
        <time>2010-05-15T12:49:39Z</time>
      </trkpt>
      <trkpt lat="48.57884" lon="1.90616">
        <ele>155</ele>
        <time>2010-05-15T12:49:40Z</time>
      </trkpt>
      <trkpt lat="48.57881" lon="1.90623">
        <ele>155</ele>
        <time>2010-05-15T12:49:41Z</time>
      </trkpt>
      <trkpt lat="48.57879" lon="1.9063">
        <ele>155</ele>
        <time>2010-05-15T12:49:42Z</time>
      </trkpt>
      <trkpt lat="48.57877" lon="1.90637">
        <ele>155</ele>
        <time>2010-05-15T12:49:43Z</time>
      </trkpt>
      <trkpt lat="48.57875" lon="1.90644">
        <ele>155</ele>
        <time>2010-05-15T12:49:44Z</time>
      </trkpt>
      <trkpt lat="48.57873" lon="1.90651">
        <ele>155</ele>
        <time>2010-05-15T12:49:45Z</time>
      </trkpt>
      <trkpt lat="48.57871" lon="1.90658">
        <ele>155</ele>
        <time>2010-05-15T12:49:46Z</time>
      </trkpt>
      <trkpt lat="48.57869" lon="1.90664">
        <ele>155</ele>
        <time>2010-05-15T12:49:47Z</time>
      </trkpt>
      <trkpt lat="48.57867" lon="1.9067">
        <ele>155</ele>
        <time>2010-05-15T12:49:48Z</time>
      </trkpt>
      <trkpt lat="48.57865" lon="1.90676">
        <ele>155</ele>
        <time>2010-05-15T12:49:49Z</time>
      </trkpt>
      <trkpt lat="48.57864" lon="1.90683">
        <ele>155</ele>
        <time>2010-05-15T12:49:50Z</time>
      </trkpt>
      <trkpt lat="48.57862" lon="1.90689">
        <ele>155</ele>
        <time>2010-05-15T12:49:51Z</time>
      </trkpt>
      <trkpt lat="48.57859" lon="1.90697">
        <ele>155</ele>
        <time>2010-05-15T12:49:52Z</time>
      </trkpt>
      <trkpt lat="48.57857" lon="1.90704">
        <ele>155</ele>
        <time>2010-05-15T12:49:53Z</time>
      </trkpt>
      <trkpt lat="48.57854" lon="1.90711">
        <ele>155</ele>
        <time>2010-05-15T12:49:54Z</time>
      </trkpt>
      <trkpt lat="48.57851" lon="1.90719">
        <ele>155</ele>
        <time>2010-05-15T12:49:55Z</time>
      </trkpt>
      <trkpt lat="48.57848" lon="1.90728">
        <ele>155</ele>
        <time>2010-05-15T12:49:56Z</time>
      </trkpt>
      <trkpt lat="48.57845" lon="1.90737">
        <ele>155</ele>
        <time>2010-05-15T12:49:57Z</time>
      </trkpt>
      <trkpt lat="48.57842" lon="1.90746">
        <ele>155</ele>
        <time>2010-05-15T12:49:58Z</time>
      </trkpt>
      <trkpt lat="48.57839" lon="1.90755">
        <ele>155</ele>
        <time>2010-05-15T12:49:59Z</time>
      </trkpt>
      <trkpt lat="48.57837" lon="1.90763">
        <ele>155</ele>
        <time>2010-05-15T12:50:00Z</time>
      </trkpt>
      <trkpt lat="48.57835" lon="1.9077">
        <ele>155</ele>
        <time>2010-05-15T12:50:01Z</time>
      </trkpt>
      <trkpt lat="48.57832" lon="1.90776">
        <ele>155</ele>
        <time>2010-05-15T12:50:02Z</time>
      </trkpt>
      <trkpt lat="48.5783" lon="1.90781">
        <ele>155</ele>
        <time>2010-05-15T12:50:03Z</time>
      </trkpt>
      <trkpt lat="48.57828" lon="1.90787">
        <ele>155</ele>
        <time>2010-05-15T12:50:04Z</time>
      </trkpt>
      <trkpt lat="48.57826" lon="1.90792">
        <ele>155</ele>
        <time>2010-05-15T12:50:05Z</time>
      </trkpt>
      <trkpt lat="48.57824" lon="1.90797">
        <ele>154</ele>
        <time>2010-05-15T12:50:06Z</time>
      </trkpt>
      <trkpt lat="48.57822" lon="1.90802">
        <ele>154</ele>
        <time>2010-05-15T12:50:07Z</time>
      </trkpt>
      <trkpt lat="48.5782" lon="1.90807">
        <ele>154</ele>
        <time>2010-05-15T12:50:08Z</time>
      </trkpt>
      <trkpt lat="48.57818" lon="1.90813">
        <ele>154</ele>
        <time>2010-05-15T12:50:09Z</time>
      </trkpt>
      <trkpt lat="48.57816" lon="1.90818">
        <ele>154</ele>
        <time>2010-05-15T12:50:10Z</time>
      </trkpt>
      <trkpt lat="48.57814" lon="1.90825">
        <ele>154</ele>
        <time>2010-05-15T12:50:11Z</time>
      </trkpt>
      <trkpt lat="48.57811" lon="1.90831">
        <ele>154</ele>
        <time>2010-05-15T12:50:12Z</time>
      </trkpt>
      <trkpt lat="48.57809" lon="1.90837">
        <ele>154</ele>
        <time>2010-05-15T12:50:13Z</time>
      </trkpt>
      <trkpt lat="48.57806" lon="1.90844">
        <ele>154</ele>
        <time>2010-05-15T12:50:14Z</time>
      </trkpt>
      <trkpt lat="48.57804" lon="1.90849">
        <ele>154</ele>
        <time>2010-05-15T12:50:15Z</time>
      </trkpt>
      <trkpt lat="48.57802" lon="1.90855">
        <ele>154</ele>
        <time>2010-05-15T12:50:16Z</time>
      </trkpt>
      <trkpt lat="48.578" lon="1.90861">
        <ele>154</ele>
        <time>2010-05-15T12:50:17Z</time>
      </trkpt>
      <trkpt lat="48.57798" lon="1.90867">
        <ele>153</ele>
        <time>2010-05-15T12:50:18Z</time>
      </trkpt>
      <trkpt lat="48.57796" lon="1.90872">
        <ele>153</ele>
        <time>2010-05-15T12:50:19Z</time>
      </trkpt>
      <trkpt lat="48.57794" lon="1.90876">
        <ele>153</ele>
        <time>2010-05-15T12:50:20Z</time>
      </trkpt>
      <trkpt lat="48.57792" lon="1.9088">
        <ele>153</ele>
        <time>2010-05-15T12:50:21Z</time>
      </trkpt>
      <trkpt lat="48.5779" lon="1.90885">
        <ele>153</ele>
        <time>2010-05-15T12:50:22Z</time>
      </trkpt>
      <trkpt lat="48.57788" lon="1.90889">
        <ele>153</ele>
        <time>2010-05-15T12:50:23Z</time>
      </trkpt>
      <trkpt lat="48.57786" lon="1.90893">
        <ele>153</ele>
        <time>2010-05-15T12:50:24Z</time>
      </trkpt>
      <trkpt lat="48.57784" lon="1.90897">
        <ele>153</ele>
        <time>2010-05-15T12:50:25Z</time>
      </trkpt>
      <trkpt lat="48.57782" lon="1.909">
        <ele>153</ele>
        <time>2010-05-15T12:50:26Z</time>
      </trkpt>
      <trkpt lat="48.57781" lon="1.90902">
        <ele>153</ele>
        <time>2010-05-15T12:50:27Z</time>
      </trkpt>
      <trkpt lat="48.5778" lon="1.90905">
        <ele>153</ele>
        <time>2010-05-15T12:50:28Z</time>
      </trkpt>
      <trkpt lat="48.57779" lon="1.90906">
        <ele>153</ele>
        <time>2010-05-15T12:50:29Z</time>
      </trkpt>
      <trkpt lat="48.57779" lon="1.90908">
        <ele>153</ele>
        <time>2010-05-15T12:50:30Z</time>
      </trkpt>
      <trkpt lat="48.57781" lon="1.90906">
        <ele>153</ele>
        <time>2010-05-15T12:50:33Z</time>
      </trkpt>
      <trkpt lat="48.57781" lon="1.90904">
        <ele>153</ele>
        <time>2010-05-15T12:50:34Z</time>
      </trkpt>
      <trkpt lat="48.57781" lon="1.90903">
        <ele>153</ele>
        <time>2010-05-15T12:50:36Z</time>
      </trkpt>
      <trkpt lat="48.57781" lon="1.90899">
        <ele>153</ele>
        <time>2010-05-15T12:50:38Z</time>
      </trkpt>
      <trkpt lat="48.57782" lon="1.90896">
        <ele>153</ele>
        <time>2010-05-15T12:50:39Z</time>
      </trkpt>
      <trkpt lat="48.57783" lon="1.90893">
        <ele>153</ele>
        <time>2010-05-15T12:50:40Z</time>
      </trkpt>
      <trkpt lat="48.57784" lon="1.9089">
        <ele>153</ele>
        <time>2010-05-15T12:50:41Z</time>
      </trkpt>
      <trkpt lat="48.57786" lon="1.90886">
        <ele>153</ele>
        <time>2010-05-15T12:50:42Z</time>
      </trkpt>
      <trkpt lat="48.57789" lon="1.90882">
        <ele>153</ele>
        <time>2010-05-15T12:50:43Z</time>
      </trkpt>
      <trkpt lat="48.57791" lon="1.90876">
        <ele>153</ele>
        <time>2010-05-15T12:50:44Z</time>
      </trkpt>
      <trkpt lat="48.57793" lon="1.90871">
        <ele>153</ele>
        <time>2010-05-15T12:50:45Z</time>
      </trkpt>
      <trkpt lat="48.57796" lon="1.90865">
        <ele>153</ele>
        <time>2010-05-15T12:50:46Z</time>
      </trkpt>
      <trkpt lat="48.57798" lon="1.9086">
        <ele>153</ele>
        <time>2010-05-15T12:50:47Z</time>
      </trkpt>
      <trkpt lat="48.578" lon="1.90854">
        <ele>153</ele>
        <time>2010-05-15T12:50:48Z</time>
      </trkpt>
      <trkpt lat="48.57802" lon="1.90849">
        <ele>153</ele>
        <time>2010-05-15T12:50:49Z</time>
      </trkpt>
      <trkpt lat="48.57804" lon="1.90846">
        <ele>153</ele>
        <time>2010-05-15T12:50:50Z</time>
      </trkpt>
      <trkpt lat="48.57808" lon="1.90845">
        <ele>153</ele>
        <time>2010-05-15T12:50:51Z</time>
      </trkpt>
      <trkpt lat="48.57811" lon="1.90846">
        <ele>153</ele>
        <time>2010-05-15T12:50:52Z</time>
      </trkpt>
      <trkpt lat="48.57815" lon="1.90848">
        <ele>153</ele>
        <time>2010-05-15T12:50:53Z</time>
      </trkpt>
      <trkpt lat="48.57818" lon="1.90851">
        <ele>153</ele>
        <time>2010-05-15T12:50:54Z</time>
      </trkpt>
      <trkpt lat="48.57821" lon="1.90854">
        <ele>153</ele>
        <time>2010-05-15T12:50:55Z</time>
      </trkpt>
      <trkpt lat="48.57823" lon="1.90856">
        <ele>153</ele>
        <time>2010-05-15T12:50:56Z</time>
      </trkpt>
      <trkpt lat="48.57825" lon="1.90857">
        <ele>153</ele>
        <time>2010-05-15T12:50:57Z</time>
      </trkpt>
      <trkpt lat="48.57826" lon="1.90858">
        <ele>153</ele>
        <time>2010-05-15T12:50:58Z</time>
      </trkpt>
      <trkpt lat="48.57827" lon="1.90858">
        <ele>153</ele>
        <time>2010-05-15T12:51:01Z</time>
      </trkpt>
      <trkpt lat="48.57829" lon="1.90859">
        <ele>154</ele>
        <time>2010-05-15T12:51:04Z</time>
      </trkpt>
      <trkpt lat="48.57831" lon="1.90861">
        <ele>154</ele>
        <time>2010-05-15T12:51:06Z</time>
      </trkpt>
      <trkpt lat="48.57832" lon="1.90863">
        <ele>154</ele>
        <time>2010-05-15T12:51:07Z</time>
      </trkpt>
      <trkpt lat="48.57833" lon="1.90864">
        <ele>154</ele>
        <time>2010-05-15T12:51:08Z</time>
      </trkpt>
      <trkpt lat="48.57835" lon="1.90866">
        <ele>154</ele>
        <time>2010-05-15T12:51:09Z</time>
      </trkpt>
      <trkpt lat="48.57836" lon="1.90867">
        <ele>155</ele>
        <time>2010-05-15T12:51:10Z</time>
      </trkpt>
      <trkpt lat="48.57837" lon="1.90868">
        <ele>155</ele>
        <time>2010-05-15T12:51:11Z</time>
      </trkpt>
      <trkpt lat="48.57838" lon="1.90869">
        <ele>155</ele>
        <time>2010-05-15T12:51:12Z</time>
      </trkpt>
      <trkpt lat="48.5784" lon="1.9087">
        <ele>155</ele>
        <time>2010-05-15T12:51:13Z</time>
      </trkpt>
      <trkpt lat="48.57841" lon="1.90872">
        <ele>155</ele>
        <time>2010-05-15T12:51:14Z</time>
      </trkpt>
      <trkpt lat="48.57843" lon="1.90873">
        <ele>155</ele>
        <time>2010-05-15T12:51:15Z</time>
      </trkpt>
      <trkpt lat="48.57844" lon="1.90874">
        <ele>155</ele>
        <time>2010-05-15T12:51:16Z</time>
      </trkpt>
      <trkpt lat="48.57845" lon="1.90876">
        <ele>156</ele>
        <time>2010-05-15T12:51:17Z</time>
      </trkpt>
      <trkpt lat="48.57847" lon="1.90877">
        <ele>156</ele>
        <time>2010-05-15T12:51:18Z</time>
      </trkpt>
      <trkpt lat="48.57848" lon="1.90877">
        <ele>156</ele>
        <time>2010-05-15T12:51:19Z</time>
      </trkpt>
      <trkpt lat="48.5785" lon="1.90878">
        <ele>156</ele>
        <time>2010-05-15T12:51:20Z</time>
      </trkpt>
      <trkpt lat="48.57851" lon="1.9088">
        <ele>156</ele>
        <time>2010-05-15T12:51:21Z</time>
      </trkpt>
      <trkpt lat="48.57852" lon="1.90881">
        <ele>156</ele>
        <time>2010-05-15T12:51:22Z</time>
      </trkpt>
      <trkpt lat="48.57853" lon="1.90882">
        <ele>156</ele>
        <time>2010-05-15T12:51:23Z</time>
      </trkpt>
      <trkpt lat="48.57855" lon="1.90883">
        <ele>156</ele>
        <time>2010-05-15T12:51:24Z</time>
      </trkpt>
      <trkpt lat="48.57856" lon="1.90884">
        <ele>157</ele>
        <time>2010-05-15T12:51:25Z</time>
      </trkpt>
      <trkpt lat="48.57857" lon="1.90885">
        <ele>157</ele>
        <time>2010-05-15T12:51:26Z</time>
      </trkpt>
      <trkpt lat="48.57858" lon="1.90886">
        <ele>157</ele>
        <time>2010-05-15T12:51:27Z</time>
      </trkpt>
      <trkpt lat="48.57859" lon="1.90887">
        <ele>157</ele>
        <time>2010-05-15T12:51:28Z</time>
      </trkpt>
      <trkpt lat="48.57861" lon="1.90888">
        <ele>157</ele>
        <time>2010-05-15T12:51:29Z</time>
      </trkpt>
      <trkpt lat="48.57862" lon="1.90889">
        <ele>157</ele>
        <time>2010-05-15T12:51:30Z</time>
      </trkpt>
      <trkpt lat="48.57863" lon="1.9089">
        <ele>157</ele>
        <time>2010-05-15T12:51:31Z</time>
      </trkpt>
      <trkpt lat="48.57865" lon="1.90891">
        <ele>158</ele>
        <time>2010-05-15T12:51:32Z</time>
      </trkpt>
      <trkpt lat="48.57866" lon="1.90893">
        <ele>158</ele>
        <time>2010-05-15T12:51:33Z</time>
      </trkpt>
      <trkpt lat="48.57867" lon="1.90894">
        <ele>158</ele>
        <time>2010-05-15T12:51:34Z</time>
      </trkpt>
      <trkpt lat="48.57869" lon="1.90896">
        <ele>158</ele>
        <time>2010-05-15T12:51:35Z</time>
      </trkpt>
      <trkpt lat="48.5787" lon="1.90897">
        <ele>158</ele>
        <time>2010-05-15T12:51:36Z</time>
      </trkpt>
      <trkpt lat="48.57871" lon="1.90898">
        <ele>158</ele>
        <time>2010-05-15T12:51:37Z</time>
      </trkpt>
      <trkpt lat="48.57872" lon="1.90899">
        <ele>159</ele>
        <time>2010-05-15T12:51:38Z</time>
      </trkpt>
      <trkpt lat="48.57873" lon="1.909">
        <ele>159</ele>
        <time>2010-05-15T12:51:39Z</time>
      </trkpt>
      <trkpt lat="48.57875" lon="1.90901">
        <ele>159</ele>
        <time>2010-05-15T12:51:40Z</time>
      </trkpt>
      <trkpt lat="48.57876" lon="1.90901">
        <ele>159</ele>
        <time>2010-05-15T12:51:41Z</time>
      </trkpt>
      <trkpt lat="48.57877" lon="1.90902">
        <ele>159</ele>
        <time>2010-05-15T12:51:42Z</time>
      </trkpt>
      <trkpt lat="48.57878" lon="1.90904">
        <ele>159</ele>
        <time>2010-05-15T12:51:43Z</time>
      </trkpt>
      <trkpt lat="48.5788" lon="1.90905">
        <ele>159</ele>
        <time>2010-05-15T12:51:44Z</time>
      </trkpt>
      <trkpt lat="48.57881" lon="1.90906">
        <ele>159</ele>
        <time>2010-05-15T12:51:45Z</time>
      </trkpt>
      <trkpt lat="48.57883" lon="1.90907">
        <ele>159</ele>
        <time>2010-05-15T12:51:46Z</time>
      </trkpt>
      <trkpt lat="48.57884" lon="1.90908">
        <ele>159</ele>
        <time>2010-05-15T12:51:47Z</time>
      </trkpt>
      <trkpt lat="48.57885" lon="1.90909">
        <ele>159</ele>
        <time>2010-05-15T12:51:48Z</time>
      </trkpt>
      <trkpt lat="48.57887" lon="1.9091">
        <ele>159</ele>
        <time>2010-05-15T12:51:49Z</time>
      </trkpt>
      <trkpt lat="48.57888" lon="1.90911">
        <ele>159</ele>
        <time>2010-05-15T12:51:50Z</time>
      </trkpt>
      <trkpt lat="48.5789" lon="1.90912">
        <ele>159</ele>
        <time>2010-05-15T12:51:51Z</time>
      </trkpt>
      <trkpt lat="48.57891" lon="1.90914">
        <ele>159</ele>
        <time>2010-05-15T12:51:52Z</time>
      </trkpt>
      <trkpt lat="48.57892" lon="1.90915">
        <ele>159</ele>
        <time>2010-05-15T12:51:53Z</time>
      </trkpt>
      <trkpt lat="48.57894" lon="1.90916">
        <ele>160</ele>
        <time>2010-05-15T12:51:54Z</time>
      </trkpt>
      <trkpt lat="48.57895" lon="1.90917">
        <ele>160</ele>
        <time>2010-05-15T12:51:55Z</time>
      </trkpt>
      <trkpt lat="48.57897" lon="1.90919">
        <ele>160</ele>
        <time>2010-05-15T12:51:56Z</time>
      </trkpt>
      <trkpt lat="48.57898" lon="1.9092">
        <ele>160</ele>
        <time>2010-05-15T12:51:57Z</time>
      </trkpt>
      <trkpt lat="48.579" lon="1.90921">
        <ele>160</ele>
        <time>2010-05-15T12:51:58Z</time>
      </trkpt>
      <trkpt lat="48.57902" lon="1.90923">
        <ele>160</ele>
        <time>2010-05-15T12:51:59Z</time>
      </trkpt>
      <trkpt lat="48.57903" lon="1.90924">
        <ele>160</ele>
        <time>2010-05-15T12:52:00Z</time>
      </trkpt>
      <trkpt lat="48.57904" lon="1.90926">
        <ele>160</ele>
        <time>2010-05-15T12:52:01Z</time>
      </trkpt>
      <trkpt lat="48.57906" lon="1.90927">
        <ele>160</ele>
        <time>2010-05-15T12:52:02Z</time>
      </trkpt>
      <trkpt lat="48.57907" lon="1.90928">
        <ele>160</ele>
        <time>2010-05-15T12:52:03Z</time>
      </trkpt>
      <trkpt lat="48.57908" lon="1.90929">
        <ele>160</ele>
        <time>2010-05-15T12:52:04Z</time>
      </trkpt>
      <trkpt lat="48.5791" lon="1.9093">
        <ele>160</ele>
        <time>2010-05-15T12:52:05Z</time>
      </trkpt>
      <trkpt lat="48.57911" lon="1.90932">
        <ele>160</ele>
        <time>2010-05-15T12:52:06Z</time>
      </trkpt>
      <trkpt lat="48.57912" lon="1.90933">
        <ele>160</ele>
        <time>2010-05-15T12:52:07Z</time>
      </trkpt>
      <trkpt lat="48.57913" lon="1.90934">
        <ele>160</ele>
        <time>2010-05-15T12:52:08Z</time>
      </trkpt>
      <trkpt lat="48.57914" lon="1.90935">
        <ele>160</ele>
        <time>2010-05-15T12:52:09Z</time>
      </trkpt>
      <trkpt lat="48.57916" lon="1.90936">
        <ele>160</ele>
        <time>2010-05-15T12:52:10Z</time>
      </trkpt>
      <trkpt lat="48.57917" lon="1.90937">
        <ele>160</ele>
        <time>2010-05-15T12:52:11Z</time>
      </trkpt>
      <trkpt lat="48.57918" lon="1.90938">
        <ele>160</ele>
        <time>2010-05-15T12:52:12Z</time>
      </trkpt>
      <trkpt lat="48.57919" lon="1.90939">
        <ele>160</ele>
        <time>2010-05-15T12:52:13Z</time>
      </trkpt>
      <trkpt lat="48.57921" lon="1.90941">
        <ele>160</ele>
        <time>2010-05-15T12:52:14Z</time>
      </trkpt>
      <trkpt lat="48.57922" lon="1.90942">
        <ele>160</ele>
        <time>2010-05-15T12:52:15Z</time>
      </trkpt>
      <trkpt lat="48.57923" lon="1.90943">
        <ele>160</ele>
        <time>2010-05-15T12:52:16Z</time>
      </trkpt>
      <trkpt lat="48.57924" lon="1.90944">
        <ele>160</ele>
        <time>2010-05-15T12:52:17Z</time>
      </trkpt>
      <trkpt lat="48.57926" lon="1.90945">
        <ele>160</ele>
        <time>2010-05-15T12:52:18Z</time>
      </trkpt>
      <trkpt lat="48.57927" lon="1.90947">
        <ele>160</ele>
        <time>2010-05-15T12:52:19Z</time>
      </trkpt>
      <trkpt lat="48.57928" lon="1.90948">
        <ele>160</ele>
        <time>2010-05-15T12:52:20Z</time>
      </trkpt>
      <trkpt lat="48.5793" lon="1.90949">
        <ele>161</ele>
        <time>2010-05-15T12:52:21Z</time>
      </trkpt>
      <trkpt lat="48.57931" lon="1.9095">
        <ele>161</ele>
        <time>2010-05-15T12:52:22Z</time>
      </trkpt>
      <trkpt lat="48.57932" lon="1.90951">
        <ele>161</ele>
        <time>2010-05-15T12:52:23Z</time>
      </trkpt>
      <trkpt lat="48.57933" lon="1.90952">
        <ele>161</ele>
        <time>2010-05-15T12:52:24Z</time>
      </trkpt>
      <trkpt lat="48.57935" lon="1.90953">
        <ele>161</ele>
        <time>2010-05-15T12:52:25Z</time>
      </trkpt>
      <trkpt lat="48.57936" lon="1.90955">
        <ele>161</ele>
        <time>2010-05-15T12:52:26Z</time>
      </trkpt>
      <trkpt lat="48.57937" lon="1.90956">
        <ele>161</ele>
        <time>2010-05-15T12:52:27Z</time>
      </trkpt>
      <trkpt lat="48.57939" lon="1.90957">
        <ele>161</ele>
        <time>2010-05-15T12:52:28Z</time>
      </trkpt>
      <trkpt lat="48.57941" lon="1.90959">
        <ele>161</ele>
        <time>2010-05-15T12:52:29Z</time>
      </trkpt>
      <trkpt lat="48.57942" lon="1.9096">
        <ele>161</ele>
        <time>2010-05-15T12:52:30Z</time>
      </trkpt>
      <trkpt lat="48.57943" lon="1.90961">
        <ele>161</ele>
        <time>2010-05-15T12:52:31Z</time>
      </trkpt>
      <trkpt lat="48.57944" lon="1.90962">
        <ele>161</ele>
        <time>2010-05-15T12:52:32Z</time>
      </trkpt>
      <trkpt lat="48.57946" lon="1.90964">
        <ele>161</ele>
        <time>2010-05-15T12:52:33Z</time>
      </trkpt>
      <trkpt lat="48.57947" lon="1.90965">
        <ele>161</ele>
        <time>2010-05-15T12:52:34Z</time>
      </trkpt>
      <trkpt lat="48.57949" lon="1.90966">
        <ele>161</ele>
        <time>2010-05-15T12:52:36Z</time>
      </trkpt>
      <trkpt lat="48.5795" lon="1.90967">
        <ele>161</ele>
        <time>2010-05-15T12:52:37Z</time>
      </trkpt>
      <trkpt lat="48.57952" lon="1.90969">
        <ele>161</ele>
        <time>2010-05-15T12:52:38Z</time>
      </trkpt>
      <trkpt lat="48.57953" lon="1.9097">
        <ele>161</ele>
        <time>2010-05-15T12:52:39Z</time>
      </trkpt>
      <trkpt lat="48.57954" lon="1.90971">
        <ele>161</ele>
        <time>2010-05-15T12:52:40Z</time>
      </trkpt>
      <trkpt lat="48.57956" lon="1.90973">
        <ele>161</ele>
        <time>2010-05-15T12:52:41Z</time>
      </trkpt>
      <trkpt lat="48.57957" lon="1.90974">
        <ele>161</ele>
        <time>2010-05-15T12:52:42Z</time>
      </trkpt>
      <trkpt lat="48.57958" lon="1.90976">
        <ele>161</ele>
        <time>2010-05-15T12:52:43Z</time>
      </trkpt>
      <trkpt lat="48.57959" lon="1.90977">
        <ele>161</ele>
        <time>2010-05-15T12:52:44Z</time>
      </trkpt>
      <trkpt lat="48.57961" lon="1.90979">
        <ele>161</ele>
        <time>2010-05-15T12:52:45Z</time>
      </trkpt>
      <trkpt lat="48.57961" lon="1.90981">
        <ele>161</ele>
        <time>2010-05-15T12:52:46Z</time>
      </trkpt>
      <trkpt lat="48.57962" lon="1.90983">
        <ele>161</ele>
        <time>2010-05-15T12:52:47Z</time>
      </trkpt>
      <trkpt lat="48.57962" lon="1.90986">
        <ele>161</ele>
        <time>2010-05-15T12:52:48Z</time>
      </trkpt>
      <trkpt lat="48.57962" lon="1.90988">
        <ele>161</ele>
        <time>2010-05-15T12:52:49Z</time>
      </trkpt>
      <trkpt lat="48.57962" lon="1.9099">
        <ele>161</ele>
        <time>2010-05-15T12:52:50Z</time>
      </trkpt>
      <trkpt lat="48.57961" lon="1.90992">
        <ele>161</ele>
        <time>2010-05-15T12:52:51Z</time>
      </trkpt>
      <trkpt lat="48.5796" lon="1.90994">
        <ele>161</ele>
        <time>2010-05-15T12:52:52Z</time>
      </trkpt>
      <trkpt lat="48.5796" lon="1.90996">
        <ele>161</ele>
        <time>2010-05-15T12:52:53Z</time>
      </trkpt>
      <trkpt lat="48.57959" lon="1.90999">
        <ele>161</ele>
        <time>2010-05-15T12:52:54Z</time>
      </trkpt>
      <trkpt lat="48.57959" lon="1.91001">
        <ele>161</ele>
        <time>2010-05-15T12:52:55Z</time>
      </trkpt>
      <trkpt lat="48.57958" lon="1.91003">
        <ele>161</ele>
        <time>2010-05-15T12:52:56Z</time>
      </trkpt>
      <trkpt lat="48.57957" lon="1.91005">
        <ele>161</ele>
        <time>2010-05-15T12:52:57Z</time>
      </trkpt>
      <trkpt lat="48.57956" lon="1.91007">
        <ele>161</ele>
        <time>2010-05-15T12:52:58Z</time>
      </trkpt>
      <trkpt lat="48.57955" lon="1.91009">
        <ele>161</ele>
        <time>2010-05-15T12:52:59Z</time>
      </trkpt>
      <trkpt lat="48.57954" lon="1.91011">
        <ele>161</ele>
        <time>2010-05-15T12:53:00Z</time>
      </trkpt>
      <trkpt lat="48.57953" lon="1.91013">
        <ele>161</ele>
        <time>2010-05-15T12:53:01Z</time>
      </trkpt>
      <trkpt lat="48.57952" lon="1.91015">
        <ele>161</ele>
        <time>2010-05-15T12:53:02Z</time>
      </trkpt>
      <trkpt lat="48.57951" lon="1.91017">
        <ele>161</ele>
        <time>2010-05-15T12:53:03Z</time>
      </trkpt>
      <trkpt lat="48.5795" lon="1.9102">
        <ele>161</ele>
        <time>2010-05-15T12:53:04Z</time>
      </trkpt>
      <trkpt lat="48.57949" lon="1.91022">
        <ele>161</ele>
        <time>2010-05-15T12:53:05Z</time>
      </trkpt>
      <trkpt lat="48.57948" lon="1.91025">
        <ele>161</ele>
        <time>2010-05-15T12:53:06Z</time>
      </trkpt>
      <trkpt lat="48.57947" lon="1.91028">
        <ele>161</ele>
        <time>2010-05-15T12:53:07Z</time>
      </trkpt>
      <trkpt lat="48.57946" lon="1.9103">
        <ele>161</ele>
        <time>2010-05-15T12:53:08Z</time>
      </trkpt>
      <trkpt lat="48.57945" lon="1.91033">
        <ele>161</ele>
        <time>2010-05-15T12:53:09Z</time>
      </trkpt>
      <trkpt lat="48.57945" lon="1.91036">
        <ele>161</ele>
        <time>2010-05-15T12:53:10Z</time>
      </trkpt>
      <trkpt lat="48.57944" lon="1.91038">
        <ele>160</ele>
        <time>2010-05-15T12:53:11Z</time>
      </trkpt>
      <trkpt lat="48.57944" lon="1.9104">
        <ele>160</ele>
        <time>2010-05-15T12:53:12Z</time>
      </trkpt>
      <trkpt lat="48.57943" lon="1.91043">
        <ele>160</ele>
        <time>2010-05-15T12:53:13Z</time>
      </trkpt>
      <trkpt lat="48.57942" lon="1.91045">
        <ele>160</ele>
        <time>2010-05-15T12:53:14Z</time>
      </trkpt>
      <trkpt lat="48.57941" lon="1.91048">
        <ele>160</ele>
        <time>2010-05-15T12:53:15Z</time>
      </trkpt>
      <trkpt lat="48.57941" lon="1.9105">
        <ele>159</ele>
        <time>2010-05-15T12:53:16Z</time>
      </trkpt>
      <trkpt lat="48.5794" lon="1.91053">
        <ele>159</ele>
        <time>2010-05-15T12:53:17Z</time>
      </trkpt>
      <trkpt lat="48.57939" lon="1.91055">
        <ele>159</ele>
        <time>2010-05-15T12:53:18Z</time>
      </trkpt>
      <trkpt lat="48.57938" lon="1.91058">
        <ele>159</ele>
        <time>2010-05-15T12:53:19Z</time>
      </trkpt>
      <trkpt lat="48.57937" lon="1.9106">
        <ele>158</ele>
        <time>2010-05-15T12:53:20Z</time>
      </trkpt>
      <trkpt lat="48.57936" lon="1.91062">
        <ele>158</ele>
        <time>2010-05-15T12:53:21Z</time>
      </trkpt>
      <trkpt lat="48.57935" lon="1.91064">
        <ele>158</ele>
        <time>2010-05-15T12:53:22Z</time>
      </trkpt>
      <trkpt lat="48.57935" lon="1.91066">
        <ele>157</ele>
        <time>2010-05-15T12:53:23Z</time>
      </trkpt>
      <trkpt lat="48.57934" lon="1.91069">
        <ele>157</ele>
        <time>2010-05-15T12:53:24Z</time>
      </trkpt>
      <trkpt lat="48.57934" lon="1.91071">
        <ele>157</ele>
        <time>2010-05-15T12:53:25Z</time>
      </trkpt>
      <trkpt lat="48.57933" lon="1.91074">
        <ele>157</ele>
        <time>2010-05-15T12:53:26Z</time>
      </trkpt>
      <trkpt lat="48.57932" lon="1.91077">
        <ele>157</ele>
        <time>2010-05-15T12:53:27Z</time>
      </trkpt>
      <trkpt lat="48.57931" lon="1.91079">
        <ele>157</ele>
        <time>2010-05-15T12:53:28Z</time>
      </trkpt>
      <trkpt lat="48.5793" lon="1.91081">
        <ele>157</ele>
        <time>2010-05-15T12:53:29Z</time>
      </trkpt>
      <trkpt lat="48.57929" lon="1.91083">
        <ele>157</ele>
        <time>2010-05-15T12:53:30Z</time>
      </trkpt>
      <trkpt lat="48.57929" lon="1.91086">
        <ele>157</ele>
        <time>2010-05-15T12:53:31Z</time>
      </trkpt>
      <trkpt lat="48.57928" lon="1.91088">
        <ele>157</ele>
        <time>2010-05-15T12:53:32Z</time>
      </trkpt>
      <trkpt lat="48.57927" lon="1.9109">
        <ele>157</ele>
        <time>2010-05-15T12:53:33Z</time>
      </trkpt>
      <trkpt lat="48.57926" lon="1.91092">
        <ele>157</ele>
        <time>2010-05-15T12:53:34Z</time>
      </trkpt>
      <trkpt lat="48.57925" lon="1.91095">
        <ele>157</ele>
        <time>2010-05-15T12:53:35Z</time>
      </trkpt>
      <trkpt lat="48.57924" lon="1.91097">
        <ele>157</ele>
        <time>2010-05-15T12:53:36Z</time>
      </trkpt>
      <trkpt lat="48.57923" lon="1.91099">
        <ele>157</ele>
        <time>2010-05-15T12:53:37Z</time>
      </trkpt>
      <trkpt lat="48.57923" lon="1.91102">
        <ele>157</ele>
        <time>2010-05-15T12:53:38Z</time>
      </trkpt>
      <trkpt lat="48.57922" lon="1.91104">
        <ele>157</ele>
        <time>2010-05-15T12:53:39Z</time>
      </trkpt>
      <trkpt lat="48.57921" lon="1.91106">
        <ele>157</ele>
        <time>2010-05-15T12:53:40Z</time>
      </trkpt>
      <trkpt lat="48.57921" lon="1.91108">
        <ele>157</ele>
        <time>2010-05-15T12:53:41Z</time>
      </trkpt>
      <trkpt lat="48.5792" lon="1.9111">
        <ele>157</ele>
        <time>2010-05-15T12:53:42Z</time>
      </trkpt>
      <trkpt lat="48.57919" lon="1.91112">
        <ele>157</ele>
        <time>2010-05-15T12:53:43Z</time>
      </trkpt>
      <trkpt lat="48.57918" lon="1.91114">
        <ele>157</ele>
        <time>2010-05-15T12:53:44Z</time>
      </trkpt>
      <trkpt lat="48.57916" lon="1.91116">
        <ele>157</ele>
        <time>2010-05-15T12:53:45Z</time>
      </trkpt>
      <trkpt lat="48.57915" lon="1.91117">
        <ele>157</ele>
        <time>2010-05-15T12:53:46Z</time>
      </trkpt>
      <trkpt lat="48.57914" lon="1.91119">
        <ele>157</ele>
        <time>2010-05-15T12:53:47Z</time>
      </trkpt>
      <trkpt lat="48.57913" lon="1.91121">
        <ele>157</ele>
        <time>2010-05-15T12:53:48Z</time>
      </trkpt>
      <trkpt lat="48.57912" lon="1.91123">
        <ele>157</ele>
        <time>2010-05-15T12:53:49Z</time>
      </trkpt>
      <trkpt lat="48.57911" lon="1.91125">
        <ele>157</ele>
        <time>2010-05-15T12:53:50Z</time>
      </trkpt>
      <trkpt lat="48.5791" lon="1.91127">
        <ele>157</ele>
        <time>2010-05-15T12:53:51Z</time>
      </trkpt>
      <trkpt lat="48.57908" lon="1.91129">
        <ele>157</ele>
        <time>2010-05-15T12:53:52Z</time>
      </trkpt>
      <trkpt lat="48.57907" lon="1.9113">
        <ele>157</ele>
        <time>2010-05-15T12:53:53Z</time>
      </trkpt>
      <trkpt lat="48.57906" lon="1.91133">
        <ele>157</ele>
        <time>2010-05-15T12:53:54Z</time>
      </trkpt>
      <trkpt lat="48.57905" lon="1.91135">
        <ele>157</ele>
        <time>2010-05-15T12:53:55Z</time>
      </trkpt>
      <trkpt lat="48.57904" lon="1.91137">
        <ele>157</ele>
        <time>2010-05-15T12:53:56Z</time>
      </trkpt>
      <trkpt lat="48.57903" lon="1.91139">
        <ele>156</ele>
        <time>2010-05-15T12:53:57Z</time>
      </trkpt>
      <trkpt lat="48.57902" lon="1.91141">
        <ele>156</ele>
        <time>2010-05-15T12:53:58Z</time>
      </trkpt>
      <trkpt lat="48.57901" lon="1.91144">
        <ele>156</ele>
        <time>2010-05-15T12:53:59Z</time>
      </trkpt>
      <trkpt lat="48.57899" lon="1.91145">
        <ele>156</ele>
        <time>2010-05-15T12:54:00Z</time>
      </trkpt>
      <trkpt lat="48.57898" lon="1.91146">
        <ele>156</ele>
        <time>2010-05-15T12:54:01Z</time>
      </trkpt>
      <trkpt lat="48.57897" lon="1.91148">
        <ele>156</ele>
        <time>2010-05-15T12:54:02Z</time>
      </trkpt>
      <trkpt lat="48.57896" lon="1.91149">
        <ele>156</ele>
        <time>2010-05-15T12:54:03Z</time>
      </trkpt>
      <trkpt lat="48.57895" lon="1.91151">
        <ele>156</ele>
        <time>2010-05-15T12:54:04Z</time>
      </trkpt>
      <trkpt lat="48.57893" lon="1.91152">
        <ele>156</ele>
        <time>2010-05-15T12:54:05Z</time>
      </trkpt>
      <trkpt lat="48.57892" lon="1.91154">
        <ele>156</ele>
        <time>2010-05-15T12:54:06Z</time>
      </trkpt>
      <trkpt lat="48.5789" lon="1.91156">
        <ele>156</ele>
        <time>2010-05-15T12:54:07Z</time>
      </trkpt>
      <trkpt lat="48.57889" lon="1.91158">
        <ele>156</ele>
        <time>2010-05-15T12:54:08Z</time>
      </trkpt>
      <trkpt lat="48.57888" lon="1.9116">
        <ele>156</ele>
        <time>2010-05-15T12:54:09Z</time>
      </trkpt>
      <trkpt lat="48.57887" lon="1.91161">
        <ele>156</ele>
        <time>2010-05-15T12:54:10Z</time>
      </trkpt>
      <trkpt lat="48.57886" lon="1.91163">
        <ele>156</ele>
        <time>2010-05-15T12:54:11Z</time>
      </trkpt>
      <trkpt lat="48.57885" lon="1.91165">
        <ele>156</ele>
        <time>2010-05-15T12:54:12Z</time>
      </trkpt>
      <trkpt lat="48.57884" lon="1.91167">
        <ele>156</ele>
        <time>2010-05-15T12:54:13Z</time>
      </trkpt>
      <trkpt lat="48.57883" lon="1.91169">
        <ele>156</ele>
        <time>2010-05-15T12:54:14Z</time>
      </trkpt>
      <trkpt lat="48.57882" lon="1.91171">
        <ele>156</ele>
        <time>2010-05-15T12:54:15Z</time>
      </trkpt>
      <trkpt lat="48.57881" lon="1.91173">
        <ele>156</ele>
        <time>2010-05-15T12:54:16Z</time>
      </trkpt>
      <trkpt lat="48.5788" lon="1.91175">
        <ele>156</ele>
        <time>2010-05-15T12:54:17Z</time>
      </trkpt>
      <trkpt lat="48.57879" lon="1.91176">
        <ele>156</ele>
        <time>2010-05-15T12:54:18Z</time>
      </trkpt>
      <trkpt lat="48.57878" lon="1.91178">
        <ele>156</ele>
        <time>2010-05-15T12:54:19Z</time>
      </trkpt>
      <trkpt lat="48.57877" lon="1.91181">
        <ele>156</ele>
        <time>2010-05-15T12:54:20Z</time>
      </trkpt>
      <trkpt lat="48.57876" lon="1.91183">
        <ele>156</ele>
        <time>2010-05-15T12:54:21Z</time>
      </trkpt>
      <trkpt lat="48.57875" lon="1.91185">
        <ele>156</ele>
        <time>2010-05-15T12:54:22Z</time>
      </trkpt>
      <trkpt lat="48.57875" lon="1.91187">
        <ele>156</ele>
        <time>2010-05-15T12:54:23Z</time>
      </trkpt>
      <trkpt lat="48.57874" lon="1.91189">
        <ele>155</ele>
        <time>2010-05-15T12:54:24Z</time>
      </trkpt>
      <trkpt lat="48.57873" lon="1.91191">
        <ele>155</ele>
        <time>2010-05-15T12:54:25Z</time>
      </trkpt>
      <trkpt lat="48.57872" lon="1.91194">
        <ele>155</ele>
        <time>2010-05-15T12:54:26Z</time>
      </trkpt>
      <trkpt lat="48.57871" lon="1.91196">
        <ele>155</ele>
        <time>2010-05-15T12:54:27Z</time>
      </trkpt>
      <trkpt lat="48.5787" lon="1.91198">
        <ele>155</ele>
        <time>2010-05-15T12:54:28Z</time>
      </trkpt>
      <trkpt lat="48.57869" lon="1.91199">
        <ele>155</ele>
        <time>2010-05-15T12:54:29Z</time>
      </trkpt>
      <trkpt lat="48.57867" lon="1.91202">
        <ele>155</ele>
        <time>2010-05-15T12:54:31Z</time>
      </trkpt>
      <trkpt lat="48.57866" lon="1.91204">
        <ele>155</ele>
        <time>2010-05-15T12:54:32Z</time>
      </trkpt>
      <trkpt lat="48.57865" lon="1.91206">
        <ele>155</ele>
        <time>2010-05-15T12:54:33Z</time>
      </trkpt>
      <trkpt lat="48.57864" lon="1.91208">
        <ele>155</ele>
        <time>2010-05-15T12:54:34Z</time>
      </trkpt>
      <trkpt lat="48.57863" lon="1.9121">
        <ele>155</ele>
        <time>2010-05-15T12:54:35Z</time>
      </trkpt>
      <trkpt lat="48.57862" lon="1.91212">
        <ele>155</ele>
        <time>2010-05-15T12:54:36Z</time>
      </trkpt>
      <trkpt lat="48.5786" lon="1.91214">
        <ele>155</ele>
        <time>2010-05-15T12:54:37Z</time>
      </trkpt>
      <trkpt lat="48.57859" lon="1.91216">
        <ele>155</ele>
        <time>2010-05-15T12:54:38Z</time>
      </trkpt>
      <trkpt lat="48.57859" lon="1.91218">
        <ele>155</ele>
        <time>2010-05-15T12:54:39Z</time>
      </trkpt>
      <trkpt lat="48.57857" lon="1.9122">
        <ele>155</ele>
        <time>2010-05-15T12:54:40Z</time>
      </trkpt>
      <trkpt lat="48.57857" lon="1.91223">
        <ele>155</ele>
        <time>2010-05-15T12:54:41Z</time>
      </trkpt>
      <trkpt lat="48.57856" lon="1.91225">
        <ele>155</ele>
        <time>2010-05-15T12:54:42Z</time>
      </trkpt>
      <trkpt lat="48.57855" lon="1.91228">
        <ele>155</ele>
        <time>2010-05-15T12:54:43Z</time>
      </trkpt>
      <trkpt lat="48.57855" lon="1.9123">
        <ele>155</ele>
        <time>2010-05-15T12:54:44Z</time>
      </trkpt>
      <trkpt lat="48.57854" lon="1.91232">
        <ele>155</ele>
        <time>2010-05-15T12:54:45Z</time>
      </trkpt>
      <trkpt lat="48.57853" lon="1.91235">
        <ele>155</ele>
        <time>2010-05-15T12:54:46Z</time>
      </trkpt>
      <trkpt lat="48.57852" lon="1.91237">
        <ele>155</ele>
        <time>2010-05-15T12:54:47Z</time>
      </trkpt>
      <trkpt lat="48.57851" lon="1.91239">
        <ele>155</ele>
        <time>2010-05-15T12:54:48Z</time>
      </trkpt>
      <trkpt lat="48.5785" lon="1.91243">
        <ele>155</ele>
        <time>2010-05-15T12:54:49Z</time>
      </trkpt>
      <trkpt lat="48.57848" lon="1.91245">
        <ele>155</ele>
        <time>2010-05-15T12:54:50Z</time>
      </trkpt>
      <trkpt lat="48.57847" lon="1.91248">
        <ele>155</ele>
        <time>2010-05-15T12:54:51Z</time>
      </trkpt>
      <trkpt lat="48.57846" lon="1.9125">
        <ele>155</ele>
        <time>2010-05-15T12:54:52Z</time>
      </trkpt>
      <trkpt lat="48.57845" lon="1.91253">
        <ele>155</ele>
        <time>2010-05-15T12:54:53Z</time>
      </trkpt>
      <trkpt lat="48.57844" lon="1.91256">
        <ele>155</ele>
        <time>2010-05-15T12:54:54Z</time>
      </trkpt>
      <trkpt lat="48.57843" lon="1.91258">
        <ele>155</ele>
        <time>2010-05-15T12:54:55Z</time>
      </trkpt>
      <trkpt lat="48.57842" lon="1.91261">
        <ele>155</ele>
        <time>2010-05-15T12:54:56Z</time>
      </trkpt>
      <trkpt lat="48.57841" lon="1.91263">
        <ele>155</ele>
        <time>2010-05-15T12:54:57Z</time>
      </trkpt>
      <trkpt lat="48.5784" lon="1.91265">
        <ele>155</ele>
        <time>2010-05-15T12:54:58Z</time>
      </trkpt>
      <trkpt lat="48.57839" lon="1.91267">
        <ele>155</ele>
        <time>2010-05-15T12:54:59Z</time>
      </trkpt>
      <trkpt lat="48.57838" lon="1.9127">
        <ele>155</ele>
        <time>2010-05-15T12:55:00Z</time>
      </trkpt>
      <trkpt lat="48.57837" lon="1.91272">
        <ele>155</ele>
        <time>2010-05-15T12:55:01Z</time>
      </trkpt>
      <trkpt lat="48.57836" lon="1.91273">
        <ele>155</ele>
        <time>2010-05-15T12:55:02Z</time>
      </trkpt>
      <trkpt lat="48.57835" lon="1.91275">
        <ele>155</ele>
        <time>2010-05-15T12:55:03Z</time>
      </trkpt>
      <trkpt lat="48.57835" lon="1.91277">
        <ele>155</ele>
        <time>2010-05-15T12:55:04Z</time>
      </trkpt>
      <trkpt lat="48.57834" lon="1.91279">
        <ele>155</ele>
        <time>2010-05-15T12:55:05Z</time>
      </trkpt>
      <trkpt lat="48.57833" lon="1.91281">
        <ele>155</ele>
        <time>2010-05-15T12:55:06Z</time>
      </trkpt>
      <trkpt lat="48.57832" lon="1.91283">
        <ele>155</ele>
        <time>2010-05-15T12:55:07Z</time>
      </trkpt>
      <trkpt lat="48.57831" lon="1.91285">
        <ele>155</ele>
        <time>2010-05-15T12:55:08Z</time>
      </trkpt>
      <trkpt lat="48.5783" lon="1.91288">
        <ele>155</ele>
        <time>2010-05-15T12:55:09Z</time>
      </trkpt>
      <trkpt lat="48.57829" lon="1.91291">
        <ele>155</ele>
        <time>2010-05-15T12:55:10Z</time>
      </trkpt>
      <trkpt lat="48.57828" lon="1.91293">
        <ele>155</ele>
        <time>2010-05-15T12:55:11Z</time>
      </trkpt>
      <trkpt lat="48.57827" lon="1.91296">
        <ele>155</ele>
        <time>2010-05-15T12:55:12Z</time>
      </trkpt>
      <trkpt lat="48.57827" lon="1.91298">
        <ele>155</ele>
        <time>2010-05-15T12:55:13Z</time>
      </trkpt>
      <trkpt lat="48.57826" lon="1.91301">
        <ele>155</ele>
        <time>2010-05-15T12:55:14Z</time>
      </trkpt>
      <trkpt lat="48.57825" lon="1.91303">
        <ele>155</ele>
        <time>2010-05-15T12:55:15Z</time>
      </trkpt>
      <trkpt lat="48.57824" lon="1.91305">
        <ele>155</ele>
        <time>2010-05-15T12:55:16Z</time>
      </trkpt>
      <trkpt lat="48.57823" lon="1.91308">
        <ele>155</ele>
        <time>2010-05-15T12:55:17Z</time>
      </trkpt>
      <trkpt lat="48.57822" lon="1.9131">
        <ele>155</ele>
        <time>2010-05-15T12:55:18Z</time>
      </trkpt>
      <trkpt lat="48.57821" lon="1.91313">
        <ele>155</ele>
        <time>2010-05-15T12:55:19Z</time>
      </trkpt>
      <trkpt lat="48.5782" lon="1.91315">
        <ele>155</ele>
        <time>2010-05-15T12:55:20Z</time>
      </trkpt>
      <trkpt lat="48.57819" lon="1.91317">
        <ele>155</ele>
        <time>2010-05-15T12:55:21Z</time>
      </trkpt>
      <trkpt lat="48.57818" lon="1.9132">
        <ele>155</ele>
        <time>2010-05-15T12:55:22Z</time>
      </trkpt>
      <trkpt lat="48.57817" lon="1.91322">
        <ele>155</ele>
        <time>2010-05-15T12:55:23Z</time>
      </trkpt>
      <trkpt lat="48.57816" lon="1.91324">
        <ele>155</ele>
        <time>2010-05-15T12:55:24Z</time>
      </trkpt>
      <trkpt lat="48.57816" lon="1.91326">
        <ele>155</ele>
        <time>2010-05-15T12:55:25Z</time>
      </trkpt>
      <trkpt lat="48.57815" lon="1.91328">
        <ele>155</ele>
        <time>2010-05-15T12:55:26Z</time>
      </trkpt>
      <trkpt lat="48.57814" lon="1.9133">
        <ele>155</ele>
        <time>2010-05-15T12:55:27Z</time>
      </trkpt>
      <trkpt lat="48.57813" lon="1.91332">
        <ele>155</ele>
        <time>2010-05-15T12:55:28Z</time>
      </trkpt>
      <trkpt lat="48.57812" lon="1.91334">
        <ele>155</ele>
        <time>2010-05-15T12:55:29Z</time>
      </trkpt>
      <trkpt lat="48.57811" lon="1.91337">
        <ele>155</ele>
        <time>2010-05-15T12:55:30Z</time>
      </trkpt>
      <trkpt lat="48.57811" lon="1.91339">
        <ele>155</ele>
        <time>2010-05-15T12:55:31Z</time>
      </trkpt>
      <trkpt lat="48.5781" lon="1.91341">
        <ele>155</ele>
        <time>2010-05-15T12:55:32Z</time>
      </trkpt>
      <trkpt lat="48.57809" lon="1.91343">
        <ele>155</ele>
        <time>2010-05-15T12:55:33Z</time>
      </trkpt>
      <trkpt lat="48.57808" lon="1.91345">
        <ele>155</ele>
        <time>2010-05-15T12:55:34Z</time>
      </trkpt>
      <trkpt lat="48.57806" lon="1.91348">
        <ele>155</ele>
        <time>2010-05-15T12:55:36Z</time>
      </trkpt>
      <trkpt lat="48.57805" lon="1.91349">
        <ele>155</ele>
        <time>2010-05-15T12:55:37Z</time>
      </trkpt>
      <trkpt lat="48.57804" lon="1.91352">
        <ele>155</ele>
        <time>2010-05-15T12:55:39Z</time>
      </trkpt>
      <trkpt lat="48.57803" lon="1.91354">
        <ele>155</ele>
        <time>2010-05-15T12:55:40Z</time>
      </trkpt>
      <trkpt lat="48.57802" lon="1.91356">
        <ele>155</ele>
        <time>2010-05-15T12:55:41Z</time>
      </trkpt>
      <trkpt lat="48.57801" lon="1.91358">
        <ele>155</ele>
        <time>2010-05-15T12:55:42Z</time>
      </trkpt>
      <trkpt lat="48.578" lon="1.9136">
        <ele>155</ele>
        <time>2010-05-15T12:55:43Z</time>
      </trkpt>
      <trkpt lat="48.57799" lon="1.91362">
        <ele>155</ele>
        <time>2010-05-15T12:55:44Z</time>
      </trkpt>
      <trkpt lat="48.57798" lon="1.91364">
        <ele>155</ele>
        <time>2010-05-15T12:55:45Z</time>
      </trkpt>
      <trkpt lat="48.57796" lon="1.91368">
        <ele>155</ele>
        <time>2010-05-15T12:55:47Z</time>
      </trkpt>
      <trkpt lat="48.57794" lon="1.9137">
        <ele>155</ele>
        <time>2010-05-15T12:55:48Z</time>
      </trkpt>
      <trkpt lat="48.57793" lon="1.91372">
        <ele>155</ele>
        <time>2010-05-15T12:55:49Z</time>
      </trkpt>
      <trkpt lat="48.57792" lon="1.91375">
        <ele>155</ele>
        <time>2010-05-15T12:55:50Z</time>
      </trkpt>
      <trkpt lat="48.57792" lon="1.91377">
        <ele>155</ele>
        <time>2010-05-15T12:55:51Z</time>
      </trkpt>
      <trkpt lat="48.57791" lon="1.91379">
        <ele>155</ele>
        <time>2010-05-15T12:55:52Z</time>
      </trkpt>
      <trkpt lat="48.5779" lon="1.91381">
        <ele>155</ele>
        <time>2010-05-15T12:55:53Z</time>
      </trkpt>
      <trkpt lat="48.57789" lon="1.91382">
        <ele>155</ele>
        <time>2010-05-15T12:55:54Z</time>
      </trkpt>
      <trkpt lat="48.57788" lon="1.91384">
        <ele>155</ele>
        <time>2010-05-15T12:55:55Z</time>
      </trkpt>
      <trkpt lat="48.57787" lon="1.91387">
        <ele>155</ele>
        <time>2010-05-15T12:55:56Z</time>
      </trkpt>
      <trkpt lat="48.57786" lon="1.91389">
        <ele>155</ele>
        <time>2010-05-15T12:55:57Z</time>
      </trkpt>
      <trkpt lat="48.57786" lon="1.91391">
        <ele>155</ele>
        <time>2010-05-15T12:55:58Z</time>
      </trkpt>
      <trkpt lat="48.57784" lon="1.91394">
        <ele>155</ele>
        <time>2010-05-15T12:56:00Z</time>
      </trkpt>
      <trkpt lat="48.57783" lon="1.91395">
        <ele>155</ele>
        <time>2010-05-15T12:56:01Z</time>
      </trkpt>
      <trkpt lat="48.57782" lon="1.91398">
        <ele>155</ele>
        <time>2010-05-15T12:56:03Z</time>
      </trkpt>
      <trkpt lat="48.57781" lon="1.91401">
        <ele>155</ele>
        <time>2010-05-15T12:56:05Z</time>
      </trkpt>
      <trkpt lat="48.5778" lon="1.91403">
        <ele>155</ele>
        <time>2010-05-15T12:56:06Z</time>
      </trkpt>
      <trkpt lat="48.57779" lon="1.91406">
        <ele>155</ele>
        <time>2010-05-15T12:56:07Z</time>
      </trkpt>
      <trkpt lat="48.57778" lon="1.91408">
        <ele>155</ele>
        <time>2010-05-15T12:56:08Z</time>
      </trkpt>
      <trkpt lat="48.57777" lon="1.9141">
        <ele>155</ele>
        <time>2010-05-15T12:56:09Z</time>
      </trkpt>
      <trkpt lat="48.57777" lon="1.91412">
        <ele>155</ele>
        <time>2010-05-15T12:56:10Z</time>
      </trkpt>
      <trkpt lat="48.57776" lon="1.91414">
        <ele>155</ele>
        <time>2010-05-15T12:56:11Z</time>
      </trkpt>
      <trkpt lat="48.57775" lon="1.91417">
        <ele>155</ele>
        <time>2010-05-15T12:56:12Z</time>
      </trkpt>
      <trkpt lat="48.57774" lon="1.91418">
        <ele>155</ele>
        <time>2010-05-15T12:56:13Z</time>
      </trkpt>
      <trkpt lat="48.57774" lon="1.9142">
        <ele>155</ele>
        <time>2010-05-15T12:56:14Z</time>
      </trkpt>
      <trkpt lat="48.57773" lon="1.91422">
        <ele>155</ele>
        <time>2010-05-15T12:56:15Z</time>
      </trkpt>
      <trkpt lat="48.57772" lon="1.91424">
        <ele>155</ele>
        <time>2010-05-15T12:56:16Z</time>
      </trkpt>
      <trkpt lat="48.57772" lon="1.91426">
        <ele>155</ele>
        <time>2010-05-15T12:56:17Z</time>
      </trkpt>
      <trkpt lat="48.57771" lon="1.91428">
        <ele>155</ele>
        <time>2010-05-15T12:56:18Z</time>
      </trkpt>
      <trkpt lat="48.5777" lon="1.9143">
        <ele>155</ele>
        <time>2010-05-15T12:56:19Z</time>
      </trkpt>
      <trkpt lat="48.5777" lon="1.91432">
        <ele>155</ele>
        <time>2010-05-15T12:56:20Z</time>
      </trkpt>
      <trkpt lat="48.57769" lon="1.91434">
        <ele>155</ele>
        <time>2010-05-15T12:56:21Z</time>
      </trkpt>
      <trkpt lat="48.57769" lon="1.91437">
        <ele>155</ele>
        <time>2010-05-15T12:56:22Z</time>
      </trkpt>
      <trkpt lat="48.57768" lon="1.91439">
        <ele>155</ele>
        <time>2010-05-15T12:56:23Z</time>
      </trkpt>
      <trkpt lat="48.57768" lon="1.91442">
        <ele>155</ele>
        <time>2010-05-15T12:56:24Z</time>
      </trkpt>
      <trkpt lat="48.57767" lon="1.91445">
        <ele>155</ele>
        <time>2010-05-15T12:56:25Z</time>
      </trkpt>
      <trkpt lat="48.57766" lon="1.91447">
        <ele>155</ele>
        <time>2010-05-15T12:56:26Z</time>
      </trkpt>
      <trkpt lat="48.57766" lon="1.9145">
        <ele>155</ele>
        <time>2010-05-15T12:56:27Z</time>
      </trkpt>
      <trkpt lat="48.57765" lon="1.91452">
        <ele>155</ele>
        <time>2010-05-15T12:56:28Z</time>
      </trkpt>
      <trkpt lat="48.57765" lon="1.91455">
        <ele>155</ele>
        <time>2010-05-15T12:56:29Z</time>
      </trkpt>
      <trkpt lat="48.57764" lon="1.91458">
        <ele>155</ele>
        <time>2010-05-15T12:56:30Z</time>
      </trkpt>
      <trkpt lat="48.57764" lon="1.9146">
        <ele>155</ele>
        <time>2010-05-15T12:56:31Z</time>
      </trkpt>
      <trkpt lat="48.57763" lon="1.91462">
        <ele>155</ele>
        <time>2010-05-15T12:56:32Z</time>
      </trkpt>
      <trkpt lat="48.57763" lon="1.91464">
        <ele>155</ele>
        <time>2010-05-15T12:56:33Z</time>
      </trkpt>
      <trkpt lat="48.57762" lon="1.91466">
        <ele>155</ele>
        <time>2010-05-15T12:56:34Z</time>
      </trkpt>
      <trkpt lat="48.57762" lon="1.91468">
        <ele>155</ele>
        <time>2010-05-15T12:56:35Z</time>
      </trkpt>
      <trkpt lat="48.57761" lon="1.91471">
        <ele>155</ele>
        <time>2010-05-15T12:56:36Z</time>
      </trkpt>
      <trkpt lat="48.5776" lon="1.91473">
        <ele>155</ele>
        <time>2010-05-15T12:56:37Z</time>
      </trkpt>
      <trkpt lat="48.5776" lon="1.91475">
        <ele>155</ele>
        <time>2010-05-15T12:56:38Z</time>
      </trkpt>
      <trkpt lat="48.57759" lon="1.91477">
        <ele>155</ele>
        <time>2010-05-15T12:56:39Z</time>
      </trkpt>
      <trkpt lat="48.57759" lon="1.91479">
        <ele>155</ele>
        <time>2010-05-15T12:56:40Z</time>
      </trkpt>
      <trkpt lat="48.57758" lon="1.91482">
        <ele>155</ele>
        <time>2010-05-15T12:56:42Z</time>
      </trkpt>
      <trkpt lat="48.57756" lon="1.91485">
        <ele>155</ele>
        <time>2010-05-15T12:56:44Z</time>
      </trkpt>
      <trkpt lat="48.57755" lon="1.91488">
        <ele>155</ele>
        <time>2010-05-15T12:56:46Z</time>
      </trkpt>
      <trkpt lat="48.57754" lon="1.91491">
        <ele>155</ele>
        <time>2010-05-15T12:56:48Z</time>
      </trkpt>
      <trkpt lat="48.57753" lon="1.91493">
        <ele>155</ele>
        <time>2010-05-15T12:56:49Z</time>
      </trkpt>
      <trkpt lat="48.57752" lon="1.91496">
        <ele>155</ele>
        <time>2010-05-15T12:56:50Z</time>
      </trkpt>
      <trkpt lat="48.57751" lon="1.91498">
        <ele>155</ele>
        <time>2010-05-15T12:56:51Z</time>
      </trkpt>
      <trkpt lat="48.5775" lon="1.915">
        <ele>155</ele>
        <time>2010-05-15T12:56:52Z</time>
      </trkpt>
      <trkpt lat="48.5775" lon="1.91502">
        <ele>155</ele>
        <time>2010-05-15T12:56:53Z</time>
      </trkpt>
      <trkpt lat="48.57749" lon="1.91504">
        <ele>155</ele>
        <time>2010-05-15T12:56:54Z</time>
      </trkpt>
      <trkpt lat="48.57748" lon="1.91506">
        <ele>155</ele>
        <time>2010-05-15T12:56:55Z</time>
      </trkpt>
      <trkpt lat="48.57747" lon="1.91508">
        <ele>155</ele>
        <time>2010-05-15T12:56:57Z</time>
      </trkpt>
      <trkpt lat="48.57746" lon="1.9151">
        <ele>157</ele>
        <time>2010-05-15T12:56:59Z</time>
      </trkpt>
      <trkpt lat="48.57745" lon="1.91513">
        <ele>159</ele>
        <time>2010-05-15T12:57:01Z</time>
      </trkpt>
      <trkpt lat="48.57744" lon="1.91515">
        <ele>159</ele>
        <time>2010-05-15T12:57:02Z</time>
      </trkpt>
      <trkpt lat="48.57743" lon="1.91517">
        <ele>160</ele>
        <time>2010-05-15T12:57:03Z</time>
      </trkpt>
      <trkpt lat="48.57742" lon="1.91519">
        <ele>161</ele>
        <time>2010-05-15T12:57:04Z</time>
      </trkpt>
      <trkpt lat="48.57741" lon="1.91521">
        <ele>161</ele>
        <time>2010-05-15T12:57:05Z</time>
      </trkpt>
      <trkpt lat="48.57741" lon="1.91524">
        <ele>161</ele>
        <time>2010-05-15T12:57:06Z</time>
      </trkpt>
      <trkpt lat="48.5774" lon="1.91526">
        <ele>161</ele>
        <time>2010-05-15T12:57:07Z</time>
      </trkpt>
      <trkpt lat="48.5774" lon="1.91528">
        <ele>161</ele>
        <time>2010-05-15T12:57:08Z</time>
      </trkpt>
      <trkpt lat="48.57739" lon="1.9153">
        <ele>161</ele>
        <time>2010-05-15T12:57:09Z</time>
      </trkpt>
      <trkpt lat="48.57739" lon="1.91533">
        <ele>161</ele>
        <time>2010-05-15T12:57:10Z</time>
      </trkpt>
      <trkpt lat="48.57737" lon="1.91535">
        <ele>162</ele>
        <time>2010-05-15T12:57:12Z</time>
      </trkpt>
      <trkpt lat="48.57737" lon="1.91537">
        <ele>163</ele>
        <time>2010-05-15T12:57:13Z</time>
      </trkpt>
      <trkpt lat="48.57736" lon="1.91539">
        <ele>163</ele>
        <time>2010-05-15T12:57:14Z</time>
      </trkpt>
      <trkpt lat="48.57735" lon="1.91541">
        <ele>164</ele>
        <time>2010-05-15T12:57:15Z</time>
      </trkpt>
      <trkpt lat="48.57734" lon="1.91544">
        <ele>164</ele>
        <time>2010-05-15T12:57:16Z</time>
      </trkpt>
      <trkpt lat="48.57733" lon="1.91546">
        <ele>164</ele>
        <time>2010-05-15T12:57:17Z</time>
      </trkpt>
      <trkpt lat="48.57733" lon="1.91549">
        <ele>164</ele>
        <time>2010-05-15T12:57:18Z</time>
      </trkpt>
      <trkpt lat="48.57732" lon="1.91551">
        <ele>164</ele>
        <time>2010-05-15T12:57:19Z</time>
      </trkpt>
      <trkpt lat="48.57732" lon="1.91554">
        <ele>164</ele>
        <time>2010-05-15T12:57:20Z</time>
      </trkpt>
      <trkpt lat="48.57731" lon="1.91556">
        <ele>164</ele>
        <time>2010-05-15T12:57:21Z</time>
      </trkpt>
      <trkpt lat="48.57731" lon="1.91558">
        <ele>164</ele>
        <time>2010-05-15T12:57:22Z</time>
      </trkpt>
      <trkpt lat="48.5773" lon="1.91561">
        <ele>164</ele>
        <time>2010-05-15T12:57:23Z</time>
      </trkpt>
      <trkpt lat="48.5773" lon="1.91563">
        <ele>164</ele>
        <time>2010-05-15T12:57:24Z</time>
      </trkpt>
      <trkpt lat="48.57729" lon="1.91565">
        <ele>164</ele>
        <time>2010-05-15T12:57:25Z</time>
      </trkpt>
      <trkpt lat="48.57729" lon="1.91568">
        <ele>164</ele>
        <time>2010-05-15T12:57:26Z</time>
      </trkpt>
      <trkpt lat="48.57728" lon="1.9157">
        <ele>164</ele>
        <time>2010-05-15T12:57:27Z</time>
      </trkpt>
      <trkpt lat="48.57727" lon="1.91573">
        <ele>164</ele>
        <time>2010-05-15T12:57:29Z</time>
      </trkpt>
      <trkpt lat="48.57726" lon="1.91576">
        <ele>165</ele>
        <time>2010-05-15T12:57:31Z</time>
      </trkpt>
      <trkpt lat="48.57726" lon="1.91578">
        <ele>165</ele>
        <time>2010-05-15T12:57:32Z</time>
      </trkpt>
      <trkpt lat="48.57726" lon="1.9158">
        <ele>166</ele>
        <time>2010-05-15T12:57:33Z</time>
      </trkpt>
      <trkpt lat="48.57725" lon="1.91583">
        <ele>166</ele>
        <time>2010-05-15T12:57:34Z</time>
      </trkpt>
      <trkpt lat="48.57725" lon="1.91586">
        <ele>166</ele>
        <time>2010-05-15T12:57:35Z</time>
      </trkpt>
      <trkpt lat="48.57725" lon="1.91588">
        <ele>166</ele>
        <time>2010-05-15T12:57:36Z</time>
      </trkpt>
      <trkpt lat="48.57725" lon="1.91591">
        <ele>166</ele>
        <time>2010-05-15T12:57:37Z</time>
      </trkpt>
      <trkpt lat="48.57724" lon="1.91593">
        <ele>166</ele>
        <time>2010-05-15T12:57:38Z</time>
      </trkpt>
      <trkpt lat="48.57724" lon="1.91596">
        <ele>166</ele>
        <time>2010-05-15T12:57:39Z</time>
      </trkpt>
      <trkpt lat="48.57724" lon="1.91598">
        <ele>166</ele>
        <time>2010-05-15T12:57:40Z</time>
      </trkpt>
      <trkpt lat="48.57723" lon="1.91601">
        <ele>166</ele>
        <time>2010-05-15T12:57:41Z</time>
      </trkpt>
      <trkpt lat="48.57722" lon="1.91603">
        <ele>166</ele>
        <time>2010-05-15T12:57:42Z</time>
      </trkpt>
      <trkpt lat="48.57722" lon="1.91605">
        <ele>166</ele>
        <time>2010-05-15T12:57:43Z</time>
      </trkpt>
      <trkpt lat="48.57721" lon="1.91608">
        <ele>166</ele>
        <time>2010-05-15T12:57:44Z</time>
      </trkpt>
      <trkpt lat="48.57721" lon="1.9161">
        <ele>166</ele>
        <time>2010-05-15T12:57:45Z</time>
      </trkpt>
      <trkpt lat="48.57721" lon="1.91613">
        <ele>166</ele>
        <time>2010-05-15T12:57:46Z</time>
      </trkpt>
      <trkpt lat="48.57721" lon="1.91615">
        <ele>166</ele>
        <time>2010-05-15T12:57:47Z</time>
      </trkpt>
      <trkpt lat="48.5772" lon="1.91618">
        <ele>166</ele>
        <time>2010-05-15T12:57:48Z</time>
      </trkpt>
      <trkpt lat="48.5772" lon="1.91621">
        <ele>166</ele>
        <time>2010-05-15T12:57:49Z</time>
      </trkpt>
      <trkpt lat="48.5772" lon="1.91624">
        <ele>166</ele>
        <time>2010-05-15T12:57:50Z</time>
      </trkpt>
      <trkpt lat="48.5772" lon="1.91627">
        <ele>166</ele>
        <time>2010-05-15T12:57:51Z</time>
      </trkpt>
      <trkpt lat="48.5772" lon="1.9163">
        <ele>166</ele>
        <time>2010-05-15T12:57:52Z</time>
      </trkpt>
      <trkpt lat="48.57719" lon="1.91632">
        <ele>166</ele>
        <time>2010-05-15T12:57:53Z</time>
      </trkpt>
      <trkpt lat="48.57718" lon="1.91635">
        <ele>166</ele>
        <time>2010-05-15T12:57:54Z</time>
      </trkpt>
      <trkpt lat="48.57718" lon="1.91638">
        <ele>166</ele>
        <time>2010-05-15T12:57:55Z</time>
      </trkpt>
      <trkpt lat="48.57718" lon="1.91641">
        <ele>166</ele>
        <time>2010-05-15T12:57:56Z</time>
      </trkpt>
      <trkpt lat="48.57717" lon="1.91643">
        <ele>166</ele>
        <time>2010-05-15T12:57:57Z</time>
      </trkpt>
      <trkpt lat="48.57715" lon="1.91646">
        <ele>166</ele>
        <time>2010-05-15T12:57:59Z</time>
      </trkpt>
      <trkpt lat="48.57714" lon="1.91648">
        <ele>166</ele>
        <time>2010-05-15T12:58:00Z</time>
      </trkpt>
      <trkpt lat="48.57713" lon="1.9165">
        <ele>166</ele>
        <time>2010-05-15T12:58:01Z</time>
      </trkpt>
      <trkpt lat="48.57712" lon="1.91652">
        <ele>166</ele>
        <time>2010-05-15T12:58:02Z</time>
      </trkpt>
      <trkpt lat="48.57712" lon="1.91654">
        <ele>166</ele>
        <time>2010-05-15T12:58:03Z</time>
      </trkpt>
      <trkpt lat="48.57712" lon="1.91656">
        <ele>166</ele>
        <time>2010-05-15T12:58:04Z</time>
      </trkpt>
      <trkpt lat="48.57711" lon="1.91658">
        <ele>166</ele>
        <time>2010-05-15T12:58:05Z</time>
      </trkpt>
      <trkpt lat="48.57711" lon="1.9166">
        <ele>166</ele>
        <time>2010-05-15T12:58:06Z</time>
      </trkpt>
      <trkpt lat="48.57711" lon="1.91662">
        <ele>166</ele>
        <time>2010-05-15T12:58:07Z</time>
      </trkpt>
      <trkpt lat="48.5771" lon="1.91665">
        <ele>166</ele>
        <time>2010-05-15T12:58:08Z</time>
      </trkpt>
      <trkpt lat="48.5771" lon="1.91667">
        <ele>166</ele>
        <time>2010-05-15T12:58:09Z</time>
      </trkpt>
      <trkpt lat="48.5771" lon="1.9167">
        <ele>166</ele>
        <time>2010-05-15T12:58:10Z</time>
      </trkpt>
      <trkpt lat="48.57709" lon="1.91672">
        <ele>166</ele>
        <time>2010-05-15T12:58:11Z</time>
      </trkpt>
      <trkpt lat="48.57708" lon="1.91675">
        <ele>166</ele>
        <time>2010-05-15T12:58:12Z</time>
      </trkpt>
      <trkpt lat="48.57708" lon="1.91678">
        <ele>166</ele>
        <time>2010-05-15T12:58:13Z</time>
      </trkpt>
      <trkpt lat="48.57707" lon="1.9168">
        <ele>166</ele>
        <time>2010-05-15T12:58:14Z</time>
      </trkpt>
      <trkpt lat="48.57707" lon="1.91683">
        <ele>166</ele>
        <time>2010-05-15T12:58:15Z</time>
      </trkpt>
      <trkpt lat="48.57707" lon="1.91685">
        <ele>166</ele>
        <time>2010-05-15T12:58:16Z</time>
      </trkpt>
      <trkpt lat="48.57706" lon="1.91688">
        <ele>165</ele>
        <time>2010-05-15T12:58:17Z</time>
      </trkpt>
      <trkpt lat="48.57706" lon="1.9169">
        <ele>165</ele>
        <time>2010-05-15T12:58:18Z</time>
      </trkpt>
      <trkpt lat="48.57705" lon="1.91692">
        <ele>164</ele>
        <time>2010-05-15T12:58:19Z</time>
      </trkpt>
      <trkpt lat="48.57705" lon="1.91694">
        <ele>164</ele>
        <time>2010-05-15T12:58:20Z</time>
      </trkpt>
      <trkpt lat="48.57705" lon="1.91697">
        <ele>163</ele>
        <time>2010-05-15T12:58:21Z</time>
      </trkpt>
      <trkpt lat="48.57704" lon="1.91699">
        <ele>163</ele>
        <time>2010-05-15T12:58:22Z</time>
      </trkpt>
      <trkpt lat="48.57704" lon="1.91701">
        <ele>163</ele>
        <time>2010-05-15T12:58:23Z</time>
      </trkpt>
      <trkpt lat="48.57703" lon="1.91703">
        <ele>163</ele>
        <time>2010-05-15T12:58:24Z</time>
      </trkpt>
      <trkpt lat="48.57702" lon="1.91706">
        <ele>163</ele>
        <time>2010-05-15T12:58:25Z</time>
      </trkpt>
      <trkpt lat="48.57702" lon="1.91708">
        <ele>162</ele>
        <time>2010-05-15T12:58:26Z</time>
      </trkpt>
      <trkpt lat="48.57701" lon="1.9171">
        <ele>162</ele>
        <time>2010-05-15T12:58:27Z</time>
      </trkpt>
      <trkpt lat="48.57701" lon="1.91712">
        <ele>162</ele>
        <time>2010-05-15T12:58:28Z</time>
      </trkpt>
      <trkpt lat="48.577" lon="1.91715">
        <ele>162</ele>
        <time>2010-05-15T12:58:29Z</time>
      </trkpt>
      <trkpt lat="48.57699" lon="1.91717">
        <ele>162</ele>
        <time>2010-05-15T12:58:30Z</time>
      </trkpt>
      <trkpt lat="48.57699" lon="1.91719">
        <ele>162</ele>
        <time>2010-05-15T12:58:31Z</time>
      </trkpt>
      <trkpt lat="48.57698" lon="1.91721">
        <ele>162</ele>
        <time>2010-05-15T12:58:32Z</time>
      </trkpt>
      <trkpt lat="48.57697" lon="1.91723">
        <ele>162</ele>
        <time>2010-05-15T12:58:34Z</time>
      </trkpt>
      <trkpt lat="48.57696" lon="1.91725">
        <ele>162</ele>
        <time>2010-05-15T12:58:36Z</time>
      </trkpt>
      <trkpt lat="48.57695" lon="1.91725">
        <ele>162</ele>
        <time>2010-05-15T12:58:39Z</time>
      </trkpt>
      <trkpt lat="48.57694" lon="1.91727">
        <ele>163</ele>
        <time>2010-05-15T12:58:43Z</time>
      </trkpt>
      <trkpt lat="48.57694" lon="1.91728">
        <ele>163</ele>
        <time>2010-05-15T12:58:45Z</time>
      </trkpt>
      <trkpt lat="48.57693" lon="1.9173">
        <ele>163</ele>
        <time>2010-05-15T12:58:46Z</time>
      </trkpt>
      <trkpt lat="48.57693" lon="1.91732">
        <ele>163</ele>
        <time>2010-05-15T12:58:47Z</time>
      </trkpt>
      <trkpt lat="48.57692" lon="1.91735">
        <ele>163</ele>
        <time>2010-05-15T12:58:49Z</time>
      </trkpt>
      <trkpt lat="48.57691" lon="1.91737">
        <ele>163</ele>
        <time>2010-05-15T12:58:50Z</time>
      </trkpt>
      <trkpt lat="48.5769" lon="1.91739">
        <ele>163</ele>
        <time>2010-05-15T12:58:51Z</time>
      </trkpt>
      <trkpt lat="48.5769" lon="1.91742">
        <ele>163</ele>
        <time>2010-05-15T12:58:52Z</time>
      </trkpt>
      <trkpt lat="48.5769" lon="1.91744">
        <ele>163</ele>
        <time>2010-05-15T12:58:53Z</time>
      </trkpt>
      <trkpt lat="48.57691" lon="1.91747">
        <ele>163</ele>
        <time>2010-05-15T12:58:54Z</time>
      </trkpt>
      <trkpt lat="48.57692" lon="1.91751">
        <ele>163</ele>
        <time>2010-05-15T12:58:55Z</time>
      </trkpt>
      <trkpt lat="48.57693" lon="1.91755">
        <ele>163</ele>
        <time>2010-05-15T12:58:56Z</time>
      </trkpt>
      <trkpt lat="48.57694" lon="1.91757">
        <ele>163</ele>
        <time>2010-05-15T12:58:57Z</time>
      </trkpt>
      <trkpt lat="48.57696" lon="1.91761">
        <ele>163</ele>
        <time>2010-05-15T12:58:58Z</time>
      </trkpt>
      <trkpt lat="48.57699" lon="1.91764">
        <ele>163</ele>
        <time>2010-05-15T12:58:59Z</time>
      </trkpt>
      <trkpt lat="48.57702" lon="1.91768">
        <ele>163</ele>
        <time>2010-05-15T12:59:00Z</time>
      </trkpt>
      <trkpt lat="48.57704" lon="1.91772">
        <ele>163</ele>
        <time>2010-05-15T12:59:01Z</time>
      </trkpt>
      <trkpt lat="48.57708" lon="1.91776">
        <ele>163</ele>
        <time>2010-05-15T12:59:02Z</time>
      </trkpt>
      <trkpt lat="48.57711" lon="1.9178">
        <ele>163</ele>
        <time>2010-05-15T12:59:03Z</time>
      </trkpt>
      <trkpt lat="48.57713" lon="1.91784">
        <ele>163</ele>
        <time>2010-05-15T12:59:04Z</time>
      </trkpt>
      <trkpt lat="48.57716" lon="1.91789">
        <ele>163</ele>
        <time>2010-05-15T12:59:05Z</time>
      </trkpt>
      <trkpt lat="48.57718" lon="1.9179">
        <ele>162</ele>
        <time>2010-05-15T12:59:06Z</time>
      </trkpt>
      <trkpt lat="48.57719" lon="1.91792">
        <ele>161</ele>
        <time>2010-05-15T12:59:07Z</time>
      </trkpt>
      <trkpt lat="48.5772" lon="1.91795">
        <ele>160</ele>
        <time>2010-05-15T12:59:08Z</time>
      </trkpt>
      <trkpt lat="48.5772" lon="1.91797">
        <ele>159</ele>
        <time>2010-05-15T12:59:09Z</time>
      </trkpt>
      <trkpt lat="48.57721" lon="1.918">
        <ele>158</ele>
        <time>2010-05-15T12:59:10Z</time>
      </trkpt>
      <trkpt lat="48.57722" lon="1.91801">
        <ele>156</ele>
        <time>2010-05-15T12:59:12Z</time>
      </trkpt>
      <trkpt lat="48.57723" lon="1.91803">
        <ele>155</ele>
        <time>2010-05-15T12:59:14Z</time>
      </trkpt>
      <trkpt lat="48.57723" lon="1.91806">
        <ele>155</ele>
        <time>2010-05-15T12:59:16Z</time>
      </trkpt>
      <trkpt lat="48.57723" lon="1.91803">
        <ele>151</ele>
        <time>2010-05-15T12:59:20Z</time>
      </trkpt>
      <trkpt lat="48.57725" lon="1.91801">
        <ele>150</ele>
        <time>2010-05-15T12:59:27Z</time>
      </trkpt>
      <trkpt lat="48.57727" lon="1.91801">
        <ele>150</ele>
        <time>2010-05-15T12:59:33Z</time>
      </trkpt>
      <trkpt lat="48.57728" lon="1.91802">
        <ele>150</ele>
        <time>2010-05-15T12:59:36Z</time>
      </trkpt>
      <trkpt lat="48.57727" lon="1.91804">
        <ele>150</ele>
        <time>2010-05-15T12:59:39Z</time>
      </trkpt>
      <trkpt lat="48.57728" lon="1.91807">
        <ele>148</ele>
        <time>2010-05-15T12:59:41Z</time>
      </trkpt>
      <trkpt lat="48.57729" lon="1.91808">
        <ele>146</ele>
        <time>2010-05-15T12:59:43Z</time>
      </trkpt>
      <trkpt lat="48.57728" lon="1.91806">
        <ele>144</ele>
        <time>2010-05-15T12:59:45Z</time>
      </trkpt>
      <trkpt lat="48.57729" lon="1.91808">
        <ele>141</ele>
        <time>2010-05-15T12:59:48Z</time>
      </trkpt>
      <trkpt lat="48.5773" lon="1.9181">
        <ele>139</ele>
        <time>2010-05-15T12:59:50Z</time>
      </trkpt>
      <trkpt lat="48.57732" lon="1.91809">
        <ele>137</ele>
        <time>2010-05-15T12:59:52Z</time>
      </trkpt>
      <trkpt lat="48.57733" lon="1.91807">
        <ele>135</ele>
        <time>2010-05-15T12:59:54Z</time>
      </trkpt>
      <trkpt lat="48.57734" lon="1.91804">
        <ele>135</ele>
        <time>2010-05-15T12:59:56Z</time>
      </trkpt>
      <trkpt lat="48.57734" lon="1.91803">
        <ele>135</ele>
        <time>2010-05-15T12:59:57Z</time>
      </trkpt>
      <trkpt lat="48.57735" lon="1.918">
        <ele>135</ele>
        <time>2010-05-15T12:59:58Z</time>
      </trkpt>
      <trkpt lat="48.57735" lon="1.91798">
        <ele>135</ele>
        <time>2010-05-15T12:59:59Z</time>
      </trkpt>
      <trkpt lat="48.57735" lon="1.91796">
        <ele>135</ele>
        <time>2010-05-15T13:00:00Z</time>
      </trkpt>
      <trkpt lat="48.57736" lon="1.91794">
        <ele>135</ele>
        <time>2010-05-15T13:00:01Z</time>
      </trkpt>
      <trkpt lat="48.57736" lon="1.91792">
        <ele>135</ele>
        <time>2010-05-15T13:00:03Z</time>
      </trkpt>
      <trkpt lat="48.57738" lon="1.9179">
        <ele>135</ele>
        <time>2010-05-15T13:00:05Z</time>
      </trkpt>
      <trkpt lat="48.57739" lon="1.91788">
        <ele>136</ele>
        <time>2010-05-15T13:00:06Z</time>
      </trkpt>
      <trkpt lat="48.57739" lon="1.91786">
        <ele>138</ele>
        <time>2010-05-15T13:00:08Z</time>
      </trkpt>
      <trkpt lat="48.57738" lon="1.91783">
        <ele>140</ele>
        <time>2010-05-15T13:00:10Z</time>
      </trkpt>
      <trkpt lat="48.57738" lon="1.91781">
        <ele>141</ele>
        <time>2010-05-15T13:00:11Z</time>
      </trkpt>
      <trkpt lat="48.57737" lon="1.91779">
        <ele>142</ele>
        <time>2010-05-15T13:00:12Z</time>
      </trkpt>
      <trkpt lat="48.57737" lon="1.91777">
        <ele>143</ele>
        <time>2010-05-15T13:00:13Z</time>
      </trkpt>
      <trkpt lat="48.57738" lon="1.91775">
        <ele>144</ele>
        <time>2010-05-15T13:00:14Z</time>
      </trkpt>
      <trkpt lat="48.57738" lon="1.91773">
        <ele>144</ele>
        <time>2010-05-15T13:00:15Z</time>
      </trkpt>
      <trkpt lat="48.57739" lon="1.91771">
        <ele>145</ele>
        <time>2010-05-15T13:00:16Z</time>
      </trkpt>
      <trkpt lat="48.5774" lon="1.9177">
        <ele>146</ele>
        <time>2010-05-15T13:00:19Z</time>
      </trkpt>
      <trkpt lat="48.57742" lon="1.9177">
        <ele>148</ele>
        <time>2010-05-15T13:00:22Z</time>
      </trkpt>
      <trkpt lat="48.57743" lon="1.91768">
        <ele>149</ele>
        <time>2010-05-15T13:00:24Z</time>
      </trkpt>
      <trkpt lat="48.57743" lon="1.91766">
        <ele>149</ele>
        <time>2010-05-15T13:00:26Z</time>
      </trkpt>
      <trkpt lat="48.57742" lon="1.91766">
        <ele>149</ele>
        <time>2010-05-15T13:00:30Z</time>
      </trkpt>
      <trkpt lat="48.57741" lon="1.91768">
        <ele>149</ele>
        <time>2010-05-15T13:00:33Z</time>
      </trkpt>
      <trkpt lat="48.57739" lon="1.91768">
        <ele>149</ele>
        <time>2010-05-15T13:00:36Z</time>
      </trkpt>
      <trkpt lat="48.57739" lon="1.9177">
        <ele>149</ele>
        <time>2010-05-15T13:00:43Z</time>
      </trkpt>
      <trkpt lat="48.5774" lon="1.91772">
        <ele>149</ele>
        <time>2010-05-15T13:00:47Z</time>
      </trkpt>
      <trkpt lat="48.5774" lon="1.91769">
        <ele>149</ele>
        <time>2010-05-15T13:00:52Z</time>
      </trkpt>
      <trkpt lat="48.5774" lon="1.91767">
        <ele>149</ele>
        <time>2010-05-15T13:00:55Z</time>
      </trkpt>
      <trkpt lat="48.57739" lon="1.91765">
        <ele>149</ele>
        <time>2010-05-15T13:00:57Z</time>
      </trkpt>
      <trkpt lat="48.57738" lon="1.91768">
        <ele>149</ele>
        <time>2010-05-15T13:01:00Z</time>
      </trkpt>
      <trkpt lat="48.57738" lon="1.9177">
        <ele>149</ele>
        <time>2010-05-15T13:01:02Z</time>
      </trkpt>
      <trkpt lat="48.57736" lon="1.91773">
        <ele>149</ele>
        <time>2010-05-15T13:01:04Z</time>
      </trkpt>
      <trkpt lat="48.57736" lon="1.91776">
        <ele>146</ele>
        <time>2010-05-15T13:01:07Z</time>
      </trkpt>
      <trkpt lat="48.57737" lon="1.91779">
        <ele>145</ele>
        <time>2010-05-15T13:01:08Z</time>
      </trkpt>
      <trkpt lat="48.57737" lon="1.91781">
        <ele>144</ele>
        <time>2010-05-15T13:01:09Z</time>
      </trkpt>
      <trkpt lat="48.57737" lon="1.91783">
        <ele>142</ele>
        <time>2010-05-15T13:01:11Z</time>
      </trkpt>
      <trkpt lat="48.57736" lon="1.91784">
        <ele>140</ele>
        <time>2010-05-15T13:01:13Z</time>
      </trkpt>
      <trkpt lat="48.57736" lon="1.91787">
        <ele>138</ele>
        <time>2010-05-15T13:01:15Z</time>
      </trkpt>
      <trkpt lat="48.57736" lon="1.91789">
        <ele>137</ele>
        <time>2010-05-15T13:01:16Z</time>
      </trkpt>
      <trkpt lat="48.57735" lon="1.91791">
        <ele>135</ele>
        <time>2010-05-15T13:01:18Z</time>
      </trkpt>
      <trkpt lat="48.57734" lon="1.91793">
        <ele>134</ele>
        <time>2010-05-15T13:01:20Z</time>
      </trkpt>
      <trkpt lat="48.57733" lon="1.91794">
        <ele>134</ele>
        <time>2010-05-15T13:01:21Z</time>
      </trkpt>
      <trkpt lat="48.57732" lon="1.91797">
        <ele>134</ele>
        <time>2010-05-15T13:01:23Z</time>
      </trkpt>
      <trkpt lat="48.57731" lon="1.918">
        <ele>134</ele>
        <time>2010-05-15T13:01:24Z</time>
      </trkpt>
      <trkpt lat="48.57731" lon="1.91803">
        <ele>134</ele>
        <time>2010-05-15T13:01:25Z</time>
      </trkpt>
      <trkpt lat="48.57731" lon="1.91805">
        <ele>134</ele>
        <time>2010-05-15T13:01:26Z</time>
      </trkpt>
      <trkpt lat="48.57732" lon="1.91807">
        <ele>133</ele>
        <time>2010-05-15T13:01:27Z</time>
      </trkpt>
      <trkpt lat="48.5773" lon="1.91809">
        <ele>130</ele>
        <time>2010-05-15T13:01:31Z</time>
      </trkpt>
      <trkpt lat="48.5773" lon="1.91811">
        <ele>130</ele>
        <time>2010-05-15T13:01:34Z</time>
      </trkpt>
      <trkpt lat="48.57731" lon="1.91811">
        <ele>130</ele>
        <time>2010-05-15T13:01:38Z</time>
      </trkpt>
      <trkpt lat="48.57731" lon="1.91814">
        <ele>131</ele>
        <time>2010-05-15T13:01:40Z</time>
      </trkpt>
      <trkpt lat="48.57731" lon="1.91816">
        <ele>131</ele>
        <time>2010-05-15T13:01:41Z</time>
      </trkpt>
      <trkpt lat="48.57731" lon="1.91817">
        <ele>131</ele>
        <time>2010-05-15T13:01:44Z</time>
      </trkpt>
      <trkpt lat="48.5773" lon="1.91819">
        <ele>131</ele>
        <time>2010-05-15T13:01:45Z</time>
      </trkpt>
      <trkpt lat="48.5773" lon="1.91821">
        <ele>132</ele>
        <time>2010-05-15T13:01:46Z</time>
      </trkpt>
      <trkpt lat="48.5773" lon="1.91823">
        <ele>132</ele>
        <time>2010-05-15T13:01:47Z</time>
      </trkpt>
      <trkpt lat="48.57729" lon="1.91825">
        <ele>132</ele>
        <time>2010-05-15T13:01:49Z</time>
      </trkpt>
      <trkpt lat="48.57728" lon="1.91826">
        <ele>132</ele>
        <time>2010-05-15T13:01:51Z</time>
      </trkpt>
      <trkpt lat="48.57728" lon="1.91828">
        <ele>132</ele>
        <time>2010-05-15T13:01:53Z</time>
      </trkpt>
      <trkpt lat="48.57729" lon="1.9183">
        <ele>132</ele>
        <time>2010-05-15T13:01:54Z</time>
      </trkpt>
      <trkpt lat="48.5773" lon="1.91832">
        <ele>132</ele>
        <time>2010-05-15T13:01:56Z</time>
      </trkpt>
      <trkpt lat="48.57732" lon="1.91834">
        <ele>132</ele>
        <time>2010-05-15T13:02:01Z</time>
      </trkpt>
      <trkpt lat="48.57731" lon="1.91836">
        <ele>132</ele>
        <time>2010-05-15T13:02:05Z</time>
      </trkpt>
      <trkpt lat="48.57733" lon="1.91836">
        <ele>132</ele>
        <time>2010-05-15T13:02:08Z</time>
      </trkpt>
      <trkpt lat="48.57733" lon="1.91834">
        <ele>134</ele>
        <time>2010-05-15T13:02:16Z</time>
      </trkpt>
      <trkpt lat="48.57732" lon="1.91833">
        <ele>139</ele>
        <time>2010-05-15T13:02:21Z</time>
      </trkpt>
      <trkpt lat="48.57732" lon="1.91831">
        <ele>141</ele>
        <time>2010-05-15T13:02:24Z</time>
      </trkpt>
      <trkpt lat="48.57732" lon="1.91829">
        <ele>141</ele>
        <time>2010-05-15T13:02:27Z</time>
      </trkpt>
      <trkpt lat="48.57732" lon="1.91827">
        <ele>142</ele>
        <time>2010-05-15T13:02:30Z</time>
      </trkpt>
      <trkpt lat="48.5773" lon="1.91828">
        <ele>142</ele>
        <time>2010-05-15T13:02:33Z</time>
      </trkpt>
      <trkpt lat="48.57729" lon="1.91826">
        <ele>142</ele>
        <time>2010-05-15T13:02:36Z</time>
      </trkpt>
      <trkpt lat="48.57729" lon="1.91828">
        <ele>142</ele>
        <time>2010-05-15T13:02:39Z</time>
      </trkpt>
      <trkpt lat="48.5773" lon="1.91831">
        <ele>142</ele>
        <time>2010-05-15T13:02:42Z</time>
      </trkpt>
      <trkpt lat="48.5773" lon="1.91833">
        <ele>142</ele>
        <time>2010-05-15T13:02:44Z</time>
      </trkpt>
      <trkpt lat="48.5773" lon="1.91834">
        <ele>142</ele>
        <time>2010-05-15T13:02:46Z</time>
      </trkpt>
      <trkpt lat="48.5773" lon="1.91836">
        <ele>142</ele>
        <time>2010-05-15T13:02:49Z</time>
      </trkpt>
      <trkpt lat="48.5773" lon="1.91838">
        <ele>142</ele>
        <time>2010-05-15T13:02:53Z</time>
      </trkpt>
      <trkpt lat="48.5773" lon="1.9184">
        <ele>142</ele>
        <time>2010-05-15T13:02:55Z</time>
      </trkpt>
      <trkpt lat="48.57729" lon="1.91841">
        <ele>142</ele>
        <time>2010-05-15T13:03:06Z</time>
      </trkpt>
      <trkpt lat="48.57729" lon="1.91843">
        <ele>142</ele>
        <time>2010-05-15T13:03:12Z</time>
      </trkpt>
      <trkpt lat="48.5773" lon="1.91845">
        <ele>144</ele>
        <time>2010-05-15T13:03:20Z</time>
      </trkpt>
      <trkpt lat="48.57732" lon="1.91845">
        <ele>145</ele>
        <time>2010-05-15T13:03:23Z</time>
      </trkpt>
      <trkpt lat="48.57733" lon="1.91847">
        <ele>146</ele>
        <time>2010-05-15T13:03:26Z</time>
      </trkpt>
      <trkpt lat="48.57733" lon="1.91849">
        <ele>146</ele>
        <time>2010-05-15T13:03:28Z</time>
      </trkpt>
      <trkpt lat="48.57734" lon="1.91849">
        <ele>146</ele>
        <time>2010-05-15T13:03:29Z</time>
      </trkpt>
      <trkpt lat="48.57736" lon="1.9185">
        <ele>146</ele>
        <time>2010-05-15T13:03:30Z</time>
      </trkpt>
      <trkpt lat="48.57737" lon="1.91851">
        <ele>145</ele>
        <time>2010-05-15T13:03:32Z</time>
      </trkpt>
      <trkpt lat="48.57739" lon="1.91851">
        <ele>145</ele>
        <time>2010-05-15T13:03:35Z</time>
      </trkpt>
      <trkpt lat="48.57738" lon="1.91848">
        <ele>145</ele>
        <time>2010-05-15T13:03:42Z</time>
      </trkpt>
      <trkpt lat="48.57737" lon="1.91846">
        <ele>148</ele>
        <time>2010-05-15T13:03:45Z</time>
      </trkpt>
      <trkpt lat="48.57737" lon="1.91848">
        <ele>149</ele>
        <time>2010-05-15T13:03:49Z</time>
      </trkpt>
      <trkpt lat="48.57735" lon="1.91852">
        <ele>149</ele>
        <time>2010-05-15T13:03:51Z</time>
      </trkpt>
      <trkpt lat="48.57734" lon="1.91853">
        <ele>149</ele>
        <time>2010-05-15T13:03:52Z</time>
      </trkpt>
      <trkpt lat="48.57734" lon="1.91856">
        <ele>149</ele>
        <time>2010-05-15T13:03:54Z</time>
      </trkpt>
      <trkpt lat="48.57734" lon="1.91857">
        <ele>149</ele>
        <time>2010-05-15T13:03:56Z</time>
      </trkpt>
      <trkpt lat="48.57733" lon="1.91856">
        <ele>149</ele>
        <time>2010-05-15T13:04:03Z</time>
      </trkpt>
      <trkpt lat="48.57732" lon="1.91856">
        <ele>149</ele>
        <time>2010-05-15T13:04:06Z</time>
      </trkpt>
      <trkpt lat="48.57733" lon="1.91856">
        <ele>148</ele>
        <time>2010-05-15T13:04:11Z</time>
      </trkpt>
      <trkpt lat="48.57732" lon="1.91854">
        <ele>148</ele>
        <time>2010-05-15T13:04:17Z</time>
      </trkpt>
      <trkpt lat="48.57732" lon="1.91853">
        <ele>148</ele>
        <time>2010-05-15T13:04:19Z</time>
      </trkpt>
      <trkpt lat="48.57729" lon="1.91853">
        <ele>149</ele>
        <time>2010-05-15T13:04:28Z</time>
      </trkpt>
      <trkpt lat="48.57729" lon="1.91855">
        <ele>152</ele>
        <time>2010-05-15T13:04:32Z</time>
      </trkpt>
      <trkpt lat="48.57729" lon="1.91858">
        <ele>153</ele>
        <time>2010-05-15T13:04:34Z</time>
      </trkpt>
      <trkpt lat="48.57729" lon="1.91861">
        <ele>154</ele>
        <time>2010-05-15T13:04:36Z</time>
      </trkpt>
      <trkpt lat="48.57728" lon="1.91862">
        <ele>154</ele>
        <time>2010-05-15T13:04:37Z</time>
      </trkpt>
      <trkpt lat="48.57729" lon="1.91864">
        <ele>154</ele>
        <time>2010-05-15T13:04:38Z</time>
      </trkpt>
      <trkpt lat="48.57731" lon="1.91869">
        <ele>154</ele>
        <time>2010-05-15T13:04:39Z</time>
      </trkpt>
      <trkpt lat="48.57732" lon="1.91874">
        <ele>154</ele>
        <time>2010-05-15T13:04:40Z</time>
      </trkpt>
      <trkpt lat="48.57733" lon="1.91878">
        <ele>154</ele>
        <time>2010-05-15T13:04:41Z</time>
      </trkpt>
      <trkpt lat="48.57733" lon="1.91882">
        <ele>154</ele>
        <time>2010-05-15T13:04:42Z</time>
      </trkpt>
      <trkpt lat="48.57735" lon="1.91887">
        <ele>154</ele>
        <time>2010-05-15T13:04:43Z</time>
      </trkpt>
      <trkpt lat="48.57736" lon="1.91891">
        <ele>154</ele>
        <time>2010-05-15T13:04:44Z</time>
      </trkpt>
      <trkpt lat="48.57737" lon="1.91894">
        <ele>154</ele>
        <time>2010-05-15T13:04:45Z</time>
      </trkpt>
      <trkpt lat="48.57736" lon="1.91897">
        <ele>154</ele>
        <time>2010-05-15T13:04:46Z</time>
      </trkpt>
      <trkpt lat="48.57737" lon="1.919">
        <ele>154</ele>
        <time>2010-05-15T13:04:47Z</time>
      </trkpt>
      <trkpt lat="48.57737" lon="1.91904">
        <ele>154</ele>
        <time>2010-05-15T13:04:49Z</time>
      </trkpt>
      <trkpt lat="48.57737" lon="1.91906">
        <ele>154</ele>
        <time>2010-05-15T13:04:50Z</time>
      </trkpt>
      <trkpt lat="48.57737" lon="1.91908">
        <ele>154</ele>
        <time>2010-05-15T13:04:51Z</time>
      </trkpt>
      <trkpt lat="48.57737" lon="1.91911">
        <ele>154</ele>
        <time>2010-05-15T13:04:52Z</time>
      </trkpt>
      <trkpt lat="48.57737" lon="1.91914">
        <ele>154</ele>
        <time>2010-05-15T13:04:53Z</time>
      </trkpt>
      <trkpt lat="48.57738" lon="1.91916">
        <ele>154</ele>
        <time>2010-05-15T13:04:54Z</time>
      </trkpt>
      <trkpt lat="48.57739" lon="1.91923">
        <ele>154</ele>
        <time>2010-05-15T13:04:57Z</time>
      </trkpt>
      <trkpt lat="48.57742" lon="1.9193">
        <ele>154</ele>
        <time>2010-05-15T13:04:58Z</time>
      </trkpt>
      <trkpt lat="48.57743" lon="1.91934">
        <ele>154</ele>
        <time>2010-05-15T13:04:59Z</time>
      </trkpt>
      <trkpt lat="48.57744" lon="1.91937">
        <ele>154</ele>
        <time>2010-05-15T13:05:00Z</time>
      </trkpt>
      <trkpt lat="48.57746" lon="1.91939">
        <ele>154</ele>
        <time>2010-05-15T13:05:01Z</time>
      </trkpt>
      <trkpt lat="48.57748" lon="1.91943">
        <ele>154</ele>
        <time>2010-05-15T13:05:02Z</time>
      </trkpt>
      <trkpt lat="48.57748" lon="1.91945">
        <ele>154</ele>
        <time>2010-05-15T13:05:03Z</time>
      </trkpt>
      <trkpt lat="48.5775" lon="1.91948">
        <ele>154</ele>
        <time>2010-05-15T13:05:05Z</time>
      </trkpt>
      <trkpt lat="48.57751" lon="1.91951">
        <ele>154</ele>
        <time>2010-05-15T13:05:06Z</time>
      </trkpt>
      <trkpt lat="48.57752" lon="1.91952">
        <ele>153</ele>
        <time>2010-05-15T13:05:07Z</time>
      </trkpt>
      <trkpt lat="48.57754" lon="1.91952">
        <ele>152</ele>
        <time>2010-05-15T13:05:08Z</time>
      </trkpt>
      <trkpt lat="48.57756" lon="1.91953">
        <ele>152</ele>
        <time>2010-05-15T13:05:09Z</time>
      </trkpt>
      <trkpt lat="48.57758" lon="1.91953">
        <ele>152</ele>
        <time>2010-05-15T13:05:11Z</time>
      </trkpt>
      <trkpt lat="48.57759" lon="1.91955">
        <ele>152</ele>
        <time>2010-05-15T13:05:12Z</time>
      </trkpt>
      <trkpt lat="48.5776" lon="1.91955">
        <ele>152</ele>
        <time>2010-05-15T13:05:13Z</time>
      </trkpt>
      <trkpt lat="48.57761" lon="1.91956">
        <ele>152</ele>
        <time>2010-05-15T13:05:14Z</time>
      </trkpt>
      <trkpt lat="48.57763" lon="1.91957">
        <ele>153</ele>
        <time>2010-05-15T13:05:16Z</time>
      </trkpt>
      <trkpt lat="48.57764" lon="1.91957">
        <ele>154</ele>
        <time>2010-05-15T13:05:17Z</time>
      </trkpt>
      <trkpt lat="48.57766" lon="1.91958">
        <ele>155</ele>
        <time>2010-05-15T13:05:18Z</time>
      </trkpt>
      <trkpt lat="48.57767" lon="1.91959">
        <ele>156</ele>
        <time>2010-05-15T13:05:19Z</time>
      </trkpt>
      <trkpt lat="48.57768" lon="1.91961">
        <ele>157</ele>
        <time>2010-05-15T13:05:20Z</time>
      </trkpt>
      <trkpt lat="48.57769" lon="1.91963">
        <ele>158</ele>
        <time>2010-05-15T13:05:21Z</time>
      </trkpt>
      <trkpt lat="48.5777" lon="1.91965">
        <ele>159</ele>
        <time>2010-05-15T13:05:22Z</time>
      </trkpt>
      <trkpt lat="48.57772" lon="1.91967">
        <ele>160</ele>
        <time>2010-05-15T13:05:23Z</time>
      </trkpt>
      <trkpt lat="48.57773" lon="1.91968">
        <ele>161</ele>
        <time>2010-05-15T13:05:24Z</time>
      </trkpt>
      <trkpt lat="48.57775" lon="1.91968">
        <ele>162</ele>
        <time>2010-05-15T13:05:25Z</time>
      </trkpt>
      <trkpt lat="48.57776" lon="1.91969">
        <ele>163</ele>
        <time>2010-05-15T13:05:26Z</time>
      </trkpt>
      <trkpt lat="48.57778" lon="1.91971">
        <ele>165</ele>
        <time>2010-05-15T13:05:28Z</time>
      </trkpt>
      <trkpt lat="48.57779" lon="1.91973">
        <ele>166</ele>
        <time>2010-05-15T13:05:29Z</time>
      </trkpt>
      <trkpt lat="48.5778" lon="1.91974">
        <ele>167</ele>
        <time>2010-05-15T13:05:30Z</time>
      </trkpt>
      <trkpt lat="48.57783" lon="1.91976">
        <ele>169</ele>
        <time>2010-05-15T13:05:32Z</time>
      </trkpt>
      <trkpt lat="48.57784" lon="1.91976">
        <ele>169</ele>
        <time>2010-05-15T13:05:33Z</time>
      </trkpt>
      <trkpt lat="48.57786" lon="1.91977">
        <ele>169</ele>
        <time>2010-05-15T13:05:34Z</time>
      </trkpt>
      <trkpt lat="48.57788" lon="1.91976">
        <ele>169</ele>
        <time>2010-05-15T13:05:35Z</time>
      </trkpt>
      <trkpt lat="48.57789" lon="1.91975">
        <ele>169</ele>
        <time>2010-05-15T13:05:36Z</time>
      </trkpt>
      <trkpt lat="48.57791" lon="1.91976">
        <ele>170</ele>
        <time>2010-05-15T13:05:37Z</time>
      </trkpt>
      <trkpt lat="48.57792" lon="1.91976">
        <ele>170</ele>
        <time>2010-05-15T13:05:38Z</time>
      </trkpt>
      <trkpt lat="48.57794" lon="1.91977">
        <ele>171</ele>
        <time>2010-05-15T13:05:39Z</time>
      </trkpt>
      <trkpt lat="48.57795" lon="1.91977">
        <ele>171</ele>
        <time>2010-05-15T13:05:40Z</time>
      </trkpt>
      <trkpt lat="48.57797" lon="1.91978">
        <ele>171</ele>
        <time>2010-05-15T13:05:41Z</time>
      </trkpt>
      <trkpt lat="48.57799" lon="1.91978">
        <ele>171</ele>
        <time>2010-05-15T13:05:42Z</time>
      </trkpt>
      <trkpt lat="48.57801" lon="1.91978">
        <ele>171</ele>
        <time>2010-05-15T13:05:43Z</time>
      </trkpt>
      <trkpt lat="48.57803" lon="1.91978">
        <ele>171</ele>
        <time>2010-05-15T13:05:44Z</time>
      </trkpt>
      <trkpt lat="48.57805" lon="1.91978">
        <ele>171</ele>
        <time>2010-05-15T13:05:45Z</time>
      </trkpt>
      <trkpt lat="48.57806" lon="1.91978">
        <ele>171</ele>
        <time>2010-05-15T13:05:46Z</time>
      </trkpt>
      <trkpt lat="48.57808" lon="1.91979">
        <ele>171</ele>
        <time>2010-05-15T13:05:47Z</time>
      </trkpt>
      <trkpt lat="48.5781" lon="1.91979">
        <ele>171</ele>
        <time>2010-05-15T13:05:48Z</time>
      </trkpt>
      <trkpt lat="48.57817" lon="1.9198">
        <ele>170</ele>
        <time>2010-05-15T13:05:52Z</time>
      </trkpt>
      <trkpt lat="48.57819" lon="1.91983">
        <ele>169</ele>
        <time>2010-05-15T13:05:53Z</time>
      </trkpt>
      <trkpt lat="48.5782" lon="1.91982">
        <ele>168</ele>
        <time>2010-05-15T13:05:54Z</time>
      </trkpt>
      <trkpt lat="48.57823" lon="1.91985">
        <ele>167</ele>
        <time>2010-05-15T13:05:55Z</time>
      </trkpt>
      <trkpt lat="48.57824" lon="1.91985">
        <ele>166</ele>
        <time>2010-05-15T13:05:56Z</time>
      </trkpt>
      <trkpt lat="48.57826" lon="1.91987">
        <ele>165</ele>
        <time>2010-05-15T13:05:57Z</time>
      </trkpt>
      <trkpt lat="48.57828" lon="1.91987">
        <ele>164</ele>
        <time>2010-05-15T13:05:58Z</time>
      </trkpt>
      <trkpt lat="48.5783" lon="1.91989">
        <ele>163</ele>
        <time>2010-05-15T13:05:59Z</time>
      </trkpt>
      <trkpt lat="48.57832" lon="1.91989">
        <ele>162</ele>
        <time>2010-05-15T13:06:00Z</time>
      </trkpt>
      <trkpt lat="48.57834" lon="1.91989">
        <ele>161</ele>
        <time>2010-05-15T13:06:01Z</time>
      </trkpt>
      <trkpt lat="48.57835" lon="1.91988">
        <ele>160</ele>
        <time>2010-05-15T13:06:02Z</time>
      </trkpt>
      <trkpt lat="48.57837" lon="1.91986">
        <ele>159</ele>
        <time>2010-05-15T13:06:03Z</time>
      </trkpt>
      <trkpt lat="48.57839" lon="1.91985">
        <ele>159</ele>
        <time>2010-05-15T13:06:04Z</time>
      </trkpt>
      <trkpt lat="48.57842" lon="1.91984">
        <ele>159</ele>
        <time>2010-05-15T13:06:05Z</time>
      </trkpt>
      <trkpt lat="48.57843" lon="1.91983">
        <ele>159</ele>
        <time>2010-05-15T13:06:06Z</time>
      </trkpt>
      <trkpt lat="48.57845" lon="1.91983">
        <ele>159</ele>
        <time>2010-05-15T13:06:07Z</time>
      </trkpt>
      <trkpt lat="48.57847" lon="1.91983">
        <ele>159</ele>
        <time>2010-05-15T13:06:08Z</time>
      </trkpt>
      <trkpt lat="48.57852" lon="1.91986">
        <ele>160</ele>
        <time>2010-05-15T13:06:12Z</time>
      </trkpt>
      <trkpt lat="48.57854" lon="1.91989">
        <ele>161</ele>
        <time>2010-05-15T13:06:13Z</time>
      </trkpt>
      <trkpt lat="48.57857" lon="1.91989">
        <ele>162</ele>
        <time>2010-05-15T13:06:14Z</time>
      </trkpt>
      <trkpt lat="48.5786" lon="1.91987">
        <ele>162</ele>
        <time>2010-05-15T13:06:16Z</time>
      </trkpt>
      <trkpt lat="48.57862" lon="1.91988">
        <ele>162</ele>
        <time>2010-05-15T13:06:18Z</time>
      </trkpt>
      <trkpt lat="48.57863" lon="1.91985">
        <ele>162</ele>
        <time>2010-05-15T13:06:19Z</time>
      </trkpt>
      <trkpt lat="48.57865" lon="1.91984">
        <ele>162</ele>
        <time>2010-05-15T13:06:20Z</time>
      </trkpt>
      <trkpt lat="48.57867" lon="1.91984">
        <ele>162</ele>
        <time>2010-05-15T13:06:21Z</time>
      </trkpt>
      <trkpt lat="48.57869" lon="1.91983">
        <ele>161</ele>
        <time>2010-05-15T13:06:22Z</time>
      </trkpt>
      <trkpt lat="48.57871" lon="1.91983">
        <ele>160</ele>
        <time>2010-05-15T13:06:23Z</time>
      </trkpt>
      <trkpt lat="48.57873" lon="1.91983">
        <ele>159</ele>
        <time>2010-05-15T13:06:24Z</time>
      </trkpt>
      <trkpt lat="48.57875" lon="1.91982">
        <ele>158</ele>
        <time>2010-05-15T13:06:25Z</time>
      </trkpt>
      <trkpt lat="48.57877" lon="1.91982">
        <ele>158</ele>
        <time>2010-05-15T13:06:26Z</time>
      </trkpt>
      <trkpt lat="48.57878" lon="1.91982">
        <ele>158</ele>
        <time>2010-05-15T13:06:27Z</time>
      </trkpt>
      <trkpt lat="48.5788" lon="1.91982">
        <ele>157</ele>
        <time>2010-05-15T13:06:28Z</time>
      </trkpt>
      <trkpt lat="48.57882" lon="1.91983">
        <ele>156</ele>
        <time>2010-05-15T13:06:29Z</time>
      </trkpt>
      <trkpt lat="48.57883" lon="1.91984">
        <ele>155</ele>
        <time>2010-05-15T13:06:30Z</time>
      </trkpt>
      <trkpt lat="48.57885" lon="1.91984">
        <ele>154</ele>
        <time>2010-05-15T13:06:31Z</time>
      </trkpt>
      <trkpt lat="48.5789" lon="1.91986">
        <ele>153</ele>
        <time>2010-05-15T13:06:34Z</time>
      </trkpt>
      <trkpt lat="48.57893" lon="1.9199">
        <ele>152</ele>
        <time>2010-05-15T13:06:35Z</time>
      </trkpt>
      <trkpt lat="48.57896" lon="1.91992">
        <ele>152</ele>
        <time>2010-05-15T13:06:36Z</time>
      </trkpt>
      <trkpt lat="48.57897" lon="1.91992">
        <ele>152</ele>
        <time>2010-05-15T13:06:37Z</time>
      </trkpt>
      <trkpt lat="48.57899" lon="1.91993">
        <ele>152</ele>
        <time>2010-05-15T13:06:38Z</time>
      </trkpt>
      <trkpt lat="48.57901" lon="1.91993">
        <ele>152</ele>
        <time>2010-05-15T13:06:39Z</time>
      </trkpt>
      <trkpt lat="48.57903" lon="1.91994">
        <ele>152</ele>
        <time>2010-05-15T13:06:40Z</time>
      </trkpt>
      <trkpt lat="48.57905" lon="1.91995">
        <ele>151</ele>
        <time>2010-05-15T13:06:41Z</time>
      </trkpt>
      <trkpt lat="48.57907" lon="1.91994">
        <ele>150</ele>
        <time>2010-05-15T13:06:43Z</time>
      </trkpt>
      <trkpt lat="48.57909" lon="1.91993">
        <ele>150</ele>
        <time>2010-05-15T13:06:44Z</time>
      </trkpt>
      <trkpt lat="48.57911" lon="1.91992">
        <ele>150</ele>
        <time>2010-05-15T13:06:45Z</time>
      </trkpt>
      <trkpt lat="48.57913" lon="1.91991">
        <ele>150</ele>
        <time>2010-05-15T13:06:46Z</time>
      </trkpt>
      <trkpt lat="48.57915" lon="1.9199">
        <ele>150</ele>
        <time>2010-05-15T13:06:47Z</time>
      </trkpt>
      <trkpt lat="48.57916" lon="1.9199">
        <ele>149</ele>
        <time>2010-05-15T13:06:48Z</time>
      </trkpt>
      <trkpt lat="48.57918" lon="1.91991">
        <ele>148</ele>
        <time>2010-05-15T13:06:50Z</time>
      </trkpt>
      <trkpt lat="48.5792" lon="1.91993">
        <ele>148</ele>
        <time>2010-05-15T13:06:51Z</time>
      </trkpt>
      <trkpt lat="48.57921" lon="1.91994">
        <ele>148</ele>
        <time>2010-05-15T13:06:52Z</time>
      </trkpt>
      <trkpt lat="48.57923" lon="1.91993">
        <ele>148</ele>
        <time>2010-05-15T13:06:53Z</time>
      </trkpt>
      <trkpt lat="48.57924" lon="1.91993">
        <ele>148</ele>
        <time>2010-05-15T13:06:55Z</time>
      </trkpt>
      <trkpt lat="48.57926" lon="1.91994">
        <ele>148</ele>
        <time>2010-05-15T13:06:57Z</time>
      </trkpt>
      <trkpt lat="48.57928" lon="1.91995">
        <ele>148</ele>
        <time>2010-05-15T13:06:59Z</time>
      </trkpt>
      <trkpt lat="48.57929" lon="1.91996">
        <ele>148</ele>
        <time>2010-05-15T13:07:00Z</time>
      </trkpt>
      <trkpt lat="48.57931" lon="1.91997">
        <ele>150</ele>
        <time>2010-05-15T13:07:02Z</time>
      </trkpt>
      <trkpt lat="48.57932" lon="1.91997">
        <ele>151</ele>
        <time>2010-05-15T13:07:03Z</time>
      </trkpt>
      <trkpt lat="48.57933" lon="1.91999">
        <ele>152</ele>
        <time>2010-05-15T13:07:04Z</time>
      </trkpt>
      <trkpt lat="48.57933" lon="1.92002">
        <ele>153</ele>
        <time>2010-05-15T13:07:05Z</time>
      </trkpt>
      <trkpt lat="48.57935" lon="1.92005">
        <ele>154</ele>
        <time>2010-05-15T13:07:06Z</time>
      </trkpt>
      <trkpt lat="48.57935" lon="1.92007">
        <ele>155</ele>
        <time>2010-05-15T13:07:07Z</time>
      </trkpt>
      <trkpt lat="48.57937" lon="1.92009">
        <ele>156</ele>
        <time>2010-05-15T13:07:08Z</time>
      </trkpt>
      <trkpt lat="48.57938" lon="1.92009">
        <ele>156</ele>
        <time>2010-05-15T13:07:09Z</time>
      </trkpt>
      <trkpt lat="48.57939" lon="1.92011">
        <ele>156</ele>
        <time>2010-05-15T13:07:11Z</time>
      </trkpt>
      <trkpt lat="48.57942" lon="1.92013">
        <ele>157</ele>
        <time>2010-05-15T13:07:13Z</time>
      </trkpt>
      <trkpt lat="48.57943" lon="1.92016">
        <ele>157</ele>
        <time>2010-05-15T13:07:14Z</time>
      </trkpt>
      <trkpt lat="48.57944" lon="1.92017">
        <ele>157</ele>
        <time>2010-05-15T13:07:15Z</time>
      </trkpt>
      <trkpt lat="48.57946" lon="1.92019">
        <ele>158</ele>
        <time>2010-05-15T13:07:17Z</time>
      </trkpt>
      <trkpt lat="48.57947" lon="1.92021">
        <ele>158</ele>
        <time>2010-05-15T13:07:18Z</time>
      </trkpt>
      <trkpt lat="48.57947" lon="1.92024">
        <ele>158</ele>
        <time>2010-05-15T13:07:19Z</time>
      </trkpt>
      <trkpt lat="48.57948" lon="1.92025">
        <ele>158</ele>
        <time>2010-05-15T13:07:20Z</time>
      </trkpt>
      <trkpt lat="48.5795" lon="1.92026">
        <ele>158</ele>
        <time>2010-05-15T13:07:22Z</time>
      </trkpt>
      <trkpt lat="48.57952" lon="1.92028">
        <ele>159</ele>
        <time>2010-05-15T13:07:24Z</time>
      </trkpt>
      <trkpt lat="48.57953" lon="1.9203">
        <ele>160</ele>
        <time>2010-05-15T13:07:25Z</time>
      </trkpt>
      <trkpt lat="48.57953" lon="1.92032">
        <ele>160</ele>
        <time>2010-05-15T13:07:26Z</time>
      </trkpt>
      <trkpt lat="48.57953" lon="1.92033">
        <ele>160</ele>
        <time>2010-05-15T13:07:27Z</time>
      </trkpt>
      <trkpt lat="48.57953" lon="1.92035">
        <ele>161</ele>
        <time>2010-05-15T13:07:29Z</time>
      </trkpt>
      <trkpt lat="48.57954" lon="1.92038">
        <ele>162</ele>
        <time>2010-05-15T13:07:31Z</time>
      </trkpt>
      <trkpt lat="48.57956" lon="1.92041">
        <ele>163</ele>
        <time>2010-05-15T13:07:33Z</time>
      </trkpt>
      <trkpt lat="48.57958" lon="1.92043">
        <ele>163</ele>
        <time>2010-05-15T13:07:34Z</time>
      </trkpt>
      <trkpt lat="48.5796" lon="1.92044">
        <ele>163</ele>
        <time>2010-05-15T13:07:35Z</time>
      </trkpt>
      <trkpt lat="48.57961" lon="1.92045">
        <ele>163</ele>
        <time>2010-05-15T13:07:36Z</time>
      </trkpt>
      <trkpt lat="48.57963" lon="1.92046">
        <ele>163</ele>
        <time>2010-05-15T13:07:37Z</time>
      </trkpt>
      <trkpt lat="48.57964" lon="1.92048">
        <ele>163</ele>
        <time>2010-05-15T13:07:38Z</time>
      </trkpt>
      <trkpt lat="48.57966" lon="1.92051">
        <ele>163</ele>
        <time>2010-05-15T13:07:40Z</time>
      </trkpt>
      <trkpt lat="48.57967" lon="1.92052">
        <ele>163</ele>
        <time>2010-05-15T13:07:41Z</time>
      </trkpt>
      <trkpt lat="48.57969" lon="1.92053">
        <ele>163</ele>
        <time>2010-05-15T13:07:42Z</time>
      </trkpt>
      <trkpt lat="48.5797" lon="1.92054">
        <ele>162</ele>
        <time>2010-05-15T13:07:43Z</time>
      </trkpt>
      <trkpt lat="48.57971" lon="1.92054">
        <ele>162</ele>
        <time>2010-05-15T13:07:44Z</time>
      </trkpt>
      <trkpt lat="48.57973" lon="1.92056">
        <ele>162</ele>
        <time>2010-05-15T13:07:45Z</time>
      </trkpt>
      <trkpt lat="48.57975" lon="1.92059">
        <ele>161</ele>
        <time>2010-05-15T13:07:46Z</time>
      </trkpt>
      <trkpt lat="48.57977" lon="1.9206">
        <ele>160</ele>
        <time>2010-05-15T13:07:47Z</time>
      </trkpt>
      <trkpt lat="48.57978" lon="1.92062">
        <ele>160</ele>
        <time>2010-05-15T13:07:48Z</time>
      </trkpt>
      <trkpt lat="48.5798" lon="1.92063">
        <ele>160</ele>
        <time>2010-05-15T13:07:49Z</time>
      </trkpt>
      <trkpt lat="48.57982" lon="1.92062">
        <ele>159</ele>
        <time>2010-05-15T13:07:51Z</time>
      </trkpt>
      <trkpt lat="48.57983" lon="1.92063">
        <ele>159</ele>
        <time>2010-05-15T13:07:52Z</time>
      </trkpt>
      <trkpt lat="48.57985" lon="1.92063">
        <ele>159</ele>
        <time>2010-05-15T13:07:53Z</time>
      </trkpt>
      <trkpt lat="48.57987" lon="1.92062">
        <ele>159</ele>
        <time>2010-05-15T13:07:55Z</time>
      </trkpt>
      <trkpt lat="48.57988" lon="1.92061">
        <ele>159</ele>
        <time>2010-05-15T13:07:56Z</time>
      </trkpt>
      <trkpt lat="48.57989" lon="1.9206">
        <ele>159</ele>
        <time>2010-05-15T13:07:57Z</time>
      </trkpt>
      <trkpt lat="48.57991" lon="1.9206">
        <ele>160</ele>
        <time>2010-05-15T13:07:58Z</time>
      </trkpt>
      <trkpt lat="48.57993" lon="1.92058">
        <ele>161</ele>
        <time>2010-05-15T13:07:59Z</time>
      </trkpt>
      <trkpt lat="48.57997" lon="1.9206">
        <ele>162</ele>
        <time>2010-05-15T13:08:02Z</time>
      </trkpt>
      <trkpt lat="48.58" lon="1.92063">
        <ele>163</ele>
        <time>2010-05-15T13:08:03Z</time>
      </trkpt>
      <trkpt lat="48.58002" lon="1.92062">
        <ele>164</ele>
        <time>2010-05-15T13:08:04Z</time>
      </trkpt>
      <trkpt lat="48.58004" lon="1.92062">
        <ele>165</ele>
        <time>2010-05-15T13:08:05Z</time>
      </trkpt>
      <trkpt lat="48.58006" lon="1.9206">
        <ele>165</ele>
        <time>2010-05-15T13:08:06Z</time>
      </trkpt>
      <trkpt lat="48.58007" lon="1.9206">
        <ele>165</ele>
        <time>2010-05-15T13:08:07Z</time>
      </trkpt>
      <trkpt lat="48.5801" lon="1.92058">
        <ele>165</ele>
        <time>2010-05-15T13:08:08Z</time>
      </trkpt>
      <trkpt lat="48.58011" lon="1.92057">
        <ele>165</ele>
        <time>2010-05-15T13:08:09Z</time>
      </trkpt>
      <trkpt lat="48.58014" lon="1.92056">
        <ele>165</ele>
        <time>2010-05-15T13:08:10Z</time>
      </trkpt>
      <trkpt lat="48.58016" lon="1.92054">
        <ele>166</ele>
        <time>2010-05-15T13:08:11Z</time>
      </trkpt>
      <trkpt lat="48.58018" lon="1.92053">
        <ele>166</ele>
        <time>2010-05-15T13:08:13Z</time>
      </trkpt>
      <trkpt lat="48.5802" lon="1.92052">
        <ele>167</ele>
        <time>2010-05-15T13:08:15Z</time>
      </trkpt>
      <trkpt lat="48.58021" lon="1.92052">
        <ele>168</ele>
        <time>2010-05-15T13:08:17Z</time>
      </trkpt>
      <trkpt lat="48.58023" lon="1.92051">
        <ele>169</ele>
        <time>2010-05-15T13:08:18Z</time>
      </trkpt>
      <trkpt lat="48.58024" lon="1.92051">
        <ele>170</ele>
        <time>2010-05-15T13:08:19Z</time>
      </trkpt>
      <trkpt lat="48.58026" lon="1.92052">
        <ele>170</ele>
        <time>2010-05-15T13:08:20Z</time>
      </trkpt>
      <trkpt lat="48.58027" lon="1.92051">
        <ele>170</ele>
        <time>2010-05-15T13:08:21Z</time>
      </trkpt>
      <trkpt lat="48.58028" lon="1.9205">
        <ele>171</ele>
        <time>2010-05-15T13:08:22Z</time>
      </trkpt>
      <trkpt lat="48.58029" lon="1.92048">
        <ele>172</ele>
        <time>2010-05-15T13:08:23Z</time>
      </trkpt>
      <trkpt lat="48.58031" lon="1.92045">
        <ele>174</ele>
        <time>2010-05-15T13:08:25Z</time>
      </trkpt>
      <trkpt lat="48.58032" lon="1.92043">
        <ele>175</ele>
        <time>2010-05-15T13:08:26Z</time>
      </trkpt>
      <trkpt lat="48.58034" lon="1.92042">
        <ele>175</ele>
        <time>2010-05-15T13:08:27Z</time>
      </trkpt>
      <trkpt lat="48.58036" lon="1.92042">
        <ele>175</ele>
        <time>2010-05-15T13:08:28Z</time>
      </trkpt>
      <trkpt lat="48.58037" lon="1.92042">
        <ele>175</ele>
        <time>2010-05-15T13:08:29Z</time>
      </trkpt>
      <trkpt lat="48.58039" lon="1.92042">
        <ele>175</ele>
        <time>2010-05-15T13:08:30Z</time>
      </trkpt>
      <trkpt lat="48.5804" lon="1.92041">
        <ele>175</ele>
        <time>2010-05-15T13:08:31Z</time>
      </trkpt>
      <trkpt lat="48.58041" lon="1.9204">
        <ele>175</ele>
        <time>2010-05-15T13:08:32Z</time>
      </trkpt>
      <trkpt lat="48.58043" lon="1.92038">
        <ele>175</ele>
        <time>2010-05-15T13:08:33Z</time>
      </trkpt>
      <trkpt lat="48.58044" lon="1.92038">
        <ele>175</ele>
        <time>2010-05-15T13:08:34Z</time>
      </trkpt>
      <trkpt lat="48.58046" lon="1.92038">
        <ele>175</ele>
        <time>2010-05-15T13:08:35Z</time>
      </trkpt>
      <trkpt lat="48.58048" lon="1.92037">
        <ele>175</ele>
        <time>2010-05-15T13:08:36Z</time>
      </trkpt>
      <trkpt lat="48.58049" lon="1.92037">
        <ele>176</ele>
        <time>2010-05-15T13:08:37Z</time>
      </trkpt>
      <trkpt lat="48.5805" lon="1.92037">
        <ele>177</ele>
        <time>2010-05-15T13:08:38Z</time>
      </trkpt>
      <trkpt lat="48.58052" lon="1.92037">
        <ele>178</ele>
        <time>2010-05-15T13:08:39Z</time>
      </trkpt>
      <trkpt lat="48.58053" lon="1.92036">
        <ele>178</ele>
        <time>2010-05-15T13:08:40Z</time>
      </trkpt>
      <trkpt lat="48.58055" lon="1.92037">
        <ele>178</ele>
        <time>2010-05-15T13:08:41Z</time>
      </trkpt>
      <trkpt lat="48.58057" lon="1.92036">
        <ele>179</ele>
        <time>2010-05-15T13:08:42Z</time>
      </trkpt>
      <trkpt lat="48.58059" lon="1.92036">
        <ele>179</ele>
        <time>2010-05-15T13:08:43Z</time>
      </trkpt>
      <trkpt lat="48.5806" lon="1.92036">
        <ele>179</ele>
        <time>2010-05-15T13:08:44Z</time>
      </trkpt>
      <trkpt lat="48.58063" lon="1.92034">
        <ele>179</ele>
        <time>2010-05-15T13:08:46Z</time>
      </trkpt>
      <trkpt lat="48.58065" lon="1.92035">
        <ele>179</ele>
        <time>2010-05-15T13:08:47Z</time>
      </trkpt>
      <trkpt lat="48.58066" lon="1.92033">
        <ele>179</ele>
        <time>2010-05-15T13:08:48Z</time>
      </trkpt>
      <trkpt lat="48.58068" lon="1.92033">
        <ele>179</ele>
        <time>2010-05-15T13:08:49Z</time>
      </trkpt>
      <trkpt lat="48.58071" lon="1.92034">
        <ele>179</ele>
        <time>2010-05-15T13:08:50Z</time>
      </trkpt>
      <trkpt lat="48.58072" lon="1.92034">
        <ele>179</ele>
        <time>2010-05-15T13:08:51Z</time>
      </trkpt>
      <trkpt lat="48.58073" lon="1.92034">
        <ele>179</ele>
        <time>2010-05-15T13:08:52Z</time>
      </trkpt>
      <trkpt lat="48.58075" lon="1.92033">
        <ele>179</ele>
        <time>2010-05-15T13:08:53Z</time>
      </trkpt>
      <trkpt lat="48.58077" lon="1.92033">
        <ele>179</ele>
        <time>2010-05-15T13:08:54Z</time>
      </trkpt>
      <trkpt lat="48.5808" lon="1.92033">
        <ele>179</ele>
        <time>2010-05-15T13:08:55Z</time>
      </trkpt>
      <trkpt lat="48.58084" lon="1.92033">
        <ele>180</ele>
        <time>2010-05-15T13:08:56Z</time>
      </trkpt>
      <trkpt lat="48.58087" lon="1.92032">
        <ele>180</ele>
        <time>2010-05-15T13:08:57Z</time>
      </trkpt>
      <trkpt lat="48.58091" lon="1.9203">
        <ele>181</ele>
        <time>2010-05-15T13:08:58Z</time>
      </trkpt>
      <trkpt lat="48.58094" lon="1.92029">
        <ele>182</ele>
        <time>2010-05-15T13:08:59Z</time>
      </trkpt>
      <trkpt lat="48.58097" lon="1.92029">
        <ele>183</ele>
        <time>2010-05-15T13:09:00Z</time>
      </trkpt>
      <trkpt lat="48.581" lon="1.92027">
        <ele>184</ele>
        <time>2010-05-15T13:09:01Z</time>
      </trkpt>
      <trkpt lat="48.58103" lon="1.92028">
        <ele>185</ele>
        <time>2010-05-15T13:09:02Z</time>
      </trkpt>
      <trkpt lat="48.58106" lon="1.92027">
        <ele>186</ele>
        <time>2010-05-15T13:09:03Z</time>
      </trkpt>
      <trkpt lat="48.58109" lon="1.92027">
        <ele>187</ele>
        <time>2010-05-15T13:09:04Z</time>
      </trkpt>
      <trkpt lat="48.58111" lon="1.92024">
        <ele>188</ele>
        <time>2010-05-15T13:09:05Z</time>
      </trkpt>
      <trkpt lat="48.58114" lon="1.92022">
        <ele>189</ele>
        <time>2010-05-15T13:09:06Z</time>
      </trkpt>
      <trkpt lat="48.58117" lon="1.92023">
        <ele>191</ele>
        <time>2010-05-15T13:09:07Z</time>
      </trkpt>
      <trkpt lat="48.5812" lon="1.92023">
        <ele>193</ele>
        <time>2010-05-15T13:09:08Z</time>
      </trkpt>
      <trkpt lat="48.58122" lon="1.92023">
        <ele>194</ele>
        <time>2010-05-15T13:09:09Z</time>
      </trkpt>
      <trkpt lat="48.58125" lon="1.92023">
        <ele>196</ele>
        <time>2010-05-15T13:09:10Z</time>
      </trkpt>
      <trkpt lat="48.58128" lon="1.92024">
        <ele>198</ele>
        <time>2010-05-15T13:09:11Z</time>
      </trkpt>
      <trkpt lat="48.58131" lon="1.92026">
        <ele>200</ele>
        <time>2010-05-15T13:09:12Z</time>
      </trkpt>
      <trkpt lat="48.58134" lon="1.92026">
        <ele>202</ele>
        <time>2010-05-15T13:09:13Z</time>
      </trkpt>
      <trkpt lat="48.58137" lon="1.92026">
        <ele>204</ele>
        <time>2010-05-15T13:09:14Z</time>
      </trkpt>
      <trkpt lat="48.5814" lon="1.92025">
        <ele>206</ele>
        <time>2010-05-15T13:09:15Z</time>
      </trkpt>
      <trkpt lat="48.58142" lon="1.92025">
        <ele>208</ele>
        <time>2010-05-15T13:09:16Z</time>
      </trkpt>
      <trkpt lat="48.58146" lon="1.92024">
        <ele>210</ele>
        <time>2010-05-15T13:09:17Z</time>
      </trkpt>
      <trkpt lat="48.58149" lon="1.92024">
        <ele>212</ele>
        <time>2010-05-15T13:09:18Z</time>
      </trkpt>
      <trkpt lat="48.58152" lon="1.92024">
        <ele>214</ele>
        <time>2010-05-15T13:09:19Z</time>
      </trkpt>
      <trkpt lat="48.58155" lon="1.92024">
        <ele>216</ele>
        <time>2010-05-15T13:09:20Z</time>
      </trkpt>
      <trkpt lat="48.58157" lon="1.92023">
        <ele>218</ele>
        <time>2010-05-15T13:09:21Z</time>
      </trkpt>
      <trkpt lat="48.58159" lon="1.92023">
        <ele>220</ele>
        <time>2010-05-15T13:09:22Z</time>
      </trkpt>
      <trkpt lat="48.58161" lon="1.92023">
        <ele>222</ele>
        <time>2010-05-15T13:09:23Z</time>
      </trkpt>
      <trkpt lat="48.58165" lon="1.92023">
        <ele>224</ele>
        <time>2010-05-15T13:09:24Z</time>
      </trkpt>
      <trkpt lat="48.58168" lon="1.92024">
        <ele>226</ele>
        <time>2010-05-15T13:09:25Z</time>
      </trkpt>
      <trkpt lat="48.5817" lon="1.92024">
        <ele>227</ele>
        <time>2010-05-15T13:09:26Z</time>
      </trkpt>
      <trkpt lat="48.58173" lon="1.92024">
        <ele>228</ele>
        <time>2010-05-15T13:09:27Z</time>
      </trkpt>
      <trkpt lat="48.58175" lon="1.92023">
        <ele>229</ele>
        <time>2010-05-15T13:09:28Z</time>
      </trkpt>
      <trkpt lat="48.58177" lon="1.92022">
        <ele>231</ele>
        <time>2010-05-15T13:09:29Z</time>
      </trkpt>
      <trkpt lat="48.5818" lon="1.92021">
        <ele>232</ele>
        <time>2010-05-15T13:09:30Z</time>
      </trkpt>
      <trkpt lat="48.58182" lon="1.92021">
        <ele>233</ele>
        <time>2010-05-15T13:09:31Z</time>
      </trkpt>
      <trkpt lat="48.58184" lon="1.92021">
        <ele>235</ele>
        <time>2010-05-15T13:09:32Z</time>
      </trkpt>
      <trkpt lat="48.58186" lon="1.92021">
        <ele>236</ele>
        <time>2010-05-15T13:09:33Z</time>
      </trkpt>
      <trkpt lat="48.58188" lon="1.92021">
        <ele>237</ele>
        <time>2010-05-15T13:09:34Z</time>
      </trkpt>
      <trkpt lat="48.58191" lon="1.92022">
        <ele>238</ele>
        <time>2010-05-15T13:09:35Z</time>
      </trkpt>
      <trkpt lat="48.58194" lon="1.92023">
        <ele>239</ele>
        <time>2010-05-15T13:09:36Z</time>
      </trkpt>
      <trkpt lat="48.58196" lon="1.92023">
        <ele>240</ele>
        <time>2010-05-15T13:09:37Z</time>
      </trkpt>
      <trkpt lat="48.58199" lon="1.92023">
        <ele>241</ele>
        <time>2010-05-15T13:09:38Z</time>
      </trkpt>
      <trkpt lat="48.58202" lon="1.92023">
        <ele>242</ele>
        <time>2010-05-15T13:09:39Z</time>
      </trkpt>
      <trkpt lat="48.58204" lon="1.92023">
        <ele>244</ele>
        <time>2010-05-15T13:09:40Z</time>
      </trkpt>
      <trkpt lat="48.58207" lon="1.92023">
        <ele>245</ele>
        <time>2010-05-15T13:09:41Z</time>
      </trkpt>
      <trkpt lat="48.58209" lon="1.92023">
        <ele>247</ele>
        <time>2010-05-15T13:09:42Z</time>
      </trkpt>
      <trkpt lat="48.58211" lon="1.92024">
        <ele>249</ele>
        <time>2010-05-15T13:09:43Z</time>
      </trkpt>
      <trkpt lat="48.58214" lon="1.92024">
        <ele>251</ele>
        <time>2010-05-15T13:09:44Z</time>
      </trkpt>
      <trkpt lat="48.58216" lon="1.92024">
        <ele>253</ele>
        <time>2010-05-15T13:09:45Z</time>
      </trkpt>
      <trkpt lat="48.58219" lon="1.92024">
        <ele>255</ele>
        <time>2010-05-15T13:09:46Z</time>
      </trkpt>
      <trkpt lat="48.5822" lon="1.92024">
        <ele>257</ele>
        <time>2010-05-15T13:09:47Z</time>
      </trkpt>
      <trkpt lat="48.58222" lon="1.92025">
        <ele>259</ele>
        <time>2010-05-15T13:09:48Z</time>
      </trkpt>
      <trkpt lat="48.58224" lon="1.92026">
        <ele>260</ele>
        <time>2010-05-15T13:09:49Z</time>
      </trkpt>
      <trkpt lat="48.58227" lon="1.92027">
        <ele>261</ele>
        <time>2010-05-15T13:09:50Z</time>
      </trkpt>
      <trkpt lat="48.5823" lon="1.92028">
        <ele>262</ele>
        <time>2010-05-15T13:09:51Z</time>
      </trkpt>
      <trkpt lat="48.58233" lon="1.92029">
        <ele>263</ele>
        <time>2010-05-15T13:09:52Z</time>
      </trkpt>
      <trkpt lat="48.58236" lon="1.9203">
        <ele>264</ele>
        <time>2010-05-15T13:09:53Z</time>
      </trkpt>
      <trkpt lat="48.58239" lon="1.9203">
        <ele>265</ele>
        <time>2010-05-15T13:09:54Z</time>
      </trkpt>
      <trkpt lat="48.5824" lon="1.92029">
        <ele>266</ele>
        <time>2010-05-15T13:09:55Z</time>
      </trkpt>
      <trkpt lat="48.58241" lon="1.92028">
        <ele>267</ele>
        <time>2010-05-15T13:09:57Z</time>
      </trkpt>
      <trkpt lat="48.58243" lon="1.92025">
        <ele>267</ele>
        <time>2010-05-15T13:09:59Z</time>
      </trkpt>
      <trkpt lat="48.58243" lon="1.92022">
        <ele>266</ele>
        <time>2010-05-15T13:10:00Z</time>
      </trkpt>
      <trkpt lat="48.58244" lon="1.9202">
        <ele>263</ele>
        <time>2010-05-15T13:10:02Z</time>
      </trkpt>
      <trkpt lat="48.58244" lon="1.92018">
        <ele>259</ele>
        <time>2010-05-15T13:10:04Z</time>
      </trkpt>
      <trkpt lat="48.58248" lon="1.92015">
        <ele>256</ele>
        <time>2010-05-15T13:10:05Z</time>
      </trkpt>
      <trkpt lat="48.58251" lon="1.92012">
        <ele>253</ele>
        <time>2010-05-15T13:10:06Z</time>
      </trkpt>
      <trkpt lat="48.58251" lon="1.92011">
        <ele>245</ele>
        <time>2010-05-15T13:10:08Z</time>
      </trkpt>
      <trkpt lat="48.58252" lon="1.92008">
        <ele>241</ele>
        <time>2010-05-15T13:10:09Z</time>
      </trkpt>
      <trkpt lat="48.58256" lon="1.92002">
        <ele>237</ele>
        <time>2010-05-15T13:10:10Z</time>
      </trkpt>
      <trkpt lat="48.58258" lon="1.92002">
        <ele>234</ele>
        <time>2010-05-15T13:10:11Z</time>
      </trkpt>
      <trkpt lat="48.5826" lon="1.92002">
        <ele>231</ele>
        <time>2010-05-15T13:10:12Z</time>
      </trkpt>
      <trkpt lat="48.58263" lon="1.92002">
        <ele>228</ele>
        <time>2010-05-15T13:10:13Z</time>
      </trkpt>
      <trkpt lat="48.58265" lon="1.92002">
        <ele>226</ele>
        <time>2010-05-15T13:10:14Z</time>
      </trkpt>
      <trkpt lat="48.58266" lon="1.92001">
        <ele>224</ele>
        <time>2010-05-15T13:10:15Z</time>
      </trkpt>
      <trkpt lat="48.58268" lon="1.92001">
        <ele>222</ele>
        <time>2010-05-15T13:10:16Z</time>
      </trkpt>
      <trkpt lat="48.5827" lon="1.92001">
        <ele>220</ele>
        <time>2010-05-15T13:10:17Z</time>
      </trkpt>
      <trkpt lat="48.58272" lon="1.92">
        <ele>218</ele>
        <time>2010-05-15T13:10:18Z</time>
      </trkpt>
      <trkpt lat="48.58274" lon="1.91998">
        <ele>214</ele>
        <time>2010-05-15T13:10:20Z</time>
      </trkpt>
      <trkpt lat="48.58275" lon="1.91996">
        <ele>213</ele>
        <time>2010-05-15T13:10:21Z</time>
      </trkpt>
      <trkpt lat="48.58275" lon="1.91994">
        <ele>212</ele>
        <time>2010-05-15T13:10:22Z</time>
      </trkpt>
      <trkpt lat="48.58277" lon="1.91992">
        <ele>211</ele>
        <time>2010-05-15T13:10:23Z</time>
      </trkpt>
      <trkpt lat="48.58278" lon="1.9199">
        <ele>210</ele>
        <time>2010-05-15T13:10:24Z</time>
      </trkpt>
      <trkpt lat="48.5828" lon="1.91988">
        <ele>208</ele>
        <time>2010-05-15T13:10:27Z</time>
      </trkpt>
      <trkpt lat="48.58281" lon="1.91985">
        <ele>208</ele>
        <time>2010-05-15T13:10:28Z</time>
      </trkpt>
      <trkpt lat="48.58283" lon="1.91985">
        <ele>207</ele>
        <time>2010-05-15T13:10:30Z</time>
      </trkpt>
      <trkpt lat="48.58284" lon="1.91985">
        <ele>207</ele>
        <time>2010-05-15T13:10:31Z</time>
      </trkpt>
      <trkpt lat="48.58286" lon="1.91984">
        <ele>205</ele>
        <time>2010-05-15T13:10:33Z</time>
      </trkpt>
      <trkpt lat="48.58287" lon="1.91981">
        <ele>203</ele>
        <time>2010-05-15T13:10:35Z</time>
      </trkpt>
      <trkpt lat="48.58287" lon="1.91979">
        <ele>201</ele>
        <time>2010-05-15T13:10:37Z</time>
      </trkpt>
      <trkpt lat="48.58287" lon="1.91975">
        <ele>199</ele>
        <time>2010-05-15T13:10:39Z</time>
      </trkpt>
      <trkpt lat="48.58287" lon="1.91972">
        <ele>197</ele>
        <time>2010-05-15T13:10:41Z</time>
      </trkpt>
      <trkpt lat="48.58288" lon="1.9197">
        <ele>196</ele>
        <time>2010-05-15T13:10:42Z</time>
      </trkpt>
      <trkpt lat="48.58287" lon="1.91968">
        <ele>195</ele>
        <time>2010-05-15T13:10:43Z</time>
      </trkpt>
      <trkpt lat="48.58289" lon="1.91964">
        <ele>192</ele>
        <time>2010-05-15T13:10:45Z</time>
      </trkpt>
      <trkpt lat="48.58289" lon="1.91961">
        <ele>190</ele>
        <time>2010-05-15T13:10:46Z</time>
      </trkpt>
      <trkpt lat="48.5829" lon="1.91959">
        <ele>186</ele>
        <time>2010-05-15T13:10:48Z</time>
      </trkpt>
      <trkpt lat="48.58292" lon="1.91958">
        <ele>184</ele>
        <time>2010-05-15T13:10:49Z</time>
      </trkpt>
      <trkpt lat="48.58294" lon="1.91958">
        <ele>183</ele>
        <time>2010-05-15T13:10:50Z</time>
      </trkpt>
      <trkpt lat="48.58295" lon="1.91957">
        <ele>181</ele>
        <time>2010-05-15T13:10:52Z</time>
      </trkpt>
      <trkpt lat="48.58296" lon="1.91955">
        <ele>178</ele>
        <time>2010-05-15T13:10:55Z</time>
      </trkpt>
      <trkpt lat="48.58298" lon="1.91955">
        <ele>174</ele>
        <time>2010-05-15T13:10:59Z</time>
      </trkpt>
      <trkpt lat="48.58298" lon="1.91953">
        <ele>173</ele>
        <time>2010-05-15T13:11:02Z</time>
      </trkpt>
      <trkpt lat="48.58298" lon="1.9195">
        <ele>171</ele>
        <time>2010-05-15T13:11:04Z</time>
      </trkpt>
      <trkpt lat="48.583" lon="1.91948">
        <ele>167</ele>
        <time>2010-05-15T13:11:08Z</time>
      </trkpt>
      <trkpt lat="48.58302" lon="1.91947">
        <ele>167</ele>
        <time>2010-05-15T13:11:09Z</time>
      </trkpt>
      <trkpt lat="48.58303" lon="1.91946">
        <ele>167</ele>
        <time>2010-05-15T13:11:11Z</time>
      </trkpt>
      <trkpt lat="48.58305" lon="1.91945">
        <ele>167</ele>
        <time>2010-05-15T13:11:11Z</time>
      </trkpt>
      <trkpt lat="48.58307" lon="1.91943">
        <ele>167</ele>
        <time>2010-05-15T13:11:13Z</time>
      </trkpt>
      <trkpt lat="48.58308" lon="1.91942">
        <ele>167</ele>
        <time>2010-05-15T13:11:14Z</time>
      </trkpt>
      <trkpt lat="48.5831" lon="1.91942">
        <ele>167</ele>
        <time>2010-05-15T13:11:16Z</time>
      </trkpt>
      <trkpt lat="48.58312" lon="1.91942">
        <ele>167</ele>
        <time>2010-05-15T13:11:17Z</time>
      </trkpt>
      <trkpt lat="48.58314" lon="1.91939">
        <ele>167</ele>
        <time>2010-05-15T13:11:18Z</time>
      </trkpt>
      <trkpt lat="48.58316" lon="1.91938">
        <ele>167</ele>
        <time>2010-05-15T13:11:19Z</time>
      </trkpt>
      <trkpt lat="48.58318" lon="1.91937">
        <ele>167</ele>
        <time>2010-05-15T13:11:22Z</time>
      </trkpt>
      <trkpt lat="48.58319" lon="1.91938">
        <ele>167</ele>
        <time>2010-05-15T13:11:23Z</time>
      </trkpt>
      <trkpt lat="48.58321" lon="1.9194">
        <ele>167</ele>
        <time>2010-05-15T13:11:25Z</time>
      </trkpt>
      <trkpt lat="48.58321" lon="1.91942">
        <ele>167</ele>
        <time>2010-05-15T13:11:30Z</time>
      </trkpt>
      <trkpt lat="48.58318" lon="1.91944">
        <ele>167</ele>
        <time>2010-05-15T13:11:34Z</time>
      </trkpt>
      <trkpt lat="48.58318" lon="1.91947">
        <ele>164</ele>
        <time>2010-05-15T13:11:38Z</time>
      </trkpt>
      <trkpt lat="48.5832" lon="1.91949">
        <ele>163</ele>
        <time>2010-05-15T13:11:40Z</time>
      </trkpt>
      <trkpt lat="48.58318" lon="1.91949">
        <ele>162</ele>
        <time>2010-05-15T13:11:42Z</time>
      </trkpt>
      <trkpt lat="48.58317" lon="1.91949">
        <ele>162</ele>
        <time>2010-05-15T13:11:45Z</time>
      </trkpt>
      <trkpt lat="48.58316" lon="1.91947">
        <ele>161</ele>
        <time>2010-05-15T13:11:51Z</time>
      </trkpt>
      <trkpt lat="48.58317" lon="1.91947">
        <ele>160</ele>
        <time>2010-05-15T13:11:53Z</time>
      </trkpt>
      <trkpt lat="48.58316" lon="1.91947">
        <ele>160</ele>
        <time>2010-05-15T13:11:54Z</time>
      </trkpt>
      <trkpt lat="48.58314" lon="1.91952">
        <ele>159</ele>
        <time>2010-05-15T13:11:59Z</time>
      </trkpt>
      <trkpt lat="48.58315" lon="1.91955">
        <ele>159</ele>
        <time>2010-05-15T13:12:00Z</time>
      </trkpt>
      <trkpt lat="48.58314" lon="1.91957">
        <ele>159</ele>
        <time>2010-05-15T13:12:01Z</time>
      </trkpt>
      <trkpt lat="48.58315" lon="1.91959">
        <ele>158</ele>
        <time>2010-05-15T13:12:02Z</time>
      </trkpt>
      <trkpt lat="48.58317" lon="1.91961">
        <ele>158</ele>
        <time>2010-05-15T13:12:03Z</time>
      </trkpt>
      <trkpt lat="48.58319" lon="1.91962">
        <ele>158</ele>
        <time>2010-05-15T13:12:04Z</time>
      </trkpt>
      <trkpt lat="48.5832" lon="1.91963">
        <ele>158</ele>
        <time>2010-05-15T13:12:05Z</time>
      </trkpt>
      <trkpt lat="48.58321" lon="1.91964">
        <ele>158</ele>
        <time>2010-05-15T13:12:06Z</time>
      </trkpt>
      <trkpt lat="48.58321" lon="1.91966">
        <ele>158</ele>
        <time>2010-05-15T13:12:09Z</time>
      </trkpt>
      <trkpt lat="48.58325" lon="1.91974">
        <ele>160</ele>
        <time>2010-05-15T13:12:14Z</time>
      </trkpt>
      <trkpt lat="48.58327" lon="1.91977">
        <ele>161</ele>
        <time>2010-05-15T13:12:15Z</time>
      </trkpt>
      <trkpt lat="48.5833" lon="1.91978">
        <ele>161</ele>
        <time>2010-05-15T13:12:16Z</time>
      </trkpt>
      <trkpt lat="48.58333" lon="1.9198">
        <ele>161</ele>
        <time>2010-05-15T13:12:17Z</time>
      </trkpt>
      <trkpt lat="48.58335" lon="1.91984">
        <ele>161</ele>
        <time>2010-05-15T13:12:19Z</time>
      </trkpt>
      <trkpt lat="48.58335" lon="1.91987">
        <ele>161</ele>
        <time>2010-05-15T13:12:21Z</time>
      </trkpt>
      <trkpt lat="48.58334" lon="1.91989">
        <ele>161</ele>
        <time>2010-05-15T13:12:22Z</time>
      </trkpt>
      <trkpt lat="48.58335" lon="1.91993">
        <ele>161</ele>
        <time>2010-05-15T13:12:24Z</time>
      </trkpt>
      <trkpt lat="48.58335" lon="1.91997">
        <ele>161</ele>
        <time>2010-05-15T13:12:25Z</time>
      </trkpt>
      <trkpt lat="48.58335" lon="1.91999">
        <ele>161</ele>
        <time>2010-05-15T13:12:26Z</time>
      </trkpt>
      <trkpt lat="48.58336" lon="1.92001">
        <ele>161</ele>
        <time>2010-05-15T13:12:28Z</time>
      </trkpt>
      <trkpt lat="48.58337" lon="1.92003">
        <ele>160</ele>
        <time>2010-05-15T13:12:29Z</time>
      </trkpt>
      <trkpt lat="48.58338" lon="1.92005">
        <ele>159</ele>
        <time>2010-05-15T13:12:30Z</time>
      </trkpt>
      <trkpt lat="48.5834" lon="1.92009">
        <ele>158</ele>
        <time>2010-05-15T13:12:32Z</time>
      </trkpt>
      <trkpt lat="48.58341" lon="1.92011">
        <ele>158</ele>
        <time>2010-05-15T13:12:33Z</time>
      </trkpt>
      <trkpt lat="48.58343" lon="1.92013">
        <ele>157</ele>
        <time>2010-05-15T13:12:34Z</time>
      </trkpt>
      <trkpt lat="48.58344" lon="1.92014">
        <ele>157</ele>
        <time>2010-05-15T13:12:35Z</time>
      </trkpt>
      <trkpt lat="48.58346" lon="1.92015">
        <ele>156</ele>
        <time>2010-05-15T13:12:36Z</time>
      </trkpt>
      <trkpt lat="48.58348" lon="1.92017">
        <ele>156</ele>
        <time>2010-05-15T13:12:37Z</time>
      </trkpt>
      <trkpt lat="48.58349" lon="1.92019">
        <ele>155</ele>
        <time>2010-05-15T13:12:38Z</time>
      </trkpt>
      <trkpt lat="48.58349" lon="1.9202">
        <ele>155</ele>
        <time>2010-05-15T13:12:39Z</time>
      </trkpt>
      <trkpt lat="48.58351" lon="1.92023">
        <ele>154</ele>
        <time>2010-05-15T13:12:41Z</time>
      </trkpt>
      <trkpt lat="48.58353" lon="1.92024">
        <ele>154</ele>
        <time>2010-05-15T13:12:42Z</time>
      </trkpt>
      <trkpt lat="48.58354" lon="1.92026">
        <ele>154</ele>
        <time>2010-05-15T13:12:43Z</time>
      </trkpt>
      <trkpt lat="48.58355" lon="1.92028">
        <ele>154</ele>
        <time>2010-05-15T13:12:45Z</time>
      </trkpt>
      <trkpt lat="48.58356" lon="1.9203">
        <ele>154</ele>
        <time>2010-05-15T13:12:46Z</time>
      </trkpt>
      <trkpt lat="48.58357" lon="1.92032">
        <ele>153</ele>
        <time>2010-05-15T13:12:47Z</time>
      </trkpt>
      <trkpt lat="48.58358" lon="1.92035">
        <ele>153</ele>
        <time>2010-05-15T13:12:48Z</time>
      </trkpt>
      <trkpt lat="48.58359" lon="1.92037">
        <ele>152</ele>
        <time>2010-05-15T13:12:49Z</time>
      </trkpt>
      <trkpt lat="48.58362" lon="1.92039">
        <ele>152</ele>
        <time>2010-05-15T13:12:50Z</time>
      </trkpt>
      <trkpt lat="48.58364" lon="1.92041">
        <ele>152</ele>
        <time>2010-05-15T13:12:51Z</time>
      </trkpt>
      <trkpt lat="48.58365" lon="1.92042">
        <ele>152</ele>
        <time>2010-05-15T13:12:52Z</time>
      </trkpt>
      <trkpt lat="48.58368" lon="1.92044">
        <ele>152</ele>
        <time>2010-05-15T13:12:53Z</time>
      </trkpt>
      <trkpt lat="48.58371" lon="1.92045">
        <ele>152</ele>
        <time>2010-05-15T13:12:54Z</time>
      </trkpt>
      <trkpt lat="48.58374" lon="1.92048">
        <ele>152</ele>
        <time>2010-05-15T13:12:55Z</time>
      </trkpt>
      <trkpt lat="48.58378" lon="1.92051">
        <ele>152</ele>
        <time>2010-05-15T13:12:56Z</time>
      </trkpt>
      <trkpt lat="48.58387" lon="1.92063">
        <ele>152</ele>
        <time>2010-05-15T13:12:59Z</time>
      </trkpt>
      <trkpt lat="48.58395" lon="1.92068">
        <ele>152</ele>
        <time>2010-05-15T13:13:00Z</time>
      </trkpt>
      <trkpt lat="48.58401" lon="1.92073">
        <ele>152</ele>
        <time>2010-05-15T13:13:01Z</time>
      </trkpt>
      <trkpt lat="48.58407" lon="1.92075">
        <ele>152</ele>
        <time>2010-05-15T13:13:02Z</time>
      </trkpt>
      <trkpt lat="48.58412" lon="1.92078">
        <ele>152</ele>
        <time>2010-05-15T13:13:03Z</time>
      </trkpt>
      <trkpt lat="48.58415" lon="1.92082">
        <ele>152</ele>
        <time>2010-05-15T13:13:04Z</time>
      </trkpt>
      <trkpt lat="48.58417" lon="1.92085">
        <ele>152</ele>
        <time>2010-05-15T13:13:05Z</time>
      </trkpt>
      <trkpt lat="48.58419" lon="1.92088">
        <ele>152</ele>
        <time>2010-05-15T13:13:06Z</time>
      </trkpt>
      <trkpt lat="48.58421" lon="1.92091">
        <ele>152</ele>
        <time>2010-05-15T13:13:07Z</time>
      </trkpt>
      <trkpt lat="48.58425" lon="1.92094">
        <ele>152</ele>
        <time>2010-05-15T13:13:08Z</time>
      </trkpt>
      <trkpt lat="48.5843" lon="1.92097">
        <ele>152</ele>
        <time>2010-05-15T13:13:09Z</time>
      </trkpt>
      <trkpt lat="48.58433" lon="1.921">
        <ele>152</ele>
        <time>2010-05-15T13:13:10Z</time>
      </trkpt>
      <trkpt lat="48.58438" lon="1.92103">
        <ele>152</ele>
        <time>2010-05-15T13:13:11Z</time>
      </trkpt>
      <trkpt lat="48.58441" lon="1.92104">
        <ele>152</ele>
        <time>2010-05-15T13:13:12Z</time>
      </trkpt>
      <trkpt lat="48.58445" lon="1.92104">
        <ele>152</ele>
        <time>2010-05-15T13:13:13Z</time>
      </trkpt>
      <trkpt lat="48.58448" lon="1.92105">
        <ele>152</ele>
        <time>2010-05-15T13:13:14Z</time>
      </trkpt>
      <trkpt lat="48.58451" lon="1.92108">
        <ele>152</ele>
        <time>2010-05-15T13:13:15Z</time>
      </trkpt>
      <trkpt lat="48.58453" lon="1.92111">
        <ele>152</ele>
        <time>2010-05-15T13:13:16Z</time>
      </trkpt>
      <trkpt lat="48.58456" lon="1.92114">
        <ele>152</ele>
        <time>2010-05-15T13:13:17Z</time>
      </trkpt>
      <trkpt lat="48.58458" lon="1.92118">
        <ele>152</ele>
        <time>2010-05-15T13:13:18Z</time>
      </trkpt>
      <trkpt lat="48.58462" lon="1.92121">
        <ele>152</ele>
        <time>2010-05-15T13:13:19Z</time>
      </trkpt>
      <trkpt lat="48.58464" lon="1.92124">
        <ele>152</ele>
        <time>2010-05-15T13:13:20Z</time>
      </trkpt>
      <trkpt lat="48.58467" lon="1.92126">
        <ele>151</ele>
        <time>2010-05-15T13:13:21Z</time>
      </trkpt>
      <trkpt lat="48.58469" lon="1.9213">
        <ele>150</ele>
        <time>2010-05-15T13:13:22Z</time>
      </trkpt>
      <trkpt lat="48.58473" lon="1.92134">
        <ele>150</ele>
        <time>2010-05-15T13:13:23Z</time>
      </trkpt>
      <trkpt lat="48.58476" lon="1.92138">
        <ele>150</ele>
        <time>2010-05-15T13:13:24Z</time>
      </trkpt>
      <trkpt lat="48.58479" lon="1.92142">
        <ele>149</ele>
        <time>2010-05-15T13:13:25Z</time>
      </trkpt>
      <trkpt lat="48.58482" lon="1.92145">
        <ele>149</ele>
        <time>2010-05-15T13:13:26Z</time>
      </trkpt>
      <trkpt lat="48.58486" lon="1.92148">
        <ele>148</ele>
        <time>2010-05-15T13:13:27Z</time>
      </trkpt>
      <trkpt lat="48.5849" lon="1.92152">
        <ele>148</ele>
        <time>2010-05-15T13:13:28Z</time>
      </trkpt>
      <trkpt lat="48.58498" lon="1.92162">
        <ele>147</ele>
        <time>2010-05-15T13:13:31Z</time>
      </trkpt>
      <trkpt lat="48.58501" lon="1.92167">
        <ele>147</ele>
        <time>2010-05-15T13:13:32Z</time>
      </trkpt>
      <trkpt lat="48.58505" lon="1.92171">
        <ele>146</ele>
        <time>2010-05-15T13:13:33Z</time>
      </trkpt>
      <trkpt lat="48.58509" lon="1.92174">
        <ele>146</ele>
        <time>2010-05-15T13:13:34Z</time>
      </trkpt>
      <trkpt lat="48.58511" lon="1.92178">
        <ele>145</ele>
        <time>2010-05-15T13:13:35Z</time>
      </trkpt>
      <trkpt lat="48.58516" lon="1.92182">
        <ele>145</ele>
        <time>2010-05-15T13:13:36Z</time>
      </trkpt>
      <trkpt lat="48.58518" lon="1.92185">
        <ele>145</ele>
        <time>2010-05-15T13:13:37Z</time>
      </trkpt>
      <trkpt lat="48.58528" lon="1.92189">
        <ele>145</ele>
        <time>2010-05-15T13:13:40Z</time>
      </trkpt>
      <trkpt lat="48.58533" lon="1.92195">
        <ele>145</ele>
        <time>2010-05-15T13:13:41Z</time>
      </trkpt>
      <trkpt lat="48.58536" lon="1.922">
        <ele>145</ele>
        <time>2010-05-15T13:13:42Z</time>
      </trkpt>
      <trkpt lat="48.58541" lon="1.92206">
        <ele>145</ele>
        <time>2010-05-15T13:13:43Z</time>
      </trkpt>
      <trkpt lat="48.58545" lon="1.92212">
        <ele>145</ele>
        <time>2010-05-15T13:13:44Z</time>
      </trkpt>
      <trkpt lat="48.58552" lon="1.92216">
        <ele>145</ele>
        <time>2010-05-15T13:13:45Z</time>
      </trkpt>
      <trkpt lat="48.58557" lon="1.92219">
        <ele>146</ele>
        <time>2010-05-15T13:13:46Z</time>
      </trkpt>
      <trkpt lat="48.58562" lon="1.92223">
        <ele>146</ele>
        <time>2010-05-15T13:13:47Z</time>
      </trkpt>
      <trkpt lat="48.58566" lon="1.92226">
        <ele>146</ele>
        <time>2010-05-15T13:13:48Z</time>
      </trkpt>
      <trkpt lat="48.5857" lon="1.92229">
        <ele>146</ele>
        <time>2010-05-15T13:13:49Z</time>
      </trkpt>
      <trkpt lat="48.58573" lon="1.92232">
        <ele>146</ele>
        <time>2010-05-15T13:13:50Z</time>
      </trkpt>
      <trkpt lat="48.58576" lon="1.92236">
        <ele>146</ele>
        <time>2010-05-15T13:13:51Z</time>
      </trkpt>
      <trkpt lat="48.5858" lon="1.9224">
        <ele>147</ele>
        <time>2010-05-15T13:13:52Z</time>
      </trkpt>
      <trkpt lat="48.58584" lon="1.92244">
        <ele>147</ele>
        <time>2010-05-15T13:13:53Z</time>
      </trkpt>
      <trkpt lat="48.58587" lon="1.92246">
        <ele>148</ele>
        <time>2010-05-15T13:13:54Z</time>
      </trkpt>
      <trkpt lat="48.58589" lon="1.92248">
        <ele>148</ele>
        <time>2010-05-15T13:13:55Z</time>
      </trkpt>
      <trkpt lat="48.58591" lon="1.92249">
        <ele>149</ele>
        <time>2010-05-15T13:13:56Z</time>
      </trkpt>
      <trkpt lat="48.58593" lon="1.92253">
        <ele>149</ele>
        <time>2010-05-15T13:13:57Z</time>
      </trkpt>
      <trkpt lat="48.58596" lon="1.92257">
        <ele>149</ele>
        <time>2010-05-15T13:13:58Z</time>
      </trkpt>
      <trkpt lat="48.58598" lon="1.9226">
        <ele>149</ele>
        <time>2010-05-15T13:13:59Z</time>
      </trkpt>
      <trkpt lat="48.586" lon="1.92262">
        <ele>149</ele>
        <time>2010-05-15T13:14:00Z</time>
      </trkpt>
      <trkpt lat="48.58601" lon="1.92264">
        <ele>149</ele>
        <time>2010-05-15T13:14:01Z</time>
      </trkpt>
      <trkpt lat="48.58602" lon="1.92266">
        <ele>149</ele>
        <time>2010-05-15T13:14:02Z</time>
      </trkpt>
      <trkpt lat="48.58602" lon="1.92268">
        <ele>149</ele>
        <time>2010-05-15T13:14:04Z</time>
      </trkpt>
      <trkpt lat="48.58601" lon="1.9227">
        <ele>149</ele>
        <time>2010-05-15T13:14:05Z</time>
      </trkpt>
      <trkpt lat="48.58601" lon="1.92272">
        <ele>149</ele>
        <time>2010-05-15T13:14:06Z</time>
      </trkpt>
      <trkpt lat="48.58601" lon="1.92274">
        <ele>149</ele>
        <time>2010-05-15T13:14:08Z</time>
      </trkpt>
      <trkpt lat="48.586" lon="1.92275">
        <ele>149</ele>
        <time>2010-05-15T13:14:10Z</time>
      </trkpt>
      <trkpt lat="48.58599" lon="1.92282">
        <ele>149</ele>
        <time>2010-05-15T13:14:15Z</time>
      </trkpt>
      <trkpt lat="48.58598" lon="1.92286">
        <ele>149</ele>
        <time>2010-05-15T13:14:16Z</time>
      </trkpt>
      <trkpt lat="48.58598" lon="1.92289">
        <ele>149</ele>
        <time>2010-05-15T13:14:18Z</time>
      </trkpt>
      <trkpt lat="48.58597" lon="1.9229">
        <ele>149</ele>
        <time>2010-05-15T13:14:20Z</time>
      </trkpt>
      <trkpt lat="48.58596" lon="1.92291">
        <ele>149</ele>
        <time>2010-05-15T13:14:21Z</time>
      </trkpt>
      <trkpt lat="48.58594" lon="1.92292">
        <ele>149</ele>
        <time>2010-05-15T13:14:22Z</time>
      </trkpt>
      <trkpt lat="48.58594" lon="1.92295">
        <ele>149</ele>
        <time>2010-05-15T13:14:23Z</time>
      </trkpt>
      <trkpt lat="48.58593" lon="1.92297">
        <ele>149</ele>
        <time>2010-05-15T13:14:24Z</time>
      </trkpt>
      <trkpt lat="48.58592" lon="1.92299">
        <ele>149</ele>
        <time>2010-05-15T13:14:26Z</time>
      </trkpt>
      <trkpt lat="48.5859" lon="1.92301">
        <ele>149</ele>
        <time>2010-05-15T13:14:27Z</time>
      </trkpt>
      <trkpt lat="48.58589" lon="1.92303">
        <ele>149</ele>
        <time>2010-05-15T13:14:29Z</time>
      </trkpt>
      <trkpt lat="48.58589" lon="1.92305">
        <ele>149</ele>
        <time>2010-05-15T13:14:30Z</time>
      </trkpt>
      <trkpt lat="48.58588" lon="1.92307">
        <ele>149</ele>
        <time>2010-05-15T13:14:31Z</time>
      </trkpt>
      <trkpt lat="48.58587" lon="1.92308">
        <ele>149</ele>
        <time>2010-05-15T13:14:32Z</time>
      </trkpt>
      <trkpt lat="48.58586" lon="1.9231">
        <ele>149</ele>
        <time>2010-05-15T13:14:33Z</time>
      </trkpt>
      <trkpt lat="48.58585" lon="1.92312">
        <ele>149</ele>
        <time>2010-05-15T13:14:34Z</time>
      </trkpt>
      <trkpt lat="48.58583" lon="1.92314">
        <ele>149</ele>
        <time>2010-05-15T13:14:35Z</time>
      </trkpt>
      <trkpt lat="48.58583" lon="1.92316">
        <ele>149</ele>
        <time>2010-05-15T13:14:36Z</time>
      </trkpt>
      <trkpt lat="48.58581" lon="1.92318">
        <ele>149</ele>
        <time>2010-05-15T13:14:37Z</time>
      </trkpt>
      <trkpt lat="48.5858" lon="1.92321">
        <ele>149</ele>
        <time>2010-05-15T13:14:38Z</time>
      </trkpt>
      <trkpt lat="48.58579" lon="1.92324">
        <ele>149</ele>
        <time>2010-05-15T13:14:39Z</time>
      </trkpt>
      <trkpt lat="48.58577" lon="1.92327">
        <ele>150</ele>
        <time>2010-05-15T13:14:40Z</time>
      </trkpt>
      <trkpt lat="48.58574" lon="1.9233">
        <ele>150</ele>
        <time>2010-05-15T13:14:41Z</time>
      </trkpt>
      <trkpt lat="48.58572" lon="1.92334">
        <ele>150</ele>
        <time>2010-05-15T13:14:42Z</time>
      </trkpt>
      <trkpt lat="48.58571" lon="1.92338">
        <ele>150</ele>
        <time>2010-05-15T13:14:43Z</time>
      </trkpt>
      <trkpt lat="48.5857" lon="1.92343">
        <ele>150</ele>
        <time>2010-05-15T13:14:44Z</time>
      </trkpt>
      <trkpt lat="48.58569" lon="1.92348">
        <ele>150</ele>
        <time>2010-05-15T13:14:45Z</time>
      </trkpt>
      <trkpt lat="48.58567" lon="1.92353">
        <ele>150</ele>
        <time>2010-05-15T13:14:46Z</time>
      </trkpt>
      <trkpt lat="48.58564" lon="1.92361">
        <ele>150</ele>
        <time>2010-05-15T13:14:47Z</time>
      </trkpt>
      <trkpt lat="48.58563" lon="1.9237">
        <ele>150</ele>
        <time>2010-05-15T13:14:48Z</time>
      </trkpt>
      <trkpt lat="48.5856" lon="1.92376">
        <ele>150</ele>
        <time>2010-05-15T13:14:49Z</time>
      </trkpt>
      <trkpt lat="48.58556" lon="1.92386">
        <ele>150</ele>
        <time>2010-05-15T13:14:51Z</time>
      </trkpt>
      <trkpt lat="48.58555" lon="1.92392">
        <ele>150</ele>
        <time>2010-05-15T13:14:52Z</time>
      </trkpt>
      <trkpt lat="48.58553" lon="1.92401">
        <ele>150</ele>
        <time>2010-05-15T13:14:54Z</time>
      </trkpt>
      <trkpt lat="48.58549" lon="1.92414">
        <ele>150</ele>
        <time>2010-05-15T13:14:57Z</time>
      </trkpt>
      <trkpt lat="48.58544" lon="1.92423">
        <ele>150</ele>
        <time>2010-05-15T13:14:58Z</time>
      </trkpt>
      <trkpt lat="48.5854" lon="1.92428">
        <ele>150</ele>
        <time>2010-05-15T13:14:59Z</time>
      </trkpt>
      <trkpt lat="48.58537" lon="1.92431">
        <ele>150</ele>
        <time>2010-05-15T13:15:00Z</time>
      </trkpt>
      <trkpt lat="48.58534" lon="1.92436">
        <ele>150</ele>
        <time>2010-05-15T13:15:02Z</time>
      </trkpt>
      <trkpt lat="48.58529" lon="1.92441">
        <ele>150</ele>
        <time>2010-05-15T13:15:03Z</time>
      </trkpt>
      <trkpt lat="48.58526" lon="1.92448">
        <ele>150</ele>
        <time>2010-05-15T13:15:04Z</time>
      </trkpt>
      <trkpt lat="48.58523" lon="1.92454">
        <ele>150</ele>
        <time>2010-05-15T13:15:05Z</time>
      </trkpt>
      <trkpt lat="48.58518" lon="1.92457">
        <ele>150</ele>
        <time>2010-05-15T13:15:06Z</time>
      </trkpt>
      <trkpt lat="48.58513" lon="1.9246">
        <ele>150</ele>
        <time>2010-05-15T13:15:07Z</time>
      </trkpt>
      <trkpt lat="48.58509" lon="1.92461">
        <ele>150</ele>
        <time>2010-05-15T13:15:08Z</time>
      </trkpt>
      <trkpt lat="48.58505" lon="1.92464">
        <ele>150</ele>
        <time>2010-05-15T13:15:09Z</time>
      </trkpt>
      <trkpt lat="48.58501" lon="1.92467">
        <ele>150</ele>
        <time>2010-05-15T13:15:10Z</time>
      </trkpt>
      <trkpt lat="48.58496" lon="1.92471">
        <ele>149</ele>
        <time>2010-05-15T13:15:11Z</time>
      </trkpt>
      <trkpt lat="48.58492" lon="1.92476">
        <ele>149</ele>
        <time>2010-05-15T13:15:12Z</time>
      </trkpt>
      <trkpt lat="48.5847" lon="1.92496">
        <ele>148</ele>
        <time>2010-05-15T13:15:17Z</time>
      </trkpt>
      <trkpt lat="48.58465" lon="1.92504">
        <ele>148</ele>
        <time>2010-05-15T13:15:18Z</time>
      </trkpt>
      <trkpt lat="48.58461" lon="1.92512">
        <ele>147</ele>
        <time>2010-05-15T13:15:19Z</time>
      </trkpt>
      <trkpt lat="48.58456" lon="1.92513">
        <ele>147</ele>
        <time>2010-05-15T13:15:20Z</time>
      </trkpt>
      <trkpt lat="48.58452" lon="1.92517">
        <ele>147</ele>
        <time>2010-05-15T13:15:21Z</time>
      </trkpt>
      <trkpt lat="48.58446" lon="1.92518">
        <ele>147</ele>
        <time>2010-05-15T13:15:22Z</time>
      </trkpt>
      <trkpt lat="48.58442" lon="1.92518">
        <ele>148</ele>
        <time>2010-05-15T13:15:23Z</time>
      </trkpt>
      <trkpt lat="48.58438" lon="1.92519">
        <ele>149</ele>
        <time>2010-05-15T13:15:24Z</time>
      </trkpt>
      <trkpt lat="48.58434" lon="1.92523">
        <ele>150</ele>
        <time>2010-05-15T13:15:25Z</time>
      </trkpt>
      <trkpt lat="48.5843" lon="1.92526">
        <ele>151</ele>
        <time>2010-05-15T13:15:26Z</time>
      </trkpt>
      <trkpt lat="48.58427" lon="1.9253">
        <ele>152</ele>
        <time>2010-05-15T13:15:27Z</time>
      </trkpt>
      <trkpt lat="48.58423" lon="1.92533">
        <ele>152</ele>
        <time>2010-05-15T13:15:28Z</time>
      </trkpt>
      <trkpt lat="48.58419" lon="1.92535">
        <ele>152</ele>
        <time>2010-05-15T13:15:29Z</time>
      </trkpt>
      <trkpt lat="48.58416" lon="1.92539">
        <ele>152</ele>
        <time>2010-05-15T13:15:30Z</time>
      </trkpt>
      <trkpt lat="48.58413" lon="1.92544">
        <ele>152</ele>
        <time>2010-05-15T13:15:31Z</time>
      </trkpt>
      <trkpt lat="48.58411" lon="1.92549">
        <ele>152</ele>
        <time>2010-05-15T13:15:32Z</time>
      </trkpt>
      <trkpt lat="48.58408" lon="1.92555">
        <ele>152</ele>
        <time>2010-05-15T13:15:33Z</time>
      </trkpt>
      <trkpt lat="48.58406" lon="1.92559">
        <ele>152</ele>
        <time>2010-05-15T13:15:34Z</time>
      </trkpt>
      <trkpt lat="48.58404" lon="1.92564">
        <ele>152</ele>
        <time>2010-05-15T13:15:35Z</time>
      </trkpt>
      <trkpt lat="48.58398" lon="1.92576">
        <ele>152</ele>
        <time>2010-05-15T13:15:38Z</time>
      </trkpt>
      <trkpt lat="48.58396" lon="1.92585">
        <ele>152</ele>
        <time>2010-05-15T13:15:39Z</time>
      </trkpt>
      <trkpt lat="48.58394" lon="1.92592">
        <ele>152</ele>
        <time>2010-05-15T13:15:40Z</time>
      </trkpt>
      <trkpt lat="48.58393" lon="1.926">
        <ele>151</ele>
        <time>2010-05-15T13:15:41Z</time>
      </trkpt>
      <trkpt lat="48.5839" lon="1.92606">
        <ele>151</ele>
        <time>2010-05-15T13:15:42Z</time>
      </trkpt>
      <trkpt lat="48.58387" lon="1.92611">
        <ele>151</ele>
        <time>2010-05-15T13:15:43Z</time>
      </trkpt>
      <trkpt lat="48.58375" lon="1.92629">
        <ele>151</ele>
        <time>2010-05-15T13:15:48Z</time>
      </trkpt>
      <trkpt lat="48.58368" lon="1.92634">
        <ele>151</ele>
        <time>2010-05-15T13:15:49Z</time>
      </trkpt>
      <trkpt lat="48.58363" lon="1.92638">
        <ele>151</ele>
        <time>2010-05-15T13:15:50Z</time>
      </trkpt>
      <trkpt lat="48.58359" lon="1.92642">
        <ele>151</ele>
        <time>2010-05-15T13:15:51Z</time>
      </trkpt>
      <trkpt lat="48.58356" lon="1.92645">
        <ele>150</ele>
        <time>2010-05-15T13:15:52Z</time>
      </trkpt>
      <trkpt lat="48.58353" lon="1.92645">
        <ele>149</ele>
        <time>2010-05-15T13:15:53Z</time>
      </trkpt>
      <trkpt lat="48.58349" lon="1.92648">
        <ele>148</ele>
        <time>2010-05-15T13:15:54Z</time>
      </trkpt>
      <trkpt lat="48.58346" lon="1.92649">
        <ele>147</ele>
        <time>2010-05-15T13:15:55Z</time>
      </trkpt>
      <trkpt lat="48.58342" lon="1.9265">
        <ele>146</ele>
        <time>2010-05-15T13:15:56Z</time>
      </trkpt>
      <trkpt lat="48.58338" lon="1.92653">
        <ele>145</ele>
        <time>2010-05-15T13:15:57Z</time>
      </trkpt>
      <trkpt lat="48.58335" lon="1.92654">
        <ele>144</ele>
        <time>2010-05-15T13:15:58Z</time>
      </trkpt>
      <trkpt lat="48.58331" lon="1.92657">
        <ele>143</ele>
        <time>2010-05-15T13:15:59Z</time>
      </trkpt>
      <trkpt lat="48.58327" lon="1.92659">
        <ele>143</ele>
        <time>2010-05-15T13:16:00Z</time>
      </trkpt>
      <trkpt lat="48.58323" lon="1.92661">
        <ele>143</ele>
        <time>2010-05-15T13:16:01Z</time>
      </trkpt>
      <trkpt lat="48.58315" lon="1.9267">
        <ele>143</ele>
        <time>2010-05-15T13:16:04Z</time>
      </trkpt>
      <trkpt lat="48.58312" lon="1.92673">
        <ele>143</ele>
        <time>2010-05-15T13:16:05Z</time>
      </trkpt>
      <trkpt lat="48.58305" lon="1.92677">
        <ele>143</ele>
        <time>2010-05-15T13:16:08Z</time>
      </trkpt>
      <trkpt lat="48.58299" lon="1.92681">
        <ele>143</ele>
        <time>2010-05-15T13:16:09Z</time>
      </trkpt>
      <trkpt lat="48.58297" lon="1.92686">
        <ele>143</ele>
        <time>2010-05-15T13:16:10Z</time>
      </trkpt>
      <trkpt lat="48.58296" lon="1.92693">
        <ele>143</ele>
        <time>2010-05-15T13:16:11Z</time>
      </trkpt>
      <trkpt lat="48.58297" lon="1.92698">
        <ele>143</ele>
        <time>2010-05-15T13:16:12Z</time>
      </trkpt>
      <trkpt lat="48.58296" lon="1.92702">
        <ele>143</ele>
        <time>2010-05-15T13:16:13Z</time>
      </trkpt>
      <trkpt lat="48.58295" lon="1.92705">
        <ele>143</ele>
        <time>2010-05-15T13:16:14Z</time>
      </trkpt>
      <trkpt lat="48.58294" lon="1.92708">
        <ele>143</ele>
        <time>2010-05-15T13:16:15Z</time>
      </trkpt>
      <trkpt lat="48.58294" lon="1.92709">
        <ele>143</ele>
        <time>2010-05-15T13:16:16Z</time>
      </trkpt>
      <trkpt lat="48.58293" lon="1.92712">
        <ele>143</ele>
        <time>2010-05-15T13:16:17Z</time>
      </trkpt>
      <trkpt lat="48.58289" lon="1.92716">
        <ele>143</ele>
        <time>2010-05-15T13:16:18Z</time>
      </trkpt>
      <trkpt lat="48.58287" lon="1.9272">
        <ele>144</ele>
        <time>2010-05-15T13:16:19Z</time>
      </trkpt>
      <trkpt lat="48.58287" lon="1.92723">
        <ele>144</ele>
        <time>2010-05-15T13:16:20Z</time>
      </trkpt>
      <trkpt lat="48.58286" lon="1.92725">
        <ele>144</ele>
        <time>2010-05-15T13:16:21Z</time>
      </trkpt>
      <trkpt lat="48.58285" lon="1.92728">
        <ele>144</ele>
        <time>2010-05-15T13:16:22Z</time>
      </trkpt>
      <trkpt lat="48.58285" lon="1.9273">
        <ele>144</ele>
        <time>2010-05-15T13:16:23Z</time>
      </trkpt>
      <trkpt lat="48.58283" lon="1.92732">
        <ele>145</ele>
        <time>2010-05-15T13:16:24Z</time>
      </trkpt>
      <trkpt lat="48.58282" lon="1.92734">
        <ele>145</ele>
        <time>2010-05-15T13:16:25Z</time>
      </trkpt>
      <trkpt lat="48.5828" lon="1.92734">
        <ele>146</ele>
        <time>2010-05-15T13:16:26Z</time>
      </trkpt>
      <trkpt lat="48.58278" lon="1.92734">
        <ele>146</ele>
        <time>2010-05-15T13:16:27Z</time>
      </trkpt>
      <trkpt lat="48.58277" lon="1.92735">
        <ele>147</ele>
        <time>2010-05-15T13:16:28Z</time>
      </trkpt>
      <trkpt lat="48.58276" lon="1.92739">
        <ele>148</ele>
        <time>2010-05-15T13:16:29Z</time>
      </trkpt>
      <trkpt lat="48.58276" lon="1.92742">
        <ele>148</ele>
        <time>2010-05-15T13:16:30Z</time>
      </trkpt>
      <trkpt lat="48.58275" lon="1.92746">
        <ele>148</ele>
        <time>2010-05-15T13:16:31Z</time>
      </trkpt>
      <trkpt lat="48.58274" lon="1.92749">
        <ele>148</ele>
        <time>2010-05-15T13:16:32Z</time>
      </trkpt>
      <trkpt lat="48.58273" lon="1.92753">
        <ele>148</ele>
        <time>2010-05-15T13:16:33Z</time>
      </trkpt>
      <trkpt lat="48.58271" lon="1.92757">
        <ele>148</ele>
        <time>2010-05-15T13:16:34Z</time>
      </trkpt>
      <trkpt lat="48.58269" lon="1.9276">
        <ele>148</ele>
        <time>2010-05-15T13:16:35Z</time>
      </trkpt>
      <trkpt lat="48.58266" lon="1.92765">
        <ele>147</ele>
        <time>2010-05-15T13:16:36Z</time>
      </trkpt>
      <trkpt lat="48.5826" lon="1.92778">
        <ele>146</ele>
        <time>2010-05-15T13:16:39Z</time>
      </trkpt>
      <trkpt lat="48.58256" lon="1.92789">
        <ele>145</ele>
        <time>2010-05-15T13:16:40Z</time>
      </trkpt>
      <trkpt lat="48.58251" lon="1.92803">
        <ele>144</ele>
        <time>2010-05-15T13:16:43Z</time>
      </trkpt>
      <trkpt lat="48.58248" lon="1.92813">
        <ele>143</ele>
        <time>2010-05-15T13:16:44Z</time>
      </trkpt>
      <trkpt lat="48.58244" lon="1.92819">
        <ele>143</ele>
        <time>2010-05-15T13:16:46Z</time>
      </trkpt>
      <trkpt lat="48.58241" lon="1.92823">
        <ele>143</ele>
        <time>2010-05-15T13:16:47Z</time>
      </trkpt>
      <trkpt lat="48.58238" lon="1.92828">
        <ele>143</ele>
        <time>2010-05-15T13:16:48Z</time>
      </trkpt>
      <trkpt lat="48.58233" lon="1.92837">
        <ele>143</ele>
        <time>2010-05-15T13:16:50Z</time>
      </trkpt>
      <trkpt lat="48.58231" lon="1.92844">
        <ele>143</ele>
        <time>2010-05-15T13:16:51Z</time>
      </trkpt>
      <trkpt lat="48.58228" lon="1.92848">
        <ele>143</ele>
        <time>2010-05-15T13:16:52Z</time>
      </trkpt>
      <trkpt lat="48.58224" lon="1.92851">
        <ele>142</ele>
        <time>2010-05-15T13:16:53Z</time>
      </trkpt>
      <trkpt lat="48.58221" lon="1.92854">
        <ele>142</ele>
        <time>2010-05-15T13:16:54Z</time>
      </trkpt>
      <trkpt lat="48.58218" lon="1.92856">
        <ele>142</ele>
        <time>2010-05-15T13:16:55Z</time>
      </trkpt>
      <trkpt lat="48.58217" lon="1.92858">
        <ele>142</ele>
        <time>2010-05-15T13:16:56Z</time>
      </trkpt>
      <trkpt lat="48.58215" lon="1.92859">
        <ele>142</ele>
        <time>2010-05-15T13:16:57Z</time>
      </trkpt>
      <trkpt lat="48.58214" lon="1.92861">
        <ele>142</ele>
        <time>2010-05-15T13:16:58Z</time>
      </trkpt>
      <trkpt lat="48.58214" lon="1.92863">
        <ele>142</ele>
        <time>2010-05-15T13:16:59Z</time>
      </trkpt>
      <trkpt lat="48.58212" lon="1.92866">
        <ele>142</ele>
        <time>2010-05-15T13:17:00Z</time>
      </trkpt>
      <trkpt lat="48.58211" lon="1.92868">
        <ele>142</ele>
        <time>2010-05-15T13:17:01Z</time>
      </trkpt>
      <trkpt lat="48.5821" lon="1.92869">
        <ele>144</ele>
        <time>2010-05-15T13:17:03Z</time>
      </trkpt>
      <trkpt lat="48.58208" lon="1.9287">
        <ele>147</ele>
        <time>2010-05-15T13:17:06Z</time>
      </trkpt>
      <trkpt lat="48.58206" lon="1.92872">
        <ele>149</ele>
        <time>2010-05-15T13:17:08Z</time>
      </trkpt>
      <trkpt lat="48.58205" lon="1.92872">
        <ele>150</ele>
        <time>2010-05-15T13:17:09Z</time>
      </trkpt>
      <trkpt lat="48.58204" lon="1.92873">
        <ele>150</ele>
        <time>2010-05-15T13:17:10Z</time>
      </trkpt>
      <trkpt lat="48.58203" lon="1.92875">
        <ele>151</ele>
        <time>2010-05-15T13:17:11Z</time>
      </trkpt>
      <trkpt lat="48.58202" lon="1.92877">
        <ele>151</ele>
        <time>2010-05-15T13:17:12Z</time>
      </trkpt>
      <trkpt lat="48.58201" lon="1.9288">
        <ele>151</ele>
        <time>2010-05-15T13:17:13Z</time>
      </trkpt>
      <trkpt lat="48.58199" lon="1.92883">
        <ele>151</ele>
        <time>2010-05-15T13:17:15Z</time>
      </trkpt>
      <trkpt lat="48.58197" lon="1.92885">
        <ele>151</ele>
        <time>2010-05-15T13:17:16Z</time>
      </trkpt>
      <trkpt lat="48.58196" lon="1.92887">
        <ele>151</ele>
        <time>2010-05-15T13:17:17Z</time>
      </trkpt>
      <trkpt lat="48.58193" lon="1.92888">
        <ele>151</ele>
        <time>2010-05-15T13:17:18Z</time>
      </trkpt>
      <trkpt lat="48.58191" lon="1.92889">
        <ele>151</ele>
        <time>2010-05-15T13:17:19Z</time>
      </trkpt>
      <trkpt lat="48.58188" lon="1.9289">
        <ele>151</ele>
        <time>2010-05-15T13:17:20Z</time>
      </trkpt>
      <trkpt lat="48.58186" lon="1.92891">
        <ele>152</ele>
        <time>2010-05-15T13:17:21Z</time>
      </trkpt>
      <trkpt lat="48.58182" lon="1.92894">
        <ele>152</ele>
        <time>2010-05-15T13:17:22Z</time>
      </trkpt>
      <trkpt lat="48.58177" lon="1.92897">
        <ele>152</ele>
        <time>2010-05-15T13:17:23Z</time>
      </trkpt>
      <trkpt lat="48.58172" lon="1.92899">
        <ele>152</ele>
        <time>2010-05-15T13:17:24Z</time>
      </trkpt>
      <trkpt lat="48.58165" lon="1.92899">
        <ele>152</ele>
        <time>2010-05-15T13:17:25Z</time>
      </trkpt>
      <trkpt lat="48.58159" lon="1.92901">
        <ele>152</ele>
        <time>2010-05-15T13:17:26Z</time>
      </trkpt>
      <trkpt lat="48.58154" lon="1.92903">
        <ele>152</ele>
        <time>2010-05-15T13:17:27Z</time>
      </trkpt>
      <trkpt lat="48.58148" lon="1.92907">
        <ele>152</ele>
        <time>2010-05-15T13:17:28Z</time>
      </trkpt>
      <trkpt lat="48.58143" lon="1.9291">
        <ele>152</ele>
        <time>2010-05-15T13:17:29Z</time>
      </trkpt>
      <trkpt lat="48.58138" lon="1.92914">
        <ele>152</ele>
        <time>2010-05-15T13:17:30Z</time>
      </trkpt>
      <trkpt lat="48.58132" lon="1.92918">
        <ele>151</ele>
        <time>2010-05-15T13:17:31Z</time>
      </trkpt>
      <trkpt lat="48.58127" lon="1.92921">
        <ele>150</ele>
        <time>2010-05-15T13:17:32Z</time>
      </trkpt>
      <trkpt lat="48.58122" lon="1.92923">
        <ele>149</ele>
        <time>2010-05-15T13:17:33Z</time>
      </trkpt>
      <trkpt lat="48.58117" lon="1.92925">
        <ele>148</ele>
        <time>2010-05-15T13:17:34Z</time>
      </trkpt>
      <trkpt lat="48.58112" lon="1.92925">
        <ele>147</ele>
        <time>2010-05-15T13:17:35Z</time>
      </trkpt>
      <trkpt lat="48.58106" lon="1.92925">
        <ele>147</ele>
        <time>2010-05-15T13:17:36Z</time>
      </trkpt>
      <trkpt lat="48.581" lon="1.92929">
        <ele>147</ele>
        <time>2010-05-15T13:17:37Z</time>
      </trkpt>
      <trkpt lat="48.58084" lon="1.9294">
        <ele>147</ele>
        <time>2010-05-15T13:17:40Z</time>
      </trkpt>
      <trkpt lat="48.58076" lon="1.92943">
        <ele>147</ele>
        <time>2010-05-15T13:17:41Z</time>
      </trkpt>
      <trkpt lat="48.5807" lon="1.92946">
        <ele>147</ele>
        <time>2010-05-15T13:17:42Z</time>
      </trkpt>
      <trkpt lat="48.58064" lon="1.92951">
        <ele>147</ele>
        <time>2010-05-15T13:17:43Z</time>
      </trkpt>
      <trkpt lat="48.58059" lon="1.92953">
        <ele>147</ele>
        <time>2010-05-15T13:17:44Z</time>
      </trkpt>
      <trkpt lat="48.58053" lon="1.92955">
        <ele>148</ele>
        <time>2010-05-15T13:17:45Z</time>
      </trkpt>
      <trkpt lat="48.58048" lon="1.92958">
        <ele>149</ele>
        <time>2010-05-15T13:17:46Z</time>
      </trkpt>
      <trkpt lat="48.58042" lon="1.92961">
        <ele>150</ele>
        <time>2010-05-15T13:17:47Z</time>
      </trkpt>
      <trkpt lat="48.58037" lon="1.92965">
        <ele>151</ele>
        <time>2010-05-15T13:17:48Z</time>
      </trkpt>
      <trkpt lat="48.58031" lon="1.92968">
        <ele>152</ele>
        <time>2010-05-15T13:17:49Z</time>
      </trkpt>
      <trkpt lat="48.58025" lon="1.92971">
        <ele>153</ele>
        <time>2010-05-15T13:17:50Z</time>
      </trkpt>
      <trkpt lat="48.58019" lon="1.92975">
        <ele>153</ele>
        <time>2010-05-15T13:17:51Z</time>
      </trkpt>
      <trkpt lat="48.58013" lon="1.92979">
        <ele>153</ele>
        <time>2010-05-15T13:17:52Z</time>
      </trkpt>
      <trkpt lat="48.58007" lon="1.92982">
        <ele>153</ele>
        <time>2010-05-15T13:17:53Z</time>
      </trkpt>
      <trkpt lat="48.58001" lon="1.92985">
        <ele>153</ele>
        <time>2010-05-15T13:17:54Z</time>
      </trkpt>
      <trkpt lat="48.57994" lon="1.92989">
        <ele>153</ele>
        <time>2010-05-15T13:17:55Z</time>
      </trkpt>
      <trkpt lat="48.57988" lon="1.92992">
        <ele>153</ele>
        <time>2010-05-15T13:17:56Z</time>
      </trkpt>
      <trkpt lat="48.57982" lon="1.92996">
        <ele>153</ele>
        <time>2010-05-15T13:17:57Z</time>
      </trkpt>
      <trkpt lat="48.57976" lon="1.93">
        <ele>153</ele>
        <time>2010-05-15T13:17:58Z</time>
      </trkpt>
      <trkpt lat="48.5797" lon="1.93004">
        <ele>153</ele>
        <time>2010-05-15T13:17:59Z</time>
      </trkpt>
      <trkpt lat="48.57964" lon="1.93008">
        <ele>153</ele>
        <time>2010-05-15T13:18:00Z</time>
      </trkpt>
      <trkpt lat="48.57958" lon="1.93012">
        <ele>153</ele>
        <time>2010-05-15T13:18:01Z</time>
      </trkpt>
      <trkpt lat="48.57953" lon="1.93015">
        <ele>153</ele>
        <time>2010-05-15T13:18:02Z</time>
      </trkpt>
      <trkpt lat="48.57947" lon="1.93019">
        <ele>153</ele>
        <time>2010-05-15T13:18:03Z</time>
      </trkpt>
      <trkpt lat="48.57942" lon="1.93022">
        <ele>153</ele>
        <time>2010-05-15T13:18:04Z</time>
      </trkpt>
      <trkpt lat="48.57936" lon="1.93025">
        <ele>153</ele>
        <time>2010-05-15T13:18:05Z</time>
      </trkpt>
      <trkpt lat="48.57931" lon="1.9303">
        <ele>153</ele>
        <time>2010-05-15T13:18:06Z</time>
      </trkpt>
      <trkpt lat="48.57925" lon="1.93034">
        <ele>153</ele>
        <time>2010-05-15T13:18:07Z</time>
      </trkpt>
      <trkpt lat="48.57919" lon="1.93039">
        <ele>153</ele>
        <time>2010-05-15T13:18:08Z</time>
      </trkpt>
      <trkpt lat="48.57913" lon="1.93044">
        <ele>153</ele>
        <time>2010-05-15T13:18:09Z</time>
      </trkpt>
      <trkpt lat="48.57908" lon="1.9305">
        <ele>153</ele>
        <time>2010-05-15T13:18:10Z</time>
      </trkpt>
      <trkpt lat="48.57903" lon="1.93054">
        <ele>153</ele>
        <time>2010-05-15T13:18:11Z</time>
      </trkpt>
      <trkpt lat="48.57897" lon="1.93059">
        <ele>153</ele>
        <time>2010-05-15T13:18:12Z</time>
      </trkpt>
      <trkpt lat="48.57892" lon="1.93064">
        <ele>153</ele>
        <time>2010-05-15T13:18:13Z</time>
      </trkpt>
      <trkpt lat="48.57887" lon="1.93069">
        <ele>153</ele>
        <time>2010-05-15T13:18:14Z</time>
      </trkpt>
      <trkpt lat="48.57881" lon="1.93073">
        <ele>153</ele>
        <time>2010-05-15T13:18:15Z</time>
      </trkpt>
      <trkpt lat="48.57876" lon="1.93078">
        <ele>153</ele>
        <time>2010-05-15T13:18:16Z</time>
      </trkpt>
      <trkpt lat="48.57872" lon="1.93082">
        <ele>153</ele>
        <time>2010-05-15T13:18:17Z</time>
      </trkpt>
      <trkpt lat="48.57867" lon="1.93086">
        <ele>153</ele>
        <time>2010-05-15T13:18:18Z</time>
      </trkpt>
      <trkpt lat="48.57863" lon="1.9309">
        <ele>153</ele>
        <time>2010-05-15T13:18:19Z</time>
      </trkpt>
      <trkpt lat="48.57859" lon="1.93094">
        <ele>153</ele>
        <time>2010-05-15T13:18:20Z</time>
      </trkpt>
      <trkpt lat="48.57855" lon="1.93099">
        <ele>153</ele>
        <time>2010-05-15T13:18:21Z</time>
      </trkpt>
      <trkpt lat="48.57852" lon="1.93102">
        <ele>153</ele>
        <time>2010-05-15T13:18:22Z</time>
      </trkpt>
      <trkpt lat="48.57849" lon="1.93105">
        <ele>153</ele>
        <time>2010-05-15T13:18:23Z</time>
      </trkpt>
      <trkpt lat="48.57846" lon="1.93108">
        <ele>153</ele>
        <time>2010-05-15T13:18:24Z</time>
      </trkpt>
      <trkpt lat="48.57843" lon="1.93112">
        <ele>153</ele>
        <time>2010-05-15T13:18:25Z</time>
      </trkpt>
      <trkpt lat="48.57841" lon="1.93118">
        <ele>153</ele>
        <time>2010-05-15T13:18:26Z</time>
      </trkpt>
      <trkpt lat="48.5784" lon="1.93126">
        <ele>153</ele>
        <time>2010-05-15T13:18:27Z</time>
      </trkpt>
      <trkpt lat="48.5784" lon="1.93136">
        <ele>153</ele>
        <time>2010-05-15T13:18:28Z</time>
      </trkpt>
      <trkpt lat="48.57841" lon="1.93147">
        <ele>153</ele>
        <time>2010-05-15T13:18:29Z</time>
      </trkpt>
      <trkpt lat="48.57842" lon="1.93158">
        <ele>153</ele>
        <time>2010-05-15T13:18:30Z</time>
      </trkpt>
      <trkpt lat="48.57843" lon="1.93168">
        <ele>153</ele>
        <time>2010-05-15T13:18:31Z</time>
      </trkpt>
      <trkpt lat="48.57844" lon="1.93178">
        <ele>153</ele>
        <time>2010-05-15T13:18:32Z</time>
      </trkpt>
      <trkpt lat="48.57845" lon="1.93188">
        <ele>153</ele>
        <time>2010-05-15T13:18:33Z</time>
      </trkpt>
      <trkpt lat="48.57845" lon="1.93198">
        <ele>153</ele>
        <time>2010-05-15T13:18:34Z</time>
      </trkpt>
      <trkpt lat="48.57846" lon="1.93207">
        <ele>153</ele>
        <time>2010-05-15T13:18:35Z</time>
      </trkpt>
      <trkpt lat="48.57847" lon="1.93215">
        <ele>153</ele>
        <time>2010-05-15T13:18:36Z</time>
      </trkpt>
      <trkpt lat="48.57847" lon="1.93223">
        <ele>153</ele>
        <time>2010-05-15T13:18:37Z</time>
      </trkpt>
      <trkpt lat="48.57848" lon="1.93231">
        <ele>153</ele>
        <time>2010-05-15T13:18:38Z</time>
      </trkpt>
      <trkpt lat="48.57848" lon="1.93239">
        <ele>153</ele>
        <time>2010-05-15T13:18:39Z</time>
      </trkpt>
      <trkpt lat="48.57848" lon="1.93248">
        <ele>153</ele>
        <time>2010-05-15T13:18:40Z</time>
      </trkpt>
      <trkpt lat="48.57849" lon="1.93256">
        <ele>153</ele>
        <time>2010-05-15T13:18:41Z</time>
      </trkpt>
      <trkpt lat="48.5785" lon="1.93265">
        <ele>153</ele>
        <time>2010-05-15T13:18:42Z</time>
      </trkpt>
      <trkpt lat="48.5785" lon="1.93273">
        <ele>153</ele>
        <time>2010-05-15T13:18:43Z</time>
      </trkpt>
      <trkpt lat="48.57851" lon="1.93282">
        <ele>153</ele>
        <time>2010-05-15T13:18:44Z</time>
      </trkpt>
      <trkpt lat="48.57851" lon="1.93291">
        <ele>153</ele>
        <time>2010-05-15T13:18:45Z</time>
      </trkpt>
      <trkpt lat="48.57852" lon="1.93299">
        <ele>153</ele>
        <time>2010-05-15T13:18:46Z</time>
      </trkpt>
      <trkpt lat="48.57852" lon="1.93309">
        <ele>153</ele>
        <time>2010-05-15T13:18:47Z</time>
      </trkpt>
      <trkpt lat="48.57853" lon="1.93318">
        <ele>153</ele>
        <time>2010-05-15T13:18:48Z</time>
      </trkpt>
      <trkpt lat="48.57854" lon="1.93328">
        <ele>153</ele>
        <time>2010-05-15T13:18:49Z</time>
      </trkpt>
      <trkpt lat="48.57854" lon="1.93337">
        <ele>153</ele>
        <time>2010-05-15T13:18:50Z</time>
      </trkpt>
      <trkpt lat="48.57855" lon="1.93346">
        <ele>153</ele>
        <time>2010-05-15T13:18:51Z</time>
      </trkpt>
      <trkpt lat="48.57855" lon="1.93354">
        <ele>153</ele>
        <time>2010-05-15T13:18:52Z</time>
      </trkpt>
      <trkpt lat="48.57855" lon="1.93362">
        <ele>153</ele>
        <time>2010-05-15T13:18:53Z</time>
      </trkpt>
      <trkpt lat="48.57856" lon="1.93371">
        <ele>153</ele>
        <time>2010-05-15T13:18:54Z</time>
      </trkpt>
      <trkpt lat="48.57856" lon="1.93379">
        <ele>153</ele>
        <time>2010-05-15T13:18:55Z</time>
      </trkpt>
      <trkpt lat="48.57856" lon="1.93387">
        <ele>153</ele>
        <time>2010-05-15T13:18:56Z</time>
      </trkpt>
      <trkpt lat="48.57857" lon="1.93395">
        <ele>153</ele>
        <time>2010-05-15T13:18:57Z</time>
      </trkpt>
      <trkpt lat="48.57857" lon="1.93402">
        <ele>153</ele>
        <time>2010-05-15T13:18:58Z</time>
      </trkpt>
      <trkpt lat="48.57858" lon="1.9341">
        <ele>153</ele>
        <time>2010-05-15T13:18:59Z</time>
      </trkpt>
      <trkpt lat="48.57858" lon="1.93418">
        <ele>153</ele>
        <time>2010-05-15T13:19:00Z</time>
      </trkpt>
      <trkpt lat="48.57858" lon="1.93427">
        <ele>153</ele>
        <time>2010-05-15T13:19:01Z</time>
      </trkpt>
      <trkpt lat="48.57858" lon="1.93434">
        <ele>153</ele>
        <time>2010-05-15T13:19:02Z</time>
      </trkpt>
      <trkpt lat="48.57859" lon="1.93442">
        <ele>153</ele>
        <time>2010-05-15T13:19:03Z</time>
      </trkpt>
      <trkpt lat="48.5786" lon="1.93449">
        <ele>152</ele>
        <time>2010-05-15T13:19:04Z</time>
      </trkpt>
      <trkpt lat="48.57861" lon="1.93457">
        <ele>152</ele>
        <time>2010-05-15T13:19:05Z</time>
      </trkpt>
      <trkpt lat="48.57861" lon="1.93464">
        <ele>152</ele>
        <time>2010-05-15T13:19:06Z</time>
      </trkpt>
      <trkpt lat="48.57861" lon="1.93471">
        <ele>152</ele>
        <time>2010-05-15T13:19:07Z</time>
      </trkpt>
      <trkpt lat="48.57862" lon="1.93477">
        <ele>152</ele>
        <time>2010-05-15T13:19:08Z</time>
      </trkpt>
      <trkpt lat="48.57862" lon="1.93482">
        <ele>152</ele>
        <time>2010-05-15T13:19:09Z</time>
      </trkpt>
      <trkpt lat="48.57863" lon="1.93488">
        <ele>152</ele>
        <time>2010-05-15T13:19:10Z</time>
      </trkpt>
      <trkpt lat="48.57863" lon="1.93493">
        <ele>152</ele>
        <time>2010-05-15T13:19:11Z</time>
      </trkpt>
      <trkpt lat="48.57863" lon="1.93499">
        <ele>152</ele>
        <time>2010-05-15T13:19:12Z</time>
      </trkpt>
      <trkpt lat="48.57863" lon="1.93505">
        <ele>152</ele>
        <time>2010-05-15T13:19:13Z</time>
      </trkpt>
      <trkpt lat="48.57863" lon="1.9351">
        <ele>151</ele>
        <time>2010-05-15T13:19:14Z</time>
      </trkpt>
      <trkpt lat="48.57863" lon="1.93515">
        <ele>151</ele>
        <time>2010-05-15T13:19:15Z</time>
      </trkpt>
      <trkpt lat="48.57864" lon="1.93519">
        <ele>151</ele>
        <time>2010-05-15T13:19:16Z</time>
      </trkpt>
      <trkpt lat="48.57865" lon="1.93522">
        <ele>151</ele>
        <time>2010-05-15T13:19:17Z</time>
      </trkpt>
      <trkpt lat="48.57865" lon="1.93525">
        <ele>151</ele>
        <time>2010-05-15T13:19:18Z</time>
      </trkpt>
      <trkpt lat="48.57865" lon="1.93527">
        <ele>151</ele>
        <time>2010-05-15T13:19:19Z</time>
      </trkpt>
      <trkpt lat="48.57865" lon="1.93528">
        <ele>151</ele>
        <time>2010-05-15T13:19:20Z</time>
      </trkpt>
      <trkpt lat="48.57865" lon="1.9353">
        <ele>151</ele>
        <time>2010-05-15T13:19:21Z</time>
      </trkpt>
      <trkpt lat="48.57866" lon="1.93532">
        <ele>151</ele>
        <time>2010-05-15T13:19:22Z</time>
      </trkpt>
      <trkpt lat="48.57866" lon="1.93534">
        <ele>151</ele>
        <time>2010-05-15T13:19:23Z</time>
      </trkpt>
      <trkpt lat="48.57867" lon="1.93536">
        <ele>151</ele>
        <time>2010-05-15T13:19:24Z</time>
      </trkpt>
      <trkpt lat="48.57868" lon="1.93539">
        <ele>151</ele>
        <time>2010-05-15T13:19:25Z</time>
      </trkpt>
      <trkpt lat="48.57869" lon="1.93541">
        <ele>151</ele>
        <time>2010-05-15T13:19:26Z</time>
      </trkpt>
      <trkpt lat="48.57869" lon="1.93543">
        <ele>151</ele>
        <time>2010-05-15T13:19:27Z</time>
      </trkpt>
      <trkpt lat="48.57869" lon="1.93546">
        <ele>151</ele>
        <time>2010-05-15T13:19:28Z</time>
      </trkpt>
      <trkpt lat="48.5787" lon="1.93548">
        <ele>151</ele>
        <time>2010-05-15T13:19:29Z</time>
      </trkpt>
      <trkpt lat="48.5787" lon="1.9355">
        <ele>151</ele>
        <time>2010-05-15T13:19:30Z</time>
      </trkpt>
      <trkpt lat="48.5787" lon="1.93552">
        <ele>151</ele>
        <time>2010-05-15T13:19:31Z</time>
      </trkpt>
      <trkpt lat="48.5787" lon="1.93554">
        <ele>151</ele>
        <time>2010-05-15T13:19:32Z</time>
      </trkpt>
      <trkpt lat="48.5787" lon="1.93556">
        <ele>151</ele>
        <time>2010-05-15T13:19:33Z</time>
      </trkpt>
      <trkpt lat="48.57871" lon="1.93559">
        <ele>151</ele>
        <time>2010-05-15T13:19:34Z</time>
      </trkpt>
      <trkpt lat="48.57871" lon="1.93561">
        <ele>151</ele>
        <time>2010-05-15T13:19:35Z</time>
      </trkpt>
      <trkpt lat="48.57871" lon="1.93563">
        <ele>151</ele>
        <time>2010-05-15T13:19:36Z</time>
      </trkpt>
      <trkpt lat="48.57872" lon="1.93565">
        <ele>151</ele>
        <time>2010-05-15T13:19:37Z</time>
      </trkpt>
      <trkpt lat="48.57872" lon="1.93567">
        <ele>151</ele>
        <time>2010-05-15T13:19:38Z</time>
      </trkpt>
      <trkpt lat="48.57872" lon="1.93569">
        <ele>151</ele>
        <time>2010-05-15T13:19:39Z</time>
      </trkpt>
      <trkpt lat="48.57873" lon="1.93571">
        <ele>151</ele>
        <time>2010-05-15T13:19:40Z</time>
      </trkpt>
      <trkpt lat="48.57873" lon="1.93574">
        <ele>151</ele>
        <time>2010-05-15T13:19:41Z</time>
      </trkpt>
      <trkpt lat="48.57873" lon="1.93576">
        <ele>151</ele>
        <time>2010-05-15T13:19:42Z</time>
      </trkpt>
      <trkpt lat="48.57873" lon="1.93578">
        <ele>151</ele>
        <time>2010-05-15T13:19:43Z</time>
      </trkpt>
      <trkpt lat="48.57873" lon="1.9358">
        <ele>151</ele>
        <time>2010-05-15T13:19:44Z</time>
      </trkpt>
      <trkpt lat="48.57873" lon="1.93583">
        <ele>151</ele>
        <time>2010-05-15T13:19:45Z</time>
      </trkpt>
      <trkpt lat="48.57873" lon="1.93585">
        <ele>151</ele>
        <time>2010-05-15T13:19:46Z</time>
      </trkpt>
      <trkpt lat="48.57874" lon="1.93587">
        <ele>151</ele>
        <time>2010-05-15T13:19:47Z</time>
      </trkpt>
      <trkpt lat="48.57874" lon="1.9359">
        <ele>151</ele>
        <time>2010-05-15T13:19:48Z</time>
      </trkpt>
      <trkpt lat="48.57874" lon="1.93592">
        <ele>151</ele>
        <time>2010-05-15T13:19:49Z</time>
      </trkpt>
      <trkpt lat="48.57874" lon="1.93594">
        <ele>151</ele>
        <time>2010-05-15T13:19:50Z</time>
      </trkpt>
      <trkpt lat="48.57874" lon="1.93596">
        <ele>151</ele>
        <time>2010-05-15T13:19:51Z</time>
      </trkpt>
      <trkpt lat="48.57874" lon="1.93598">
        <ele>151</ele>
        <time>2010-05-15T13:19:52Z</time>
      </trkpt>
      <trkpt lat="48.57875" lon="1.93601">
        <ele>151</ele>
        <time>2010-05-15T13:19:53Z</time>
      </trkpt>
      <trkpt lat="48.57875" lon="1.93604">
        <ele>151</ele>
        <time>2010-05-15T13:19:54Z</time>
      </trkpt>
      <trkpt lat="48.57875" lon="1.93606">
        <ele>151</ele>
        <time>2010-05-15T13:19:55Z</time>
      </trkpt>
      <trkpt lat="48.57876" lon="1.93608">
        <ele>151</ele>
        <time>2010-05-15T13:19:56Z</time>
      </trkpt>
      <trkpt lat="48.57876" lon="1.9361">
        <ele>151</ele>
        <time>2010-05-15T13:19:57Z</time>
      </trkpt>
      <trkpt lat="48.57876" lon="1.93613">
        <ele>151</ele>
        <time>2010-05-15T13:19:58Z</time>
      </trkpt>
      <trkpt lat="48.57876" lon="1.93615">
        <ele>151</ele>
        <time>2010-05-15T13:19:59Z</time>
      </trkpt>
      <trkpt lat="48.57876" lon="1.93618">
        <ele>151</ele>
        <time>2010-05-15T13:20:00Z</time>
      </trkpt>
      <trkpt lat="48.57877" lon="1.9362">
        <ele>151</ele>
        <time>2010-05-15T13:20:01Z</time>
      </trkpt>
      <trkpt lat="48.57877" lon="1.93622">
        <ele>151</ele>
        <time>2010-05-15T13:20:02Z</time>
      </trkpt>
      <trkpt lat="48.57877" lon="1.93625">
        <ele>151</ele>
        <time>2010-05-15T13:20:03Z</time>
      </trkpt>
      <trkpt lat="48.57877" lon="1.93628">
        <ele>151</ele>
        <time>2010-05-15T13:20:04Z</time>
      </trkpt>
      <trkpt lat="48.57877" lon="1.9363">
        <ele>151</ele>
        <time>2010-05-15T13:20:05Z</time>
      </trkpt>
      <trkpt lat="48.57877" lon="1.93632">
        <ele>151</ele>
        <time>2010-05-15T13:20:06Z</time>
      </trkpt>
      <trkpt lat="48.57877" lon="1.93635">
        <ele>151</ele>
        <time>2010-05-15T13:20:07Z</time>
      </trkpt>
      <trkpt lat="48.57877" lon="1.93637">
        <ele>151</ele>
        <time>2010-05-15T13:20:08Z</time>
      </trkpt>
      <trkpt lat="48.57877" lon="1.9364">
        <ele>151</ele>
        <time>2010-05-15T13:20:09Z</time>
      </trkpt>
      <trkpt lat="48.57877" lon="1.93642">
        <ele>151</ele>
        <time>2010-05-15T13:20:10Z</time>
      </trkpt>
      <trkpt lat="48.57877" lon="1.93644">
        <ele>151</ele>
        <time>2010-05-15T13:20:11Z</time>
      </trkpt>
      <trkpt lat="48.57877" lon="1.93646">
        <ele>151</ele>
        <time>2010-05-15T13:20:12Z</time>
      </trkpt>
      <trkpt lat="48.57877" lon="1.93649">
        <ele>151</ele>
        <time>2010-05-15T13:20:13Z</time>
      </trkpt>
      <trkpt lat="48.57877" lon="1.93651">
        <ele>151</ele>
        <time>2010-05-15T13:20:14Z</time>
      </trkpt>
      <trkpt lat="48.57878" lon="1.93653">
        <ele>151</ele>
        <time>2010-05-15T13:20:15Z</time>
      </trkpt>
      <trkpt lat="48.57877" lon="1.93655">
        <ele>151</ele>
        <time>2010-05-15T13:20:16Z</time>
      </trkpt>
      <trkpt lat="48.57877" lon="1.93658">
        <ele>151</ele>
        <time>2010-05-15T13:20:17Z</time>
      </trkpt>
      <trkpt lat="48.57877" lon="1.93661">
        <ele>151</ele>
        <time>2010-05-15T13:20:18Z</time>
      </trkpt>
      <trkpt lat="48.57877" lon="1.93664">
        <ele>151</ele>
        <time>2010-05-15T13:20:19Z</time>
      </trkpt>
      <trkpt lat="48.57877" lon="1.93666">
        <ele>151</ele>
        <time>2010-05-15T13:20:20Z</time>
      </trkpt>
      <trkpt lat="48.57877" lon="1.93668">
        <ele>151</ele>
        <time>2010-05-15T13:20:21Z</time>
      </trkpt>
      <trkpt lat="48.57877" lon="1.93671">
        <ele>151</ele>
        <time>2010-05-15T13:20:22Z</time>
      </trkpt>
      <trkpt lat="48.57877" lon="1.93673">
        <ele>152</ele>
        <time>2010-05-15T13:20:23Z</time>
      </trkpt>
      <trkpt lat="48.57877" lon="1.93675">
        <ele>152</ele>
        <time>2010-05-15T13:20:24Z</time>
      </trkpt>
      <trkpt lat="48.57877" lon="1.93678">
        <ele>152</ele>
        <time>2010-05-15T13:20:25Z</time>
      </trkpt>
      <trkpt lat="48.57877" lon="1.9368">
        <ele>152</ele>
        <time>2010-05-15T13:20:26Z</time>
      </trkpt>
      <trkpt lat="48.57877" lon="1.93682">
        <ele>152</ele>
        <time>2010-05-15T13:20:27Z</time>
      </trkpt>
      <trkpt lat="48.57878" lon="1.93684">
        <ele>152</ele>
        <time>2010-05-15T13:20:28Z</time>
      </trkpt>
      <trkpt lat="48.57879" lon="1.93686">
        <ele>152</ele>
        <time>2010-05-15T13:20:29Z</time>
      </trkpt>
      <trkpt lat="48.57879" lon="1.93688">
        <ele>152</ele>
        <time>2010-05-15T13:20:30Z</time>
      </trkpt>
      <trkpt lat="48.5788" lon="1.9369">
        <ele>152</ele>
        <time>2010-05-15T13:20:31Z</time>
      </trkpt>
      <trkpt lat="48.5788" lon="1.93692">
        <ele>152</ele>
        <time>2010-05-15T13:20:32Z</time>
      </trkpt>
      <trkpt lat="48.57881" lon="1.93694">
        <ele>152</ele>
        <time>2010-05-15T13:20:33Z</time>
      </trkpt>
      <trkpt lat="48.57881" lon="1.93696">
        <ele>152</ele>
        <time>2010-05-15T13:20:34Z</time>
      </trkpt>
      <trkpt lat="48.57882" lon="1.93699">
        <ele>152</ele>
        <time>2010-05-15T13:20:36Z</time>
      </trkpt>
      <trkpt lat="48.57882" lon="1.93701">
        <ele>152</ele>
        <time>2010-05-15T13:20:37Z</time>
      </trkpt>
      <trkpt lat="48.57883" lon="1.93703">
        <ele>152</ele>
        <time>2010-05-15T13:20:38Z</time>
      </trkpt>
      <trkpt lat="48.57883" lon="1.93706">
        <ele>152</ele>
        <time>2010-05-15T13:20:39Z</time>
      </trkpt>
      <trkpt lat="48.57883" lon="1.93708">
        <ele>152</ele>
        <time>2010-05-15T13:20:40Z</time>
      </trkpt>
      <trkpt lat="48.57884" lon="1.93711">
        <ele>152</ele>
        <time>2010-05-15T13:20:41Z</time>
      </trkpt>
      <trkpt lat="48.57884" lon="1.93713">
        <ele>152</ele>
        <time>2010-05-15T13:20:42Z</time>
      </trkpt>
      <trkpt lat="48.57884" lon="1.93716">
        <ele>152</ele>
        <time>2010-05-15T13:20:43Z</time>
      </trkpt>
      <trkpt lat="48.57884" lon="1.93719">
        <ele>152</ele>
        <time>2010-05-15T13:20:44Z</time>
      </trkpt>
      <trkpt lat="48.57885" lon="1.93722">
        <ele>152</ele>
        <time>2010-05-15T13:20:45Z</time>
      </trkpt>
      <trkpt lat="48.57885" lon="1.93725">
        <ele>152</ele>
        <time>2010-05-15T13:20:46Z</time>
      </trkpt>
      <trkpt lat="48.57885" lon="1.93727">
        <ele>152</ele>
        <time>2010-05-15T13:20:47Z</time>
      </trkpt>
      <trkpt lat="48.57886" lon="1.93729">
        <ele>152</ele>
        <time>2010-05-15T13:20:48Z</time>
      </trkpt>
      <trkpt lat="48.57886" lon="1.93731">
        <ele>152</ele>
        <time>2010-05-15T13:20:49Z</time>
      </trkpt>
      <trkpt lat="48.57886" lon="1.93733">
        <ele>152</ele>
        <time>2010-05-15T13:20:50Z</time>
      </trkpt>
      <trkpt lat="48.57886" lon="1.93736">
        <ele>152</ele>
        <time>2010-05-15T13:20:51Z</time>
      </trkpt>
      <trkpt lat="48.57886" lon="1.93738">
        <ele>152</ele>
        <time>2010-05-15T13:20:52Z</time>
      </trkpt>
      <trkpt lat="48.57886" lon="1.93741">
        <ele>152</ele>
        <time>2010-05-15T13:20:53Z</time>
      </trkpt>
      <trkpt lat="48.57886" lon="1.93744">
        <ele>152</ele>
        <time>2010-05-15T13:20:54Z</time>
      </trkpt>
      <trkpt lat="48.57888" lon="1.93746">
        <ele>152</ele>
        <time>2010-05-15T13:20:55Z</time>
      </trkpt>
      <trkpt lat="48.5789" lon="1.93746">
        <ele>152</ele>
        <time>2010-05-15T13:20:56Z</time>
      </trkpt>
      <trkpt lat="48.57892" lon="1.93746">
        <ele>152</ele>
        <time>2010-05-15T13:20:57Z</time>
      </trkpt>
      <trkpt lat="48.57894" lon="1.93745">
        <ele>152</ele>
        <time>2010-05-15T13:20:58Z</time>
      </trkpt>
      <trkpt lat="48.57896" lon="1.93743">
        <ele>152</ele>
        <time>2010-05-15T13:20:59Z</time>
      </trkpt>
      <trkpt lat="48.57898" lon="1.93743">
        <ele>152</ele>
        <time>2010-05-15T13:21:00Z</time>
      </trkpt>
      <trkpt lat="48.57899" lon="1.93743">
        <ele>152</ele>
        <time>2010-05-15T13:21:01Z</time>
      </trkpt>
      <trkpt lat="48.579" lon="1.93743">
        <ele>152</ele>
        <time>2010-05-15T13:21:02Z</time>
      </trkpt>
      <trkpt lat="48.57902" lon="1.93743">
        <ele>152</ele>
        <time>2010-05-15T13:21:03Z</time>
      </trkpt>
      <trkpt lat="48.57903" lon="1.93743">
        <ele>152</ele>
        <time>2010-05-15T13:21:04Z</time>
      </trkpt>
      <trkpt lat="48.57905" lon="1.93742">
        <ele>152</ele>
        <time>2010-05-15T13:21:05Z</time>
      </trkpt>
      <trkpt lat="48.57907" lon="1.93741">
        <ele>152</ele>
        <time>2010-05-15T13:21:06Z</time>
      </trkpt>
      <trkpt lat="48.57909" lon="1.93741">
        <ele>152</ele>
        <time>2010-05-15T13:21:07Z</time>
      </trkpt>
      <trkpt lat="48.57913" lon="1.93737">
        <ele>152</ele>
        <time>2010-05-15T13:21:11Z</time>
      </trkpt>
      <trkpt lat="48.57915" lon="1.93737">
        <ele>152</ele>
        <time>2010-05-15T13:21:12Z</time>
      </trkpt>
      <trkpt lat="48.57916" lon="1.93737">
        <ele>152</ele>
        <time>2010-05-15T13:21:13Z</time>
      </trkpt>
      <trkpt lat="48.57917" lon="1.9374">
        <ele>153</ele>
        <time>2010-05-15T13:21:15Z</time>
      </trkpt>
      <trkpt lat="48.57919" lon="1.93742">
        <ele>153</ele>
        <time>2010-05-15T13:21:16Z</time>
      </trkpt>
      <trkpt lat="48.57919" lon="1.93744">
        <ele>153</ele>
        <time>2010-05-15T13:21:17Z</time>
      </trkpt>
      <trkpt lat="48.5792" lon="1.93746">
        <ele>153</ele>
        <time>2010-05-15T13:21:18Z</time>
      </trkpt>
      <trkpt lat="48.57921" lon="1.93747">
        <ele>154</ele>
        <time>2010-05-15T13:21:19Z</time>
      </trkpt>
      <trkpt lat="48.57922" lon="1.9375">
        <ele>154</ele>
        <time>2010-05-15T13:21:20Z</time>
      </trkpt>
      <trkpt lat="48.57922" lon="1.93752">
        <ele>154</ele>
        <time>2010-05-15T13:21:21Z</time>
      </trkpt>
      <trkpt lat="48.57922" lon="1.93754">
        <ele>154</ele>
        <time>2010-05-15T13:21:22Z</time>
      </trkpt>
      <trkpt lat="48.57923" lon="1.93757">
        <ele>154</ele>
        <time>2010-05-15T13:21:24Z</time>
      </trkpt>
      <trkpt lat="48.57923" lon="1.93759">
        <ele>154</ele>
        <time>2010-05-15T13:21:25Z</time>
      </trkpt>
      <trkpt lat="48.57924" lon="1.93762">
        <ele>154</ele>
        <time>2010-05-15T13:21:26Z</time>
      </trkpt>
      <trkpt lat="48.57924" lon="1.93764">
        <ele>154</ele>
        <time>2010-05-15T13:21:27Z</time>
      </trkpt>
      <trkpt lat="48.57924" lon="1.93766">
        <ele>154</ele>
        <time>2010-05-15T13:21:28Z</time>
      </trkpt>
      <trkpt lat="48.57924" lon="1.93768">
        <ele>154</ele>
        <time>2010-05-15T13:21:29Z</time>
      </trkpt>
      <trkpt lat="48.57923" lon="1.9377">
        <ele>154</ele>
        <time>2010-05-15T13:21:30Z</time>
      </trkpt>
      <trkpt lat="48.57923" lon="1.93773">
        <ele>154</ele>
        <time>2010-05-15T13:21:31Z</time>
      </trkpt>
      <trkpt lat="48.57923" lon="1.93774">
        <ele>154</ele>
        <time>2010-05-15T13:21:32Z</time>
      </trkpt>
      <trkpt lat="48.57923" lon="1.93776">
        <ele>154</ele>
        <time>2010-05-15T13:21:33Z</time>
      </trkpt>
      <trkpt lat="48.57923" lon="1.93779">
        <ele>154</ele>
        <time>2010-05-15T13:21:34Z</time>
      </trkpt>
      <trkpt lat="48.57923" lon="1.93781">
        <ele>154</ele>
        <time>2010-05-15T13:21:35Z</time>
      </trkpt>
      <trkpt lat="48.57923" lon="1.93783">
        <ele>154</ele>
        <time>2010-05-15T13:21:36Z</time>
      </trkpt>
      <trkpt lat="48.57923" lon="1.93784">
        <ele>154</ele>
        <time>2010-05-15T13:21:37Z</time>
      </trkpt>
      <trkpt lat="48.57923" lon="1.93787">
        <ele>154</ele>
        <time>2010-05-15T13:21:38Z</time>
      </trkpt>
      <trkpt lat="48.57923" lon="1.93789">
        <ele>154</ele>
        <time>2010-05-15T13:21:39Z</time>
      </trkpt>
      <trkpt lat="48.57923" lon="1.93792">
        <ele>154</ele>
        <time>2010-05-15T13:21:40Z</time>
      </trkpt>
      <trkpt lat="48.57923" lon="1.93795">
        <ele>154</ele>
        <time>2010-05-15T13:21:41Z</time>
      </trkpt>
      <trkpt lat="48.57923" lon="1.93797">
        <ele>154</ele>
        <time>2010-05-15T13:21:42Z</time>
      </trkpt>
      <trkpt lat="48.57923" lon="1.938">
        <ele>154</ele>
        <time>2010-05-15T13:21:43Z</time>
      </trkpt>
      <trkpt lat="48.57923" lon="1.93803">
        <ele>154</ele>
        <time>2010-05-15T13:21:44Z</time>
      </trkpt>
      <trkpt lat="48.57923" lon="1.93805">
        <ele>154</ele>
        <time>2010-05-15T13:21:45Z</time>
      </trkpt>
      <trkpt lat="48.57923" lon="1.93808">
        <ele>154</ele>
        <time>2010-05-15T13:21:46Z</time>
      </trkpt>
      <trkpt lat="48.57923" lon="1.9381">
        <ele>154</ele>
        <time>2010-05-15T13:21:47Z</time>
      </trkpt>
      <trkpt lat="48.57923" lon="1.93813">
        <ele>154</ele>
        <time>2010-05-15T13:21:48Z</time>
      </trkpt>
      <trkpt lat="48.57923" lon="1.93816">
        <ele>154</ele>
        <time>2010-05-15T13:21:49Z</time>
      </trkpt>
      <trkpt lat="48.57922" lon="1.93818">
        <ele>154</ele>
        <time>2010-05-15T13:21:50Z</time>
      </trkpt>
      <trkpt lat="48.57923" lon="1.9382">
        <ele>154</ele>
        <time>2010-05-15T13:21:51Z</time>
      </trkpt>
      <trkpt lat="48.57923" lon="1.93823">
        <ele>154</ele>
        <time>2010-05-15T13:21:52Z</time>
      </trkpt>
      <trkpt lat="48.57923" lon="1.93825">
        <ele>154</ele>
        <time>2010-05-15T13:21:53Z</time>
      </trkpt>
      <trkpt lat="48.57923" lon="1.93828">
        <ele>154</ele>
        <time>2010-05-15T13:21:54Z</time>
      </trkpt>
      <trkpt lat="48.57922" lon="1.9383">
        <ele>154</ele>
        <time>2010-05-15T13:21:55Z</time>
      </trkpt>
      <trkpt lat="48.57922" lon="1.93832">
        <ele>154</ele>
        <time>2010-05-15T13:21:56Z</time>
      </trkpt>
      <trkpt lat="48.57922" lon="1.93835">
        <ele>154</ele>
        <time>2010-05-15T13:21:57Z</time>
      </trkpt>
      <trkpt lat="48.57922" lon="1.93837">
        <ele>154</ele>
        <time>2010-05-15T13:21:58Z</time>
      </trkpt>
      <trkpt lat="48.57921" lon="1.93839">
        <ele>154</ele>
        <time>2010-05-15T13:21:59Z</time>
      </trkpt>
      <trkpt lat="48.57921" lon="1.93841">
        <ele>154</ele>
        <time>2010-05-15T13:22:00Z</time>
      </trkpt>
      <trkpt lat="48.57921" lon="1.93844">
        <ele>154</ele>
        <time>2010-05-15T13:22:01Z</time>
      </trkpt>
      <trkpt lat="48.5792" lon="1.93846">
        <ele>154</ele>
        <time>2010-05-15T13:22:02Z</time>
      </trkpt>
      <trkpt lat="48.5792" lon="1.93849">
        <ele>154</ele>
        <time>2010-05-15T13:22:03Z</time>
      </trkpt>
      <trkpt lat="48.5792" lon="1.93851">
        <ele>154</ele>
        <time>2010-05-15T13:22:04Z</time>
      </trkpt>
      <trkpt lat="48.5792" lon="1.93854">
        <ele>153</ele>
        <time>2010-05-15T13:22:05Z</time>
      </trkpt>
      <trkpt lat="48.5792" lon="1.93856">
        <ele>153</ele>
        <time>2010-05-15T13:22:06Z</time>
      </trkpt>
      <trkpt lat="48.57919" lon="1.93858">
        <ele>153</ele>
        <time>2010-05-15T13:22:07Z</time>
      </trkpt>
      <trkpt lat="48.57919" lon="1.93861">
        <ele>153</ele>
        <time>2010-05-15T13:22:08Z</time>
      </trkpt>
      <trkpt lat="48.57919" lon="1.93863">
        <ele>153</ele>
        <time>2010-05-15T13:22:09Z</time>
      </trkpt>
      <trkpt lat="48.57918" lon="1.93865">
        <ele>153</ele>
        <time>2010-05-15T13:22:10Z</time>
      </trkpt>
      <trkpt lat="48.57917" lon="1.93867">
        <ele>153</ele>
        <time>2010-05-15T13:22:11Z</time>
      </trkpt>
      <trkpt lat="48.57917" lon="1.93869">
        <ele>153</ele>
        <time>2010-05-15T13:22:12Z</time>
      </trkpt>
      <trkpt lat="48.57917" lon="1.93872">
        <ele>153</ele>
        <time>2010-05-15T13:22:13Z</time>
      </trkpt>
      <trkpt lat="48.57917" lon="1.93874">
        <ele>153</ele>
        <time>2010-05-15T13:22:14Z</time>
      </trkpt>
      <trkpt lat="48.57917" lon="1.93876">
        <ele>153</ele>
        <time>2010-05-15T13:22:15Z</time>
      </trkpt>
      <trkpt lat="48.57916" lon="1.93878">
        <ele>153</ele>
        <time>2010-05-15T13:22:16Z</time>
      </trkpt>
      <trkpt lat="48.57916" lon="1.93881">
        <ele>153</ele>
        <time>2010-05-15T13:22:17Z</time>
      </trkpt>
      <trkpt lat="48.57915" lon="1.93883">
        <ele>153</ele>
        <time>2010-05-15T13:22:18Z</time>
      </trkpt>
      <trkpt lat="48.57914" lon="1.93885">
        <ele>153</ele>
        <time>2010-05-15T13:22:19Z</time>
      </trkpt>
      <trkpt lat="48.57914" lon="1.93888">
        <ele>153</ele>
        <time>2010-05-15T13:22:20Z</time>
      </trkpt>
      <trkpt lat="48.57914" lon="1.93891">
        <ele>153</ele>
        <time>2010-05-15T13:22:21Z</time>
      </trkpt>
      <trkpt lat="48.57915" lon="1.93894">
        <ele>153</ele>
        <time>2010-05-15T13:22:22Z</time>
      </trkpt>
      <trkpt lat="48.57915" lon="1.93897">
        <ele>153</ele>
        <time>2010-05-15T13:22:23Z</time>
      </trkpt>
      <trkpt lat="48.57915" lon="1.939">
        <ele>153</ele>
        <time>2010-05-15T13:22:24Z</time>
      </trkpt>
      <trkpt lat="48.57915" lon="1.93903">
        <ele>153</ele>
        <time>2010-05-15T13:22:25Z</time>
      </trkpt>
      <trkpt lat="48.57915" lon="1.93906">
        <ele>153</ele>
        <time>2010-05-15T13:22:26Z</time>
      </trkpt>
      <trkpt lat="48.57915" lon="1.93909">
        <ele>153</ele>
        <time>2010-05-15T13:22:27Z</time>
      </trkpt>
      <trkpt lat="48.57915" lon="1.93912">
        <ele>153</ele>
        <time>2010-05-15T13:22:28Z</time>
      </trkpt>
      <trkpt lat="48.57915" lon="1.93914">
        <ele>153</ele>
        <time>2010-05-15T13:22:29Z</time>
      </trkpt>
      <trkpt lat="48.57914" lon="1.93917">
        <ele>153</ele>
        <time>2010-05-15T13:22:30Z</time>
      </trkpt>
      <trkpt lat="48.57914" lon="1.9392">
        <ele>153</ele>
        <time>2010-05-15T13:22:31Z</time>
      </trkpt>
      <trkpt lat="48.57914" lon="1.93922">
        <ele>153</ele>
        <time>2010-05-15T13:22:32Z</time>
      </trkpt>
      <trkpt lat="48.57914" lon="1.93925">
        <ele>153</ele>
        <time>2010-05-15T13:22:33Z</time>
      </trkpt>
      <trkpt lat="48.57914" lon="1.93927">
        <ele>153</ele>
        <time>2010-05-15T13:22:34Z</time>
      </trkpt>
      <trkpt lat="48.57914" lon="1.93929">
        <ele>153</ele>
        <time>2010-05-15T13:22:35Z</time>
      </trkpt>
      <trkpt lat="48.57914" lon="1.93931">
        <ele>153</ele>
        <time>2010-05-15T13:22:36Z</time>
      </trkpt>
      <trkpt lat="48.57914" lon="1.93933">
        <ele>153</ele>
        <time>2010-05-15T13:22:37Z</time>
      </trkpt>
      <trkpt lat="48.57914" lon="1.93935">
        <ele>153</ele>
        <time>2010-05-15T13:22:38Z</time>
      </trkpt>
      <trkpt lat="48.57914" lon="1.93937">
        <ele>153</ele>
        <time>2010-05-15T13:22:39Z</time>
      </trkpt>
      <trkpt lat="48.57914" lon="1.93938">
        <ele>153</ele>
        <time>2010-05-15T13:22:40Z</time>
      </trkpt>
      <trkpt lat="48.57913" lon="1.9394">
        <ele>153</ele>
        <time>2010-05-15T13:22:41Z</time>
      </trkpt>
      <trkpt lat="48.57913" lon="1.93943">
        <ele>153</ele>
        <time>2010-05-15T13:22:42Z</time>
      </trkpt>
      <trkpt lat="48.57913" lon="1.93946">
        <ele>153</ele>
        <time>2010-05-15T13:22:43Z</time>
      </trkpt>
      <trkpt lat="48.57913" lon="1.93948">
        <ele>153</ele>
        <time>2010-05-15T13:22:44Z</time>
      </trkpt>
      <trkpt lat="48.57912" lon="1.93951">
        <ele>153</ele>
        <time>2010-05-15T13:22:45Z</time>
      </trkpt>
      <trkpt lat="48.57911" lon="1.93953">
        <ele>153</ele>
        <time>2010-05-15T13:22:46Z</time>
      </trkpt>
      <trkpt lat="48.57911" lon="1.93955">
        <ele>153</ele>
        <time>2010-05-15T13:22:47Z</time>
      </trkpt>
      <trkpt lat="48.5791" lon="1.93958">
        <ele>153</ele>
        <time>2010-05-15T13:22:48Z</time>
      </trkpt>
      <trkpt lat="48.5791" lon="1.9396">
        <ele>153</ele>
        <time>2010-05-15T13:22:49Z</time>
      </trkpt>
      <trkpt lat="48.5791" lon="1.93963">
        <ele>153</ele>
        <time>2010-05-15T13:22:50Z</time>
      </trkpt>
      <trkpt lat="48.5791" lon="1.93966">
        <ele>153</ele>
        <time>2010-05-15T13:22:51Z</time>
      </trkpt>
      <trkpt lat="48.5791" lon="1.93968">
        <ele>153</ele>
        <time>2010-05-15T13:22:52Z</time>
      </trkpt>
      <trkpt lat="48.5791" lon="1.93971">
        <ele>153</ele>
        <time>2010-05-15T13:22:53Z</time>
      </trkpt>
      <trkpt lat="48.57909" lon="1.93973">
        <ele>153</ele>
        <time>2010-05-15T13:22:54Z</time>
      </trkpt>
      <trkpt lat="48.57909" lon="1.93975">
        <ele>153</ele>
        <time>2010-05-15T13:22:55Z</time>
      </trkpt>
      <trkpt lat="48.57909" lon="1.93978">
        <ele>152</ele>
        <time>2010-05-15T13:22:56Z</time>
      </trkpt>
      <trkpt lat="48.57909" lon="1.9398">
        <ele>152</ele>
        <time>2010-05-15T13:22:57Z</time>
      </trkpt>
      <trkpt lat="48.57909" lon="1.93982">
        <ele>151</ele>
        <time>2010-05-15T13:22:58Z</time>
      </trkpt>
      <trkpt lat="48.57909" lon="1.93984">
        <ele>151</ele>
        <time>2010-05-15T13:22:59Z</time>
      </trkpt>
      <trkpt lat="48.57908" lon="1.93986">
        <ele>150</ele>
        <time>2010-05-15T13:23:00Z</time>
      </trkpt>
      <trkpt lat="48.57908" lon="1.93989">
        <ele>150</ele>
        <time>2010-05-15T13:23:01Z</time>
      </trkpt>
      <trkpt lat="48.57907" lon="1.93991">
        <ele>149</ele>
        <time>2010-05-15T13:23:02Z</time>
      </trkpt>
      <trkpt lat="48.57906" lon="1.93993">
        <ele>149</ele>
        <time>2010-05-15T13:23:03Z</time>
      </trkpt>
      <trkpt lat="48.57905" lon="1.93996">
        <ele>148</ele>
        <time>2010-05-15T13:23:05Z</time>
      </trkpt>
      <trkpt lat="48.57904" lon="1.93999">
        <ele>148</ele>
        <time>2010-05-15T13:23:06Z</time>
      </trkpt>
      <trkpt lat="48.57904" lon="1.94001">
        <ele>148</ele>
        <time>2010-05-15T13:23:07Z</time>
      </trkpt>
      <trkpt lat="48.57904" lon="1.94004">
        <ele>148</ele>
        <time>2010-05-15T13:23:08Z</time>
      </trkpt>
      <trkpt lat="48.57904" lon="1.94007">
        <ele>148</ele>
        <time>2010-05-15T13:23:09Z</time>
      </trkpt>
      <trkpt lat="48.57904" lon="1.9401">
        <ele>148</ele>
        <time>2010-05-15T13:23:10Z</time>
      </trkpt>
      <trkpt lat="48.57904" lon="1.94013">
        <ele>148</ele>
        <time>2010-05-15T13:23:11Z</time>
      </trkpt>
      <trkpt lat="48.57903" lon="1.94017">
        <ele>148</ele>
        <time>2010-05-15T13:23:12Z</time>
      </trkpt>
      <trkpt lat="48.57903" lon="1.9402">
        <ele>148</ele>
        <time>2010-05-15T13:23:13Z</time>
      </trkpt>
      <trkpt lat="48.57903" lon="1.94024">
        <ele>148</ele>
        <time>2010-05-15T13:23:14Z</time>
      </trkpt>
      <trkpt lat="48.57903" lon="1.94027">
        <ele>148</ele>
        <time>2010-05-15T13:23:15Z</time>
      </trkpt>
      <trkpt lat="48.57903" lon="1.9403">
        <ele>148</ele>
        <time>2010-05-15T13:23:16Z</time>
      </trkpt>
      <trkpt lat="48.57902" lon="1.94033">
        <ele>148</ele>
        <time>2010-05-15T13:23:17Z</time>
      </trkpt>
      <trkpt lat="48.57902" lon="1.94036">
        <ele>148</ele>
        <time>2010-05-15T13:23:18Z</time>
      </trkpt>
      <trkpt lat="48.57902" lon="1.94038">
        <ele>148</ele>
        <time>2010-05-15T13:23:19Z</time>
      </trkpt>
      <trkpt lat="48.57901" lon="1.94041">
        <ele>148</ele>
        <time>2010-05-15T13:23:20Z</time>
      </trkpt>
      <trkpt lat="48.57901" lon="1.94043">
        <ele>148</ele>
        <time>2010-05-15T13:23:21Z</time>
      </trkpt>
      <trkpt lat="48.57901" lon="1.94045">
        <ele>148</ele>
        <time>2010-05-15T13:23:22Z</time>
      </trkpt>
      <trkpt lat="48.57901" lon="1.94047">
        <ele>148</ele>
        <time>2010-05-15T13:23:23Z</time>
      </trkpt>
      <trkpt lat="48.579" lon="1.94049">
        <ele>148</ele>
        <time>2010-05-15T13:23:24Z</time>
      </trkpt>
      <trkpt lat="48.579" lon="1.94051">
        <ele>148</ele>
        <time>2010-05-15T13:23:25Z</time>
      </trkpt>
      <trkpt lat="48.579" lon="1.94053">
        <ele>148</ele>
        <time>2010-05-15T13:23:26Z</time>
      </trkpt>
      <trkpt lat="48.57899" lon="1.94055">
        <ele>148</ele>
        <time>2010-05-15T13:23:27Z</time>
      </trkpt>
      <trkpt lat="48.57899" lon="1.94058">
        <ele>148</ele>
        <time>2010-05-15T13:23:28Z</time>
      </trkpt>
      <trkpt lat="48.57899" lon="1.9406">
        <ele>148</ele>
        <time>2010-05-15T13:23:29Z</time>
      </trkpt>
      <trkpt lat="48.57899" lon="1.94062">
        <ele>148</ele>
        <time>2010-05-15T13:23:30Z</time>
      </trkpt>
      <trkpt lat="48.57898" lon="1.94064">
        <ele>148</ele>
        <time>2010-05-15T13:23:31Z</time>
      </trkpt>
      <trkpt lat="48.57898" lon="1.94067">
        <ele>148</ele>
        <time>2010-05-15T13:23:32Z</time>
      </trkpt>
      <trkpt lat="48.57898" lon="1.94069">
        <ele>148</ele>
        <time>2010-05-15T13:23:33Z</time>
      </trkpt>
      <trkpt lat="48.57898" lon="1.94071">
        <ele>148</ele>
        <time>2010-05-15T13:23:34Z</time>
      </trkpt>
      <trkpt lat="48.57898" lon="1.94074">
        <ele>148</ele>
        <time>2010-05-15T13:23:35Z</time>
      </trkpt>
      <trkpt lat="48.57898" lon="1.94076">
        <ele>148</ele>
        <time>2010-05-15T13:23:36Z</time>
      </trkpt>
      <trkpt lat="48.57898" lon="1.94078">
        <ele>148</ele>
        <time>2010-05-15T13:23:37Z</time>
      </trkpt>
      <trkpt lat="48.57898" lon="1.9408">
        <ele>148</ele>
        <time>2010-05-15T13:23:38Z</time>
      </trkpt>
      <trkpt lat="48.57898" lon="1.94083">
        <ele>148</ele>
        <time>2010-05-15T13:23:39Z</time>
      </trkpt>
      <trkpt lat="48.57898" lon="1.94085">
        <ele>148</ele>
        <time>2010-05-15T13:23:40Z</time>
      </trkpt>
      <trkpt lat="48.57897" lon="1.94088">
        <ele>148</ele>
        <time>2010-05-15T13:23:41Z</time>
      </trkpt>
      <trkpt lat="48.57897" lon="1.9409">
        <ele>148</ele>
        <time>2010-05-15T13:23:42Z</time>
      </trkpt>
      <trkpt lat="48.57897" lon="1.94093">
        <ele>148</ele>
        <time>2010-05-15T13:23:43Z</time>
      </trkpt>
      <trkpt lat="48.57896" lon="1.94095">
        <ele>148</ele>
        <time>2010-05-15T13:23:44Z</time>
      </trkpt>
      <trkpt lat="48.57896" lon="1.94097">
        <ele>148</ele>
        <time>2010-05-15T13:23:45Z</time>
      </trkpt>
      <trkpt lat="48.57895" lon="1.941">
        <ele>148</ele>
        <time>2010-05-15T13:23:46Z</time>
      </trkpt>
      <trkpt lat="48.57895" lon="1.94102">
        <ele>148</ele>
        <time>2010-05-15T13:23:47Z</time>
      </trkpt>
      <trkpt lat="48.57895" lon="1.94104">
        <ele>147</ele>
        <time>2010-05-15T13:23:48Z</time>
      </trkpt>
      <trkpt lat="48.57895" lon="1.94107">
        <ele>147</ele>
        <time>2010-05-15T13:23:49Z</time>
      </trkpt>
      <trkpt lat="48.57895" lon="1.94109">
        <ele>147</ele>
        <time>2010-05-15T13:23:50Z</time>
      </trkpt>
      <trkpt lat="48.57895" lon="1.94111">
        <ele>146</ele>
        <time>2010-05-15T13:23:51Z</time>
      </trkpt>
      <trkpt lat="48.57895" lon="1.94114">
        <ele>146</ele>
        <time>2010-05-15T13:23:52Z</time>
      </trkpt>
      <trkpt lat="48.57895" lon="1.94117">
        <ele>146</ele>
        <time>2010-05-15T13:23:53Z</time>
      </trkpt>
      <trkpt lat="48.57895" lon="1.9412">
        <ele>146</ele>
        <time>2010-05-15T13:23:54Z</time>
      </trkpt>
      <trkpt lat="48.57895" lon="1.94122">
        <ele>146</ele>
        <time>2010-05-15T13:23:55Z</time>
      </trkpt>
      <trkpt lat="48.57895" lon="1.94125">
        <ele>146</ele>
        <time>2010-05-15T13:23:56Z</time>
      </trkpt>
      <trkpt lat="48.57895" lon="1.94128">
        <ele>146</ele>
        <time>2010-05-15T13:23:57Z</time>
      </trkpt>
      <trkpt lat="48.57895" lon="1.9413">
        <ele>146</ele>
        <time>2010-05-15T13:23:58Z</time>
      </trkpt>
      <trkpt lat="48.57895" lon="1.94133">
        <ele>146</ele>
        <time>2010-05-15T13:23:59Z</time>
      </trkpt>
      <trkpt lat="48.57894" lon="1.94135">
        <ele>146</ele>
        <time>2010-05-15T13:24:00Z</time>
      </trkpt>
      <trkpt lat="48.57894" lon="1.94138">
        <ele>146</ele>
        <time>2010-05-15T13:24:01Z</time>
      </trkpt>
      <trkpt lat="48.57894" lon="1.9414">
        <ele>146</ele>
        <time>2010-05-15T13:24:02Z</time>
      </trkpt>
      <trkpt lat="48.57894" lon="1.94143">
        <ele>146</ele>
        <time>2010-05-15T13:24:03Z</time>
      </trkpt>
      <trkpt lat="48.57895" lon="1.94147">
        <ele>146</ele>
        <time>2010-05-15T13:24:04Z</time>
      </trkpt>
      <trkpt lat="48.57896" lon="1.9415">
        <ele>145</ele>
        <time>2010-05-15T13:24:05Z</time>
      </trkpt>
      <trkpt lat="48.57897" lon="1.94153">
        <ele>145</ele>
        <time>2010-05-15T13:24:06Z</time>
      </trkpt>
      <trkpt lat="48.57898" lon="1.94156">
        <ele>145</ele>
        <time>2010-05-15T13:24:07Z</time>
      </trkpt>
      <trkpt lat="48.57898" lon="1.94158">
        <ele>145</ele>
        <time>2010-05-15T13:24:08Z</time>
      </trkpt>
      <trkpt lat="48.57898" lon="1.9416">
        <ele>145</ele>
        <time>2010-05-15T13:24:09Z</time>
      </trkpt>
      <trkpt lat="48.57898" lon="1.94162">
        <ele>145</ele>
        <time>2010-05-15T13:24:10Z</time>
      </trkpt>
      <trkpt lat="48.57897" lon="1.94165">
        <ele>145</ele>
        <time>2010-05-15T13:24:11Z</time>
      </trkpt>
      <trkpt lat="48.57897" lon="1.94167">
        <ele>145</ele>
        <time>2010-05-15T13:24:12Z</time>
      </trkpt>
      <trkpt lat="48.57897" lon="1.9417">
        <ele>145</ele>
        <time>2010-05-15T13:24:13Z</time>
      </trkpt>
      <trkpt lat="48.57897" lon="1.94172">
        <ele>145</ele>
        <time>2010-05-15T13:24:14Z</time>
      </trkpt>
      <trkpt lat="48.57897" lon="1.94174">
        <ele>145</ele>
        <time>2010-05-15T13:24:15Z</time>
      </trkpt>
      <trkpt lat="48.57897" lon="1.94178">
        <ele>145</ele>
        <time>2010-05-15T13:24:16Z</time>
      </trkpt>
      <trkpt lat="48.57897" lon="1.94181">
        <ele>145</ele>
        <time>2010-05-15T13:24:17Z</time>
      </trkpt>
      <trkpt lat="48.57898" lon="1.94184">
        <ele>145</ele>
        <time>2010-05-15T13:24:18Z</time>
      </trkpt>
      <trkpt lat="48.57897" lon="1.94187">
        <ele>145</ele>
        <time>2010-05-15T13:24:19Z</time>
      </trkpt>
      <trkpt lat="48.57897" lon="1.9419">
        <ele>145</ele>
        <time>2010-05-15T13:24:20Z</time>
      </trkpt>
      <trkpt lat="48.57898" lon="1.94193">
        <ele>145</ele>
        <time>2010-05-15T13:24:21Z</time>
      </trkpt>
      <trkpt lat="48.57898" lon="1.94196">
        <ele>145</ele>
        <time>2010-05-15T13:24:22Z</time>
      </trkpt>
      <trkpt lat="48.57898" lon="1.94199">
        <ele>145</ele>
        <time>2010-05-15T13:24:23Z</time>
      </trkpt>
      <trkpt lat="48.57899" lon="1.94202">
        <ele>145</ele>
        <time>2010-05-15T13:24:24Z</time>
      </trkpt>
      <trkpt lat="48.57899" lon="1.94205">
        <ele>145</ele>
        <time>2010-05-15T13:24:25Z</time>
      </trkpt>
      <trkpt lat="48.57899" lon="1.94207">
        <ele>145</ele>
        <time>2010-05-15T13:24:26Z</time>
      </trkpt>
      <trkpt lat="48.57898" lon="1.94209">
        <ele>145</ele>
        <time>2010-05-15T13:24:27Z</time>
      </trkpt>
      <trkpt lat="48.57898" lon="1.94212">
        <ele>145</ele>
        <time>2010-05-15T13:24:28Z</time>
      </trkpt>
      <trkpt lat="48.57898" lon="1.94214">
        <ele>145</ele>
        <time>2010-05-15T13:24:29Z</time>
      </trkpt>
      <trkpt lat="48.57898" lon="1.94217">
        <ele>145</ele>
        <time>2010-05-15T13:24:30Z</time>
      </trkpt>
      <trkpt lat="48.57898" lon="1.94219">
        <ele>145</ele>
        <time>2010-05-15T13:24:31Z</time>
      </trkpt>
      <trkpt lat="48.57897" lon="1.94222">
        <ele>145</ele>
        <time>2010-05-15T13:24:32Z</time>
      </trkpt>
      <trkpt lat="48.57897" lon="1.94224">
        <ele>145</ele>
        <time>2010-05-15T13:24:33Z</time>
      </trkpt>
      <trkpt lat="48.57897" lon="1.94227">
        <ele>145</ele>
        <time>2010-05-15T13:24:34Z</time>
      </trkpt>
      <trkpt lat="48.57898" lon="1.9423">
        <ele>145</ele>
        <time>2010-05-15T13:24:35Z</time>
      </trkpt>
      <trkpt lat="48.57898" lon="1.94232">
        <ele>145</ele>
        <time>2010-05-15T13:24:36Z</time>
      </trkpt>
      <trkpt lat="48.57898" lon="1.94235">
        <ele>145</ele>
        <time>2010-05-15T13:24:37Z</time>
      </trkpt>
      <trkpt lat="48.57898" lon="1.94238">
        <ele>145</ele>
        <time>2010-05-15T13:24:38Z</time>
      </trkpt>
      <trkpt lat="48.57899" lon="1.94241">
        <ele>144</ele>
        <time>2010-05-15T13:24:39Z</time>
      </trkpt>
      <trkpt lat="48.57899" lon="1.94243">
        <ele>144</ele>
        <time>2010-05-15T13:24:40Z</time>
      </trkpt>
      <trkpt lat="48.579" lon="1.94246">
        <ele>143</ele>
        <time>2010-05-15T13:24:41Z</time>
      </trkpt>
      <trkpt lat="48.579" lon="1.94249">
        <ele>142</ele>
        <time>2010-05-15T13:24:42Z</time>
      </trkpt>
      <trkpt lat="48.579" lon="1.94251">
        <ele>142</ele>
        <time>2010-05-15T13:24:43Z</time>
      </trkpt>
      <trkpt lat="48.579" lon="1.94253">
        <ele>142</ele>
        <time>2010-05-15T13:24:44Z</time>
      </trkpt>
      <trkpt lat="48.579" lon="1.94257">
        <ele>141</ele>
        <time>2010-05-15T13:24:46Z</time>
      </trkpt>
      <trkpt lat="48.579" lon="1.94259">
        <ele>141</ele>
        <time>2010-05-15T13:24:47Z</time>
      </trkpt>
      <trkpt lat="48.579" lon="1.94262">
        <ele>141</ele>
        <time>2010-05-15T13:24:48Z</time>
      </trkpt>
      <trkpt lat="48.579" lon="1.94264">
        <ele>141</ele>
        <time>2010-05-15T13:24:49Z</time>
      </trkpt>
      <trkpt lat="48.579" lon="1.94266">
        <ele>141</ele>
        <time>2010-05-15T13:24:50Z</time>
      </trkpt>
      <trkpt lat="48.579" lon="1.94269">
        <ele>141</ele>
        <time>2010-05-15T13:24:51Z</time>
      </trkpt>
      <trkpt lat="48.579" lon="1.94272">
        <ele>141</ele>
        <time>2010-05-15T13:24:52Z</time>
      </trkpt>
      <trkpt lat="48.579" lon="1.94275">
        <ele>141</ele>
        <time>2010-05-15T13:24:53Z</time>
      </trkpt>
      <trkpt lat="48.579" lon="1.94278">
        <ele>141</ele>
        <time>2010-05-15T13:24:54Z</time>
      </trkpt>
      <trkpt lat="48.579" lon="1.9428">
        <ele>141</ele>
        <time>2010-05-15T13:24:55Z</time>
      </trkpt>
      <trkpt lat="48.579" lon="1.94283">
        <ele>141</ele>
        <time>2010-05-15T13:24:56Z</time>
      </trkpt>
      <trkpt lat="48.579" lon="1.94285">
        <ele>141</ele>
        <time>2010-05-15T13:24:57Z</time>
      </trkpt>
      <trkpt lat="48.57899" lon="1.94287">
        <ele>141</ele>
        <time>2010-05-15T13:24:58Z</time>
      </trkpt>
      <trkpt lat="48.57899" lon="1.9429">
        <ele>141</ele>
        <time>2010-05-15T13:24:59Z</time>
      </trkpt>
      <trkpt lat="48.57899" lon="1.94292">
        <ele>141</ele>
        <time>2010-05-15T13:25:00Z</time>
      </trkpt>
      <trkpt lat="48.57899" lon="1.94295">
        <ele>141</ele>
        <time>2010-05-15T13:25:01Z</time>
      </trkpt>
      <trkpt lat="48.57899" lon="1.94297">
        <ele>141</ele>
        <time>2010-05-15T13:25:02Z</time>
      </trkpt>
      <trkpt lat="48.57899" lon="1.94299">
        <ele>141</ele>
        <time>2010-05-15T13:25:03Z</time>
      </trkpt>
      <trkpt lat="48.57899" lon="1.94301">
        <ele>141</ele>
        <time>2010-05-15T13:25:04Z</time>
      </trkpt>
      <trkpt lat="48.57899" lon="1.94304">
        <ele>141</ele>
        <time>2010-05-15T13:25:05Z</time>
      </trkpt>
      <trkpt lat="48.57899" lon="1.94306">
        <ele>141</ele>
        <time>2010-05-15T13:25:06Z</time>
      </trkpt>
      <trkpt lat="48.57899" lon="1.94309">
        <ele>141</ele>
        <time>2010-05-15T13:25:07Z</time>
      </trkpt>
      <trkpt lat="48.57899" lon="1.94311">
        <ele>141</ele>
        <time>2010-05-15T13:25:08Z</time>
      </trkpt>
      <trkpt lat="48.57899" lon="1.94313">
        <ele>141</ele>
        <time>2010-05-15T13:25:09Z</time>
      </trkpt>
      <trkpt lat="48.57899" lon="1.94315">
        <ele>141</ele>
        <time>2010-05-15T13:25:10Z</time>
      </trkpt>
      <trkpt lat="48.57898" lon="1.94317">
        <ele>140</ele>
        <time>2010-05-15T13:25:11Z</time>
      </trkpt>
      <trkpt lat="48.57898" lon="1.9432">
        <ele>139</ele>
        <time>2010-05-15T13:25:13Z</time>
      </trkpt>
      <trkpt lat="48.57899" lon="1.9432">
        <ele>139</ele>
        <time>2010-05-15T13:25:16Z</time>
      </trkpt>
      <trkpt lat="48.579" lon="1.94321">
        <ele>138</ele>
        <time>2010-05-15T13:25:20Z</time>
      </trkpt>
      <trkpt lat="48.579" lon="1.94323">
        <ele>137</ele>
        <time>2010-05-15T13:25:23Z</time>
      </trkpt>
      <trkpt lat="48.57898" lon="1.94325">
        <ele>137</ele>
        <time>2010-05-15T13:25:24Z</time>
      </trkpt>
      <trkpt lat="48.57896" lon="1.94328">
        <ele>136</ele>
        <time>2010-05-15T13:25:25Z</time>
      </trkpt>
      <trkpt lat="48.57895" lon="1.94329">
        <ele>136</ele>
        <time>2010-05-15T13:25:26Z</time>
      </trkpt>
      <trkpt lat="48.57893" lon="1.94331">
        <ele>135</ele>
        <time>2010-05-15T13:25:28Z</time>
      </trkpt>
      <trkpt lat="48.57891" lon="1.94332">
        <ele>134</ele>
        <time>2010-05-15T13:25:29Z</time>
      </trkpt>
      <trkpt lat="48.5789" lon="1.94333">
        <ele>134</ele>
        <time>2010-05-15T13:25:30Z</time>
      </trkpt>
      <trkpt lat="48.57888" lon="1.94334">
        <ele>133</ele>
        <time>2010-05-15T13:25:31Z</time>
      </trkpt>
      <trkpt lat="48.57887" lon="1.94336">
        <ele>133</ele>
        <time>2010-05-15T13:25:32Z</time>
      </trkpt>
      <trkpt lat="48.57885" lon="1.94337">
        <ele>133</ele>
        <time>2010-05-15T13:25:33Z</time>
      </trkpt>
      <trkpt lat="48.57883" lon="1.94336">
        <ele>133</ele>
        <time>2010-05-15T13:25:34Z</time>
      </trkpt>
      <trkpt lat="48.57881" lon="1.94337">
        <ele>133</ele>
        <time>2010-05-15T13:25:35Z</time>
      </trkpt>
      <trkpt lat="48.57879" lon="1.94338">
        <ele>133</ele>
        <time>2010-05-15T13:25:36Z</time>
      </trkpt>
      <trkpt lat="48.57877" lon="1.94338">
        <ele>133</ele>
        <time>2010-05-15T13:25:37Z</time>
      </trkpt>
      <trkpt lat="48.57875" lon="1.94339">
        <ele>133</ele>
        <time>2010-05-15T13:25:38Z</time>
      </trkpt>
      <trkpt lat="48.57874" lon="1.9434">
        <ele>133</ele>
        <time>2010-05-15T13:25:39Z</time>
      </trkpt>
      <trkpt lat="48.57872" lon="1.94341">
        <ele>133</ele>
        <time>2010-05-15T13:25:40Z</time>
      </trkpt>
      <trkpt lat="48.5787" lon="1.94341">
        <ele>133</ele>
        <time>2010-05-15T13:25:41Z</time>
      </trkpt>
      <trkpt lat="48.57869" lon="1.94342">
        <ele>133</ele>
        <time>2010-05-15T13:25:42Z</time>
      </trkpt>
      <trkpt lat="48.57867" lon="1.94342">
        <ele>133</ele>
        <time>2010-05-15T13:25:43Z</time>
      </trkpt>
      <trkpt lat="48.57866" lon="1.94343">
        <ele>133</ele>
        <time>2010-05-15T13:25:44Z</time>
      </trkpt>
      <trkpt lat="48.57864" lon="1.94344">
        <ele>133</ele>
        <time>2010-05-15T13:25:45Z</time>
      </trkpt>
      <trkpt lat="48.57862" lon="1.94345">
        <ele>133</ele>
        <time>2010-05-15T13:25:46Z</time>
      </trkpt>
      <trkpt lat="48.57861" lon="1.94346">
        <ele>133</ele>
        <time>2010-05-15T13:25:47Z</time>
      </trkpt>
      <trkpt lat="48.57859" lon="1.94347">
        <ele>133</ele>
        <time>2010-05-15T13:25:48Z</time>
      </trkpt>
      <trkpt lat="48.57857" lon="1.94347">
        <ele>133</ele>
        <time>2010-05-15T13:25:49Z</time>
      </trkpt>
      <trkpt lat="48.57856" lon="1.94348">
        <ele>133</ele>
        <time>2010-05-15T13:25:50Z</time>
      </trkpt>
      <trkpt lat="48.57854" lon="1.94349">
        <ele>133</ele>
        <time>2010-05-15T13:25:51Z</time>
      </trkpt>
      <trkpt lat="48.57852" lon="1.9435">
        <ele>133</ele>
        <time>2010-05-15T13:25:52Z</time>
      </trkpt>
      <trkpt lat="48.5785" lon="1.94351">
        <ele>133</ele>
        <time>2010-05-15T13:25:53Z</time>
      </trkpt>
      <trkpt lat="48.57848" lon="1.94352">
        <ele>133</ele>
        <time>2010-05-15T13:25:54Z</time>
      </trkpt>
      <trkpt lat="48.57847" lon="1.94352">
        <ele>133</ele>
        <time>2010-05-15T13:25:55Z</time>
      </trkpt>
      <trkpt lat="48.57845" lon="1.94353">
        <ele>133</ele>
        <time>2010-05-15T13:25:56Z</time>
      </trkpt>
      <trkpt lat="48.57843" lon="1.94353">
        <ele>133</ele>
        <time>2010-05-15T13:25:57Z</time>
      </trkpt>
      <trkpt lat="48.57841" lon="1.94354">
        <ele>133</ele>
        <time>2010-05-15T13:25:58Z</time>
      </trkpt>
      <trkpt lat="48.5784" lon="1.94354">
        <ele>133</ele>
        <time>2010-05-15T13:25:59Z</time>
      </trkpt>
      <trkpt lat="48.57838" lon="1.94354">
        <ele>133</ele>
        <time>2010-05-15T13:26:00Z</time>
      </trkpt>
      <trkpt lat="48.57836" lon="1.94354">
        <ele>133</ele>
        <time>2010-05-15T13:26:01Z</time>
      </trkpt>
      <trkpt lat="48.57834" lon="1.94354">
        <ele>133</ele>
        <time>2010-05-15T13:26:02Z</time>
      </trkpt>
      <trkpt lat="48.57833" lon="1.94354">
        <ele>133</ele>
        <time>2010-05-15T13:26:03Z</time>
      </trkpt>
      <trkpt lat="48.57831" lon="1.94354">
        <ele>133</ele>
        <time>2010-05-15T13:26:04Z</time>
      </trkpt>
      <trkpt lat="48.5783" lon="1.94354">
        <ele>133</ele>
        <time>2010-05-15T13:26:05Z</time>
      </trkpt>
      <trkpt lat="48.57828" lon="1.94354">
        <ele>133</ele>
        <time>2010-05-15T13:26:06Z</time>
      </trkpt>
      <trkpt lat="48.57827" lon="1.94354">
        <ele>133</ele>
        <time>2010-05-15T13:26:07Z</time>
      </trkpt>
      <trkpt lat="48.57825" lon="1.94354">
        <ele>133</ele>
        <time>2010-05-15T13:26:08Z</time>
      </trkpt>
      <trkpt lat="48.57824" lon="1.94354">
        <ele>133</ele>
        <time>2010-05-15T13:26:09Z</time>
      </trkpt>
      <trkpt lat="48.57822" lon="1.94353">
        <ele>133</ele>
        <time>2010-05-15T13:26:10Z</time>
      </trkpt>
      <trkpt lat="48.5782" lon="1.94353">
        <ele>133</ele>
        <time>2010-05-15T13:26:11Z</time>
      </trkpt>
      <trkpt lat="48.57818" lon="1.94353">
        <ele>133</ele>
        <time>2010-05-15T13:26:12Z</time>
      </trkpt>
      <trkpt lat="48.57816" lon="1.94352">
        <ele>133</ele>
        <time>2010-05-15T13:26:13Z</time>
      </trkpt>
      <trkpt lat="48.57815" lon="1.94352">
        <ele>133</ele>
        <time>2010-05-15T13:26:14Z</time>
      </trkpt>
      <trkpt lat="48.57813" lon="1.94351">
        <ele>133</ele>
        <time>2010-05-15T13:26:15Z</time>
      </trkpt>
      <trkpt lat="48.57811" lon="1.94351">
        <ele>133</ele>
        <time>2010-05-15T13:26:16Z</time>
      </trkpt>
      <trkpt lat="48.57808" lon="1.94351">
        <ele>133</ele>
        <time>2010-05-15T13:26:17Z</time>
      </trkpt>
      <trkpt lat="48.57805" lon="1.94351">
        <ele>133</ele>
        <time>2010-05-15T13:26:18Z</time>
      </trkpt>
      <trkpt lat="48.57803" lon="1.94352">
        <ele>133</ele>
        <time>2010-05-15T13:26:19Z</time>
      </trkpt>
      <trkpt lat="48.57801" lon="1.94354">
        <ele>133</ele>
        <time>2010-05-15T13:26:20Z</time>
      </trkpt>
      <trkpt lat="48.57799" lon="1.94355">
        <ele>133</ele>
        <time>2010-05-15T13:26:21Z</time>
      </trkpt>
      <trkpt lat="48.57797" lon="1.94356">
        <ele>133</ele>
        <time>2010-05-15T13:26:22Z</time>
      </trkpt>
      <trkpt lat="48.57795" lon="1.94357">
        <ele>133</ele>
        <time>2010-05-15T13:26:23Z</time>
      </trkpt>
      <trkpt lat="48.57794" lon="1.94357">
        <ele>133</ele>
        <time>2010-05-15T13:26:24Z</time>
      </trkpt>
      <trkpt lat="48.57792" lon="1.94359">
        <ele>132</ele>
        <time>2010-05-15T13:26:26Z</time>
      </trkpt>
      <trkpt lat="48.57791" lon="1.9436">
        <ele>132</ele>
        <time>2010-05-15T13:26:27Z</time>
      </trkpt>
      <trkpt lat="48.57789" lon="1.94363">
        <ele>130</ele>
        <time>2010-05-15T13:26:29Z</time>
      </trkpt>
      <trkpt lat="48.57788" lon="1.94365">
        <ele>129</ele>
        <time>2010-05-15T13:26:30Z</time>
      </trkpt>
      <trkpt lat="48.57787" lon="1.94367">
        <ele>128</ele>
        <time>2010-05-15T13:26:31Z</time>
      </trkpt>
      <trkpt lat="48.57787" lon="1.94369">
        <ele>127</ele>
        <time>2010-05-15T13:26:32Z</time>
      </trkpt>
      <trkpt lat="48.57786" lon="1.9437">
        <ele>126</ele>
        <time>2010-05-15T13:26:33Z</time>
      </trkpt>
      <trkpt lat="48.57786" lon="1.94372">
        <ele>126</ele>
        <time>2010-05-15T13:26:34Z</time>
      </trkpt>
      <trkpt lat="48.57785" lon="1.94374">
        <ele>125</ele>
        <time>2010-05-15T13:26:35Z</time>
      </trkpt>
      <trkpt lat="48.57785" lon="1.94377">
        <ele>125</ele>
        <time>2010-05-15T13:26:36Z</time>
      </trkpt>
      <trkpt lat="48.57784" lon="1.94379">
        <ele>125</ele>
        <time>2010-05-15T13:26:37Z</time>
      </trkpt>
      <trkpt lat="48.57784" lon="1.94381">
        <ele>125</ele>
        <time>2010-05-15T13:26:38Z</time>
      </trkpt>
      <trkpt lat="48.57783" lon="1.94384">
        <ele>125</ele>
        <time>2010-05-15T13:26:39Z</time>
      </trkpt>
      <trkpt lat="48.57783" lon="1.94386">
        <ele>125</ele>
        <time>2010-05-15T13:26:40Z</time>
      </trkpt>
      <trkpt lat="48.57783" lon="1.94388">
        <ele>125</ele>
        <time>2010-05-15T13:26:41Z</time>
      </trkpt>
      <trkpt lat="48.57782" lon="1.9439">
        <ele>125</ele>
        <time>2010-05-15T13:26:42Z</time>
      </trkpt>
      <trkpt lat="48.57782" lon="1.94392">
        <ele>125</ele>
        <time>2010-05-15T13:26:43Z</time>
      </trkpt>
      <trkpt lat="48.57781" lon="1.94394">
        <ele>125</ele>
        <time>2010-05-15T13:26:44Z</time>
      </trkpt>
      <trkpt lat="48.5778" lon="1.94396">
        <ele>125</ele>
        <time>2010-05-15T13:26:45Z</time>
      </trkpt>
      <trkpt lat="48.5778" lon="1.94399">
        <ele>125</ele>
        <time>2010-05-15T13:26:46Z</time>
      </trkpt>
      <trkpt lat="48.57779" lon="1.944">
        <ele>125</ele>
        <time>2010-05-15T13:26:47Z</time>
      </trkpt>
      <trkpt lat="48.57779" lon="1.94402">
        <ele>125</ele>
        <time>2010-05-15T13:26:48Z</time>
      </trkpt>
      <trkpt lat="48.57779" lon="1.94404">
        <ele>125</ele>
        <time>2010-05-15T13:26:49Z</time>
      </trkpt>
      <trkpt lat="48.57778" lon="1.94407">
        <ele>125</ele>
        <time>2010-05-15T13:26:50Z</time>
      </trkpt>
      <trkpt lat="48.57778" lon="1.9441">
        <ele>125</ele>
        <time>2010-05-15T13:26:51Z</time>
      </trkpt>
      <trkpt lat="48.57778" lon="1.94412">
        <ele>125</ele>
        <time>2010-05-15T13:26:52Z</time>
      </trkpt>
      <trkpt lat="48.57778" lon="1.94414">
        <ele>125</ele>
        <time>2010-05-15T13:26:53Z</time>
      </trkpt>
      <trkpt lat="48.57778" lon="1.94416">
        <ele>125</ele>
        <time>2010-05-15T13:26:54Z</time>
      </trkpt>
      <trkpt lat="48.57777" lon="1.94418">
        <ele>125</ele>
        <time>2010-05-15T13:26:55Z</time>
      </trkpt>
      <trkpt lat="48.57778" lon="1.94421">
        <ele>125</ele>
        <time>2010-05-15T13:26:56Z</time>
      </trkpt>
      <trkpt lat="48.57778" lon="1.94423">
        <ele>125</ele>
        <time>2010-05-15T13:26:57Z</time>
      </trkpt>
      <trkpt lat="48.57778" lon="1.94426">
        <ele>125</ele>
        <time>2010-05-15T13:26:58Z</time>
      </trkpt>
      <trkpt lat="48.57778" lon="1.94429">
        <ele>125</ele>
        <time>2010-05-15T13:26:59Z</time>
      </trkpt>
      <trkpt lat="48.57778" lon="1.94432">
        <ele>125</ele>
        <time>2010-05-15T13:27:00Z</time>
      </trkpt>
      <trkpt lat="48.57778" lon="1.94434">
        <ele>125</ele>
        <time>2010-05-15T13:27:01Z</time>
      </trkpt>
      <trkpt lat="48.57778" lon="1.94436">
        <ele>125</ele>
        <time>2010-05-15T13:27:02Z</time>
      </trkpt>
      <trkpt lat="48.57778" lon="1.94439">
        <ele>125</ele>
        <time>2010-05-15T13:27:03Z</time>
      </trkpt>
      <trkpt lat="48.57778" lon="1.94441">
        <ele>125</ele>
        <time>2010-05-15T13:27:04Z</time>
      </trkpt>
      <trkpt lat="48.57777" lon="1.94443">
        <ele>125</ele>
        <time>2010-05-15T13:27:05Z</time>
      </trkpt>
      <trkpt lat="48.57777" lon="1.94445">
        <ele>125</ele>
        <time>2010-05-15T13:27:06Z</time>
      </trkpt>
      <trkpt lat="48.57776" lon="1.94447">
        <ele>125</ele>
        <time>2010-05-15T13:27:07Z</time>
      </trkpt>
      <trkpt lat="48.57776" lon="1.94449">
        <ele>125</ele>
        <time>2010-05-15T13:27:08Z</time>
      </trkpt>
      <trkpt lat="48.57775" lon="1.94451">
        <ele>125</ele>
        <time>2010-05-15T13:27:09Z</time>
      </trkpt>
      <trkpt lat="48.57775" lon="1.94454">
        <ele>125</ele>
        <time>2010-05-15T13:27:10Z</time>
      </trkpt>
      <trkpt lat="48.57775" lon="1.94456">
        <ele>125</ele>
        <time>2010-05-15T13:27:11Z</time>
      </trkpt>
      <trkpt lat="48.57775" lon="1.94459">
        <ele>125</ele>
        <time>2010-05-15T13:27:12Z</time>
      </trkpt>
      <trkpt lat="48.57775" lon="1.94462">
        <ele>125</ele>
        <time>2010-05-15T13:27:13Z</time>
      </trkpt>
      <trkpt lat="48.57775" lon="1.94464">
        <ele>125</ele>
        <time>2010-05-15T13:27:14Z</time>
      </trkpt>
      <trkpt lat="48.57774" lon="1.94467">
        <ele>125</ele>
        <time>2010-05-15T13:27:15Z</time>
      </trkpt>
      <trkpt lat="48.57774" lon="1.94469">
        <ele>125</ele>
        <time>2010-05-15T13:27:16Z</time>
      </trkpt>
      <trkpt lat="48.57773" lon="1.94472">
        <ele>125</ele>
        <time>2010-05-15T13:27:17Z</time>
      </trkpt>
      <trkpt lat="48.57773" lon="1.94474">
        <ele>125</ele>
        <time>2010-05-15T13:27:18Z</time>
      </trkpt>
      <trkpt lat="48.57772" lon="1.94477">
        <ele>125</ele>
        <time>2010-05-15T13:27:19Z</time>
      </trkpt>
      <trkpt lat="48.57772" lon="1.94479">
        <ele>125</ele>
        <time>2010-05-15T13:27:20Z</time>
      </trkpt>
      <trkpt lat="48.57771" lon="1.94481">
        <ele>125</ele>
        <time>2010-05-15T13:27:21Z</time>
      </trkpt>
      <trkpt lat="48.57771" lon="1.94484">
        <ele>125</ele>
        <time>2010-05-15T13:27:22Z</time>
      </trkpt>
      <trkpt lat="48.5777" lon="1.94487">
        <ele>125</ele>
        <time>2010-05-15T13:27:23Z</time>
      </trkpt>
      <trkpt lat="48.5777" lon="1.94489">
        <ele>125</ele>
        <time>2010-05-15T13:27:24Z</time>
      </trkpt>
      <trkpt lat="48.5777" lon="1.94492">
        <ele>125</ele>
        <time>2010-05-15T13:27:25Z</time>
      </trkpt>
      <trkpt lat="48.5777" lon="1.94494">
        <ele>125</ele>
        <time>2010-05-15T13:27:26Z</time>
      </trkpt>
      <trkpt lat="48.5777" lon="1.94497">
        <ele>125</ele>
        <time>2010-05-15T13:27:27Z</time>
      </trkpt>
      <trkpt lat="48.5777" lon="1.94499">
        <ele>125</ele>
        <time>2010-05-15T13:27:28Z</time>
      </trkpt>
      <trkpt lat="48.57769" lon="1.94501">
        <ele>125</ele>
        <time>2010-05-15T13:27:29Z</time>
      </trkpt>
      <trkpt lat="48.57768" lon="1.94503">
        <ele>125</ele>
        <time>2010-05-15T13:27:30Z</time>
      </trkpt>
      <trkpt lat="48.57768" lon="1.94506">
        <ele>125</ele>
        <time>2010-05-15T13:27:31Z</time>
      </trkpt>
      <trkpt lat="48.57767" lon="1.94508">
        <ele>125</ele>
        <time>2010-05-15T13:27:32Z</time>
      </trkpt>
      <trkpt lat="48.57767" lon="1.9451">
        <ele>125</ele>
        <time>2010-05-15T13:27:33Z</time>
      </trkpt>
      <trkpt lat="48.57766" lon="1.94512">
        <ele>125</ele>
        <time>2010-05-15T13:27:34Z</time>
      </trkpt>
      <trkpt lat="48.57766" lon="1.94514">
        <ele>125</ele>
        <time>2010-05-15T13:27:35Z</time>
      </trkpt>
      <trkpt lat="48.57765" lon="1.94516">
        <ele>125</ele>
        <time>2010-05-15T13:27:36Z</time>
      </trkpt>
      <trkpt lat="48.57765" lon="1.94519">
        <ele>125</ele>
        <time>2010-05-15T13:27:38Z</time>
      </trkpt>
      <trkpt lat="48.57765" lon="1.94522">
        <ele>125</ele>
        <time>2010-05-15T13:27:40Z</time>
      </trkpt>
      <trkpt lat="48.57764" lon="1.94524">
        <ele>125</ele>
        <time>2010-05-15T13:27:41Z</time>
      </trkpt>
      <trkpt lat="48.57764" lon="1.94526">
        <ele>125</ele>
        <time>2010-05-15T13:27:42Z</time>
      </trkpt>
      <trkpt lat="48.57764" lon="1.94528">
        <ele>125</ele>
        <time>2010-05-15T13:27:43Z</time>
      </trkpt>
      <trkpt lat="48.57763" lon="1.9453">
        <ele>125</ele>
        <time>2010-05-15T13:27:44Z</time>
      </trkpt>
      <trkpt lat="48.57764" lon="1.94531">
        <ele>125</ele>
        <time>2010-05-15T13:27:45Z</time>
      </trkpt>
      <trkpt lat="48.57764" lon="1.94534">
        <ele>125</ele>
        <time>2010-05-15T13:27:46Z</time>
      </trkpt>
      <trkpt lat="48.57763" lon="1.94536">
        <ele>125</ele>
        <time>2010-05-15T13:27:47Z</time>
      </trkpt>
      <trkpt lat="48.57764" lon="1.94538">
        <ele>125</ele>
        <time>2010-05-15T13:27:48Z</time>
      </trkpt>
      <trkpt lat="48.57764" lon="1.94541">
        <ele>125</ele>
        <time>2010-05-15T13:27:49Z</time>
      </trkpt>
      <trkpt lat="48.57763" lon="1.94543">
        <ele>125</ele>
        <time>2010-05-15T13:27:50Z</time>
      </trkpt>
      <trkpt lat="48.57764" lon="1.94549">
        <ele>125</ele>
        <time>2010-05-15T13:27:51Z</time>
      </trkpt>
      <trkpt lat="48.57764" lon="1.94552">
        <ele>125</ele>
        <time>2010-05-15T13:27:52Z</time>
      </trkpt>
      <trkpt lat="48.57764" lon="1.94556">
        <ele>125</ele>
        <time>2010-05-15T13:27:53Z</time>
      </trkpt>
      <trkpt lat="48.57764" lon="1.94559">
        <ele>125</ele>
        <time>2010-05-15T13:27:54Z</time>
      </trkpt>
      <trkpt lat="48.57763" lon="1.94562">
        <ele>125</ele>
        <time>2010-05-15T13:27:55Z</time>
      </trkpt>
      <trkpt lat="48.57763" lon="1.94565">
        <ele>125</ele>
        <time>2010-05-15T13:27:56Z</time>
      </trkpt>
      <trkpt lat="48.57762" lon="1.94567">
        <ele>125</ele>
        <time>2010-05-15T13:27:57Z</time>
      </trkpt>
      <trkpt lat="48.57762" lon="1.94569">
        <ele>125</ele>
        <time>2010-05-15T13:27:58Z</time>
      </trkpt>
      <trkpt lat="48.57762" lon="1.94572">
        <ele>125</ele>
        <time>2010-05-15T13:27:59Z</time>
      </trkpt>
      <trkpt lat="48.57762" lon="1.94574">
        <ele>125</ele>
        <time>2010-05-15T13:28:00Z</time>
      </trkpt>
      <trkpt lat="48.57761" lon="1.94576">
        <ele>125</ele>
        <time>2010-05-15T13:28:01Z</time>
      </trkpt>
      <trkpt lat="48.57761" lon="1.94578">
        <ele>125</ele>
        <time>2010-05-15T13:28:02Z</time>
      </trkpt>
      <trkpt lat="48.5776" lon="1.9458">
        <ele>125</ele>
        <time>2010-05-15T13:28:03Z</time>
      </trkpt>
      <trkpt lat="48.57759" lon="1.94583">
        <ele>125</ele>
        <time>2010-05-15T13:28:04Z</time>
      </trkpt>
      <trkpt lat="48.57759" lon="1.94585">
        <ele>125</ele>
        <time>2010-05-15T13:28:05Z</time>
      </trkpt>
      <trkpt lat="48.57758" lon="1.94587">
        <ele>125</ele>
        <time>2010-05-15T13:28:06Z</time>
      </trkpt>
      <trkpt lat="48.57757" lon="1.94589">
        <ele>125</ele>
        <time>2010-05-15T13:28:07Z</time>
      </trkpt>
      <trkpt lat="48.57757" lon="1.94591">
        <ele>125</ele>
        <time>2010-05-15T13:28:08Z</time>
      </trkpt>
      <trkpt lat="48.57756" lon="1.94593">
        <ele>125</ele>
        <time>2010-05-15T13:28:09Z</time>
      </trkpt>
      <trkpt lat="48.57756" lon="1.94596">
        <ele>125</ele>
        <time>2010-05-15T13:28:10Z</time>
      </trkpt>
      <trkpt lat="48.57756" lon="1.94599">
        <ele>125</ele>
        <time>2010-05-15T13:28:11Z</time>
      </trkpt>
      <trkpt lat="48.57756" lon="1.94602">
        <ele>125</ele>
        <time>2010-05-15T13:28:12Z</time>
      </trkpt>
      <trkpt lat="48.57757" lon="1.94606">
        <ele>125</ele>
        <time>2010-05-15T13:28:13Z</time>
      </trkpt>
      <trkpt lat="48.57757" lon="1.94609">
        <ele>125</ele>
        <time>2010-05-15T13:28:14Z</time>
      </trkpt>
      <trkpt lat="48.57757" lon="1.94613">
        <ele>125</ele>
        <time>2010-05-15T13:28:15Z</time>
      </trkpt>
      <trkpt lat="48.57758" lon="1.94616">
        <ele>124</ele>
        <time>2010-05-15T13:28:16Z</time>
      </trkpt>
      <trkpt lat="48.57758" lon="1.9462">
        <ele>123</ele>
        <time>2010-05-15T13:28:17Z</time>
      </trkpt>
      <trkpt lat="48.57759" lon="1.94622">
        <ele>123</ele>
        <time>2010-05-15T13:28:18Z</time>
      </trkpt>
      <trkpt lat="48.57759" lon="1.94626">
        <ele>122</ele>
        <time>2010-05-15T13:28:19Z</time>
      </trkpt>
      <trkpt lat="48.57758" lon="1.94628">
        <ele>122</ele>
        <time>2010-05-15T13:28:20Z</time>
      </trkpt>
      <trkpt lat="48.57758" lon="1.94631">
        <ele>122</ele>
        <time>2010-05-15T13:28:21Z</time>
      </trkpt>
      <trkpt lat="48.57757" lon="1.94634">
        <ele>122</ele>
        <time>2010-05-15T13:28:22Z</time>
      </trkpt>
      <trkpt lat="48.57757" lon="1.94637">
        <ele>122</ele>
        <time>2010-05-15T13:28:23Z</time>
      </trkpt>
      <trkpt lat="48.57756" lon="1.94639">
        <ele>122</ele>
        <time>2010-05-15T13:28:24Z</time>
      </trkpt>
      <trkpt lat="48.57755" lon="1.94641">
        <ele>122</ele>
        <time>2010-05-15T13:28:25Z</time>
      </trkpt>
      <trkpt lat="48.57755" lon="1.94643">
        <ele>122</ele>
        <time>2010-05-15T13:28:26Z</time>
      </trkpt>
      <trkpt lat="48.57754" lon="1.94646">
        <ele>122</ele>
        <time>2010-05-15T13:28:27Z</time>
      </trkpt>
      <trkpt lat="48.57753" lon="1.94647">
        <ele>122</ele>
        <time>2010-05-15T13:28:28Z</time>
      </trkpt>
      <trkpt lat="48.57753" lon="1.9465">
        <ele>122</ele>
        <time>2010-05-15T13:28:29Z</time>
      </trkpt>
      <trkpt lat="48.57751" lon="1.94652">
        <ele>122</ele>
        <time>2010-05-15T13:28:31Z</time>
      </trkpt>
      <trkpt lat="48.5775" lon="1.94654">
        <ele>122</ele>
        <time>2010-05-15T13:28:32Z</time>
      </trkpt>
      <trkpt lat="48.57749" lon="1.94656">
        <ele>122</ele>
        <time>2010-05-15T13:28:33Z</time>
      </trkpt>
      <trkpt lat="48.57748" lon="1.94659">
        <ele>122</ele>
        <time>2010-05-15T13:28:34Z</time>
      </trkpt>
      <trkpt lat="48.57748" lon="1.94662">
        <ele>122</ele>
        <time>2010-05-15T13:28:35Z</time>
      </trkpt>
      <trkpt lat="48.57748" lon="1.94665">
        <ele>121</ele>
        <time>2010-05-15T13:28:36Z</time>
      </trkpt>
      <trkpt lat="48.57748" lon="1.94668">
        <ele>121</ele>
        <time>2010-05-15T13:28:37Z</time>
      </trkpt>
      <trkpt lat="48.57749" lon="1.94671">
        <ele>121</ele>
        <time>2010-05-15T13:28:38Z</time>
      </trkpt>
      <trkpt lat="48.57749" lon="1.94674">
        <ele>121</ele>
        <time>2010-05-15T13:28:39Z</time>
      </trkpt>
      <trkpt lat="48.57749" lon="1.94675">
        <ele>121</ele>
        <time>2010-05-15T13:28:40Z</time>
      </trkpt>
      <trkpt lat="48.57749" lon="1.9468">
        <ele>120</ele>
        <time>2010-05-15T13:28:43Z</time>
      </trkpt>
      <trkpt lat="48.5775" lon="1.94684">
        <ele>119</ele>
        <time>2010-05-15T13:28:44Z</time>
      </trkpt>
      <trkpt lat="48.57751" lon="1.94687">
        <ele>118</ele>
        <time>2010-05-15T13:28:45Z</time>
      </trkpt>
      <trkpt lat="48.57752" lon="1.9469">
        <ele>117</ele>
        <time>2010-05-15T13:28:46Z</time>
      </trkpt>
      <trkpt lat="48.57753" lon="1.94694">
        <ele>116</ele>
        <time>2010-05-15T13:28:47Z</time>
      </trkpt>
      <trkpt lat="48.57753" lon="1.94697">
        <ele>115</ele>
        <time>2010-05-15T13:28:48Z</time>
      </trkpt>
      <trkpt lat="48.57754" lon="1.947">
        <ele>114</ele>
        <time>2010-05-15T13:28:49Z</time>
      </trkpt>
      <trkpt lat="48.57754" lon="1.94704">
        <ele>114</ele>
        <time>2010-05-15T13:28:50Z</time>
      </trkpt>
      <trkpt lat="48.57755" lon="1.94706">
        <ele>114</ele>
        <time>2010-05-15T13:28:51Z</time>
      </trkpt>
      <trkpt lat="48.57755" lon="1.94708">
        <ele>114</ele>
        <time>2010-05-15T13:28:52Z</time>
      </trkpt>
      <trkpt lat="48.57756" lon="1.94714">
        <ele>114</ele>
        <time>2010-05-15T13:28:55Z</time>
      </trkpt>
      <trkpt lat="48.57755" lon="1.94718">
        <ele>114</ele>
        <time>2010-05-15T13:28:56Z</time>
      </trkpt>
      <trkpt lat="48.57754" lon="1.94722">
        <ele>114</ele>
        <time>2010-05-15T13:28:57Z</time>
      </trkpt>
      <trkpt lat="48.57753" lon="1.94725">
        <ele>113</ele>
        <time>2010-05-15T13:28:58Z</time>
      </trkpt>
      <trkpt lat="48.57751" lon="1.94726">
        <ele>113</ele>
        <time>2010-05-15T13:28:59Z</time>
      </trkpt>
      <trkpt lat="48.5775" lon="1.94728">
        <ele>113</ele>
        <time>2010-05-15T13:29:00Z</time>
      </trkpt>
      <trkpt lat="48.5775" lon="1.94731">
        <ele>113</ele>
        <time>2010-05-15T13:29:01Z</time>
      </trkpt>
      <trkpt lat="48.5775" lon="1.94733">
        <ele>113</ele>
        <time>2010-05-15T13:29:02Z</time>
      </trkpt>
      <trkpt lat="48.5775" lon="1.94736">
        <ele>113</ele>
        <time>2010-05-15T13:29:03Z</time>
      </trkpt>
      <trkpt lat="48.57751" lon="1.94739">
        <ele>113</ele>
        <time>2010-05-15T13:29:04Z</time>
      </trkpt>
      <trkpt lat="48.57752" lon="1.94743">
        <ele>113</ele>
        <time>2010-05-15T13:29:05Z</time>
      </trkpt>
      <trkpt lat="48.57752" lon="1.94745">
        <ele>113</ele>
        <time>2010-05-15T13:29:06Z</time>
      </trkpt>
      <trkpt lat="48.57751" lon="1.94748">
        <ele>113</ele>
        <time>2010-05-15T13:29:07Z</time>
      </trkpt>
      <trkpt lat="48.57753" lon="1.94752">
        <ele>113</ele>
        <time>2010-05-15T13:29:09Z</time>
      </trkpt>
      <trkpt lat="48.57756" lon="1.94756">
        <ele>113</ele>
        <time>2010-05-15T13:29:10Z</time>
      </trkpt>
      <trkpt lat="48.57758" lon="1.94759">
        <ele>113</ele>
        <time>2010-05-15T13:29:11Z</time>
      </trkpt>
      <trkpt lat="48.57759" lon="1.94761">
        <ele>113</ele>
        <time>2010-05-15T13:29:12Z</time>
      </trkpt>
      <trkpt lat="48.5776" lon="1.94763">
        <ele>113</ele>
        <time>2010-05-15T13:29:13Z</time>
      </trkpt>
      <trkpt lat="48.57761" lon="1.94765">
        <ele>113</ele>
        <time>2010-05-15T13:29:14Z</time>
      </trkpt>
      <trkpt lat="48.57762" lon="1.94767">
        <ele>113</ele>
        <time>2010-05-15T13:29:15Z</time>
      </trkpt>
      <trkpt lat="48.57762" lon="1.9477">
        <ele>113</ele>
        <time>2010-05-15T13:29:16Z</time>
      </trkpt>
      <trkpt lat="48.57762" lon="1.94772">
        <ele>113</ele>
        <time>2010-05-15T13:29:17Z</time>
      </trkpt>
      <trkpt lat="48.57764" lon="1.94776">
        <ele>113</ele>
        <time>2010-05-15T13:29:19Z</time>
      </trkpt>
      <trkpt lat="48.57764" lon="1.94778">
        <ele>113</ele>
        <time>2010-05-15T13:29:20Z</time>
      </trkpt>
      <trkpt lat="48.57765" lon="1.9478">
        <ele>113</ele>
        <time>2010-05-15T13:29:21Z</time>
      </trkpt>
      <trkpt lat="48.57765" lon="1.94782">
        <ele>113</ele>
        <time>2010-05-15T13:29:22Z</time>
      </trkpt>
      <trkpt lat="48.57766" lon="1.94784">
        <ele>113</ele>
        <time>2010-05-15T13:29:24Z</time>
      </trkpt>
      <trkpt lat="48.57768" lon="1.94786">
        <ele>113</ele>
        <time>2010-05-15T13:29:26Z</time>
      </trkpt>
      <trkpt lat="48.57769" lon="1.94788">
        <ele>113</ele>
        <time>2010-05-15T13:29:28Z</time>
      </trkpt>
      <trkpt lat="48.57769" lon="1.94791">
        <ele>113</ele>
        <time>2010-05-15T13:29:29Z</time>
      </trkpt>
      <trkpt lat="48.5777" lon="1.94793">
        <ele>114</ele>
        <time>2010-05-15T13:29:30Z</time>
      </trkpt>
      <trkpt lat="48.57771" lon="1.94795">
        <ele>114</ele>
        <time>2010-05-15T13:29:31Z</time>
      </trkpt>
      <trkpt lat="48.57771" lon="1.94797">
        <ele>114</ele>
        <time>2010-05-15T13:29:32Z</time>
      </trkpt>
      <trkpt lat="48.57772" lon="1.94799">
        <ele>114</ele>
        <time>2010-05-15T13:29:33Z</time>
      </trkpt>
      <trkpt lat="48.57774" lon="1.94802">
        <ele>114</ele>
        <time>2010-05-15T13:29:35Z</time>
      </trkpt>
      <trkpt lat="48.57775" lon="1.94804">
        <ele>114</ele>
        <time>2010-05-15T13:29:36Z</time>
      </trkpt>
      <trkpt lat="48.57775" lon="1.94807">
        <ele>114</ele>
        <time>2010-05-15T13:29:37Z</time>
      </trkpt>
      <trkpt lat="48.57776" lon="1.94809">
        <ele>114</ele>
        <time>2010-05-15T13:29:38Z</time>
      </trkpt>
      <trkpt lat="48.57776" lon="1.94812">
        <ele>114</ele>
        <time>2010-05-15T13:29:39Z</time>
      </trkpt>
      <trkpt lat="48.57776" lon="1.94814">
        <ele>114</ele>
        <time>2010-05-15T13:29:40Z</time>
      </trkpt>
      <trkpt lat="48.57777" lon="1.94816">
        <ele>114</ele>
        <time>2010-05-15T13:29:41Z</time>
      </trkpt>
      <trkpt lat="48.57776" lon="1.94818">
        <ele>114</ele>
        <time>2010-05-15T13:29:42Z</time>
      </trkpt>
      <trkpt lat="48.57776" lon="1.9482">
        <ele>114</ele>
        <time>2010-05-15T13:29:43Z</time>
      </trkpt>
      <trkpt lat="48.57777" lon="1.94823">
        <ele>114</ele>
        <time>2010-05-15T13:29:44Z</time>
      </trkpt>
      <trkpt lat="48.57778" lon="1.94826">
        <ele>114</ele>
        <time>2010-05-15T13:29:45Z</time>
      </trkpt>
      <trkpt lat="48.57778" lon="1.94829">
        <ele>114</ele>
        <time>2010-05-15T13:29:46Z</time>
      </trkpt>
      <trkpt lat="48.57779" lon="1.94831">
        <ele>114</ele>
        <time>2010-05-15T13:29:47Z</time>
      </trkpt>
      <trkpt lat="48.5778" lon="1.94833">
        <ele>114</ele>
        <time>2010-05-15T13:29:48Z</time>
      </trkpt>
      <trkpt lat="48.57781" lon="1.94835">
        <ele>114</ele>
        <time>2010-05-15T13:29:49Z</time>
      </trkpt>
      <trkpt lat="48.57782" lon="1.94837">
        <ele>114</ele>
        <time>2010-05-15T13:29:50Z</time>
      </trkpt>
      <trkpt lat="48.57783" lon="1.94839">
        <ele>114</ele>
        <time>2010-05-15T13:29:51Z</time>
      </trkpt>
      <trkpt lat="48.57785" lon="1.94842">
        <ele>114</ele>
        <time>2010-05-15T13:29:53Z</time>
      </trkpt>
      <trkpt lat="48.57785" lon="1.94845">
        <ele>114</ele>
        <time>2010-05-15T13:29:54Z</time>
      </trkpt>
      <trkpt lat="48.57785" lon="1.94847">
        <ele>114</ele>
        <time>2010-05-15T13:29:55Z</time>
      </trkpt>
      <trkpt lat="48.57785" lon="1.9485">
        <ele>112</ele>
        <time>2010-05-15T13:29:57Z</time>
      </trkpt>
      <trkpt lat="48.57785" lon="1.94852">
        <ele>111</ele>
        <time>2010-05-15T13:29:58Z</time>
      </trkpt>
      <trkpt lat="48.57784" lon="1.94854">
        <ele>110</ele>
        <time>2010-05-15T13:29:59Z</time>
      </trkpt>
      <trkpt lat="48.57784" lon="1.94858">
        <ele>108</ele>
        <time>2010-05-15T13:30:01Z</time>
      </trkpt>
      <trkpt lat="48.57785" lon="1.94861">
        <ele>107</ele>
        <time>2010-05-15T13:30:02Z</time>
      </trkpt>
      <trkpt lat="48.57785" lon="1.94863">
        <ele>107</ele>
        <time>2010-05-15T13:30:03Z</time>
      </trkpt>
      <trkpt lat="48.57785" lon="1.94866">
        <ele>107</ele>
        <time>2010-05-15T13:30:04Z</time>
      </trkpt>
      <trkpt lat="48.57784" lon="1.94868">
        <ele>107</ele>
        <time>2010-05-15T13:30:05Z</time>
      </trkpt>
      <trkpt lat="48.57783" lon="1.94872">
        <ele>106</ele>
        <time>2010-05-15T13:30:06Z</time>
      </trkpt>
      <trkpt lat="48.57782" lon="1.94876">
        <ele>106</ele>
        <time>2010-05-15T13:30:07Z</time>
      </trkpt>
      <trkpt lat="48.57781" lon="1.9488">
        <ele>106</ele>
        <time>2010-05-15T13:30:08Z</time>
      </trkpt>
      <trkpt lat="48.57781" lon="1.94883">
        <ele>106</ele>
        <time>2010-05-15T13:30:09Z</time>
      </trkpt>
      <trkpt lat="48.57781" lon="1.94886">
        <ele>106</ele>
        <time>2010-05-15T13:30:10Z</time>
      </trkpt>
      <trkpt lat="48.57782" lon="1.94888">
        <ele>106</ele>
        <time>2010-05-15T13:30:11Z</time>
      </trkpt>
      <trkpt lat="48.57783" lon="1.9489">
        <ele>106</ele>
        <time>2010-05-15T13:30:12Z</time>
      </trkpt>
      <trkpt lat="48.57786" lon="1.94894">
        <ele>107</ele>
        <time>2010-05-15T13:30:14Z</time>
      </trkpt>
      <trkpt lat="48.57786" lon="1.94897">
        <ele>108</ele>
        <time>2010-05-15T13:30:15Z</time>
      </trkpt>
      <trkpt lat="48.57786" lon="1.949">
        <ele>108</ele>
        <time>2010-05-15T13:30:16Z</time>
      </trkpt>
      <trkpt lat="48.57786" lon="1.94904">
        <ele>109</ele>
        <time>2010-05-15T13:30:17Z</time>
      </trkpt>
      <trkpt lat="48.57786" lon="1.94906">
        <ele>109</ele>
        <time>2010-05-15T13:30:18Z</time>
      </trkpt>
      <trkpt lat="48.57786" lon="1.94909">
        <ele>110</ele>
        <time>2010-05-15T13:30:19Z</time>
      </trkpt>
      <trkpt lat="48.57787" lon="1.9491">
        <ele>110</ele>
        <time>2010-05-15T13:30:20Z</time>
      </trkpt>
      <trkpt lat="48.57787" lon="1.94913">
        <ele>111</ele>
        <time>2010-05-15T13:30:21Z</time>
      </trkpt>
      <trkpt lat="48.57788" lon="1.94915">
        <ele>111</ele>
        <time>2010-05-15T13:30:22Z</time>
      </trkpt>
      <trkpt lat="48.57788" lon="1.94918">
        <ele>111</ele>
        <time>2010-05-15T13:30:23Z</time>
      </trkpt>
      <trkpt lat="48.57788" lon="1.9492">
        <ele>111</ele>
        <time>2010-05-15T13:30:24Z</time>
      </trkpt>
      <trkpt lat="48.57789" lon="1.94922">
        <ele>111</ele>
        <time>2010-05-15T13:30:25Z</time>
      </trkpt>
      <trkpt lat="48.5779" lon="1.94924">
        <ele>111</ele>
        <time>2010-05-15T13:30:26Z</time>
      </trkpt>
      <trkpt lat="48.5779" lon="1.94926">
        <ele>111</ele>
        <time>2010-05-15T13:30:27Z</time>
      </trkpt>
      <trkpt lat="48.57791" lon="1.94928">
        <ele>111</ele>
        <time>2010-05-15T13:30:28Z</time>
      </trkpt>
      <trkpt lat="48.57791" lon="1.9493">
        <ele>111</ele>
        <time>2010-05-15T13:30:29Z</time>
      </trkpt>
      <trkpt lat="48.57792" lon="1.94933">
        <ele>111</ele>
        <time>2010-05-15T13:30:30Z</time>
      </trkpt>
      <trkpt lat="48.57792" lon="1.94936">
        <ele>111</ele>
        <time>2010-05-15T13:30:31Z</time>
      </trkpt>
      <trkpt lat="48.57793" lon="1.94939">
        <ele>111</ele>
        <time>2010-05-15T13:30:32Z</time>
      </trkpt>
      <trkpt lat="48.57793" lon="1.94942">
        <ele>111</ele>
        <time>2010-05-15T13:30:33Z</time>
      </trkpt>
      <trkpt lat="48.57793" lon="1.94946">
        <ele>111</ele>
        <time>2010-05-15T13:30:34Z</time>
      </trkpt>
      <trkpt lat="48.57793" lon="1.94948">
        <ele>111</ele>
        <time>2010-05-15T13:30:35Z</time>
      </trkpt>
      <trkpt lat="48.57793" lon="1.94951">
        <ele>111</ele>
        <time>2010-05-15T13:30:36Z</time>
      </trkpt>
      <trkpt lat="48.57794" lon="1.94954">
        <ele>111</ele>
        <time>2010-05-15T13:30:37Z</time>
      </trkpt>
      <trkpt lat="48.57791" lon="1.94961">
        <ele>111</ele>
        <time>2010-05-15T13:30:41Z</time>
      </trkpt>
      <trkpt lat="48.5779" lon="1.94964">
        <ele>111</ele>
        <time>2010-05-15T13:30:42Z</time>
      </trkpt>
      <trkpt lat="48.57791" lon="1.94969">
        <ele>111</ele>
        <time>2010-05-15T13:30:43Z</time>
      </trkpt>
      <trkpt lat="48.57793" lon="1.94972">
        <ele>111</ele>
        <time>2010-05-15T13:30:44Z</time>
      </trkpt>
      <trkpt lat="48.57793" lon="1.94975">
        <ele>111</ele>
        <time>2010-05-15T13:30:45Z</time>
      </trkpt>
      <trkpt lat="48.57794" lon="1.94978">
        <ele>111</ele>
        <time>2010-05-15T13:30:46Z</time>
      </trkpt>
      <trkpt lat="48.57795" lon="1.94982">
        <ele>111</ele>
        <time>2010-05-15T13:30:48Z</time>
      </trkpt>
      <trkpt lat="48.57796" lon="1.94986">
        <ele>111</ele>
        <time>2010-05-15T13:30:49Z</time>
      </trkpt>
      <trkpt lat="48.57796" lon="1.9499">
        <ele>111</ele>
        <time>2010-05-15T13:30:50Z</time>
      </trkpt>
      <trkpt lat="48.57796" lon="1.94993">
        <ele>111</ele>
        <time>2010-05-15T13:30:51Z</time>
      </trkpt>
      <trkpt lat="48.57797" lon="1.94995">
        <ele>111</ele>
        <time>2010-05-15T13:30:52Z</time>
      </trkpt>
      <trkpt lat="48.57796" lon="1.94998">
        <ele>111</ele>
        <time>2010-05-15T13:30:53Z</time>
      </trkpt>
      <trkpt lat="48.57796" lon="1.94999">
        <ele>111</ele>
        <time>2010-05-15T13:30:54Z</time>
      </trkpt>
      <trkpt lat="48.57796" lon="1.95002">
        <ele>111</ele>
        <time>2010-05-15T13:30:56Z</time>
      </trkpt>
      <trkpt lat="48.57797" lon="1.95004">
        <ele>111</ele>
        <time>2010-05-15T13:30:57Z</time>
      </trkpt>
      <trkpt lat="48.57796" lon="1.95006">
        <ele>111</ele>
        <time>2010-05-15T13:30:59Z</time>
      </trkpt>
      <trkpt lat="48.57795" lon="1.95007">
        <ele>112</ele>
        <time>2010-05-15T13:31:02Z</time>
      </trkpt>
      <trkpt lat="48.57794" lon="1.95011">
        <ele>112</ele>
        <time>2010-05-15T13:31:04Z</time>
      </trkpt>
      <trkpt lat="48.57795" lon="1.95017">
        <ele>112</ele>
        <time>2010-05-15T13:31:05Z</time>
      </trkpt>
      <trkpt lat="48.57796" lon="1.95023">
        <ele>112</ele>
        <time>2010-05-15T13:31:06Z</time>
      </trkpt>
      <trkpt lat="48.57798" lon="1.95028">
        <ele>113</ele>
        <time>2010-05-15T13:31:07Z</time>
      </trkpt>
      <trkpt lat="48.57799" lon="1.95033">
        <ele>113</ele>
        <time>2010-05-15T13:31:08Z</time>
      </trkpt>
      <trkpt lat="48.57799" lon="1.95037">
        <ele>113</ele>
        <time>2010-05-15T13:31:09Z</time>
      </trkpt>
      <trkpt lat="48.57799" lon="1.9504">
        <ele>113</ele>
        <time>2010-05-15T13:31:10Z</time>
      </trkpt>
      <trkpt lat="48.578" lon="1.95042">
        <ele>113</ele>
        <time>2010-05-15T13:31:11Z</time>
      </trkpt>
      <trkpt lat="48.578" lon="1.95045">
        <ele>113</ele>
        <time>2010-05-15T13:31:12Z</time>
      </trkpt>
      <trkpt lat="48.578" lon="1.95048">
        <ele>113</ele>
        <time>2010-05-15T13:31:13Z</time>
      </trkpt>
      <trkpt lat="48.578" lon="1.95049">
        <ele>113</ele>
        <time>2010-05-15T13:31:14Z</time>
      </trkpt>
      <trkpt lat="48.578" lon="1.95051">
        <ele>113</ele>
        <time>2010-05-15T13:31:16Z</time>
      </trkpt>
      <trkpt lat="48.57801" lon="1.95053">
        <ele>113</ele>
        <time>2010-05-15T13:31:17Z</time>
      </trkpt>
      <trkpt lat="48.57802" lon="1.95054">
        <ele>113</ele>
        <time>2010-05-15T13:31:19Z</time>
      </trkpt>
      <trkpt lat="48.57801" lon="1.9506">
        <ele>113</ele>
        <time>2010-05-15T13:31:23Z</time>
      </trkpt>
      <trkpt lat="48.57802" lon="1.95065">
        <ele>113</ele>
        <time>2010-05-15T13:31:24Z</time>
      </trkpt>
      <trkpt lat="48.57803" lon="1.95072">
        <ele>113</ele>
        <time>2010-05-15T13:31:25Z</time>
      </trkpt>
      <trkpt lat="48.57804" lon="1.95076">
        <ele>113</ele>
        <time>2010-05-15T13:31:26Z</time>
      </trkpt>
      <trkpt lat="48.57805" lon="1.95079">
        <ele>113</ele>
        <time>2010-05-15T13:31:27Z</time>
      </trkpt>
      <trkpt lat="48.57805" lon="1.95082">
        <ele>113</ele>
        <time>2010-05-15T13:31:28Z</time>
      </trkpt>
      <trkpt lat="48.57805" lon="1.95085">
        <ele>113</ele>
        <time>2010-05-15T13:31:29Z</time>
      </trkpt>
      <trkpt lat="48.57805" lon="1.95087">
        <ele>113</ele>
        <time>2010-05-15T13:31:30Z</time>
      </trkpt>
      <trkpt lat="48.57806" lon="1.9509">
        <ele>113</ele>
        <time>2010-05-15T13:31:31Z</time>
      </trkpt>
      <trkpt lat="48.57807" lon="1.95093">
        <ele>113</ele>
        <time>2010-05-15T13:31:32Z</time>
      </trkpt>
      <trkpt lat="48.57807" lon="1.95095">
        <ele>113</ele>
        <time>2010-05-15T13:31:33Z</time>
      </trkpt>
      <trkpt lat="48.57808" lon="1.95098">
        <ele>113</ele>
        <time>2010-05-15T13:31:34Z</time>
      </trkpt>
      <trkpt lat="48.57809" lon="1.95102">
        <ele>113</ele>
        <time>2010-05-15T13:31:36Z</time>
      </trkpt>
      <trkpt lat="48.5781" lon="1.95106">
        <ele>113</ele>
        <time>2010-05-15T13:31:37Z</time>
      </trkpt>
      <trkpt lat="48.57811" lon="1.9511">
        <ele>113</ele>
        <time>2010-05-15T13:31:38Z</time>
      </trkpt>
      <trkpt lat="48.57812" lon="1.95113">
        <ele>113</ele>
        <time>2010-05-15T13:31:39Z</time>
      </trkpt>
      <trkpt lat="48.57813" lon="1.95116">
        <ele>113</ele>
        <time>2010-05-15T13:31:40Z</time>
      </trkpt>
      <trkpt lat="48.57814" lon="1.95118">
        <ele>113</ele>
        <time>2010-05-15T13:31:41Z</time>
      </trkpt>
      <trkpt lat="48.57815" lon="1.95121">
        <ele>112</ele>
        <time>2010-05-15T13:31:42Z</time>
      </trkpt>
      <trkpt lat="48.57816" lon="1.95123">
        <ele>111</ele>
        <time>2010-05-15T13:31:43Z</time>
      </trkpt>
      <trkpt lat="48.57816" lon="1.95126">
        <ele>111</ele>
        <time>2010-05-15T13:31:44Z</time>
      </trkpt>
      <trkpt lat="48.57817" lon="1.95127">
        <ele>111</ele>
        <time>2010-05-15T13:31:45Z</time>
      </trkpt>
      <trkpt lat="48.57818" lon="1.9513">
        <ele>110</ele>
        <time>2010-05-15T13:31:46Z</time>
      </trkpt>
      <trkpt lat="48.57818" lon="1.95132">
        <ele>110</ele>
        <time>2010-05-15T13:31:47Z</time>
      </trkpt>
      <trkpt lat="48.57818" lon="1.95135">
        <ele>110</ele>
        <time>2010-05-15T13:31:48Z</time>
      </trkpt>
      <trkpt lat="48.57818" lon="1.95138">
        <ele>109</ele>
        <time>2010-05-15T13:31:50Z</time>
      </trkpt>
      <trkpt lat="48.57817" lon="1.95142">
        <ele>109</ele>
        <time>2010-05-15T13:31:51Z</time>
      </trkpt>
      <trkpt lat="48.57818" lon="1.95145">
        <ele>109</ele>
        <time>2010-05-15T13:31:52Z</time>
      </trkpt>
      <trkpt lat="48.57819" lon="1.95148">
        <ele>109</ele>
        <time>2010-05-15T13:31:53Z</time>
      </trkpt>
      <trkpt lat="48.5782" lon="1.95151">
        <ele>109</ele>
        <time>2010-05-15T13:31:54Z</time>
      </trkpt>
      <trkpt lat="48.5782" lon="1.95153">
        <ele>109</ele>
        <time>2010-05-15T13:31:55Z</time>
      </trkpt>
      <trkpt lat="48.5782" lon="1.95156">
        <ele>109</ele>
        <time>2010-05-15T13:31:56Z</time>
      </trkpt>
      <trkpt lat="48.5782" lon="1.95158">
        <ele>109</ele>
        <time>2010-05-15T13:31:57Z</time>
      </trkpt>
      <trkpt lat="48.5782" lon="1.9516">
        <ele>109</ele>
        <time>2010-05-15T13:31:58Z</time>
      </trkpt>
      <trkpt lat="48.5782" lon="1.95163">
        <ele>109</ele>
        <time>2010-05-15T13:32:00Z</time>
      </trkpt>
      <trkpt lat="48.5782" lon="1.95164">
        <ele>109</ele>
        <time>2010-05-15T13:32:01Z</time>
      </trkpt>
      <trkpt lat="48.5782" lon="1.95167">
        <ele>109</ele>
        <time>2010-05-15T13:32:02Z</time>
      </trkpt>
      <trkpt lat="48.5782" lon="1.95169">
        <ele>109</ele>
        <time>2010-05-15T13:32:03Z</time>
      </trkpt>
      <trkpt lat="48.57819" lon="1.95173">
        <ele>109</ele>
        <time>2010-05-15T13:32:05Z</time>
      </trkpt>
      <trkpt lat="48.57819" lon="1.95176">
        <ele>109</ele>
        <time>2010-05-15T13:32:06Z</time>
      </trkpt>
      <trkpt lat="48.57821" lon="1.95179">
        <ele>110</ele>
        <time>2010-05-15T13:32:07Z</time>
      </trkpt>
      <trkpt lat="48.57822" lon="1.95183">
        <ele>111</ele>
        <time>2010-05-15T13:32:08Z</time>
      </trkpt>
      <trkpt lat="48.57824" lon="1.95186">
        <ele>111</ele>
        <time>2010-05-15T13:32:09Z</time>
      </trkpt>
      <trkpt lat="48.57824" lon="1.9519">
        <ele>112</ele>
        <time>2010-05-15T13:32:10Z</time>
      </trkpt>
      <trkpt lat="48.57825" lon="1.95193">
        <ele>112</ele>
        <time>2010-05-15T13:32:11Z</time>
      </trkpt>
      <trkpt lat="48.57825" lon="1.95196">
        <ele>112</ele>
        <time>2010-05-15T13:32:12Z</time>
      </trkpt>
      <trkpt lat="48.57825" lon="1.952">
        <ele>113</ele>
        <time>2010-05-15T13:32:13Z</time>
      </trkpt>
      <trkpt lat="48.57826" lon="1.95203">
        <ele>114</ele>
        <time>2010-05-15T13:32:14Z</time>
      </trkpt>
      <trkpt lat="48.57826" lon="1.95206">
        <ele>115</ele>
        <time>2010-05-15T13:32:15Z</time>
      </trkpt>
      <trkpt lat="48.57826" lon="1.9521">
        <ele>116</ele>
        <time>2010-05-15T13:32:16Z</time>
      </trkpt>
      <trkpt lat="48.57825" lon="1.95213">
        <ele>117</ele>
        <time>2010-05-15T13:32:17Z</time>
      </trkpt>
      <trkpt lat="48.57825" lon="1.95215">
        <ele>118</ele>
        <time>2010-05-15T13:32:18Z</time>
      </trkpt>
      <trkpt lat="48.57825" lon="1.95217">
        <ele>119</ele>
        <time>2010-05-15T13:32:19Z</time>
      </trkpt>
      <trkpt lat="48.57825" lon="1.95219">
        <ele>120</ele>
        <time>2010-05-15T13:32:20Z</time>
      </trkpt>
      <trkpt lat="48.57825" lon="1.95222">
        <ele>121</ele>
        <time>2010-05-15T13:32:21Z</time>
      </trkpt>
      <trkpt lat="48.57824" lon="1.95226">
        <ele>122</ele>
        <time>2010-05-15T13:32:22Z</time>
      </trkpt>
      <trkpt lat="48.57825" lon="1.95229">
        <ele>123</ele>
        <time>2010-05-15T13:32:23Z</time>
      </trkpt>
      <trkpt lat="48.57825" lon="1.95232">
        <ele>124</ele>
        <time>2010-05-15T13:32:24Z</time>
      </trkpt>
      <trkpt lat="48.57825" lon="1.95235">
        <ele>124</ele>
        <time>2010-05-15T13:32:25Z</time>
      </trkpt>
      <trkpt lat="48.57825" lon="1.95238">
        <ele>125</ele>
        <time>2010-05-15T13:32:26Z</time>
      </trkpt>
      <trkpt lat="48.57826" lon="1.95241">
        <ele>125</ele>
        <time>2010-05-15T13:32:27Z</time>
      </trkpt>
      <trkpt lat="48.57827" lon="1.95243">
        <ele>125</ele>
        <time>2010-05-15T13:32:28Z</time>
      </trkpt>
      <trkpt lat="48.57828" lon="1.95246">
        <ele>125</ele>
        <time>2010-05-15T13:32:29Z</time>
      </trkpt>
      <trkpt lat="48.57828" lon="1.95248">
        <ele>125</ele>
        <time>2010-05-15T13:32:30Z</time>
      </trkpt>
      <trkpt lat="48.57829" lon="1.9525">
        <ele>125</ele>
        <time>2010-05-15T13:32:32Z</time>
      </trkpt>
      <trkpt lat="48.57829" lon="1.95252">
        <ele>125</ele>
        <time>2010-05-15T13:32:33Z</time>
      </trkpt>
      <trkpt lat="48.57829" lon="1.95254">
        <ele>125</ele>
        <time>2010-05-15T13:32:34Z</time>
      </trkpt>
      <trkpt lat="48.57829" lon="1.95257">
        <ele>125</ele>
        <time>2010-05-15T13:32:36Z</time>
      </trkpt>
      <trkpt lat="48.57829" lon="1.95259">
        <ele>125</ele>
        <time>2010-05-15T13:32:37Z</time>
      </trkpt>
      <trkpt lat="48.5783" lon="1.95261">
        <ele>125</ele>
        <time>2010-05-15T13:32:39Z</time>
      </trkpt>
      <trkpt lat="48.57831" lon="1.95263">
        <ele>125</ele>
        <time>2010-05-15T13:32:40Z</time>
      </trkpt>
      <trkpt lat="48.57831" lon="1.95265">
        <ele>125</ele>
        <time>2010-05-15T13:32:41Z</time>
      </trkpt>
      <trkpt lat="48.57832" lon="1.95267">
        <ele>125</ele>
        <time>2010-05-15T13:32:42Z</time>
      </trkpt>
      <trkpt lat="48.57833" lon="1.9527">
        <ele>125</ele>
        <time>2010-05-15T13:32:43Z</time>
      </trkpt>
      <trkpt lat="48.57834" lon="1.95273">
        <ele>125</ele>
        <time>2010-05-15T13:32:44Z</time>
      </trkpt>
      <trkpt lat="48.57836" lon="1.95277">
        <ele>124</ele>
        <time>2010-05-15T13:32:45Z</time>
      </trkpt>
      <trkpt lat="48.57837" lon="1.95281">
        <ele>123</ele>
        <time>2010-05-15T13:32:46Z</time>
      </trkpt>
      <trkpt lat="48.57839" lon="1.95284">
        <ele>122</ele>
        <time>2010-05-15T13:32:47Z</time>
      </trkpt>
      <trkpt lat="48.5784" lon="1.95286">
        <ele>121</ele>
        <time>2010-05-15T13:32:48Z</time>
      </trkpt>
      <trkpt lat="48.57841" lon="1.95289">
        <ele>120</ele>
        <time>2010-05-15T13:32:49Z</time>
      </trkpt>
      <trkpt lat="48.57841" lon="1.95292">
        <ele>120</ele>
        <time>2010-05-15T13:32:50Z</time>
      </trkpt>
      <trkpt lat="48.57841" lon="1.95294">
        <ele>120</ele>
        <time>2010-05-15T13:32:51Z</time>
      </trkpt>
      <trkpt lat="48.5784" lon="1.95296">
        <ele>120</ele>
        <time>2010-05-15T13:32:52Z</time>
      </trkpt>
      <trkpt lat="48.5784" lon="1.95299">
        <ele>120</ele>
        <time>2010-05-15T13:32:54Z</time>
      </trkpt>
      <trkpt lat="48.5784" lon="1.95301">
        <ele>120</ele>
        <time>2010-05-15T13:32:55Z</time>
      </trkpt>
      <trkpt lat="48.57838" lon="1.95304">
        <ele>121</ele>
        <time>2010-05-15T13:32:57Z</time>
      </trkpt>
      <trkpt lat="48.57838" lon="1.95306">
        <ele>122</ele>
        <time>2010-05-15T13:32:59Z</time>
      </trkpt>
      <trkpt lat="48.57837" lon="1.95308">
        <ele>122</ele>
        <time>2010-05-15T13:33:00Z</time>
      </trkpt>
      <trkpt lat="48.57837" lon="1.95311">
        <ele>122</ele>
        <time>2010-05-15T13:33:01Z</time>
      </trkpt>
      <trkpt lat="48.57838" lon="1.95315">
        <ele>123</ele>
        <time>2010-05-15T13:33:02Z</time>
      </trkpt>
      <trkpt lat="48.57839" lon="1.95318">
        <ele>123</ele>
        <time>2010-05-15T13:33:03Z</time>
      </trkpt>
      <trkpt lat="48.5784" lon="1.95321">
        <ele>123</ele>
        <time>2010-05-15T13:33:04Z</time>
      </trkpt>
      <trkpt lat="48.5784" lon="1.95324">
        <ele>124</ele>
        <time>2010-05-15T13:33:05Z</time>
      </trkpt>
      <trkpt lat="48.5784" lon="1.95326">
        <ele>124</ele>
        <time>2010-05-15T13:33:06Z</time>
      </trkpt>
      <trkpt lat="48.5784" lon="1.95329">
        <ele>124</ele>
        <time>2010-05-15T13:33:07Z</time>
      </trkpt>
      <trkpt lat="48.57841" lon="1.95331">
        <ele>124</ele>
        <time>2010-05-15T13:33:08Z</time>
      </trkpt>
      <trkpt lat="48.5784" lon="1.95333">
        <ele>124</ele>
        <time>2010-05-15T13:33:10Z</time>
      </trkpt>
      <trkpt lat="48.57841" lon="1.95335">
        <ele>124</ele>
        <time>2010-05-15T13:33:11Z</time>
      </trkpt>
      <trkpt lat="48.57842" lon="1.95338">
        <ele>124</ele>
        <time>2010-05-15T13:33:12Z</time>
      </trkpt>
      <trkpt lat="48.57844" lon="1.95341">
        <ele>124</ele>
        <time>2010-05-15T13:33:13Z</time>
      </trkpt>
      <trkpt lat="48.57845" lon="1.95344">
        <ele>124</ele>
        <time>2010-05-15T13:33:14Z</time>
      </trkpt>
      <trkpt lat="48.57845" lon="1.95347">
        <ele>124</ele>
        <time>2010-05-15T13:33:15Z</time>
      </trkpt>
      <trkpt lat="48.57845" lon="1.95349">
        <ele>124</ele>
        <time>2010-05-15T13:33:16Z</time>
      </trkpt>
      <trkpt lat="48.57846" lon="1.95352">
        <ele>124</ele>
        <time>2010-05-15T13:33:17Z</time>
      </trkpt>
      <trkpt lat="48.57846" lon="1.95354">
        <ele>124</ele>
        <time>2010-05-15T13:33:18Z</time>
      </trkpt>
      <trkpt lat="48.57847" lon="1.95356">
        <ele>124</ele>
        <time>2010-05-15T13:33:19Z</time>
      </trkpt>
      <trkpt lat="48.57847" lon="1.95358">
        <ele>124</ele>
        <time>2010-05-15T13:33:20Z</time>
      </trkpt>
      <trkpt lat="48.57848" lon="1.95362">
        <ele>124</ele>
        <time>2010-05-15T13:33:21Z</time>
      </trkpt>
      <trkpt lat="48.57848" lon="1.95365">
        <ele>124</ele>
        <time>2010-05-15T13:33:22Z</time>
      </trkpt>
      <trkpt lat="48.57849" lon="1.95368">
        <ele>125</ele>
        <time>2010-05-15T13:33:23Z</time>
      </trkpt>
      <trkpt lat="48.57849" lon="1.9537">
        <ele>126</ele>
        <time>2010-05-15T13:33:24Z</time>
      </trkpt>
      <trkpt lat="48.5785" lon="1.95374">
        <ele>127</ele>
        <time>2010-05-15T13:33:27Z</time>
      </trkpt>
      <trkpt lat="48.57848" lon="1.95377">
        <ele>128</ele>
        <time>2010-05-15T13:33:28Z</time>
      </trkpt>
      <trkpt lat="48.57847" lon="1.95379">
        <ele>130</ele>
        <time>2010-05-15T13:33:31Z</time>
      </trkpt>
      <trkpt lat="48.57846" lon="1.95381">
        <ele>130</ele>
        <time>2010-05-15T13:33:32Z</time>
      </trkpt>
      <trkpt lat="48.57846" lon="1.95387">
        <ele>130</ele>
        <time>2010-05-15T13:33:33Z</time>
      </trkpt>
      <trkpt lat="48.57848" lon="1.95394">
        <ele>130</ele>
        <time>2010-05-15T13:33:34Z</time>
      </trkpt>
      <trkpt lat="48.57847" lon="1.95397">
        <ele>130</ele>
        <time>2010-05-15T13:33:35Z</time>
      </trkpt>
      <trkpt lat="48.57848" lon="1.95402">
        <ele>130</ele>
        <time>2010-05-15T13:33:36Z</time>
      </trkpt>
      <trkpt lat="48.57848" lon="1.95406">
        <ele>130</ele>
        <time>2010-05-15T13:33:37Z</time>
      </trkpt>
      <trkpt lat="48.57849" lon="1.95411">
        <ele>130</ele>
        <time>2010-05-15T13:33:38Z</time>
      </trkpt>
      <trkpt lat="48.5785" lon="1.95414">
        <ele>130</ele>
        <time>2010-05-15T13:33:39Z</time>
      </trkpt>
      <trkpt lat="48.5785" lon="1.95416">
        <ele>130</ele>
        <time>2010-05-15T13:33:40Z</time>
      </trkpt>
      <trkpt lat="48.57851" lon="1.95418">
        <ele>130</ele>
        <time>2010-05-15T13:33:41Z</time>
      </trkpt>
      <trkpt lat="48.57851" lon="1.9542">
        <ele>130</ele>
        <time>2010-05-15T13:33:42Z</time>
      </trkpt>
      <trkpt lat="48.57851" lon="1.95427">
        <ele>130</ele>
        <time>2010-05-15T13:33:46Z</time>
      </trkpt>
      <trkpt lat="48.57851" lon="1.95433">
        <ele>131</ele>
        <time>2010-05-15T13:33:47Z</time>
      </trkpt>
      <trkpt lat="48.57851" lon="1.95436">
        <ele>131</ele>
        <time>2010-05-15T13:33:48Z</time>
      </trkpt>
      <trkpt lat="48.57852" lon="1.95441">
        <ele>131</ele>
        <time>2010-05-15T13:33:49Z</time>
      </trkpt>
      <trkpt lat="48.57853" lon="1.95447">
        <ele>131</ele>
        <time>2010-05-15T13:33:50Z</time>
      </trkpt>
      <trkpt lat="48.57856" lon="1.95451">
        <ele>131</ele>
        <time>2010-05-15T13:33:51Z</time>
      </trkpt>
      <trkpt lat="48.57858" lon="1.95455">
        <ele>131</ele>
        <time>2010-05-15T13:33:52Z</time>
      </trkpt>
      <trkpt lat="48.57859" lon="1.9546">
        <ele>131</ele>
        <time>2010-05-15T13:33:53Z</time>
      </trkpt>
      <trkpt lat="48.57861" lon="1.95464">
        <ele>131</ele>
        <time>2010-05-15T13:33:54Z</time>
      </trkpt>
      <trkpt lat="48.57861" lon="1.95468">
        <ele>131</ele>
        <time>2010-05-15T13:33:55Z</time>
      </trkpt>
      <trkpt lat="48.57861" lon="1.9547">
        <ele>131</ele>
        <time>2010-05-15T13:33:56Z</time>
      </trkpt>
      <trkpt lat="48.57862" lon="1.95473">
        <ele>131</ele>
        <time>2010-05-15T13:33:57Z</time>
      </trkpt>
      <trkpt lat="48.57862" lon="1.95475">
        <ele>130</ele>
        <time>2010-05-15T13:33:58Z</time>
      </trkpt>
      <trkpt lat="48.57863" lon="1.95478">
        <ele>129</ele>
        <time>2010-05-15T13:33:59Z</time>
      </trkpt>
      <trkpt lat="48.57865" lon="1.95482">
        <ele>128</ele>
        <time>2010-05-15T13:34:01Z</time>
      </trkpt>
      <trkpt lat="48.57866" lon="1.95486">
        <ele>127</ele>
        <time>2010-05-15T13:34:02Z</time>
      </trkpt>
      <trkpt lat="48.57867" lon="1.95489">
        <ele>127</ele>
        <time>2010-05-15T13:34:03Z</time>
      </trkpt>
      <trkpt lat="48.57868" lon="1.95492">
        <ele>127</ele>
        <time>2010-05-15T13:34:04Z</time>
      </trkpt>
      <trkpt lat="48.57869" lon="1.95496">
        <ele>126</ele>
        <time>2010-05-15T13:34:05Z</time>
      </trkpt>
      <trkpt lat="48.57869" lon="1.95498">
        <ele>126</ele>
        <time>2010-05-15T13:34:06Z</time>
      </trkpt>
      <trkpt lat="48.5787" lon="1.95501">
        <ele>125</ele>
        <time>2010-05-15T13:34:07Z</time>
      </trkpt>
      <trkpt lat="48.5787" lon="1.95503">
        <ele>124</ele>
        <time>2010-05-15T13:34:08Z</time>
      </trkpt>
      <trkpt lat="48.5787" lon="1.95505">
        <ele>123</ele>
        <time>2010-05-15T13:34:09Z</time>
      </trkpt>
      <trkpt lat="48.5787" lon="1.95507">
        <ele>122</ele>
        <time>2010-05-15T13:34:10Z</time>
      </trkpt>
      <trkpt lat="48.57869" lon="1.95508">
        <ele>121</ele>
        <time>2010-05-15T13:34:13Z</time>
      </trkpt>
      <trkpt lat="48.57869" lon="1.95511">
        <ele>121</ele>
        <time>2010-05-15T13:34:15Z</time>
      </trkpt>
      <trkpt lat="48.57869" lon="1.95512">
        <ele>120</ele>
        <time>2010-05-15T13:34:17Z</time>
      </trkpt>
      <trkpt lat="48.57871" lon="1.95514">
        <ele>118</ele>
        <time>2010-05-15T13:34:19Z</time>
      </trkpt>
      <trkpt lat="48.57871" lon="1.95516">
        <ele>113</ele>
        <time>2010-05-15T13:34:24Z</time>
      </trkpt>
      <trkpt lat="48.57872" lon="1.95518">
        <ele>110</ele>
        <time>2010-05-15T13:34:27Z</time>
      </trkpt>
      <trkpt lat="48.57871" lon="1.95522">
        <ele>107</ele>
        <time>2010-05-15T13:34:31Z</time>
      </trkpt>
      <trkpt lat="48.57871" lon="1.95526">
        <ele>106</ele>
        <time>2010-05-15T13:34:32Z</time>
      </trkpt>
      <trkpt lat="48.57873" lon="1.95534">
        <ele>106</ele>
        <time>2010-05-15T13:34:35Z</time>
      </trkpt>
      <trkpt lat="48.57872" lon="1.95537">
        <ele>106</ele>
        <time>2010-05-15T13:34:36Z</time>
      </trkpt>
      <trkpt lat="48.57875" lon="1.9554">
        <ele>106</ele>
        <time>2010-05-15T13:34:37Z</time>
      </trkpt>
      <trkpt lat="48.57874" lon="1.95545">
        <ele>106</ele>
        <time>2010-05-15T13:34:38Z</time>
      </trkpt>
      <trkpt lat="48.57875" lon="1.95548">
        <ele>106</ele>
        <time>2010-05-15T13:34:39Z</time>
      </trkpt>
      <trkpt lat="48.57876" lon="1.9555">
        <ele>106</ele>
        <time>2010-05-15T13:34:40Z</time>
      </trkpt>
      <trkpt lat="48.57877" lon="1.95553">
        <ele>106</ele>
        <time>2010-05-15T13:34:41Z</time>
      </trkpt>
      <trkpt lat="48.57877" lon="1.95555">
        <ele>106</ele>
        <time>2010-05-15T13:34:42Z</time>
      </trkpt>
      <trkpt lat="48.57877" lon="1.95556">
        <ele>106</ele>
        <time>2010-05-15T13:34:43Z</time>
      </trkpt>
      <trkpt lat="48.57878" lon="1.95558">
        <ele>107</ele>
        <time>2010-05-15T13:34:44Z</time>
      </trkpt>
      <trkpt lat="48.57879" lon="1.9556">
        <ele>108</ele>
        <time>2010-05-15T13:34:45Z</time>
      </trkpt>
      <trkpt lat="48.5788" lon="1.95563">
        <ele>108</ele>
        <time>2010-05-15T13:34:46Z</time>
      </trkpt>
      <trkpt lat="48.57881" lon="1.95565">
        <ele>109</ele>
        <time>2010-05-15T13:34:47Z</time>
      </trkpt>
      <trkpt lat="48.57881" lon="1.95567">
        <ele>109</ele>
        <time>2010-05-15T13:34:48Z</time>
      </trkpt>
      <trkpt lat="48.57882" lon="1.9557">
        <ele>111</ele>
        <time>2010-05-15T13:34:50Z</time>
      </trkpt>
      <trkpt lat="48.5788" lon="1.95572">
        <ele>112</ele>
        <time>2010-05-15T13:34:51Z</time>
      </trkpt>
      <trkpt lat="48.5788" lon="1.95574">
        <ele>112</ele>
        <time>2010-05-15T13:34:52Z</time>
      </trkpt>
      <trkpt lat="48.57879" lon="1.95576">
        <ele>113</ele>
        <time>2010-05-15T13:34:53Z</time>
      </trkpt>
      <trkpt lat="48.57879" lon="1.95579">
        <ele>113</ele>
        <time>2010-05-15T13:34:54Z</time>
      </trkpt>
      <trkpt lat="48.57879" lon="1.95581">
        <ele>114</ele>
        <time>2010-05-15T13:34:55Z</time>
      </trkpt>
      <trkpt lat="48.57879" lon="1.95584">
        <ele>115</ele>
        <time>2010-05-15T13:34:57Z</time>
      </trkpt>
      <trkpt lat="48.57879" lon="1.95586">
        <ele>115</ele>
        <time>2010-05-15T13:34:58Z</time>
      </trkpt>
      <trkpt lat="48.57879" lon="1.95588">
        <ele>115</ele>
        <time>2010-05-15T13:34:59Z</time>
      </trkpt>
      <trkpt lat="48.5788" lon="1.9559">
        <ele>115</ele>
        <time>2010-05-15T13:35:00Z</time>
      </trkpt>
      <trkpt lat="48.57881" lon="1.95593">
        <ele>115</ele>
        <time>2010-05-15T13:35:01Z</time>
      </trkpt>
      <trkpt lat="48.57881" lon="1.95595">
        <ele>115</ele>
        <time>2010-05-15T13:35:02Z</time>
      </trkpt>
      <trkpt lat="48.57881" lon="1.95597">
        <ele>115</ele>
        <time>2010-05-15T13:35:03Z</time>
      </trkpt>
      <trkpt lat="48.57881" lon="1.956">
        <ele>115</ele>
        <time>2010-05-15T13:35:04Z</time>
      </trkpt>
      <trkpt lat="48.57882" lon="1.95605">
        <ele>115</ele>
        <time>2010-05-15T13:35:07Z</time>
      </trkpt>
      <trkpt lat="48.57883" lon="1.95609">
        <ele>115</ele>
        <time>2010-05-15T13:35:08Z</time>
      </trkpt>
      <trkpt lat="48.57886" lon="1.95613">
        <ele>115</ele>
        <time>2010-05-15T13:35:09Z</time>
      </trkpt>
      <trkpt lat="48.57889" lon="1.95615">
        <ele>115</ele>
        <time>2010-05-15T13:35:10Z</time>
      </trkpt>
      <trkpt lat="48.57891" lon="1.95617">
        <ele>115</ele>
        <time>2010-05-15T13:35:11Z</time>
      </trkpt>
      <trkpt lat="48.57892" lon="1.95619">
        <ele>115</ele>
        <time>2010-05-15T13:35:12Z</time>
      </trkpt>
      <trkpt lat="48.57891" lon="1.95622">
        <ele>115</ele>
        <time>2010-05-15T13:35:13Z</time>
      </trkpt>
      <trkpt lat="48.5789" lon="1.95623">
        <ele>115</ele>
        <time>2010-05-15T13:35:14Z</time>
      </trkpt>
      <trkpt lat="48.5789" lon="1.95626">
        <ele>115</ele>
        <time>2010-05-15T13:35:15Z</time>
      </trkpt>
      <trkpt lat="48.5789" lon="1.95629">
        <ele>115</ele>
        <time>2010-05-15T13:35:16Z</time>
      </trkpt>
      <trkpt lat="48.5789" lon="1.95631">
        <ele>115</ele>
        <time>2010-05-15T13:35:17Z</time>
      </trkpt>
      <trkpt lat="48.57891" lon="1.95632">
        <ele>115</ele>
        <time>2010-05-15T13:35:18Z</time>
      </trkpt>
      <trkpt lat="48.5789" lon="1.95634">
        <ele>115</ele>
        <time>2010-05-15T13:35:19Z</time>
      </trkpt>
      <trkpt lat="48.57889" lon="1.95638">
        <ele>115</ele>
        <time>2010-05-15T13:35:21Z</time>
      </trkpt>
      <trkpt lat="48.57889" lon="1.9564">
        <ele>115</ele>
        <time>2010-05-15T13:35:22Z</time>
      </trkpt>
      <trkpt lat="48.57889" lon="1.95644">
        <ele>115</ele>
        <time>2010-05-15T13:35:23Z</time>
      </trkpt>
      <trkpt lat="48.57889" lon="1.95648">
        <ele>116</ele>
        <time>2010-05-15T13:35:24Z</time>
      </trkpt>
      <trkpt lat="48.57889" lon="1.95651">
        <ele>116</ele>
        <time>2010-05-15T13:35:25Z</time>
      </trkpt>
      <trkpt lat="48.57889" lon="1.95653">
        <ele>116</ele>
        <time>2010-05-15T13:35:26Z</time>
      </trkpt>
      <trkpt lat="48.5789" lon="1.95655">
        <ele>116</ele>
        <time>2010-05-15T13:35:27Z</time>
      </trkpt>
      <trkpt lat="48.5789" lon="1.95658">
        <ele>116</ele>
        <time>2010-05-15T13:35:28Z</time>
      </trkpt>
      <trkpt lat="48.57891" lon="1.9566">
        <ele>116</ele>
        <time>2010-05-15T13:35:29Z</time>
      </trkpt>
      <trkpt lat="48.57892" lon="1.95664">
        <ele>116</ele>
        <time>2010-05-15T13:35:32Z</time>
      </trkpt>
      <trkpt lat="48.57894" lon="1.9567">
        <ele>116</ele>
        <time>2010-05-15T13:35:35Z</time>
      </trkpt>
      <trkpt lat="48.57896" lon="1.95673">
        <ele>116</ele>
        <time>2010-05-15T13:35:36Z</time>
      </trkpt>
      <trkpt lat="48.57897" lon="1.95678">
        <ele>116</ele>
        <time>2010-05-15T13:35:38Z</time>
      </trkpt>
      <trkpt lat="48.57896" lon="1.95681">
        <ele>118</ele>
        <time>2010-05-15T13:35:40Z</time>
      </trkpt>
      <trkpt lat="48.57897" lon="1.95683">
        <ele>119</ele>
        <time>2010-05-15T13:35:41Z</time>
      </trkpt>
      <trkpt lat="48.57897" lon="1.95685">
        <ele>119</ele>
        <time>2010-05-15T13:35:43Z</time>
      </trkpt>
      <trkpt lat="48.57897" lon="1.95687">
        <ele>119</ele>
        <time>2010-05-15T13:35:45Z</time>
      </trkpt>
      <trkpt lat="48.57897" lon="1.9569">
        <ele>119</ele>
        <time>2010-05-15T13:35:47Z</time>
      </trkpt>
      <trkpt lat="48.57897" lon="1.95693">
        <ele>119</ele>
        <time>2010-05-15T13:35:49Z</time>
      </trkpt>
      <trkpt lat="48.57897" lon="1.95697">
        <ele>119</ele>
        <time>2010-05-15T13:35:50Z</time>
      </trkpt>
      <trkpt lat="48.57898" lon="1.957">
        <ele>119</ele>
        <time>2010-05-15T13:35:51Z</time>
      </trkpt>
      <trkpt lat="48.57898" lon="1.95703">
        <ele>119</ele>
        <time>2010-05-15T13:35:52Z</time>
      </trkpt>
      <trkpt lat="48.579" lon="1.95706">
        <ele>119</ele>
        <time>2010-05-15T13:35:53Z</time>
      </trkpt>
      <trkpt lat="48.57901" lon="1.95709">
        <ele>119</ele>
        <time>2010-05-15T13:35:54Z</time>
      </trkpt>
      <trkpt lat="48.57903" lon="1.95713">
        <ele>119</ele>
        <time>2010-05-15T13:35:55Z</time>
      </trkpt>
      <trkpt lat="48.57904" lon="1.95718">
        <ele>119</ele>
        <time>2010-05-15T13:35:56Z</time>
      </trkpt>
      <trkpt lat="48.57906" lon="1.95722">
        <ele>119</ele>
        <time>2010-05-15T13:35:57Z</time>
      </trkpt>
      <trkpt lat="48.57907" lon="1.95725">
        <ele>119</ele>
        <time>2010-05-15T13:35:58Z</time>
      </trkpt>
      <trkpt lat="48.57908" lon="1.95728">
        <ele>119</ele>
        <time>2010-05-15T13:35:59Z</time>
      </trkpt>
      <trkpt lat="48.57909" lon="1.95731">
        <ele>119</ele>
        <time>2010-05-15T13:36:00Z</time>
      </trkpt>
      <trkpt lat="48.57909" lon="1.95734">
        <ele>118</ele>
        <time>2010-05-15T13:36:01Z</time>
      </trkpt>
      <trkpt lat="48.57909" lon="1.95735">
        <ele>117</ele>
        <time>2010-05-15T13:36:02Z</time>
      </trkpt>
      <trkpt lat="48.5791" lon="1.95737">
        <ele>116</ele>
        <time>2010-05-15T13:36:03Z</time>
      </trkpt>
      <trkpt lat="48.57911" lon="1.95744">
        <ele>116</ele>
        <time>2010-05-15T13:36:07Z</time>
      </trkpt>
      <trkpt lat="48.57911" lon="1.95749">
        <ele>115</ele>
        <time>2010-05-15T13:36:08Z</time>
      </trkpt>
      <trkpt lat="48.5791" lon="1.95754">
        <ele>115</ele>
        <time>2010-05-15T13:36:09Z</time>
      </trkpt>
      <trkpt lat="48.5791" lon="1.95758">
        <ele>115</ele>
        <time>2010-05-15T13:36:10Z</time>
      </trkpt>
      <trkpt lat="48.57911" lon="1.95761">
        <ele>115</ele>
        <time>2010-05-15T13:36:11Z</time>
      </trkpt>
      <trkpt lat="48.5791" lon="1.95763">
        <ele>115</ele>
        <time>2010-05-15T13:36:12Z</time>
      </trkpt>
      <trkpt lat="48.57909" lon="1.95766">
        <ele>115</ele>
        <time>2010-05-15T13:36:14Z</time>
      </trkpt>
      <trkpt lat="48.57909" lon="1.95768">
        <ele>115</ele>
        <time>2010-05-15T13:36:15Z</time>
      </trkpt>
      <trkpt lat="48.57908" lon="1.95771">
        <ele>115</ele>
        <time>2010-05-15T13:36:16Z</time>
      </trkpt>
      <trkpt lat="48.57908" lon="1.95773">
        <ele>115</ele>
        <time>2010-05-15T13:36:17Z</time>
      </trkpt>
      <trkpt lat="48.57909" lon="1.95774">
        <ele>115</ele>
        <time>2010-05-15T13:36:18Z</time>
      </trkpt>
      <trkpt lat="48.57909" lon="1.95777">
        <ele>115</ele>
        <time>2010-05-15T13:36:19Z</time>
      </trkpt>
      <trkpt lat="48.5791" lon="1.9578">
        <ele>115</ele>
        <time>2010-05-15T13:36:20Z</time>
      </trkpt>
      <trkpt lat="48.57911" lon="1.95783">
        <ele>115</ele>
        <time>2010-05-15T13:36:21Z</time>
      </trkpt>
      <trkpt lat="48.57912" lon="1.95786">
        <ele>116</ele>
        <time>2010-05-15T13:36:22Z</time>
      </trkpt>
      <trkpt lat="48.57912" lon="1.9579">
        <ele>116</ele>
        <time>2010-05-15T13:36:23Z</time>
      </trkpt>
      <trkpt lat="48.57912" lon="1.95793">
        <ele>117</ele>
        <time>2010-05-15T13:36:24Z</time>
      </trkpt>
      <trkpt lat="48.57913" lon="1.95797">
        <ele>118</ele>
        <time>2010-05-15T13:36:25Z</time>
      </trkpt>
      <trkpt lat="48.57915" lon="1.95801">
        <ele>118</ele>
        <time>2010-05-15T13:36:26Z</time>
      </trkpt>
      <trkpt lat="48.57915" lon="1.95803">
        <ele>118</ele>
        <time>2010-05-15T13:36:27Z</time>
      </trkpt>
      <trkpt lat="48.57915" lon="1.95806">
        <ele>118</ele>
        <time>2010-05-15T13:36:28Z</time>
      </trkpt>
      <trkpt lat="48.57915" lon="1.95809">
        <ele>118</ele>
        <time>2010-05-15T13:36:29Z</time>
      </trkpt>
      <trkpt lat="48.57915" lon="1.9581">
        <ele>118</ele>
        <time>2010-05-15T13:36:30Z</time>
      </trkpt>
      <trkpt lat="48.57915" lon="1.95813">
        <ele>118</ele>
        <time>2010-05-15T13:36:31Z</time>
      </trkpt>
      <trkpt lat="48.57915" lon="1.95815">
        <ele>118</ele>
        <time>2010-05-15T13:36:32Z</time>
      </trkpt>
      <trkpt lat="48.57915" lon="1.95817">
        <ele>118</ele>
        <time>2010-05-15T13:36:33Z</time>
      </trkpt>
      <trkpt lat="48.57915" lon="1.95819">
        <ele>118</ele>
        <time>2010-05-15T13:36:34Z</time>
      </trkpt>
      <trkpt lat="48.57915" lon="1.95822">
        <ele>118</ele>
        <time>2010-05-15T13:36:35Z</time>
      </trkpt>
      <trkpt lat="48.57915" lon="1.95824">
        <ele>118</ele>
        <time>2010-05-15T13:36:36Z</time>
      </trkpt>
      <trkpt lat="48.57916" lon="1.95826">
        <ele>118</ele>
        <time>2010-05-15T13:36:37Z</time>
      </trkpt>
      <trkpt lat="48.57916" lon="1.95829">
        <ele>118</ele>
        <time>2010-05-15T13:36:38Z</time>
      </trkpt>
      <trkpt lat="48.57917" lon="1.95832">
        <ele>118</ele>
        <time>2010-05-15T13:36:39Z</time>
      </trkpt>
      <trkpt lat="48.57918" lon="1.95836">
        <ele>118</ele>
        <time>2010-05-15T13:36:40Z</time>
      </trkpt>
      <trkpt lat="48.57919" lon="1.95838">
        <ele>118</ele>
        <time>2010-05-15T13:36:41Z</time>
      </trkpt>
      <trkpt lat="48.5792" lon="1.95842">
        <ele>118</ele>
        <time>2010-05-15T13:36:42Z</time>
      </trkpt>
      <trkpt lat="48.57921" lon="1.95845">
        <ele>118</ele>
        <time>2010-05-15T13:36:43Z</time>
      </trkpt>
      <trkpt lat="48.57922" lon="1.95847">
        <ele>118</ele>
        <time>2010-05-15T13:36:44Z</time>
      </trkpt>
      <trkpt lat="48.57922" lon="1.9585">
        <ele>118</ele>
        <time>2010-05-15T13:36:45Z</time>
      </trkpt>
      <trkpt lat="48.57923" lon="1.95853">
        <ele>118</ele>
        <time>2010-05-15T13:36:46Z</time>
      </trkpt>
      <trkpt lat="48.57923" lon="1.95855">
        <ele>118</ele>
        <time>2010-05-15T13:36:47Z</time>
      </trkpt>
      <trkpt lat="48.57922" lon="1.95858">
        <ele>118</ele>
        <time>2010-05-15T13:36:48Z</time>
      </trkpt>
      <trkpt lat="48.57922" lon="1.9586">
        <ele>118</ele>
        <time>2010-05-15T13:36:49Z</time>
      </trkpt>
      <trkpt lat="48.57923" lon="1.95866">
        <ele>118</ele>
        <time>2010-05-15T13:36:52Z</time>
      </trkpt>
      <trkpt lat="48.57923" lon="1.9587">
        <ele>118</ele>
        <time>2010-05-15T13:36:53Z</time>
      </trkpt>
      <trkpt lat="48.57923" lon="1.95872">
        <ele>118</ele>
        <time>2010-05-15T13:36:54Z</time>
      </trkpt>
      <trkpt lat="48.57922" lon="1.95876">
        <ele>118</ele>
        <time>2010-05-15T13:36:55Z</time>
      </trkpt>
      <trkpt lat="48.57922" lon="1.9588">
        <ele>118</ele>
        <time>2010-05-15T13:36:56Z</time>
      </trkpt>
      <trkpt lat="48.57923" lon="1.95882">
        <ele>118</ele>
        <time>2010-05-15T13:36:57Z</time>
      </trkpt>
      <trkpt lat="48.57923" lon="1.95885">
        <ele>118</ele>
        <time>2010-05-15T13:36:58Z</time>
      </trkpt>
      <trkpt lat="48.57924" lon="1.95887">
        <ele>118</ele>
        <time>2010-05-15T13:36:59Z</time>
      </trkpt>
      <trkpt lat="48.57923" lon="1.9589">
        <ele>118</ele>
        <time>2010-05-15T13:37:00Z</time>
      </trkpt>
      <trkpt lat="48.57924" lon="1.95893">
        <ele>119</ele>
        <time>2010-05-15T13:37:01Z</time>
      </trkpt>
      <trkpt lat="48.57925" lon="1.95895">
        <ele>120</ele>
        <time>2010-05-15T13:37:02Z</time>
      </trkpt>
      <trkpt lat="48.57925" lon="1.95897">
        <ele>120</ele>
        <time>2010-05-15T13:37:03Z</time>
      </trkpt>
      <trkpt lat="48.57925" lon="1.959">
        <ele>121</ele>
        <time>2010-05-15T13:37:04Z</time>
      </trkpt>
      <trkpt lat="48.57926" lon="1.95903">
        <ele>121</ele>
        <time>2010-05-15T13:37:06Z</time>
      </trkpt>
      <trkpt lat="48.57926" lon="1.95905">
        <ele>121</ele>
        <time>2010-05-15T13:37:07Z</time>
      </trkpt>
      <trkpt lat="48.57926" lon="1.95907">
        <ele>122</ele>
        <time>2010-05-15T13:37:08Z</time>
      </trkpt>
      <trkpt lat="48.57926" lon="1.9591">
        <ele>122</ele>
        <time>2010-05-15T13:37:10Z</time>
      </trkpt>
      <trkpt lat="48.57926" lon="1.95913">
        <ele>123</ele>
        <time>2010-05-15T13:37:12Z</time>
      </trkpt>
      <trkpt lat="48.57928" lon="1.95916">
        <ele>123</ele>
        <time>2010-05-15T13:37:13Z</time>
      </trkpt>
      <trkpt lat="48.57928" lon="1.95918">
        <ele>123</ele>
        <time>2010-05-15T13:37:14Z</time>
      </trkpt>
      <trkpt lat="48.57929" lon="1.95921">
        <ele>123</ele>
        <time>2010-05-15T13:37:15Z</time>
      </trkpt>
      <trkpt lat="48.5793" lon="1.95924">
        <ele>123</ele>
        <time>2010-05-15T13:37:16Z</time>
      </trkpt>
      <trkpt lat="48.5793" lon="1.95926">
        <ele>123</ele>
        <time>2010-05-15T13:37:17Z</time>
      </trkpt>
      <trkpt lat="48.5793" lon="1.95929">
        <ele>123</ele>
        <time>2010-05-15T13:37:18Z</time>
      </trkpt>
      <trkpt lat="48.57931" lon="1.95932">
        <ele>123</ele>
        <time>2010-05-15T13:37:19Z</time>
      </trkpt>
      <trkpt lat="48.57932" lon="1.95935">
        <ele>123</ele>
        <time>2010-05-15T13:37:20Z</time>
      </trkpt>
      <trkpt lat="48.57932" lon="1.95937">
        <ele>122</ele>
        <time>2010-05-15T13:37:21Z</time>
      </trkpt>
      <trkpt lat="48.57933" lon="1.95939">
        <ele>121</ele>
        <time>2010-05-15T13:37:22Z</time>
      </trkpt>
      <trkpt lat="48.57933" lon="1.95941">
        <ele>120</ele>
        <time>2010-05-15T13:37:23Z</time>
      </trkpt>
      <trkpt lat="48.57934" lon="1.95943">
        <ele>119</ele>
        <time>2010-05-15T13:37:24Z</time>
      </trkpt>
      <trkpt lat="48.57934" lon="1.95946">
        <ele>118</ele>
        <time>2010-05-15T13:37:25Z</time>
      </trkpt>
      <trkpt lat="48.57934" lon="1.95949">
        <ele>118</ele>
        <time>2010-05-15T13:37:26Z</time>
      </trkpt>
      <trkpt lat="48.57934" lon="1.95952">
        <ele>118</ele>
        <time>2010-05-15T13:37:27Z</time>
      </trkpt>
      <trkpt lat="48.57935" lon="1.95955">
        <ele>118</ele>
        <time>2010-05-15T13:37:28Z</time>
      </trkpt>
      <trkpt lat="48.57935" lon="1.95957">
        <ele>118</ele>
        <time>2010-05-15T13:37:29Z</time>
      </trkpt>
      <trkpt lat="48.57936" lon="1.95959">
        <ele>118</ele>
        <time>2010-05-15T13:37:30Z</time>
      </trkpt>
      <trkpt lat="48.57936" lon="1.95961">
        <ele>118</ele>
        <time>2010-05-15T13:37:31Z</time>
      </trkpt>
      <trkpt lat="48.57936" lon="1.95963">
        <ele>118</ele>
        <time>2010-05-15T13:37:32Z</time>
      </trkpt>
      <trkpt lat="48.57935" lon="1.95965">
        <ele>118</ele>
        <time>2010-05-15T13:37:33Z</time>
      </trkpt>
      <trkpt lat="48.57936" lon="1.95967">
        <ele>118</ele>
        <time>2010-05-15T13:37:34Z</time>
      </trkpt>
      <trkpt lat="48.57937" lon="1.95969">
        <ele>118</ele>
        <time>2010-05-15T13:37:35Z</time>
      </trkpt>
      <trkpt lat="48.57936" lon="1.95971">
        <ele>118</ele>
        <time>2010-05-15T13:37:36Z</time>
      </trkpt>
      <trkpt lat="48.57937" lon="1.95973">
        <ele>118</ele>
        <time>2010-05-15T13:37:37Z</time>
      </trkpt>
      <trkpt lat="48.57936" lon="1.95975">
        <ele>118</ele>
        <time>2010-05-15T13:37:38Z</time>
      </trkpt>
      <trkpt lat="48.57936" lon="1.95978">
        <ele>118</ele>
        <time>2010-05-15T13:37:40Z</time>
      </trkpt>
      <trkpt lat="48.57936" lon="1.95981">
        <ele>118</ele>
        <time>2010-05-15T13:37:42Z</time>
      </trkpt>
      <trkpt lat="48.57936" lon="1.95982">
        <ele>118</ele>
        <time>2010-05-15T13:37:43Z</time>
      </trkpt>
      <trkpt lat="48.57936" lon="1.95985">
        <ele>118</ele>
        <time>2010-05-15T13:37:44Z</time>
      </trkpt>
      <trkpt lat="48.57936" lon="1.95988">
        <ele>118</ele>
        <time>2010-05-15T13:37:45Z</time>
      </trkpt>
      <trkpt lat="48.57936" lon="1.9599">
        <ele>118</ele>
        <time>2010-05-15T13:37:46Z</time>
      </trkpt>
      <trkpt lat="48.57937" lon="1.95992">
        <ele>118</ele>
        <time>2010-05-15T13:37:47Z</time>
      </trkpt>
      <trkpt lat="48.57938" lon="1.95995">
        <ele>118</ele>
        <time>2010-05-15T13:37:48Z</time>
      </trkpt>
      <trkpt lat="48.57938" lon="1.95997">
        <ele>119</ele>
        <time>2010-05-15T13:37:50Z</time>
      </trkpt>
      <trkpt lat="48.5794" lon="1.96002">
        <ele>119</ele>
        <time>2010-05-15T13:37:52Z</time>
      </trkpt>
      <trkpt lat="48.5794" lon="1.96004">
        <ele>120</ele>
        <time>2010-05-15T13:37:53Z</time>
      </trkpt>
      <trkpt lat="48.5794" lon="1.96007">
        <ele>120</ele>
        <time>2010-05-15T13:37:54Z</time>
      </trkpt>
      <trkpt lat="48.5794" lon="1.96009">
        <ele>121</ele>
        <time>2010-05-15T13:37:55Z</time>
      </trkpt>
      <trkpt lat="48.5794" lon="1.96012">
        <ele>121</ele>
        <time>2010-05-15T13:37:56Z</time>
      </trkpt>
      <trkpt lat="48.5794" lon="1.96015">
        <ele>121</ele>
        <time>2010-05-15T13:37:57Z</time>
      </trkpt>
      <trkpt lat="48.57941" lon="1.96019">
        <ele>122</ele>
        <time>2010-05-15T13:37:58Z</time>
      </trkpt>
      <trkpt lat="48.57941" lon="1.96022">
        <ele>122</ele>
        <time>2010-05-15T13:37:59Z</time>
      </trkpt>
      <trkpt lat="48.57942" lon="1.9603">
        <ele>123</ele>
        <time>2010-05-15T13:38:02Z</time>
      </trkpt>
      <trkpt lat="48.57943" lon="1.96035">
        <ele>124</ele>
        <time>2010-05-15T13:38:03Z</time>
      </trkpt>
      <trkpt lat="48.57944" lon="1.96038">
        <ele>125</ele>
        <time>2010-05-15T13:38:04Z</time>
      </trkpt>
      <trkpt lat="48.57944" lon="1.96041">
        <ele>126</ele>
        <time>2010-05-15T13:38:05Z</time>
      </trkpt>
      <trkpt lat="48.57944" lon="1.96045">
        <ele>126</ele>
        <time>2010-05-15T13:38:06Z</time>
      </trkpt>
      <trkpt lat="48.57944" lon="1.96049">
        <ele>126</ele>
        <time>2010-05-15T13:38:07Z</time>
      </trkpt>
      <trkpt lat="48.57944" lon="1.96052">
        <ele>126</ele>
        <time>2010-05-15T13:38:08Z</time>
      </trkpt>
      <trkpt lat="48.57944" lon="1.96054">
        <ele>126</ele>
        <time>2010-05-15T13:38:09Z</time>
      </trkpt>
      <trkpt lat="48.57945" lon="1.96056">
        <ele>126</ele>
        <time>2010-05-15T13:38:10Z</time>
      </trkpt>
      <trkpt lat="48.57946" lon="1.96059">
        <ele>126</ele>
        <time>2010-05-15T13:38:11Z</time>
      </trkpt>
      <trkpt lat="48.57948" lon="1.96062">
        <ele>126</ele>
        <time>2010-05-15T13:38:13Z</time>
      </trkpt>
      <trkpt lat="48.57949" lon="1.96065">
        <ele>126</ele>
        <time>2010-05-15T13:38:14Z</time>
      </trkpt>
      <trkpt lat="48.5795" lon="1.96067">
        <ele>124</ele>
        <time>2010-05-15T13:38:16Z</time>
      </trkpt>
      <trkpt lat="48.5795" lon="1.96071">
        <ele>122</ele>
        <time>2010-05-15T13:38:18Z</time>
      </trkpt>
      <trkpt lat="48.5795" lon="1.96073">
        <ele>122</ele>
        <time>2010-05-15T13:38:19Z</time>
      </trkpt>
      <trkpt lat="48.57949" lon="1.96076">
        <ele>122</ele>
        <time>2010-05-15T13:38:20Z</time>
      </trkpt>
      <trkpt lat="48.5795" lon="1.96082">
        <ele>122</ele>
        <time>2010-05-15T13:38:23Z</time>
      </trkpt>
      <trkpt lat="48.5795" lon="1.96086">
        <ele>122</ele>
        <time>2010-05-15T13:38:24Z</time>
      </trkpt>
      <trkpt lat="48.57951" lon="1.9609">
        <ele>122</ele>
        <time>2010-05-15T13:38:25Z</time>
      </trkpt>
      <trkpt lat="48.57951" lon="1.96092">
        <ele>122</ele>
        <time>2010-05-15T13:38:26Z</time>
      </trkpt>
      <trkpt lat="48.57952" lon="1.96094">
        <ele>122</ele>
        <time>2010-05-15T13:38:27Z</time>
      </trkpt>
      <trkpt lat="48.57951" lon="1.96097">
        <ele>122</ele>
        <time>2010-05-15T13:38:28Z</time>
      </trkpt>
      <trkpt lat="48.57952" lon="1.96101">
        <ele>122</ele>
        <time>2010-05-15T13:38:29Z</time>
      </trkpt>
      <trkpt lat="48.57953" lon="1.96104">
        <ele>122</ele>
        <time>2010-05-15T13:38:30Z</time>
      </trkpt>
      <trkpt lat="48.57954" lon="1.96108">
        <ele>122</ele>
        <time>2010-05-15T13:38:31Z</time>
      </trkpt>
      <trkpt lat="48.57954" lon="1.96111">
        <ele>122</ele>
        <time>2010-05-15T13:38:32Z</time>
      </trkpt>
      <trkpt lat="48.57955" lon="1.96113">
        <ele>122</ele>
        <time>2010-05-15T13:38:33Z</time>
      </trkpt>
      <trkpt lat="48.57957" lon="1.96116">
        <ele>122</ele>
        <time>2010-05-15T13:38:34Z</time>
      </trkpt>
      <trkpt lat="48.57958" lon="1.96119">
        <ele>122</ele>
        <time>2010-05-15T13:38:35Z</time>
      </trkpt>
      <trkpt lat="48.57959" lon="1.96123">
        <ele>122</ele>
        <time>2010-05-15T13:38:36Z</time>
      </trkpt>
      <trkpt lat="48.57961" lon="1.96127">
        <ele>122</ele>
        <time>2010-05-15T13:38:37Z</time>
      </trkpt>
      <trkpt lat="48.57962" lon="1.96131">
        <ele>122</ele>
        <time>2010-05-15T13:38:38Z</time>
      </trkpt>
      <trkpt lat="48.57964" lon="1.96136">
        <ele>121</ele>
        <time>2010-05-15T13:38:39Z</time>
      </trkpt>
      <trkpt lat="48.57965" lon="1.96142">
        <ele>121</ele>
        <time>2010-05-15T13:38:40Z</time>
      </trkpt>
      <trkpt lat="48.57968" lon="1.96147">
        <ele>120</ele>
        <time>2010-05-15T13:38:41Z</time>
      </trkpt>
      <trkpt lat="48.57968" lon="1.96153">
        <ele>119</ele>
        <time>2010-05-15T13:38:42Z</time>
      </trkpt>
      <trkpt lat="48.57969" lon="1.96159">
        <ele>118</ele>
        <time>2010-05-15T13:38:43Z</time>
      </trkpt>
      <trkpt lat="48.57971" lon="1.96163">
        <ele>117</ele>
        <time>2010-05-15T13:38:44Z</time>
      </trkpt>
      <trkpt lat="48.57973" lon="1.96168">
        <ele>116</ele>
        <time>2010-05-15T13:38:45Z</time>
      </trkpt>
      <trkpt lat="48.57975" lon="1.96174">
        <ele>115</ele>
        <time>2010-05-15T13:38:46Z</time>
      </trkpt>
      <trkpt lat="48.57977" lon="1.96178">
        <ele>114</ele>
        <time>2010-05-15T13:38:47Z</time>
      </trkpt>
      <trkpt lat="48.57978" lon="1.96183">
        <ele>113</ele>
        <time>2010-05-15T13:38:48Z</time>
      </trkpt>
      <trkpt lat="48.57979" lon="1.96188">
        <ele>112</ele>
        <time>2010-05-15T13:38:49Z</time>
      </trkpt>
      <trkpt lat="48.5798" lon="1.96193">
        <ele>111</ele>
        <time>2010-05-15T13:38:50Z</time>
      </trkpt>
      <trkpt lat="48.57981" lon="1.96198">
        <ele>111</ele>
        <time>2010-05-15T13:38:51Z</time>
      </trkpt>
      <trkpt lat="48.57982" lon="1.96203">
        <ele>110</ele>
        <time>2010-05-15T13:38:52Z</time>
      </trkpt>
      <trkpt lat="48.57984" lon="1.96207">
        <ele>109</ele>
        <time>2010-05-15T13:38:53Z</time>
      </trkpt>
      <trkpt lat="48.57984" lon="1.96212">
        <ele>108</ele>
        <time>2010-05-15T13:38:54Z</time>
      </trkpt>
      <trkpt lat="48.57988" lon="1.96226">
        <ele>107</ele>
        <time>2010-05-15T13:38:57Z</time>
      </trkpt>
      <trkpt lat="48.57987" lon="1.96234">
        <ele>106</ele>
        <time>2010-05-15T13:38:58Z</time>
      </trkpt>
      <trkpt lat="48.57987" lon="1.9624">
        <ele>105</ele>
        <time>2010-05-15T13:38:59Z</time>
      </trkpt>
      <trkpt lat="48.57988" lon="1.96248">
        <ele>104</ele>
        <time>2010-05-15T13:39:00Z</time>
      </trkpt>
      <trkpt lat="48.57988" lon="1.96254">
        <ele>103</ele>
        <time>2010-05-15T13:39:01Z</time>
      </trkpt>
      <trkpt lat="48.57989" lon="1.9626">
        <ele>103</ele>
        <time>2010-05-15T13:39:02Z</time>
      </trkpt>
      <trkpt lat="48.5799" lon="1.96267">
        <ele>103</ele>
        <time>2010-05-15T13:39:03Z</time>
      </trkpt>
      <trkpt lat="48.57991" lon="1.96273">
        <ele>102</ele>
        <time>2010-05-15T13:39:04Z</time>
      </trkpt>
      <trkpt lat="48.57992" lon="1.96279">
        <ele>102</ele>
        <time>2010-05-15T13:39:05Z</time>
      </trkpt>
      <trkpt lat="48.57993" lon="1.96285">
        <ele>101</ele>
        <time>2010-05-15T13:39:06Z</time>
      </trkpt>
      <trkpt lat="48.57993" lon="1.9629">
        <ele>100</ele>
        <time>2010-05-15T13:39:07Z</time>
      </trkpt>
      <trkpt lat="48.57995" lon="1.96295">
        <ele>100</ele>
        <time>2010-05-15T13:39:08Z</time>
      </trkpt>
      <trkpt lat="48.57996" lon="1.96301">
        <ele>100</ele>
        <time>2010-05-15T13:39:09Z</time>
      </trkpt>
      <trkpt lat="48.57996" lon="1.96309">
        <ele>100</ele>
        <time>2010-05-15T13:39:10Z</time>
      </trkpt>
      <trkpt lat="48.57997" lon="1.96314">
        <ele>100</ele>
        <time>2010-05-15T13:39:11Z</time>
      </trkpt>
      <trkpt lat="48.57998" lon="1.96319">
        <ele>100</ele>
        <time>2010-05-15T13:39:12Z</time>
      </trkpt>
      <trkpt lat="48.57998" lon="1.96324">
        <ele>100</ele>
        <time>2010-05-15T13:39:13Z</time>
      </trkpt>
      <trkpt lat="48.57998" lon="1.96329">
        <ele>100</ele>
        <time>2010-05-15T13:39:14Z</time>
      </trkpt>
      <trkpt lat="48.57998" lon="1.96334">
        <ele>100</ele>
        <time>2010-05-15T13:39:15Z</time>
      </trkpt>
      <trkpt lat="48.57999" lon="1.96341">
        <ele>100</ele>
        <time>2010-05-15T13:39:16Z</time>
      </trkpt>
      <trkpt lat="48.58002" lon="1.96367">
        <ele>100</ele>
        <time>2010-05-15T13:39:20Z</time>
      </trkpt>
      <trkpt lat="48.57999" lon="1.96381">
        <ele>100</ele>
        <time>2010-05-15T13:39:21Z</time>
      </trkpt>
      <trkpt lat="48.57999" lon="1.96392">
        <ele>100</ele>
        <time>2010-05-15T13:39:22Z</time>
      </trkpt>
      <trkpt lat="48.57999" lon="1.96397">
        <ele>100</ele>
        <time>2010-05-15T13:39:23Z</time>
      </trkpt>
      <trkpt lat="48.58" lon="1.96404">
        <ele>100</ele>
        <time>2010-05-15T13:39:24Z</time>
      </trkpt>
      <trkpt lat="48.57999" lon="1.96409">
        <ele>100</ele>
        <time>2010-05-15T13:39:25Z</time>
      </trkpt>
      <trkpt lat="48.58" lon="1.96415">
        <ele>100</ele>
        <time>2010-05-15T13:39:26Z</time>
      </trkpt>
      <trkpt lat="48.58" lon="1.96421">
        <ele>100</ele>
        <time>2010-05-15T13:39:27Z</time>
      </trkpt>
      <trkpt lat="48.58002" lon="1.96428">
        <ele>100</ele>
        <time>2010-05-15T13:39:28Z</time>
      </trkpt>
      <trkpt lat="48.58003" lon="1.96434">
        <ele>100</ele>
        <time>2010-05-15T13:39:29Z</time>
      </trkpt>
      <trkpt lat="48.58004" lon="1.96441">
        <ele>100</ele>
        <time>2010-05-15T13:39:30Z</time>
      </trkpt>
      <trkpt lat="48.58004" lon="1.96447">
        <ele>100</ele>
        <time>2010-05-15T13:39:31Z</time>
      </trkpt>
      <trkpt lat="48.58007" lon="1.96452">
        <ele>100</ele>
        <time>2010-05-15T13:39:32Z</time>
      </trkpt>
      <trkpt lat="48.58009" lon="1.96456">
        <ele>101</ele>
        <time>2010-05-15T13:39:33Z</time>
      </trkpt>
      <trkpt lat="48.58009" lon="1.96458">
        <ele>102</ele>
        <time>2010-05-15T13:39:34Z</time>
      </trkpt>
      <trkpt lat="48.58008" lon="1.96462">
        <ele>103</ele>
        <time>2010-05-15T13:39:35Z</time>
      </trkpt>
      <trkpt lat="48.58009" lon="1.96464">
        <ele>104</ele>
        <time>2010-05-15T13:39:36Z</time>
      </trkpt>
      <trkpt lat="48.58008" lon="1.96465">
        <ele>105</ele>
        <time>2010-05-15T13:39:37Z</time>
      </trkpt>
      <trkpt lat="48.58007" lon="1.96467">
        <ele>107</ele>
        <time>2010-05-15T13:39:39Z</time>
      </trkpt>
      <trkpt lat="48.58009" lon="1.96465">
        <ele>109</ele>
        <time>2010-05-15T13:39:41Z</time>
      </trkpt>
      <trkpt lat="48.58008" lon="1.96466">
        <ele>111</ele>
        <time>2010-05-15T13:39:44Z</time>
      </trkpt>
      <trkpt lat="48.58007" lon="1.96466">
        <ele>117</ele>
        <time>2010-05-15T13:39:52Z</time>
      </trkpt>
      <trkpt lat="48.58004" lon="1.96467">
        <ele>120</ele>
        <time>2010-05-15T13:39:55Z</time>
      </trkpt>
      <trkpt lat="48.58004" lon="1.96465">
        <ele>125</ele>
        <time>2010-05-15T13:40:00Z</time>
      </trkpt>
      <trkpt lat="48.58005" lon="1.96463">
        <ele>125</ele>
        <time>2010-05-15T13:40:02Z</time>
      </trkpt>
      <trkpt lat="48.58006" lon="1.96462">
        <ele>125</ele>
        <time>2010-05-15T13:40:03Z</time>
      </trkpt>
      <trkpt lat="48.58006" lon="1.9646">
        <ele>125</ele>
        <time>2010-05-15T13:40:04Z</time>
      </trkpt>
      <trkpt lat="48.58006" lon="1.96456">
        <ele>125</ele>
        <time>2010-05-15T13:40:05Z</time>
      </trkpt>
      <trkpt lat="48.58005" lon="1.96453">
        <ele>125</ele>
        <time>2010-05-15T13:40:06Z</time>
      </trkpt>
      <trkpt lat="48.58004" lon="1.96447">
        <ele>125</ele>
        <time>2010-05-15T13:40:07Z</time>
      </trkpt>
      <trkpt lat="48.58004" lon="1.96441">
        <ele>125</ele>
        <time>2010-05-15T13:40:08Z</time>
      </trkpt>
      <trkpt lat="48.58003" lon="1.96435">
        <ele>125</ele>
        <time>2010-05-15T13:40:09Z</time>
      </trkpt>
      <trkpt lat="48.58003" lon="1.96429">
        <ele>125</ele>
        <time>2010-05-15T13:40:10Z</time>
      </trkpt>
      <trkpt lat="48.58004" lon="1.96423">
        <ele>125</ele>
        <time>2010-05-15T13:40:11Z</time>
      </trkpt>
      <trkpt lat="48.58003" lon="1.96417">
        <ele>125</ele>
        <time>2010-05-15T13:40:12Z</time>
      </trkpt>
      <trkpt lat="48.58002" lon="1.96413">
        <ele>125</ele>
        <time>2010-05-15T13:40:13Z</time>
      </trkpt>
      <trkpt lat="48.58003" lon="1.96408">
        <ele>125</ele>
        <time>2010-05-15T13:40:14Z</time>
      </trkpt>
      <trkpt lat="48.58001" lon="1.96402">
        <ele>125</ele>
        <time>2010-05-15T13:40:15Z</time>
      </trkpt>
      <trkpt lat="48.58" lon="1.96395">
        <ele>124</ele>
        <time>2010-05-15T13:40:16Z</time>
      </trkpt>
      <trkpt lat="48.58" lon="1.96389">
        <ele>123</ele>
        <time>2010-05-15T13:40:17Z</time>
      </trkpt>
      <trkpt lat="48.57999" lon="1.96384">
        <ele>123</ele>
        <time>2010-05-15T13:40:18Z</time>
      </trkpt>
      <trkpt lat="48.57997" lon="1.96379">
        <ele>122</ele>
        <time>2010-05-15T13:40:19Z</time>
      </trkpt>
      <trkpt lat="48.57996" lon="1.96374">
        <ele>121</ele>
        <time>2010-05-15T13:40:20Z</time>
      </trkpt>
      <trkpt lat="48.57995" lon="1.96369">
        <ele>120</ele>
        <time>2010-05-15T13:40:21Z</time>
      </trkpt>
      <trkpt lat="48.57994" lon="1.96364">
        <ele>119</ele>
        <time>2010-05-15T13:40:22Z</time>
      </trkpt>
      <trkpt lat="48.57992" lon="1.96357">
        <ele>118</ele>
        <time>2010-05-15T13:40:23Z</time>
      </trkpt>
      <trkpt lat="48.5799" lon="1.9635">
        <ele>117</ele>
        <time>2010-05-15T13:40:24Z</time>
      </trkpt>
      <trkpt lat="48.57988" lon="1.96344">
        <ele>116</ele>
        <time>2010-05-15T13:40:25Z</time>
      </trkpt>
      <trkpt lat="48.57986" lon="1.96337">
        <ele>115</ele>
        <time>2010-05-15T13:40:26Z</time>
      </trkpt>
      <trkpt lat="48.57984" lon="1.96331">
        <ele>114</ele>
        <time>2010-05-15T13:40:27Z</time>
      </trkpt>
      <trkpt lat="48.57983" lon="1.96325">
        <ele>114</ele>
        <time>2010-05-15T13:40:28Z</time>
      </trkpt>
      <trkpt lat="48.57981" lon="1.9632">
        <ele>114</ele>
        <time>2010-05-15T13:40:29Z</time>
      </trkpt>
      <trkpt lat="48.57981" lon="1.96314">
        <ele>113</ele>
        <time>2010-05-15T13:40:30Z</time>
      </trkpt>
      <trkpt lat="48.57982" lon="1.9631">
        <ele>113</ele>
        <time>2010-05-15T13:40:31Z</time>
      </trkpt>
      <trkpt lat="48.57983" lon="1.96306">
        <ele>112</ele>
        <time>2010-05-15T13:40:32Z</time>
      </trkpt>
      <trkpt lat="48.57983" lon="1.96303">
        <ele>112</ele>
        <time>2010-05-15T13:40:33Z</time>
      </trkpt>
      <trkpt lat="48.57982" lon="1.96301">
        <ele>112</ele>
        <time>2010-05-15T13:40:34Z</time>
      </trkpt>
      <trkpt lat="48.5798" lon="1.96299">
        <ele>112</ele>
        <time>2010-05-15T13:40:35Z</time>
      </trkpt>
      <trkpt lat="48.57978" lon="1.96297">
        <ele>111</ele>
        <time>2010-05-15T13:40:36Z</time>
      </trkpt>
      <trkpt lat="48.57976" lon="1.96296">
        <ele>111</ele>
        <time>2010-05-15T13:40:37Z</time>
      </trkpt>
      <trkpt lat="48.57974" lon="1.96298">
        <ele>111</ele>
        <time>2010-05-15T13:40:39Z</time>
      </trkpt>
      <trkpt lat="48.57972" lon="1.96299">
        <ele>111</ele>
        <time>2010-05-15T13:40:41Z</time>
      </trkpt>
      <trkpt lat="48.57971" lon="1.96301">
        <ele>111</ele>
        <time>2010-05-15T13:40:43Z</time>
      </trkpt>
      <trkpt lat="48.57969" lon="1.96302">
        <ele>111</ele>
        <time>2010-05-15T13:40:44Z</time>
      </trkpt>
      <trkpt lat="48.57969" lon="1.96303">
        <ele>111</ele>
        <time>2010-05-15T13:40:45Z</time>
      </trkpt>
      <trkpt lat="48.57969" lon="1.96306">
        <ele>111</ele>
        <time>2010-05-15T13:40:46Z</time>
      </trkpt>
      <trkpt lat="48.57969" lon="1.96308">
        <ele>111</ele>
        <time>2010-05-15T13:40:47Z</time>
      </trkpt>
      <trkpt lat="48.57969" lon="1.9631">
        <ele>111</ele>
        <time>2010-05-15T13:40:48Z</time>
      </trkpt>
      <trkpt lat="48.5797" lon="1.96313">
        <ele>111</ele>
        <time>2010-05-15T13:40:49Z</time>
      </trkpt>
      <trkpt lat="48.5797" lon="1.96316">
        <ele>111</ele>
        <time>2010-05-15T13:40:50Z</time>
      </trkpt>
      <trkpt lat="48.57971" lon="1.96318">
        <ele>111</ele>
        <time>2010-05-15T13:40:51Z</time>
      </trkpt>
      <trkpt lat="48.57971" lon="1.9632">
        <ele>111</ele>
        <time>2010-05-15T13:40:52Z</time>
      </trkpt>
      <trkpt lat="48.57971" lon="1.96322">
        <ele>111</ele>
        <time>2010-05-15T13:40:53Z</time>
      </trkpt>
      <trkpt lat="48.57971" lon="1.96325">
        <ele>111</ele>
        <time>2010-05-15T13:40:54Z</time>
      </trkpt>
      <trkpt lat="48.57971" lon="1.96327">
        <ele>111</ele>
        <time>2010-05-15T13:40:55Z</time>
      </trkpt>
      <trkpt lat="48.57973" lon="1.9633">
        <ele>111</ele>
        <time>2010-05-15T13:40:57Z</time>
      </trkpt>
      <trkpt lat="48.57974" lon="1.96333">
        <ele>111</ele>
        <time>2010-05-15T13:40:58Z</time>
      </trkpt>
      <trkpt lat="48.57972" lon="1.96335">
        <ele>111</ele>
        <time>2010-05-15T13:40:59Z</time>
      </trkpt>
      <trkpt lat="48.5797" lon="1.96332">
        <ele>111</ele>
        <time>2010-05-15T13:41:00Z</time>
      </trkpt>
      <trkpt lat="48.57968" lon="1.9633">
        <ele>111</ele>
        <time>2010-05-15T13:41:01Z</time>
      </trkpt>
      <trkpt lat="48.57967" lon="1.96331">
        <ele>107</ele>
        <time>2010-05-15T13:41:06Z</time>
      </trkpt>
      <trkpt lat="48.57967" lon="1.96333">
        <ele>106</ele>
        <time>2010-05-15T13:41:08Z</time>
      </trkpt>
      <trkpt lat="48.57967" lon="1.96335">
        <ele>106</ele>
        <time>2010-05-15T13:41:11Z</time>
      </trkpt>
      <trkpt lat="48.57967" lon="1.96338">
        <ele>106</ele>
        <time>2010-05-15T13:41:13Z</time>
      </trkpt>
      <trkpt lat="48.57967" lon="1.96341">
        <ele>109</ele>
        <time>2010-05-15T13:41:16Z</time>
      </trkpt>
      <trkpt lat="48.57967" lon="1.96338">
        <ele>112</ele>
        <time>2010-05-15T13:41:19Z</time>
      </trkpt>
      <trkpt lat="48.57967" lon="1.9634">
        <ele>115</ele>
        <time>2010-05-15T13:41:22Z</time>
      </trkpt>
      <trkpt lat="48.57967" lon="1.96338">
        <ele>119</ele>
        <time>2010-05-15T13:41:30Z</time>
      </trkpt>
      <trkpt lat="48.57967" lon="1.96335">
        <ele>119</ele>
        <time>2010-05-15T13:41:31Z</time>
      </trkpt>
      <trkpt lat="48.57966" lon="1.96333">
        <ele>119</ele>
        <time>2010-05-15T13:41:33Z</time>
      </trkpt>
      <trkpt lat="48.57967" lon="1.96335">
        <ele>116</ele>
        <time>2010-05-15T13:41:42Z</time>
      </trkpt>
      <trkpt lat="48.57968" lon="1.96337">
        <ele>114</ele>
        <time>2010-05-15T13:41:44Z</time>
      </trkpt>
      <trkpt lat="48.57967" lon="1.96339">
        <ele>113</ele>
        <time>2010-05-15T13:41:46Z</time>
      </trkpt>
      <trkpt lat="48.57967" lon="1.96341">
        <ele>113</ele>
        <time>2010-05-15T13:41:48Z</time>
      </trkpt>
      <trkpt lat="48.57966" lon="1.96342">
        <ele>113</ele>
        <time>2010-05-15T13:41:55Z</time>
      </trkpt>
      <trkpt lat="48.57965" lon="1.96344">
        <ele>113</ele>
        <time>2010-05-15T13:41:58Z</time>
      </trkpt>
      <trkpt lat="48.57965" lon="1.96346">
        <ele>113</ele>
        <time>2010-05-15T13:42:00Z</time>
      </trkpt>
      <trkpt lat="48.57964" lon="1.96347">
        <ele>113</ele>
        <time>2010-05-15T13:42:03Z</time>
      </trkpt>
      <trkpt lat="48.57963" lon="1.96349">
        <ele>113</ele>
        <time>2010-05-15T13:42:04Z</time>
      </trkpt>
      <trkpt lat="48.57962" lon="1.96349">
        <ele>113</ele>
        <time>2010-05-15T13:42:06Z</time>
      </trkpt>
      <trkpt lat="48.57961" lon="1.96347">
        <ele>115</ele>
        <time>2010-05-15T13:42:08Z</time>
      </trkpt>
      <trkpt lat="48.57961" lon="1.96345">
        <ele>116</ele>
        <time>2010-05-15T13:42:09Z</time>
      </trkpt>
      <trkpt lat="48.57961" lon="1.96343">
        <ele>117</ele>
        <time>2010-05-15T13:42:11Z</time>
      </trkpt>
      <trkpt lat="48.5796" lon="1.96341">
        <ele>117</ele>
        <time>2010-05-15T13:42:12Z</time>
      </trkpt>
      <trkpt lat="48.57959" lon="1.96339">
        <ele>117</ele>
        <time>2010-05-15T13:42:13Z</time>
      </trkpt>
      <trkpt lat="48.57956" lon="1.96337">
        <ele>117</ele>
        <time>2010-05-15T13:42:15Z</time>
      </trkpt>
      <trkpt lat="48.57955" lon="1.96336">
        <ele>117</ele>
        <time>2010-05-15T13:42:16Z</time>
      </trkpt>
      <trkpt lat="48.57953" lon="1.96336">
        <ele>117</ele>
        <time>2010-05-15T13:42:17Z</time>
      </trkpt>
      <trkpt lat="48.57952" lon="1.96335">
        <ele>117</ele>
        <time>2010-05-15T13:42:18Z</time>
      </trkpt>
      <trkpt lat="48.57951" lon="1.96334">
        <ele>117</ele>
        <time>2010-05-15T13:42:19Z</time>
      </trkpt>
      <trkpt lat="48.57949" lon="1.96333">
        <ele>116</ele>
        <time>2010-05-15T13:42:21Z</time>
      </trkpt>
      <trkpt lat="48.57947" lon="1.96332">
        <ele>115</ele>
        <time>2010-05-15T13:42:22Z</time>
      </trkpt>
      <trkpt lat="48.57946" lon="1.96331">
        <ele>114</ele>
        <time>2010-05-15T13:42:23Z</time>
      </trkpt>
      <trkpt lat="48.57945" lon="1.96331">
        <ele>113</ele>
        <time>2010-05-15T13:42:24Z</time>
      </trkpt>
      <trkpt lat="48.57942" lon="1.96329">
        <ele>111</ele>
        <time>2010-05-15T13:42:26Z</time>
      </trkpt>
      <trkpt lat="48.5794" lon="1.96327">
        <ele>110</ele>
        <time>2010-05-15T13:42:27Z</time>
      </trkpt>
      <trkpt lat="48.57939" lon="1.96325">
        <ele>109</ele>
        <time>2010-05-15T13:42:28Z</time>
      </trkpt>
      <trkpt lat="48.57937" lon="1.96324">
        <ele>109</ele>
        <time>2010-05-15T13:42:29Z</time>
      </trkpt>
      <trkpt lat="48.57936" lon="1.96322">
        <ele>109</ele>
        <time>2010-05-15T13:42:30Z</time>
      </trkpt>
      <trkpt lat="48.57933" lon="1.96318">
        <ele>109</ele>
        <time>2010-05-15T13:42:32Z</time>
      </trkpt>
      <trkpt lat="48.57931" lon="1.96316">
        <ele>109</ele>
        <time>2010-05-15T13:42:33Z</time>
      </trkpt>
      <trkpt lat="48.57929" lon="1.96313">
        <ele>109</ele>
        <time>2010-05-15T13:42:34Z</time>
      </trkpt>
      <trkpt lat="48.57927" lon="1.96311">
        <ele>109</ele>
        <time>2010-05-15T13:42:36Z</time>
      </trkpt>
      <trkpt lat="48.57925" lon="1.9631">
        <ele>109</ele>
        <time>2010-05-15T13:42:37Z</time>
      </trkpt>
      <trkpt lat="48.57923" lon="1.9631">
        <ele>109</ele>
        <time>2010-05-15T13:42:38Z</time>
      </trkpt>
      <trkpt lat="48.57921" lon="1.96311">
        <ele>109</ele>
        <time>2010-05-15T13:42:39Z</time>
      </trkpt>
      <trkpt lat="48.57919" lon="1.96311">
        <ele>109</ele>
        <time>2010-05-15T13:42:40Z</time>
      </trkpt>
      <trkpt lat="48.57917" lon="1.96311">
        <ele>109</ele>
        <time>2010-05-15T13:42:41Z</time>
      </trkpt>
      <trkpt lat="48.57916" lon="1.96311">
        <ele>109</ele>
        <time>2010-05-15T13:42:42Z</time>
      </trkpt>
      <trkpt lat="48.57914" lon="1.96311">
        <ele>109</ele>
        <time>2010-05-15T13:42:43Z</time>
      </trkpt>
      <trkpt lat="48.57913" lon="1.9631">
        <ele>109</ele>
        <time>2010-05-15T13:42:44Z</time>
      </trkpt>
      <trkpt lat="48.57911" lon="1.9631">
        <ele>109</ele>
        <time>2010-05-15T13:42:46Z</time>
      </trkpt>
      <trkpt lat="48.57909" lon="1.96311">
        <ele>109</ele>
        <time>2010-05-15T13:42:47Z</time>
      </trkpt>
      <trkpt lat="48.57907" lon="1.96312">
        <ele>109</ele>
        <time>2010-05-15T13:42:48Z</time>
      </trkpt>
      <trkpt lat="48.57906" lon="1.96312">
        <ele>109</ele>
        <time>2010-05-15T13:42:49Z</time>
      </trkpt>
      <trkpt lat="48.57905" lon="1.96312">
        <ele>109</ele>
        <time>2010-05-15T13:42:50Z</time>
      </trkpt>
      <trkpt lat="48.57903" lon="1.96311">
        <ele>109</ele>
        <time>2010-05-15T13:42:51Z</time>
      </trkpt>
      <trkpt lat="48.57901" lon="1.96308">
        <ele>109</ele>
        <time>2010-05-15T13:42:52Z</time>
      </trkpt>
      <trkpt lat="48.57899" lon="1.96306">
        <ele>109</ele>
        <time>2010-05-15T13:42:54Z</time>
      </trkpt>
      <trkpt lat="48.57899" lon="1.96304">
        <ele>109</ele>
        <time>2010-05-15T13:42:55Z</time>
      </trkpt>
      <trkpt lat="48.57898" lon="1.963">
        <ele>109</ele>
        <time>2010-05-15T13:42:56Z</time>
      </trkpt>
      <trkpt lat="48.57897" lon="1.96296">
        <ele>109</ele>
        <time>2010-05-15T13:42:57Z</time>
      </trkpt>
      <trkpt lat="48.57897" lon="1.96293">
        <ele>109</ele>
        <time>2010-05-15T13:42:58Z</time>
      </trkpt>
      <trkpt lat="48.57897" lon="1.96291">
        <ele>109</ele>
        <time>2010-05-15T13:42:59Z</time>
      </trkpt>
      <trkpt lat="48.57896" lon="1.96289">
        <ele>109</ele>
        <time>2010-05-15T13:43:00Z</time>
      </trkpt>
      <trkpt lat="48.57895" lon="1.96287">
        <ele>109</ele>
        <time>2010-05-15T13:43:03Z</time>
      </trkpt>
      <trkpt lat="48.57893" lon="1.96285">
        <ele>109</ele>
        <time>2010-05-15T13:43:05Z</time>
      </trkpt>
      <trkpt lat="48.57891" lon="1.96284">
        <ele>109</ele>
        <time>2010-05-15T13:43:06Z</time>
      </trkpt>
      <trkpt lat="48.57888" lon="1.96282">
        <ele>109</ele>
        <time>2010-05-15T13:43:07Z</time>
      </trkpt>
      <trkpt lat="48.57885" lon="1.96279">
        <ele>109</ele>
        <time>2010-05-15T13:43:08Z</time>
      </trkpt>
      <trkpt lat="48.57883" lon="1.96276">
        <ele>109</ele>
        <time>2010-05-15T13:43:09Z</time>
      </trkpt>
      <trkpt lat="48.5788" lon="1.96273">
        <ele>109</ele>
        <time>2010-05-15T13:43:10Z</time>
      </trkpt>
      <trkpt lat="48.57876" lon="1.9627">
        <ele>109</ele>
        <time>2010-05-15T13:43:11Z</time>
      </trkpt>
      <trkpt lat="48.57873" lon="1.96266">
        <ele>110</ele>
        <time>2010-05-15T13:43:12Z</time>
      </trkpt>
      <trkpt lat="48.57869" lon="1.96264">
        <ele>110</ele>
        <time>2010-05-15T13:43:13Z</time>
      </trkpt>
      <trkpt lat="48.57866" lon="1.96262">
        <ele>110</ele>
        <time>2010-05-15T13:43:14Z</time>
      </trkpt>
      <trkpt lat="48.57862" lon="1.96259">
        <ele>110</ele>
        <time>2010-05-15T13:43:15Z</time>
      </trkpt>
      <trkpt lat="48.57858" lon="1.96256">
        <ele>110</ele>
        <time>2010-05-15T13:43:16Z</time>
      </trkpt>
      <trkpt lat="48.57855" lon="1.96254">
        <ele>110</ele>
        <time>2010-05-15T13:43:17Z</time>
      </trkpt>
      <trkpt lat="48.57852" lon="1.96251">
        <ele>110</ele>
        <time>2010-05-15T13:43:18Z</time>
      </trkpt>
      <trkpt lat="48.5785" lon="1.9625">
        <ele>110</ele>
        <time>2010-05-15T13:43:19Z</time>
      </trkpt>
      <trkpt lat="48.57847" lon="1.96248">
        <ele>110</ele>
        <time>2010-05-15T13:43:20Z</time>
      </trkpt>
      <trkpt lat="48.57844" lon="1.96247">
        <ele>110</ele>
        <time>2010-05-15T13:43:21Z</time>
      </trkpt>
      <trkpt lat="48.57841" lon="1.96243">
        <ele>110</ele>
        <time>2010-05-15T13:43:22Z</time>
      </trkpt>
      <trkpt lat="48.57838" lon="1.96242">
        <ele>110</ele>
        <time>2010-05-15T13:43:23Z</time>
      </trkpt>
      <trkpt lat="48.57835" lon="1.96239">
        <ele>109</ele>
        <time>2010-05-15T13:43:24Z</time>
      </trkpt>
      <trkpt lat="48.57832" lon="1.96238">
        <ele>108</ele>
        <time>2010-05-15T13:43:25Z</time>
      </trkpt>
      <trkpt lat="48.57829" lon="1.96236">
        <ele>107</ele>
        <time>2010-05-15T13:43:26Z</time>
      </trkpt>
      <trkpt lat="48.57826" lon="1.96233">
        <ele>107</ele>
        <time>2010-05-15T13:43:27Z</time>
      </trkpt>
      <trkpt lat="48.57822" lon="1.96231">
        <ele>107</ele>
        <time>2010-05-15T13:43:28Z</time>
      </trkpt>
      <trkpt lat="48.57817" lon="1.9623">
        <ele>107</ele>
        <time>2010-05-15T13:43:29Z</time>
      </trkpt>
      <trkpt lat="48.57813" lon="1.96227">
        <ele>107</ele>
        <time>2010-05-15T13:43:30Z</time>
      </trkpt>
      <trkpt lat="48.57811" lon="1.96227">
        <ele>107</ele>
        <time>2010-05-15T13:43:31Z</time>
      </trkpt>
      <trkpt lat="48.57809" lon="1.96225">
        <ele>107</ele>
        <time>2010-05-15T13:43:32Z</time>
      </trkpt>
      <trkpt lat="48.57806" lon="1.96224">
        <ele>107</ele>
        <time>2010-05-15T13:43:33Z</time>
      </trkpt>
      <trkpt lat="48.57803" lon="1.96223">
        <ele>107</ele>
        <time>2010-05-15T13:43:34Z</time>
      </trkpt>
      <trkpt lat="48.57798" lon="1.96222">
        <ele>107</ele>
        <time>2010-05-15T13:43:35Z</time>
      </trkpt>
      <trkpt lat="48.57795" lon="1.9622">
        <ele>107</ele>
        <time>2010-05-15T13:43:36Z</time>
      </trkpt>
      <trkpt lat="48.57791" lon="1.96217">
        <ele>107</ele>
        <time>2010-05-15T13:43:37Z</time>
      </trkpt>
      <trkpt lat="48.57788" lon="1.96215">
        <ele>107</ele>
        <time>2010-05-15T13:43:38Z</time>
      </trkpt>
      <trkpt lat="48.57785" lon="1.96212">
        <ele>107</ele>
        <time>2010-05-15T13:43:39Z</time>
      </trkpt>
      <trkpt lat="48.57782" lon="1.9621">
        <ele>107</ele>
        <time>2010-05-15T13:43:40Z</time>
      </trkpt>
      <trkpt lat="48.5778" lon="1.96208">
        <ele>106</ele>
        <time>2010-05-15T13:43:41Z</time>
      </trkpt>
      <trkpt lat="48.57778" lon="1.96206">
        <ele>105</ele>
        <time>2010-05-15T13:43:42Z</time>
      </trkpt>
      <trkpt lat="48.57775" lon="1.96203">
        <ele>104</ele>
        <time>2010-05-15T13:43:43Z</time>
      </trkpt>
      <trkpt lat="48.57772" lon="1.962">
        <ele>103</ele>
        <time>2010-05-15T13:43:44Z</time>
      </trkpt>
      <trkpt lat="48.57769" lon="1.96197">
        <ele>102</ele>
        <time>2010-05-15T13:43:45Z</time>
      </trkpt>
      <trkpt lat="48.57765" lon="1.96194">
        <ele>101</ele>
        <time>2010-05-15T13:43:46Z</time>
      </trkpt>
      <trkpt lat="48.57762" lon="1.96191">
        <ele>100</ele>
        <time>2010-05-15T13:43:47Z</time>
      </trkpt>
      <trkpt lat="48.57759" lon="1.9619">
        <ele>100</ele>
        <time>2010-05-15T13:43:48Z</time>
      </trkpt>
      <trkpt lat="48.57756" lon="1.96189">
        <ele>99</ele>
        <time>2010-05-15T13:43:49Z</time>
      </trkpt>
      <trkpt lat="48.57752" lon="1.96187">
        <ele>98</ele>
        <time>2010-05-15T13:43:50Z</time>
      </trkpt>
      <trkpt lat="48.57748" lon="1.96185">
        <ele>98</ele>
        <time>2010-05-15T13:43:51Z</time>
      </trkpt>
      <trkpt lat="48.57744" lon="1.96183">
        <ele>97</ele>
        <time>2010-05-15T13:43:52Z</time>
      </trkpt>
      <trkpt lat="48.57734" lon="1.96176">
        <ele>97</ele>
        <time>2010-05-15T13:43:56Z</time>
      </trkpt>
      <trkpt lat="48.57731" lon="1.96172">
        <ele>96</ele>
        <time>2010-05-15T13:43:57Z</time>
      </trkpt>
      <trkpt lat="48.57726" lon="1.9617">
        <ele>96</ele>
        <time>2010-05-15T13:43:58Z</time>
      </trkpt>
      <trkpt lat="48.57726" lon="1.96168">
        <ele>95</ele>
        <time>2010-05-15T13:43:59Z</time>
      </trkpt>
      <trkpt lat="48.57725" lon="1.96164">
        <ele>95</ele>
        <time>2010-05-15T13:44:00Z</time>
      </trkpt>
      <trkpt lat="48.57719" lon="1.96158">
        <ele>95</ele>
        <time>2010-05-15T13:44:05Z</time>
      </trkpt>
      <trkpt lat="48.57717" lon="1.96147">
        <ele>95</ele>
        <time>2010-05-15T13:44:06Z</time>
      </trkpt>
      <trkpt lat="48.57714" lon="1.96142">
        <ele>95</ele>
        <time>2010-05-15T13:44:07Z</time>
      </trkpt>
      <trkpt lat="48.57711" lon="1.96142">
        <ele>95</ele>
        <time>2010-05-15T13:44:08Z</time>
      </trkpt>
      <trkpt lat="48.57709" lon="1.96137">
        <ele>95</ele>
        <time>2010-05-15T13:44:09Z</time>
      </trkpt>
      <trkpt lat="48.57708" lon="1.96134">
        <ele>95</ele>
        <time>2010-05-15T13:44:10Z</time>
      </trkpt>
      <trkpt lat="48.57706" lon="1.96132">
        <ele>96</ele>
        <time>2010-05-15T13:44:11Z</time>
      </trkpt>
      <trkpt lat="48.57704" lon="1.9613">
        <ele>97</ele>
        <time>2010-05-15T13:44:12Z</time>
      </trkpt>
      <trkpt lat="48.57702" lon="1.96128">
        <ele>98</ele>
        <time>2010-05-15T13:44:13Z</time>
      </trkpt>
      <trkpt lat="48.57701" lon="1.96127">
        <ele>99</ele>
        <time>2010-05-15T13:44:14Z</time>
      </trkpt>
      <trkpt lat="48.57699" lon="1.96124">
        <ele>100</ele>
        <time>2010-05-15T13:44:15Z</time>
      </trkpt>
      <trkpt lat="48.57698" lon="1.96123">
        <ele>101</ele>
        <time>2010-05-15T13:44:16Z</time>
      </trkpt>
      <trkpt lat="48.57696" lon="1.96122">
        <ele>102</ele>
        <time>2010-05-15T13:44:19Z</time>
      </trkpt>
      <trkpt lat="48.57694" lon="1.96119">
        <ele>102</ele>
        <time>2010-05-15T13:44:22Z</time>
      </trkpt>
      <trkpt lat="48.57692" lon="1.96117">
        <ele>102</ele>
        <time>2010-05-15T13:44:24Z</time>
      </trkpt>
      <trkpt lat="48.57691" lon="1.96115">
        <ele>103</ele>
        <time>2010-05-15T13:44:25Z</time>
      </trkpt>
      <trkpt lat="48.5769" lon="1.96115">
        <ele>104</ele>
        <time>2010-05-15T13:44:26Z</time>
      </trkpt>
      <trkpt lat="48.57689" lon="1.96115">
        <ele>107</ele>
        <time>2010-05-15T13:44:29Z</time>
      </trkpt>
      <trkpt lat="48.57688" lon="1.96117">
        <ele>109</ele>
        <time>2010-05-15T13:44:33Z</time>
      </trkpt>
      <trkpt lat="48.57687" lon="1.96118">
        <ele>109</ele>
        <time>2010-05-15T13:44:35Z</time>
      </trkpt>
      <trkpt lat="48.57686" lon="1.9612">
        <ele>109</ele>
        <time>2010-05-15T13:44:37Z</time>
      </trkpt>
      <trkpt lat="48.57686" lon="1.96122">
        <ele>111</ele>
        <time>2010-05-15T13:44:40Z</time>
      </trkpt>
      <trkpt lat="48.57687" lon="1.96125">
        <ele>111</ele>
        <time>2010-05-15T13:44:44Z</time>
      </trkpt>
      <trkpt lat="48.57688" lon="1.96126">
        <ele>111</ele>
        <time>2010-05-15T13:44:46Z</time>
      </trkpt>
      <trkpt lat="48.57687" lon="1.96128">
        <ele>111</ele>
        <time>2010-05-15T13:44:51Z</time>
      </trkpt>
      <trkpt lat="48.57686" lon="1.9613">
        <ele>111</ele>
        <time>2010-05-15T13:44:55Z</time>
      </trkpt>
      <trkpt lat="48.57684" lon="1.9613">
        <ele>111</ele>
        <time>2010-05-15T13:44:57Z</time>
      </trkpt>
      <trkpt lat="48.57682" lon="1.96131">
        <ele>111</ele>
        <time>2010-05-15T13:45:01Z</time>
      </trkpt>
      <trkpt lat="48.57684" lon="1.9613">
        <ele>114</ele>
        <time>2010-05-15T13:45:17Z</time>
      </trkpt>
      <trkpt lat="48.57685" lon="1.96127">
        <ele>114</ele>
        <time>2010-05-15T13:45:19Z</time>
      </trkpt>
      <trkpt lat="48.57684" lon="1.96125">
        <ele>114</ele>
        <time>2010-05-15T13:45:21Z</time>
      </trkpt>
      <trkpt lat="48.57684" lon="1.96123">
        <ele>114</ele>
        <time>2010-05-15T13:45:23Z</time>
      </trkpt>
      <trkpt lat="48.57687" lon="1.9612">
        <ele>114</ele>
        <time>2010-05-15T13:45:27Z</time>
      </trkpt>
      <trkpt lat="48.57686" lon="1.96118">
        <ele>114</ele>
        <time>2010-05-15T13:45:29Z</time>
      </trkpt>
      <trkpt lat="48.57686" lon="1.96116">
        <ele>114</ele>
        <time>2010-05-15T13:45:31Z</time>
      </trkpt>
      <trkpt lat="48.57686" lon="1.96114">
        <ele>114</ele>
        <time>2010-05-15T13:45:34Z</time>
      </trkpt>
      <trkpt lat="48.57687" lon="1.96114">
        <ele>113</ele>
        <time>2010-05-15T13:45:36Z</time>
      </trkpt>
      <trkpt lat="48.57689" lon="1.96115">
        <ele>113</ele>
        <time>2010-05-15T13:45:39Z</time>
      </trkpt>
      <trkpt lat="48.57687" lon="1.96113">
        <ele>113</ele>
        <time>2010-05-15T13:45:42Z</time>
      </trkpt>
      <trkpt lat="48.57685" lon="1.96113">
        <ele>113</ele>
        <time>2010-05-15T13:45:43Z</time>
      </trkpt>
      <trkpt lat="48.57683" lon="1.96112">
        <ele>113</ele>
        <time>2010-05-15T13:45:44Z</time>
      </trkpt>
      <trkpt lat="48.57682" lon="1.96111">
        <ele>113</ele>
        <time>2010-05-15T13:45:45Z</time>
      </trkpt>
      <trkpt lat="48.5768" lon="1.96109">
        <ele>113</ele>
        <time>2010-05-15T13:45:46Z</time>
      </trkpt>
      <trkpt lat="48.57679" lon="1.96108">
        <ele>113</ele>
        <time>2010-05-15T13:45:47Z</time>
      </trkpt>
      <trkpt lat="48.57678" lon="1.96108">
        <ele>113</ele>
        <time>2010-05-15T13:45:48Z</time>
      </trkpt>
      <trkpt lat="48.57677" lon="1.96105">
        <ele>113</ele>
        <time>2010-05-15T13:45:50Z</time>
      </trkpt>
      <trkpt lat="48.57677" lon="1.96103">
        <ele>113</ele>
        <time>2010-05-15T13:45:54Z</time>
      </trkpt>
      <trkpt lat="48.57675" lon="1.96101">
        <ele>113</ele>
        <time>2010-05-15T13:45:56Z</time>
      </trkpt>
      <trkpt lat="48.57674" lon="1.96103">
        <ele>113</ele>
        <time>2010-05-15T13:45:58Z</time>
      </trkpt>
      <trkpt lat="48.57675" lon="1.96104">
        <ele>113</ele>
        <time>2010-05-15T13:46:00Z</time>
      </trkpt>
      <trkpt lat="48.57676" lon="1.96105">
        <ele>113</ele>
        <time>2010-05-15T13:46:03Z</time>
      </trkpt>
      <trkpt lat="48.57675" lon="1.96103">
        <ele>112</ele>
        <time>2010-05-15T13:46:07Z</time>
      </trkpt>
      <trkpt lat="48.57674" lon="1.96102">
        <ele>112</ele>
        <time>2010-05-15T13:46:09Z</time>
      </trkpt>
      <trkpt lat="48.57674" lon="1.961">
        <ele>112</ele>
        <time>2010-05-15T13:46:11Z</time>
      </trkpt>
      <trkpt lat="48.57672" lon="1.96099">
        <ele>112</ele>
        <time>2010-05-15T13:46:15Z</time>
      </trkpt>
      <trkpt lat="48.57671" lon="1.96101">
        <ele>112</ele>
        <time>2010-05-15T13:46:16Z</time>
      </trkpt>
      <trkpt lat="48.5767" lon="1.96102">
        <ele>112</ele>
        <time>2010-05-15T13:46:18Z</time>
      </trkpt>
      <trkpt lat="48.57671" lon="1.96103">
        <ele>112</ele>
        <time>2010-05-15T13:46:22Z</time>
      </trkpt>
      <trkpt lat="48.57672" lon="1.96104">
        <ele>112</ele>
        <time>2010-05-15T13:46:25Z</time>
      </trkpt>
      <trkpt lat="48.57674" lon="1.96103">
        <ele>112</ele>
        <time>2010-05-15T13:46:29Z</time>
      </trkpt>
      <trkpt lat="48.57675" lon="1.96102">
        <ele>112</ele>
        <time>2010-05-15T13:46:34Z</time>
      </trkpt>
      <trkpt lat="48.57676" lon="1.96102">
        <ele>112</ele>
        <time>2010-05-15T13:46:39Z</time>
      </trkpt>
      <trkpt lat="48.57676" lon="1.96104">
        <ele>112</ele>
        <time>2010-05-15T13:46:47Z</time>
      </trkpt>
      <trkpt lat="48.57675" lon="1.96104">
        <ele>112</ele>
        <time>2010-05-15T13:46:49Z</time>
      </trkpt>
      <trkpt lat="48.57674" lon="1.96106">
        <ele>113</ele>
        <time>2010-05-15T13:46:51Z</time>
      </trkpt>
      <trkpt lat="48.57673" lon="1.96108">
        <ele>116</ele>
        <time>2010-05-15T13:46:54Z</time>
      </trkpt>
      <trkpt lat="48.57673" lon="1.9611">
        <ele>117</ele>
        <time>2010-05-15T13:46:57Z</time>
      </trkpt>
      <trkpt lat="48.57673" lon="1.96112">
        <ele>117</ele>
        <time>2010-05-15T13:46:58Z</time>
      </trkpt>
      <trkpt lat="48.57673" lon="1.96115">
        <ele>117</ele>
        <time>2010-05-15T13:46:59Z</time>
      </trkpt>
      <trkpt lat="48.57674" lon="1.96117">
        <ele>117</ele>
        <time>2010-05-15T13:47:00Z</time>
      </trkpt>
      <trkpt lat="48.57675" lon="1.96119">
        <ele>117</ele>
        <time>2010-05-15T13:47:02Z</time>
      </trkpt>
      <trkpt lat="48.57675" lon="1.96121">
        <ele>117</ele>
        <time>2010-05-15T13:47:03Z</time>
      </trkpt>
      <trkpt lat="48.57676" lon="1.96123">
        <ele>116</ele>
        <time>2010-05-15T13:47:05Z</time>
      </trkpt>
      <trkpt lat="48.57678" lon="1.96125">
        <ele>115</ele>
        <time>2010-05-15T13:47:07Z</time>
      </trkpt>
      <trkpt lat="48.57678" lon="1.96127">
        <ele>114</ele>
        <time>2010-05-15T13:47:08Z</time>
      </trkpt>
      <trkpt lat="48.57679" lon="1.96129">
        <ele>114</ele>
        <time>2010-05-15T13:47:09Z</time>
      </trkpt>
      <trkpt lat="48.57679" lon="1.96131">
        <ele>114</ele>
        <time>2010-05-15T13:47:10Z</time>
      </trkpt>
      <trkpt lat="48.5768" lon="1.96133">
        <ele>114</ele>
        <time>2010-05-15T13:47:11Z</time>
      </trkpt>
      <trkpt lat="48.5768" lon="1.96136">
        <ele>114</ele>
        <time>2010-05-15T13:47:12Z</time>
      </trkpt>
      <trkpt lat="48.57681" lon="1.96138">
        <ele>114</ele>
        <time>2010-05-15T13:47:13Z</time>
      </trkpt>
      <trkpt lat="48.57681" lon="1.96141">
        <ele>114</ele>
        <time>2010-05-15T13:47:14Z</time>
      </trkpt>
      <trkpt lat="48.57682" lon="1.96143">
        <ele>114</ele>
        <time>2010-05-15T13:47:15Z</time>
      </trkpt>
      <trkpt lat="48.57682" lon="1.96148">
        <ele>114</ele>
        <time>2010-05-15T13:47:18Z</time>
      </trkpt>
      <trkpt lat="48.57684" lon="1.96149">
        <ele>113</ele>
        <time>2010-05-15T13:47:21Z</time>
      </trkpt>
      <trkpt lat="48.57685" lon="1.96152">
        <ele>111</ele>
        <time>2010-05-15T13:47:24Z</time>
      </trkpt>
      <trkpt lat="48.57686" lon="1.96155">
        <ele>111</ele>
        <time>2010-05-15T13:47:25Z</time>
      </trkpt>
      <trkpt lat="48.57686" lon="1.96157">
        <ele>111</ele>
        <time>2010-05-15T13:47:26Z</time>
      </trkpt>
      <trkpt lat="48.57688" lon="1.96163">
        <ele>111</ele>
        <time>2010-05-15T13:47:29Z</time>
      </trkpt>
      <trkpt lat="48.57688" lon="1.96167">
        <ele>111</ele>
        <time>2010-05-15T13:47:30Z</time>
      </trkpt>
      <trkpt lat="48.57689" lon="1.96171">
        <ele>110</ele>
        <time>2010-05-15T13:47:32Z</time>
      </trkpt>
      <trkpt lat="48.57689" lon="1.96176">
        <ele>110</ele>
        <time>2010-05-15T13:47:36Z</time>
      </trkpt>
      <trkpt lat="48.5769" lon="1.96181">
        <ele>110</ele>
        <time>2010-05-15T13:47:37Z</time>
      </trkpt>
      <trkpt lat="48.57689" lon="1.96185">
        <ele>110</ele>
        <time>2010-05-15T13:47:38Z</time>
      </trkpt>
      <trkpt lat="48.57691" lon="1.9619">
        <ele>111</ele>
        <time>2010-05-15T13:47:43Z</time>
      </trkpt>
      <trkpt lat="48.57689" lon="1.96189">
        <ele>112</ele>
        <time>2010-05-15T13:47:44Z</time>
      </trkpt>
      <trkpt lat="48.57692" lon="1.96194">
        <ele>114</ele>
        <time>2010-05-15T13:47:46Z</time>
      </trkpt>
      <trkpt lat="48.57693" lon="1.96196">
        <ele>114</ele>
        <time>2010-05-15T13:47:47Z</time>
      </trkpt>
      <trkpt lat="48.57693" lon="1.96199">
        <ele>114</ele>
        <time>2010-05-15T13:47:48Z</time>
      </trkpt>
      <trkpt lat="48.57694" lon="1.96201">
        <ele>114</ele>
        <time>2010-05-15T13:47:49Z</time>
      </trkpt>
      <trkpt lat="48.57692" lon="1.96204">
        <ele>114</ele>
        <time>2010-05-15T13:47:50Z</time>
      </trkpt>
      <trkpt lat="48.5769" lon="1.96209">
        <ele>114</ele>
        <time>2010-05-15T13:47:51Z</time>
      </trkpt>
      <trkpt lat="48.5769" lon="1.96214">
        <ele>114</ele>
        <time>2010-05-15T13:47:52Z</time>
      </trkpt>
      <trkpt lat="48.57689" lon="1.96218">
        <ele>114</ele>
        <time>2010-05-15T13:47:53Z</time>
      </trkpt>
      <trkpt lat="48.5769" lon="1.96221">
        <ele>114</ele>
        <time>2010-05-15T13:47:54Z</time>
      </trkpt>
      <trkpt lat="48.5769" lon="1.96224">
        <ele>114</ele>
        <time>2010-05-15T13:47:55Z</time>
      </trkpt>
      <trkpt lat="48.57691" lon="1.96227">
        <ele>114</ele>
        <time>2010-05-15T13:47:56Z</time>
      </trkpt>
      <trkpt lat="48.57693" lon="1.96228">
        <ele>113</ele>
        <time>2010-05-15T13:47:57Z</time>
      </trkpt>
      <trkpt lat="48.57695" lon="1.9623">
        <ele>112</ele>
        <time>2010-05-15T13:47:58Z</time>
      </trkpt>
      <trkpt lat="48.57696" lon="1.96233">
        <ele>111</ele>
        <time>2010-05-15T13:47:59Z</time>
      </trkpt>
      <trkpt lat="48.57697" lon="1.96236">
        <ele>110</ele>
        <time>2010-05-15T13:48:00Z</time>
      </trkpt>
      <trkpt lat="48.57697" lon="1.96239">
        <ele>109</ele>
        <time>2010-05-15T13:48:01Z</time>
      </trkpt>
      <trkpt lat="48.57698" lon="1.96242">
        <ele>109</ele>
        <time>2010-05-15T13:48:02Z</time>
      </trkpt>
      <trkpt lat="48.57698" lon="1.96244">
        <ele>109</ele>
        <time>2010-05-15T13:48:03Z</time>
      </trkpt>
      <trkpt lat="48.57699" lon="1.96246">
        <ele>109</ele>
        <time>2010-05-15T13:48:04Z</time>
      </trkpt>
      <trkpt lat="48.57699" lon="1.96249">
        <ele>109</ele>
        <time>2010-05-15T13:48:05Z</time>
      </trkpt>
      <trkpt lat="48.57699" lon="1.96251">
        <ele>109</ele>
        <time>2010-05-15T13:48:06Z</time>
      </trkpt>
      <trkpt lat="48.577" lon="1.96253">
        <ele>109</ele>
        <time>2010-05-15T13:48:07Z</time>
      </trkpt>
      <trkpt lat="48.57701" lon="1.96256">
        <ele>109</ele>
        <time>2010-05-15T13:48:08Z</time>
      </trkpt>
      <trkpt lat="48.57701" lon="1.96259">
        <ele>109</ele>
        <time>2010-05-15T13:48:09Z</time>
      </trkpt>
      <trkpt lat="48.57701" lon="1.96262">
        <ele>109</ele>
        <time>2010-05-15T13:48:10Z</time>
      </trkpt>
      <trkpt lat="48.57702" lon="1.96265">
        <ele>109</ele>
        <time>2010-05-15T13:48:11Z</time>
      </trkpt>
      <trkpt lat="48.57703" lon="1.96267">
        <ele>109</ele>
        <time>2010-05-15T13:48:12Z</time>
      </trkpt>
      <trkpt lat="48.57703" lon="1.9627">
        <ele>109</ele>
        <time>2010-05-15T13:48:13Z</time>
      </trkpt>
      <trkpt lat="48.57704" lon="1.96273">
        <ele>109</ele>
        <time>2010-05-15T13:48:14Z</time>
      </trkpt>
      <trkpt lat="48.57705" lon="1.96274">
        <ele>109</ele>
        <time>2010-05-15T13:48:15Z</time>
      </trkpt>
      <trkpt lat="48.57705" lon="1.96277">
        <ele>109</ele>
        <time>2010-05-15T13:48:16Z</time>
      </trkpt>
      <trkpt lat="48.57706" lon="1.96279">
        <ele>109</ele>
        <time>2010-05-15T13:48:17Z</time>
      </trkpt>
      <trkpt lat="48.57706" lon="1.96282">
        <ele>109</ele>
        <time>2010-05-15T13:48:18Z</time>
      </trkpt>
      <trkpt lat="48.57708" lon="1.96285">
        <ele>109</ele>
        <time>2010-05-15T13:48:19Z</time>
      </trkpt>
      <trkpt lat="48.57709" lon="1.96288">
        <ele>109</ele>
        <time>2010-05-15T13:48:20Z</time>
      </trkpt>
      <trkpt lat="48.57709" lon="1.9629">
        <ele>109</ele>
        <time>2010-05-15T13:48:21Z</time>
      </trkpt>
      <trkpt lat="48.5771" lon="1.96293">
        <ele>109</ele>
        <time>2010-05-15T13:48:22Z</time>
      </trkpt>
      <trkpt lat="48.57711" lon="1.96295">
        <ele>109</ele>
        <time>2010-05-15T13:48:23Z</time>
      </trkpt>
      <trkpt lat="48.57711" lon="1.96297">
        <ele>109</ele>
        <time>2010-05-15T13:48:24Z</time>
      </trkpt>
      <trkpt lat="48.57712" lon="1.963">
        <ele>109</ele>
        <time>2010-05-15T13:48:25Z</time>
      </trkpt>
      <trkpt lat="48.57713" lon="1.96302">
        <ele>109</ele>
        <time>2010-05-15T13:48:26Z</time>
      </trkpt>
      <trkpt lat="48.57712" lon="1.96304">
        <ele>109</ele>
        <time>2010-05-15T13:48:27Z</time>
      </trkpt>
      <trkpt lat="48.57713" lon="1.96306">
        <ele>109</ele>
        <time>2010-05-15T13:48:28Z</time>
      </trkpt>
      <trkpt lat="48.57713" lon="1.96309">
        <ele>109</ele>
        <time>2010-05-15T13:48:29Z</time>
      </trkpt>
      <trkpt lat="48.57713" lon="1.96311">
        <ele>109</ele>
        <time>2010-05-15T13:48:30Z</time>
      </trkpt>
      <trkpt lat="48.57714" lon="1.96313">
        <ele>109</ele>
        <time>2010-05-15T13:48:31Z</time>
      </trkpt>
      <trkpt lat="48.57715" lon="1.96315">
        <ele>109</ele>
        <time>2010-05-15T13:48:32Z</time>
      </trkpt>
      <trkpt lat="48.57715" lon="1.96318">
        <ele>109</ele>
        <time>2010-05-15T13:48:33Z</time>
      </trkpt>
      <trkpt lat="48.57715" lon="1.96321">
        <ele>109</ele>
        <time>2010-05-15T13:48:34Z</time>
      </trkpt>
      <trkpt lat="48.57716" lon="1.96323">
        <ele>109</ele>
        <time>2010-05-15T13:48:35Z</time>
      </trkpt>
      <trkpt lat="48.57718" lon="1.96325">
        <ele>109</ele>
        <time>2010-05-15T13:48:36Z</time>
      </trkpt>
      <trkpt lat="48.57719" lon="1.96327">
        <ele>109</ele>
        <time>2010-05-15T13:48:37Z</time>
      </trkpt>
      <trkpt lat="48.5772" lon="1.9633">
        <ele>109</ele>
        <time>2010-05-15T13:48:38Z</time>
      </trkpt>
      <trkpt lat="48.5772" lon="1.96332">
        <ele>109</ele>
        <time>2010-05-15T13:48:39Z</time>
      </trkpt>
      <trkpt lat="48.57721" lon="1.96334">
        <ele>109</ele>
        <time>2010-05-15T13:48:40Z</time>
      </trkpt>
      <trkpt lat="48.57721" lon="1.96337">
        <ele>109</ele>
        <time>2010-05-15T13:48:41Z</time>
      </trkpt>
      <trkpt lat="48.57721" lon="1.9634">
        <ele>109</ele>
        <time>2010-05-15T13:48:42Z</time>
      </trkpt>
      <trkpt lat="48.5772" lon="1.96343">
        <ele>109</ele>
        <time>2010-05-15T13:48:43Z</time>
      </trkpt>
      <trkpt lat="48.5772" lon="1.96345">
        <ele>109</ele>
        <time>2010-05-15T13:48:44Z</time>
      </trkpt>
      <trkpt lat="48.5772" lon="1.96348">
        <ele>109</ele>
        <time>2010-05-15T13:48:45Z</time>
      </trkpt>
      <trkpt lat="48.5772" lon="1.9635">
        <ele>109</ele>
        <time>2010-05-15T13:48:46Z</time>
      </trkpt>
      <trkpt lat="48.57721" lon="1.96352">
        <ele>109</ele>
        <time>2010-05-15T13:48:47Z</time>
      </trkpt>
      <trkpt lat="48.5772" lon="1.96355">
        <ele>109</ele>
        <time>2010-05-15T13:48:48Z</time>
      </trkpt>
      <trkpt lat="48.5772" lon="1.96358">
        <ele>109</ele>
        <time>2010-05-15T13:48:49Z</time>
      </trkpt>
      <trkpt lat="48.57719" lon="1.96361">
        <ele>109</ele>
        <time>2010-05-15T13:48:50Z</time>
      </trkpt>
      <trkpt lat="48.57719" lon="1.96364">
        <ele>109</ele>
        <time>2010-05-15T13:48:51Z</time>
      </trkpt>
      <trkpt lat="48.57719" lon="1.96368">
        <ele>109</ele>
        <time>2010-05-15T13:48:52Z</time>
      </trkpt>
      <trkpt lat="48.57719" lon="1.96371">
        <ele>109</ele>
        <time>2010-05-15T13:48:53Z</time>
      </trkpt>
      <trkpt lat="48.57719" lon="1.96374">
        <ele>109</ele>
        <time>2010-05-15T13:48:54Z</time>
      </trkpt>
      <trkpt lat="48.57719" lon="1.96377">
        <ele>110</ele>
        <time>2010-05-15T13:48:55Z</time>
      </trkpt>
      <trkpt lat="48.5772" lon="1.9638">
        <ele>111</ele>
        <time>2010-05-15T13:48:56Z</time>
      </trkpt>
      <trkpt lat="48.57721" lon="1.96382">
        <ele>111</ele>
        <time>2010-05-15T13:48:57Z</time>
      </trkpt>
      <trkpt lat="48.57721" lon="1.96386">
        <ele>111</ele>
        <time>2010-05-15T13:48:58Z</time>
      </trkpt>
      <trkpt lat="48.57721" lon="1.96388">
        <ele>111</ele>
        <time>2010-05-15T13:48:59Z</time>
      </trkpt>
      <trkpt lat="48.57722" lon="1.9639">
        <ele>111</ele>
        <time>2010-05-15T13:49:00Z</time>
      </trkpt>
      <trkpt lat="48.57723" lon="1.96393">
        <ele>111</ele>
        <time>2010-05-15T13:49:01Z</time>
      </trkpt>
      <trkpt lat="48.57724" lon="1.96395">
        <ele>111</ele>
        <time>2010-05-15T13:49:02Z</time>
      </trkpt>
      <trkpt lat="48.57724" lon="1.96398">
        <ele>111</ele>
        <time>2010-05-15T13:49:03Z</time>
      </trkpt>
      <trkpt lat="48.57725" lon="1.964">
        <ele>111</ele>
        <time>2010-05-15T13:49:04Z</time>
      </trkpt>
      <trkpt lat="48.57726" lon="1.96402">
        <ele>110</ele>
        <time>2010-05-15T13:49:05Z</time>
      </trkpt>
      <trkpt lat="48.57726" lon="1.96404">
        <ele>109</ele>
        <time>2010-05-15T13:49:06Z</time>
      </trkpt>
      <trkpt lat="48.57727" lon="1.96406">
        <ele>109</ele>
        <time>2010-05-15T13:49:07Z</time>
      </trkpt>
      <trkpt lat="48.57728" lon="1.96409">
        <ele>108</ele>
        <time>2010-05-15T13:49:08Z</time>
      </trkpt>
      <trkpt lat="48.57728" lon="1.96411">
        <ele>108</ele>
        <time>2010-05-15T13:49:09Z</time>
      </trkpt>
      <trkpt lat="48.57728" lon="1.96414">
        <ele>108</ele>
        <time>2010-05-15T13:49:10Z</time>
      </trkpt>
      <trkpt lat="48.57729" lon="1.96416">
        <ele>108</ele>
        <time>2010-05-15T13:49:11Z</time>
      </trkpt>
      <trkpt lat="48.5773" lon="1.96419">
        <ele>107</ele>
        <time>2010-05-15T13:49:12Z</time>
      </trkpt>
      <trkpt lat="48.5773" lon="1.96422">
        <ele>107</ele>
        <time>2010-05-15T13:49:13Z</time>
      </trkpt>
      <trkpt lat="48.57731" lon="1.96424">
        <ele>106</ele>
        <time>2010-05-15T13:49:14Z</time>
      </trkpt>
      <trkpt lat="48.57731" lon="1.96427">
        <ele>106</ele>
        <time>2010-05-15T13:49:15Z</time>
      </trkpt>
      <trkpt lat="48.57732" lon="1.96429">
        <ele>106</ele>
        <time>2010-05-15T13:49:16Z</time>
      </trkpt>
      <trkpt lat="48.57732" lon="1.96431">
        <ele>106</ele>
        <time>2010-05-15T13:49:17Z</time>
      </trkpt>
      <trkpt lat="48.57733" lon="1.96434">
        <ele>106</ele>
        <time>2010-05-15T13:49:18Z</time>
      </trkpt>
      <trkpt lat="48.57734" lon="1.96436">
        <ele>106</ele>
        <time>2010-05-15T13:49:19Z</time>
      </trkpt>
      <trkpt lat="48.57734" lon="1.96438">
        <ele>105</ele>
        <time>2010-05-15T13:49:20Z</time>
      </trkpt>
      <trkpt lat="48.57735" lon="1.96441">
        <ele>105</ele>
        <time>2010-05-15T13:49:21Z</time>
      </trkpt>
      <trkpt lat="48.57735" lon="1.96444">
        <ele>104</ele>
        <time>2010-05-15T13:49:22Z</time>
      </trkpt>
      <trkpt lat="48.57735" lon="1.96447">
        <ele>104</ele>
        <time>2010-05-15T13:49:23Z</time>
      </trkpt>
      <trkpt lat="48.57735" lon="1.9645">
        <ele>104</ele>
        <time>2010-05-15T13:49:24Z</time>
      </trkpt>
      <trkpt lat="48.57736" lon="1.96453">
        <ele>104</ele>
        <time>2010-05-15T13:49:25Z</time>
      </trkpt>
      <trkpt lat="48.57737" lon="1.96456">
        <ele>104</ele>
        <time>2010-05-15T13:49:26Z</time>
      </trkpt>
      <trkpt lat="48.57738" lon="1.96458">
        <ele>104</ele>
        <time>2010-05-15T13:49:27Z</time>
      </trkpt>
      <trkpt lat="48.57738" lon="1.9646">
        <ele>104</ele>
        <time>2010-05-15T13:49:28Z</time>
      </trkpt>
      <trkpt lat="48.57739" lon="1.96462">
        <ele>104</ele>
        <time>2010-05-15T13:49:29Z</time>
      </trkpt>
      <trkpt lat="48.5774" lon="1.96465">
        <ele>104</ele>
        <time>2010-05-15T13:49:30Z</time>
      </trkpt>
      <trkpt lat="48.57741" lon="1.96467">
        <ele>104</ele>
        <time>2010-05-15T13:49:31Z</time>
      </trkpt>
      <trkpt lat="48.57741" lon="1.9647">
        <ele>104</ele>
        <time>2010-05-15T13:49:32Z</time>
      </trkpt>
      <trkpt lat="48.57742" lon="1.96471">
        <ele>104</ele>
        <time>2010-05-15T13:49:33Z</time>
      </trkpt>
      <trkpt lat="48.57743" lon="1.96473">
        <ele>104</ele>
        <time>2010-05-15T13:49:34Z</time>
      </trkpt>
      <trkpt lat="48.57744" lon="1.96475">
        <ele>104</ele>
        <time>2010-05-15T13:49:35Z</time>
      </trkpt>
      <trkpt lat="48.57745" lon="1.96477">
        <ele>104</ele>
        <time>2010-05-15T13:49:36Z</time>
      </trkpt>
      <trkpt lat="48.57746" lon="1.96481">
        <ele>104</ele>
        <time>2010-05-15T13:49:38Z</time>
      </trkpt>
      <trkpt lat="48.57746" lon="1.96483">
        <ele>104</ele>
        <time>2010-05-15T13:49:39Z</time>
      </trkpt>
      <trkpt lat="48.57746" lon="1.96485">
        <ele>104</ele>
        <time>2010-05-15T13:49:40Z</time>
      </trkpt>
      <trkpt lat="48.57747" lon="1.96488">
        <ele>104</ele>
        <time>2010-05-15T13:49:41Z</time>
      </trkpt>
      <trkpt lat="48.57747" lon="1.9649">
        <ele>104</ele>
        <time>2010-05-15T13:49:42Z</time>
      </trkpt>
      <trkpt lat="48.57747" lon="1.96492">
        <ele>104</ele>
        <time>2010-05-15T13:49:43Z</time>
      </trkpt>
      <trkpt lat="48.57747" lon="1.96495">
        <ele>104</ele>
        <time>2010-05-15T13:49:44Z</time>
      </trkpt>
      <trkpt lat="48.57748" lon="1.96497">
        <ele>104</ele>
        <time>2010-05-15T13:49:45Z</time>
      </trkpt>
      <trkpt lat="48.57748" lon="1.965">
        <ele>104</ele>
        <time>2010-05-15T13:49:46Z</time>
      </trkpt>
      <trkpt lat="48.57748" lon="1.96502">
        <ele>104</ele>
        <time>2010-05-15T13:49:47Z</time>
      </trkpt>
      <trkpt lat="48.57749" lon="1.96505">
        <ele>105</ele>
        <time>2010-05-15T13:49:48Z</time>
      </trkpt>
      <trkpt lat="48.57749" lon="1.96508">
        <ele>106</ele>
        <time>2010-05-15T13:49:49Z</time>
      </trkpt>
      <trkpt lat="48.5775" lon="1.9651">
        <ele>107</ele>
        <time>2010-05-15T13:49:50Z</time>
      </trkpt>
      <trkpt lat="48.5775" lon="1.96513">
        <ele>108</ele>
        <time>2010-05-15T13:49:51Z</time>
      </trkpt>
      <trkpt lat="48.5775" lon="1.96516">
        <ele>109</ele>
        <time>2010-05-15T13:49:52Z</time>
      </trkpt>
      <trkpt lat="48.5775" lon="1.96519">
        <ele>110</ele>
        <time>2010-05-15T13:49:53Z</time>
      </trkpt>
      <trkpt lat="48.5775" lon="1.96522">
        <ele>111</ele>
        <time>2010-05-15T13:49:54Z</time>
      </trkpt>
      <trkpt lat="48.5775" lon="1.96524">
        <ele>112</ele>
        <time>2010-05-15T13:49:55Z</time>
      </trkpt>
      <trkpt lat="48.5775" lon="1.96527">
        <ele>113</ele>
        <time>2010-05-15T13:49:56Z</time>
      </trkpt>
      <trkpt lat="48.5775" lon="1.96529">
        <ele>114</ele>
        <time>2010-05-15T13:49:57Z</time>
      </trkpt>
      <trkpt lat="48.57751" lon="1.96531">
        <ele>115</ele>
        <time>2010-05-15T13:49:58Z</time>
      </trkpt>
      <trkpt lat="48.57752" lon="1.96533">
        <ele>115</ele>
        <time>2010-05-15T13:49:59Z</time>
      </trkpt>
      <trkpt lat="48.57753" lon="1.96535">
        <ele>115</ele>
        <time>2010-05-15T13:50:01Z</time>
      </trkpt>
      <trkpt lat="48.57754" lon="1.96538">
        <ele>115</ele>
        <time>2010-05-15T13:50:03Z</time>
      </trkpt>
      <trkpt lat="48.57756" lon="1.9654">
        <ele>115</ele>
        <time>2010-05-15T13:50:05Z</time>
      </trkpt>
      <trkpt lat="48.57756" lon="1.96542">
        <ele>114</ele>
        <time>2010-05-15T13:50:06Z</time>
      </trkpt>
      <trkpt lat="48.57757" lon="1.96545">
        <ele>114</ele>
        <time>2010-05-15T13:50:07Z</time>
      </trkpt>
      <trkpt lat="48.57757" lon="1.96547">
        <ele>113</ele>
        <time>2010-05-15T13:50:08Z</time>
      </trkpt>
      <trkpt lat="48.57758" lon="1.9655">
        <ele>113</ele>
        <time>2010-05-15T13:50:09Z</time>
      </trkpt>
      <trkpt lat="48.57758" lon="1.96552">
        <ele>112</ele>
        <time>2010-05-15T13:50:10Z</time>
      </trkpt>
      <trkpt lat="48.57758" lon="1.96554">
        <ele>112</ele>
        <time>2010-05-15T13:50:11Z</time>
      </trkpt>
      <trkpt lat="48.57759" lon="1.96557">
        <ele>112</ele>
        <time>2010-05-15T13:50:12Z</time>
      </trkpt>
      <trkpt lat="48.57759" lon="1.96559">
        <ele>111</ele>
        <time>2010-05-15T13:50:13Z</time>
      </trkpt>
      <trkpt lat="48.57759" lon="1.96561">
        <ele>111</ele>
        <time>2010-05-15T13:50:14Z</time>
      </trkpt>
      <trkpt lat="48.57757" lon="1.96562">
        <ele>108</ele>
        <time>2010-05-15T13:50:18Z</time>
      </trkpt>
      <trkpt lat="48.57756" lon="1.96563">
        <ele>107</ele>
        <time>2010-05-15T13:50:19Z</time>
      </trkpt>
      <trkpt lat="48.57755" lon="1.96563">
        <ele>106</ele>
        <time>2010-05-15T13:50:20Z</time>
      </trkpt>
      <trkpt lat="48.57753" lon="1.96565">
        <ele>105</ele>
        <time>2010-05-15T13:50:21Z</time>
      </trkpt>
      <trkpt lat="48.57751" lon="1.96566">
        <ele>105</ele>
        <time>2010-05-15T13:50:22Z</time>
      </trkpt>
      <trkpt lat="48.57749" lon="1.96567">
        <ele>105</ele>
        <time>2010-05-15T13:50:23Z</time>
      </trkpt>
      <trkpt lat="48.57747" lon="1.96568">
        <ele>105</ele>
        <time>2010-05-15T13:50:25Z</time>
      </trkpt>
      <trkpt lat="48.57746" lon="1.96568">
        <ele>104</ele>
        <time>2010-05-15T13:50:26Z</time>
      </trkpt>
      <trkpt lat="48.57743" lon="1.9657">
        <ele>102</ele>
        <time>2010-05-15T13:50:28Z</time>
      </trkpt>
      <trkpt lat="48.57741" lon="1.9657">
        <ele>101</ele>
        <time>2010-05-15T13:50:29Z</time>
      </trkpt>
      <trkpt lat="48.5774" lon="1.96571">
        <ele>100</ele>
        <time>2010-05-15T13:50:30Z</time>
      </trkpt>
      <trkpt lat="48.57738" lon="1.96572">
        <ele>99</ele>
        <time>2010-05-15T13:50:31Z</time>
      </trkpt>
      <trkpt lat="48.57737" lon="1.96572">
        <ele>98</ele>
        <time>2010-05-15T13:50:32Z</time>
      </trkpt>
      <trkpt lat="48.57735" lon="1.96573">
        <ele>98</ele>
        <time>2010-05-15T13:50:33Z</time>
      </trkpt>
      <trkpt lat="48.57733" lon="1.96574">
        <ele>98</ele>
        <time>2010-05-15T13:50:34Z</time>
      </trkpt>
      <trkpt lat="48.57731" lon="1.96574">
        <ele>98</ele>
        <time>2010-05-15T13:50:35Z</time>
      </trkpt>
      <trkpt lat="48.5773" lon="1.96575">
        <ele>98</ele>
        <time>2010-05-15T13:50:36Z</time>
      </trkpt>
      <trkpt lat="48.57728" lon="1.96576">
        <ele>98</ele>
        <time>2010-05-15T13:50:37Z</time>
      </trkpt>
      <trkpt lat="48.57727" lon="1.96576">
        <ele>98</ele>
        <time>2010-05-15T13:50:38Z</time>
      </trkpt>
      <trkpt lat="48.57725" lon="1.96577">
        <ele>98</ele>
        <time>2010-05-15T13:50:39Z</time>
      </trkpt>
      <trkpt lat="48.57724" lon="1.96577">
        <ele>97</ele>
        <time>2010-05-15T13:50:40Z</time>
      </trkpt>
      <trkpt lat="48.57723" lon="1.96578">
        <ele>97</ele>
        <time>2010-05-15T13:50:41Z</time>
      </trkpt>
      <trkpt lat="48.57721" lon="1.96578">
        <ele>97</ele>
        <time>2010-05-15T13:50:42Z</time>
      </trkpt>
      <trkpt lat="48.5772" lon="1.96579">
        <ele>97</ele>
        <time>2010-05-15T13:50:43Z</time>
      </trkpt>
      <trkpt lat="48.57718" lon="1.96579">
        <ele>97</ele>
        <time>2010-05-15T13:50:44Z</time>
      </trkpt>
      <trkpt lat="48.57717" lon="1.96579">
        <ele>97</ele>
        <time>2010-05-15T13:50:45Z</time>
      </trkpt>
      <trkpt lat="48.57715" lon="1.9658">
        <ele>97</ele>
        <time>2010-05-15T13:50:46Z</time>
      </trkpt>
      <trkpt lat="48.57712" lon="1.9658">
        <ele>97</ele>
        <time>2010-05-15T13:50:47Z</time>
      </trkpt>
      <trkpt lat="48.5771" lon="1.96581">
        <ele>97</ele>
        <time>2010-05-15T13:50:48Z</time>
      </trkpt>
      <trkpt lat="48.57708" lon="1.96582">
        <ele>97</ele>
        <time>2010-05-15T13:50:49Z</time>
      </trkpt>
      <trkpt lat="48.57706" lon="1.96582">
        <ele>96</ele>
        <time>2010-05-15T13:50:50Z</time>
      </trkpt>
      <trkpt lat="48.57705" lon="1.96583">
        <ele>96</ele>
        <time>2010-05-15T13:50:51Z</time>
      </trkpt>
      <trkpt lat="48.57703" lon="1.96584">
        <ele>95</ele>
        <time>2010-05-15T13:50:52Z</time>
      </trkpt>
      <trkpt lat="48.57702" lon="1.96585">
        <ele>95</ele>
        <time>2010-05-15T13:50:53Z</time>
      </trkpt>
      <trkpt lat="48.577" lon="1.96586">
        <ele>95</ele>
        <time>2010-05-15T13:50:54Z</time>
      </trkpt>
      <trkpt lat="48.57698" lon="1.96586">
        <ele>95</ele>
        <time>2010-05-15T13:50:55Z</time>
      </trkpt>
      <trkpt lat="48.57696" lon="1.96587">
        <ele>95</ele>
        <time>2010-05-15T13:50:56Z</time>
      </trkpt>
      <trkpt lat="48.57695" lon="1.96587">
        <ele>95</ele>
        <time>2010-05-15T13:50:57Z</time>
      </trkpt>
      <trkpt lat="48.57694" lon="1.96588">
        <ele>95</ele>
        <time>2010-05-15T13:50:58Z</time>
      </trkpt>
      <trkpt lat="48.57692" lon="1.96588">
        <ele>95</ele>
        <time>2010-05-15T13:50:59Z</time>
      </trkpt>
      <trkpt lat="48.57691" lon="1.96589">
        <ele>95</ele>
        <time>2010-05-15T13:51:00Z</time>
      </trkpt>
      <trkpt lat="48.57689" lon="1.96589">
        <ele>95</ele>
        <time>2010-05-15T13:51:01Z</time>
      </trkpt>
      <trkpt lat="48.57688" lon="1.9659">
        <ele>95</ele>
        <time>2010-05-15T13:51:02Z</time>
      </trkpt>
      <trkpt lat="48.57687" lon="1.96591">
        <ele>95</ele>
        <time>2010-05-15T13:51:03Z</time>
      </trkpt>
      <trkpt lat="48.57685" lon="1.96592">
        <ele>95</ele>
        <time>2010-05-15T13:51:04Z</time>
      </trkpt>
      <trkpt lat="48.57684" lon="1.96592">
        <ele>95</ele>
        <time>2010-05-15T13:51:05Z</time>
      </trkpt>
      <trkpt lat="48.57682" lon="1.96593">
        <ele>95</ele>
        <time>2010-05-15T13:51:06Z</time>
      </trkpt>
      <trkpt lat="48.57681" lon="1.96593">
        <ele>95</ele>
        <time>2010-05-15T13:51:07Z</time>
      </trkpt>
      <trkpt lat="48.5768" lon="1.96593">
        <ele>95</ele>
        <time>2010-05-15T13:51:08Z</time>
      </trkpt>
      <trkpt lat="48.57678" lon="1.96594">
        <ele>95</ele>
        <time>2010-05-15T13:51:09Z</time>
      </trkpt>
      <trkpt lat="48.57677" lon="1.96594">
        <ele>95</ele>
        <time>2010-05-15T13:51:10Z</time>
      </trkpt>
      <trkpt lat="48.57675" lon="1.96594">
        <ele>95</ele>
        <time>2010-05-15T13:51:11Z</time>
      </trkpt>
      <trkpt lat="48.57674" lon="1.96594">
        <ele>95</ele>
        <time>2010-05-15T13:51:12Z</time>
      </trkpt>
      <trkpt lat="48.57672" lon="1.96594">
        <ele>95</ele>
        <time>2010-05-15T13:51:13Z</time>
      </trkpt>
      <trkpt lat="48.5767" lon="1.96594">
        <ele>95</ele>
        <time>2010-05-15T13:51:14Z</time>
      </trkpt>
      <trkpt lat="48.57668" lon="1.96594">
        <ele>95</ele>
        <time>2010-05-15T13:51:15Z</time>
      </trkpt>
      <trkpt lat="48.57666" lon="1.96594">
        <ele>95</ele>
        <time>2010-05-15T13:51:16Z</time>
      </trkpt>
      <trkpt lat="48.57664" lon="1.96594">
        <ele>95</ele>
        <time>2010-05-15T13:51:17Z</time>
      </trkpt>
      <trkpt lat="48.57662" lon="1.96593">
        <ele>95</ele>
        <time>2010-05-15T13:51:18Z</time>
      </trkpt>
      <trkpt lat="48.5766" lon="1.96593">
        <ele>95</ele>
        <time>2010-05-15T13:51:19Z</time>
      </trkpt>
      <trkpt lat="48.57658" lon="1.96594">
        <ele>95</ele>
        <time>2010-05-15T13:51:20Z</time>
      </trkpt>
      <trkpt lat="48.57657" lon="1.96594">
        <ele>95</ele>
        <time>2010-05-15T13:51:21Z</time>
      </trkpt>
      <trkpt lat="48.57655" lon="1.96594">
        <ele>95</ele>
        <time>2010-05-15T13:51:22Z</time>
      </trkpt>
      <trkpt lat="48.57653" lon="1.96595">
        <ele>96</ele>
        <time>2010-05-15T13:51:23Z</time>
      </trkpt>
      <trkpt lat="48.57652" lon="1.96595">
        <ele>96</ele>
        <time>2010-05-15T13:51:24Z</time>
      </trkpt>
      <trkpt lat="48.5765" lon="1.96595">
        <ele>96</ele>
        <time>2010-05-15T13:51:25Z</time>
      </trkpt>
      <trkpt lat="48.57648" lon="1.96595">
        <ele>96</ele>
        <time>2010-05-15T13:51:26Z</time>
      </trkpt>
      <trkpt lat="48.57646" lon="1.96596">
        <ele>96</ele>
        <time>2010-05-15T13:51:27Z</time>
      </trkpt>
      <trkpt lat="48.57645" lon="1.96596">
        <ele>96</ele>
        <time>2010-05-15T13:51:28Z</time>
      </trkpt>
      <trkpt lat="48.57643" lon="1.96597">
        <ele>96</ele>
        <time>2010-05-15T13:51:29Z</time>
      </trkpt>
      <trkpt lat="48.57641" lon="1.96597">
        <ele>97</ele>
        <time>2010-05-15T13:51:30Z</time>
      </trkpt>
      <trkpt lat="48.5764" lon="1.96597">
        <ele>97</ele>
        <time>2010-05-15T13:51:31Z</time>
      </trkpt>
      <trkpt lat="48.57639" lon="1.96597">
        <ele>97</ele>
        <time>2010-05-15T13:51:32Z</time>
      </trkpt>
      <trkpt lat="48.57638" lon="1.96597">
        <ele>97</ele>
        <time>2010-05-15T13:51:33Z</time>
      </trkpt>
      <trkpt lat="48.57636" lon="1.96598">
        <ele>97</ele>
        <time>2010-05-15T13:51:34Z</time>
      </trkpt>
      <trkpt lat="48.57635" lon="1.96598">
        <ele>97</ele>
        <time>2010-05-15T13:51:35Z</time>
      </trkpt>
      <trkpt lat="48.57634" lon="1.96598">
        <ele>97</ele>
        <time>2010-05-15T13:51:36Z</time>
      </trkpt>
      <trkpt lat="48.57632" lon="1.96599">
        <ele>97</ele>
        <time>2010-05-15T13:51:38Z</time>
      </trkpt>
      <trkpt lat="48.5763" lon="1.966">
        <ele>97</ele>
        <time>2010-05-15T13:51:39Z</time>
      </trkpt>
      <trkpt lat="48.57629" lon="1.96601">
        <ele>97</ele>
        <time>2010-05-15T13:51:40Z</time>
      </trkpt>
      <trkpt lat="48.57628" lon="1.96602">
        <ele>96</ele>
        <time>2010-05-15T13:51:41Z</time>
      </trkpt>
      <trkpt lat="48.57626" lon="1.96604">
        <ele>95</ele>
        <time>2010-05-15T13:51:42Z</time>
      </trkpt>
      <trkpt lat="48.57626" lon="1.96605">
        <ele>95</ele>
        <time>2010-05-15T13:51:43Z</time>
      </trkpt>
      <trkpt lat="48.57625" lon="1.96608">
        <ele>95</ele>
        <time>2010-05-15T13:51:44Z</time>
      </trkpt>
      <trkpt lat="48.57626" lon="1.9661">
        <ele>95</ele>
        <time>2010-05-15T13:51:45Z</time>
      </trkpt>
      <trkpt lat="48.57626" lon="1.96612">
        <ele>95</ele>
        <time>2010-05-15T13:51:46Z</time>
      </trkpt>
      <trkpt lat="48.57627" lon="1.96614">
        <ele>95</ele>
        <time>2010-05-15T13:51:47Z</time>
      </trkpt>
      <trkpt lat="48.57626" lon="1.96616">
        <ele>95</ele>
        <time>2010-05-15T13:51:48Z</time>
      </trkpt>
      <trkpt lat="48.57626" lon="1.96619">
        <ele>95</ele>
        <time>2010-05-15T13:51:49Z</time>
      </trkpt>
      <trkpt lat="48.57626" lon="1.96622">
        <ele>95</ele>
        <time>2010-05-15T13:51:50Z</time>
      </trkpt>
      <trkpt lat="48.57626" lon="1.96624">
        <ele>95</ele>
        <time>2010-05-15T13:51:51Z</time>
      </trkpt>
      <trkpt lat="48.57627" lon="1.96627">
        <ele>95</ele>
        <time>2010-05-15T13:51:52Z</time>
      </trkpt>
      <trkpt lat="48.57627" lon="1.96629">
        <ele>95</ele>
        <time>2010-05-15T13:51:53Z</time>
      </trkpt>
      <trkpt lat="48.57628" lon="1.96631">
        <ele>95</ele>
        <time>2010-05-15T13:51:54Z</time>
      </trkpt>
      <trkpt lat="48.57628" lon="1.96634">
        <ele>95</ele>
        <time>2010-05-15T13:51:55Z</time>
      </trkpt>
      <trkpt lat="48.57628" lon="1.96636">
        <ele>95</ele>
        <time>2010-05-15T13:51:56Z</time>
      </trkpt>
      <trkpt lat="48.57629" lon="1.96639">
        <ele>95</ele>
        <time>2010-05-15T13:51:57Z</time>
      </trkpt>
      <trkpt lat="48.57629" lon="1.96642">
        <ele>95</ele>
        <time>2010-05-15T13:51:58Z</time>
      </trkpt>
      <trkpt lat="48.5763" lon="1.96644">
        <ele>96</ele>
        <time>2010-05-15T13:51:59Z</time>
      </trkpt>
      <trkpt lat="48.5763" lon="1.96646">
        <ele>97</ele>
        <time>2010-05-15T13:52:00Z</time>
      </trkpt>
      <trkpt lat="48.57629" lon="1.96649">
        <ele>98</ele>
        <time>2010-05-15T13:52:02Z</time>
      </trkpt>
      <trkpt lat="48.57629" lon="1.96651">
        <ele>98</ele>
        <time>2010-05-15T13:52:03Z</time>
      </trkpt>
      <trkpt lat="48.57629" lon="1.96654">
        <ele>98</ele>
        <time>2010-05-15T13:52:04Z</time>
      </trkpt>
      <trkpt lat="48.57629" lon="1.96656">
        <ele>99</ele>
        <time>2010-05-15T13:52:05Z</time>
      </trkpt>
      <trkpt lat="48.5763" lon="1.96658">
        <ele>99</ele>
        <time>2010-05-15T13:52:06Z</time>
      </trkpt>
      <trkpt lat="48.5763" lon="1.96661">
        <ele>100</ele>
        <time>2010-05-15T13:52:07Z</time>
      </trkpt>
      <trkpt lat="48.5763" lon="1.96663">
        <ele>100</ele>
        <time>2010-05-15T13:52:08Z</time>
      </trkpt>
      <trkpt lat="48.5763" lon="1.96666">
        <ele>100</ele>
        <time>2010-05-15T13:52:09Z</time>
      </trkpt>
      <trkpt lat="48.5763" lon="1.96669">
        <ele>101</ele>
        <time>2010-05-15T13:52:10Z</time>
      </trkpt>
      <trkpt lat="48.5763" lon="1.96672">
        <ele>101</ele>
        <time>2010-05-15T13:52:11Z</time>
      </trkpt>
      <trkpt lat="48.57631" lon="1.96674">
        <ele>101</ele>
        <time>2010-05-15T13:52:12Z</time>
      </trkpt>
      <trkpt lat="48.57631" lon="1.96676">
        <ele>101</ele>
        <time>2010-05-15T13:52:13Z</time>
      </trkpt>
      <trkpt lat="48.57631" lon="1.96678">
        <ele>101</ele>
        <time>2010-05-15T13:52:14Z</time>
      </trkpt>
      <trkpt lat="48.57631" lon="1.9668">
        <ele>101</ele>
        <time>2010-05-15T13:52:15Z</time>
      </trkpt>
      <trkpt lat="48.57632" lon="1.96682">
        <ele>101</ele>
        <time>2010-05-15T13:52:16Z</time>
      </trkpt>
      <trkpt lat="48.57633" lon="1.96684">
        <ele>101</ele>
        <time>2010-05-15T13:52:17Z</time>
      </trkpt>
      <trkpt lat="48.57633" lon="1.96686">
        <ele>101</ele>
        <time>2010-05-15T13:52:18Z</time>
      </trkpt>
      <trkpt lat="48.57632" lon="1.96689">
        <ele>101</ele>
        <time>2010-05-15T13:52:19Z</time>
      </trkpt>
      <trkpt lat="48.57633" lon="1.96692">
        <ele>101</ele>
        <time>2010-05-15T13:52:20Z</time>
      </trkpt>
      <trkpt lat="48.57633" lon="1.96695">
        <ele>101</ele>
        <time>2010-05-15T13:52:21Z</time>
      </trkpt>
      <trkpt lat="48.57633" lon="1.96698">
        <ele>101</ele>
        <time>2010-05-15T13:52:22Z</time>
      </trkpt>
      <trkpt lat="48.57634" lon="1.96701">
        <ele>101</ele>
        <time>2010-05-15T13:52:23Z</time>
      </trkpt>
      <trkpt lat="48.57634" lon="1.96704">
        <ele>101</ele>
        <time>2010-05-15T13:52:24Z</time>
      </trkpt>
      <trkpt lat="48.57634" lon="1.96707">
        <ele>101</ele>
        <time>2010-05-15T13:52:25Z</time>
      </trkpt>
      <trkpt lat="48.57634" lon="1.9671">
        <ele>100</ele>
        <time>2010-05-15T13:52:26Z</time>
      </trkpt>
      <trkpt lat="48.57634" lon="1.96712">
        <ele>99</ele>
        <time>2010-05-15T13:52:27Z</time>
      </trkpt>
      <trkpt lat="48.57634" lon="1.96715">
        <ele>99</ele>
        <time>2010-05-15T13:52:28Z</time>
      </trkpt>
      <trkpt lat="48.57635" lon="1.96717">
        <ele>98</ele>
        <time>2010-05-15T13:52:29Z</time>
      </trkpt>
      <trkpt lat="48.57635" lon="1.9672">
        <ele>98</ele>
        <time>2010-05-15T13:52:30Z</time>
      </trkpt>
      <trkpt lat="48.57635" lon="1.96723">
        <ele>98</ele>
        <time>2010-05-15T13:52:31Z</time>
      </trkpt>
      <trkpt lat="48.57636" lon="1.96726">
        <ele>98</ele>
        <time>2010-05-15T13:52:32Z</time>
      </trkpt>
      <trkpt lat="48.57636" lon="1.9673">
        <ele>98</ele>
        <time>2010-05-15T13:52:33Z</time>
      </trkpt>
      <trkpt lat="48.57636" lon="1.96733">
        <ele>98</ele>
        <time>2010-05-15T13:52:34Z</time>
      </trkpt>
      <trkpt lat="48.57636" lon="1.96735">
        <ele>98</ele>
        <time>2010-05-15T13:52:35Z</time>
      </trkpt>
      <trkpt lat="48.57637" lon="1.96738">
        <ele>98</ele>
        <time>2010-05-15T13:52:36Z</time>
      </trkpt>
      <trkpt lat="48.57638" lon="1.96741">
        <ele>98</ele>
        <time>2010-05-15T13:52:37Z</time>
      </trkpt>
      <trkpt lat="48.57639" lon="1.96744">
        <ele>98</ele>
        <time>2010-05-15T13:52:38Z</time>
      </trkpt>
      <trkpt lat="48.57639" lon="1.96747">
        <ele>98</ele>
        <time>2010-05-15T13:52:39Z</time>
      </trkpt>
      <trkpt lat="48.57639" lon="1.96749">
        <ele>98</ele>
        <time>2010-05-15T13:52:40Z</time>
      </trkpt>
      <trkpt lat="48.57639" lon="1.96752">
        <ele>98</ele>
        <time>2010-05-15T13:52:41Z</time>
      </trkpt>
      <trkpt lat="48.57639" lon="1.96755">
        <ele>98</ele>
        <time>2010-05-15T13:52:42Z</time>
      </trkpt>
      <trkpt lat="48.5764" lon="1.96758">
        <ele>98</ele>
        <time>2010-05-15T13:52:43Z</time>
      </trkpt>
      <trkpt lat="48.5764" lon="1.96762">
        <ele>98</ele>
        <time>2010-05-15T13:52:44Z</time>
      </trkpt>
      <trkpt lat="48.5764" lon="1.96764">
        <ele>98</ele>
        <time>2010-05-15T13:52:45Z</time>
      </trkpt>
      <trkpt lat="48.5764" lon="1.96765">
        <ele>98</ele>
        <time>2010-05-15T13:52:46Z</time>
      </trkpt>
      <trkpt lat="48.5764" lon="1.96768">
        <ele>98</ele>
        <time>2010-05-15T13:52:47Z</time>
      </trkpt>
      <trkpt lat="48.5764" lon="1.96771">
        <ele>98</ele>
        <time>2010-05-15T13:52:48Z</time>
      </trkpt>
      <trkpt lat="48.5764" lon="1.96774">
        <ele>98</ele>
        <time>2010-05-15T13:52:49Z</time>
      </trkpt>
      <trkpt lat="48.5764" lon="1.96778">
        <ele>98</ele>
        <time>2010-05-15T13:52:50Z</time>
      </trkpt>
      <trkpt lat="48.5764" lon="1.9678">
        <ele>98</ele>
        <time>2010-05-15T13:52:51Z</time>
      </trkpt>
      <trkpt lat="48.57641" lon="1.96783">
        <ele>98</ele>
        <time>2010-05-15T13:52:52Z</time>
      </trkpt>
      <trkpt lat="48.57641" lon="1.96785">
        <ele>98</ele>
        <time>2010-05-15T13:52:53Z</time>
      </trkpt>
      <trkpt lat="48.57642" lon="1.96787">
        <ele>98</ele>
        <time>2010-05-15T13:52:54Z</time>
      </trkpt>
      <trkpt lat="48.57643" lon="1.96791">
        <ele>98</ele>
        <time>2010-05-15T13:52:55Z</time>
      </trkpt>
      <trkpt lat="48.57644" lon="1.96794">
        <ele>98</ele>
        <time>2010-05-15T13:52:56Z</time>
      </trkpt>
      <trkpt lat="48.57646" lon="1.96796">
        <ele>98</ele>
        <time>2010-05-15T13:52:57Z</time>
      </trkpt>
      <trkpt lat="48.57646" lon="1.96799">
        <ele>98</ele>
        <time>2010-05-15T13:52:58Z</time>
      </trkpt>
      <trkpt lat="48.57646" lon="1.96802">
        <ele>98</ele>
        <time>2010-05-15T13:52:59Z</time>
      </trkpt>
      <trkpt lat="48.57647" lon="1.96804">
        <ele>98</ele>
        <time>2010-05-15T13:53:00Z</time>
      </trkpt>
      <trkpt lat="48.57647" lon="1.96807">
        <ele>98</ele>
        <time>2010-05-15T13:53:01Z</time>
      </trkpt>
      <trkpt lat="48.57648" lon="1.9681">
        <ele>98</ele>
        <time>2010-05-15T13:53:02Z</time>
      </trkpt>
      <trkpt lat="48.57648" lon="1.96813">
        <ele>98</ele>
        <time>2010-05-15T13:53:03Z</time>
      </trkpt>
      <trkpt lat="48.57649" lon="1.96815">
        <ele>98</ele>
        <time>2010-05-15T13:53:04Z</time>
      </trkpt>
      <trkpt lat="48.57649" lon="1.96817">
        <ele>98</ele>
        <time>2010-05-15T13:53:05Z</time>
      </trkpt>
      <trkpt lat="48.5765" lon="1.9682">
        <ele>98</ele>
        <time>2010-05-15T13:53:06Z</time>
      </trkpt>
      <trkpt lat="48.5765" lon="1.96823">
        <ele>99</ele>
        <time>2010-05-15T13:53:07Z</time>
      </trkpt>
      <trkpt lat="48.5765" lon="1.96826">
        <ele>99</ele>
        <time>2010-05-15T13:53:08Z</time>
      </trkpt>
      <trkpt lat="48.5765" lon="1.96828">
        <ele>100</ele>
        <time>2010-05-15T13:53:09Z</time>
      </trkpt>
      <trkpt lat="48.5765" lon="1.9683">
        <ele>100</ele>
        <time>2010-05-15T13:53:10Z</time>
      </trkpt>
      <trkpt lat="48.5765" lon="1.96833">
        <ele>100</ele>
        <time>2010-05-15T13:53:11Z</time>
      </trkpt>
      <trkpt lat="48.57651" lon="1.96835">
        <ele>101</ele>
        <time>2010-05-15T13:53:12Z</time>
      </trkpt>
      <trkpt lat="48.57651" lon="1.96838">
        <ele>101</ele>
        <time>2010-05-15T13:53:13Z</time>
      </trkpt>
      <trkpt lat="48.57652" lon="1.9684">
        <ele>101</ele>
        <time>2010-05-15T13:53:14Z</time>
      </trkpt>
      <trkpt lat="48.57651" lon="1.96843">
        <ele>101</ele>
        <time>2010-05-15T13:53:15Z</time>
      </trkpt>
      <trkpt lat="48.57651" lon="1.96845">
        <ele>102</ele>
        <time>2010-05-15T13:53:16Z</time>
      </trkpt>
      <trkpt lat="48.57652" lon="1.96847">
        <ele>102</ele>
        <time>2010-05-15T13:53:17Z</time>
      </trkpt>
      <trkpt lat="48.57653" lon="1.9685">
        <ele>102</ele>
        <time>2010-05-15T13:53:18Z</time>
      </trkpt>
      <trkpt lat="48.57653" lon="1.96853">
        <ele>102</ele>
        <time>2010-05-15T13:53:19Z</time>
      </trkpt>
      <trkpt lat="48.57654" lon="1.96856">
        <ele>102</ele>
        <time>2010-05-15T13:53:20Z</time>
      </trkpt>
      <trkpt lat="48.57655" lon="1.96859">
        <ele>102</ele>
        <time>2010-05-15T13:53:21Z</time>
      </trkpt>
      <trkpt lat="48.57656" lon="1.96862">
        <ele>102</ele>
        <time>2010-05-15T13:53:22Z</time>
      </trkpt>
      <trkpt lat="48.57656" lon="1.96865">
        <ele>102</ele>
        <time>2010-05-15T13:53:23Z</time>
      </trkpt>
      <trkpt lat="48.57657" lon="1.96868">
        <ele>102</ele>
        <time>2010-05-15T13:53:24Z</time>
      </trkpt>
      <trkpt lat="48.57658" lon="1.96872">
        <ele>102</ele>
        <time>2010-05-15T13:53:25Z</time>
      </trkpt>
      <trkpt lat="48.5766" lon="1.96875">
        <ele>102</ele>
        <time>2010-05-15T13:53:26Z</time>
      </trkpt>
      <trkpt lat="48.57662" lon="1.9688">
        <ele>102</ele>
        <time>2010-05-15T13:53:27Z</time>
      </trkpt>
      <trkpt lat="48.57664" lon="1.96885">
        <ele>102</ele>
        <time>2010-05-15T13:53:28Z</time>
      </trkpt>
      <trkpt lat="48.57665" lon="1.9689">
        <ele>102</ele>
        <time>2010-05-15T13:53:29Z</time>
      </trkpt>
      <trkpt lat="48.57667" lon="1.96895">
        <ele>102</ele>
        <time>2010-05-15T13:53:30Z</time>
      </trkpt>
      <trkpt lat="48.57668" lon="1.96901">
        <ele>102</ele>
        <time>2010-05-15T13:53:31Z</time>
      </trkpt>
      <trkpt lat="48.5767" lon="1.96908">
        <ele>101</ele>
        <time>2010-05-15T13:53:32Z</time>
      </trkpt>
      <trkpt lat="48.57672" lon="1.96914">
        <ele>100</ele>
        <time>2010-05-15T13:53:33Z</time>
      </trkpt>
      <trkpt lat="48.57674" lon="1.96921">
        <ele>99</ele>
        <time>2010-05-15T13:53:34Z</time>
      </trkpt>
      <trkpt lat="48.57676" lon="1.96926">
        <ele>98</ele>
        <time>2010-05-15T13:53:35Z</time>
      </trkpt>
      <trkpt lat="48.57678" lon="1.96931">
        <ele>97</ele>
        <time>2010-05-15T13:53:36Z</time>
      </trkpt>
      <trkpt lat="48.57679" lon="1.96936">
        <ele>96</ele>
        <time>2010-05-15T13:53:37Z</time>
      </trkpt>
      <trkpt lat="48.57681" lon="1.96941">
        <ele>96</ele>
        <time>2010-05-15T13:53:38Z</time>
      </trkpt>
      <trkpt lat="48.57683" lon="1.96947">
        <ele>95</ele>
        <time>2010-05-15T13:53:39Z</time>
      </trkpt>
      <trkpt lat="48.57686" lon="1.96953">
        <ele>95</ele>
        <time>2010-05-15T13:53:40Z</time>
      </trkpt>
      <trkpt lat="48.57687" lon="1.96958">
        <ele>95</ele>
        <time>2010-05-15T13:53:41Z</time>
      </trkpt>
      <trkpt lat="48.5769" lon="1.96963">
        <ele>94</ele>
        <time>2010-05-15T13:53:42Z</time>
      </trkpt>
      <trkpt lat="48.57692" lon="1.96969">
        <ele>93</ele>
        <time>2010-05-15T13:53:43Z</time>
      </trkpt>
      <trkpt lat="48.57694" lon="1.96975">
        <ele>93</ele>
        <time>2010-05-15T13:53:44Z</time>
      </trkpt>
      <trkpt lat="48.57695" lon="1.9698">
        <ele>92</ele>
        <time>2010-05-15T13:53:45Z</time>
      </trkpt>
      <trkpt lat="48.57697" lon="1.96985">
        <ele>91</ele>
        <time>2010-05-15T13:53:46Z</time>
      </trkpt>
      <trkpt lat="48.57699" lon="1.9699">
        <ele>91</ele>
        <time>2010-05-15T13:53:47Z</time>
      </trkpt>
      <trkpt lat="48.577" lon="1.96996">
        <ele>91</ele>
        <time>2010-05-15T13:53:48Z</time>
      </trkpt>
      <trkpt lat="48.57702" lon="1.97001">
        <ele>91</ele>
        <time>2010-05-15T13:53:49Z</time>
      </trkpt>
      <trkpt lat="48.57704" lon="1.97005">
        <ele>90</ele>
        <time>2010-05-15T13:53:50Z</time>
      </trkpt>
      <trkpt lat="48.57706" lon="1.97011">
        <ele>90</ele>
        <time>2010-05-15T13:53:51Z</time>
      </trkpt>
      <trkpt lat="48.57708" lon="1.97018">
        <ele>90</ele>
        <time>2010-05-15T13:53:52Z</time>
      </trkpt>
      <trkpt lat="48.5771" lon="1.97025">
        <ele>90</ele>
        <time>2010-05-15T13:53:53Z</time>
      </trkpt>
      <trkpt lat="48.57711" lon="1.97029">
        <ele>90</ele>
        <time>2010-05-15T13:53:54Z</time>
      </trkpt>
      <trkpt lat="48.57713" lon="1.97036">
        <ele>90</ele>
        <time>2010-05-15T13:53:55Z</time>
      </trkpt>
      <trkpt lat="48.57714" lon="1.97042">
        <ele>90</ele>
        <time>2010-05-15T13:53:56Z</time>
      </trkpt>
      <trkpt lat="48.57716" lon="1.97048">
        <ele>90</ele>
        <time>2010-05-15T13:53:57Z</time>
      </trkpt>
      <trkpt lat="48.57717" lon="1.97054">
        <ele>90</ele>
        <time>2010-05-15T13:53:58Z</time>
      </trkpt>
      <trkpt lat="48.57718" lon="1.9706">
        <ele>91</ele>
        <time>2010-05-15T13:53:59Z</time>
      </trkpt>
      <trkpt lat="48.5772" lon="1.97066">
        <ele>92</ele>
        <time>2010-05-15T13:54:00Z</time>
      </trkpt>
      <trkpt lat="48.57721" lon="1.97073">
        <ele>92</ele>
        <time>2010-05-15T13:54:01Z</time>
      </trkpt>
      <trkpt lat="48.57722" lon="1.97079">
        <ele>93</ele>
        <time>2010-05-15T13:54:02Z</time>
      </trkpt>
      <trkpt lat="48.57723" lon="1.97086">
        <ele>94</ele>
        <time>2010-05-15T13:54:03Z</time>
      </trkpt>
      <trkpt lat="48.57724" lon="1.97091">
        <ele>94</ele>
        <time>2010-05-15T13:54:04Z</time>
      </trkpt>
      <trkpt lat="48.57726" lon="1.97097">
        <ele>95</ele>
        <time>2010-05-15T13:54:05Z</time>
      </trkpt>
      <trkpt lat="48.57726" lon="1.97104">
        <ele>95</ele>
        <time>2010-05-15T13:54:06Z</time>
      </trkpt>
      <trkpt lat="48.57727" lon="1.97112">
        <ele>96</ele>
        <time>2010-05-15T13:54:07Z</time>
      </trkpt>
      <trkpt lat="48.57728" lon="1.97119">
        <ele>97</ele>
        <time>2010-05-15T13:54:08Z</time>
      </trkpt>
      <trkpt lat="48.57729" lon="1.97126">
        <ele>97</ele>
        <time>2010-05-15T13:54:09Z</time>
      </trkpt>
      <trkpt lat="48.57731" lon="1.97132">
        <ele>98</ele>
        <time>2010-05-15T13:54:10Z</time>
      </trkpt>
      <trkpt lat="48.57732" lon="1.97139">
        <ele>98</ele>
        <time>2010-05-15T13:54:11Z</time>
      </trkpt>
      <trkpt lat="48.57734" lon="1.97146">
        <ele>98</ele>
        <time>2010-05-15T13:54:12Z</time>
      </trkpt>
      <trkpt lat="48.57735" lon="1.97153">
        <ele>99</ele>
        <time>2010-05-15T13:54:13Z</time>
      </trkpt>
      <trkpt lat="48.57737" lon="1.9716">
        <ele>99</ele>
        <time>2010-05-15T13:54:14Z</time>
      </trkpt>
      <trkpt lat="48.57737" lon="1.97167">
        <ele>99</ele>
        <time>2010-05-15T13:54:15Z</time>
      </trkpt>
      <trkpt lat="48.57738" lon="1.97173">
        <ele>99</ele>
        <time>2010-05-15T13:54:16Z</time>
      </trkpt>
      <trkpt lat="48.57739" lon="1.9718">
        <ele>99</ele>
        <time>2010-05-15T13:54:17Z</time>
      </trkpt>
      <trkpt lat="48.5774" lon="1.97186">
        <ele>99</ele>
        <time>2010-05-15T13:54:18Z</time>
      </trkpt>
      <trkpt lat="48.57741" lon="1.97193">
        <ele>99</ele>
        <time>2010-05-15T13:54:19Z</time>
      </trkpt>
      <trkpt lat="48.57742" lon="1.97199">
        <ele>99</ele>
        <time>2010-05-15T13:54:20Z</time>
      </trkpt>
      <trkpt lat="48.57744" lon="1.97205">
        <ele>99</ele>
        <time>2010-05-15T13:54:21Z</time>
      </trkpt>
      <trkpt lat="48.57745" lon="1.97212">
        <ele>99</ele>
        <time>2010-05-15T13:54:22Z</time>
      </trkpt>
      <trkpt lat="48.57746" lon="1.97218">
        <ele>99</ele>
        <time>2010-05-15T13:54:23Z</time>
      </trkpt>
      <trkpt lat="48.57747" lon="1.97225">
        <ele>99</ele>
        <time>2010-05-15T13:54:24Z</time>
      </trkpt>
      <trkpt lat="48.57748" lon="1.97231">
        <ele>99</ele>
        <time>2010-05-15T13:54:25Z</time>
      </trkpt>
      <trkpt lat="48.57749" lon="1.97238">
        <ele>99</ele>
        <time>2010-05-15T13:54:26Z</time>
      </trkpt>
      <trkpt lat="48.57749" lon="1.97245">
        <ele>99</ele>
        <time>2010-05-15T13:54:27Z</time>
      </trkpt>
      <trkpt lat="48.5775" lon="1.97251">
        <ele>99</ele>
        <time>2010-05-15T13:54:28Z</time>
      </trkpt>
      <trkpt lat="48.57751" lon="1.97258">
        <ele>99</ele>
        <time>2010-05-15T13:54:29Z</time>
      </trkpt>
      <trkpt lat="48.57752" lon="1.97264">
        <ele>99</ele>
        <time>2010-05-15T13:54:30Z</time>
      </trkpt>
      <trkpt lat="48.57754" lon="1.9727">
        <ele>99</ele>
        <time>2010-05-15T13:54:31Z</time>
      </trkpt>
      <trkpt lat="48.57755" lon="1.97278">
        <ele>99</ele>
        <time>2010-05-15T13:54:32Z</time>
      </trkpt>
      <trkpt lat="48.57757" lon="1.97284">
        <ele>99</ele>
        <time>2010-05-15T13:54:33Z</time>
      </trkpt>
      <trkpt lat="48.57758" lon="1.9729">
        <ele>99</ele>
        <time>2010-05-15T13:54:34Z</time>
      </trkpt>
      <trkpt lat="48.5776" lon="1.97296">
        <ele>99</ele>
        <time>2010-05-15T13:54:35Z</time>
      </trkpt>
      <trkpt lat="48.57761" lon="1.97302">
        <ele>99</ele>
        <time>2010-05-15T13:54:36Z</time>
      </trkpt>
      <trkpt lat="48.57762" lon="1.97308">
        <ele>99</ele>
        <time>2010-05-15T13:54:37Z</time>
      </trkpt>
      <trkpt lat="48.57764" lon="1.97315">
        <ele>99</ele>
        <time>2010-05-15T13:54:38Z</time>
      </trkpt>
      <trkpt lat="48.57764" lon="1.97322">
        <ele>99</ele>
        <time>2010-05-15T13:54:39Z</time>
      </trkpt>
      <trkpt lat="48.57765" lon="1.97329">
        <ele>99</ele>
        <time>2010-05-15T13:54:40Z</time>
      </trkpt>
      <trkpt lat="48.57766" lon="1.97336">
        <ele>99</ele>
        <time>2010-05-15T13:54:41Z</time>
      </trkpt>
      <trkpt lat="48.57766" lon="1.97342">
        <ele>99</ele>
        <time>2010-05-15T13:54:42Z</time>
      </trkpt>
      <trkpt lat="48.57766" lon="1.97348">
        <ele>99</ele>
        <time>2010-05-15T13:54:43Z</time>
      </trkpt>
      <trkpt lat="48.57766" lon="1.97354">
        <ele>99</ele>
        <time>2010-05-15T13:54:44Z</time>
      </trkpt>
      <trkpt lat="48.57768" lon="1.9736">
        <ele>99</ele>
        <time>2010-05-15T13:54:45Z</time>
      </trkpt>
      <trkpt lat="48.57769" lon="1.97367">
        <ele>99</ele>
        <time>2010-05-15T13:54:46Z</time>
      </trkpt>
      <trkpt lat="48.57769" lon="1.97374">
        <ele>99</ele>
        <time>2010-05-15T13:54:47Z</time>
      </trkpt>
      <trkpt lat="48.57769" lon="1.97381">
        <ele>99</ele>
        <time>2010-05-15T13:54:48Z</time>
      </trkpt>
      <trkpt lat="48.57771" lon="1.97388">
        <ele>99</ele>
        <time>2010-05-15T13:54:49Z</time>
      </trkpt>
      <trkpt lat="48.57773" lon="1.97395">
        <ele>99</ele>
        <time>2010-05-15T13:54:50Z</time>
      </trkpt>
      <trkpt lat="48.57774" lon="1.974">
        <ele>100</ele>
        <time>2010-05-15T13:54:51Z</time>
      </trkpt>
      <trkpt lat="48.57776" lon="1.97406">
        <ele>101</ele>
        <time>2010-05-15T13:54:52Z</time>
      </trkpt>
      <trkpt lat="48.57776" lon="1.97411">
        <ele>102</ele>
        <time>2010-05-15T13:54:53Z</time>
      </trkpt>
      <trkpt lat="48.57776" lon="1.97417">
        <ele>103</ele>
        <time>2010-05-15T13:54:54Z</time>
      </trkpt>
      <trkpt lat="48.57778" lon="1.97424">
        <ele>104</ele>
        <time>2010-05-15T13:54:55Z</time>
      </trkpt>
      <trkpt lat="48.57779" lon="1.97429">
        <ele>105</ele>
        <time>2010-05-15T13:54:56Z</time>
      </trkpt>
      <trkpt lat="48.57781" lon="1.97433">
        <ele>105</ele>
        <time>2010-05-15T13:54:57Z</time>
      </trkpt>
      <trkpt lat="48.57782" lon="1.97438">
        <ele>106</ele>
        <time>2010-05-15T13:54:58Z</time>
      </trkpt>
      <trkpt lat="48.57783" lon="1.97442">
        <ele>106</ele>
        <time>2010-05-15T13:54:59Z</time>
      </trkpt>
      <trkpt lat="48.57784" lon="1.97446">
        <ele>106</ele>
        <time>2010-05-15T13:55:00Z</time>
      </trkpt>
      <trkpt lat="48.57786" lon="1.97452">
        <ele>106</ele>
        <time>2010-05-15T13:55:01Z</time>
      </trkpt>
      <trkpt lat="48.57787" lon="1.97458">
        <ele>106</ele>
        <time>2010-05-15T13:55:02Z</time>
      </trkpt>
      <trkpt lat="48.57787" lon="1.97465">
        <ele>107</ele>
        <time>2010-05-15T13:55:03Z</time>
      </trkpt>
      <trkpt lat="48.57788" lon="1.97473">
        <ele>108</ele>
        <time>2010-05-15T13:55:04Z</time>
      </trkpt>
      <trkpt lat="48.57789" lon="1.9748">
        <ele>109</ele>
        <time>2010-05-15T13:55:05Z</time>
      </trkpt>
      <trkpt lat="48.5779" lon="1.97488">
        <ele>110</ele>
        <time>2010-05-15T13:55:06Z</time>
      </trkpt>
      <trkpt lat="48.5779" lon="1.97496">
        <ele>111</ele>
        <time>2010-05-15T13:55:07Z</time>
      </trkpt>
      <trkpt lat="48.5779" lon="1.97502">
        <ele>112</ele>
        <time>2010-05-15T13:55:08Z</time>
      </trkpt>
      <trkpt lat="48.57791" lon="1.97509">
        <ele>113</ele>
        <time>2010-05-15T13:55:09Z</time>
      </trkpt>
      <trkpt lat="48.57792" lon="1.97515">
        <ele>113</ele>
        <time>2010-05-15T13:55:10Z</time>
      </trkpt>
      <trkpt lat="48.57793" lon="1.97523">
        <ele>113</ele>
        <time>2010-05-15T13:55:11Z</time>
      </trkpt>
      <trkpt lat="48.57793" lon="1.9753">
        <ele>114</ele>
        <time>2010-05-15T13:55:12Z</time>
      </trkpt>
      <trkpt lat="48.57792" lon="1.97536">
        <ele>115</ele>
        <time>2010-05-15T13:55:13Z</time>
      </trkpt>
      <trkpt lat="48.57791" lon="1.97542">
        <ele>116</ele>
        <time>2010-05-15T13:55:14Z</time>
      </trkpt>
      <trkpt lat="48.57791" lon="1.97549">
        <ele>116</ele>
        <time>2010-05-15T13:55:15Z</time>
      </trkpt>
      <trkpt lat="48.57792" lon="1.97555">
        <ele>117</ele>
        <time>2010-05-15T13:55:16Z</time>
      </trkpt>
      <trkpt lat="48.57793" lon="1.97562">
        <ele>118</ele>
        <time>2010-05-15T13:55:17Z</time>
      </trkpt>
      <trkpt lat="48.57794" lon="1.97568">
        <ele>118</ele>
        <time>2010-05-15T13:55:18Z</time>
      </trkpt>
      <trkpt lat="48.57794" lon="1.97573">
        <ele>118</ele>
        <time>2010-05-15T13:55:19Z</time>
      </trkpt>
      <trkpt lat="48.57795" lon="1.97578">
        <ele>119</ele>
        <time>2010-05-15T13:55:20Z</time>
      </trkpt>
      <trkpt lat="48.57795" lon="1.97583">
        <ele>119</ele>
        <time>2010-05-15T13:55:21Z</time>
      </trkpt>
      <trkpt lat="48.57796" lon="1.9759">
        <ele>119</ele>
        <time>2010-05-15T13:55:22Z</time>
      </trkpt>
      <trkpt lat="48.57797" lon="1.97598">
        <ele>119</ele>
        <time>2010-05-15T13:55:23Z</time>
      </trkpt>
      <trkpt lat="48.57799" lon="1.97606">
        <ele>119</ele>
        <time>2010-05-15T13:55:24Z</time>
      </trkpt>
      <trkpt lat="48.578" lon="1.97614">
        <ele>119</ele>
        <time>2010-05-15T13:55:25Z</time>
      </trkpt>
      <trkpt lat="48.57802" lon="1.9762">
        <ele>119</ele>
        <time>2010-05-15T13:55:26Z</time>
      </trkpt>
      <trkpt lat="48.57802" lon="1.97627">
        <ele>119</ele>
        <time>2010-05-15T13:55:27Z</time>
      </trkpt>
      <trkpt lat="48.57802" lon="1.97634">
        <ele>120</ele>
        <time>2010-05-15T13:55:28Z</time>
      </trkpt>
      <trkpt lat="48.578" lon="1.97643">
        <ele>120</ele>
        <time>2010-05-15T13:55:29Z</time>
      </trkpt>
      <trkpt lat="48.57799" lon="1.97653">
        <ele>120</ele>
        <time>2010-05-15T13:55:30Z</time>
      </trkpt>
      <trkpt lat="48.57798" lon="1.97661">
        <ele>120</ele>
        <time>2010-05-15T13:55:31Z</time>
      </trkpt>
      <trkpt lat="48.57797" lon="1.97669">
        <ele>120</ele>
        <time>2010-05-15T13:55:32Z</time>
      </trkpt>
      <trkpt lat="48.57797" lon="1.97677">
        <ele>120</ele>
        <time>2010-05-15T13:55:33Z</time>
      </trkpt>
      <trkpt lat="48.57796" lon="1.97684">
        <ele>120</ele>
        <time>2010-05-15T13:55:34Z</time>
      </trkpt>
      <trkpt lat="48.57796" lon="1.97691">
        <ele>120</ele>
        <time>2010-05-15T13:55:35Z</time>
      </trkpt>
      <trkpt lat="48.57796" lon="1.97699">
        <ele>120</ele>
        <time>2010-05-15T13:55:36Z</time>
      </trkpt>
      <trkpt lat="48.57795" lon="1.97708">
        <ele>119</ele>
        <time>2010-05-15T13:55:37Z</time>
      </trkpt>
      <trkpt lat="48.57794" lon="1.97715">
        <ele>119</ele>
        <time>2010-05-15T13:55:38Z</time>
      </trkpt>
      <trkpt lat="48.57793" lon="1.97722">
        <ele>118</ele>
        <time>2010-05-15T13:55:39Z</time>
      </trkpt>
      <trkpt lat="48.57792" lon="1.97728">
        <ele>118</ele>
        <time>2010-05-15T13:55:40Z</time>
      </trkpt>
      <trkpt lat="48.5779" lon="1.97734">
        <ele>117</ele>
        <time>2010-05-15T13:55:41Z</time>
      </trkpt>
      <trkpt lat="48.57789" lon="1.97742">
        <ele>117</ele>
        <time>2010-05-15T13:55:42Z</time>
      </trkpt>
      <trkpt lat="48.57789" lon="1.97751">
        <ele>117</ele>
        <time>2010-05-15T13:55:43Z</time>
      </trkpt>
      <trkpt lat="48.57788" lon="1.9776">
        <ele>116</ele>
        <time>2010-05-15T13:55:44Z</time>
      </trkpt>
      <trkpt lat="48.57787" lon="1.97768">
        <ele>116</ele>
        <time>2010-05-15T13:55:45Z</time>
      </trkpt>
      <trkpt lat="48.57786" lon="1.97775">
        <ele>115</ele>
        <time>2010-05-15T13:55:46Z</time>
      </trkpt>
      <trkpt lat="48.57785" lon="1.97781">
        <ele>114</ele>
        <time>2010-05-15T13:55:47Z</time>
      </trkpt>
      <trkpt lat="48.57783" lon="1.97787">
        <ele>114</ele>
        <time>2010-05-15T13:55:48Z</time>
      </trkpt>
      <trkpt lat="48.57781" lon="1.97792">
        <ele>114</ele>
        <time>2010-05-15T13:55:49Z</time>
      </trkpt>
      <trkpt lat="48.57779" lon="1.97798">
        <ele>114</ele>
        <time>2010-05-15T13:55:50Z</time>
      </trkpt>
      <trkpt lat="48.57777" lon="1.97804">
        <ele>114</ele>
        <time>2010-05-15T13:55:51Z</time>
      </trkpt>
      <trkpt lat="48.57775" lon="1.9781">
        <ele>114</ele>
        <time>2010-05-15T13:55:52Z</time>
      </trkpt>
      <trkpt lat="48.57774" lon="1.97815">
        <ele>114</ele>
        <time>2010-05-15T13:55:53Z</time>
      </trkpt>
      <trkpt lat="48.57773" lon="1.9782">
        <ele>114</ele>
        <time>2010-05-15T13:55:54Z</time>
      </trkpt>
      <trkpt lat="48.57773" lon="1.97825">
        <ele>114</ele>
        <time>2010-05-15T13:55:55Z</time>
      </trkpt>
      <trkpt lat="48.57774" lon="1.97832">
        <ele>114</ele>
        <time>2010-05-15T13:55:56Z</time>
      </trkpt>
      <trkpt lat="48.57774" lon="1.97839">
        <ele>114</ele>
        <time>2010-05-15T13:55:57Z</time>
      </trkpt>
      <trkpt lat="48.57773" lon="1.97845">
        <ele>114</ele>
        <time>2010-05-15T13:55:58Z</time>
      </trkpt>
      <trkpt lat="48.57773" lon="1.97852">
        <ele>114</ele>
        <time>2010-05-15T13:55:59Z</time>
      </trkpt>
      <trkpt lat="48.57773" lon="1.9786">
        <ele>114</ele>
        <time>2010-05-15T13:56:00Z</time>
      </trkpt>
      <trkpt lat="48.57772" lon="1.97868">
        <ele>114</ele>
        <time>2010-05-15T13:56:01Z</time>
      </trkpt>
      <trkpt lat="48.57771" lon="1.97876">
        <ele>114</ele>
        <time>2010-05-15T13:56:02Z</time>
      </trkpt>
      <trkpt lat="48.57771" lon="1.97883">
        <ele>114</ele>
        <time>2010-05-15T13:56:03Z</time>
      </trkpt>
      <trkpt lat="48.5777" lon="1.9789">
        <ele>114</ele>
        <time>2010-05-15T13:56:04Z</time>
      </trkpt>
      <trkpt lat="48.5777" lon="1.97897">
        <ele>114</ele>
        <time>2010-05-15T13:56:05Z</time>
      </trkpt>
      <trkpt lat="48.57769" lon="1.97904">
        <ele>113</ele>
        <time>2010-05-15T13:56:06Z</time>
      </trkpt>
      <trkpt lat="48.57768" lon="1.9791">
        <ele>113</ele>
        <time>2010-05-15T13:56:07Z</time>
      </trkpt>
      <trkpt lat="48.57767" lon="1.97916">
        <ele>113</ele>
        <time>2010-05-15T13:56:08Z</time>
      </trkpt>
      <trkpt lat="48.57766" lon="1.97923">
        <ele>113</ele>
        <time>2010-05-15T13:56:09Z</time>
      </trkpt>
      <trkpt lat="48.57765" lon="1.97931">
        <ele>112</ele>
        <time>2010-05-15T13:56:10Z</time>
      </trkpt>
      <trkpt lat="48.57765" lon="1.97938">
        <ele>112</ele>
        <time>2010-05-15T13:56:11Z</time>
      </trkpt>
      <trkpt lat="48.57765" lon="1.97946">
        <ele>111</ele>
        <time>2010-05-15T13:56:12Z</time>
      </trkpt>
      <trkpt lat="48.57765" lon="1.97953">
        <ele>111</ele>
        <time>2010-05-15T13:56:13Z</time>
      </trkpt>
      <trkpt lat="48.57764" lon="1.97959">
        <ele>111</ele>
        <time>2010-05-15T13:56:14Z</time>
      </trkpt>
      <trkpt lat="48.57764" lon="1.97966">
        <ele>111</ele>
        <time>2010-05-15T13:56:15Z</time>
      </trkpt>
      <trkpt lat="48.57763" lon="1.97973">
        <ele>111</ele>
        <time>2010-05-15T13:56:16Z</time>
      </trkpt>
      <trkpt lat="48.57763" lon="1.97981">
        <ele>111</ele>
        <time>2010-05-15T13:56:17Z</time>
      </trkpt>
      <trkpt lat="48.57764" lon="1.97989">
        <ele>111</ele>
        <time>2010-05-15T13:56:18Z</time>
      </trkpt>
      <trkpt lat="48.57764" lon="1.97995">
        <ele>111</ele>
        <time>2010-05-15T13:56:19Z</time>
      </trkpt>
      <trkpt lat="48.57764" lon="1.98002">
        <ele>111</ele>
        <time>2010-05-15T13:56:20Z</time>
      </trkpt>
      <trkpt lat="48.57763" lon="1.98009">
        <ele>111</ele>
        <time>2010-05-15T13:56:21Z</time>
      </trkpt>
      <trkpt lat="48.57763" lon="1.98015">
        <ele>111</ele>
        <time>2010-05-15T13:56:22Z</time>
      </trkpt>
      <trkpt lat="48.57762" lon="1.98022">
        <ele>111</ele>
        <time>2010-05-15T13:56:23Z</time>
      </trkpt>
      <trkpt lat="48.57763" lon="1.98028">
        <ele>111</ele>
        <time>2010-05-15T13:56:24Z</time>
      </trkpt>
      <trkpt lat="48.57762" lon="1.98035">
        <ele>111</ele>
        <time>2010-05-15T13:56:25Z</time>
      </trkpt>
      <trkpt lat="48.57762" lon="1.98041">
        <ele>111</ele>
        <time>2010-05-15T13:56:26Z</time>
      </trkpt>
      <trkpt lat="48.57762" lon="1.98048">
        <ele>111</ele>
        <time>2010-05-15T13:56:27Z</time>
      </trkpt>
      <trkpt lat="48.57762" lon="1.98055">
        <ele>111</ele>
        <time>2010-05-15T13:56:28Z</time>
      </trkpt>
      <trkpt lat="48.57762" lon="1.98063">
        <ele>111</ele>
        <time>2010-05-15T13:56:29Z</time>
      </trkpt>
      <trkpt lat="48.57763" lon="1.98069">
        <ele>110</ele>
        <time>2010-05-15T13:56:30Z</time>
      </trkpt>
      <trkpt lat="48.57764" lon="1.98076">
        <ele>110</ele>
        <time>2010-05-15T13:56:31Z</time>
      </trkpt>
      <trkpt lat="48.57764" lon="1.98082">
        <ele>109</ele>
        <time>2010-05-15T13:56:32Z</time>
      </trkpt>
      <trkpt lat="48.57766" lon="1.98088">
        <ele>109</ele>
        <time>2010-05-15T13:56:33Z</time>
      </trkpt>
      <trkpt lat="48.57766" lon="1.98093">
        <ele>109</ele>
        <time>2010-05-15T13:56:34Z</time>
      </trkpt>
      <trkpt lat="48.57767" lon="1.98099">
        <ele>108</ele>
        <time>2010-05-15T13:56:35Z</time>
      </trkpt>
      <trkpt lat="48.57768" lon="1.98104">
        <ele>108</ele>
        <time>2010-05-15T13:56:36Z</time>
      </trkpt>
      <trkpt lat="48.57769" lon="1.98109">
        <ele>108</ele>
        <time>2010-05-15T13:56:37Z</time>
      </trkpt>
      <trkpt lat="48.5777" lon="1.98113">
        <ele>108</ele>
        <time>2010-05-15T13:56:38Z</time>
      </trkpt>
      <trkpt lat="48.57771" lon="1.98118">
        <ele>108</ele>
        <time>2010-05-15T13:56:39Z</time>
      </trkpt>
      <trkpt lat="48.57771" lon="1.98123">
        <ele>108</ele>
        <time>2010-05-15T13:56:40Z</time>
      </trkpt>
      <trkpt lat="48.57771" lon="1.98128">
        <ele>108</ele>
        <time>2010-05-15T13:56:41Z</time>
      </trkpt>
      <trkpt lat="48.57771" lon="1.98132">
        <ele>108</ele>
        <time>2010-05-15T13:56:42Z</time>
      </trkpt>
      <trkpt lat="48.57771" lon="1.98137">
        <ele>108</ele>
        <time>2010-05-15T13:56:43Z</time>
      </trkpt>
      <trkpt lat="48.57771" lon="1.98141">
        <ele>108</ele>
        <time>2010-05-15T13:56:44Z</time>
      </trkpt>
      <trkpt lat="48.57771" lon="1.98146">
        <ele>108</ele>
        <time>2010-05-15T13:56:45Z</time>
      </trkpt>
      <trkpt lat="48.57772" lon="1.98151">
        <ele>108</ele>
        <time>2010-05-15T13:56:46Z</time>
      </trkpt>
      <trkpt lat="48.57773" lon="1.98156">
        <ele>108</ele>
        <time>2010-05-15T13:56:47Z</time>
      </trkpt>
      <trkpt lat="48.57773" lon="1.98161">
        <ele>108</ele>
        <time>2010-05-15T13:56:48Z</time>
      </trkpt>
      <trkpt lat="48.57773" lon="1.98166">
        <ele>108</ele>
        <time>2010-05-15T13:56:49Z</time>
      </trkpt>
      <trkpt lat="48.57773" lon="1.9817">
        <ele>108</ele>
        <time>2010-05-15T13:56:50Z</time>
      </trkpt>
      <trkpt lat="48.57772" lon="1.98174">
        <ele>108</ele>
        <time>2010-05-15T13:56:51Z</time>
      </trkpt>
      <trkpt lat="48.57772" lon="1.98178">
        <ele>108</ele>
        <time>2010-05-15T13:56:52Z</time>
      </trkpt>
      <trkpt lat="48.57771" lon="1.9818">
        <ele>108</ele>
        <time>2010-05-15T13:56:53Z</time>
      </trkpt>
      <trkpt lat="48.57772" lon="1.98182">
        <ele>108</ele>
        <time>2010-05-15T13:56:54Z</time>
      </trkpt>
      <trkpt lat="48.57772" lon="1.98184">
        <ele>108</ele>
        <time>2010-05-15T13:56:55Z</time>
      </trkpt>
      <trkpt lat="48.57773" lon="1.98188">
        <ele>108</ele>
        <time>2010-05-15T13:56:57Z</time>
      </trkpt>
      <trkpt lat="48.57774" lon="1.9819">
        <ele>108</ele>
        <time>2010-05-15T13:56:58Z</time>
      </trkpt>
      <trkpt lat="48.57774" lon="1.98191">
        <ele>108</ele>
        <time>2010-05-15T13:56:59Z</time>
      </trkpt>
      <trkpt lat="48.57775" lon="1.98193">
        <ele>108</ele>
        <time>2010-05-15T13:57:00Z</time>
      </trkpt>
      <trkpt lat="48.57775" lon="1.98195">
        <ele>108</ele>
        <time>2010-05-15T13:57:01Z</time>
      </trkpt>
      <trkpt lat="48.57775" lon="1.98196">
        <ele>108</ele>
        <time>2010-05-15T13:57:02Z</time>
      </trkpt>
      <trkpt lat="48.57776" lon="1.98198">
        <ele>108</ele>
        <time>2010-05-15T13:57:03Z</time>
      </trkpt>
      <trkpt lat="48.57777" lon="1.982">
        <ele>108</ele>
        <time>2010-05-15T13:57:04Z</time>
      </trkpt>
      <trkpt lat="48.57777" lon="1.98202">
        <ele>108</ele>
        <time>2010-05-15T13:57:05Z</time>
      </trkpt>
      <trkpt lat="48.57778" lon="1.98205">
        <ele>108</ele>
        <time>2010-05-15T13:57:07Z</time>
      </trkpt>
      <trkpt lat="48.57779" lon="1.98207">
        <ele>108</ele>
        <time>2010-05-15T13:57:08Z</time>
      </trkpt>
      <trkpt lat="48.57779" lon="1.98209">
        <ele>108</ele>
        <time>2010-05-15T13:57:09Z</time>
      </trkpt>
      <trkpt lat="48.57778" lon="1.98211">
        <ele>108</ele>
        <time>2010-05-15T13:57:10Z</time>
      </trkpt>
      <trkpt lat="48.57778" lon="1.98213">
        <ele>108</ele>
        <time>2010-05-15T13:57:12Z</time>
      </trkpt>
      <trkpt lat="48.57778" lon="1.98214">
        <ele>108</ele>
        <time>2010-05-15T13:57:17Z</time>
      </trkpt>
      <trkpt lat="48.57779" lon="1.98216">
        <ele>107</ele>
        <time>2010-05-15T13:57:21Z</time>
      </trkpt>
      <trkpt lat="48.5778" lon="1.98218">
        <ele>106</ele>
        <time>2010-05-15T13:57:24Z</time>
      </trkpt>
      <trkpt lat="48.5778" lon="1.9822">
        <ele>105</ele>
        <time>2010-05-15T13:57:28Z</time>
      </trkpt>
      <trkpt lat="48.57779" lon="1.9822">
        <ele>105</ele>
        <time>2010-05-15T13:57:37Z</time>
      </trkpt>
      <trkpt lat="48.57778" lon="1.98221">
        <ele>105</ele>
        <time>2010-05-15T13:57:46Z</time>
      </trkpt>
      <trkpt lat="48.57777" lon="1.98224">
        <ele>105</ele>
        <time>2010-05-15T13:57:48Z</time>
      </trkpt>
      <trkpt lat="48.57778" lon="1.98226">
        <ele>105</ele>
        <time>2010-05-15T13:57:49Z</time>
      </trkpt>
      <trkpt lat="48.57777" lon="1.98228">
        <ele>105</ele>
        <time>2010-05-15T13:57:50Z</time>
      </trkpt>
      <trkpt lat="48.57777" lon="1.9823">
        <ele>105</ele>
        <time>2010-05-15T13:57:51Z</time>
      </trkpt>
      <trkpt lat="48.57777" lon="1.98233">
        <ele>105</ele>
        <time>2010-05-15T13:57:52Z</time>
      </trkpt>
      <trkpt lat="48.57777" lon="1.98235">
        <ele>105</ele>
        <time>2010-05-15T13:57:53Z</time>
      </trkpt>
      <trkpt lat="48.57778" lon="1.98237">
        <ele>105</ele>
        <time>2010-05-15T13:57:54Z</time>
      </trkpt>
      <trkpt lat="48.57778" lon="1.98239">
        <ele>105</ele>
        <time>2010-05-15T13:57:55Z</time>
      </trkpt>
      <trkpt lat="48.57779" lon="1.98241">
        <ele>105</ele>
        <time>2010-05-15T13:57:56Z</time>
      </trkpt>
      <trkpt lat="48.57779" lon="1.98243">
        <ele>105</ele>
        <time>2010-05-15T13:57:57Z</time>
      </trkpt>
      <trkpt lat="48.57779" lon="1.98245">
        <ele>105</ele>
        <time>2010-05-15T13:57:58Z</time>
      </trkpt>
      <trkpt lat="48.57779" lon="1.98248">
        <ele>105</ele>
        <time>2010-05-15T13:57:59Z</time>
      </trkpt>
      <trkpt lat="48.57779" lon="1.9825">
        <ele>105</ele>
        <time>2010-05-15T13:58:00Z</time>
      </trkpt>
      <trkpt lat="48.57779" lon="1.98252">
        <ele>105</ele>
        <time>2010-05-15T13:58:01Z</time>
      </trkpt>
      <trkpt lat="48.5778" lon="1.98254">
        <ele>105</ele>
        <time>2010-05-15T13:58:02Z</time>
      </trkpt>
      <trkpt lat="48.5778" lon="1.98256">
        <ele>105</ele>
        <time>2010-05-15T13:58:03Z</time>
      </trkpt>
      <trkpt lat="48.5778" lon="1.98259">
        <ele>105</ele>
        <time>2010-05-15T13:58:04Z</time>
      </trkpt>
      <trkpt lat="48.5778" lon="1.98261">
        <ele>105</ele>
        <time>2010-05-15T13:58:05Z</time>
      </trkpt>
      <trkpt lat="48.5778" lon="1.98264">
        <ele>105</ele>
        <time>2010-05-15T13:58:06Z</time>
      </trkpt>
      <trkpt lat="48.5778" lon="1.98266">
        <ele>105</ele>
        <time>2010-05-15T13:58:07Z</time>
      </trkpt>
      <trkpt lat="48.57779" lon="1.98268">
        <ele>105</ele>
        <time>2010-05-15T13:58:08Z</time>
      </trkpt>
      <trkpt lat="48.57779" lon="1.98269">
        <ele>105</ele>
        <time>2010-05-15T13:58:09Z</time>
      </trkpt>
      <trkpt lat="48.57779" lon="1.98271">
        <ele>105</ele>
        <time>2010-05-15T13:58:10Z</time>
      </trkpt>
      <trkpt lat="48.57779" lon="1.98274">
        <ele>105</ele>
        <time>2010-05-15T13:58:11Z</time>
      </trkpt>
      <trkpt lat="48.57779" lon="1.98276">
        <ele>106</ele>
        <time>2010-05-15T13:58:12Z</time>
      </trkpt>
      <trkpt lat="48.57779" lon="1.98278">
        <ele>106</ele>
        <time>2010-05-15T13:58:13Z</time>
      </trkpt>
      <trkpt lat="48.5778" lon="1.9828">
        <ele>106</ele>
        <time>2010-05-15T13:58:14Z</time>
      </trkpt>
      <trkpt lat="48.5778" lon="1.98283">
        <ele>106</ele>
        <time>2010-05-15T13:58:15Z</time>
      </trkpt>
      <trkpt lat="48.5778" lon="1.98285">
        <ele>106</ele>
        <time>2010-05-15T13:58:16Z</time>
      </trkpt>
      <trkpt lat="48.5778" lon="1.98287">
        <ele>106</ele>
        <time>2010-05-15T13:58:17Z</time>
      </trkpt>
      <trkpt lat="48.5778" lon="1.98289">
        <ele>106</ele>
        <time>2010-05-15T13:58:18Z</time>
      </trkpt>
      <trkpt lat="48.57781" lon="1.98292">
        <ele>106</ele>
        <time>2010-05-15T13:58:19Z</time>
      </trkpt>
      <trkpt lat="48.57781" lon="1.98294">
        <ele>106</ele>
        <time>2010-05-15T13:58:20Z</time>
      </trkpt>
      <trkpt lat="48.57781" lon="1.98297">
        <ele>106</ele>
        <time>2010-05-15T13:58:21Z</time>
      </trkpt>
      <trkpt lat="48.57781" lon="1.983">
        <ele>106</ele>
        <time>2010-05-15T13:58:22Z</time>
      </trkpt>
      <trkpt lat="48.57781" lon="1.98303">
        <ele>107</ele>
        <time>2010-05-15T13:58:23Z</time>
      </trkpt>
      <trkpt lat="48.57781" lon="1.98305">
        <ele>107</ele>
        <time>2010-05-15T13:58:24Z</time>
      </trkpt>
      <trkpt lat="48.57781" lon="1.98308">
        <ele>107</ele>
        <time>2010-05-15T13:58:25Z</time>
      </trkpt>
      <trkpt lat="48.57781" lon="1.9831">
        <ele>108</ele>
        <time>2010-05-15T13:58:26Z</time>
      </trkpt>
      <trkpt lat="48.57782" lon="1.98313">
        <ele>108</ele>
        <time>2010-05-15T13:58:27Z</time>
      </trkpt>
      <trkpt lat="48.57782" lon="1.98316">
        <ele>108</ele>
        <time>2010-05-15T13:58:28Z</time>
      </trkpt>
      <trkpt lat="48.57782" lon="1.98318">
        <ele>109</ele>
        <time>2010-05-15T13:58:29Z</time>
      </trkpt>
      <trkpt lat="48.57782" lon="1.9832">
        <ele>109</ele>
        <time>2010-05-15T13:58:30Z</time>
      </trkpt>
      <trkpt lat="48.57782" lon="1.98322">
        <ele>109</ele>
        <time>2010-05-15T13:58:31Z</time>
      </trkpt>
      <trkpt lat="48.57782" lon="1.98325">
        <ele>109</ele>
        <time>2010-05-15T13:58:32Z</time>
      </trkpt>
      <trkpt lat="48.57782" lon="1.98328">
        <ele>109</ele>
        <time>2010-05-15T13:58:33Z</time>
      </trkpt>
      <trkpt lat="48.57782" lon="1.9833">
        <ele>109</ele>
        <time>2010-05-15T13:58:34Z</time>
      </trkpt>
      <trkpt lat="48.57782" lon="1.98333">
        <ele>109</ele>
        <time>2010-05-15T13:58:35Z</time>
      </trkpt>
      <trkpt lat="48.57782" lon="1.98335">
        <ele>109</ele>
        <time>2010-05-15T13:58:36Z</time>
      </trkpt>
      <trkpt lat="48.57783" lon="1.98338">
        <ele>109</ele>
        <time>2010-05-15T13:58:37Z</time>
      </trkpt>
      <trkpt lat="48.57783" lon="1.98341">
        <ele>109</ele>
        <time>2010-05-15T13:58:38Z</time>
      </trkpt>
      <trkpt lat="48.57783" lon="1.98343">
        <ele>109</ele>
        <time>2010-05-15T13:58:39Z</time>
      </trkpt>
      <trkpt lat="48.57783" lon="1.98346">
        <ele>109</ele>
        <time>2010-05-15T13:58:40Z</time>
      </trkpt>
      <trkpt lat="48.57783" lon="1.98348">
        <ele>109</ele>
        <time>2010-05-15T13:58:41Z</time>
      </trkpt>
      <trkpt lat="48.57783" lon="1.98351">
        <ele>109</ele>
        <time>2010-05-15T13:58:42Z</time>
      </trkpt>
      <trkpt lat="48.57783" lon="1.98353">
        <ele>109</ele>
        <time>2010-05-15T13:58:43Z</time>
      </trkpt>
      <trkpt lat="48.57783" lon="1.98356">
        <ele>109</ele>
        <time>2010-05-15T13:58:44Z</time>
      </trkpt>
      <trkpt lat="48.57782" lon="1.98358">
        <ele>109</ele>
        <time>2010-05-15T13:58:45Z</time>
      </trkpt>
      <trkpt lat="48.57782" lon="1.98361">
        <ele>109</ele>
        <time>2010-05-15T13:58:47Z</time>
      </trkpt>
      <trkpt lat="48.57782" lon="1.98364">
        <ele>109</ele>
        <time>2010-05-15T13:58:48Z</time>
      </trkpt>
      <trkpt lat="48.57783" lon="1.98367">
        <ele>109</ele>
        <time>2010-05-15T13:58:49Z</time>
      </trkpt>
      <trkpt lat="48.57783" lon="1.9837">
        <ele>109</ele>
        <time>2010-05-15T13:58:50Z</time>
      </trkpt>
      <trkpt lat="48.57783" lon="1.98373">
        <ele>109</ele>
        <time>2010-05-15T13:58:51Z</time>
      </trkpt>
      <trkpt lat="48.57783" lon="1.98376">
        <ele>109</ele>
        <time>2010-05-15T13:58:52Z</time>
      </trkpt>
      <trkpt lat="48.57783" lon="1.98378">
        <ele>109</ele>
        <time>2010-05-15T13:58:53Z</time>
      </trkpt>
      <trkpt lat="48.57784" lon="1.98381">
        <ele>109</ele>
        <time>2010-05-15T13:58:54Z</time>
      </trkpt>
      <trkpt lat="48.57784" lon="1.98384">
        <ele>109</ele>
        <time>2010-05-15T13:58:55Z</time>
      </trkpt>
      <trkpt lat="48.57784" lon="1.98387">
        <ele>109</ele>
        <time>2010-05-15T13:58:56Z</time>
      </trkpt>
      <trkpt lat="48.57784" lon="1.9839">
        <ele>109</ele>
        <time>2010-05-15T13:58:57Z</time>
      </trkpt>
      <trkpt lat="48.57784" lon="1.98392">
        <ele>109</ele>
        <time>2010-05-15T13:58:58Z</time>
      </trkpt>
      <trkpt lat="48.57784" lon="1.98395">
        <ele>109</ele>
        <time>2010-05-15T13:58:59Z</time>
      </trkpt>
      <trkpt lat="48.57784" lon="1.98398">
        <ele>109</ele>
        <time>2010-05-15T13:59:00Z</time>
      </trkpt>
      <trkpt lat="48.57784" lon="1.98401">
        <ele>109</ele>
        <time>2010-05-15T13:59:01Z</time>
      </trkpt>
      <trkpt lat="48.57784" lon="1.98403">
        <ele>109</ele>
        <time>2010-05-15T13:59:02Z</time>
      </trkpt>
      <trkpt lat="48.57784" lon="1.98406">
        <ele>109</ele>
        <time>2010-05-15T13:59:03Z</time>
      </trkpt>
      <trkpt lat="48.57784" lon="1.98409">
        <ele>109</ele>
        <time>2010-05-15T13:59:04Z</time>
      </trkpt>
      <trkpt lat="48.57784" lon="1.98412">
        <ele>109</ele>
        <time>2010-05-15T13:59:05Z</time>
      </trkpt>
      <trkpt lat="48.57784" lon="1.98415">
        <ele>109</ele>
        <time>2010-05-15T13:59:06Z</time>
      </trkpt>
      <trkpt lat="48.57784" lon="1.98418">
        <ele>109</ele>
        <time>2010-05-15T13:59:07Z</time>
      </trkpt>
      <trkpt lat="48.57785" lon="1.98421">
        <ele>109</ele>
        <time>2010-05-15T13:59:08Z</time>
      </trkpt>
      <trkpt lat="48.57785" lon="1.98423">
        <ele>109</ele>
        <time>2010-05-15T13:59:09Z</time>
      </trkpt>
      <trkpt lat="48.57784" lon="1.98426">
        <ele>109</ele>
        <time>2010-05-15T13:59:10Z</time>
      </trkpt>
      <trkpt lat="48.57784" lon="1.98428">
        <ele>109</ele>
        <time>2010-05-15T13:59:11Z</time>
      </trkpt>
      <trkpt lat="48.57784" lon="1.98431">
        <ele>109</ele>
        <time>2010-05-15T13:59:12Z</time>
      </trkpt>
      <trkpt lat="48.57784" lon="1.98434">
        <ele>109</ele>
        <time>2010-05-15T13:59:13Z</time>
      </trkpt>
      <trkpt lat="48.57783" lon="1.98436">
        <ele>109</ele>
        <time>2010-05-15T13:59:14Z</time>
      </trkpt>
      <trkpt lat="48.57783" lon="1.98438">
        <ele>109</ele>
        <time>2010-05-15T13:59:15Z</time>
      </trkpt>
      <trkpt lat="48.57783" lon="1.98441">
        <ele>109</ele>
        <time>2010-05-15T13:59:16Z</time>
      </trkpt>
      <trkpt lat="48.57783" lon="1.98443">
        <ele>109</ele>
        <time>2010-05-15T13:59:17Z</time>
      </trkpt>
      <trkpt lat="48.57782" lon="1.98445">
        <ele>109</ele>
        <time>2010-05-15T13:59:18Z</time>
      </trkpt>
      <trkpt lat="48.57782" lon="1.98447">
        <ele>110</ele>
        <time>2010-05-15T13:59:19Z</time>
      </trkpt>
      <trkpt lat="48.57781" lon="1.9845">
        <ele>110</ele>
        <time>2010-05-15T13:59:20Z</time>
      </trkpt>
      <trkpt lat="48.57781" lon="1.98452">
        <ele>111</ele>
        <time>2010-05-15T13:59:21Z</time>
      </trkpt>
      <trkpt lat="48.5778" lon="1.98454">
        <ele>112</ele>
        <time>2010-05-15T13:59:22Z</time>
      </trkpt>
      <trkpt lat="48.5778" lon="1.98456">
        <ele>112</ele>
        <time>2010-05-15T13:59:23Z</time>
      </trkpt>
      <trkpt lat="48.5778" lon="1.98458">
        <ele>113</ele>
        <time>2010-05-15T13:59:24Z</time>
      </trkpt>
      <trkpt lat="48.57779" lon="1.9846">
        <ele>113</ele>
        <time>2010-05-15T13:59:25Z</time>
      </trkpt>
      <trkpt lat="48.57779" lon="1.98464">
        <ele>114</ele>
        <time>2010-05-15T13:59:26Z</time>
      </trkpt>
      <trkpt lat="48.57779" lon="1.98466">
        <ele>114</ele>
        <time>2010-05-15T13:59:27Z</time>
      </trkpt>
      <trkpt lat="48.57778" lon="1.98469">
        <ele>115</ele>
        <time>2010-05-15T13:59:28Z</time>
      </trkpt>
      <trkpt lat="48.57778" lon="1.98472">
        <ele>115</ele>
        <time>2010-05-15T13:59:29Z</time>
      </trkpt>
      <trkpt lat="48.57778" lon="1.98476">
        <ele>115</ele>
        <time>2010-05-15T13:59:30Z</time>
      </trkpt>
      <trkpt lat="48.57777" lon="1.98478">
        <ele>115</ele>
        <time>2010-05-15T13:59:31Z</time>
      </trkpt>
      <trkpt lat="48.57778" lon="1.9848">
        <ele>116</ele>
        <time>2010-05-15T13:59:32Z</time>
      </trkpt>
      <trkpt lat="48.57778" lon="1.98482">
        <ele>116</ele>
        <time>2010-05-15T13:59:33Z</time>
      </trkpt>
      <trkpt lat="48.57778" lon="1.98484">
        <ele>116</ele>
        <time>2010-05-15T13:59:34Z</time>
      </trkpt>
      <trkpt lat="48.57778" lon="1.98486">
        <ele>116</ele>
        <time>2010-05-15T13:59:35Z</time>
      </trkpt>
      <trkpt lat="48.57779" lon="1.98488">
        <ele>116</ele>
        <time>2010-05-15T13:59:36Z</time>
      </trkpt>
      <trkpt lat="48.57779" lon="1.9849">
        <ele>116</ele>
        <time>2010-05-15T13:59:37Z</time>
      </trkpt>
      <trkpt lat="48.57779" lon="1.98493">
        <ele>116</ele>
        <time>2010-05-15T13:59:38Z</time>
      </trkpt>
      <trkpt lat="48.5778" lon="1.98496">
        <ele>116</ele>
        <time>2010-05-15T13:59:39Z</time>
      </trkpt>
      <trkpt lat="48.5778" lon="1.98499">
        <ele>116</ele>
        <time>2010-05-15T13:59:40Z</time>
      </trkpt>
      <trkpt lat="48.57781" lon="1.98501">
        <ele>116</ele>
        <time>2010-05-15T13:59:41Z</time>
      </trkpt>
      <trkpt lat="48.57781" lon="1.98504">
        <ele>116</ele>
        <time>2010-05-15T13:59:42Z</time>
      </trkpt>
      <trkpt lat="48.57782" lon="1.98507">
        <ele>116</ele>
        <time>2010-05-15T13:59:43Z</time>
      </trkpt>
      <trkpt lat="48.57782" lon="1.98509">
        <ele>116</ele>
        <time>2010-05-15T13:59:44Z</time>
      </trkpt>
      <trkpt lat="48.57782" lon="1.98511">
        <ele>116</ele>
        <time>2010-05-15T13:59:45Z</time>
      </trkpt>
      <trkpt lat="48.57782" lon="1.98514">
        <ele>116</ele>
        <time>2010-05-15T13:59:46Z</time>
      </trkpt>
      <trkpt lat="48.57783" lon="1.98516">
        <ele>116</ele>
        <time>2010-05-15T13:59:47Z</time>
      </trkpt>
      <trkpt lat="48.57783" lon="1.98519">
        <ele>116</ele>
        <time>2010-05-15T13:59:48Z</time>
      </trkpt>
      <trkpt lat="48.57783" lon="1.98521">
        <ele>116</ele>
        <time>2010-05-15T13:59:49Z</time>
      </trkpt>
      <trkpt lat="48.57784" lon="1.98524">
        <ele>116</ele>
        <time>2010-05-15T13:59:50Z</time>
      </trkpt>
      <trkpt lat="48.57784" lon="1.98527">
        <ele>116</ele>
        <time>2010-05-15T13:59:51Z</time>
      </trkpt>
      <trkpt lat="48.57784" lon="1.98529">
        <ele>116</ele>
        <time>2010-05-15T13:59:52Z</time>
      </trkpt>
      <trkpt lat="48.57785" lon="1.98532">
        <ele>116</ele>
        <time>2010-05-15T13:59:53Z</time>
      </trkpt>
      <trkpt lat="48.57785" lon="1.98535">
        <ele>116</ele>
        <time>2010-05-15T13:59:54Z</time>
      </trkpt>
      <trkpt lat="48.57785" lon="1.98538">
        <ele>116</ele>
        <time>2010-05-15T13:59:55Z</time>
      </trkpt>
      <trkpt lat="48.57786" lon="1.98541">
        <ele>116</ele>
        <time>2010-05-15T13:59:56Z</time>
      </trkpt>
      <trkpt lat="48.57786" lon="1.98545">
        <ele>116</ele>
        <time>2010-05-15T13:59:57Z</time>
      </trkpt>
      <trkpt lat="48.57786" lon="1.98547">
        <ele>116</ele>
        <time>2010-05-15T13:59:58Z</time>
      </trkpt>
      <trkpt lat="48.57787" lon="1.9855">
        <ele>116</ele>
        <time>2010-05-15T13:59:59Z</time>
      </trkpt>
      <trkpt lat="48.57787" lon="1.98553">
        <ele>116</ele>
        <time>2010-05-15T14:00:00Z</time>
      </trkpt>
      <trkpt lat="48.57787" lon="1.98557">
        <ele>116</ele>
        <time>2010-05-15T14:00:01Z</time>
      </trkpt>
      <trkpt lat="48.57788" lon="1.98559">
        <ele>116</ele>
        <time>2010-05-15T14:00:02Z</time>
      </trkpt>
      <trkpt lat="48.57788" lon="1.98562">
        <ele>116</ele>
        <time>2010-05-15T14:00:03Z</time>
      </trkpt>
      <trkpt lat="48.57788" lon="1.98566">
        <ele>116</ele>
        <time>2010-05-15T14:00:04Z</time>
      </trkpt>
      <trkpt lat="48.57789" lon="1.98568">
        <ele>116</ele>
        <time>2010-05-15T14:00:05Z</time>
      </trkpt>
      <trkpt lat="48.57789" lon="1.98571">
        <ele>116</ele>
        <time>2010-05-15T14:00:06Z</time>
      </trkpt>
      <trkpt lat="48.5779" lon="1.98574">
        <ele>116</ele>
        <time>2010-05-15T14:00:07Z</time>
      </trkpt>
      <trkpt lat="48.5779" lon="1.98576">
        <ele>116</ele>
        <time>2010-05-15T14:00:08Z</time>
      </trkpt>
      <trkpt lat="48.5779" lon="1.98579">
        <ele>116</ele>
        <time>2010-05-15T14:00:09Z</time>
      </trkpt>
      <trkpt lat="48.57791" lon="1.98582">
        <ele>116</ele>
        <time>2010-05-15T14:00:10Z</time>
      </trkpt>
      <trkpt lat="48.57791" lon="1.98586">
        <ele>115</ele>
        <time>2010-05-15T14:00:11Z</time>
      </trkpt>
      <trkpt lat="48.57792" lon="1.98589">
        <ele>115</ele>
        <time>2010-05-15T14:00:12Z</time>
      </trkpt>
      <trkpt lat="48.57792" lon="1.98591">
        <ele>115</ele>
        <time>2010-05-15T14:00:13Z</time>
      </trkpt>
      <trkpt lat="48.57792" lon="1.98594">
        <ele>115</ele>
        <time>2010-05-15T14:00:14Z</time>
      </trkpt>
      <trkpt lat="48.57793" lon="1.98597">
        <ele>115</ele>
        <time>2010-05-15T14:00:15Z</time>
      </trkpt>
      <trkpt lat="48.57793" lon="1.986">
        <ele>114</ele>
        <time>2010-05-15T14:00:16Z</time>
      </trkpt>
      <trkpt lat="48.57793" lon="1.98602">
        <ele>114</ele>
        <time>2010-05-15T14:00:17Z</time>
      </trkpt>
      <trkpt lat="48.57793" lon="1.98605">
        <ele>114</ele>
        <time>2010-05-15T14:00:18Z</time>
      </trkpt>
      <trkpt lat="48.57794" lon="1.98608">
        <ele>114</ele>
        <time>2010-05-15T14:00:19Z</time>
      </trkpt>
      <trkpt lat="48.57794" lon="1.98611">
        <ele>113</ele>
        <time>2010-05-15T14:00:20Z</time>
      </trkpt>
      <trkpt lat="48.57795" lon="1.98614">
        <ele>113</ele>
        <time>2010-05-15T14:00:21Z</time>
      </trkpt>
      <trkpt lat="48.57795" lon="1.98617">
        <ele>113</ele>
        <time>2010-05-15T14:00:22Z</time>
      </trkpt>
      <trkpt lat="48.57795" lon="1.98619">
        <ele>113</ele>
        <time>2010-05-15T14:00:23Z</time>
      </trkpt>
      <trkpt lat="48.57796" lon="1.98622">
        <ele>113</ele>
        <time>2010-05-15T14:00:24Z</time>
      </trkpt>
      <trkpt lat="48.57796" lon="1.98625">
        <ele>112</ele>
        <time>2010-05-15T14:00:25Z</time>
      </trkpt>
      <trkpt lat="48.57797" lon="1.98627">
        <ele>112</ele>
        <time>2010-05-15T14:00:26Z</time>
      </trkpt>
      <trkpt lat="48.57797" lon="1.9863">
        <ele>112</ele>
        <time>2010-05-15T14:00:27Z</time>
      </trkpt>
      <trkpt lat="48.57797" lon="1.98633">
        <ele>112</ele>
        <time>2010-05-15T14:00:28Z</time>
      </trkpt>
      <trkpt lat="48.57798" lon="1.98635">
        <ele>112</ele>
        <time>2010-05-15T14:00:29Z</time>
      </trkpt>
      <trkpt lat="48.57798" lon="1.98638">
        <ele>112</ele>
        <time>2010-05-15T14:00:30Z</time>
      </trkpt>
      <trkpt lat="48.57798" lon="1.98641">
        <ele>112</ele>
        <time>2010-05-15T14:00:31Z</time>
      </trkpt>
      <trkpt lat="48.57799" lon="1.98643">
        <ele>112</ele>
        <time>2010-05-15T14:00:32Z</time>
      </trkpt>
      <trkpt lat="48.57799" lon="1.98646">
        <ele>112</ele>
        <time>2010-05-15T14:00:33Z</time>
      </trkpt>
      <trkpt lat="48.578" lon="1.98648">
        <ele>112</ele>
        <time>2010-05-15T14:00:34Z</time>
      </trkpt>
      <trkpt lat="48.578" lon="1.98651">
        <ele>112</ele>
        <time>2010-05-15T14:00:35Z</time>
      </trkpt>
      <trkpt lat="48.578" lon="1.98653">
        <ele>112</ele>
        <time>2010-05-15T14:00:36Z</time>
      </trkpt>
      <trkpt lat="48.57801" lon="1.98655">
        <ele>112</ele>
        <time>2010-05-15T14:00:37Z</time>
      </trkpt>
      <trkpt lat="48.57801" lon="1.98658">
        <ele>112</ele>
        <time>2010-05-15T14:00:38Z</time>
      </trkpt>
      <trkpt lat="48.57801" lon="1.9866">
        <ele>111</ele>
        <time>2010-05-15T14:00:39Z</time>
      </trkpt>
      <trkpt lat="48.57802" lon="1.98663">
        <ele>111</ele>
        <time>2010-05-15T14:00:40Z</time>
      </trkpt>
      <trkpt lat="48.57802" lon="1.98666">
        <ele>111</ele>
        <time>2010-05-15T14:00:41Z</time>
      </trkpt>
      <trkpt lat="48.57802" lon="1.98668">
        <ele>111</ele>
        <time>2010-05-15T14:00:42Z</time>
      </trkpt>
      <trkpt lat="48.57803" lon="1.98671">
        <ele>111</ele>
        <time>2010-05-15T14:00:43Z</time>
      </trkpt>
      <trkpt lat="48.57803" lon="1.98673">
        <ele>111</ele>
        <time>2010-05-15T14:00:44Z</time>
      </trkpt>
      <trkpt lat="48.57803" lon="1.98675">
        <ele>111</ele>
        <time>2010-05-15T14:00:45Z</time>
      </trkpt>
      <trkpt lat="48.57803" lon="1.98678">
        <ele>111</ele>
        <time>2010-05-15T14:00:46Z</time>
      </trkpt>
      <trkpt lat="48.57803" lon="1.9868">
        <ele>111</ele>
        <time>2010-05-15T14:00:47Z</time>
      </trkpt>
      <trkpt lat="48.57804" lon="1.98683">
        <ele>111</ele>
        <time>2010-05-15T14:00:48Z</time>
      </trkpt>
      <trkpt lat="48.57804" lon="1.98686">
        <ele>111</ele>
        <time>2010-05-15T14:00:49Z</time>
      </trkpt>
      <trkpt lat="48.57805" lon="1.98688">
        <ele>111</ele>
        <time>2010-05-15T14:00:50Z</time>
      </trkpt>
      <trkpt lat="48.57805" lon="1.98691">
        <ele>111</ele>
        <time>2010-05-15T14:00:51Z</time>
      </trkpt>
      <trkpt lat="48.57805" lon="1.98693">
        <ele>111</ele>
        <time>2010-05-15T14:00:52Z</time>
      </trkpt>
      <trkpt lat="48.57806" lon="1.98696">
        <ele>111</ele>
        <time>2010-05-15T14:00:53Z</time>
      </trkpt>
      <trkpt lat="48.57806" lon="1.98698">
        <ele>111</ele>
        <time>2010-05-15T14:00:54Z</time>
      </trkpt>
      <trkpt lat="48.57807" lon="1.98701">
        <ele>111</ele>
        <time>2010-05-15T14:00:55Z</time>
      </trkpt>
      <trkpt lat="48.57807" lon="1.98703">
        <ele>111</ele>
        <time>2010-05-15T14:00:56Z</time>
      </trkpt>
      <trkpt lat="48.57808" lon="1.98705">
        <ele>111</ele>
        <time>2010-05-15T14:00:57Z</time>
      </trkpt>
      <trkpt lat="48.57808" lon="1.98707">
        <ele>110</ele>
        <time>2010-05-15T14:00:58Z</time>
      </trkpt>
      <trkpt lat="48.57809" lon="1.98709">
        <ele>110</ele>
        <time>2010-05-15T14:00:59Z</time>
      </trkpt>
      <trkpt lat="48.57809" lon="1.98712">
        <ele>110</ele>
        <time>2010-05-15T14:01:00Z</time>
      </trkpt>
      <trkpt lat="48.5781" lon="1.98714">
        <ele>110</ele>
        <time>2010-05-15T14:01:01Z</time>
      </trkpt>
      <trkpt lat="48.57811" lon="1.98717">
        <ele>110</ele>
        <time>2010-05-15T14:01:02Z</time>
      </trkpt>
      <trkpt lat="48.57811" lon="1.98719">
        <ele>110</ele>
        <time>2010-05-15T14:01:03Z</time>
      </trkpt>
      <trkpt lat="48.57811" lon="1.98722">
        <ele>110</ele>
        <time>2010-05-15T14:01:04Z</time>
      </trkpt>
      <trkpt lat="48.57812" lon="1.98725">
        <ele>109</ele>
        <time>2010-05-15T14:01:05Z</time>
      </trkpt>
      <trkpt lat="48.57812" lon="1.98727">
        <ele>109</ele>
        <time>2010-05-15T14:01:06Z</time>
      </trkpt>
      <trkpt lat="48.57813" lon="1.9873">
        <ele>109</ele>
        <time>2010-05-15T14:01:07Z</time>
      </trkpt>
      <trkpt lat="48.57813" lon="1.98733">
        <ele>109</ele>
        <time>2010-05-15T14:01:08Z</time>
      </trkpt>
      <trkpt lat="48.57814" lon="1.98736">
        <ele>109</ele>
        <time>2010-05-15T14:01:09Z</time>
      </trkpt>
      <trkpt lat="48.57814" lon="1.98738">
        <ele>109</ele>
        <time>2010-05-15T14:01:10Z</time>
      </trkpt>
      <trkpt lat="48.57815" lon="1.98741">
        <ele>108</ele>
        <time>2010-05-15T14:01:11Z</time>
      </trkpt>
      <trkpt lat="48.57815" lon="1.98743">
        <ele>108</ele>
        <time>2010-05-15T14:01:12Z</time>
      </trkpt>
      <trkpt lat="48.57816" lon="1.98746">
        <ele>108</ele>
        <time>2010-05-15T14:01:13Z</time>
      </trkpt>
      <trkpt lat="48.57816" lon="1.98749">
        <ele>108</ele>
        <time>2010-05-15T14:01:14Z</time>
      </trkpt>
      <trkpt lat="48.57816" lon="1.98751">
        <ele>108</ele>
        <time>2010-05-15T14:01:15Z</time>
      </trkpt>
      <trkpt lat="48.57817" lon="1.98754">
        <ele>108</ele>
        <time>2010-05-15T14:01:16Z</time>
      </trkpt>
      <trkpt lat="48.57817" lon="1.98757">
        <ele>108</ele>
        <time>2010-05-15T14:01:17Z</time>
      </trkpt>
      <trkpt lat="48.57818" lon="1.98759">
        <ele>108</ele>
        <time>2010-05-15T14:01:18Z</time>
      </trkpt>
      <trkpt lat="48.57818" lon="1.98762">
        <ele>108</ele>
        <time>2010-05-15T14:01:19Z</time>
      </trkpt>
      <trkpt lat="48.57818" lon="1.98765">
        <ele>108</ele>
        <time>2010-05-15T14:01:20Z</time>
      </trkpt>
      <trkpt lat="48.57819" lon="1.98767">
        <ele>108</ele>
        <time>2010-05-15T14:01:21Z</time>
      </trkpt>
      <trkpt lat="48.57819" lon="1.9877">
        <ele>108</ele>
        <time>2010-05-15T14:01:22Z</time>
      </trkpt>
      <trkpt lat="48.5782" lon="1.98773">
        <ele>108</ele>
        <time>2010-05-15T14:01:23Z</time>
      </trkpt>
      <trkpt lat="48.5782" lon="1.98776">
        <ele>108</ele>
        <time>2010-05-15T14:01:24Z</time>
      </trkpt>
      <trkpt lat="48.57821" lon="1.98779">
        <ele>108</ele>
        <time>2010-05-15T14:01:25Z</time>
      </trkpt>
      <trkpt lat="48.57821" lon="1.98781">
        <ele>108</ele>
        <time>2010-05-15T14:01:26Z</time>
      </trkpt>
      <trkpt lat="48.57822" lon="1.98784">
        <ele>108</ele>
        <time>2010-05-15T14:01:27Z</time>
      </trkpt>
      <trkpt lat="48.57822" lon="1.98786">
        <ele>108</ele>
        <time>2010-05-15T14:01:28Z</time>
      </trkpt>
      <trkpt lat="48.57822" lon="1.98789">
        <ele>108</ele>
        <time>2010-05-15T14:01:29Z</time>
      </trkpt>
      <trkpt lat="48.57823" lon="1.98791">
        <ele>108</ele>
        <time>2010-05-15T14:01:30Z</time>
      </trkpt>
      <trkpt lat="48.57823" lon="1.98794">
        <ele>108</ele>
        <time>2010-05-15T14:01:31Z</time>
      </trkpt>
      <trkpt lat="48.57824" lon="1.98797">
        <ele>108</ele>
        <time>2010-05-15T14:01:32Z</time>
      </trkpt>
      <trkpt lat="48.57824" lon="1.98799">
        <ele>108</ele>
        <time>2010-05-15T14:01:33Z</time>
      </trkpt>
      <trkpt lat="48.57824" lon="1.98801">
        <ele>108</ele>
        <time>2010-05-15T14:01:34Z</time>
      </trkpt>
      <trkpt lat="48.57825" lon="1.98804">
        <ele>108</ele>
        <time>2010-05-15T14:01:35Z</time>
      </trkpt>
      <trkpt lat="48.57825" lon="1.98806">
        <ele>108</ele>
        <time>2010-05-15T14:01:36Z</time>
      </trkpt>
      <trkpt lat="48.57825" lon="1.98808">
        <ele>108</ele>
        <time>2010-05-15T14:01:37Z</time>
      </trkpt>
      <trkpt lat="48.57825" lon="1.98811">
        <ele>108</ele>
        <time>2010-05-15T14:01:38Z</time>
      </trkpt>
      <trkpt lat="48.57826" lon="1.98813">
        <ele>108</ele>
        <time>2010-05-15T14:01:39Z</time>
      </trkpt>
      <trkpt lat="48.57826" lon="1.98816">
        <ele>108</ele>
        <time>2010-05-15T14:01:40Z</time>
      </trkpt>
      <trkpt lat="48.57826" lon="1.98818">
        <ele>108</ele>
        <time>2010-05-15T14:01:41Z</time>
      </trkpt>
      <trkpt lat="48.57827" lon="1.98821">
        <ele>108</ele>
        <time>2010-05-15T14:01:42Z</time>
      </trkpt>
      <trkpt lat="48.57827" lon="1.98824">
        <ele>108</ele>
        <time>2010-05-15T14:01:43Z</time>
      </trkpt>
      <trkpt lat="48.57827" lon="1.98826">
        <ele>108</ele>
        <time>2010-05-15T14:01:44Z</time>
      </trkpt>
      <trkpt lat="48.57827" lon="1.98829">
        <ele>108</ele>
        <time>2010-05-15T14:01:45Z</time>
      </trkpt>
      <trkpt lat="48.57828" lon="1.98831">
        <ele>108</ele>
        <time>2010-05-15T14:01:46Z</time>
      </trkpt>
      <trkpt lat="48.57828" lon="1.98833">
        <ele>108</ele>
        <time>2010-05-15T14:01:47Z</time>
      </trkpt>
      <trkpt lat="48.57828" lon="1.98836">
        <ele>108</ele>
        <time>2010-05-15T14:01:48Z</time>
      </trkpt>
      <trkpt lat="48.57828" lon="1.98839">
        <ele>108</ele>
        <time>2010-05-15T14:01:49Z</time>
      </trkpt>
      <trkpt lat="48.57829" lon="1.98841">
        <ele>108</ele>
        <time>2010-05-15T14:01:50Z</time>
      </trkpt>
      <trkpt lat="48.57829" lon="1.98843">
        <ele>108</ele>
        <time>2010-05-15T14:01:51Z</time>
      </trkpt>
      <trkpt lat="48.57829" lon="1.98846">
        <ele>108</ele>
        <time>2010-05-15T14:01:52Z</time>
      </trkpt>
      <trkpt lat="48.57829" lon="1.98848">
        <ele>108</ele>
        <time>2010-05-15T14:01:53Z</time>
      </trkpt>
      <trkpt lat="48.5783" lon="1.98851">
        <ele>108</ele>
        <time>2010-05-15T14:01:54Z</time>
      </trkpt>
      <trkpt lat="48.5783" lon="1.98854">
        <ele>108</ele>
        <time>2010-05-15T14:01:55Z</time>
      </trkpt>
      <trkpt lat="48.5783" lon="1.98857">
        <ele>108</ele>
        <time>2010-05-15T14:01:56Z</time>
      </trkpt>
      <trkpt lat="48.5783" lon="1.98859">
        <ele>108</ele>
        <time>2010-05-15T14:01:57Z</time>
      </trkpt>
      <trkpt lat="48.5783" lon="1.98862">
        <ele>108</ele>
        <time>2010-05-15T14:01:58Z</time>
      </trkpt>
      <trkpt lat="48.5783" lon="1.98864">
        <ele>108</ele>
        <time>2010-05-15T14:01:59Z</time>
      </trkpt>
      <trkpt lat="48.57831" lon="1.98866">
        <ele>108</ele>
        <time>2010-05-15T14:02:00Z</time>
      </trkpt>
      <trkpt lat="48.57831" lon="1.98869">
        <ele>108</ele>
        <time>2010-05-15T14:02:01Z</time>
      </trkpt>
      <trkpt lat="48.57831" lon="1.98871">
        <ele>108</ele>
        <time>2010-05-15T14:02:02Z</time>
      </trkpt>
      <trkpt lat="48.57832" lon="1.98874">
        <ele>108</ele>
        <time>2010-05-15T14:02:03Z</time>
      </trkpt>
      <trkpt lat="48.57832" lon="1.98876">
        <ele>108</ele>
        <time>2010-05-15T14:02:04Z</time>
      </trkpt>
      <trkpt lat="48.57832" lon="1.98879">
        <ele>108</ele>
        <time>2010-05-15T14:02:05Z</time>
      </trkpt>
      <trkpt lat="48.57833" lon="1.98881">
        <ele>108</ele>
        <time>2010-05-15T14:02:06Z</time>
      </trkpt>
      <trkpt lat="48.57833" lon="1.98884">
        <ele>108</ele>
        <time>2010-05-15T14:02:07Z</time>
      </trkpt>
      <trkpt lat="48.57833" lon="1.98887">
        <ele>108</ele>
        <time>2010-05-15T14:02:08Z</time>
      </trkpt>
      <trkpt lat="48.57834" lon="1.98889">
        <ele>108</ele>
        <time>2010-05-15T14:02:09Z</time>
      </trkpt>
      <trkpt lat="48.57834" lon="1.98892">
        <ele>108</ele>
        <time>2010-05-15T14:02:10Z</time>
      </trkpt>
      <trkpt lat="48.57834" lon="1.98894">
        <ele>108</ele>
        <time>2010-05-15T14:02:11Z</time>
      </trkpt>
      <trkpt lat="48.57834" lon="1.98896">
        <ele>108</ele>
        <time>2010-05-15T14:02:12Z</time>
      </trkpt>
      <trkpt lat="48.57834" lon="1.98899">
        <ele>108</ele>
        <time>2010-05-15T14:02:13Z</time>
      </trkpt>
      <trkpt lat="48.57834" lon="1.98901">
        <ele>108</ele>
        <time>2010-05-15T14:02:14Z</time>
      </trkpt>
      <trkpt lat="48.57834" lon="1.98904">
        <ele>108</ele>
        <time>2010-05-15T14:02:15Z</time>
      </trkpt>
      <trkpt lat="48.57834" lon="1.98906">
        <ele>108</ele>
        <time>2010-05-15T14:02:16Z</time>
      </trkpt>
      <trkpt lat="48.57834" lon="1.98908">
        <ele>108</ele>
        <time>2010-05-15T14:02:17Z</time>
      </trkpt>
      <trkpt lat="48.57834" lon="1.98911">
        <ele>108</ele>
        <time>2010-05-15T14:02:18Z</time>
      </trkpt>
      <trkpt lat="48.57834" lon="1.98913">
        <ele>108</ele>
        <time>2010-05-15T14:02:19Z</time>
      </trkpt>
      <trkpt lat="48.57834" lon="1.98915">
        <ele>108</ele>
        <time>2010-05-15T14:02:20Z</time>
      </trkpt>
      <trkpt lat="48.57834" lon="1.98917">
        <ele>108</ele>
        <time>2010-05-15T14:02:21Z</time>
      </trkpt>
      <trkpt lat="48.57834" lon="1.9892">
        <ele>108</ele>
        <time>2010-05-15T14:02:22Z</time>
      </trkpt>
      <trkpt lat="48.57834" lon="1.98922">
        <ele>108</ele>
        <time>2010-05-15T14:02:23Z</time>
      </trkpt>
      <trkpt lat="48.57833" lon="1.98925">
        <ele>107</ele>
        <time>2010-05-15T14:02:24Z</time>
      </trkpt>
      <trkpt lat="48.57833" lon="1.98927">
        <ele>107</ele>
        <time>2010-05-15T14:02:25Z</time>
      </trkpt>
      <trkpt lat="48.57833" lon="1.98929">
        <ele>107</ele>
        <time>2010-05-15T14:02:26Z</time>
      </trkpt>
      <trkpt lat="48.57833" lon="1.98931">
        <ele>107</ele>
        <time>2010-05-15T14:02:27Z</time>
      </trkpt>
      <trkpt lat="48.57832" lon="1.98933">
        <ele>107</ele>
        <time>2010-05-15T14:02:28Z</time>
      </trkpt>
      <trkpt lat="48.57832" lon="1.98935">
        <ele>107</ele>
        <time>2010-05-15T14:02:29Z</time>
      </trkpt>
      <trkpt lat="48.57831" lon="1.98937">
        <ele>107</ele>
        <time>2010-05-15T14:02:30Z</time>
      </trkpt>
      <trkpt lat="48.5783" lon="1.98939">
        <ele>107</ele>
        <time>2010-05-15T14:02:31Z</time>
      </trkpt>
      <trkpt lat="48.57828" lon="1.98942">
        <ele>107</ele>
        <time>2010-05-15T14:02:33Z</time>
      </trkpt>
      <trkpt lat="48.57827" lon="1.98943">
        <ele>107</ele>
        <time>2010-05-15T14:02:34Z</time>
      </trkpt>
      <trkpt lat="48.57826" lon="1.98944">
        <ele>107</ele>
        <time>2010-05-15T14:02:35Z</time>
      </trkpt>
      <trkpt lat="48.57824" lon="1.98945">
        <ele>107</ele>
        <time>2010-05-15T14:02:36Z</time>
      </trkpt>
      <trkpt lat="48.57823" lon="1.98945">
        <ele>107</ele>
        <time>2010-05-15T14:02:37Z</time>
      </trkpt>
      <trkpt lat="48.57822" lon="1.98945">
        <ele>107</ele>
        <time>2010-05-15T14:02:38Z</time>
      </trkpt>
      <trkpt lat="48.5782" lon="1.98945">
        <ele>107</ele>
        <time>2010-05-15T14:02:39Z</time>
      </trkpt>
      <trkpt lat="48.57819" lon="1.98944">
        <ele>107</ele>
        <time>2010-05-15T14:02:40Z</time>
      </trkpt>
      <trkpt lat="48.57817" lon="1.98944">
        <ele>107</ele>
        <time>2010-05-15T14:02:41Z</time>
      </trkpt>
      <trkpt lat="48.57816" lon="1.98944">
        <ele>107</ele>
        <time>2010-05-15T14:02:42Z</time>
      </trkpt>
      <trkpt lat="48.57815" lon="1.98943">
        <ele>107</ele>
        <time>2010-05-15T14:02:43Z</time>
      </trkpt>
      <trkpt lat="48.57813" lon="1.98942">
        <ele>107</ele>
        <time>2010-05-15T14:02:44Z</time>
      </trkpt>
      <trkpt lat="48.57812" lon="1.98941">
        <ele>107</ele>
        <time>2010-05-15T14:02:45Z</time>
      </trkpt>
      <trkpt lat="48.5781" lon="1.9894">
        <ele>107</ele>
        <time>2010-05-15T14:02:46Z</time>
      </trkpt>
      <trkpt lat="48.57809" lon="1.98939">
        <ele>107</ele>
        <time>2010-05-15T14:02:47Z</time>
      </trkpt>
      <trkpt lat="48.57807" lon="1.98938">
        <ele>107</ele>
        <time>2010-05-15T14:02:48Z</time>
      </trkpt>
      <trkpt lat="48.57806" lon="1.98937">
        <ele>107</ele>
        <time>2010-05-15T14:02:49Z</time>
      </trkpt>
      <trkpt lat="48.57804" lon="1.98936">
        <ele>107</ele>
        <time>2010-05-15T14:02:50Z</time>
      </trkpt>
      <trkpt lat="48.57803" lon="1.98934">
        <ele>106</ele>
        <time>2010-05-15T14:02:51Z</time>
      </trkpt>
      <trkpt lat="48.57801" lon="1.98933">
        <ele>106</ele>
        <time>2010-05-15T14:02:52Z</time>
      </trkpt>
      <trkpt lat="48.578" lon="1.98932">
        <ele>106</ele>
        <time>2010-05-15T14:02:53Z</time>
      </trkpt>
      <trkpt lat="48.57798" lon="1.98931">
        <ele>106</ele>
        <time>2010-05-15T14:02:54Z</time>
      </trkpt>
      <trkpt lat="48.57797" lon="1.98931">
        <ele>106</ele>
        <time>2010-05-15T14:02:55Z</time>
      </trkpt>
      <trkpt lat="48.57795" lon="1.9893">
        <ele>106</ele>
        <time>2010-05-15T14:02:56Z</time>
      </trkpt>
      <trkpt lat="48.57794" lon="1.98929">
        <ele>106</ele>
        <time>2010-05-15T14:02:57Z</time>
      </trkpt>
      <trkpt lat="48.57792" lon="1.98928">
        <ele>105</ele>
        <time>2010-05-15T14:02:58Z</time>
      </trkpt>
      <trkpt lat="48.57791" lon="1.98927">
        <ele>105</ele>
        <time>2010-05-15T14:02:59Z</time>
      </trkpt>
      <trkpt lat="48.57789" lon="1.98926">
        <ele>105</ele>
        <time>2010-05-15T14:03:00Z</time>
      </trkpt>
      <trkpt lat="48.57788" lon="1.98926">
        <ele>105</ele>
        <time>2010-05-15T14:03:01Z</time>
      </trkpt>
      <trkpt lat="48.57786" lon="1.98925">
        <ele>105</ele>
        <time>2010-05-15T14:03:02Z</time>
      </trkpt>
      <trkpt lat="48.57785" lon="1.98924">
        <ele>105</ele>
        <time>2010-05-15T14:03:03Z</time>
      </trkpt>
      <trkpt lat="48.57783" lon="1.98923">
        <ele>105</ele>
        <time>2010-05-15T14:03:04Z</time>
      </trkpt>
      <trkpt lat="48.57782" lon="1.98922">
        <ele>105</ele>
        <time>2010-05-15T14:03:05Z</time>
      </trkpt>
      <trkpt lat="48.5778" lon="1.98921">
        <ele>105</ele>
        <time>2010-05-15T14:03:06Z</time>
      </trkpt>
      <trkpt lat="48.57779" lon="1.9892">
        <ele>104</ele>
        <time>2010-05-15T14:03:07Z</time>
      </trkpt>
      <trkpt lat="48.57777" lon="1.98919">
        <ele>104</ele>
        <time>2010-05-15T14:03:08Z</time>
      </trkpt>
      <trkpt lat="48.57776" lon="1.98918">
        <ele>104</ele>
        <time>2010-05-15T14:03:09Z</time>
      </trkpt>
      <trkpt lat="48.57775" lon="1.98918">
        <ele>104</ele>
        <time>2010-05-15T14:03:10Z</time>
      </trkpt>
      <trkpt lat="48.57773" lon="1.98917">
        <ele>104</ele>
        <time>2010-05-15T14:03:11Z</time>
      </trkpt>
      <trkpt lat="48.57772" lon="1.98916">
        <ele>104</ele>
        <time>2010-05-15T14:03:12Z</time>
      </trkpt>
      <trkpt lat="48.57771" lon="1.98915">
        <ele>104</ele>
        <time>2010-05-15T14:03:13Z</time>
      </trkpt>
      <trkpt lat="48.57769" lon="1.98914">
        <ele>104</ele>
        <time>2010-05-15T14:03:14Z</time>
      </trkpt>
      <trkpt lat="48.57768" lon="1.98913">
        <ele>104</ele>
        <time>2010-05-15T14:03:15Z</time>
      </trkpt>
      <trkpt lat="48.57767" lon="1.98912">
        <ele>104</ele>
        <time>2010-05-15T14:03:16Z</time>
      </trkpt>
      <trkpt lat="48.57765" lon="1.98912">
        <ele>104</ele>
        <time>2010-05-15T14:03:17Z</time>
      </trkpt>
      <trkpt lat="48.57763" lon="1.98911">
        <ele>103</ele>
        <time>2010-05-15T14:03:18Z</time>
      </trkpt>
      <trkpt lat="48.57762" lon="1.9891">
        <ele>103</ele>
        <time>2010-05-15T14:03:19Z</time>
      </trkpt>
      <trkpt lat="48.5776" lon="1.98909">
        <ele>103</ele>
        <time>2010-05-15T14:03:20Z</time>
      </trkpt>
      <trkpt lat="48.57759" lon="1.98908">
        <ele>102</ele>
        <time>2010-05-15T14:03:21Z</time>
      </trkpt>
      <trkpt lat="48.57757" lon="1.98907">
        <ele>102</ele>
        <time>2010-05-15T14:03:22Z</time>
      </trkpt>
      <trkpt lat="48.57756" lon="1.98906">
        <ele>101</ele>
        <time>2010-05-15T14:03:23Z</time>
      </trkpt>
      <trkpt lat="48.57754" lon="1.98905">
        <ele>101</ele>
        <time>2010-05-15T14:03:24Z</time>
      </trkpt>
      <trkpt lat="48.57753" lon="1.98905">
        <ele>100</ele>
        <time>2010-05-15T14:03:25Z</time>
      </trkpt>
      <trkpt lat="48.57752" lon="1.98904">
        <ele>100</ele>
        <time>2010-05-15T14:03:26Z</time>
      </trkpt>
      <trkpt lat="48.5775" lon="1.98903">
        <ele>100</ele>
        <time>2010-05-15T14:03:27Z</time>
      </trkpt>
      <trkpt lat="48.57748" lon="1.98901">
        <ele>99</ele>
        <time>2010-05-15T14:03:29Z</time>
      </trkpt>
      <trkpt lat="48.57747" lon="1.989">
        <ele>99</ele>
        <time>2010-05-15T14:03:30Z</time>
      </trkpt>
      <trkpt lat="48.57745" lon="1.98899">
        <ele>99</ele>
        <time>2010-05-15T14:03:31Z</time>
      </trkpt>
      <trkpt lat="48.57744" lon="1.98898">
        <ele>99</ele>
        <time>2010-05-15T14:03:32Z</time>
      </trkpt>
      <trkpt lat="48.57742" lon="1.98897">
        <ele>99</ele>
        <time>2010-05-15T14:03:33Z</time>
      </trkpt>
      <trkpt lat="48.57741" lon="1.98896">
        <ele>98</ele>
        <time>2010-05-15T14:03:34Z</time>
      </trkpt>
      <trkpt lat="48.5774" lon="1.98895">
        <ele>98</ele>
        <time>2010-05-15T14:03:35Z</time>
      </trkpt>
      <trkpt lat="48.57739" lon="1.98894">
        <ele>98</ele>
        <time>2010-05-15T14:03:36Z</time>
      </trkpt>
      <trkpt lat="48.57737" lon="1.98893">
        <ele>98</ele>
        <time>2010-05-15T14:03:37Z</time>
      </trkpt>
      <trkpt lat="48.57736" lon="1.98892">
        <ele>98</ele>
        <time>2010-05-15T14:03:38Z</time>
      </trkpt>
      <trkpt lat="48.57734" lon="1.9889">
        <ele>98</ele>
        <time>2010-05-15T14:03:40Z</time>
      </trkpt>
      <trkpt lat="48.57733" lon="1.98889">
        <ele>98</ele>
        <time>2010-05-15T14:03:41Z</time>
      </trkpt>
      <trkpt lat="48.57731" lon="1.98888">
        <ele>98</ele>
        <time>2010-05-15T14:03:42Z</time>
      </trkpt>
      <trkpt lat="48.5773" lon="1.98887">
        <ele>98</ele>
        <time>2010-05-15T14:03:43Z</time>
      </trkpt>
      <trkpt lat="48.57729" lon="1.98886">
        <ele>98</ele>
        <time>2010-05-15T14:03:44Z</time>
      </trkpt>
      <trkpt lat="48.57728" lon="1.98885">
        <ele>98</ele>
        <time>2010-05-15T14:03:45Z</time>
      </trkpt>
      <trkpt lat="48.57726" lon="1.98885">
        <ele>98</ele>
        <time>2010-05-15T14:03:46Z</time>
      </trkpt>
      <trkpt lat="48.57725" lon="1.98884">
        <ele>98</ele>
        <time>2010-05-15T14:03:47Z</time>
      </trkpt>
      <trkpt lat="48.57724" lon="1.98884">
        <ele>98</ele>
        <time>2010-05-15T14:03:48Z</time>
      </trkpt>
      <trkpt lat="48.57723" lon="1.98883">
        <ele>98</ele>
        <time>2010-05-15T14:03:49Z</time>
      </trkpt>
      <trkpt lat="48.57721" lon="1.98883">
        <ele>98</ele>
        <time>2010-05-15T14:03:50Z</time>
      </trkpt>
      <trkpt lat="48.5772" lon="1.98882">
        <ele>98</ele>
        <time>2010-05-15T14:03:51Z</time>
      </trkpt>
      <trkpt lat="48.57718" lon="1.98882">
        <ele>98</ele>
        <time>2010-05-15T14:03:52Z</time>
      </trkpt>
      <trkpt lat="48.57717" lon="1.98882">
        <ele>98</ele>
        <time>2010-05-15T14:03:53Z</time>
      </trkpt>
      <trkpt lat="48.57715" lon="1.98882">
        <ele>98</ele>
        <time>2010-05-15T14:03:54Z</time>
      </trkpt>
      <trkpt lat="48.57713" lon="1.98881">
        <ele>98</ele>
        <time>2010-05-15T14:03:55Z</time>
      </trkpt>
      <trkpt lat="48.57712" lon="1.98881">
        <ele>98</ele>
        <time>2010-05-15T14:03:56Z</time>
      </trkpt>
      <trkpt lat="48.5771" lon="1.98881">
        <ele>98</ele>
        <time>2010-05-15T14:03:57Z</time>
      </trkpt>
      <trkpt lat="48.57709" lon="1.98881">
        <ele>98</ele>
        <time>2010-05-15T14:03:58Z</time>
      </trkpt>
      <trkpt lat="48.57707" lon="1.98881">
        <ele>98</ele>
        <time>2010-05-15T14:03:59Z</time>
      </trkpt>
      <trkpt lat="48.57705" lon="1.98881">
        <ele>98</ele>
        <time>2010-05-15T14:04:00Z</time>
      </trkpt>
      <trkpt lat="48.57704" lon="1.98881">
        <ele>98</ele>
        <time>2010-05-15T14:04:01Z</time>
      </trkpt>
      <trkpt lat="48.57702" lon="1.98881">
        <ele>98</ele>
        <time>2010-05-15T14:04:02Z</time>
      </trkpt>
      <trkpt lat="48.57701" lon="1.98882">
        <ele>98</ele>
        <time>2010-05-15T14:04:03Z</time>
      </trkpt>
      <trkpt lat="48.57699" lon="1.98882">
        <ele>98</ele>
        <time>2010-05-15T14:04:04Z</time>
      </trkpt>
      <trkpt lat="48.57698" lon="1.98882">
        <ele>98</ele>
        <time>2010-05-15T14:04:05Z</time>
      </trkpt>
      <trkpt lat="48.57696" lon="1.98883">
        <ele>98</ele>
        <time>2010-05-15T14:04:06Z</time>
      </trkpt>
      <trkpt lat="48.57694" lon="1.98883">
        <ele>98</ele>
        <time>2010-05-15T14:04:07Z</time>
      </trkpt>
      <trkpt lat="48.57693" lon="1.98883">
        <ele>98</ele>
        <time>2010-05-15T14:04:08Z</time>
      </trkpt>
      <trkpt lat="48.57691" lon="1.98884">
        <ele>98</ele>
        <time>2010-05-15T14:04:09Z</time>
      </trkpt>
      <trkpt lat="48.5769" lon="1.98884">
        <ele>98</ele>
        <time>2010-05-15T14:04:10Z</time>
      </trkpt>
      <trkpt lat="48.57688" lon="1.98885">
        <ele>98</ele>
        <time>2010-05-15T14:04:11Z</time>
      </trkpt>
      <trkpt lat="48.57687" lon="1.98885">
        <ele>98</ele>
        <time>2010-05-15T14:04:12Z</time>
      </trkpt>
      <trkpt lat="48.57685" lon="1.98885">
        <ele>98</ele>
        <time>2010-05-15T14:04:13Z</time>
      </trkpt>
      <trkpt lat="48.57684" lon="1.98885">
        <ele>98</ele>
        <time>2010-05-15T14:04:14Z</time>
      </trkpt>
      <trkpt lat="48.57682" lon="1.98885">
        <ele>98</ele>
        <time>2010-05-15T14:04:15Z</time>
      </trkpt>
      <trkpt lat="48.57681" lon="1.98886">
        <ele>98</ele>
        <time>2010-05-15T14:04:16Z</time>
      </trkpt>
      <trkpt lat="48.57679" lon="1.98886">
        <ele>98</ele>
        <time>2010-05-15T14:04:17Z</time>
      </trkpt>
      <trkpt lat="48.57678" lon="1.98887">
        <ele>98</ele>
        <time>2010-05-15T14:04:18Z</time>
      </trkpt>
      <trkpt lat="48.57677" lon="1.98887">
        <ele>98</ele>
        <time>2010-05-15T14:04:19Z</time>
      </trkpt>
      <trkpt lat="48.57676" lon="1.98888">
        <ele>98</ele>
        <time>2010-05-15T14:04:20Z</time>
      </trkpt>
      <trkpt lat="48.57674" lon="1.98888">
        <ele>98</ele>
        <time>2010-05-15T14:04:21Z</time>
      </trkpt>
      <trkpt lat="48.57673" lon="1.98888">
        <ele>98</ele>
        <time>2010-05-15T14:04:22Z</time>
      </trkpt>
      <trkpt lat="48.57672" lon="1.98889">
        <ele>98</ele>
        <time>2010-05-15T14:04:23Z</time>
      </trkpt>
      <trkpt lat="48.5767" lon="1.98889">
        <ele>98</ele>
        <time>2010-05-15T14:04:24Z</time>
      </trkpt>
      <trkpt lat="48.57669" lon="1.9889">
        <ele>98</ele>
        <time>2010-05-15T14:04:25Z</time>
      </trkpt>
      <trkpt lat="48.57667" lon="1.9889">
        <ele>98</ele>
        <time>2010-05-15T14:04:26Z</time>
      </trkpt>
      <trkpt lat="48.57666" lon="1.98891">
        <ele>98</ele>
        <time>2010-05-15T14:04:27Z</time>
      </trkpt>
      <trkpt lat="48.57665" lon="1.98891">
        <ele>98</ele>
        <time>2010-05-15T14:04:28Z</time>
      </trkpt>
      <trkpt lat="48.57663" lon="1.98891">
        <ele>98</ele>
        <time>2010-05-15T14:04:29Z</time>
      </trkpt>
      <trkpt lat="48.57662" lon="1.98891">
        <ele>98</ele>
        <time>2010-05-15T14:04:30Z</time>
      </trkpt>
      <trkpt lat="48.57661" lon="1.9889">
        <ele>98</ele>
        <time>2010-05-15T14:04:31Z</time>
      </trkpt>
      <trkpt lat="48.57659" lon="1.9889">
        <ele>98</ele>
        <time>2010-05-15T14:04:32Z</time>
      </trkpt>
      <trkpt lat="48.57657" lon="1.9889">
        <ele>98</ele>
        <time>2010-05-15T14:04:33Z</time>
      </trkpt>
      <trkpt lat="48.57655" lon="1.9889">
        <ele>98</ele>
        <time>2010-05-15T14:04:34Z</time>
      </trkpt>
      <trkpt lat="48.57653" lon="1.98889">
        <ele>98</ele>
        <time>2010-05-15T14:04:35Z</time>
      </trkpt>
      <trkpt lat="48.57652" lon="1.9889">
        <ele>98</ele>
        <time>2010-05-15T14:04:36Z</time>
      </trkpt>
      <trkpt lat="48.5765" lon="1.9889">
        <ele>98</ele>
        <time>2010-05-15T14:04:37Z</time>
      </trkpt>
      <trkpt lat="48.57649" lon="1.9889">
        <ele>98</ele>
        <time>2010-05-15T14:04:38Z</time>
      </trkpt>
      <trkpt lat="48.57648" lon="1.9889">
        <ele>98</ele>
        <time>2010-05-15T14:04:39Z</time>
      </trkpt>
      <trkpt lat="48.57646" lon="1.98889">
        <ele>98</ele>
        <time>2010-05-15T14:04:41Z</time>
      </trkpt>
      <trkpt lat="48.57647" lon="1.9889">
        <ele>98</ele>
        <time>2010-05-15T14:04:47Z</time>
      </trkpt>
      <trkpt lat="48.57646" lon="1.98889">
        <ele>98</ele>
        <time>2010-05-15T14:04:50Z</time>
      </trkpt>
      <trkpt lat="48.57645" lon="1.98889">
        <ele>96</ele>
        <time>2010-05-15T14:04:54Z</time>
      </trkpt>
      <trkpt lat="48.57643" lon="1.9889">
        <ele>96</ele>
        <time>2010-05-15T14:05:01Z</time>
      </trkpt>
      <trkpt lat="48.57642" lon="1.98888">
        <ele>96</ele>
        <time>2010-05-15T14:05:03Z</time>
      </trkpt>
      <trkpt lat="48.57642" lon="1.98886">
        <ele>96</ele>
        <time>2010-05-15T14:05:04Z</time>
      </trkpt>
      <trkpt lat="48.57643" lon="1.98884">
        <ele>96</ele>
        <time>2010-05-15T14:05:06Z</time>
      </trkpt>
      <trkpt lat="48.57644" lon="1.98884">
        <ele>96</ele>
        <time>2010-05-15T14:05:13Z</time>
      </trkpt>
      <trkpt lat="48.57646" lon="1.98882">
        <ele>96</ele>
        <time>2010-05-15T14:05:15Z</time>
      </trkpt>
      <trkpt lat="48.57646" lon="1.98879">
        <ele>96</ele>
        <time>2010-05-15T14:05:16Z</time>
      </trkpt>
      <trkpt lat="48.57647" lon="1.98877">
        <ele>96</ele>
        <time>2010-05-15T14:05:17Z</time>
      </trkpt>
      <trkpt lat="48.57648" lon="1.98875">
        <ele>96</ele>
        <time>2010-05-15T14:05:19Z</time>
      </trkpt>
      <trkpt lat="48.5765" lon="1.98872">
        <ele>96</ele>
        <time>2010-05-15T14:05:21Z</time>
      </trkpt>
      <trkpt lat="48.57651" lon="1.98869">
        <ele>96</ele>
        <time>2010-05-15T14:05:23Z</time>
      </trkpt>
      <trkpt lat="48.57652" lon="1.98867">
        <ele>96</ele>
        <time>2010-05-15T14:05:26Z</time>
      </trkpt>
      <trkpt lat="48.57652" lon="1.98866">
        <ele>96</ele>
        <time>2010-05-15T14:05:28Z</time>
      </trkpt>
      <trkpt lat="48.57652" lon="1.98864">
        <ele>96</ele>
        <time>2010-05-15T14:05:31Z</time>
      </trkpt>
      <trkpt lat="48.57652" lon="1.98862">
        <ele>96</ele>
        <time>2010-05-15T14:05:34Z</time>
      </trkpt>
      <trkpt lat="48.57651" lon="1.9886">
        <ele>96</ele>
        <time>2010-05-15T14:05:38Z</time>
      </trkpt>
      <trkpt lat="48.5765" lon="1.98858">
        <ele>95</ele>
        <time>2010-05-15T14:06:00Z</time>
      </trkpt>
      <trkpt lat="48.57648" lon="1.98856">
        <ele>95</ele>
        <time>2010-05-15T14:06:02Z</time>
      </trkpt>
      <trkpt lat="48.57647" lon="1.98854">
        <ele>95</ele>
        <time>2010-05-15T14:06:16Z</time>
      </trkpt>
      <trkpt lat="48.57646" lon="1.98856">
        <ele>95</ele>
        <time>2010-05-15T14:06:22Z</time>
      </trkpt>
      <trkpt lat="48.57647" lon="1.98859">
        <ele>95</ele>
        <time>2010-05-15T14:06:24Z</time>
      </trkpt>
      <trkpt lat="48.57646" lon="1.9886">
        <ele>95</ele>
        <time>2010-05-15T14:06:25Z</time>
      </trkpt>
      <trkpt lat="48.57646" lon="1.98862">
        <ele>95</ele>
        <time>2010-05-15T14:06:26Z</time>
      </trkpt>
      <trkpt lat="48.57646" lon="1.98864">
        <ele>95</ele>
        <time>2010-05-15T14:06:27Z</time>
      </trkpt>
      <trkpt lat="48.57647" lon="1.98866">
        <ele>95</ele>
        <time>2010-05-15T14:06:29Z</time>
      </trkpt>
      <trkpt lat="48.57647" lon="1.98869">
        <ele>95</ele>
        <time>2010-05-15T14:06:31Z</time>
      </trkpt>
      <trkpt lat="48.57647" lon="1.98872">
        <ele>95</ele>
        <time>2010-05-15T14:06:33Z</time>
      </trkpt>
      <trkpt lat="48.57646" lon="1.98874">
        <ele>95</ele>
        <time>2010-05-15T14:06:35Z</time>
      </trkpt>
      <trkpt lat="48.57645" lon="1.98876">
        <ele>95</ele>
        <time>2010-05-15T14:06:37Z</time>
      </trkpt>
      <trkpt lat="48.57644" lon="1.98878">
        <ele>95</ele>
        <time>2010-05-15T14:06:40Z</time>
      </trkpt>
      <trkpt lat="48.57644" lon="1.98881">
        <ele>95</ele>
        <time>2010-05-15T14:06:42Z</time>
      </trkpt>
      <trkpt lat="48.57644" lon="1.98883">
        <ele>95</ele>
        <time>2010-05-15T14:06:44Z</time>
      </trkpt>
      <trkpt lat="48.57642" lon="1.98884">
        <ele>95</ele>
        <time>2010-05-15T14:06:47Z</time>
      </trkpt>
      <trkpt lat="48.57641" lon="1.98886">
        <ele>95</ele>
        <time>2010-05-15T14:06:48Z</time>
      </trkpt>
      <trkpt lat="48.57642" lon="1.98889">
        <ele>95</ele>
        <time>2010-05-15T14:06:50Z</time>
      </trkpt>
      <trkpt lat="48.57643" lon="1.98891">
        <ele>95</ele>
        <time>2010-05-15T14:06:52Z</time>
      </trkpt>
      <trkpt lat="48.57645" lon="1.98893">
        <ele>95</ele>
        <time>2010-05-15T14:06:54Z</time>
      </trkpt>
      <trkpt lat="48.57646" lon="1.98894">
        <ele>96</ele>
        <time>2010-05-15T14:06:55Z</time>
      </trkpt>
      <trkpt lat="48.57648" lon="1.98895">
        <ele>96</ele>
        <time>2010-05-15T14:06:56Z</time>
      </trkpt>
      <trkpt lat="48.57651" lon="1.98897">
        <ele>98</ele>
        <time>2010-05-15T14:06:58Z</time>
      </trkpt>
      <trkpt lat="48.57653" lon="1.98898">
        <ele>98</ele>
        <time>2010-05-15T14:06:59Z</time>
      </trkpt>
      <trkpt lat="48.57656" lon="1.98899">
        <ele>99</ele>
        <time>2010-05-15T14:07:01Z</time>
      </trkpt>
      <trkpt lat="48.57658" lon="1.989">
        <ele>99</ele>
        <time>2010-05-15T14:07:02Z</time>
      </trkpt>
      <trkpt lat="48.57659" lon="1.989">
        <ele>99</ele>
        <time>2010-05-15T14:07:03Z</time>
      </trkpt>
      <trkpt lat="48.57661" lon="1.98901">
        <ele>99</ele>
        <time>2010-05-15T14:07:04Z</time>
      </trkpt>
      <trkpt lat="48.57662" lon="1.98901">
        <ele>99</ele>
        <time>2010-05-15T14:07:05Z</time>
      </trkpt>
      <trkpt lat="48.57663" lon="1.98902">
        <ele>100</ele>
        <time>2010-05-15T14:07:06Z</time>
      </trkpt>
      <trkpt lat="48.57665" lon="1.98902">
        <ele>100</ele>
        <time>2010-05-15T14:07:07Z</time>
      </trkpt>
      <trkpt lat="48.57666" lon="1.98901">
        <ele>100</ele>
        <time>2010-05-15T14:07:08Z</time>
      </trkpt>
      <trkpt lat="48.57668" lon="1.98902">
        <ele>101</ele>
        <time>2010-05-15T14:07:09Z</time>
      </trkpt>
      <trkpt lat="48.57669" lon="1.98902">
        <ele>101</ele>
        <time>2010-05-15T14:07:10Z</time>
      </trkpt>
      <trkpt lat="48.57672" lon="1.98903">
        <ele>102</ele>
        <time>2010-05-15T14:07:12Z</time>
      </trkpt>
      <trkpt lat="48.57673" lon="1.98903">
        <ele>102</ele>
        <time>2010-05-15T14:07:13Z</time>
      </trkpt>
      <trkpt lat="48.57676" lon="1.98903">
        <ele>104</ele>
        <time>2010-05-15T14:07:15Z</time>
      </trkpt>
      <trkpt lat="48.57677" lon="1.98904">
        <ele>104</ele>
        <time>2010-05-15T14:07:16Z</time>
      </trkpt>
      <trkpt lat="48.57679" lon="1.98904">
        <ele>104</ele>
        <time>2010-05-15T14:07:17Z</time>
      </trkpt>
      <trkpt lat="48.5768" lon="1.98904">
        <ele>105</ele>
        <time>2010-05-15T14:07:18Z</time>
      </trkpt>
      <trkpt lat="48.57682" lon="1.98905">
        <ele>105</ele>
        <time>2010-05-15T14:07:19Z</time>
      </trkpt>
      <trkpt lat="48.57683" lon="1.98904">
        <ele>105</ele>
        <time>2010-05-15T14:07:20Z</time>
      </trkpt>
      <trkpt lat="48.57685" lon="1.98904">
        <ele>105</ele>
        <time>2010-05-15T14:07:21Z</time>
      </trkpt>
      <trkpt lat="48.57687" lon="1.98904">
        <ele>105</ele>
        <time>2010-05-15T14:07:22Z</time>
      </trkpt>
      <trkpt lat="48.57688" lon="1.98904">
        <ele>105</ele>
        <time>2010-05-15T14:07:23Z</time>
      </trkpt>
      <trkpt lat="48.5769" lon="1.98903">
        <ele>105</ele>
        <time>2010-05-15T14:07:24Z</time>
      </trkpt>
      <trkpt lat="48.57692" lon="1.98903">
        <ele>105</ele>
        <time>2010-05-15T14:07:25Z</time>
      </trkpt>
      <trkpt lat="48.57693" lon="1.98902">
        <ele>105</ele>
        <time>2010-05-15T14:07:26Z</time>
      </trkpt>
      <trkpt lat="48.57695" lon="1.98902">
        <ele>105</ele>
        <time>2010-05-15T14:07:27Z</time>
      </trkpt>
      <trkpt lat="48.57697" lon="1.98901">
        <ele>105</ele>
        <time>2010-05-15T14:07:28Z</time>
      </trkpt>
      <trkpt lat="48.57699" lon="1.98901">
        <ele>105</ele>
        <time>2010-05-15T14:07:29Z</time>
      </trkpt>
      <trkpt lat="48.577" lon="1.98899">
        <ele>105</ele>
        <time>2010-05-15T14:07:30Z</time>
      </trkpt>
      <trkpt lat="48.57702" lon="1.98899">
        <ele>105</ele>
        <time>2010-05-15T14:07:31Z</time>
      </trkpt>
      <trkpt lat="48.57704" lon="1.98899">
        <ele>105</ele>
        <time>2010-05-15T14:07:32Z</time>
      </trkpt>
      <trkpt lat="48.57705" lon="1.98899">
        <ele>105</ele>
        <time>2010-05-15T14:07:33Z</time>
      </trkpt>
      <trkpt lat="48.57707" lon="1.98899">
        <ele>105</ele>
        <time>2010-05-15T14:07:34Z</time>
      </trkpt>
      <trkpt lat="48.57708" lon="1.98899">
        <ele>105</ele>
        <time>2010-05-15T14:07:35Z</time>
      </trkpt>
      <trkpt lat="48.5771" lon="1.98899">
        <ele>105</ele>
        <time>2010-05-15T14:07:36Z</time>
      </trkpt>
      <trkpt lat="48.57712" lon="1.98899">
        <ele>105</ele>
        <time>2010-05-15T14:07:37Z</time>
      </trkpt>
      <trkpt lat="48.57713" lon="1.989">
        <ele>105</ele>
        <time>2010-05-15T14:07:38Z</time>
      </trkpt>
      <trkpt lat="48.57714" lon="1.989">
        <ele>105</ele>
        <time>2010-05-15T14:07:39Z</time>
      </trkpt>
      <trkpt lat="48.57716" lon="1.98901">
        <ele>105</ele>
        <time>2010-05-15T14:07:40Z</time>
      </trkpt>
      <trkpt lat="48.57717" lon="1.98901">
        <ele>105</ele>
        <time>2010-05-15T14:07:41Z</time>
      </trkpt>
      <trkpt lat="48.57718" lon="1.98902">
        <ele>105</ele>
        <time>2010-05-15T14:07:42Z</time>
      </trkpt>
      <trkpt lat="48.57719" lon="1.98902">
        <ele>105</ele>
        <time>2010-05-15T14:07:43Z</time>
      </trkpt>
      <trkpt lat="48.5772" lon="1.98902">
        <ele>105</ele>
        <time>2010-05-15T14:07:44Z</time>
      </trkpt>
      <trkpt lat="48.57722" lon="1.98902">
        <ele>105</ele>
        <time>2010-05-15T14:07:45Z</time>
      </trkpt>
      <trkpt lat="48.57723" lon="1.98903">
        <ele>105</ele>
        <time>2010-05-15T14:07:46Z</time>
      </trkpt>
      <trkpt lat="48.57724" lon="1.98904">
        <ele>105</ele>
        <time>2010-05-15T14:07:47Z</time>
      </trkpt>
      <trkpt lat="48.57725" lon="1.98904">
        <ele>105</ele>
        <time>2010-05-15T14:07:48Z</time>
      </trkpt>
      <trkpt lat="48.57727" lon="1.98905">
        <ele>105</ele>
        <time>2010-05-15T14:07:49Z</time>
      </trkpt>
      <trkpt lat="48.57728" lon="1.98906">
        <ele>105</ele>
        <time>2010-05-15T14:07:50Z</time>
      </trkpt>
      <trkpt lat="48.57729" lon="1.98906">
        <ele>105</ele>
        <time>2010-05-15T14:07:51Z</time>
      </trkpt>
      <trkpt lat="48.57731" lon="1.98907">
        <ele>105</ele>
        <time>2010-05-15T14:07:53Z</time>
      </trkpt>
      <trkpt lat="48.57734" lon="1.98908">
        <ele>105</ele>
        <time>2010-05-15T14:07:55Z</time>
      </trkpt>
      <trkpt lat="48.57736" lon="1.9891">
        <ele>105</ele>
        <time>2010-05-15T14:07:56Z</time>
      </trkpt>
      <trkpt lat="48.57737" lon="1.98912">
        <ele>105</ele>
        <time>2010-05-15T14:07:57Z</time>
      </trkpt>
      <trkpt lat="48.57739" lon="1.98914">
        <ele>105</ele>
        <time>2010-05-15T14:07:58Z</time>
      </trkpt>
      <trkpt lat="48.5774" lon="1.98916">
        <ele>105</ele>
        <time>2010-05-15T14:07:59Z</time>
      </trkpt>
      <trkpt lat="48.57741" lon="1.98917">
        <ele>105</ele>
        <time>2010-05-15T14:08:00Z</time>
      </trkpt>
      <trkpt lat="48.57743" lon="1.98918">
        <ele>105</ele>
        <time>2010-05-15T14:08:01Z</time>
      </trkpt>
      <trkpt lat="48.57745" lon="1.9892">
        <ele>105</ele>
        <time>2010-05-15T14:08:03Z</time>
      </trkpt>
      <trkpt lat="48.57746" lon="1.98922">
        <ele>105</ele>
        <time>2010-05-15T14:08:04Z</time>
      </trkpt>
      <trkpt lat="48.57747" lon="1.98923">
        <ele>105</ele>
        <time>2010-05-15T14:08:05Z</time>
      </trkpt>
      <trkpt lat="48.57749" lon="1.98923">
        <ele>105</ele>
        <time>2010-05-15T14:08:06Z</time>
      </trkpt>
      <trkpt lat="48.5775" lon="1.98924">
        <ele>105</ele>
        <time>2010-05-15T14:08:07Z</time>
      </trkpt>
      <trkpt lat="48.57752" lon="1.98925">
        <ele>105</ele>
        <time>2010-05-15T14:08:08Z</time>
      </trkpt>
      <trkpt lat="48.57753" lon="1.98925">
        <ele>105</ele>
        <time>2010-05-15T14:08:09Z</time>
      </trkpt>
      <trkpt lat="48.57754" lon="1.98926">
        <ele>105</ele>
        <time>2010-05-15T14:08:10Z</time>
      </trkpt>
      <trkpt lat="48.57755" lon="1.98927">
        <ele>105</ele>
        <time>2010-05-15T14:08:11Z</time>
      </trkpt>
      <trkpt lat="48.57757" lon="1.98927">
        <ele>105</ele>
        <time>2010-05-15T14:08:13Z</time>
      </trkpt>
      <trkpt lat="48.57759" lon="1.98929">
        <ele>105</ele>
        <time>2010-05-15T14:08:15Z</time>
      </trkpt>
      <trkpt lat="48.57761" lon="1.9893">
        <ele>105</ele>
        <time>2010-05-15T14:08:16Z</time>
      </trkpt>
      <trkpt lat="48.57762" lon="1.98932">
        <ele>105</ele>
        <time>2010-05-15T14:08:17Z</time>
      </trkpt>
      <trkpt lat="48.57764" lon="1.98934">
        <ele>105</ele>
        <time>2010-05-15T14:08:18Z</time>
      </trkpt>
      <trkpt lat="48.57765" lon="1.98935">
        <ele>105</ele>
        <time>2010-05-15T14:08:19Z</time>
      </trkpt>
      <trkpt lat="48.57766" lon="1.98937">
        <ele>105</ele>
        <time>2010-05-15T14:08:20Z</time>
      </trkpt>
      <trkpt lat="48.57767" lon="1.98938">
        <ele>105</ele>
        <time>2010-05-15T14:08:21Z</time>
      </trkpt>
      <trkpt lat="48.57769" lon="1.9894">
        <ele>105</ele>
        <time>2010-05-15T14:08:22Z</time>
      </trkpt>
      <trkpt lat="48.5777" lon="1.9894">
        <ele>105</ele>
        <time>2010-05-15T14:08:23Z</time>
      </trkpt>
      <trkpt lat="48.57771" lon="1.98941">
        <ele>105</ele>
        <time>2010-05-15T14:08:24Z</time>
      </trkpt>
      <trkpt lat="48.57773" lon="1.98942">
        <ele>105</ele>
        <time>2010-05-15T14:08:25Z</time>
      </trkpt>
      <trkpt lat="48.57774" lon="1.98942">
        <ele>105</ele>
        <time>2010-05-15T14:08:26Z</time>
      </trkpt>
      <trkpt lat="48.57776" lon="1.98943">
        <ele>105</ele>
        <time>2010-05-15T14:08:28Z</time>
      </trkpt>
      <trkpt lat="48.57778" lon="1.98944">
        <ele>105</ele>
        <time>2010-05-15T14:08:30Z</time>
      </trkpt>
      <trkpt lat="48.5778" lon="1.98945">
        <ele>105</ele>
        <time>2010-05-15T14:08:32Z</time>
      </trkpt>
      <trkpt lat="48.57781" lon="1.98945">
        <ele>105</ele>
        <time>2010-05-15T14:08:33Z</time>
      </trkpt>
      <trkpt lat="48.57784" lon="1.98947">
        <ele>105</ele>
        <time>2010-05-15T14:08:35Z</time>
      </trkpt>
      <trkpt lat="48.57786" lon="1.98948">
        <ele>105</ele>
        <time>2010-05-15T14:08:36Z</time>
      </trkpt>
      <trkpt lat="48.57788" lon="1.98949">
        <ele>105</ele>
        <time>2010-05-15T14:08:37Z</time>
      </trkpt>
      <trkpt lat="48.5779" lon="1.98952">
        <ele>105</ele>
        <time>2010-05-15T14:08:39Z</time>
      </trkpt>
      <trkpt lat="48.57791" lon="1.98954">
        <ele>105</ele>
        <time>2010-05-15T14:08:41Z</time>
      </trkpt>
      <trkpt lat="48.57793" lon="1.98954">
        <ele>105</ele>
        <time>2010-05-15T14:08:42Z</time>
      </trkpt>
      <trkpt lat="48.57794" lon="1.98954">
        <ele>105</ele>
        <time>2010-05-15T14:08:43Z</time>
      </trkpt>
      <trkpt lat="48.57796" lon="1.98955">
        <ele>105</ele>
        <time>2010-05-15T14:08:44Z</time>
      </trkpt>
      <trkpt lat="48.57798" lon="1.98955">
        <ele>105</ele>
        <time>2010-05-15T14:08:45Z</time>
      </trkpt>
      <trkpt lat="48.578" lon="1.98956">
        <ele>105</ele>
        <time>2010-05-15T14:08:46Z</time>
      </trkpt>
      <trkpt lat="48.57802" lon="1.98957">
        <ele>105</ele>
        <time>2010-05-15T14:08:47Z</time>
      </trkpt>
      <trkpt lat="48.57803" lon="1.98959">
        <ele>105</ele>
        <time>2010-05-15T14:08:48Z</time>
      </trkpt>
      <trkpt lat="48.57804" lon="1.98961">
        <ele>105</ele>
        <time>2010-05-15T14:08:49Z</time>
      </trkpt>
      <trkpt lat="48.57806" lon="1.98962">
        <ele>105</ele>
        <time>2010-05-15T14:08:50Z</time>
      </trkpt>
      <trkpt lat="48.57807" lon="1.98963">
        <ele>105</ele>
        <time>2010-05-15T14:08:51Z</time>
      </trkpt>
      <trkpt lat="48.57808" lon="1.98965">
        <ele>105</ele>
        <time>2010-05-15T14:08:52Z</time>
      </trkpt>
      <trkpt lat="48.5781" lon="1.98966">
        <ele>105</ele>
        <time>2010-05-15T14:08:53Z</time>
      </trkpt>
      <trkpt lat="48.57811" lon="1.98968">
        <ele>105</ele>
        <time>2010-05-15T14:08:54Z</time>
      </trkpt>
      <trkpt lat="48.57812" lon="1.9897">
        <ele>105</ele>
        <time>2010-05-15T14:08:55Z</time>
      </trkpt>
      <trkpt lat="48.57813" lon="1.98971">
        <ele>105</ele>
        <time>2010-05-15T14:08:56Z</time>
      </trkpt>
      <trkpt lat="48.57814" lon="1.98973">
        <ele>105</ele>
        <time>2010-05-15T14:08:57Z</time>
      </trkpt>
      <trkpt lat="48.57815" lon="1.98975">
        <ele>105</ele>
        <time>2010-05-15T14:08:58Z</time>
      </trkpt>
      <trkpt lat="48.57816" lon="1.98977">
        <ele>104</ele>
        <time>2010-05-15T14:08:59Z</time>
      </trkpt>
      <trkpt lat="48.57817" lon="1.98979">
        <ele>104</ele>
        <time>2010-05-15T14:09:00Z</time>
      </trkpt>
      <trkpt lat="48.57818" lon="1.98981">
        <ele>103</ele>
        <time>2010-05-15T14:09:01Z</time>
      </trkpt>
      <trkpt lat="48.57818" lon="1.98982">
        <ele>103</ele>
        <time>2010-05-15T14:09:02Z</time>
      </trkpt>
      <trkpt lat="48.57819" lon="1.98985">
        <ele>103</ele>
        <time>2010-05-15T14:09:04Z</time>
      </trkpt>
      <trkpt lat="48.57819" lon="1.98987">
        <ele>103</ele>
        <time>2010-05-15T14:09:05Z</time>
      </trkpt>
      <trkpt lat="48.5782" lon="1.98989">
        <ele>103</ele>
        <time>2010-05-15T14:09:06Z</time>
      </trkpt>
      <trkpt lat="48.5782" lon="1.98991">
        <ele>103</ele>
        <time>2010-05-15T14:09:07Z</time>
      </trkpt>
      <trkpt lat="48.57821" lon="1.98994">
        <ele>103</ele>
        <time>2010-05-15T14:09:09Z</time>
      </trkpt>
      <trkpt lat="48.57821" lon="1.98996">
        <ele>103</ele>
        <time>2010-05-15T14:09:10Z</time>
      </trkpt>
      <trkpt lat="48.57822" lon="1.98998">
        <ele>103</ele>
        <time>2010-05-15T14:09:11Z</time>
      </trkpt>
      <trkpt lat="48.57822" lon="1.99001">
        <ele>103</ele>
        <time>2010-05-15T14:09:12Z</time>
      </trkpt>
      <trkpt lat="48.57822" lon="1.99003">
        <ele>103</ele>
        <time>2010-05-15T14:09:13Z</time>
      </trkpt>
      <trkpt lat="48.57823" lon="1.99005">
        <ele>103</ele>
        <time>2010-05-15T14:09:14Z</time>
      </trkpt>
      <trkpt lat="48.57823" lon="1.99007">
        <ele>103</ele>
        <time>2010-05-15T14:09:15Z</time>
      </trkpt>
      <trkpt lat="48.57823" lon="1.99009">
        <ele>103</ele>
        <time>2010-05-15T14:09:16Z</time>
      </trkpt>
      <trkpt lat="48.57823" lon="1.99011">
        <ele>103</ele>
        <time>2010-05-15T14:09:17Z</time>
      </trkpt>
      <trkpt lat="48.57824" lon="1.99013">
        <ele>103</ele>
        <time>2010-05-15T14:09:18Z</time>
      </trkpt>
      <trkpt lat="48.57824" lon="1.99015">
        <ele>103</ele>
        <time>2010-05-15T14:09:19Z</time>
      </trkpt>
      <trkpt lat="48.57824" lon="1.99017">
        <ele>103</ele>
        <time>2010-05-15T14:09:20Z</time>
      </trkpt>
      <trkpt lat="48.57824" lon="1.99019">
        <ele>103</ele>
        <time>2010-05-15T14:09:21Z</time>
      </trkpt>
      <trkpt lat="48.57824" lon="1.99021">
        <ele>103</ele>
        <time>2010-05-15T14:09:22Z</time>
      </trkpt>
      <trkpt lat="48.57825" lon="1.99023">
        <ele>103</ele>
        <time>2010-05-15T14:09:23Z</time>
      </trkpt>
      <trkpt lat="48.57825" lon="1.99025">
        <ele>103</ele>
        <time>2010-05-15T14:09:24Z</time>
      </trkpt>
      <trkpt lat="48.57825" lon="1.99028">
        <ele>103</ele>
        <time>2010-05-15T14:09:25Z</time>
      </trkpt>
      <trkpt lat="48.57826" lon="1.9903">
        <ele>103</ele>
        <time>2010-05-15T14:09:26Z</time>
      </trkpt>
      <trkpt lat="48.57826" lon="1.99032">
        <ele>103</ele>
        <time>2010-05-15T14:09:27Z</time>
      </trkpt>
      <trkpt lat="48.57827" lon="1.99035">
        <ele>103</ele>
        <time>2010-05-15T14:09:28Z</time>
      </trkpt>
      <trkpt lat="48.57827" lon="1.99037">
        <ele>103</ele>
        <time>2010-05-15T14:09:29Z</time>
      </trkpt>
      <trkpt lat="48.57827" lon="1.9904">
        <ele>103</ele>
        <time>2010-05-15T14:09:30Z</time>
      </trkpt>
      <trkpt lat="48.57828" lon="1.99042">
        <ele>103</ele>
        <time>2010-05-15T14:09:31Z</time>
      </trkpt>
      <trkpt lat="48.57828" lon="1.99045">
        <ele>103</ele>
        <time>2010-05-15T14:09:32Z</time>
      </trkpt>
      <trkpt lat="48.57828" lon="1.99048">
        <ele>103</ele>
        <time>2010-05-15T14:09:33Z</time>
      </trkpt>
      <trkpt lat="48.57829" lon="1.9905">
        <ele>103</ele>
        <time>2010-05-15T14:09:34Z</time>
      </trkpt>
      <trkpt lat="48.57829" lon="1.99053">
        <ele>103</ele>
        <time>2010-05-15T14:09:35Z</time>
      </trkpt>
      <trkpt lat="48.57829" lon="1.99056">
        <ele>103</ele>
        <time>2010-05-15T14:09:36Z</time>
      </trkpt>
      <trkpt lat="48.5783" lon="1.99058">
        <ele>103</ele>
        <time>2010-05-15T14:09:37Z</time>
      </trkpt>
      <trkpt lat="48.5783" lon="1.9906">
        <ele>103</ele>
        <time>2010-05-15T14:09:38Z</time>
      </trkpt>
      <trkpt lat="48.5783" lon="1.99062">
        <ele>103</ele>
        <time>2010-05-15T14:09:39Z</time>
      </trkpt>
      <trkpt lat="48.57831" lon="1.99064">
        <ele>103</ele>
        <time>2010-05-15T14:09:40Z</time>
      </trkpt>
      <trkpt lat="48.57831" lon="1.99066">
        <ele>103</ele>
        <time>2010-05-15T14:09:41Z</time>
      </trkpt>
      <trkpt lat="48.57832" lon="1.99069">
        <ele>103</ele>
        <time>2010-05-15T14:09:43Z</time>
      </trkpt>
      <trkpt lat="48.57832" lon="1.9907">
        <ele>103</ele>
        <time>2010-05-15T14:09:44Z</time>
      </trkpt>
      <trkpt lat="48.57832" lon="1.99073">
        <ele>104</ele>
        <time>2010-05-15T14:09:46Z</time>
      </trkpt>
      <trkpt lat="48.57832" lon="1.99075">
        <ele>104</ele>
        <time>2010-05-15T14:09:47Z</time>
      </trkpt>
      <trkpt lat="48.57833" lon="1.99076">
        <ele>105</ele>
        <time>2010-05-15T14:09:48Z</time>
      </trkpt>
      <trkpt lat="48.57833" lon="1.99079">
        <ele>105</ele>
        <time>2010-05-15T14:09:49Z</time>
      </trkpt>
      <trkpt lat="48.57835" lon="1.99083">
        <ele>106</ele>
        <time>2010-05-15T14:09:50Z</time>
      </trkpt>
      <trkpt lat="48.57836" lon="1.99086">
        <ele>106</ele>
        <time>2010-05-15T14:09:51Z</time>
      </trkpt>
      <trkpt lat="48.57836" lon="1.99088">
        <ele>106</ele>
        <time>2010-05-15T14:09:52Z</time>
      </trkpt>
      <trkpt lat="48.57837" lon="1.99089">
        <ele>106</ele>
        <time>2010-05-15T14:09:53Z</time>
      </trkpt>
      <trkpt lat="48.57838" lon="1.99091">
        <ele>107</ele>
        <time>2010-05-15T14:09:55Z</time>
      </trkpt>
      <trkpt lat="48.5784" lon="1.99095">
        <ele>108</ele>
        <time>2010-05-15T14:09:57Z</time>
      </trkpt>
      <trkpt lat="48.57841" lon="1.99098">
        <ele>109</ele>
        <time>2010-05-15T14:09:59Z</time>
      </trkpt>
      <trkpt lat="48.57842" lon="1.991">
        <ele>109</ele>
        <time>2010-05-15T14:10:00Z</time>
      </trkpt>
      <trkpt lat="48.57844" lon="1.99103">
        <ele>110</ele>
        <time>2010-05-15T14:10:01Z</time>
      </trkpt>
      <trkpt lat="48.57845" lon="1.99105">
        <ele>110</ele>
        <time>2010-05-15T14:10:02Z</time>
      </trkpt>
      <trkpt lat="48.57846" lon="1.99107">
        <ele>110</ele>
        <time>2010-05-15T14:10:03Z</time>
      </trkpt>
      <trkpt lat="48.57846" lon="1.99109">
        <ele>111</ele>
        <time>2010-05-15T14:10:04Z</time>
      </trkpt>
      <trkpt lat="48.57846" lon="1.99111">
        <ele>111</ele>
        <time>2010-05-15T14:10:05Z</time>
      </trkpt>
      <trkpt lat="48.57846" lon="1.99113">
        <ele>111</ele>
        <time>2010-05-15T14:10:06Z</time>
      </trkpt>
      <trkpt lat="48.57847" lon="1.99116">
        <ele>111</ele>
        <time>2010-05-15T14:10:07Z</time>
      </trkpt>
      <trkpt lat="48.57848" lon="1.99118">
        <ele>111</ele>
        <time>2010-05-15T14:10:08Z</time>
      </trkpt>
      <trkpt lat="48.57848" lon="1.9912">
        <ele>111</ele>
        <time>2010-05-15T14:10:09Z</time>
      </trkpt>
      <trkpt lat="48.57849" lon="1.99122">
        <ele>111</ele>
        <time>2010-05-15T14:10:10Z</time>
      </trkpt>
      <trkpt lat="48.5785" lon="1.99124">
        <ele>112</ele>
        <time>2010-05-15T14:10:11Z</time>
      </trkpt>
      <trkpt lat="48.57851" lon="1.99127">
        <ele>112</ele>
        <time>2010-05-15T14:10:12Z</time>
      </trkpt>
      <trkpt lat="48.57852" lon="1.99129">
        <ele>112</ele>
        <time>2010-05-15T14:10:13Z</time>
      </trkpt>
      <trkpt lat="48.57853" lon="1.99131">
        <ele>112</ele>
        <time>2010-05-15T14:10:14Z</time>
      </trkpt>
      <trkpt lat="48.57853" lon="1.99133">
        <ele>112</ele>
        <time>2010-05-15T14:10:17Z</time>
      </trkpt>
      <trkpt lat="48.57853" lon="1.99136">
        <ele>112</ele>
        <time>2010-05-15T14:10:19Z</time>
      </trkpt>
      <trkpt lat="48.57853" lon="1.99137">
        <ele>112</ele>
        <time>2010-05-15T14:10:20Z</time>
      </trkpt>
      <trkpt lat="48.57853" lon="1.9914">
        <ele>112</ele>
        <time>2010-05-15T14:10:22Z</time>
      </trkpt>
      <trkpt lat="48.57854" lon="1.99143">
        <ele>112</ele>
        <time>2010-05-15T14:10:24Z</time>
      </trkpt>
      <trkpt lat="48.57855" lon="1.99145">
        <ele>112</ele>
        <time>2010-05-15T14:10:25Z</time>
      </trkpt>
      <trkpt lat="48.57855" lon="1.99148">
        <ele>112</ele>
        <time>2010-05-15T14:10:26Z</time>
      </trkpt>
      <trkpt lat="48.57855" lon="1.9915">
        <ele>112</ele>
        <time>2010-05-15T14:10:27Z</time>
      </trkpt>
      <trkpt lat="48.57855" lon="1.99152">
        <ele>112</ele>
        <time>2010-05-15T14:10:28Z</time>
      </trkpt>
      <trkpt lat="48.57855" lon="1.99154">
        <ele>112</ele>
        <time>2010-05-15T14:10:29Z</time>
      </trkpt>
      <trkpt lat="48.57855" lon="1.99156">
        <ele>112</ele>
        <time>2010-05-15T14:10:30Z</time>
      </trkpt>
      <trkpt lat="48.57855" lon="1.99158">
        <ele>112</ele>
        <time>2010-05-15T14:10:31Z</time>
      </trkpt>
      <trkpt lat="48.57855" lon="1.99159">
        <ele>112</ele>
        <time>2010-05-15T14:10:32Z</time>
      </trkpt>
      <trkpt lat="48.57856" lon="1.99162">
        <ele>112</ele>
        <time>2010-05-15T14:10:33Z</time>
      </trkpt>
      <trkpt lat="48.57857" lon="1.99165">
        <ele>112</ele>
        <time>2010-05-15T14:10:34Z</time>
      </trkpt>
      <trkpt lat="48.57857" lon="1.99167">
        <ele>112</ele>
        <time>2010-05-15T14:10:35Z</time>
      </trkpt>
      <trkpt lat="48.57857" lon="1.9917">
        <ele>112</ele>
        <time>2010-05-15T14:10:36Z</time>
      </trkpt>
      <trkpt lat="48.57858" lon="1.99173">
        <ele>112</ele>
        <time>2010-05-15T14:10:37Z</time>
      </trkpt>
      <trkpt lat="48.57858" lon="1.99176">
        <ele>112</ele>
        <time>2010-05-15T14:10:38Z</time>
      </trkpt>
      <trkpt lat="48.57859" lon="1.99179">
        <ele>112</ele>
        <time>2010-05-15T14:10:39Z</time>
      </trkpt>
      <trkpt lat="48.57859" lon="1.99182">
        <ele>112</ele>
        <time>2010-05-15T14:10:40Z</time>
      </trkpt>
      <trkpt lat="48.57859" lon="1.99185">
        <ele>112</ele>
        <time>2010-05-15T14:10:41Z</time>
      </trkpt>
      <trkpt lat="48.5786" lon="1.99187">
        <ele>112</ele>
        <time>2010-05-15T14:10:42Z</time>
      </trkpt>
      <trkpt lat="48.5786" lon="1.99189">
        <ele>112</ele>
        <time>2010-05-15T14:10:43Z</time>
      </trkpt>
      <trkpt lat="48.5786" lon="1.99191">
        <ele>112</ele>
        <time>2010-05-15T14:10:44Z</time>
      </trkpt>
      <trkpt lat="48.5786" lon="1.99193">
        <ele>112</ele>
        <time>2010-05-15T14:10:45Z</time>
      </trkpt>
      <trkpt lat="48.5786" lon="1.99195">
        <ele>112</ele>
        <time>2010-05-15T14:10:46Z</time>
      </trkpt>
      <trkpt lat="48.5786" lon="1.99198">
        <ele>112</ele>
        <time>2010-05-15T14:10:47Z</time>
      </trkpt>
      <trkpt lat="48.5786" lon="1.99199">
        <ele>112</ele>
        <time>2010-05-15T14:10:48Z</time>
      </trkpt>
      <trkpt lat="48.5786" lon="1.99201">
        <ele>112</ele>
        <time>2010-05-15T14:10:49Z</time>
      </trkpt>
      <trkpt lat="48.5786" lon="1.99204">
        <ele>112</ele>
        <time>2010-05-15T14:10:50Z</time>
      </trkpt>
      <trkpt lat="48.5786" lon="1.99207">
        <ele>112</ele>
        <time>2010-05-15T14:10:51Z</time>
      </trkpt>
      <trkpt lat="48.57861" lon="1.9921">
        <ele>112</ele>
        <time>2010-05-15T14:10:52Z</time>
      </trkpt>
      <trkpt lat="48.57861" lon="1.99214">
        <ele>112</ele>
        <time>2010-05-15T14:10:53Z</time>
      </trkpt>
      <trkpt lat="48.57861" lon="1.99216">
        <ele>112</ele>
        <time>2010-05-15T14:10:54Z</time>
      </trkpt>
      <trkpt lat="48.57861" lon="1.99218">
        <ele>112</ele>
        <time>2010-05-15T14:10:55Z</time>
      </trkpt>
      <trkpt lat="48.57862" lon="1.99221">
        <ele>112</ele>
        <time>2010-05-15T14:10:56Z</time>
      </trkpt>
      <trkpt lat="48.57862" lon="1.99224">
        <ele>112</ele>
        <time>2010-05-15T14:10:57Z</time>
      </trkpt>
      <trkpt lat="48.57862" lon="1.99226">
        <ele>112</ele>
        <time>2010-05-15T14:10:58Z</time>
      </trkpt>
      <trkpt lat="48.57862" lon="1.99228">
        <ele>112</ele>
        <time>2010-05-15T14:10:59Z</time>
      </trkpt>
      <trkpt lat="48.57862" lon="1.99231">
        <ele>112</ele>
        <time>2010-05-15T14:11:00Z</time>
      </trkpt>
      <trkpt lat="48.57863" lon="1.99233">
        <ele>113</ele>
        <time>2010-05-15T14:11:01Z</time>
      </trkpt>
      <trkpt lat="48.57863" lon="1.99235">
        <ele>113</ele>
        <time>2010-05-15T14:11:02Z</time>
      </trkpt>
      <trkpt lat="48.57863" lon="1.99237">
        <ele>114</ele>
        <time>2010-05-15T14:11:03Z</time>
      </trkpt>
      <trkpt lat="48.57862" lon="1.9924">
        <ele>114</ele>
        <time>2010-05-15T14:11:04Z</time>
      </trkpt>
      <trkpt lat="48.57861" lon="1.99243">
        <ele>114</ele>
        <time>2010-05-15T14:11:05Z</time>
      </trkpt>
      <trkpt lat="48.57861" lon="1.99246">
        <ele>114</ele>
        <time>2010-05-15T14:11:06Z</time>
      </trkpt>
      <trkpt lat="48.57861" lon="1.99248">
        <ele>114</ele>
        <time>2010-05-15T14:11:07Z</time>
      </trkpt>
      <trkpt lat="48.5786" lon="1.99251">
        <ele>114</ele>
        <time>2010-05-15T14:11:08Z</time>
      </trkpt>
      <trkpt lat="48.5786" lon="1.99253">
        <ele>114</ele>
        <time>2010-05-15T14:11:09Z</time>
      </trkpt>
      <trkpt lat="48.5786" lon="1.99255">
        <ele>114</ele>
        <time>2010-05-15T14:11:10Z</time>
      </trkpt>
      <trkpt lat="48.5786" lon="1.99257">
        <ele>114</ele>
        <time>2010-05-15T14:11:11Z</time>
      </trkpt>
      <trkpt lat="48.5786" lon="1.9926">
        <ele>114</ele>
        <time>2010-05-15T14:11:12Z</time>
      </trkpt>
      <trkpt lat="48.5786" lon="1.99262">
        <ele>114</ele>
        <time>2010-05-15T14:11:13Z</time>
      </trkpt>
      <trkpt lat="48.5786" lon="1.99264">
        <ele>114</ele>
        <time>2010-05-15T14:11:14Z</time>
      </trkpt>
      <trkpt lat="48.5786" lon="1.99266">
        <ele>114</ele>
        <time>2010-05-15T14:11:15Z</time>
      </trkpt>
      <trkpt lat="48.5786" lon="1.99268">
        <ele>114</ele>
        <time>2010-05-15T14:11:16Z</time>
      </trkpt>
      <trkpt lat="48.5786" lon="1.9927">
        <ele>114</ele>
        <time>2010-05-15T14:11:17Z</time>
      </trkpt>
      <trkpt lat="48.5786" lon="1.99272">
        <ele>114</ele>
        <time>2010-05-15T14:11:18Z</time>
      </trkpt>
      <trkpt lat="48.57859" lon="1.99274">
        <ele>114</ele>
        <time>2010-05-15T14:11:19Z</time>
      </trkpt>
      <trkpt lat="48.57859" lon="1.99276">
        <ele>114</ele>
        <time>2010-05-15T14:11:20Z</time>
      </trkpt>
      <trkpt lat="48.57858" lon="1.99279">
        <ele>114</ele>
        <time>2010-05-15T14:11:21Z</time>
      </trkpt>
      <trkpt lat="48.57857" lon="1.99283">
        <ele>114</ele>
        <time>2010-05-15T14:11:22Z</time>
      </trkpt>
      <trkpt lat="48.57857" lon="1.99287">
        <ele>114</ele>
        <time>2010-05-15T14:11:23Z</time>
      </trkpt>
      <trkpt lat="48.57857" lon="1.99291">
        <ele>114</ele>
        <time>2010-05-15T14:11:24Z</time>
      </trkpt>
      <trkpt lat="48.57858" lon="1.99296">
        <ele>114</ele>
        <time>2010-05-15T14:11:25Z</time>
      </trkpt>
      <trkpt lat="48.57858" lon="1.993">
        <ele>114</ele>
        <time>2010-05-15T14:11:26Z</time>
      </trkpt>
      <trkpt lat="48.57858" lon="1.99303">
        <ele>114</ele>
        <time>2010-05-15T14:11:27Z</time>
      </trkpt>
      <trkpt lat="48.57859" lon="1.99305">
        <ele>114</ele>
        <time>2010-05-15T14:11:28Z</time>
      </trkpt>
      <trkpt lat="48.57859" lon="1.99307">
        <ele>114</ele>
        <time>2010-05-15T14:11:29Z</time>
      </trkpt>
      <trkpt lat="48.57859" lon="1.99309">
        <ele>114</ele>
        <time>2010-05-15T14:11:30Z</time>
      </trkpt>
      <trkpt lat="48.57859" lon="1.99312">
        <ele>114</ele>
        <time>2010-05-15T14:11:31Z</time>
      </trkpt>
      <trkpt lat="48.57859" lon="1.99314">
        <ele>114</ele>
        <time>2010-05-15T14:11:32Z</time>
      </trkpt>
      <trkpt lat="48.57859" lon="1.99316">
        <ele>114</ele>
        <time>2010-05-15T14:11:33Z</time>
      </trkpt>
      <trkpt lat="48.57859" lon="1.99318">
        <ele>114</ele>
        <time>2010-05-15T14:11:34Z</time>
      </trkpt>
      <trkpt lat="48.57859" lon="1.9932">
        <ele>114</ele>
        <time>2010-05-15T14:11:35Z</time>
      </trkpt>
      <trkpt lat="48.57859" lon="1.99322">
        <ele>114</ele>
        <time>2010-05-15T14:11:36Z</time>
      </trkpt>
      <trkpt lat="48.57859" lon="1.99324">
        <ele>114</ele>
        <time>2010-05-15T14:11:37Z</time>
      </trkpt>
      <trkpt lat="48.57859" lon="1.99326">
        <ele>114</ele>
        <time>2010-05-15T14:11:38Z</time>
      </trkpt>
      <trkpt lat="48.57859" lon="1.99328">
        <ele>114</ele>
        <time>2010-05-15T14:11:39Z</time>
      </trkpt>
      <trkpt lat="48.57858" lon="1.9933">
        <ele>114</ele>
        <time>2010-05-15T14:11:40Z</time>
      </trkpt>
      <trkpt lat="48.57858" lon="1.99332">
        <ele>114</ele>
        <time>2010-05-15T14:11:41Z</time>
      </trkpt>
      <trkpt lat="48.57858" lon="1.99335">
        <ele>114</ele>
        <time>2010-05-15T14:11:42Z</time>
      </trkpt>
      <trkpt lat="48.57857" lon="1.99337">
        <ele>114</ele>
        <time>2010-05-15T14:11:43Z</time>
      </trkpt>
      <trkpt lat="48.57858" lon="1.9934">
        <ele>114</ele>
        <time>2010-05-15T14:11:45Z</time>
      </trkpt>
      <trkpt lat="48.57858" lon="1.99343">
        <ele>114</ele>
        <time>2010-05-15T14:11:46Z</time>
      </trkpt>
      <trkpt lat="48.57857" lon="1.99347">
        <ele>114</ele>
        <time>2010-05-15T14:11:47Z</time>
      </trkpt>
      <trkpt lat="48.57857" lon="1.9935">
        <ele>114</ele>
        <time>2010-05-15T14:11:48Z</time>
      </trkpt>
      <trkpt lat="48.57857" lon="1.99353">
        <ele>114</ele>
        <time>2010-05-15T14:11:49Z</time>
      </trkpt>
      <trkpt lat="48.57856" lon="1.99357">
        <ele>114</ele>
        <time>2010-05-15T14:11:50Z</time>
      </trkpt>
      <trkpt lat="48.57856" lon="1.99359">
        <ele>114</ele>
        <time>2010-05-15T14:11:51Z</time>
      </trkpt>
      <trkpt lat="48.57855" lon="1.99361">
        <ele>114</ele>
        <time>2010-05-15T14:11:52Z</time>
      </trkpt>
      <trkpt lat="48.57855" lon="1.99363">
        <ele>114</ele>
        <time>2010-05-15T14:11:53Z</time>
      </trkpt>
      <trkpt lat="48.57854" lon="1.99365">
        <ele>115</ele>
        <time>2010-05-15T14:11:54Z</time>
      </trkpt>
      <trkpt lat="48.57854" lon="1.99367">
        <ele>115</ele>
        <time>2010-05-15T14:11:55Z</time>
      </trkpt>
      <trkpt lat="48.57854" lon="1.99369">
        <ele>115</ele>
        <time>2010-05-15T14:11:56Z</time>
      </trkpt>
      <trkpt lat="48.57854" lon="1.99373">
        <ele>115</ele>
        <time>2010-05-15T14:11:57Z</time>
      </trkpt>
      <trkpt lat="48.57855" lon="1.99379">
        <ele>115</ele>
        <time>2010-05-15T14:11:58Z</time>
      </trkpt>
      <trkpt lat="48.57855" lon="1.99383">
        <ele>115</ele>
        <time>2010-05-15T14:11:59Z</time>
      </trkpt>
      <trkpt lat="48.57854" lon="1.99388">
        <ele>115</ele>
        <time>2010-05-15T14:12:00Z</time>
      </trkpt>
      <trkpt lat="48.57853" lon="1.99391">
        <ele>115</ele>
        <time>2010-05-15T14:12:01Z</time>
      </trkpt>
      <trkpt lat="48.57853" lon="1.99394">
        <ele>115</ele>
        <time>2010-05-15T14:12:02Z</time>
      </trkpt>
      <trkpt lat="48.57852" lon="1.99396">
        <ele>115</ele>
        <time>2010-05-15T14:12:03Z</time>
      </trkpt>
      <trkpt lat="48.57852" lon="1.99398">
        <ele>115</ele>
        <time>2010-05-15T14:12:04Z</time>
      </trkpt>
      <trkpt lat="48.57852" lon="1.99401">
        <ele>115</ele>
        <time>2010-05-15T14:12:05Z</time>
      </trkpt>
      <trkpt lat="48.57852" lon="1.99403">
        <ele>115</ele>
        <time>2010-05-15T14:12:06Z</time>
      </trkpt>
      <trkpt lat="48.57852" lon="1.99406">
        <ele>115</ele>
        <time>2010-05-15T14:12:07Z</time>
      </trkpt>
      <trkpt lat="48.57851" lon="1.99408">
        <ele>115</ele>
        <time>2010-05-15T14:12:08Z</time>
      </trkpt>
      <trkpt lat="48.57851" lon="1.9941">
        <ele>115</ele>
        <time>2010-05-15T14:12:09Z</time>
      </trkpt>
      <trkpt lat="48.57851" lon="1.99413">
        <ele>115</ele>
        <time>2010-05-15T14:12:10Z</time>
      </trkpt>
      <trkpt lat="48.5785" lon="1.99416">
        <ele>115</ele>
        <time>2010-05-15T14:12:11Z</time>
      </trkpt>
      <trkpt lat="48.5785" lon="1.99418">
        <ele>115</ele>
        <time>2010-05-15T14:12:12Z</time>
      </trkpt>
      <trkpt lat="48.5785" lon="1.99421">
        <ele>114</ele>
        <time>2010-05-15T14:12:13Z</time>
      </trkpt>
      <trkpt lat="48.5785" lon="1.99423">
        <ele>114</ele>
        <time>2010-05-15T14:12:14Z</time>
      </trkpt>
      <trkpt lat="48.5785" lon="1.99426">
        <ele>114</ele>
        <time>2010-05-15T14:12:15Z</time>
      </trkpt>
      <trkpt lat="48.5785" lon="1.99428">
        <ele>113</ele>
        <time>2010-05-15T14:12:16Z</time>
      </trkpt>
      <trkpt lat="48.5785" lon="1.99431">
        <ele>113</ele>
        <time>2010-05-15T14:12:17Z</time>
      </trkpt>
      <trkpt lat="48.57849" lon="1.99433">
        <ele>113</ele>
        <time>2010-05-15T14:12:18Z</time>
      </trkpt>
      <trkpt lat="48.57849" lon="1.99436">
        <ele>113</ele>
        <time>2010-05-15T14:12:19Z</time>
      </trkpt>
      <trkpt lat="48.57849" lon="1.99438">
        <ele>113</ele>
        <time>2010-05-15T14:12:20Z</time>
      </trkpt>
      <trkpt lat="48.57849" lon="1.99441">
        <ele>112</ele>
        <time>2010-05-15T14:12:21Z</time>
      </trkpt>
      <trkpt lat="48.57849" lon="1.99444">
        <ele>112</ele>
        <time>2010-05-15T14:12:22Z</time>
      </trkpt>
      <trkpt lat="48.57849" lon="1.99447">
        <ele>112</ele>
        <time>2010-05-15T14:12:23Z</time>
      </trkpt>
      <trkpt lat="48.57849" lon="1.9945">
        <ele>112</ele>
        <time>2010-05-15T14:12:24Z</time>
      </trkpt>
      <trkpt lat="48.57849" lon="1.99452">
        <ele>111</ele>
        <time>2010-05-15T14:12:25Z</time>
      </trkpt>
      <trkpt lat="48.57849" lon="1.99455">
        <ele>111</ele>
        <time>2010-05-15T14:12:26Z</time>
      </trkpt>
      <trkpt lat="48.57848" lon="1.99458">
        <ele>111</ele>
        <time>2010-05-15T14:12:27Z</time>
      </trkpt>
      <trkpt lat="48.57848" lon="1.99461">
        <ele>111</ele>
        <time>2010-05-15T14:12:28Z</time>
      </trkpt>
      <trkpt lat="48.57848" lon="1.99463">
        <ele>111</ele>
        <time>2010-05-15T14:12:29Z</time>
      </trkpt>
      <trkpt lat="48.57848" lon="1.99466">
        <ele>111</ele>
        <time>2010-05-15T14:12:30Z</time>
      </trkpt>
      <trkpt lat="48.57848" lon="1.99469">
        <ele>111</ele>
        <time>2010-05-15T14:12:31Z</time>
      </trkpt>
      <trkpt lat="48.57848" lon="1.99473">
        <ele>111</ele>
        <time>2010-05-15T14:12:32Z</time>
      </trkpt>
      <trkpt lat="48.57848" lon="1.99476">
        <ele>111</ele>
        <time>2010-05-15T14:12:33Z</time>
      </trkpt>
      <trkpt lat="48.57848" lon="1.9948">
        <ele>111</ele>
        <time>2010-05-15T14:12:34Z</time>
      </trkpt>
      <trkpt lat="48.57848" lon="1.99483">
        <ele>111</ele>
        <time>2010-05-15T14:12:35Z</time>
      </trkpt>
      <trkpt lat="48.57848" lon="1.99487">
        <ele>111</ele>
        <time>2010-05-15T14:12:36Z</time>
      </trkpt>
      <trkpt lat="48.57847" lon="1.99489">
        <ele>111</ele>
        <time>2010-05-15T14:12:37Z</time>
      </trkpt>
      <trkpt lat="48.57847" lon="1.99492">
        <ele>111</ele>
        <time>2010-05-15T14:12:38Z</time>
      </trkpt>
      <trkpt lat="48.57847" lon="1.99495">
        <ele>111</ele>
        <time>2010-05-15T14:12:39Z</time>
      </trkpt>
      <trkpt lat="48.57847" lon="1.99498">
        <ele>111</ele>
        <time>2010-05-15T14:12:40Z</time>
      </trkpt>
      <trkpt lat="48.57847" lon="1.995">
        <ele>110</ele>
        <time>2010-05-15T14:12:41Z</time>
      </trkpt>
      <trkpt lat="48.57847" lon="1.99503">
        <ele>110</ele>
        <time>2010-05-15T14:12:42Z</time>
      </trkpt>
      <trkpt lat="48.57847" lon="1.99506">
        <ele>110</ele>
        <time>2010-05-15T14:12:43Z</time>
      </trkpt>
      <trkpt lat="48.57847" lon="1.99509">
        <ele>110</ele>
        <time>2010-05-15T14:12:44Z</time>
      </trkpt>
      <trkpt lat="48.57847" lon="1.99511">
        <ele>109</ele>
        <time>2010-05-15T14:12:45Z</time>
      </trkpt>
      <trkpt lat="48.57847" lon="1.99514">
        <ele>109</ele>
        <time>2010-05-15T14:12:46Z</time>
      </trkpt>
      <trkpt lat="48.57847" lon="1.99517">
        <ele>109</ele>
        <time>2010-05-15T14:12:47Z</time>
      </trkpt>
      <trkpt lat="48.57847" lon="1.99519">
        <ele>108</ele>
        <time>2010-05-15T14:12:48Z</time>
      </trkpt>
      <trkpt lat="48.57847" lon="1.99522">
        <ele>108</ele>
        <time>2010-05-15T14:12:49Z</time>
      </trkpt>
      <trkpt lat="48.57847" lon="1.99524">
        <ele>108</ele>
        <time>2010-05-15T14:12:50Z</time>
      </trkpt>
      <trkpt lat="48.57847" lon="1.99527">
        <ele>108</ele>
        <time>2010-05-15T14:12:51Z</time>
      </trkpt>
      <trkpt lat="48.57847" lon="1.9953">
        <ele>108</ele>
        <time>2010-05-15T14:12:52Z</time>
      </trkpt>
      <trkpt lat="48.57847" lon="1.99532">
        <ele>108</ele>
        <time>2010-05-15T14:12:53Z</time>
      </trkpt>
      <trkpt lat="48.57847" lon="1.99535">
        <ele>108</ele>
        <time>2010-05-15T14:12:54Z</time>
      </trkpt>
      <trkpt lat="48.57847" lon="1.99537">
        <ele>108</ele>
        <time>2010-05-15T14:12:55Z</time>
      </trkpt>
      <trkpt lat="48.57847" lon="1.9954">
        <ele>108</ele>
        <time>2010-05-15T14:12:56Z</time>
      </trkpt>
      <trkpt lat="48.57847" lon="1.99542">
        <ele>108</ele>
        <time>2010-05-15T14:12:57Z</time>
      </trkpt>
      <trkpt lat="48.57847" lon="1.99545">
        <ele>108</ele>
        <time>2010-05-15T14:12:58Z</time>
      </trkpt>
      <trkpt lat="48.57847" lon="1.99548">
        <ele>107</ele>
        <time>2010-05-15T14:12:59Z</time>
      </trkpt>
      <trkpt lat="48.57847" lon="1.99552">
        <ele>107</ele>
        <time>2010-05-15T14:13:00Z</time>
      </trkpt>
      <trkpt lat="48.57847" lon="1.99555">
        <ele>107</ele>
        <time>2010-05-15T14:13:01Z</time>
      </trkpt>
      <trkpt lat="48.57847" lon="1.99558">
        <ele>107</ele>
        <time>2010-05-15T14:13:02Z</time>
      </trkpt>
      <trkpt lat="48.57847" lon="1.99561">
        <ele>107</ele>
        <time>2010-05-15T14:13:03Z</time>
      </trkpt>
      <trkpt lat="48.57847" lon="1.99564">
        <ele>107</ele>
        <time>2010-05-15T14:13:04Z</time>
      </trkpt>
      <trkpt lat="48.57847" lon="1.99566">
        <ele>106</ele>
        <time>2010-05-15T14:13:05Z</time>
      </trkpt>
      <trkpt lat="48.57847" lon="1.99569">
        <ele>106</ele>
        <time>2010-05-15T14:13:06Z</time>
      </trkpt>
      <trkpt lat="48.57848" lon="1.99571">
        <ele>106</ele>
        <time>2010-05-15T14:13:07Z</time>
      </trkpt>
      <trkpt lat="48.57848" lon="1.99574">
        <ele>105</ele>
        <time>2010-05-15T14:13:08Z</time>
      </trkpt>
      <trkpt lat="48.57848" lon="1.99577">
        <ele>105</ele>
        <time>2010-05-15T14:13:09Z</time>
      </trkpt>
      <trkpt lat="48.57848" lon="1.99579">
        <ele>105</ele>
        <time>2010-05-15T14:13:10Z</time>
      </trkpt>
      <trkpt lat="48.57847" lon="1.99582">
        <ele>104</ele>
        <time>2010-05-15T14:13:11Z</time>
      </trkpt>
      <trkpt lat="48.57847" lon="1.99584">
        <ele>104</ele>
        <time>2010-05-15T14:13:12Z</time>
      </trkpt>
      <trkpt lat="48.57847" lon="1.99586">
        <ele>104</ele>
        <time>2010-05-15T14:13:13Z</time>
      </trkpt>
      <trkpt lat="48.57847" lon="1.99589">
        <ele>104</ele>
        <time>2010-05-15T14:13:14Z</time>
      </trkpt>
      <trkpt lat="48.57847" lon="1.99591">
        <ele>104</ele>
        <time>2010-05-15T14:13:15Z</time>
      </trkpt>
      <trkpt lat="48.57847" lon="1.99594">
        <ele>104</ele>
        <time>2010-05-15T14:13:16Z</time>
      </trkpt>
      <trkpt lat="48.57847" lon="1.99596">
        <ele>104</ele>
        <time>2010-05-15T14:13:17Z</time>
      </trkpt>
      <trkpt lat="48.57847" lon="1.99599">
        <ele>104</ele>
        <time>2010-05-15T14:13:18Z</time>
      </trkpt>
      <trkpt lat="48.57847" lon="1.99602">
        <ele>104</ele>
        <time>2010-05-15T14:13:19Z</time>
      </trkpt>
      <trkpt lat="48.57847" lon="1.99604">
        <ele>104</ele>
        <time>2010-05-15T14:13:20Z</time>
      </trkpt>
      <trkpt lat="48.57847" lon="1.99607">
        <ele>104</ele>
        <time>2010-05-15T14:13:21Z</time>
      </trkpt>
      <trkpt lat="48.57847" lon="1.9961">
        <ele>104</ele>
        <time>2010-05-15T14:13:22Z</time>
      </trkpt>
      <trkpt lat="48.57847" lon="1.99612">
        <ele>104</ele>
        <time>2010-05-15T14:13:23Z</time>
      </trkpt>
      <trkpt lat="48.57847" lon="1.99615">
        <ele>104</ele>
        <time>2010-05-15T14:13:24Z</time>
      </trkpt>
      <trkpt lat="48.57847" lon="1.99617">
        <ele>104</ele>
        <time>2010-05-15T14:13:25Z</time>
      </trkpt>
      <trkpt lat="48.57847" lon="1.9962">
        <ele>104</ele>
        <time>2010-05-15T14:13:26Z</time>
      </trkpt>
      <trkpt lat="48.57847" lon="1.99622">
        <ele>104</ele>
        <time>2010-05-15T14:13:27Z</time>
      </trkpt>
      <trkpt lat="48.57847" lon="1.99625">
        <ele>104</ele>
        <time>2010-05-15T14:13:28Z</time>
      </trkpt>
      <trkpt lat="48.57847" lon="1.99627">
        <ele>104</ele>
        <time>2010-05-15T14:13:29Z</time>
      </trkpt>
      <trkpt lat="48.57848" lon="1.9963">
        <ele>104</ele>
        <time>2010-05-15T14:13:30Z</time>
      </trkpt>
      <trkpt lat="48.57848" lon="1.99632">
        <ele>104</ele>
        <time>2010-05-15T14:13:31Z</time>
      </trkpt>
      <trkpt lat="48.57848" lon="1.99635">
        <ele>104</ele>
        <time>2010-05-15T14:13:32Z</time>
      </trkpt>
      <trkpt lat="48.57848" lon="1.99638">
        <ele>103</ele>
        <time>2010-05-15T14:13:33Z</time>
      </trkpt>
      <trkpt lat="48.57848" lon="1.9964">
        <ele>103</ele>
        <time>2010-05-15T14:13:34Z</time>
      </trkpt>
      <trkpt lat="48.57848" lon="1.99643">
        <ele>103</ele>
        <time>2010-05-15T14:13:35Z</time>
      </trkpt>
      <trkpt lat="48.57848" lon="1.99646">
        <ele>103</ele>
        <time>2010-05-15T14:13:36Z</time>
      </trkpt>
      <trkpt lat="48.57848" lon="1.99649">
        <ele>103</ele>
        <time>2010-05-15T14:13:37Z</time>
      </trkpt>
      <trkpt lat="48.57848" lon="1.99651">
        <ele>103</ele>
        <time>2010-05-15T14:13:38Z</time>
      </trkpt>
      <trkpt lat="48.57848" lon="1.99654">
        <ele>103</ele>
        <time>2010-05-15T14:13:39Z</time>
      </trkpt>
      <trkpt lat="48.57848" lon="1.99656">
        <ele>103</ele>
        <time>2010-05-15T14:13:40Z</time>
      </trkpt>
      <trkpt lat="48.57847" lon="1.99658">
        <ele>103</ele>
        <time>2010-05-15T14:13:41Z</time>
      </trkpt>
      <trkpt lat="48.57847" lon="1.99661">
        <ele>103</ele>
        <time>2010-05-15T14:13:42Z</time>
      </trkpt>
      <trkpt lat="48.57847" lon="1.99663">
        <ele>103</ele>
        <time>2010-05-15T14:13:43Z</time>
      </trkpt>
      <trkpt lat="48.57847" lon="1.99666">
        <ele>103</ele>
        <time>2010-05-15T14:13:44Z</time>
      </trkpt>
      <trkpt lat="48.57848" lon="1.99668">
        <ele>103</ele>
        <time>2010-05-15T14:13:45Z</time>
      </trkpt>
      <trkpt lat="48.57848" lon="1.9967">
        <ele>102</ele>
        <time>2010-05-15T14:13:46Z</time>
      </trkpt>
      <trkpt lat="48.57848" lon="1.99672">
        <ele>102</ele>
        <time>2010-05-15T14:13:47Z</time>
      </trkpt>
      <trkpt lat="48.57848" lon="1.99675">
        <ele>102</ele>
        <time>2010-05-15T14:13:48Z</time>
      </trkpt>
      <trkpt lat="48.57848" lon="1.99677">
        <ele>102</ele>
        <time>2010-05-15T14:13:49Z</time>
      </trkpt>
      <trkpt lat="48.57848" lon="1.99679">
        <ele>102</ele>
        <time>2010-05-15T14:13:50Z</time>
      </trkpt>
      <trkpt lat="48.57848" lon="1.99682">
        <ele>102</ele>
        <time>2010-05-15T14:13:51Z</time>
      </trkpt>
      <trkpt lat="48.57848" lon="1.99685">
        <ele>102</ele>
        <time>2010-05-15T14:13:52Z</time>
      </trkpt>
      <trkpt lat="48.57848" lon="1.99687">
        <ele>102</ele>
        <time>2010-05-15T14:13:53Z</time>
      </trkpt>
      <trkpt lat="48.57848" lon="1.9969">
        <ele>102</ele>
        <time>2010-05-15T14:13:54Z</time>
      </trkpt>
      <trkpt lat="48.57848" lon="1.99693">
        <ele>102</ele>
        <time>2010-05-15T14:13:55Z</time>
      </trkpt>
      <trkpt lat="48.57848" lon="1.99695">
        <ele>102</ele>
        <time>2010-05-15T14:13:56Z</time>
      </trkpt>
      <trkpt lat="48.57848" lon="1.99698">
        <ele>102</ele>
        <time>2010-05-15T14:13:57Z</time>
      </trkpt>
      <trkpt lat="48.57848" lon="1.997">
        <ele>102</ele>
        <time>2010-05-15T14:13:58Z</time>
      </trkpt>
      <trkpt lat="48.57849" lon="1.99703">
        <ele>102</ele>
        <time>2010-05-15T14:13:59Z</time>
      </trkpt>
      <trkpt lat="48.57849" lon="1.99705">
        <ele>102</ele>
        <time>2010-05-15T14:14:00Z</time>
      </trkpt>
      <trkpt lat="48.57849" lon="1.99707">
        <ele>102</ele>
        <time>2010-05-15T14:14:01Z</time>
      </trkpt>
      <trkpt lat="48.57849" lon="1.9971">
        <ele>102</ele>
        <time>2010-05-15T14:14:02Z</time>
      </trkpt>
      <trkpt lat="48.5785" lon="1.99712">
        <ele>102</ele>
        <time>2010-05-15T14:14:03Z</time>
      </trkpt>
      <trkpt lat="48.5785" lon="1.99715">
        <ele>102</ele>
        <time>2010-05-15T14:14:04Z</time>
      </trkpt>
      <trkpt lat="48.5785" lon="1.99718">
        <ele>102</ele>
        <time>2010-05-15T14:14:05Z</time>
      </trkpt>
      <trkpt lat="48.5785" lon="1.9972">
        <ele>102</ele>
        <time>2010-05-15T14:14:06Z</time>
      </trkpt>
      <trkpt lat="48.5785" lon="1.99723">
        <ele>102</ele>
        <time>2010-05-15T14:14:07Z</time>
      </trkpt>
      <trkpt lat="48.57851" lon="1.99726">
        <ele>102</ele>
        <time>2010-05-15T14:14:08Z</time>
      </trkpt>
      <trkpt lat="48.57851" lon="1.99728">
        <ele>102</ele>
        <time>2010-05-15T14:14:09Z</time>
      </trkpt>
      <trkpt lat="48.57851" lon="1.99731">
        <ele>102</ele>
        <time>2010-05-15T14:14:10Z</time>
      </trkpt>
      <trkpt lat="48.57851" lon="1.99734">
        <ele>102</ele>
        <time>2010-05-15T14:14:11Z</time>
      </trkpt>
      <trkpt lat="48.57852" lon="1.99737">
        <ele>102</ele>
        <time>2010-05-15T14:14:12Z</time>
      </trkpt>
      <trkpt lat="48.57852" lon="1.9974">
        <ele>102</ele>
        <time>2010-05-15T14:14:13Z</time>
      </trkpt>
      <trkpt lat="48.57852" lon="1.99742">
        <ele>102</ele>
        <time>2010-05-15T14:14:14Z</time>
      </trkpt>
      <trkpt lat="48.57853" lon="1.99745">
        <ele>102</ele>
        <time>2010-05-15T14:14:15Z</time>
      </trkpt>
      <trkpt lat="48.57853" lon="1.99747">
        <ele>102</ele>
        <time>2010-05-15T14:14:16Z</time>
      </trkpt>
      <trkpt lat="48.57854" lon="1.9975">
        <ele>102</ele>
        <time>2010-05-15T14:14:17Z</time>
      </trkpt>
      <trkpt lat="48.57854" lon="1.99755">
        <ele>102</ele>
        <time>2010-05-15T14:14:18Z</time>
      </trkpt>
      <trkpt lat="48.57855" lon="1.99759">
        <ele>102</ele>
        <time>2010-05-15T14:14:19Z</time>
      </trkpt>
      <trkpt lat="48.57855" lon="1.99764">
        <ele>102</ele>
        <time>2010-05-15T14:14:20Z</time>
      </trkpt>
      <trkpt lat="48.57856" lon="1.99768">
        <ele>102</ele>
        <time>2010-05-15T14:14:21Z</time>
      </trkpt>
      <trkpt lat="48.57857" lon="1.99772">
        <ele>102</ele>
        <time>2010-05-15T14:14:22Z</time>
      </trkpt>
      <trkpt lat="48.57857" lon="1.99775">
        <ele>102</ele>
        <time>2010-05-15T14:14:23Z</time>
      </trkpt>
      <trkpt lat="48.57858" lon="1.99778">
        <ele>101</ele>
        <time>2010-05-15T14:14:24Z</time>
      </trkpt>
      <trkpt lat="48.57859" lon="1.99781">
        <ele>101</ele>
        <time>2010-05-15T14:14:25Z</time>
      </trkpt>
      <trkpt lat="48.57859" lon="1.99785">
        <ele>101</ele>
        <time>2010-05-15T14:14:26Z</time>
      </trkpt>
      <trkpt lat="48.5786" lon="1.99787">
        <ele>101</ele>
        <time>2010-05-15T14:14:27Z</time>
      </trkpt>
      <trkpt lat="48.5786" lon="1.9979">
        <ele>100</ele>
        <time>2010-05-15T14:14:28Z</time>
      </trkpt>
      <trkpt lat="48.57861" lon="1.99792">
        <ele>100</ele>
        <time>2010-05-15T14:14:29Z</time>
      </trkpt>
      <trkpt lat="48.57862" lon="1.99794">
        <ele>100</ele>
        <time>2010-05-15T14:14:30Z</time>
      </trkpt>
      <trkpt lat="48.57862" lon="1.99797">
        <ele>100</ele>
        <time>2010-05-15T14:14:31Z</time>
      </trkpt>
      <trkpt lat="48.57863" lon="1.99799">
        <ele>100</ele>
        <time>2010-05-15T14:14:32Z</time>
      </trkpt>
      <trkpt lat="48.57863" lon="1.99802">
        <ele>100</ele>
        <time>2010-05-15T14:14:33Z</time>
      </trkpt>
      <trkpt lat="48.57864" lon="1.99804">
        <ele>100</ele>
        <time>2010-05-15T14:14:34Z</time>
      </trkpt>
      <trkpt lat="48.57864" lon="1.99806">
        <ele>100</ele>
        <time>2010-05-15T14:14:35Z</time>
      </trkpt>
      <trkpt lat="48.57865" lon="1.99809">
        <ele>100</ele>
        <time>2010-05-15T14:14:36Z</time>
      </trkpt>
      <trkpt lat="48.57866" lon="1.99811">
        <ele>100</ele>
        <time>2010-05-15T14:14:37Z</time>
      </trkpt>
      <trkpt lat="48.57866" lon="1.99814">
        <ele>100</ele>
        <time>2010-05-15T14:14:38Z</time>
      </trkpt>
      <trkpt lat="48.57867" lon="1.99816">
        <ele>100</ele>
        <time>2010-05-15T14:14:39Z</time>
      </trkpt>
      <trkpt lat="48.57867" lon="1.99818">
        <ele>100</ele>
        <time>2010-05-15T14:14:40Z</time>
      </trkpt>
      <trkpt lat="48.57868" lon="1.9982">
        <ele>100</ele>
        <time>2010-05-15T14:14:41Z</time>
      </trkpt>
      <trkpt lat="48.57868" lon="1.99823">
        <ele>100</ele>
        <time>2010-05-15T14:14:42Z</time>
      </trkpt>
      <trkpt lat="48.57868" lon="1.99825">
        <ele>100</ele>
        <time>2010-05-15T14:14:43Z</time>
      </trkpt>
      <trkpt lat="48.57869" lon="1.99827">
        <ele>100</ele>
        <time>2010-05-15T14:14:44Z</time>
      </trkpt>
      <trkpt lat="48.57869" lon="1.99829">
        <ele>100</ele>
        <time>2010-05-15T14:14:45Z</time>
      </trkpt>
      <trkpt lat="48.5787" lon="1.99831">
        <ele>100</ele>
        <time>2010-05-15T14:14:46Z</time>
      </trkpt>
      <trkpt lat="48.57871" lon="1.99834">
        <ele>100</ele>
        <time>2010-05-15T14:14:47Z</time>
      </trkpt>
      <trkpt lat="48.57871" lon="1.99836">
        <ele>100</ele>
        <time>2010-05-15T14:14:48Z</time>
      </trkpt>
      <trkpt lat="48.57872" lon="1.99839">
        <ele>100</ele>
        <time>2010-05-15T14:14:49Z</time>
      </trkpt>
      <trkpt lat="48.57872" lon="1.99841">
        <ele>100</ele>
        <time>2010-05-15T14:14:50Z</time>
      </trkpt>
      <trkpt lat="48.57872" lon="1.99843">
        <ele>100</ele>
        <time>2010-05-15T14:14:51Z</time>
      </trkpt>
      <trkpt lat="48.57873" lon="1.99845">
        <ele>100</ele>
        <time>2010-05-15T14:14:52Z</time>
      </trkpt>
      <trkpt lat="48.57873" lon="1.99848">
        <ele>100</ele>
        <time>2010-05-15T14:14:53Z</time>
      </trkpt>
      <trkpt lat="48.57874" lon="1.9985">
        <ele>100</ele>
        <time>2010-05-15T14:14:54Z</time>
      </trkpt>
      <trkpt lat="48.57874" lon="1.99852">
        <ele>100</ele>
        <time>2010-05-15T14:14:55Z</time>
      </trkpt>
      <trkpt lat="48.57875" lon="1.99857">
        <ele>100</ele>
        <time>2010-05-15T14:14:56Z</time>
      </trkpt>
      <trkpt lat="48.57875" lon="1.99859">
        <ele>100</ele>
        <time>2010-05-15T14:14:57Z</time>
      </trkpt>
      <trkpt lat="48.57876" lon="1.9986">
        <ele>100</ele>
        <time>2010-05-15T14:14:58Z</time>
      </trkpt>
      <trkpt lat="48.57876" lon="1.99862">
        <ele>100</ele>
        <time>2010-05-15T14:14:59Z</time>
      </trkpt>
      <trkpt lat="48.57877" lon="1.99866">
        <ele>100</ele>
        <time>2010-05-15T14:15:00Z</time>
      </trkpt>
      <trkpt lat="48.57878" lon="1.99869">
        <ele>100</ele>
        <time>2010-05-15T14:15:01Z</time>
      </trkpt>
      <trkpt lat="48.57878" lon="1.99871">
        <ele>100</ele>
        <time>2010-05-15T14:15:02Z</time>
      </trkpt>
      <trkpt lat="48.57878" lon="1.99873">
        <ele>100</ele>
        <time>2010-05-15T14:15:03Z</time>
      </trkpt>
      <trkpt lat="48.57878" lon="1.99875">
        <ele>100</ele>
        <time>2010-05-15T14:15:04Z</time>
      </trkpt>
      <trkpt lat="48.57879" lon="1.99877">
        <ele>100</ele>
        <time>2010-05-15T14:15:05Z</time>
      </trkpt>
      <trkpt lat="48.5788" lon="1.9988">
        <ele>100</ele>
        <time>2010-05-15T14:15:06Z</time>
      </trkpt>
      <trkpt lat="48.5788" lon="1.99882">
        <ele>100</ele>
        <time>2010-05-15T14:15:07Z</time>
      </trkpt>
      <trkpt lat="48.57881" lon="1.99884">
        <ele>100</ele>
        <time>2010-05-15T14:15:08Z</time>
      </trkpt>
      <trkpt lat="48.57881" lon="1.99886">
        <ele>100</ele>
        <time>2010-05-15T14:15:09Z</time>
      </trkpt>
      <trkpt lat="48.57881" lon="1.99888">
        <ele>100</ele>
        <time>2010-05-15T14:15:10Z</time>
      </trkpt>
      <trkpt lat="48.57881" lon="1.9989">
        <ele>100</ele>
        <time>2010-05-15T14:15:12Z</time>
      </trkpt>
      <trkpt lat="48.57883" lon="1.9989">
        <ele>100</ele>
        <time>2010-05-15T14:15:13Z</time>
      </trkpt>
      <trkpt lat="48.57884" lon="1.99891">
        <ele>100</ele>
        <time>2010-05-15T14:15:14Z</time>
      </trkpt>
      <trkpt lat="48.57885" lon="1.99892">
        <ele>100</ele>
        <time>2010-05-15T14:15:15Z</time>
      </trkpt>
      <trkpt lat="48.57886" lon="1.99894">
        <ele>100</ele>
        <time>2010-05-15T14:15:16Z</time>
      </trkpt>
      <trkpt lat="48.57887" lon="1.99896">
        <ele>100</ele>
        <time>2010-05-15T14:15:17Z</time>
      </trkpt>
      <trkpt lat="48.57888" lon="1.99901">
        <ele>100</ele>
        <time>2010-05-15T14:15:18Z</time>
      </trkpt>
      <trkpt lat="48.57889" lon="1.99903">
        <ele>100</ele>
        <time>2010-05-15T14:15:19Z</time>
      </trkpt>
      <trkpt lat="48.57889" lon="1.99905">
        <ele>100</ele>
        <time>2010-05-15T14:15:20Z</time>
      </trkpt>
      <trkpt lat="48.5789" lon="1.99907">
        <ele>100</ele>
        <time>2010-05-15T14:15:21Z</time>
      </trkpt>
      <trkpt lat="48.57891" lon="1.9991">
        <ele>100</ele>
        <time>2010-05-15T14:15:22Z</time>
      </trkpt>
      <trkpt lat="48.57892" lon="1.99912">
        <ele>100</ele>
        <time>2010-05-15T14:15:24Z</time>
      </trkpt>
      <trkpt lat="48.57892" lon="1.99914">
        <ele>100</ele>
        <time>2010-05-15T14:15:25Z</time>
      </trkpt>
      <trkpt lat="48.57893" lon="1.99917">
        <ele>100</ele>
        <time>2010-05-15T14:15:26Z</time>
      </trkpt>
      <trkpt lat="48.57893" lon="1.99918">
        <ele>100</ele>
        <time>2010-05-15T14:15:27Z</time>
      </trkpt>
      <trkpt lat="48.57895" lon="1.99919">
        <ele>100</ele>
        <time>2010-05-15T14:15:29Z</time>
      </trkpt>
      <trkpt lat="48.57895" lon="1.99921">
        <ele>100</ele>
        <time>2010-05-15T14:15:30Z</time>
      </trkpt>
      <trkpt lat="48.57896" lon="1.99924">
        <ele>100</ele>
        <time>2010-05-15T14:15:31Z</time>
      </trkpt>
      <trkpt lat="48.57897" lon="1.99926">
        <ele>100</ele>
        <time>2010-05-15T14:15:32Z</time>
      </trkpt>
      <trkpt lat="48.57898" lon="1.99928">
        <ele>100</ele>
        <time>2010-05-15T14:15:33Z</time>
      </trkpt>
      <trkpt lat="48.57899" lon="1.9993">
        <ele>100</ele>
        <time>2010-05-15T14:15:34Z</time>
      </trkpt>
      <trkpt lat="48.57901" lon="1.99932">
        <ele>100</ele>
        <time>2010-05-15T14:15:36Z</time>
      </trkpt>
      <trkpt lat="48.57902" lon="1.99935">
        <ele>100</ele>
        <time>2010-05-15T14:15:38Z</time>
      </trkpt>
      <trkpt lat="48.57903" lon="1.99937">
        <ele>100</ele>
        <time>2010-05-15T14:15:39Z</time>
      </trkpt>
      <trkpt lat="48.57903" lon="1.99938">
        <ele>100</ele>
        <time>2010-05-15T14:15:40Z</time>
      </trkpt>
      <trkpt lat="48.57905" lon="1.99941">
        <ele>101</ele>
        <time>2010-05-15T14:15:42Z</time>
      </trkpt>
      <trkpt lat="48.57905" lon="1.99943">
        <ele>101</ele>
        <time>2010-05-15T14:15:43Z</time>
      </trkpt>
      <trkpt lat="48.57906" lon="1.99945">
        <ele>101</ele>
        <time>2010-05-15T14:15:44Z</time>
      </trkpt>
      <trkpt lat="48.57907" lon="1.99947">
        <ele>101</ele>
        <time>2010-05-15T14:15:45Z</time>
      </trkpt>
      <trkpt lat="48.57908" lon="1.99949">
        <ele>101</ele>
        <time>2010-05-15T14:15:46Z</time>
      </trkpt>
      <trkpt lat="48.57908" lon="1.99952">
        <ele>101</ele>
        <time>2010-05-15T14:15:48Z</time>
      </trkpt>
      <trkpt lat="48.57909" lon="1.99954">
        <ele>102</ele>
        <time>2010-05-15T14:15:49Z</time>
      </trkpt>
      <trkpt lat="48.5791" lon="1.99959">
        <ele>102</ele>
        <time>2010-05-15T14:15:50Z</time>
      </trkpt>
      <trkpt lat="48.5791" lon="1.99963">
        <ele>102</ele>
        <time>2010-05-15T14:15:52Z</time>
      </trkpt>
      <trkpt lat="48.5791" lon="1.99968">
        <ele>102</ele>
        <time>2010-05-15T14:15:53Z</time>
      </trkpt>
      <trkpt lat="48.5791" lon="1.99972">
        <ele>102</ele>
        <time>2010-05-15T14:15:54Z</time>
      </trkpt>
      <trkpt lat="48.57911" lon="1.99975">
        <ele>102</ele>
        <time>2010-05-15T14:15:55Z</time>
      </trkpt>
      <trkpt lat="48.57911" lon="1.99978">
        <ele>102</ele>
        <time>2010-05-15T14:15:56Z</time>
      </trkpt>
      <trkpt lat="48.57911" lon="1.9998">
        <ele>102</ele>
        <time>2010-05-15T14:15:58Z</time>
      </trkpt>
      <trkpt lat="48.57912" lon="1.99983">
        <ele>102</ele>
        <time>2010-05-15T14:16:00Z</time>
      </trkpt>
      <trkpt lat="48.57914" lon="1.99985">
        <ele>102</ele>
        <time>2010-05-15T14:16:02Z</time>
      </trkpt>
      <trkpt lat="48.57915" lon="1.99989">
        <ele>102</ele>
        <time>2010-05-15T14:16:04Z</time>
      </trkpt>
      <trkpt lat="48.57916" lon="1.99992">
        <ele>102</ele>
        <time>2010-05-15T14:16:06Z</time>
      </trkpt>
      <trkpt lat="48.57917" lon="1.99995">
        <ele>102</ele>
        <time>2010-05-15T14:16:08Z</time>
      </trkpt>
      <trkpt lat="48.57919" lon="1.99999">
        <ele>102</ele>
        <time>2010-05-15T14:16:10Z</time>
      </trkpt>
      <trkpt lat="48.57921" lon="2.00002">
        <ele>102</ele>
        <time>2010-05-15T14:16:11Z</time>
      </trkpt>
      <trkpt lat="48.57922" lon="2.00004">
        <ele>102</ele>
        <time>2010-05-15T14:16:12Z</time>
      </trkpt>
      <trkpt lat="48.57924" lon="2.00009">
        <ele>102</ele>
        <time>2010-05-15T14:16:14Z</time>
      </trkpt>
      <trkpt lat="48.57924" lon="2.00011">
        <ele>102</ele>
        <time>2010-05-15T14:16:15Z</time>
      </trkpt>
      <trkpt lat="48.57925" lon="2.00013">
        <ele>102</ele>
        <time>2010-05-15T14:16:16Z</time>
      </trkpt>
      <trkpt lat="48.57927" lon="2.00017">
        <ele>102</ele>
        <time>2010-05-15T14:16:17Z</time>
      </trkpt>
      <trkpt lat="48.57928" lon="2.00018">
        <ele>102</ele>
        <time>2010-05-15T14:16:18Z</time>
      </trkpt>
      <trkpt lat="48.57928" lon="2.00021">
        <ele>102</ele>
        <time>2010-05-15T14:16:19Z</time>
      </trkpt>
      <trkpt lat="48.5793" lon="2.00023">
        <ele>102</ele>
        <time>2010-05-15T14:16:20Z</time>
      </trkpt>
      <trkpt lat="48.57932" lon="2.00024">
        <ele>102</ele>
        <time>2010-05-15T14:16:21Z</time>
      </trkpt>
      <trkpt lat="48.57933" lon="2.00025">
        <ele>102</ele>
        <time>2010-05-15T14:16:22Z</time>
      </trkpt>
      <trkpt lat="48.57934" lon="2.00027">
        <ele>102</ele>
        <time>2010-05-15T14:16:23Z</time>
      </trkpt>
      <trkpt lat="48.57935" lon="2.0003">
        <ele>102</ele>
        <time>2010-05-15T14:16:24Z</time>
      </trkpt>
      <trkpt lat="48.57935" lon="2.00032">
        <ele>102</ele>
        <time>2010-05-15T14:16:25Z</time>
      </trkpt>
      <trkpt lat="48.57937" lon="2.00035">
        <ele>102</ele>
        <time>2010-05-15T14:16:27Z</time>
      </trkpt>
      <trkpt lat="48.57938" lon="2.00037">
        <ele>102</ele>
        <time>2010-05-15T14:16:29Z</time>
      </trkpt>
      <trkpt lat="48.57938" lon="2.00039">
        <ele>102</ele>
        <time>2010-05-15T14:16:30Z</time>
      </trkpt>
      <trkpt lat="48.57938" lon="2.00042">
        <ele>102</ele>
        <time>2010-05-15T14:16:31Z</time>
      </trkpt>
      <trkpt lat="48.57939" lon="2.00045">
        <ele>102</ele>
        <time>2010-05-15T14:16:32Z</time>
      </trkpt>
      <trkpt lat="48.57939" lon="2.00048">
        <ele>102</ele>
        <time>2010-05-15T14:16:33Z</time>
      </trkpt>
      <trkpt lat="48.57939" lon="2.0005">
        <ele>103</ele>
        <time>2010-05-15T14:16:34Z</time>
      </trkpt>
      <trkpt lat="48.5794" lon="2.00054">
        <ele>103</ele>
        <time>2010-05-15T14:16:35Z</time>
      </trkpt>
      <trkpt lat="48.5794" lon="2.00057">
        <ele>104</ele>
        <time>2010-05-15T14:16:36Z</time>
      </trkpt>
      <trkpt lat="48.5794" lon="2.00061">
        <ele>104</ele>
        <time>2010-05-15T14:16:37Z</time>
      </trkpt>
      <trkpt lat="48.57941" lon="2.00065">
        <ele>104</ele>
        <time>2010-05-15T14:16:38Z</time>
      </trkpt>
      <trkpt lat="48.57942" lon="2.00069">
        <ele>105</ele>
        <time>2010-05-15T14:16:39Z</time>
      </trkpt>
      <trkpt lat="48.57942" lon="2.00071">
        <ele>106</ele>
        <time>2010-05-15T14:16:40Z</time>
      </trkpt>
      <trkpt lat="48.57941" lon="2.00074">
        <ele>107</ele>
        <time>2010-05-15T14:16:41Z</time>
      </trkpt>
      <trkpt lat="48.57941" lon="2.00079">
        <ele>108</ele>
        <time>2010-05-15T14:16:42Z</time>
      </trkpt>
      <trkpt lat="48.57941" lon="2.00083">
        <ele>108</ele>
        <time>2010-05-15T14:16:43Z</time>
      </trkpt>
      <trkpt lat="48.5794" lon="2.00088">
        <ele>109</ele>
        <time>2010-05-15T14:16:44Z</time>
      </trkpt>
      <trkpt lat="48.5794" lon="2.00095">
        <ele>110</ele>
        <time>2010-05-15T14:16:45Z</time>
      </trkpt>
      <trkpt lat="48.5794" lon="2.00102">
        <ele>110</ele>
        <time>2010-05-15T14:16:46Z</time>
      </trkpt>
      <trkpt lat="48.57939" lon="2.00109">
        <ele>110</ele>
        <time>2010-05-15T14:16:47Z</time>
      </trkpt>
      <trkpt lat="48.57939" lon="2.00115">
        <ele>110</ele>
        <time>2010-05-15T14:16:48Z</time>
      </trkpt>
      <trkpt lat="48.57938" lon="2.00121">
        <ele>111</ele>
        <time>2010-05-15T14:16:49Z</time>
      </trkpt>
      <trkpt lat="48.57938" lon="2.00128">
        <ele>111</ele>
        <time>2010-05-15T14:16:50Z</time>
      </trkpt>
      <trkpt lat="48.57937" lon="2.00135">
        <ele>112</ele>
        <time>2010-05-15T14:16:51Z</time>
      </trkpt>
      <trkpt lat="48.57937" lon="2.00141">
        <ele>112</ele>
        <time>2010-05-15T14:16:52Z</time>
      </trkpt>
      <trkpt lat="48.57936" lon="2.00148">
        <ele>113</ele>
        <time>2010-05-15T14:16:53Z</time>
      </trkpt>
      <trkpt lat="48.57933" lon="2.00155">
        <ele>113</ele>
        <time>2010-05-15T14:16:54Z</time>
      </trkpt>
      <trkpt lat="48.57932" lon="2.00163">
        <ele>113</ele>
        <time>2010-05-15T14:16:55Z</time>
      </trkpt>
      <trkpt lat="48.5793" lon="2.00171">
        <ele>113</ele>
        <time>2010-05-15T14:16:56Z</time>
      </trkpt>
      <trkpt lat="48.57929" lon="2.00179">
        <ele>114</ele>
        <time>2010-05-15T14:16:57Z</time>
      </trkpt>
      <trkpt lat="48.57927" lon="2.00187">
        <ele>115</ele>
        <time>2010-05-15T14:16:58Z</time>
      </trkpt>
      <trkpt lat="48.57926" lon="2.00195">
        <ele>115</ele>
        <time>2010-05-15T14:16:59Z</time>
      </trkpt>
      <trkpt lat="48.57925" lon="2.00203">
        <ele>116</ele>
        <time>2010-05-15T14:17:00Z</time>
      </trkpt>
      <trkpt lat="48.57925" lon="2.00212">
        <ele>116</ele>
        <time>2010-05-15T14:17:01Z</time>
      </trkpt>
      <trkpt lat="48.57923" lon="2.00218">
        <ele>117</ele>
        <time>2010-05-15T14:17:02Z</time>
      </trkpt>
      <trkpt lat="48.57922" lon="2.00228">
        <ele>117</ele>
        <time>2010-05-15T14:17:03Z</time>
      </trkpt>
      <trkpt lat="48.57918" lon="2.00236">
        <ele>118</ele>
        <time>2010-05-15T14:17:04Z</time>
      </trkpt>
      <trkpt lat="48.57916" lon="2.00246">
        <ele>119</ele>
        <time>2010-05-15T14:17:05Z</time>
      </trkpt>
      <trkpt lat="48.57914" lon="2.00256">
        <ele>119</ele>
        <time>2010-05-15T14:17:06Z</time>
      </trkpt>
      <trkpt lat="48.57913" lon="2.00265">
        <ele>120</ele>
        <time>2010-05-15T14:17:07Z</time>
      </trkpt>
      <trkpt lat="48.57911" lon="2.00275">
        <ele>120</ele>
        <time>2010-05-15T14:17:08Z</time>
      </trkpt>
      <trkpt lat="48.5791" lon="2.00285">
        <ele>120</ele>
        <time>2010-05-15T14:17:09Z</time>
      </trkpt>
      <trkpt lat="48.57907" lon="2.00294">
        <ele>120</ele>
        <time>2010-05-15T14:17:10Z</time>
      </trkpt>
      <trkpt lat="48.57906" lon="2.00302">
        <ele>120</ele>
        <time>2010-05-15T14:17:11Z</time>
      </trkpt>
      <trkpt lat="48.57904" lon="2.00311">
        <ele>120</ele>
        <time>2010-05-15T14:17:12Z</time>
      </trkpt>
      <trkpt lat="48.57902" lon="2.00319">
        <ele>120</ele>
        <time>2010-05-15T14:17:13Z</time>
      </trkpt>
      <trkpt lat="48.579" lon="2.00326">
        <ele>120</ele>
        <time>2010-05-15T14:17:14Z</time>
      </trkpt>
      <trkpt lat="48.57898" lon="2.00335">
        <ele>120</ele>
        <time>2010-05-15T14:17:15Z</time>
      </trkpt>
      <trkpt lat="48.57896" lon="2.00345">
        <ele>120</ele>
        <time>2010-05-15T14:17:16Z</time>
      </trkpt>
      <trkpt lat="48.57894" lon="2.00355">
        <ele>120</ele>
        <time>2010-05-15T14:17:17Z</time>
      </trkpt>
      <trkpt lat="48.57893" lon="2.00365">
        <ele>120</ele>
        <time>2010-05-15T14:17:18Z</time>
      </trkpt>
      <trkpt lat="48.57892" lon="2.00375">
        <ele>120</ele>
        <time>2010-05-15T14:17:19Z</time>
      </trkpt>
      <trkpt lat="48.57891" lon="2.00385">
        <ele>120</ele>
        <time>2010-05-15T14:17:20Z</time>
      </trkpt>
      <trkpt lat="48.57891" lon="2.00394">
        <ele>120</ele>
        <time>2010-05-15T14:17:21Z</time>
      </trkpt>
      <trkpt lat="48.57891" lon="2.00404">
        <ele>120</ele>
        <time>2010-05-15T14:17:22Z</time>
      </trkpt>
      <trkpt lat="48.5789" lon="2.00413">
        <ele>120</ele>
        <time>2010-05-15T14:17:23Z</time>
      </trkpt>
      <trkpt lat="48.57891" lon="2.00421">
        <ele>120</ele>
        <time>2010-05-15T14:17:24Z</time>
      </trkpt>
      <trkpt lat="48.57891" lon="2.00429">
        <ele>120</ele>
        <time>2010-05-15T14:17:25Z</time>
      </trkpt>
      <trkpt lat="48.57891" lon="2.00437">
        <ele>120</ele>
        <time>2010-05-15T14:17:26Z</time>
      </trkpt>
      <trkpt lat="48.57891" lon="2.00447">
        <ele>120</ele>
        <time>2010-05-15T14:17:27Z</time>
      </trkpt>
      <trkpt lat="48.57893" lon="2.00458">
        <ele>120</ele>
        <time>2010-05-15T14:17:28Z</time>
      </trkpt>
      <trkpt lat="48.57893" lon="2.00467">
        <ele>120</ele>
        <time>2010-05-15T14:17:29Z</time>
      </trkpt>
      <trkpt lat="48.57895" lon="2.00476">
        <ele>120</ele>
        <time>2010-05-15T14:17:30Z</time>
      </trkpt>
      <trkpt lat="48.57897" lon="2.00487">
        <ele>120</ele>
        <time>2010-05-15T14:17:31Z</time>
      </trkpt>
      <trkpt lat="48.57902" lon="2.00495">
        <ele>120</ele>
        <time>2010-05-15T14:17:32Z</time>
      </trkpt>
      <trkpt lat="48.57906" lon="2.00506">
        <ele>120</ele>
        <time>2010-05-15T14:17:33Z</time>
      </trkpt>
      <trkpt lat="48.5791" lon="2.00512">
        <ele>120</ele>
        <time>2010-05-15T14:17:34Z</time>
      </trkpt>
      <trkpt lat="48.57913" lon="2.00521">
        <ele>119</ele>
        <time>2010-05-15T14:17:35Z</time>
      </trkpt>
      <trkpt lat="48.57917" lon="2.0053">
        <ele>118</ele>
        <time>2010-05-15T14:17:36Z</time>
      </trkpt>
      <trkpt lat="48.5792" lon="2.00539">
        <ele>117</ele>
        <time>2010-05-15T14:17:37Z</time>
      </trkpt>
      <trkpt lat="48.57924" lon="2.00547">
        <ele>116</ele>
        <time>2010-05-15T14:17:38Z</time>
      </trkpt>
      <trkpt lat="48.57927" lon="2.00554">
        <ele>115</ele>
        <time>2010-05-15T14:17:39Z</time>
      </trkpt>
      <trkpt lat="48.5793" lon="2.0056">
        <ele>114</ele>
        <time>2010-05-15T14:17:40Z</time>
      </trkpt>
      <trkpt lat="48.57933" lon="2.00568">
        <ele>113</ele>
        <time>2010-05-15T14:17:41Z</time>
      </trkpt>
      <trkpt lat="48.57937" lon="2.00579">
        <ele>112</ele>
        <time>2010-05-15T14:17:42Z</time>
      </trkpt>
      <trkpt lat="48.57941" lon="2.00589">
        <ele>111</ele>
        <time>2010-05-15T14:17:43Z</time>
      </trkpt>
      <trkpt lat="48.57945" lon="2.00598">
        <ele>111</ele>
        <time>2010-05-15T14:17:44Z</time>
      </trkpt>
      <trkpt lat="48.57949" lon="2.00609">
        <ele>110</ele>
        <time>2010-05-15T14:17:45Z</time>
      </trkpt>
      <trkpt lat="48.57953" lon="2.00619">
        <ele>110</ele>
        <time>2010-05-15T14:17:46Z</time>
      </trkpt>
      <trkpt lat="48.57957" lon="2.00629">
        <ele>109</ele>
        <time>2010-05-15T14:17:47Z</time>
      </trkpt>
      <trkpt lat="48.57961" lon="2.00638">
        <ele>108</ele>
        <time>2010-05-15T14:17:48Z</time>
      </trkpt>
      <trkpt lat="48.57967" lon="2.00648">
        <ele>107</ele>
        <time>2010-05-15T14:17:49Z</time>
      </trkpt>
      <trkpt lat="48.57969" lon="2.00657">
        <ele>106</ele>
        <time>2010-05-15T14:17:50Z</time>
      </trkpt>
      <trkpt lat="48.57972" lon="2.00666">
        <ele>105</ele>
        <time>2010-05-15T14:17:51Z</time>
      </trkpt>
      <trkpt lat="48.57974" lon="2.00675">
        <ele>104</ele>
        <time>2010-05-15T14:17:52Z</time>
      </trkpt>
      <trkpt lat="48.57978" lon="2.00683">
        <ele>103</ele>
        <time>2010-05-15T14:17:53Z</time>
      </trkpt>
      <trkpt lat="48.57983" lon="2.00692">
        <ele>102</ele>
        <time>2010-05-15T14:17:54Z</time>
      </trkpt>
      <trkpt lat="48.57987" lon="2.007">
        <ele>102</ele>
        <time>2010-05-15T14:17:55Z</time>
      </trkpt>
      <trkpt lat="48.5799" lon="2.00709">
        <ele>101</ele>
        <time>2010-05-15T14:17:56Z</time>
      </trkpt>
      <trkpt lat="48.57994" lon="2.00718">
        <ele>101</ele>
        <time>2010-05-15T14:17:57Z</time>
      </trkpt>
      <trkpt lat="48.57997" lon="2.00727">
        <ele>100</ele>
        <time>2010-05-15T14:17:58Z</time>
      </trkpt>
      <trkpt lat="48.58003" lon="2.00736">
        <ele>100</ele>
        <time>2010-05-15T14:17:59Z</time>
      </trkpt>
      <trkpt lat="48.58007" lon="2.00745">
        <ele>100</ele>
        <time>2010-05-15T14:18:00Z</time>
      </trkpt>
      <trkpt lat="48.58012" lon="2.00753">
        <ele>100</ele>
        <time>2010-05-15T14:18:01Z</time>
      </trkpt>
      <trkpt lat="48.58017" lon="2.00762">
        <ele>100</ele>
        <time>2010-05-15T14:18:02Z</time>
      </trkpt>
      <trkpt lat="48.58021" lon="2.00771">
        <ele>100</ele>
        <time>2010-05-15T14:18:03Z</time>
      </trkpt>
      <trkpt lat="48.58026" lon="2.0078">
        <ele>100</ele>
        <time>2010-05-15T14:18:04Z</time>
      </trkpt>
      <trkpt lat="48.58029" lon="2.00789">
        <ele>100</ele>
        <time>2010-05-15T14:18:05Z</time>
      </trkpt>
      <trkpt lat="48.58033" lon="2.00798">
        <ele>100</ele>
        <time>2010-05-15T14:18:06Z</time>
      </trkpt>
      <trkpt lat="48.58035" lon="2.00808">
        <ele>100</ele>
        <time>2010-05-15T14:18:07Z</time>
      </trkpt>
      <trkpt lat="48.58037" lon="2.0082">
        <ele>100</ele>
        <time>2010-05-15T14:18:08Z</time>
      </trkpt>
      <trkpt lat="48.58039" lon="2.00828">
        <ele>100</ele>
        <time>2010-05-15T14:18:09Z</time>
      </trkpt>
      <trkpt lat="48.58041" lon="2.00837">
        <ele>99</ele>
        <time>2010-05-15T14:18:10Z</time>
      </trkpt>
      <trkpt lat="48.58043" lon="2.00845">
        <ele>98</ele>
        <time>2010-05-15T14:18:11Z</time>
      </trkpt>
      <trkpt lat="48.58044" lon="2.00853">
        <ele>97</ele>
        <time>2010-05-15T14:18:12Z</time>
      </trkpt>
      <trkpt lat="48.58046" lon="2.0086">
        <ele>97</ele>
        <time>2010-05-15T14:18:13Z</time>
      </trkpt>
      <trkpt lat="48.58048" lon="2.00867">
        <ele>96</ele>
        <time>2010-05-15T14:18:14Z</time>
      </trkpt>
      <trkpt lat="48.5805" lon="2.00874">
        <ele>96</ele>
        <time>2010-05-15T14:18:15Z</time>
      </trkpt>
      <trkpt lat="48.58053" lon="2.00881">
        <ele>96</ele>
        <time>2010-05-15T14:18:16Z</time>
      </trkpt>
      <trkpt lat="48.58055" lon="2.00888">
        <ele>96</ele>
        <time>2010-05-15T14:18:17Z</time>
      </trkpt>
      <trkpt lat="48.58058" lon="2.00896">
        <ele>96</ele>
        <time>2010-05-15T14:18:18Z</time>
      </trkpt>
      <trkpt lat="48.58061" lon="2.00906">
        <ele>96</ele>
        <time>2010-05-15T14:18:19Z</time>
      </trkpt>
      <trkpt lat="48.58065" lon="2.00915">
        <ele>96</ele>
        <time>2010-05-15T14:18:20Z</time>
      </trkpt>
      <trkpt lat="48.58068" lon="2.00923">
        <ele>96</ele>
        <time>2010-05-15T14:18:21Z</time>
      </trkpt>
      <trkpt lat="48.5807" lon="2.00929">
        <ele>96</ele>
        <time>2010-05-15T14:18:22Z</time>
      </trkpt>
      <trkpt lat="48.58073" lon="2.00936">
        <ele>96</ele>
        <time>2010-05-15T14:18:23Z</time>
      </trkpt>
      <trkpt lat="48.58074" lon="2.00942">
        <ele>96</ele>
        <time>2010-05-15T14:18:24Z</time>
      </trkpt>
      <trkpt lat="48.58076" lon="2.00949">
        <ele>96</ele>
        <time>2010-05-15T14:18:25Z</time>
      </trkpt>
      <trkpt lat="48.58078" lon="2.00956">
        <ele>96</ele>
        <time>2010-05-15T14:18:26Z</time>
      </trkpt>
      <trkpt lat="48.5808" lon="2.00963">
        <ele>96</ele>
        <time>2010-05-15T14:18:27Z</time>
      </trkpt>
      <trkpt lat="48.58081" lon="2.00969">
        <ele>96</ele>
        <time>2010-05-15T14:18:28Z</time>
      </trkpt>
      <trkpt lat="48.58083" lon="2.00976">
        <ele>96</ele>
        <time>2010-05-15T14:18:29Z</time>
      </trkpt>
      <trkpt lat="48.58085" lon="2.00982">
        <ele>97</ele>
        <time>2010-05-15T14:18:30Z</time>
      </trkpt>
      <trkpt lat="48.58086" lon="2.00989">
        <ele>98</ele>
        <time>2010-05-15T14:18:31Z</time>
      </trkpt>
      <trkpt lat="48.58088" lon="2.00997">
        <ele>99</ele>
        <time>2010-05-15T14:18:32Z</time>
      </trkpt>
      <trkpt lat="48.58089" lon="2.01005">
        <ele>100</ele>
        <time>2010-05-15T14:18:33Z</time>
      </trkpt>
      <trkpt lat="48.58091" lon="2.01012">
        <ele>101</ele>
        <time>2010-05-15T14:18:34Z</time>
      </trkpt>
      <trkpt lat="48.58093" lon="2.01019">
        <ele>101</ele>
        <time>2010-05-15T14:18:35Z</time>
      </trkpt>
      <trkpt lat="48.58094" lon="2.01025">
        <ele>102</ele>
        <time>2010-05-15T14:18:36Z</time>
      </trkpt>
      <trkpt lat="48.58096" lon="2.01032">
        <ele>102</ele>
        <time>2010-05-15T14:18:37Z</time>
      </trkpt>
      <trkpt lat="48.58097" lon="2.01038">
        <ele>102</ele>
        <time>2010-05-15T14:18:38Z</time>
      </trkpt>
      <trkpt lat="48.58098" lon="2.01044">
        <ele>103</ele>
        <time>2010-05-15T14:18:39Z</time>
      </trkpt>
      <trkpt lat="48.58099" lon="2.0105">
        <ele>104</ele>
        <time>2010-05-15T14:18:40Z</time>
      </trkpt>
      <trkpt lat="48.581" lon="2.01056">
        <ele>104</ele>
        <time>2010-05-15T14:18:41Z</time>
      </trkpt>
      <trkpt lat="48.581" lon="2.01061">
        <ele>105</ele>
        <time>2010-05-15T14:18:42Z</time>
      </trkpt>
      <trkpt lat="48.58102" lon="2.01065">
        <ele>105</ele>
        <time>2010-05-15T14:18:43Z</time>
      </trkpt>
      <trkpt lat="48.58103" lon="2.0107">
        <ele>105</ele>
        <time>2010-05-15T14:18:44Z</time>
      </trkpt>
      <trkpt lat="48.58103" lon="2.01074">
        <ele>105</ele>
        <time>2010-05-15T14:18:45Z</time>
      </trkpt>
      <trkpt lat="48.58104" lon="2.01078">
        <ele>106</ele>
        <time>2010-05-15T14:18:46Z</time>
      </trkpt>
      <trkpt lat="48.58105" lon="2.01082">
        <ele>106</ele>
        <time>2010-05-15T14:18:47Z</time>
      </trkpt>
      <trkpt lat="48.58106" lon="2.01086">
        <ele>106</ele>
        <time>2010-05-15T14:18:48Z</time>
      </trkpt>
      <trkpt lat="48.58107" lon="2.0109">
        <ele>106</ele>
        <time>2010-05-15T14:18:49Z</time>
      </trkpt>
      <trkpt lat="48.58108" lon="2.01094">
        <ele>106</ele>
        <time>2010-05-15T14:18:50Z</time>
      </trkpt>
      <trkpt lat="48.58108" lon="2.01098">
        <ele>106</ele>
        <time>2010-05-15T14:18:51Z</time>
      </trkpt>
      <trkpt lat="48.58109" lon="2.01102">
        <ele>106</ele>
        <time>2010-05-15T14:18:52Z</time>
      </trkpt>
      <trkpt lat="48.58111" lon="2.01107">
        <ele>106</ele>
        <time>2010-05-15T14:18:53Z</time>
      </trkpt>
      <trkpt lat="48.58114" lon="2.01112">
        <ele>106</ele>
        <time>2010-05-15T14:18:54Z</time>
      </trkpt>
      <trkpt lat="48.58115" lon="2.01117">
        <ele>106</ele>
        <time>2010-05-15T14:18:55Z</time>
      </trkpt>
      <trkpt lat="48.58116" lon="2.01123">
        <ele>106</ele>
        <time>2010-05-15T14:18:56Z</time>
      </trkpt>
      <trkpt lat="48.58117" lon="2.01128">
        <ele>106</ele>
        <time>2010-05-15T14:18:57Z</time>
      </trkpt>
      <trkpt lat="48.58118" lon="2.01132">
        <ele>106</ele>
        <time>2010-05-15T14:18:58Z</time>
      </trkpt>
      <trkpt lat="48.58121" lon="2.01137">
        <ele>106</ele>
        <time>2010-05-15T14:18:59Z</time>
      </trkpt>
      <trkpt lat="48.58124" lon="2.01141">
        <ele>106</ele>
        <time>2010-05-15T14:19:00Z</time>
      </trkpt>
      <trkpt lat="48.58128" lon="2.01144">
        <ele>106</ele>
        <time>2010-05-15T14:19:01Z</time>
      </trkpt>
      <trkpt lat="48.58134" lon="2.01144">
        <ele>105</ele>
        <time>2010-05-15T14:19:02Z</time>
      </trkpt>
      <trkpt lat="48.5814" lon="2.01143">
        <ele>104</ele>
        <time>2010-05-15T14:19:03Z</time>
      </trkpt>
      <trkpt lat="48.58146" lon="2.01141">
        <ele>103</ele>
        <time>2010-05-15T14:19:04Z</time>
      </trkpt>
      <trkpt lat="48.58151" lon="2.01139">
        <ele>102</ele>
        <time>2010-05-15T14:19:05Z</time>
      </trkpt>
      <trkpt lat="48.58156" lon="2.01137">
        <ele>102</ele>
        <time>2010-05-15T14:19:06Z</time>
      </trkpt>
      <trkpt lat="48.58162" lon="2.01135">
        <ele>101</ele>
        <time>2010-05-15T14:19:07Z</time>
      </trkpt>
      <trkpt lat="48.58167" lon="2.01133">
        <ele>100</ele>
        <time>2010-05-15T14:19:08Z</time>
      </trkpt>
      <trkpt lat="48.58172" lon="2.01131">
        <ele>100</ele>
        <time>2010-05-15T14:19:09Z</time>
      </trkpt>
      <trkpt lat="48.58178" lon="2.01129">
        <ele>99</ele>
        <time>2010-05-15T14:19:10Z</time>
      </trkpt>
      <trkpt lat="48.58184" lon="2.01127">
        <ele>99</ele>
        <time>2010-05-15T14:19:11Z</time>
      </trkpt>
      <trkpt lat="48.58189" lon="2.01124">
        <ele>98</ele>
        <time>2010-05-15T14:19:12Z</time>
      </trkpt>
      <trkpt lat="48.58195" lon="2.01121">
        <ele>98</ele>
        <time>2010-05-15T14:19:13Z</time>
      </trkpt>
      <trkpt lat="48.582" lon="2.01118">
        <ele>98</ele>
        <time>2010-05-15T14:19:14Z</time>
      </trkpt>
      <trkpt lat="48.58206" lon="2.01116">
        <ele>97</ele>
        <time>2010-05-15T14:19:15Z</time>
      </trkpt>
      <trkpt lat="48.58212" lon="2.01113">
        <ele>97</ele>
        <time>2010-05-15T14:19:16Z</time>
      </trkpt>
      <trkpt lat="48.58218" lon="2.0111">
        <ele>97</ele>
        <time>2010-05-15T14:19:17Z</time>
      </trkpt>
      <trkpt lat="48.58224" lon="2.01108">
        <ele>97</ele>
        <time>2010-05-15T14:19:18Z</time>
      </trkpt>
      <trkpt lat="48.5823" lon="2.01105">
        <ele>97</ele>
        <time>2010-05-15T14:19:19Z</time>
      </trkpt>
      <trkpt lat="48.58236" lon="2.01103">
        <ele>97</ele>
        <time>2010-05-15T14:19:20Z</time>
      </trkpt>
      <trkpt lat="48.58242" lon="2.01102">
        <ele>97</ele>
        <time>2010-05-15T14:19:21Z</time>
      </trkpt>
      <trkpt lat="48.58247" lon="2.01102">
        <ele>97</ele>
        <time>2010-05-15T14:19:22Z</time>
      </trkpt>
      <trkpt lat="48.58253" lon="2.01099">
        <ele>97</ele>
        <time>2010-05-15T14:19:23Z</time>
      </trkpt>
      <trkpt lat="48.58259" lon="2.01096">
        <ele>97</ele>
        <time>2010-05-15T14:19:24Z</time>
      </trkpt>
      <trkpt lat="48.58266" lon="2.01093">
        <ele>97</ele>
        <time>2010-05-15T14:19:25Z</time>
      </trkpt>
      <trkpt lat="48.58273" lon="2.01089">
        <ele>97</ele>
        <time>2010-05-15T14:19:26Z</time>
      </trkpt>
      <trkpt lat="48.58279" lon="2.01085">
        <ele>97</ele>
        <time>2010-05-15T14:19:27Z</time>
      </trkpt>
      <trkpt lat="48.58286" lon="2.01082">
        <ele>97</ele>
        <time>2010-05-15T14:19:28Z</time>
      </trkpt>
      <trkpt lat="48.58292" lon="2.0108">
        <ele>97</ele>
        <time>2010-05-15T14:19:29Z</time>
      </trkpt>
      <trkpt lat="48.58299" lon="2.01078">
        <ele>97</ele>
        <time>2010-05-15T14:19:30Z</time>
      </trkpt>
      <trkpt lat="48.58306" lon="2.01078">
        <ele>97</ele>
        <time>2010-05-15T14:19:31Z</time>
      </trkpt>
      <trkpt lat="48.58312" lon="2.01074">
        <ele>97</ele>
        <time>2010-05-15T14:19:32Z</time>
      </trkpt>
      <trkpt lat="48.58317" lon="2.0107">
        <ele>97</ele>
        <time>2010-05-15T14:19:33Z</time>
      </trkpt>
      <trkpt lat="48.58323" lon="2.01066">
        <ele>97</ele>
        <time>2010-05-15T14:19:34Z</time>
      </trkpt>
      <trkpt lat="48.58328" lon="2.01063">
        <ele>97</ele>
        <time>2010-05-15T14:19:35Z</time>
      </trkpt>
      <trkpt lat="48.58334" lon="2.01061">
        <ele>96</ele>
        <time>2010-05-15T14:19:36Z</time>
      </trkpt>
      <trkpt lat="48.5834" lon="2.01058">
        <ele>95</ele>
        <time>2010-05-15T14:19:37Z</time>
      </trkpt>
      <trkpt lat="48.58346" lon="2.01056">
        <ele>95</ele>
        <time>2010-05-15T14:19:38Z</time>
      </trkpt>
      <trkpt lat="48.58352" lon="2.01055">
        <ele>95</ele>
        <time>2010-05-15T14:19:39Z</time>
      </trkpt>
      <trkpt lat="48.58358" lon="2.01052">
        <ele>95</ele>
        <time>2010-05-15T14:19:40Z</time>
      </trkpt>
      <trkpt lat="48.58364" lon="2.01051">
        <ele>95</ele>
        <time>2010-05-15T14:19:41Z</time>
      </trkpt>
      <trkpt lat="48.58369" lon="2.0105">
        <ele>95</ele>
        <time>2010-05-15T14:19:42Z</time>
      </trkpt>
      <trkpt lat="48.58375" lon="2.01047">
        <ele>95</ele>
        <time>2010-05-15T14:19:43Z</time>
      </trkpt>
      <trkpt lat="48.5838" lon="2.01044">
        <ele>96</ele>
        <time>2010-05-15T14:19:44Z</time>
      </trkpt>
      <trkpt lat="48.58385" lon="2.01041">
        <ele>97</ele>
        <time>2010-05-15T14:19:45Z</time>
      </trkpt>
      <trkpt lat="48.5839" lon="2.01037">
        <ele>98</ele>
        <time>2010-05-15T14:19:46Z</time>
      </trkpt>
      <trkpt lat="48.58395" lon="2.01034">
        <ele>99</ele>
        <time>2010-05-15T14:19:47Z</time>
      </trkpt>
      <trkpt lat="48.58399" lon="2.01029">
        <ele>100</ele>
        <time>2010-05-15T14:19:48Z</time>
      </trkpt>
      <trkpt lat="48.58403" lon="2.01022">
        <ele>101</ele>
        <time>2010-05-15T14:19:49Z</time>
      </trkpt>
      <trkpt lat="48.58406" lon="2.01017">
        <ele>102</ele>
        <time>2010-05-15T14:19:50Z</time>
      </trkpt>
      <trkpt lat="48.58409" lon="2.01012">
        <ele>102</ele>
        <time>2010-05-15T14:19:51Z</time>
      </trkpt>
      <trkpt lat="48.58412" lon="2.01008">
        <ele>102</ele>
        <time>2010-05-15T14:19:52Z</time>
      </trkpt>
      <trkpt lat="48.58415" lon="2.01005">
        <ele>102</ele>
        <time>2010-05-15T14:19:53Z</time>
      </trkpt>
      <trkpt lat="48.58419" lon="2.01003">
        <ele>102</ele>
        <time>2010-05-15T14:19:54Z</time>
      </trkpt>
      <trkpt lat="48.58423" lon="2.01003">
        <ele>102</ele>
        <time>2010-05-15T14:19:55Z</time>
      </trkpt>
      <trkpt lat="48.58426" lon="2.01006">
        <ele>102</ele>
        <time>2010-05-15T14:19:56Z</time>
      </trkpt>
      <trkpt lat="48.58429" lon="2.01013">
        <ele>102</ele>
        <time>2010-05-15T14:19:57Z</time>
      </trkpt>
      <trkpt lat="48.58433" lon="2.0102">
        <ele>102</ele>
        <time>2010-05-15T14:19:58Z</time>
      </trkpt>
      <trkpt lat="48.58437" lon="2.01026">
        <ele>102</ele>
        <time>2010-05-15T14:19:59Z</time>
      </trkpt>
      <trkpt lat="48.5844" lon="2.01033">
        <ele>102</ele>
        <time>2010-05-15T14:20:00Z</time>
      </trkpt>
      <trkpt lat="48.58443" lon="2.01041">
        <ele>102</ele>
        <time>2010-05-15T14:20:01Z</time>
      </trkpt>
      <trkpt lat="48.58446" lon="2.01049">
        <ele>102</ele>
        <time>2010-05-15T14:20:02Z</time>
      </trkpt>
      <trkpt lat="48.58449" lon="2.01057">
        <ele>102</ele>
        <time>2010-05-15T14:20:03Z</time>
      </trkpt>
      <trkpt lat="48.5845" lon="2.01065">
        <ele>102</ele>
        <time>2010-05-15T14:20:04Z</time>
      </trkpt>
      <trkpt lat="48.58454" lon="2.01075">
        <ele>102</ele>
        <time>2010-05-15T14:20:05Z</time>
      </trkpt>
      <trkpt lat="48.58458" lon="2.01084">
        <ele>102</ele>
        <time>2010-05-15T14:20:06Z</time>
      </trkpt>
      <trkpt lat="48.58462" lon="2.01092">
        <ele>101</ele>
        <time>2010-05-15T14:20:07Z</time>
      </trkpt>
      <trkpt lat="48.58466" lon="2.011">
        <ele>101</ele>
        <time>2010-05-15T14:20:08Z</time>
      </trkpt>
      <trkpt lat="48.5847" lon="2.01109">
        <ele>101</ele>
        <time>2010-05-15T14:20:09Z</time>
      </trkpt>
      <trkpt lat="48.58474" lon="2.01116">
        <ele>101</ele>
        <time>2010-05-15T14:20:10Z</time>
      </trkpt>
      <trkpt lat="48.58478" lon="2.01124">
        <ele>101</ele>
        <time>2010-05-15T14:20:11Z</time>
      </trkpt>
      <trkpt lat="48.58483" lon="2.01132">
        <ele>101</ele>
        <time>2010-05-15T14:20:12Z</time>
      </trkpt>
      <trkpt lat="48.58487" lon="2.01139">
        <ele>101</ele>
        <time>2010-05-15T14:20:13Z</time>
      </trkpt>
      <trkpt lat="48.58491" lon="2.01146">
        <ele>101</ele>
        <time>2010-05-15T14:20:14Z</time>
      </trkpt>
      <trkpt lat="48.58495" lon="2.01153">
        <ele>101</ele>
        <time>2010-05-15T14:20:15Z</time>
      </trkpt>
      <trkpt lat="48.58498" lon="2.0116">
        <ele>101</ele>
        <time>2010-05-15T14:20:16Z</time>
      </trkpt>
      <trkpt lat="48.58502" lon="2.01167">
        <ele>101</ele>
        <time>2010-05-15T14:20:17Z</time>
      </trkpt>
      <trkpt lat="48.58506" lon="2.01174">
        <ele>101</ele>
        <time>2010-05-15T14:20:18Z</time>
      </trkpt>
      <trkpt lat="48.58509" lon="2.01181">
        <ele>101</ele>
        <time>2010-05-15T14:20:19Z</time>
      </trkpt>
      <trkpt lat="48.58513" lon="2.01188">
        <ele>101</ele>
        <time>2010-05-15T14:20:20Z</time>
      </trkpt>
      <trkpt lat="48.58516" lon="2.01195">
        <ele>101</ele>
        <time>2010-05-15T14:20:21Z</time>
      </trkpt>
      <trkpt lat="48.5852" lon="2.01203">
        <ele>101</ele>
        <time>2010-05-15T14:20:22Z</time>
      </trkpt>
      <trkpt lat="48.58524" lon="2.0121">
        <ele>101</ele>
        <time>2010-05-15T14:20:23Z</time>
      </trkpt>
      <trkpt lat="48.58527" lon="2.01217">
        <ele>101</ele>
        <time>2010-05-15T14:20:24Z</time>
      </trkpt>
      <trkpt lat="48.5853" lon="2.01224">
        <ele>101</ele>
        <time>2010-05-15T14:20:25Z</time>
      </trkpt>
      <trkpt lat="48.58534" lon="2.01231">
        <ele>101</ele>
        <time>2010-05-15T14:20:26Z</time>
      </trkpt>
      <trkpt lat="48.58538" lon="2.01239">
        <ele>101</ele>
        <time>2010-05-15T14:20:27Z</time>
      </trkpt>
      <trkpt lat="48.58541" lon="2.01246">
        <ele>101</ele>
        <time>2010-05-15T14:20:28Z</time>
      </trkpt>
      <trkpt lat="48.58545" lon="2.01252">
        <ele>101</ele>
        <time>2010-05-15T14:20:29Z</time>
      </trkpt>
      <trkpt lat="48.5855" lon="2.01259">
        <ele>101</ele>
        <time>2010-05-15T14:20:30Z</time>
      </trkpt>
      <trkpt lat="48.58554" lon="2.01265">
        <ele>101</ele>
        <time>2010-05-15T14:20:31Z</time>
      </trkpt>
      <trkpt lat="48.5856" lon="2.01268">
        <ele>101</ele>
        <time>2010-05-15T14:20:32Z</time>
      </trkpt>
      <trkpt lat="48.58566" lon="2.01269">
        <ele>100</ele>
        <time>2010-05-15T14:20:33Z</time>
      </trkpt>
      <trkpt lat="48.58572" lon="2.01268">
        <ele>99</ele>
        <time>2010-05-15T14:20:34Z</time>
      </trkpt>
      <trkpt lat="48.58578" lon="2.01265">
        <ele>98</ele>
        <time>2010-05-15T14:20:35Z</time>
      </trkpt>
      <trkpt lat="48.58585" lon="2.01261">
        <ele>97</ele>
        <time>2010-05-15T14:20:36Z</time>
      </trkpt>
      <trkpt lat="48.5859" lon="2.01257">
        <ele>96</ele>
        <time>2010-05-15T14:20:37Z</time>
      </trkpt>
      <trkpt lat="48.58595" lon="2.01252">
        <ele>95</ele>
        <time>2010-05-15T14:20:38Z</time>
      </trkpt>
      <trkpt lat="48.58599" lon="2.01246">
        <ele>94</ele>
        <time>2010-05-15T14:20:39Z</time>
      </trkpt>
      <trkpt lat="48.58603" lon="2.01239">
        <ele>93</ele>
        <time>2010-05-15T14:20:40Z</time>
      </trkpt>
      <trkpt lat="48.58607" lon="2.01234">
        <ele>92</ele>
        <time>2010-05-15T14:20:41Z</time>
      </trkpt>
      <trkpt lat="48.58611" lon="2.01229">
        <ele>91</ele>
        <time>2010-05-15T14:20:42Z</time>
      </trkpt>
      <trkpt lat="48.58614" lon="2.01225">
        <ele>90</ele>
        <time>2010-05-15T14:20:43Z</time>
      </trkpt>
      <trkpt lat="48.58617" lon="2.01223">
        <ele>89</ele>
        <time>2010-05-15T14:20:44Z</time>
      </trkpt>
      <trkpt lat="48.5862" lon="2.01219">
        <ele>89</ele>
        <time>2010-05-15T14:20:45Z</time>
      </trkpt>
      <trkpt lat="48.58624" lon="2.01216">
        <ele>89</ele>
        <time>2010-05-15T14:20:46Z</time>
      </trkpt>
      <trkpt lat="48.58627" lon="2.01213">
        <ele>89</ele>
        <time>2010-05-15T14:20:47Z</time>
      </trkpt>
      <trkpt lat="48.5863" lon="2.0121">
        <ele>89</ele>
        <time>2010-05-15T14:20:48Z</time>
      </trkpt>
      <trkpt lat="48.58633" lon="2.01207">
        <ele>89</ele>
        <time>2010-05-15T14:20:49Z</time>
      </trkpt>
      <trkpt lat="48.58635" lon="2.01206">
        <ele>89</ele>
        <time>2010-05-15T14:20:50Z</time>
      </trkpt>
      <trkpt lat="48.58637" lon="2.01205">
        <ele>89</ele>
        <time>2010-05-15T14:20:51Z</time>
      </trkpt>
      <trkpt lat="48.5864" lon="2.01204">
        <ele>89</ele>
        <time>2010-05-15T14:20:52Z</time>
      </trkpt>
      <trkpt lat="48.58642" lon="2.01202">
        <ele>89</ele>
        <time>2010-05-15T14:20:53Z</time>
      </trkpt>
      <trkpt lat="48.58644" lon="2.012">
        <ele>89</ele>
        <time>2010-05-15T14:20:54Z</time>
      </trkpt>
      <trkpt lat="48.58646" lon="2.01197">
        <ele>89</ele>
        <time>2010-05-15T14:20:55Z</time>
      </trkpt>
      <trkpt lat="48.58648" lon="2.01195">
        <ele>89</ele>
        <time>2010-05-15T14:20:56Z</time>
      </trkpt>
      <trkpt lat="48.58649" lon="2.01193">
        <ele>89</ele>
        <time>2010-05-15T14:20:57Z</time>
      </trkpt>
      <trkpt lat="48.5865" lon="2.01191">
        <ele>89</ele>
        <time>2010-05-15T14:20:58Z</time>
      </trkpt>
      <trkpt lat="48.58651" lon="2.0119">
        <ele>89</ele>
        <time>2010-05-15T14:20:59Z</time>
      </trkpt>
      <trkpt lat="48.58653" lon="2.01188">
        <ele>89</ele>
        <time>2010-05-15T14:21:01Z</time>
      </trkpt>
      <trkpt lat="48.58654" lon="2.01188">
        <ele>90</ele>
        <time>2010-05-15T14:21:02Z</time>
      </trkpt>
      <trkpt lat="48.58656" lon="2.01187">
        <ele>91</ele>
        <time>2010-05-15T14:21:04Z</time>
      </trkpt>
      <trkpt lat="48.58657" lon="2.01187">
        <ele>92</ele>
        <time>2010-05-15T14:21:05Z</time>
      </trkpt>
      <trkpt lat="48.58659" lon="2.01187">
        <ele>92</ele>
        <time>2010-05-15T14:21:06Z</time>
      </trkpt>
      <trkpt lat="48.58661" lon="2.01187">
        <ele>93</ele>
        <time>2010-05-15T14:21:07Z</time>
      </trkpt>
      <trkpt lat="48.58663" lon="2.01186">
        <ele>94</ele>
        <time>2010-05-15T14:21:08Z</time>
      </trkpt>
      <trkpt lat="48.58664" lon="2.01186">
        <ele>95</ele>
        <time>2010-05-15T14:21:09Z</time>
      </trkpt>
      <trkpt lat="48.58665" lon="2.01186">
        <ele>96</ele>
        <time>2010-05-15T14:21:10Z</time>
      </trkpt>
      <trkpt lat="48.58667" lon="2.01186">
        <ele>97</ele>
        <time>2010-05-15T14:21:11Z</time>
      </trkpt>
      <trkpt lat="48.58669" lon="2.01187">
        <ele>98</ele>
        <time>2010-05-15T14:21:12Z</time>
      </trkpt>
      <trkpt lat="48.5867" lon="2.01187">
        <ele>99</ele>
        <time>2010-05-15T14:21:13Z</time>
      </trkpt>
      <trkpt lat="48.58673" lon="2.01187">
        <ele>101</ele>
        <time>2010-05-15T14:21:15Z</time>
      </trkpt>
      <trkpt lat="48.58675" lon="2.01187">
        <ele>102</ele>
        <time>2010-05-15T14:21:16Z</time>
      </trkpt>
      <trkpt lat="48.58676" lon="2.01186">
        <ele>103</ele>
        <time>2010-05-15T14:21:17Z</time>
      </trkpt>
      <trkpt lat="48.58678" lon="2.01185">
        <ele>105</ele>
        <time>2010-05-15T14:21:19Z</time>
      </trkpt>
      <trkpt lat="48.58678" lon="2.01182">
        <ele>106</ele>
        <time>2010-05-15T14:21:20Z</time>
      </trkpt>
      <trkpt lat="48.58679" lon="2.01181">
        <ele>107</ele>
        <time>2010-05-15T14:21:21Z</time>
      </trkpt>
      <trkpt lat="48.58681" lon="2.0118">
        <ele>108</ele>
        <time>2010-05-15T14:21:22Z</time>
      </trkpt>
      <trkpt lat="48.58682" lon="2.01178">
        <ele>109</ele>
        <time>2010-05-15T14:21:23Z</time>
      </trkpt>
      <trkpt lat="48.58682" lon="2.01175">
        <ele>109</ele>
        <time>2010-05-15T14:21:24Z</time>
      </trkpt>
      <trkpt lat="48.58683" lon="2.01174">
        <ele>109</ele>
        <time>2010-05-15T14:21:25Z</time>
      </trkpt>
      <trkpt lat="48.58686" lon="2.01174">
        <ele>109</ele>
        <time>2010-05-15T14:21:26Z</time>
      </trkpt>
      <trkpt lat="48.58688" lon="2.01175">
        <ele>110</ele>
        <time>2010-05-15T14:21:28Z</time>
      </trkpt>
      <trkpt lat="48.5869" lon="2.01174">
        <ele>111</ele>
        <time>2010-05-15T14:21:29Z</time>
      </trkpt>
      <trkpt lat="48.58691" lon="2.01172">
        <ele>112</ele>
        <time>2010-05-15T14:21:31Z</time>
      </trkpt>
      <trkpt lat="48.58692" lon="2.01172">
        <ele>112</ele>
        <time>2010-05-15T14:21:34Z</time>
      </trkpt>
      <trkpt lat="48.58694" lon="2.01172">
        <ele>112</ele>
        <time>2010-05-15T14:21:36Z</time>
      </trkpt>
      <trkpt lat="48.58696" lon="2.0117">
        <ele>112</ele>
        <time>2010-05-15T14:21:39Z</time>
      </trkpt>
      <trkpt lat="48.58697" lon="2.01169">
        <ele>110</ele>
        <time>2010-05-15T14:21:41Z</time>
      </trkpt>
      <trkpt lat="48.58697" lon="2.01167">
        <ele>107</ele>
        <time>2010-05-15T14:21:44Z</time>
      </trkpt>
      <trkpt lat="48.58699" lon="2.01165">
        <ele>105</ele>
        <time>2010-05-15T14:21:46Z</time>
      </trkpt>
      <trkpt lat="48.58702" lon="2.01165">
        <ele>103</ele>
        <time>2010-05-15T14:21:47Z</time>
      </trkpt>
      <trkpt lat="48.58704" lon="2.01164">
        <ele>99</ele>
        <time>2010-05-15T14:21:49Z</time>
      </trkpt>
      <trkpt lat="48.58706" lon="2.01166">
        <ele>96</ele>
        <time>2010-05-15T14:21:51Z</time>
      </trkpt>
      <trkpt lat="48.58708" lon="2.01166">
        <ele>95</ele>
        <time>2010-05-15T14:21:52Z</time>
      </trkpt>
      <trkpt lat="48.58711" lon="2.01167">
        <ele>94</ele>
        <time>2010-05-15T14:21:53Z</time>
      </trkpt>
      <trkpt lat="48.58713" lon="2.01168">
        <ele>93</ele>
        <time>2010-05-15T14:21:54Z</time>
      </trkpt>
      <trkpt lat="48.58715" lon="2.0117">
        <ele>92</ele>
        <time>2010-05-15T14:21:55Z</time>
      </trkpt>
      <trkpt lat="48.58716" lon="2.01172">
        <ele>90</ele>
        <time>2010-05-15T14:21:57Z</time>
      </trkpt>
      <trkpt lat="48.58718" lon="2.01173">
        <ele>89</ele>
        <time>2010-05-15T14:21:58Z</time>
      </trkpt>
      <trkpt lat="48.58719" lon="2.01174">
        <ele>88</ele>
        <time>2010-05-15T14:21:59Z</time>
      </trkpt>
      <trkpt lat="48.58721" lon="2.01176">
        <ele>88</ele>
        <time>2010-05-15T14:22:00Z</time>
      </trkpt>
      <trkpt lat="48.58724" lon="2.01179">
        <ele>86</ele>
        <time>2010-05-15T14:22:03Z</time>
      </trkpt>
      <trkpt lat="48.58725" lon="2.0118">
        <ele>86</ele>
        <time>2010-05-15T14:22:04Z</time>
      </trkpt>
      <trkpt lat="48.58729" lon="2.01182">
        <ele>86</ele>
        <time>2010-05-15T14:22:07Z</time>
      </trkpt>
      <trkpt lat="48.58732" lon="2.01185">
        <ele>86</ele>
        <time>2010-05-15T14:22:09Z</time>
      </trkpt>
      <trkpt lat="48.58734" lon="2.01188">
        <ele>85</ele>
        <time>2010-05-15T14:22:11Z</time>
      </trkpt>
      <trkpt lat="48.58735" lon="2.0119">
        <ele>85</ele>
        <time>2010-05-15T14:22:12Z</time>
      </trkpt>
      <trkpt lat="48.58736" lon="2.01192">
        <ele>84</ele>
        <time>2010-05-15T14:22:13Z</time>
      </trkpt>
      <trkpt lat="48.58738" lon="2.01193">
        <ele>84</ele>
        <time>2010-05-15T14:22:14Z</time>
      </trkpt>
      <trkpt lat="48.5874" lon="2.01196">
        <ele>84</ele>
        <time>2010-05-15T14:22:15Z</time>
      </trkpt>
      <trkpt lat="48.58742" lon="2.01198">
        <ele>84</ele>
        <time>2010-05-15T14:22:16Z</time>
      </trkpt>
      <trkpt lat="48.58744" lon="2.01199">
        <ele>84</ele>
        <time>2010-05-15T14:22:17Z</time>
      </trkpt>
      <trkpt lat="48.58746" lon="2.012">
        <ele>84</ele>
        <time>2010-05-15T14:22:18Z</time>
      </trkpt>
      <trkpt lat="48.58748" lon="2.012">
        <ele>84</ele>
        <time>2010-05-15T14:22:19Z</time>
      </trkpt>
      <trkpt lat="48.5875" lon="2.012">
        <ele>84</ele>
        <time>2010-05-15T14:22:20Z</time>
      </trkpt>
      <trkpt lat="48.58753" lon="2.01201">
        <ele>84</ele>
        <time>2010-05-15T14:22:21Z</time>
      </trkpt>
      <trkpt lat="48.58754" lon="2.01203">
        <ele>84</ele>
        <time>2010-05-15T14:22:22Z</time>
      </trkpt>
      <trkpt lat="48.58757" lon="2.01204">
        <ele>84</ele>
        <time>2010-05-15T14:22:23Z</time>
      </trkpt>
      <trkpt lat="48.58758" lon="2.01205">
        <ele>84</ele>
        <time>2010-05-15T14:22:24Z</time>
      </trkpt>
      <trkpt lat="48.5876" lon="2.01206">
        <ele>84</ele>
        <time>2010-05-15T14:22:25Z</time>
      </trkpt>
      <trkpt lat="48.58762" lon="2.01208">
        <ele>84</ele>
        <time>2010-05-15T14:22:27Z</time>
      </trkpt>
      <trkpt lat="48.58764" lon="2.01209">
        <ele>84</ele>
        <time>2010-05-15T14:22:28Z</time>
      </trkpt>
      <trkpt lat="48.58765" lon="2.0121">
        <ele>84</ele>
        <time>2010-05-15T14:22:29Z</time>
      </trkpt>
      <trkpt lat="48.58766" lon="2.0121">
        <ele>84</ele>
        <time>2010-05-15T14:22:30Z</time>
      </trkpt>
      <trkpt lat="48.58768" lon="2.01211">
        <ele>84</ele>
        <time>2010-05-15T14:22:31Z</time>
      </trkpt>
      <trkpt lat="48.5877" lon="2.01212">
        <ele>85</ele>
        <time>2010-05-15T14:22:32Z</time>
      </trkpt>
      <trkpt lat="48.58772" lon="2.01212">
        <ele>85</ele>
        <time>2010-05-15T14:22:33Z</time>
      </trkpt>
      <trkpt lat="48.58774" lon="2.01213">
        <ele>86</ele>
        <time>2010-05-15T14:22:34Z</time>
      </trkpt>
      <trkpt lat="48.58777" lon="2.01215">
        <ele>87</ele>
        <time>2010-05-15T14:22:36Z</time>
      </trkpt>
      <trkpt lat="48.58778" lon="2.01216">
        <ele>87</ele>
        <time>2010-05-15T14:22:37Z</time>
      </trkpt>
      <trkpt lat="48.5878" lon="2.01216">
        <ele>87</ele>
        <time>2010-05-15T14:22:38Z</time>
      </trkpt>
      <trkpt lat="48.58782" lon="2.01217">
        <ele>87</ele>
        <time>2010-05-15T14:22:39Z</time>
      </trkpt>
      <trkpt lat="48.58784" lon="2.01218">
        <ele>87</ele>
        <time>2010-05-15T14:22:40Z</time>
      </trkpt>
      <trkpt lat="48.58785" lon="2.01219">
        <ele>87</ele>
        <time>2010-05-15T14:22:41Z</time>
      </trkpt>
      <trkpt lat="48.58787" lon="2.01221">
        <ele>87</ele>
        <time>2010-05-15T14:22:43Z</time>
      </trkpt>
      <trkpt lat="48.58788" lon="2.01222">
        <ele>87</ele>
        <time>2010-05-15T14:22:44Z</time>
      </trkpt>
      <trkpt lat="48.5879" lon="2.01223">
        <ele>88</ele>
        <time>2010-05-15T14:22:45Z</time>
      </trkpt>
      <trkpt lat="48.58791" lon="2.01223">
        <ele>88</ele>
        <time>2010-05-15T14:22:46Z</time>
      </trkpt>
      <trkpt lat="48.58793" lon="2.01224">
        <ele>89</ele>
        <time>2010-05-15T14:22:47Z</time>
      </trkpt>
      <trkpt lat="48.58794" lon="2.01224">
        <ele>89</ele>
        <time>2010-05-15T14:22:48Z</time>
      </trkpt>
      <trkpt lat="48.58796" lon="2.01225">
        <ele>89</ele>
        <time>2010-05-15T14:22:49Z</time>
      </trkpt>
      <trkpt lat="48.58798" lon="2.01227">
        <ele>89</ele>
        <time>2010-05-15T14:22:50Z</time>
      </trkpt>
      <trkpt lat="48.58802" lon="2.0123">
        <ele>89</ele>
        <time>2010-05-15T14:22:53Z</time>
      </trkpt>
      <trkpt lat="48.58804" lon="2.01233">
        <ele>89</ele>
        <time>2010-05-15T14:22:54Z</time>
      </trkpt>
      <trkpt lat="48.58806" lon="2.01233">
        <ele>89</ele>
        <time>2010-05-15T14:22:55Z</time>
      </trkpt>
      <trkpt lat="48.58807" lon="2.01234">
        <ele>89</ele>
        <time>2010-05-15T14:22:56Z</time>
      </trkpt>
      <trkpt lat="48.58808" lon="2.01235">
        <ele>89</ele>
        <time>2010-05-15T14:22:57Z</time>
      </trkpt>
      <trkpt lat="48.5881" lon="2.01237">
        <ele>90</ele>
        <time>2010-05-15T14:22:58Z</time>
      </trkpt>
      <trkpt lat="48.58812" lon="2.01238">
        <ele>90</ele>
        <time>2010-05-15T14:22:59Z</time>
      </trkpt>
      <trkpt lat="48.58813" lon="2.01239">
        <ele>90</ele>
        <time>2010-05-15T14:23:00Z</time>
      </trkpt>
      <trkpt lat="48.58815" lon="2.0124">
        <ele>90</ele>
        <time>2010-05-15T14:23:01Z</time>
      </trkpt>
      <trkpt lat="48.58816" lon="2.01241">
        <ele>90</ele>
        <time>2010-05-15T14:23:02Z</time>
      </trkpt>
      <trkpt lat="48.58817" lon="2.01243">
        <ele>91</ele>
        <time>2010-05-15T14:23:03Z</time>
      </trkpt>
      <trkpt lat="48.58818" lon="2.01245">
        <ele>91</ele>
        <time>2010-05-15T14:23:04Z</time>
      </trkpt>
      <trkpt lat="48.5882" lon="2.01247">
        <ele>91</ele>
        <time>2010-05-15T14:23:05Z</time>
      </trkpt>
      <trkpt lat="48.58821" lon="2.01248">
        <ele>91</ele>
        <time>2010-05-15T14:23:06Z</time>
      </trkpt>
      <trkpt lat="48.58823" lon="2.01249">
        <ele>91</ele>
        <time>2010-05-15T14:23:07Z</time>
      </trkpt>
      <trkpt lat="48.58824" lon="2.0125">
        <ele>91</ele>
        <time>2010-05-15T14:23:08Z</time>
      </trkpt>
      <trkpt lat="48.58825" lon="2.01251">
        <ele>91</ele>
        <time>2010-05-15T14:23:09Z</time>
      </trkpt>
      <trkpt lat="48.58827" lon="2.01252">
        <ele>91</ele>
        <time>2010-05-15T14:23:10Z</time>
      </trkpt>
      <trkpt lat="48.58828" lon="2.01253">
        <ele>91</ele>
        <time>2010-05-15T14:23:11Z</time>
      </trkpt>
      <trkpt lat="48.58829" lon="2.01254">
        <ele>91</ele>
        <time>2010-05-15T14:23:12Z</time>
      </trkpt>
      <trkpt lat="48.58831" lon="2.01255">
        <ele>91</ele>
        <time>2010-05-15T14:23:13Z</time>
      </trkpt>
      <trkpt lat="48.58832" lon="2.01255">
        <ele>91</ele>
        <time>2010-05-15T14:23:14Z</time>
      </trkpt>
      <trkpt lat="48.58834" lon="2.01255">
        <ele>91</ele>
        <time>2010-05-15T14:23:15Z</time>
      </trkpt>
      <trkpt lat="48.58836" lon="2.01256">
        <ele>91</ele>
        <time>2010-05-15T14:23:16Z</time>
      </trkpt>
      <trkpt lat="48.58838" lon="2.01257">
        <ele>91</ele>
        <time>2010-05-15T14:23:17Z</time>
      </trkpt>
      <trkpt lat="48.58839" lon="2.01258">
        <ele>91</ele>
        <time>2010-05-15T14:23:18Z</time>
      </trkpt>
      <trkpt lat="48.58841" lon="2.01259">
        <ele>91</ele>
        <time>2010-05-15T14:23:19Z</time>
      </trkpt>
      <trkpt lat="48.58843" lon="2.0126">
        <ele>91</ele>
        <time>2010-05-15T14:23:20Z</time>
      </trkpt>
      <trkpt lat="48.58844" lon="2.01261">
        <ele>91</ele>
        <time>2010-05-15T14:23:21Z</time>
      </trkpt>
      <trkpt lat="48.58845" lon="2.01263">
        <ele>91</ele>
        <time>2010-05-15T14:23:22Z</time>
      </trkpt>
      <trkpt lat="48.58847" lon="2.01264">
        <ele>91</ele>
        <time>2010-05-15T14:23:23Z</time>
      </trkpt>
      <trkpt lat="48.58849" lon="2.01265">
        <ele>91</ele>
        <time>2010-05-15T14:23:24Z</time>
      </trkpt>
      <trkpt lat="48.58851" lon="2.01265">
        <ele>91</ele>
        <time>2010-05-15T14:23:25Z</time>
      </trkpt>
      <trkpt lat="48.58852" lon="2.01267">
        <ele>91</ele>
        <time>2010-05-15T14:23:26Z</time>
      </trkpt>
      <trkpt lat="48.58853" lon="2.01268">
        <ele>91</ele>
        <time>2010-05-15T14:23:27Z</time>
      </trkpt>
      <trkpt lat="48.58855" lon="2.01269">
        <ele>91</ele>
        <time>2010-05-15T14:23:28Z</time>
      </trkpt>
      <trkpt lat="48.58856" lon="2.0127">
        <ele>91</ele>
        <time>2010-05-15T14:23:29Z</time>
      </trkpt>
      <trkpt lat="48.58857" lon="2.01271">
        <ele>91</ele>
        <time>2010-05-15T14:23:30Z</time>
      </trkpt>
      <trkpt lat="48.58859" lon="2.01272">
        <ele>91</ele>
        <time>2010-05-15T14:23:31Z</time>
      </trkpt>
      <trkpt lat="48.5886" lon="2.01272">
        <ele>91</ele>
        <time>2010-05-15T14:23:32Z</time>
      </trkpt>
      <trkpt lat="48.58862" lon="2.01273">
        <ele>91</ele>
        <time>2010-05-15T14:23:33Z</time>
      </trkpt>
      <trkpt lat="48.58863" lon="2.01274">
        <ele>91</ele>
        <time>2010-05-15T14:23:34Z</time>
      </trkpt>
      <trkpt lat="48.58865" lon="2.01274">
        <ele>91</ele>
        <time>2010-05-15T14:23:35Z</time>
      </trkpt>
      <trkpt lat="48.58867" lon="2.01276">
        <ele>91</ele>
        <time>2010-05-15T14:23:36Z</time>
      </trkpt>
      <trkpt lat="48.58868" lon="2.01277">
        <ele>91</ele>
        <time>2010-05-15T14:23:37Z</time>
      </trkpt>
      <trkpt lat="48.5887" lon="2.01278">
        <ele>91</ele>
        <time>2010-05-15T14:23:38Z</time>
      </trkpt>
      <trkpt lat="48.58871" lon="2.01279">
        <ele>91</ele>
        <time>2010-05-15T14:23:39Z</time>
      </trkpt>
      <trkpt lat="48.58872" lon="2.01281">
        <ele>91</ele>
        <time>2010-05-15T14:23:40Z</time>
      </trkpt>
      <trkpt lat="48.58874" lon="2.01283">
        <ele>91</ele>
        <time>2010-05-15T14:23:41Z</time>
      </trkpt>
      <trkpt lat="48.58875" lon="2.01284">
        <ele>91</ele>
        <time>2010-05-15T14:23:42Z</time>
      </trkpt>
      <trkpt lat="48.58877" lon="2.01287">
        <ele>91</ele>
        <time>2010-05-15T14:23:44Z</time>
      </trkpt>
      <trkpt lat="48.58878" lon="2.01289">
        <ele>91</ele>
        <time>2010-05-15T14:23:45Z</time>
      </trkpt>
      <trkpt lat="48.5888" lon="2.01291">
        <ele>91</ele>
        <time>2010-05-15T14:23:46Z</time>
      </trkpt>
      <trkpt lat="48.58881" lon="2.01292">
        <ele>91</ele>
        <time>2010-05-15T14:23:47Z</time>
      </trkpt>
      <trkpt lat="48.58882" lon="2.01294">
        <ele>91</ele>
        <time>2010-05-15T14:23:48Z</time>
      </trkpt>
      <trkpt lat="48.58884" lon="2.01295">
        <ele>91</ele>
        <time>2010-05-15T14:23:49Z</time>
      </trkpt>
      <trkpt lat="48.58885" lon="2.01297">
        <ele>91</ele>
        <time>2010-05-15T14:23:50Z</time>
      </trkpt>
      <trkpt lat="48.58886" lon="2.01298">
        <ele>91</ele>
        <time>2010-05-15T14:23:51Z</time>
      </trkpt>
      <trkpt lat="48.58887" lon="2.013">
        <ele>91</ele>
        <time>2010-05-15T14:23:52Z</time>
      </trkpt>
      <trkpt lat="48.58889" lon="2.01301">
        <ele>91</ele>
        <time>2010-05-15T14:23:53Z</time>
      </trkpt>
      <trkpt lat="48.5889" lon="2.01303">
        <ele>91</ele>
        <time>2010-05-15T14:23:54Z</time>
      </trkpt>
      <trkpt lat="48.58891" lon="2.01304">
        <ele>91</ele>
        <time>2010-05-15T14:23:55Z</time>
      </trkpt>
      <trkpt lat="48.58893" lon="2.01306">
        <ele>91</ele>
        <time>2010-05-15T14:23:57Z</time>
      </trkpt>
      <trkpt lat="48.58894" lon="2.01307">
        <ele>91</ele>
        <time>2010-05-15T14:23:58Z</time>
      </trkpt>
      <trkpt lat="48.58895" lon="2.01308">
        <ele>91</ele>
        <time>2010-05-15T14:23:59Z</time>
      </trkpt>
      <trkpt lat="48.58897" lon="2.01309">
        <ele>92</ele>
        <time>2010-05-15T14:24:00Z</time>
      </trkpt>
      <trkpt lat="48.58898" lon="2.01311">
        <ele>92</ele>
        <time>2010-05-15T14:24:01Z</time>
      </trkpt>
      <trkpt lat="48.589" lon="2.01312">
        <ele>92</ele>
        <time>2010-05-15T14:24:02Z</time>
      </trkpt>
      <trkpt lat="48.58901" lon="2.01313">
        <ele>93</ele>
        <time>2010-05-15T14:24:03Z</time>
      </trkpt>
      <trkpt lat="48.58902" lon="2.01314">
        <ele>93</ele>
        <time>2010-05-15T14:24:04Z</time>
      </trkpt>
      <trkpt lat="48.58904" lon="2.01316">
        <ele>93</ele>
        <time>2010-05-15T14:24:05Z</time>
      </trkpt>
      <trkpt lat="48.58905" lon="2.01317">
        <ele>93</ele>
        <time>2010-05-15T14:24:06Z</time>
      </trkpt>
      <trkpt lat="48.58906" lon="2.01318">
        <ele>93</ele>
        <time>2010-05-15T14:24:07Z</time>
      </trkpt>
      <trkpt lat="48.58908" lon="2.01319">
        <ele>93</ele>
        <time>2010-05-15T14:24:08Z</time>
      </trkpt>
      <trkpt lat="48.58909" lon="2.0132">
        <ele>93</ele>
        <time>2010-05-15T14:24:09Z</time>
      </trkpt>
      <trkpt lat="48.58911" lon="2.01322">
        <ele>93</ele>
        <time>2010-05-15T14:24:10Z</time>
      </trkpt>
      <trkpt lat="48.58912" lon="2.01323">
        <ele>93</ele>
        <time>2010-05-15T14:24:11Z</time>
      </trkpt>
      <trkpt lat="48.58914" lon="2.01325">
        <ele>93</ele>
        <time>2010-05-15T14:24:13Z</time>
      </trkpt>
      <trkpt lat="48.58915" lon="2.01326">
        <ele>93</ele>
        <time>2010-05-15T14:24:14Z</time>
      </trkpt>
      <trkpt lat="48.58917" lon="2.01328">
        <ele>93</ele>
        <time>2010-05-15T14:24:15Z</time>
      </trkpt>
      <trkpt lat="48.58919" lon="2.01329">
        <ele>93</ele>
        <time>2010-05-15T14:24:16Z</time>
      </trkpt>
      <trkpt lat="48.58921" lon="2.01329">
        <ele>93</ele>
        <time>2010-05-15T14:24:17Z</time>
      </trkpt>
      <trkpt lat="48.58923" lon="2.01329">
        <ele>93</ele>
        <time>2010-05-15T14:24:18Z</time>
      </trkpt>
      <trkpt lat="48.58925" lon="2.0133">
        <ele>93</ele>
        <time>2010-05-15T14:24:19Z</time>
      </trkpt>
      <trkpt lat="48.58927" lon="2.0133">
        <ele>93</ele>
        <time>2010-05-15T14:24:20Z</time>
      </trkpt>
      <trkpt lat="48.58929" lon="2.01331">
        <ele>93</ele>
        <time>2010-05-15T14:24:21Z</time>
      </trkpt>
      <trkpt lat="48.5893" lon="2.01332">
        <ele>93</ele>
        <time>2010-05-15T14:24:22Z</time>
      </trkpt>
      <trkpt lat="48.58932" lon="2.01332">
        <ele>93</ele>
        <time>2010-05-15T14:24:23Z</time>
      </trkpt>
      <trkpt lat="48.58934" lon="2.01333">
        <ele>93</ele>
        <time>2010-05-15T14:24:24Z</time>
      </trkpt>
      <trkpt lat="48.58936" lon="2.01333">
        <ele>93</ele>
        <time>2010-05-15T14:24:25Z</time>
      </trkpt>
      <trkpt lat="48.58938" lon="2.01334">
        <ele>92</ele>
        <time>2010-05-15T14:24:26Z</time>
      </trkpt>
      <trkpt lat="48.5894" lon="2.01335">
        <ele>92</ele>
        <time>2010-05-15T14:24:27Z</time>
      </trkpt>
      <trkpt lat="48.58942" lon="2.01336">
        <ele>91</ele>
        <time>2010-05-15T14:24:28Z</time>
      </trkpt>
      <trkpt lat="48.58944" lon="2.01336">
        <ele>91</ele>
        <time>2010-05-15T14:24:29Z</time>
      </trkpt>
      <trkpt lat="48.58946" lon="2.01338">
        <ele>90</ele>
        <time>2010-05-15T14:24:30Z</time>
      </trkpt>
      <trkpt lat="48.58947" lon="2.01339">
        <ele>90</ele>
        <time>2010-05-15T14:24:31Z</time>
      </trkpt>
      <trkpt lat="48.58949" lon="2.0134">
        <ele>90</ele>
        <time>2010-05-15T14:24:32Z</time>
      </trkpt>
      <trkpt lat="48.58951" lon="2.01341">
        <ele>90</ele>
        <time>2010-05-15T14:24:33Z</time>
      </trkpt>
      <trkpt lat="48.58953" lon="2.01342">
        <ele>90</ele>
        <time>2010-05-15T14:24:34Z</time>
      </trkpt>
      <trkpt lat="48.58954" lon="2.01343">
        <ele>89</ele>
        <time>2010-05-15T14:24:35Z</time>
      </trkpt>
      <trkpt lat="48.58956" lon="2.01345">
        <ele>89</ele>
        <time>2010-05-15T14:24:36Z</time>
      </trkpt>
      <trkpt lat="48.58958" lon="2.01346">
        <ele>89</ele>
        <time>2010-05-15T14:24:37Z</time>
      </trkpt>
      <trkpt lat="48.5896" lon="2.01347">
        <ele>88</ele>
        <time>2010-05-15T14:24:38Z</time>
      </trkpt>
      <trkpt lat="48.58961" lon="2.01349">
        <ele>88</ele>
        <time>2010-05-15T14:24:39Z</time>
      </trkpt>
      <trkpt lat="48.58963" lon="2.0135">
        <ele>87</ele>
        <time>2010-05-15T14:24:40Z</time>
      </trkpt>
      <trkpt lat="48.58964" lon="2.01351">
        <ele>87</ele>
        <time>2010-05-15T14:24:41Z</time>
      </trkpt>
      <trkpt lat="48.58966" lon="2.01351">
        <ele>87</ele>
        <time>2010-05-15T14:24:42Z</time>
      </trkpt>
      <trkpt lat="48.58968" lon="2.01352">
        <ele>87</ele>
        <time>2010-05-15T14:24:43Z</time>
      </trkpt>
      <trkpt lat="48.5897" lon="2.01353">
        <ele>87</ele>
        <time>2010-05-15T14:24:44Z</time>
      </trkpt>
      <trkpt lat="48.58971" lon="2.01354">
        <ele>87</ele>
        <time>2010-05-15T14:24:45Z</time>
      </trkpt>
      <trkpt lat="48.58973" lon="2.01355">
        <ele>87</ele>
        <time>2010-05-15T14:24:46Z</time>
      </trkpt>
      <trkpt lat="48.58974" lon="2.01357">
        <ele>86</ele>
        <time>2010-05-15T14:24:47Z</time>
      </trkpt>
      <trkpt lat="48.58976" lon="2.01358">
        <ele>86</ele>
        <time>2010-05-15T14:24:48Z</time>
      </trkpt>
      <trkpt lat="48.58977" lon="2.0136">
        <ele>86</ele>
        <time>2010-05-15T14:24:49Z</time>
      </trkpt>
      <trkpt lat="48.58979" lon="2.01361">
        <ele>86</ele>
        <time>2010-05-15T14:24:50Z</time>
      </trkpt>
      <trkpt lat="48.5898" lon="2.01362">
        <ele>86</ele>
        <time>2010-05-15T14:24:51Z</time>
      </trkpt>
      <trkpt lat="48.58982" lon="2.01363">
        <ele>86</ele>
        <time>2010-05-15T14:24:52Z</time>
      </trkpt>
      <trkpt lat="48.58984" lon="2.01364">
        <ele>86</ele>
        <time>2010-05-15T14:24:53Z</time>
      </trkpt>
      <trkpt lat="48.58985" lon="2.01365">
        <ele>86</ele>
        <time>2010-05-15T14:24:54Z</time>
      </trkpt>
      <trkpt lat="48.58986" lon="2.01367">
        <ele>86</ele>
        <time>2010-05-15T14:24:55Z</time>
      </trkpt>
      <trkpt lat="48.58987" lon="2.0137">
        <ele>86</ele>
        <time>2010-05-15T14:24:56Z</time>
      </trkpt>
      <trkpt lat="48.58989" lon="2.01371">
        <ele>86</ele>
        <time>2010-05-15T14:24:57Z</time>
      </trkpt>
      <trkpt lat="48.5899" lon="2.01372">
        <ele>86</ele>
        <time>2010-05-15T14:24:58Z</time>
      </trkpt>
      <trkpt lat="48.58992" lon="2.01375">
        <ele>86</ele>
        <time>2010-05-15T14:25:00Z</time>
      </trkpt>
      <trkpt lat="48.58992" lon="2.01377">
        <ele>86</ele>
        <time>2010-05-15T14:25:01Z</time>
      </trkpt>
      <trkpt lat="48.58993" lon="2.0138">
        <ele>86</ele>
        <time>2010-05-15T14:25:03Z</time>
      </trkpt>
      <trkpt lat="48.58994" lon="2.01382">
        <ele>86</ele>
        <time>2010-05-15T14:25:04Z</time>
      </trkpt>
      <trkpt lat="48.58994" lon="2.01384">
        <ele>86</ele>
        <time>2010-05-15T14:25:05Z</time>
      </trkpt>
      <trkpt lat="48.58995" lon="2.01386">
        <ele>86</ele>
        <time>2010-05-15T14:25:06Z</time>
      </trkpt>
      <trkpt lat="48.58995" lon="2.01388">
        <ele>86</ele>
        <time>2010-05-15T14:25:07Z</time>
      </trkpt>
      <trkpt lat="48.58996" lon="2.0139">
        <ele>86</ele>
        <time>2010-05-15T14:25:08Z</time>
      </trkpt>
      <trkpt lat="48.58996" lon="2.01392">
        <ele>86</ele>
        <time>2010-05-15T14:25:09Z</time>
      </trkpt>
      <trkpt lat="48.58997" lon="2.01395">
        <ele>86</ele>
        <time>2010-05-15T14:25:10Z</time>
      </trkpt>
      <trkpt lat="48.58997" lon="2.01397">
        <ele>86</ele>
        <time>2010-05-15T14:25:11Z</time>
      </trkpt>
      <trkpt lat="48.58998" lon="2.01399">
        <ele>86</ele>
        <time>2010-05-15T14:25:12Z</time>
      </trkpt>
      <trkpt lat="48.58998" lon="2.01401">
        <ele>86</ele>
        <time>2010-05-15T14:25:13Z</time>
      </trkpt>
      <trkpt lat="48.58998" lon="2.01403">
        <ele>86</ele>
        <time>2010-05-15T14:25:14Z</time>
      </trkpt>
      <trkpt lat="48.58999" lon="2.01405">
        <ele>86</ele>
        <time>2010-05-15T14:25:15Z</time>
      </trkpt>
      <trkpt lat="48.58999" lon="2.01407">
        <ele>87</ele>
        <time>2010-05-15T14:25:16Z</time>
      </trkpt>
      <trkpt lat="48.58999" lon="2.0141">
        <ele>87</ele>
        <time>2010-05-15T14:25:17Z</time>
      </trkpt>
      <trkpt lat="48.59" lon="2.01412">
        <ele>88</ele>
        <time>2010-05-15T14:25:18Z</time>
      </trkpt>
      <trkpt lat="48.59" lon="2.01414">
        <ele>88</ele>
        <time>2010-05-15T14:25:19Z</time>
      </trkpt>
      <trkpt lat="48.59001" lon="2.01416">
        <ele>88</ele>
        <time>2010-05-15T14:25:20Z</time>
      </trkpt>
      <trkpt lat="48.59002" lon="2.01418">
        <ele>88</ele>
        <time>2010-05-15T14:25:21Z</time>
      </trkpt>
      <trkpt lat="48.59003" lon="2.0142">
        <ele>88</ele>
        <time>2010-05-15T14:25:22Z</time>
      </trkpt>
      <trkpt lat="48.59004" lon="2.01423">
        <ele>88</ele>
        <time>2010-05-15T14:25:23Z</time>
      </trkpt>
      <trkpt lat="48.59005" lon="2.01427">
        <ele>88</ele>
        <time>2010-05-15T14:25:25Z</time>
      </trkpt>
      <trkpt lat="48.59005" lon="2.01429">
        <ele>88</ele>
        <time>2010-05-15T14:25:26Z</time>
      </trkpt>
      <trkpt lat="48.59006" lon="2.01431">
        <ele>88</ele>
        <time>2010-05-15T14:25:27Z</time>
      </trkpt>
      <trkpt lat="48.59006" lon="2.01433">
        <ele>88</ele>
        <time>2010-05-15T14:25:28Z</time>
      </trkpt>
      <trkpt lat="48.59006" lon="2.01435">
        <ele>88</ele>
        <time>2010-05-15T14:25:29Z</time>
      </trkpt>
      <trkpt lat="48.59007" lon="2.01437">
        <ele>88</ele>
        <time>2010-05-15T14:25:30Z</time>
      </trkpt>
      <trkpt lat="48.59007" lon="2.01439">
        <ele>88</ele>
        <time>2010-05-15T14:25:31Z</time>
      </trkpt>
      <trkpt lat="48.59008" lon="2.01442">
        <ele>88</ele>
        <time>2010-05-15T14:25:32Z</time>
      </trkpt>
      <trkpt lat="48.59009" lon="2.01444">
        <ele>88</ele>
        <time>2010-05-15T14:25:33Z</time>
      </trkpt>
      <trkpt lat="48.59009" lon="2.01446">
        <ele>88</ele>
        <time>2010-05-15T14:25:34Z</time>
      </trkpt>
      <trkpt lat="48.5901" lon="2.01449">
        <ele>88</ele>
        <time>2010-05-15T14:25:35Z</time>
      </trkpt>
      <trkpt lat="48.59011" lon="2.01451">
        <ele>88</ele>
        <time>2010-05-15T14:25:36Z</time>
      </trkpt>
      <trkpt lat="48.59011" lon="2.01453">
        <ele>88</ele>
        <time>2010-05-15T14:25:37Z</time>
      </trkpt>
      <trkpt lat="48.59011" lon="2.01455">
        <ele>88</ele>
        <time>2010-05-15T14:25:38Z</time>
      </trkpt>
      <trkpt lat="48.59012" lon="2.01457">
        <ele>88</ele>
        <time>2010-05-15T14:25:39Z</time>
      </trkpt>
      <trkpt lat="48.59012" lon="2.01459">
        <ele>88</ele>
        <time>2010-05-15T14:25:40Z</time>
      </trkpt>
      <trkpt lat="48.59012" lon="2.0146">
        <ele>88</ele>
        <time>2010-05-15T14:25:41Z</time>
      </trkpt>
      <trkpt lat="48.59013" lon="2.01463">
        <ele>88</ele>
        <time>2010-05-15T14:25:42Z</time>
      </trkpt>
      <trkpt lat="48.59013" lon="2.01465">
        <ele>88</ele>
        <time>2010-05-15T14:25:43Z</time>
      </trkpt>
      <trkpt lat="48.59013" lon="2.01468">
        <ele>89</ele>
        <time>2010-05-15T14:25:44Z</time>
      </trkpt>
      <trkpt lat="48.59013" lon="2.0147">
        <ele>89</ele>
        <time>2010-05-15T14:25:45Z</time>
      </trkpt>
      <trkpt lat="48.59013" lon="2.01472">
        <ele>89</ele>
        <time>2010-05-15T14:25:46Z</time>
      </trkpt>
      <trkpt lat="48.59014" lon="2.01475">
        <ele>90</ele>
        <time>2010-05-15T14:25:47Z</time>
      </trkpt>
      <trkpt lat="48.59014" lon="2.01477">
        <ele>90</ele>
        <time>2010-05-15T14:25:48Z</time>
      </trkpt>
      <trkpt lat="48.59014" lon="2.0148">
        <ele>90</ele>
        <time>2010-05-15T14:25:49Z</time>
      </trkpt>
      <trkpt lat="48.59015" lon="2.01482">
        <ele>91</ele>
        <time>2010-05-15T14:25:50Z</time>
      </trkpt>
      <trkpt lat="48.59016" lon="2.01485">
        <ele>91</ele>
        <time>2010-05-15T14:25:51Z</time>
      </trkpt>
      <trkpt lat="48.59017" lon="2.01488">
        <ele>91</ele>
        <time>2010-05-15T14:25:52Z</time>
      </trkpt>
      <trkpt lat="48.59017" lon="2.0149">
        <ele>91</ele>
        <time>2010-05-15T14:25:53Z</time>
      </trkpt>
      <trkpt lat="48.59018" lon="2.01492">
        <ele>91</ele>
        <time>2010-05-15T14:25:54Z</time>
      </trkpt>
      <trkpt lat="48.59019" lon="2.01494">
        <ele>91</ele>
        <time>2010-05-15T14:25:55Z</time>
      </trkpt>
      <trkpt lat="48.5902" lon="2.01497">
        <ele>91</ele>
        <time>2010-05-15T14:25:56Z</time>
      </trkpt>
      <trkpt lat="48.5902" lon="2.01499">
        <ele>91</ele>
        <time>2010-05-15T14:25:57Z</time>
      </trkpt>
      <trkpt lat="48.59021" lon="2.01503">
        <ele>91</ele>
        <time>2010-05-15T14:25:58Z</time>
      </trkpt>
      <trkpt lat="48.59021" lon="2.01506">
        <ele>91</ele>
        <time>2010-05-15T14:25:59Z</time>
      </trkpt>
      <trkpt lat="48.59022" lon="2.01508">
        <ele>92</ele>
        <time>2010-05-15T14:26:00Z</time>
      </trkpt>
      <trkpt lat="48.59023" lon="2.0151">
        <ele>92</ele>
        <time>2010-05-15T14:26:01Z</time>
      </trkpt>
      <trkpt lat="48.59024" lon="2.01512">
        <ele>92</ele>
        <time>2010-05-15T14:26:02Z</time>
      </trkpt>
      <trkpt lat="48.59025" lon="2.01514">
        <ele>92</ele>
        <time>2010-05-15T14:26:03Z</time>
      </trkpt>
      <trkpt lat="48.59026" lon="2.01516">
        <ele>92</ele>
        <time>2010-05-15T14:26:04Z</time>
      </trkpt>
      <trkpt lat="48.59027" lon="2.01519">
        <ele>92</ele>
        <time>2010-05-15T14:26:05Z</time>
      </trkpt>
      <trkpt lat="48.59028" lon="2.01522">
        <ele>92</ele>
        <time>2010-05-15T14:26:06Z</time>
      </trkpt>
      <trkpt lat="48.59029" lon="2.01529">
        <ele>92</ele>
        <time>2010-05-15T14:26:07Z</time>
      </trkpt>
      <trkpt lat="48.5903" lon="2.01534">
        <ele>92</ele>
        <time>2010-05-15T14:26:08Z</time>
      </trkpt>
      <trkpt lat="48.59031" lon="2.01539">
        <ele>92</ele>
        <time>2010-05-15T14:26:09Z</time>
      </trkpt>
      <trkpt lat="48.59033" lon="2.01543">
        <ele>92</ele>
        <time>2010-05-15T14:26:10Z</time>
      </trkpt>
      <trkpt lat="48.59034" lon="2.01546">
        <ele>92</ele>
        <time>2010-05-15T14:26:11Z</time>
      </trkpt>
      <trkpt lat="48.59034" lon="2.01549">
        <ele>92</ele>
        <time>2010-05-15T14:26:12Z</time>
      </trkpt>
      <trkpt lat="48.59036" lon="2.01552">
        <ele>92</ele>
        <time>2010-05-15T14:26:13Z</time>
      </trkpt>
      <trkpt lat="48.59036" lon="2.01554">
        <ele>92</ele>
        <time>2010-05-15T14:26:14Z</time>
      </trkpt>
      <trkpt lat="48.59038" lon="2.01557">
        <ele>92</ele>
        <time>2010-05-15T14:26:16Z</time>
      </trkpt>
      <trkpt lat="48.5904" lon="2.01558">
        <ele>92</ele>
        <time>2010-05-15T14:26:17Z</time>
      </trkpt>
      <trkpt lat="48.59041" lon="2.01559">
        <ele>92</ele>
        <time>2010-05-15T14:26:18Z</time>
      </trkpt>
      <trkpt lat="48.59043" lon="2.0156">
        <ele>92</ele>
        <time>2010-05-15T14:26:19Z</time>
      </trkpt>
      <trkpt lat="48.59044" lon="2.01563">
        <ele>92</ele>
        <time>2010-05-15T14:26:20Z</time>
      </trkpt>
      <trkpt lat="48.59044" lon="2.01565">
        <ele>92</ele>
        <time>2010-05-15T14:26:21Z</time>
      </trkpt>
      <trkpt lat="48.59045" lon="2.01567">
        <ele>92</ele>
        <time>2010-05-15T14:26:22Z</time>
      </trkpt>
      <trkpt lat="48.59046" lon="2.01569">
        <ele>92</ele>
        <time>2010-05-15T14:26:23Z</time>
      </trkpt>
      <trkpt lat="48.59047" lon="2.01571">
        <ele>92</ele>
        <time>2010-05-15T14:26:24Z</time>
      </trkpt>
      <trkpt lat="48.59048" lon="2.01573">
        <ele>92</ele>
        <time>2010-05-15T14:26:25Z</time>
      </trkpt>
      <trkpt lat="48.59049" lon="2.01575">
        <ele>92</ele>
        <time>2010-05-15T14:26:26Z</time>
      </trkpt>
      <trkpt lat="48.59051" lon="2.01577">
        <ele>92</ele>
        <time>2010-05-15T14:26:27Z</time>
      </trkpt>
      <trkpt lat="48.59052" lon="2.01579">
        <ele>93</ele>
        <time>2010-05-15T14:26:28Z</time>
      </trkpt>
      <trkpt lat="48.59053" lon="2.0158">
        <ele>93</ele>
        <time>2010-05-15T14:26:29Z</time>
      </trkpt>
      <trkpt lat="48.59054" lon="2.01582">
        <ele>93</ele>
        <time>2010-05-15T14:26:30Z</time>
      </trkpt>
      <trkpt lat="48.59055" lon="2.01584">
        <ele>93</ele>
        <time>2010-05-15T14:26:31Z</time>
      </trkpt>
      <trkpt lat="48.59056" lon="2.01586">
        <ele>93</ele>
        <time>2010-05-15T14:26:32Z</time>
      </trkpt>
      <trkpt lat="48.59057" lon="2.01587">
        <ele>93</ele>
        <time>2010-05-15T14:26:33Z</time>
      </trkpt>
      <trkpt lat="48.59059" lon="2.01591">
        <ele>93</ele>
        <time>2010-05-15T14:26:34Z</time>
      </trkpt>
      <trkpt lat="48.5906" lon="2.01593">
        <ele>93</ele>
        <time>2010-05-15T14:26:35Z</time>
      </trkpt>
      <trkpt lat="48.59062" lon="2.01596">
        <ele>93</ele>
        <time>2010-05-15T14:26:36Z</time>
      </trkpt>
      <trkpt lat="48.59064" lon="2.01599">
        <ele>93</ele>
        <time>2010-05-15T14:26:37Z</time>
      </trkpt>
      <trkpt lat="48.59065" lon="2.01601">
        <ele>93</ele>
        <time>2010-05-15T14:26:39Z</time>
      </trkpt>
      <trkpt lat="48.59066" lon="2.01603">
        <ele>93</ele>
        <time>2010-05-15T14:26:41Z</time>
      </trkpt>
      <trkpt lat="48.59067" lon="2.01606">
        <ele>93</ele>
        <time>2010-05-15T14:26:42Z</time>
      </trkpt>
      <trkpt lat="48.59067" lon="2.01607">
        <ele>93</ele>
        <time>2010-05-15T14:26:43Z</time>
      </trkpt>
      <trkpt lat="48.59068" lon="2.0161">
        <ele>93</ele>
        <time>2010-05-15T14:26:44Z</time>
      </trkpt>
      <trkpt lat="48.59068" lon="2.01611">
        <ele>93</ele>
        <time>2010-05-15T14:26:45Z</time>
      </trkpt>
      <trkpt lat="48.59068" lon="2.01613">
        <ele>93</ele>
        <time>2010-05-15T14:26:46Z</time>
      </trkpt>
      <trkpt lat="48.59068" lon="2.01616">
        <ele>93</ele>
        <time>2010-05-15T14:26:48Z</time>
      </trkpt>
      <trkpt lat="48.59067" lon="2.01619">
        <ele>93</ele>
        <time>2010-05-15T14:26:50Z</time>
      </trkpt>
      <trkpt lat="48.59067" lon="2.01621">
        <ele>93</ele>
        <time>2010-05-15T14:26:51Z</time>
      </trkpt>
      <trkpt lat="48.59067" lon="2.01623">
        <ele>93</ele>
        <time>2010-05-15T14:26:52Z</time>
      </trkpt>
      <trkpt lat="48.59067" lon="2.01626">
        <ele>93</ele>
        <time>2010-05-15T14:26:53Z</time>
      </trkpt>
      <trkpt lat="48.59067" lon="2.01628">
        <ele>94</ele>
        <time>2010-05-15T14:26:54Z</time>
      </trkpt>
      <trkpt lat="48.59067" lon="2.0163">
        <ele>94</ele>
        <time>2010-05-15T14:26:55Z</time>
      </trkpt>
      <trkpt lat="48.59067" lon="2.01632">
        <ele>95</ele>
        <time>2010-05-15T14:26:56Z</time>
      </trkpt>
      <trkpt lat="48.59068" lon="2.01634">
        <ele>96</ele>
        <time>2010-05-15T14:26:57Z</time>
      </trkpt>
      <trkpt lat="48.59068" lon="2.01637">
        <ele>96</ele>
        <time>2010-05-15T14:26:58Z</time>
      </trkpt>
      <trkpt lat="48.59068" lon="2.01639">
        <ele>97</ele>
        <time>2010-05-15T14:26:59Z</time>
      </trkpt>
      <trkpt lat="48.59068" lon="2.01641">
        <ele>97</ele>
        <time>2010-05-15T14:27:00Z</time>
      </trkpt>
      <trkpt lat="48.59068" lon="2.01643">
        <ele>97</ele>
        <time>2010-05-15T14:27:01Z</time>
      </trkpt>
      <trkpt lat="48.59068" lon="2.01647">
        <ele>98</ele>
        <time>2010-05-15T14:27:02Z</time>
      </trkpt>
      <trkpt lat="48.59068" lon="2.01651">
        <ele>98</ele>
        <time>2010-05-15T14:27:03Z</time>
      </trkpt>
      <trkpt lat="48.59068" lon="2.01656">
        <ele>98</ele>
        <time>2010-05-15T14:27:04Z</time>
      </trkpt>
      <trkpt lat="48.59068" lon="2.01663">
        <ele>98</ele>
        <time>2010-05-15T14:27:05Z</time>
      </trkpt>
      <trkpt lat="48.59069" lon="2.01668">
        <ele>99</ele>
        <time>2010-05-15T14:27:06Z</time>
      </trkpt>
      <trkpt lat="48.5907" lon="2.01677">
        <ele>99</ele>
        <time>2010-05-15T14:27:07Z</time>
      </trkpt>
      <trkpt lat="48.59071" lon="2.01682">
        <ele>99</ele>
        <time>2010-05-15T14:27:08Z</time>
      </trkpt>
      <trkpt lat="48.5907" lon="2.01687">
        <ele>99</ele>
        <time>2010-05-15T14:27:09Z</time>
      </trkpt>
      <trkpt lat="48.5907" lon="2.01692">
        <ele>99</ele>
        <time>2010-05-15T14:27:10Z</time>
      </trkpt>
      <trkpt lat="48.59071" lon="2.01699">
        <ele>99</ele>
        <time>2010-05-15T14:27:11Z</time>
      </trkpt>
      <trkpt lat="48.59071" lon="2.01705">
        <ele>99</ele>
        <time>2010-05-15T14:27:12Z</time>
      </trkpt>
      <trkpt lat="48.59071" lon="2.01709">
        <ele>99</ele>
        <time>2010-05-15T14:27:13Z</time>
      </trkpt>
      <trkpt lat="48.59071" lon="2.01713">
        <ele>99</ele>
        <time>2010-05-15T14:27:14Z</time>
      </trkpt>
      <trkpt lat="48.59071" lon="2.01717">
        <ele>99</ele>
        <time>2010-05-15T14:27:15Z</time>
      </trkpt>
      <trkpt lat="48.59071" lon="2.0172">
        <ele>99</ele>
        <time>2010-05-15T14:27:16Z</time>
      </trkpt>
      <trkpt lat="48.59071" lon="2.01724">
        <ele>99</ele>
        <time>2010-05-15T14:27:17Z</time>
      </trkpt>
      <trkpt lat="48.59072" lon="2.01728">
        <ele>99</ele>
        <time>2010-05-15T14:27:18Z</time>
      </trkpt>
      <trkpt lat="48.59072" lon="2.01731">
        <ele>99</ele>
        <time>2010-05-15T14:27:19Z</time>
      </trkpt>
      <trkpt lat="48.59072" lon="2.01734">
        <ele>99</ele>
        <time>2010-05-15T14:27:20Z</time>
      </trkpt>
      <trkpt lat="48.59072" lon="2.01736">
        <ele>99</ele>
        <time>2010-05-15T14:27:21Z</time>
      </trkpt>
      <trkpt lat="48.59072" lon="2.01738">
        <ele>99</ele>
        <time>2010-05-15T14:27:22Z</time>
      </trkpt>
      <trkpt lat="48.59072" lon="2.0174">
        <ele>99</ele>
        <time>2010-05-15T14:27:23Z</time>
      </trkpt>
      <trkpt lat="48.59072" lon="2.01743">
        <ele>99</ele>
        <time>2010-05-15T14:27:24Z</time>
      </trkpt>
      <trkpt lat="48.59072" lon="2.01746">
        <ele>99</ele>
        <time>2010-05-15T14:27:25Z</time>
      </trkpt>
      <trkpt lat="48.59072" lon="2.01748">
        <ele>99</ele>
        <time>2010-05-15T14:27:26Z</time>
      </trkpt>
      <trkpt lat="48.59072" lon="2.01751">
        <ele>99</ele>
        <time>2010-05-15T14:27:27Z</time>
      </trkpt>
      <trkpt lat="48.59072" lon="2.01753">
        <ele>99</ele>
        <time>2010-05-15T14:27:28Z</time>
      </trkpt>
      <trkpt lat="48.59071" lon="2.01755">
        <ele>99</ele>
        <time>2010-05-15T14:27:29Z</time>
      </trkpt>
      <trkpt lat="48.59071" lon="2.01758">
        <ele>99</ele>
        <time>2010-05-15T14:27:30Z</time>
      </trkpt>
      <trkpt lat="48.59071" lon="2.01761">
        <ele>99</ele>
        <time>2010-05-15T14:27:31Z</time>
      </trkpt>
      <trkpt lat="48.59071" lon="2.01763">
        <ele>99</ele>
        <time>2010-05-15T14:27:32Z</time>
      </trkpt>
      <trkpt lat="48.59071" lon="2.01765">
        <ele>99</ele>
        <time>2010-05-15T14:27:33Z</time>
      </trkpt>
      <trkpt lat="48.59071" lon="2.01767">
        <ele>99</ele>
        <time>2010-05-15T14:27:34Z</time>
      </trkpt>
      <trkpt lat="48.59072" lon="2.01769">
        <ele>99</ele>
        <time>2010-05-15T14:27:35Z</time>
      </trkpt>
      <trkpt lat="48.59072" lon="2.01771">
        <ele>99</ele>
        <time>2010-05-15T14:27:36Z</time>
      </trkpt>
      <trkpt lat="48.59073" lon="2.01774">
        <ele>99</ele>
        <time>2010-05-15T14:27:38Z</time>
      </trkpt>
      <trkpt lat="48.59074" lon="2.01777">
        <ele>99</ele>
        <time>2010-05-15T14:27:39Z</time>
      </trkpt>
      <trkpt lat="48.59075" lon="2.01779">
        <ele>99</ele>
        <time>2010-05-15T14:27:40Z</time>
      </trkpt>
      <trkpt lat="48.59075" lon="2.01782">
        <ele>99</ele>
        <time>2010-05-15T14:27:41Z</time>
      </trkpt>
      <trkpt lat="48.59075" lon="2.01784">
        <ele>99</ele>
        <time>2010-05-15T14:27:42Z</time>
      </trkpt>
      <trkpt lat="48.59076" lon="2.01787">
        <ele>99</ele>
        <time>2010-05-15T14:27:44Z</time>
      </trkpt>
      <trkpt lat="48.59077" lon="2.01788">
        <ele>99</ele>
        <time>2010-05-15T14:27:45Z</time>
      </trkpt>
      <trkpt lat="48.59077" lon="2.01791">
        <ele>100</ele>
        <time>2010-05-15T14:27:47Z</time>
      </trkpt>
      <trkpt lat="48.59077" lon="2.01793">
        <ele>100</ele>
        <time>2010-05-15T14:27:48Z</time>
      </trkpt>
      <trkpt lat="48.59078" lon="2.01795">
        <ele>100</ele>
        <time>2010-05-15T14:27:49Z</time>
      </trkpt>
      <trkpt lat="48.59078" lon="2.01797">
        <ele>100</ele>
        <time>2010-05-15T14:27:50Z</time>
      </trkpt>
      <trkpt lat="48.59078" lon="2.01799">
        <ele>100</ele>
        <time>2010-05-15T14:27:51Z</time>
      </trkpt>
      <trkpt lat="48.59079" lon="2.01801">
        <ele>100</ele>
        <time>2010-05-15T14:27:52Z</time>
      </trkpt>
      <trkpt lat="48.59079" lon="2.01803">
        <ele>101</ele>
        <time>2010-05-15T14:27:53Z</time>
      </trkpt>
      <trkpt lat="48.59081" lon="2.01807">
        <ele>102</ele>
        <time>2010-05-15T14:27:55Z</time>
      </trkpt>
      <trkpt lat="48.59081" lon="2.01809">
        <ele>103</ele>
        <time>2010-05-15T14:27:57Z</time>
      </trkpt>
      <trkpt lat="48.59082" lon="2.01812">
        <ele>103</ele>
        <time>2010-05-15T14:27:58Z</time>
      </trkpt>
      <trkpt lat="48.59083" lon="2.01815">
        <ele>103</ele>
        <time>2010-05-15T14:28:00Z</time>
      </trkpt>
      <trkpt lat="48.59083" lon="2.01817">
        <ele>104</ele>
        <time>2010-05-15T14:28:01Z</time>
      </trkpt>
      <trkpt lat="48.59084" lon="2.01819">
        <ele>104</ele>
        <time>2010-05-15T14:28:02Z</time>
      </trkpt>
      <trkpt lat="48.59084" lon="2.01821">
        <ele>105</ele>
        <time>2010-05-15T14:28:03Z</time>
      </trkpt>
      <trkpt lat="48.59085" lon="2.01824">
        <ele>105</ele>
        <time>2010-05-15T14:28:04Z</time>
      </trkpt>
      <trkpt lat="48.59086" lon="2.01826">
        <ele>106</ele>
        <time>2010-05-15T14:28:05Z</time>
      </trkpt>
      <trkpt lat="48.59087" lon="2.01828">
        <ele>106</ele>
        <time>2010-05-15T14:28:06Z</time>
      </trkpt>
      <trkpt lat="48.59088" lon="2.0183">
        <ele>107</ele>
        <time>2010-05-15T14:28:07Z</time>
      </trkpt>
      <trkpt lat="48.59089" lon="2.01834">
        <ele>107</ele>
        <time>2010-05-15T14:28:08Z</time>
      </trkpt>
      <trkpt lat="48.5909" lon="2.01837">
        <ele>107</ele>
        <time>2010-05-15T14:28:09Z</time>
      </trkpt>
      <trkpt lat="48.59091" lon="2.0184">
        <ele>107</ele>
        <time>2010-05-15T14:28:10Z</time>
      </trkpt>
      <trkpt lat="48.59091" lon="2.01843">
        <ele>107</ele>
        <time>2010-05-15T14:28:11Z</time>
      </trkpt>
      <trkpt lat="48.59091" lon="2.01846">
        <ele>107</ele>
        <time>2010-05-15T14:28:13Z</time>
      </trkpt>
      <trkpt lat="48.59092" lon="2.01848">
        <ele>107</ele>
        <time>2010-05-15T14:28:14Z</time>
      </trkpt>
      <trkpt lat="48.59093" lon="2.0185">
        <ele>107</ele>
        <time>2010-05-15T14:28:15Z</time>
      </trkpt>
      <trkpt lat="48.59093" lon="2.01852">
        <ele>107</ele>
        <time>2010-05-15T14:28:16Z</time>
      </trkpt>
      <trkpt lat="48.59094" lon="2.01854">
        <ele>107</ele>
        <time>2010-05-15T14:28:17Z</time>
      </trkpt>
      <trkpt lat="48.59095" lon="2.01856">
        <ele>107</ele>
        <time>2010-05-15T14:28:18Z</time>
      </trkpt>
      <trkpt lat="48.59096" lon="2.01859">
        <ele>107</ele>
        <time>2010-05-15T14:28:19Z</time>
      </trkpt>
      <trkpt lat="48.59096" lon="2.01861">
        <ele>107</ele>
        <time>2010-05-15T14:28:20Z</time>
      </trkpt>
      <trkpt lat="48.59097" lon="2.01863">
        <ele>107</ele>
        <time>2010-05-15T14:28:21Z</time>
      </trkpt>
      <trkpt lat="48.59099" lon="2.01866">
        <ele>107</ele>
        <time>2010-05-15T14:28:22Z</time>
      </trkpt>
      <trkpt lat="48.59099" lon="2.01869">
        <ele>107</ele>
        <time>2010-05-15T14:28:23Z</time>
      </trkpt>
      <trkpt lat="48.59099" lon="2.01871">
        <ele>107</ele>
        <time>2010-05-15T14:28:24Z</time>
      </trkpt>
      <trkpt lat="48.59101" lon="2.01875">
        <ele>107</ele>
        <time>2010-05-15T14:28:26Z</time>
      </trkpt>
      <trkpt lat="48.59103" lon="2.01879">
        <ele>107</ele>
        <time>2010-05-15T14:28:27Z</time>
      </trkpt>
      <trkpt lat="48.59104" lon="2.01882">
        <ele>107</ele>
        <time>2010-05-15T14:28:28Z</time>
      </trkpt>
      <trkpt lat="48.59105" lon="2.01885">
        <ele>107</ele>
        <time>2010-05-15T14:28:29Z</time>
      </trkpt>
      <trkpt lat="48.59106" lon="2.01887">
        <ele>107</ele>
        <time>2010-05-15T14:28:30Z</time>
      </trkpt>
      <trkpt lat="48.59107" lon="2.0189">
        <ele>107</ele>
        <time>2010-05-15T14:28:31Z</time>
      </trkpt>
      <trkpt lat="48.59108" lon="2.01893">
        <ele>107</ele>
        <time>2010-05-15T14:28:33Z</time>
      </trkpt>
      <trkpt lat="48.59109" lon="2.01895">
        <ele>107</ele>
        <time>2010-05-15T14:28:34Z</time>
      </trkpt>
      <trkpt lat="48.5911" lon="2.01897">
        <ele>107</ele>
        <time>2010-05-15T14:28:35Z</time>
      </trkpt>
      <trkpt lat="48.59111" lon="2.01898">
        <ele>108</ele>
        <time>2010-05-15T14:28:36Z</time>
      </trkpt>
      <trkpt lat="48.59112" lon="2.01902">
        <ele>109</ele>
        <time>2010-05-15T14:28:37Z</time>
      </trkpt>
      <trkpt lat="48.59113" lon="2.01903">
        <ele>109</ele>
        <time>2010-05-15T14:28:38Z</time>
      </trkpt>
      <trkpt lat="48.59115" lon="2.01908">
        <ele>109</ele>
        <time>2010-05-15T14:28:39Z</time>
      </trkpt>
      <trkpt lat="48.59116" lon="2.01911">
        <ele>109</ele>
        <time>2010-05-15T14:28:40Z</time>
      </trkpt>
      <trkpt lat="48.59116" lon="2.01914">
        <ele>109</ele>
        <time>2010-05-15T14:28:41Z</time>
      </trkpt>
      <trkpt lat="48.59117" lon="2.01918">
        <ele>109</ele>
        <time>2010-05-15T14:28:42Z</time>
      </trkpt>
      <trkpt lat="48.59117" lon="2.01921">
        <ele>109</ele>
        <time>2010-05-15T14:28:43Z</time>
      </trkpt>
      <trkpt lat="48.59118" lon="2.01925">
        <ele>109</ele>
        <time>2010-05-15T14:28:44Z</time>
      </trkpt>
      <trkpt lat="48.59119" lon="2.01926">
        <ele>109</ele>
        <time>2010-05-15T14:28:45Z</time>
      </trkpt>
      <trkpt lat="48.5912" lon="2.01929">
        <ele>109</ele>
        <time>2010-05-15T14:28:47Z</time>
      </trkpt>
      <trkpt lat="48.59121" lon="2.01932">
        <ele>109</ele>
        <time>2010-05-15T14:28:49Z</time>
      </trkpt>
      <trkpt lat="48.59122" lon="2.01935">
        <ele>109</ele>
        <time>2010-05-15T14:28:51Z</time>
      </trkpt>
      <trkpt lat="48.59123" lon="2.01937">
        <ele>109</ele>
        <time>2010-05-15T14:28:52Z</time>
      </trkpt>
      <trkpt lat="48.59123" lon="2.01938">
        <ele>110</ele>
        <time>2010-05-15T14:28:53Z</time>
      </trkpt>
      <trkpt lat="48.59124" lon="2.0194">
        <ele>110</ele>
        <time>2010-05-15T14:28:54Z</time>
      </trkpt>
      <trkpt lat="48.59124" lon="2.01942">
        <ele>111</ele>
        <time>2010-05-15T14:28:55Z</time>
      </trkpt>
      <trkpt lat="48.59125" lon="2.01944">
        <ele>111</ele>
        <time>2010-05-15T14:28:56Z</time>
      </trkpt>
      <trkpt lat="48.59126" lon="2.01947">
        <ele>111</ele>
        <time>2010-05-15T14:28:57Z</time>
      </trkpt>
      <trkpt lat="48.59128" lon="2.01949">
        <ele>111</ele>
        <time>2010-05-15T14:28:58Z</time>
      </trkpt>
      <trkpt lat="48.59129" lon="2.01951">
        <ele>111</ele>
        <time>2010-05-15T14:28:59Z</time>
      </trkpt>
      <trkpt lat="48.59129" lon="2.01953">
        <ele>111</ele>
        <time>2010-05-15T14:29:00Z</time>
      </trkpt>
      <trkpt lat="48.5913" lon="2.01955">
        <ele>111</ele>
        <time>2010-05-15T14:29:01Z</time>
      </trkpt>
      <trkpt lat="48.59131" lon="2.01957">
        <ele>111</ele>
        <time>2010-05-15T14:29:02Z</time>
      </trkpt>
      <trkpt lat="48.59132" lon="2.01959">
        <ele>111</ele>
        <time>2010-05-15T14:29:03Z</time>
      </trkpt>
      <trkpt lat="48.59133" lon="2.01961">
        <ele>111</ele>
        <time>2010-05-15T14:29:04Z</time>
      </trkpt>
      <trkpt lat="48.59134" lon="2.01964">
        <ele>111</ele>
        <time>2010-05-15T14:29:05Z</time>
      </trkpt>
      <trkpt lat="48.59135" lon="2.01966">
        <ele>111</ele>
        <time>2010-05-15T14:29:06Z</time>
      </trkpt>
      <trkpt lat="48.59136" lon="2.01969">
        <ele>111</ele>
        <time>2010-05-15T14:29:07Z</time>
      </trkpt>
      <trkpt lat="48.59136" lon="2.01971">
        <ele>111</ele>
        <time>2010-05-15T14:29:08Z</time>
      </trkpt>
      <trkpt lat="48.59137" lon="2.01973">
        <ele>111</ele>
        <time>2010-05-15T14:29:09Z</time>
      </trkpt>
      <trkpt lat="48.59138" lon="2.01976">
        <ele>111</ele>
        <time>2010-05-15T14:29:10Z</time>
      </trkpt>
      <trkpt lat="48.59138" lon="2.0198">
        <ele>111</ele>
        <time>2010-05-15T14:29:11Z</time>
      </trkpt>
      <trkpt lat="48.59139" lon="2.01984">
        <ele>111</ele>
        <time>2010-05-15T14:29:12Z</time>
      </trkpt>
      <trkpt lat="48.59141" lon="2.01987">
        <ele>110</ele>
        <time>2010-05-15T14:29:14Z</time>
      </trkpt>
      <trkpt lat="48.59142" lon="2.0199">
        <ele>109</ele>
        <time>2010-05-15T14:29:15Z</time>
      </trkpt>
      <trkpt lat="48.59142" lon="2.01992">
        <ele>108</ele>
        <time>2010-05-15T14:29:16Z</time>
      </trkpt>
      <trkpt lat="48.59142" lon="2.01993">
        <ele>107</ele>
        <time>2010-05-15T14:29:17Z</time>
      </trkpt>
      <trkpt lat="48.59144" lon="2.01998">
        <ele>107</ele>
        <time>2010-05-15T14:29:19Z</time>
      </trkpt>
      <trkpt lat="48.59144" lon="2.02">
        <ele>107</ele>
        <time>2010-05-15T14:29:20Z</time>
      </trkpt>
      <trkpt lat="48.59144" lon="2.02002">
        <ele>107</ele>
        <time>2010-05-15T14:29:21Z</time>
      </trkpt>
      <trkpt lat="48.59144" lon="2.02004">
        <ele>107</ele>
        <time>2010-05-15T14:29:22Z</time>
      </trkpt>
      <trkpt lat="48.59144" lon="2.02006">
        <ele>107</ele>
        <time>2010-05-15T14:29:23Z</time>
      </trkpt>
      <trkpt lat="48.59144" lon="2.02008">
        <ele>106</ele>
        <time>2010-05-15T14:29:24Z</time>
      </trkpt>
      <trkpt lat="48.59145" lon="2.0201">
        <ele>106</ele>
        <time>2010-05-15T14:29:25Z</time>
      </trkpt>
      <trkpt lat="48.59145" lon="2.02012">
        <ele>106</ele>
        <time>2010-05-15T14:29:26Z</time>
      </trkpt>
      <trkpt lat="48.59147" lon="2.02015">
        <ele>106</ele>
        <time>2010-05-15T14:29:28Z</time>
      </trkpt>
      <trkpt lat="48.59148" lon="2.02017">
        <ele>106</ele>
        <time>2010-05-15T14:29:29Z</time>
      </trkpt>
      <trkpt lat="48.59149" lon="2.02019">
        <ele>106</ele>
        <time>2010-05-15T14:29:30Z</time>
      </trkpt>
      <trkpt lat="48.5915" lon="2.02023">
        <ele>106</ele>
        <time>2010-05-15T14:29:32Z</time>
      </trkpt>
      <trkpt lat="48.59151" lon="2.02025">
        <ele>106</ele>
        <time>2010-05-15T14:29:34Z</time>
      </trkpt>
      <trkpt lat="48.59152" lon="2.02028">
        <ele>106</ele>
        <time>2010-05-15T14:29:36Z</time>
      </trkpt>
      <trkpt lat="48.59154" lon="2.02031">
        <ele>106</ele>
        <time>2010-05-15T14:29:38Z</time>
      </trkpt>
      <trkpt lat="48.59154" lon="2.02035">
        <ele>106</ele>
        <time>2010-05-15T14:29:40Z</time>
      </trkpt>
      <trkpt lat="48.59155" lon="2.02041">
        <ele>106</ele>
        <time>2010-05-15T14:29:42Z</time>
      </trkpt>
      <trkpt lat="48.59156" lon="2.02044">
        <ele>106</ele>
        <time>2010-05-15T14:29:43Z</time>
      </trkpt>
      <trkpt lat="48.59156" lon="2.02046">
        <ele>106</ele>
        <time>2010-05-15T14:29:44Z</time>
      </trkpt>
      <trkpt lat="48.59156" lon="2.02048">
        <ele>106</ele>
        <time>2010-05-15T14:29:45Z</time>
      </trkpt>
      <trkpt lat="48.59156" lon="2.0205">
        <ele>106</ele>
        <time>2010-05-15T14:29:46Z</time>
      </trkpt>
      <trkpt lat="48.59157" lon="2.02052">
        <ele>106</ele>
        <time>2010-05-15T14:29:47Z</time>
      </trkpt>
      <trkpt lat="48.59157" lon="2.02055">
        <ele>106</ele>
        <time>2010-05-15T14:29:48Z</time>
      </trkpt>
      <trkpt lat="48.59157" lon="2.02058">
        <ele>106</ele>
        <time>2010-05-15T14:29:49Z</time>
      </trkpt>
      <trkpt lat="48.59157" lon="2.0206">
        <ele>106</ele>
        <time>2010-05-15T14:29:50Z</time>
      </trkpt>
      <trkpt lat="48.59158" lon="2.02061">
        <ele>106</ele>
        <time>2010-05-15T14:29:51Z</time>
      </trkpt>
      <trkpt lat="48.59158" lon="2.02065">
        <ele>106</ele>
        <time>2010-05-15T14:29:53Z</time>
      </trkpt>
      <trkpt lat="48.59158" lon="2.02068">
        <ele>106</ele>
        <time>2010-05-15T14:29:54Z</time>
      </trkpt>
      <trkpt lat="48.59159" lon="2.02071">
        <ele>106</ele>
        <time>2010-05-15T14:29:55Z</time>
      </trkpt>
      <trkpt lat="48.59159" lon="2.02074">
        <ele>106</ele>
        <time>2010-05-15T14:29:56Z</time>
      </trkpt>
      <trkpt lat="48.59159" lon="2.02076">
        <ele>106</ele>
        <time>2010-05-15T14:29:57Z</time>
      </trkpt>
      <trkpt lat="48.5916" lon="2.02079">
        <ele>106</ele>
        <time>2010-05-15T14:29:58Z</time>
      </trkpt>
      <trkpt lat="48.5916" lon="2.02082">
        <ele>106</ele>
        <time>2010-05-15T14:29:59Z</time>
      </trkpt>
      <trkpt lat="48.5916" lon="2.02084">
        <ele>106</ele>
        <time>2010-05-15T14:30:00Z</time>
      </trkpt>
      <trkpt lat="48.59161" lon="2.02086">
        <ele>106</ele>
        <time>2010-05-15T14:30:01Z</time>
      </trkpt>
      <trkpt lat="48.59161" lon="2.02088">
        <ele>106</ele>
        <time>2010-05-15T14:30:02Z</time>
      </trkpt>
      <trkpt lat="48.59161" lon="2.02091">
        <ele>106</ele>
        <time>2010-05-15T14:30:03Z</time>
      </trkpt>
      <trkpt lat="48.59161" lon="2.02094">
        <ele>106</ele>
        <time>2010-05-15T14:30:04Z</time>
      </trkpt>
      <trkpt lat="48.59162" lon="2.02097">
        <ele>107</ele>
        <time>2010-05-15T14:30:05Z</time>
      </trkpt>
      <trkpt lat="48.59162" lon="2.02099">
        <ele>107</ele>
        <time>2010-05-15T14:30:06Z</time>
      </trkpt>
      <trkpt lat="48.59163" lon="2.02101">
        <ele>108</ele>
        <time>2010-05-15T14:30:07Z</time>
      </trkpt>
      <trkpt lat="48.59163" lon="2.02104">
        <ele>108</ele>
        <time>2010-05-15T14:30:08Z</time>
      </trkpt>
      <trkpt lat="48.59164" lon="2.02106">
        <ele>108</ele>
        <time>2010-05-15T14:30:09Z</time>
      </trkpt>
      <trkpt lat="48.59164" lon="2.02108">
        <ele>108</ele>
        <time>2010-05-15T14:30:10Z</time>
      </trkpt>
      <trkpt lat="48.59165" lon="2.0211">
        <ele>109</ele>
        <time>2010-05-15T14:30:11Z</time>
      </trkpt>
      <trkpt lat="48.59165" lon="2.02113">
        <ele>109</ele>
        <time>2010-05-15T14:30:12Z</time>
      </trkpt>
      <trkpt lat="48.59165" lon="2.02115">
        <ele>109</ele>
        <time>2010-05-15T14:30:13Z</time>
      </trkpt>
      <trkpt lat="48.59166" lon="2.02117">
        <ele>109</ele>
        <time>2010-05-15T14:30:14Z</time>
      </trkpt>
      <trkpt lat="48.59166" lon="2.02119">
        <ele>110</ele>
        <time>2010-05-15T14:30:15Z</time>
      </trkpt>
      <trkpt lat="48.59166" lon="2.02121">
        <ele>110</ele>
        <time>2010-05-15T14:30:16Z</time>
      </trkpt>
      <trkpt lat="48.59166" lon="2.02123">
        <ele>111</ele>
        <time>2010-05-15T14:30:17Z</time>
      </trkpt>
      <trkpt lat="48.59166" lon="2.02127">
        <ele>111</ele>
        <time>2010-05-15T14:30:18Z</time>
      </trkpt>
      <trkpt lat="48.59166" lon="2.0213">
        <ele>112</ele>
        <time>2010-05-15T14:30:19Z</time>
      </trkpt>
      <trkpt lat="48.59166" lon="2.02133">
        <ele>112</ele>
        <time>2010-05-15T14:30:20Z</time>
      </trkpt>
      <trkpt lat="48.59166" lon="2.02135">
        <ele>113</ele>
        <time>2010-05-15T14:30:21Z</time>
      </trkpt>
      <trkpt lat="48.59166" lon="2.02137">
        <ele>113</ele>
        <time>2010-05-15T14:30:22Z</time>
      </trkpt>
      <trkpt lat="48.59167" lon="2.02139">
        <ele>113</ele>
        <time>2010-05-15T14:30:23Z</time>
      </trkpt>
      <trkpt lat="48.59167" lon="2.02141">
        <ele>114</ele>
        <time>2010-05-15T14:30:24Z</time>
      </trkpt>
      <trkpt lat="48.59167" lon="2.02145">
        <ele>114</ele>
        <time>2010-05-15T14:30:25Z</time>
      </trkpt>
      <trkpt lat="48.59167" lon="2.02147">
        <ele>115</ele>
        <time>2010-05-15T14:30:26Z</time>
      </trkpt>
      <trkpt lat="48.59167" lon="2.0215">
        <ele>115</ele>
        <time>2010-05-15T14:30:27Z</time>
      </trkpt>
      <trkpt lat="48.59167" lon="2.02152">
        <ele>116</ele>
        <time>2010-05-15T14:30:28Z</time>
      </trkpt>
      <trkpt lat="48.59167" lon="2.02154">
        <ele>117</ele>
        <time>2010-05-15T14:30:29Z</time>
      </trkpt>
      <trkpt lat="48.59167" lon="2.02156">
        <ele>117</ele>
        <time>2010-05-15T14:30:30Z</time>
      </trkpt>
      <trkpt lat="48.59166" lon="2.0216">
        <ele>118</ele>
        <time>2010-05-15T14:30:31Z</time>
      </trkpt>
      <trkpt lat="48.59166" lon="2.02162">
        <ele>118</ele>
        <time>2010-05-15T14:30:32Z</time>
      </trkpt>
      <trkpt lat="48.59166" lon="2.02164">
        <ele>118</ele>
        <time>2010-05-15T14:30:33Z</time>
      </trkpt>
      <trkpt lat="48.59166" lon="2.02167">
        <ele>118</ele>
        <time>2010-05-15T14:30:34Z</time>
      </trkpt>
      <trkpt lat="48.59167" lon="2.02173">
        <ele>118</ele>
        <time>2010-05-15T14:30:35Z</time>
      </trkpt>
      <trkpt lat="48.59167" lon="2.02176">
        <ele>118</ele>
        <time>2010-05-15T14:30:36Z</time>
      </trkpt>
      <trkpt lat="48.59166" lon="2.02179">
        <ele>118</ele>
        <time>2010-05-15T14:30:37Z</time>
      </trkpt>
      <trkpt lat="48.59166" lon="2.02181">
        <ele>118</ele>
        <time>2010-05-15T14:30:38Z</time>
      </trkpt>
      <trkpt lat="48.59166" lon="2.02184">
        <ele>118</ele>
        <time>2010-05-15T14:30:40Z</time>
      </trkpt>
      <trkpt lat="48.59166" lon="2.02187">
        <ele>118</ele>
        <time>2010-05-15T14:30:42Z</time>
      </trkpt>
      <trkpt lat="48.59166" lon="2.02191">
        <ele>119</ele>
        <time>2010-05-15T14:30:43Z</time>
      </trkpt>
      <trkpt lat="48.59165" lon="2.02194">
        <ele>119</ele>
        <time>2010-05-15T14:30:44Z</time>
      </trkpt>
      <trkpt lat="48.59165" lon="2.02197">
        <ele>119</ele>
        <time>2010-05-15T14:30:45Z</time>
      </trkpt>
      <trkpt lat="48.59165" lon="2.022">
        <ele>119</ele>
        <time>2010-05-15T14:30:46Z</time>
      </trkpt>
      <trkpt lat="48.59165" lon="2.02202">
        <ele>119</ele>
        <time>2010-05-15T14:30:47Z</time>
      </trkpt>
      <trkpt lat="48.59165" lon="2.02203">
        <ele>120</ele>
        <time>2010-05-15T14:30:48Z</time>
      </trkpt>
      <trkpt lat="48.59165" lon="2.02205">
        <ele>120</ele>
        <time>2010-05-15T14:30:49Z</time>
      </trkpt>
      <trkpt lat="48.59165" lon="2.02207">
        <ele>121</ele>
        <time>2010-05-15T14:30:50Z</time>
      </trkpt>
      <trkpt lat="48.59165" lon="2.02209">
        <ele>121</ele>
        <time>2010-05-15T14:30:51Z</time>
      </trkpt>
      <trkpt lat="48.59164" lon="2.02213">
        <ele>121</ele>
        <time>2010-05-15T14:30:53Z</time>
      </trkpt>
      <trkpt lat="48.59163" lon="2.02215">
        <ele>122</ele>
        <time>2010-05-15T14:30:54Z</time>
      </trkpt>
      <trkpt lat="48.59163" lon="2.02216">
        <ele>122</ele>
        <time>2010-05-15T14:30:55Z</time>
      </trkpt>
      <trkpt lat="48.59162" lon="2.02219">
        <ele>122</ele>
        <time>2010-05-15T14:30:56Z</time>
      </trkpt>
      <trkpt lat="48.59162" lon="2.02222">
        <ele>123</ele>
        <time>2010-05-15T14:30:58Z</time>
      </trkpt>
      <trkpt lat="48.59162" lon="2.02225">
        <ele>124</ele>
        <time>2010-05-15T14:30:59Z</time>
      </trkpt>
      <trkpt lat="48.59162" lon="2.02227">
        <ele>124</ele>
        <time>2010-05-15T14:31:00Z</time>
      </trkpt>
      <trkpt lat="48.59162" lon="2.02228">
        <ele>125</ele>
        <time>2010-05-15T14:31:01Z</time>
      </trkpt>
      <trkpt lat="48.59162" lon="2.02231">
        <ele>125</ele>
        <time>2010-05-15T14:31:02Z</time>
      </trkpt>
      <trkpt lat="48.59162" lon="2.02232">
        <ele>125</ele>
        <time>2010-05-15T14:31:03Z</time>
      </trkpt>
      <trkpt lat="48.59162" lon="2.02235">
        <ele>126</ele>
        <time>2010-05-15T14:31:04Z</time>
      </trkpt>
      <trkpt lat="48.59162" lon="2.02236">
        <ele>127</ele>
        <time>2010-05-15T14:31:05Z</time>
      </trkpt>
      <trkpt lat="48.59162" lon="2.02238">
        <ele>127</ele>
        <time>2010-05-15T14:31:06Z</time>
      </trkpt>
      <trkpt lat="48.59162" lon="2.0224">
        <ele>128</ele>
        <time>2010-05-15T14:31:07Z</time>
      </trkpt>
      <trkpt lat="48.59161" lon="2.02242">
        <ele>129</ele>
        <time>2010-05-15T14:31:08Z</time>
      </trkpt>
      <trkpt lat="48.5916" lon="2.02245">
        <ele>130</ele>
        <time>2010-05-15T14:31:09Z</time>
      </trkpt>
      <trkpt lat="48.59159" lon="2.02247">
        <ele>130</ele>
        <time>2010-05-15T14:31:10Z</time>
      </trkpt>
      <trkpt lat="48.59159" lon="2.02249">
        <ele>131</ele>
        <time>2010-05-15T14:31:11Z</time>
      </trkpt>
      <trkpt lat="48.59159" lon="2.02251">
        <ele>132</ele>
        <time>2010-05-15T14:31:12Z</time>
      </trkpt>
      <trkpt lat="48.59159" lon="2.02253">
        <ele>133</ele>
        <time>2010-05-15T14:31:13Z</time>
      </trkpt>
      <trkpt lat="48.59159" lon="2.02255">
        <ele>133</ele>
        <time>2010-05-15T14:31:14Z</time>
      </trkpt>
      <trkpt lat="48.5916" lon="2.02258">
        <ele>134</ele>
        <time>2010-05-15T14:31:16Z</time>
      </trkpt>
      <trkpt lat="48.5916" lon="2.0226">
        <ele>134</ele>
        <time>2010-05-15T14:31:17Z</time>
      </trkpt>
      <trkpt lat="48.59159" lon="2.02264">
        <ele>134</ele>
        <time>2010-05-15T14:31:18Z</time>
      </trkpt>
      <trkpt lat="48.59159" lon="2.02268">
        <ele>135</ele>
        <time>2010-05-15T14:31:19Z</time>
      </trkpt>
      <trkpt lat="48.59161" lon="2.02272">
        <ele>136</ele>
        <time>2010-05-15T14:31:21Z</time>
      </trkpt>
      <trkpt lat="48.59161" lon="2.02274">
        <ele>136</ele>
        <time>2010-05-15T14:31:22Z</time>
      </trkpt>
      <trkpt lat="48.59161" lon="2.02278">
        <ele>137</ele>
        <time>2010-05-15T14:31:23Z</time>
      </trkpt>
      <trkpt lat="48.59161" lon="2.02281">
        <ele>137</ele>
        <time>2010-05-15T14:31:24Z</time>
      </trkpt>
      <trkpt lat="48.5916" lon="2.02284">
        <ele>138</ele>
        <time>2010-05-15T14:31:25Z</time>
      </trkpt>
      <trkpt lat="48.5916" lon="2.02287">
        <ele>138</ele>
        <time>2010-05-15T14:31:26Z</time>
      </trkpt>
      <trkpt lat="48.5916" lon="2.02291">
        <ele>138</ele>
        <time>2010-05-15T14:31:27Z</time>
      </trkpt>
      <trkpt lat="48.59159" lon="2.02294">
        <ele>139</ele>
        <time>2010-05-15T14:31:28Z</time>
      </trkpt>
      <trkpt lat="48.59159" lon="2.02296">
        <ele>139</ele>
        <time>2010-05-15T14:31:29Z</time>
      </trkpt>
      <trkpt lat="48.59158" lon="2.02299">
        <ele>139</ele>
        <time>2010-05-15T14:31:30Z</time>
      </trkpt>
      <trkpt lat="48.59158" lon="2.02302">
        <ele>140</ele>
        <time>2010-05-15T14:31:31Z</time>
      </trkpt>
      <trkpt lat="48.59158" lon="2.02306">
        <ele>141</ele>
        <time>2010-05-15T14:31:32Z</time>
      </trkpt>
      <trkpt lat="48.59158" lon="2.02309">
        <ele>141</ele>
        <time>2010-05-15T14:31:33Z</time>
      </trkpt>
      <trkpt lat="48.59157" lon="2.02313">
        <ele>142</ele>
        <time>2010-05-15T14:31:34Z</time>
      </trkpt>
      <trkpt lat="48.59157" lon="2.02317">
        <ele>143</ele>
        <time>2010-05-15T14:31:35Z</time>
      </trkpt>
      <trkpt lat="48.59157" lon="2.02322">
        <ele>143</ele>
        <time>2010-05-15T14:31:36Z</time>
      </trkpt>
      <trkpt lat="48.59157" lon="2.02327">
        <ele>144</ele>
        <time>2010-05-15T14:31:37Z</time>
      </trkpt>
      <trkpt lat="48.59156" lon="2.02332">
        <ele>144</ele>
        <time>2010-05-15T14:31:38Z</time>
      </trkpt>
      <trkpt lat="48.59155" lon="2.02337">
        <ele>145</ele>
        <time>2010-05-15T14:31:39Z</time>
      </trkpt>
      <trkpt lat="48.59154" lon="2.02341">
        <ele>145</ele>
        <time>2010-05-15T14:31:40Z</time>
      </trkpt>
      <trkpt lat="48.59154" lon="2.02345">
        <ele>146</ele>
        <time>2010-05-15T14:31:41Z</time>
      </trkpt>
      <trkpt lat="48.59153" lon="2.0235">
        <ele>146</ele>
        <time>2010-05-15T14:31:42Z</time>
      </trkpt>
      <trkpt lat="48.59153" lon="2.02354">
        <ele>146</ele>
        <time>2010-05-15T14:31:43Z</time>
      </trkpt>
      <trkpt lat="48.59153" lon="2.02359">
        <ele>146</ele>
        <time>2010-05-15T14:31:44Z</time>
      </trkpt>
      <trkpt lat="48.59153" lon="2.02365">
        <ele>146</ele>
        <time>2010-05-15T14:31:45Z</time>
      </trkpt>
      <trkpt lat="48.59153" lon="2.0237">
        <ele>146</ele>
        <time>2010-05-15T14:31:46Z</time>
      </trkpt>
      <trkpt lat="48.59151" lon="2.02376">
        <ele>146</ele>
        <time>2010-05-15T14:31:47Z</time>
      </trkpt>
      <trkpt lat="48.5915" lon="2.02382">
        <ele>146</ele>
        <time>2010-05-15T14:31:48Z</time>
      </trkpt>
      <trkpt lat="48.5915" lon="2.02387">
        <ele>146</ele>
        <time>2010-05-15T14:31:49Z</time>
      </trkpt>
      <trkpt lat="48.59149" lon="2.02393">
        <ele>146</ele>
        <time>2010-05-15T14:31:50Z</time>
      </trkpt>
      <trkpt lat="48.59147" lon="2.02398">
        <ele>146</ele>
        <time>2010-05-15T14:31:51Z</time>
      </trkpt>
      <trkpt lat="48.59147" lon="2.02402">
        <ele>146</ele>
        <time>2010-05-15T14:31:52Z</time>
      </trkpt>
      <trkpt lat="48.59147" lon="2.02408">
        <ele>146</ele>
        <time>2010-05-15T14:31:53Z</time>
      </trkpt>
      <trkpt lat="48.59148" lon="2.02414">
        <ele>146</ele>
        <time>2010-05-15T14:31:54Z</time>
      </trkpt>
      <trkpt lat="48.59149" lon="2.02421">
        <ele>146</ele>
        <time>2010-05-15T14:31:55Z</time>
      </trkpt>
      <trkpt lat="48.59149" lon="2.02427">
        <ele>146</ele>
        <time>2010-05-15T14:31:56Z</time>
      </trkpt>
      <trkpt lat="48.59149" lon="2.02433">
        <ele>146</ele>
        <time>2010-05-15T14:31:57Z</time>
      </trkpt>
      <trkpt lat="48.59149" lon="2.02442">
        <ele>146</ele>
        <time>2010-05-15T14:31:58Z</time>
      </trkpt>
      <trkpt lat="48.59149" lon="2.02447">
        <ele>146</ele>
        <time>2010-05-15T14:31:59Z</time>
      </trkpt>
      <trkpt lat="48.59149" lon="2.02452">
        <ele>146</ele>
        <time>2010-05-15T14:32:00Z</time>
      </trkpt>
      <trkpt lat="48.5915" lon="2.02456">
        <ele>146</ele>
        <time>2010-05-15T14:32:01Z</time>
      </trkpt>
      <trkpt lat="48.5915" lon="2.02461">
        <ele>146</ele>
        <time>2010-05-15T14:32:02Z</time>
      </trkpt>
      <trkpt lat="48.5915" lon="2.02466">
        <ele>146</ele>
        <time>2010-05-15T14:32:03Z</time>
      </trkpt>
      <trkpt lat="48.59148" lon="2.02471">
        <ele>146</ele>
        <time>2010-05-15T14:32:04Z</time>
      </trkpt>
      <trkpt lat="48.59148" lon="2.02477">
        <ele>146</ele>
        <time>2010-05-15T14:32:05Z</time>
      </trkpt>
      <trkpt lat="48.59147" lon="2.02482">
        <ele>145</ele>
        <time>2010-05-15T14:32:06Z</time>
      </trkpt>
      <trkpt lat="48.59146" lon="2.02488">
        <ele>145</ele>
        <time>2010-05-15T14:32:07Z</time>
      </trkpt>
      <trkpt lat="48.59145" lon="2.02493">
        <ele>145</ele>
        <time>2010-05-15T14:32:08Z</time>
      </trkpt>
      <trkpt lat="48.59145" lon="2.02499">
        <ele>145</ele>
        <time>2010-05-15T14:32:09Z</time>
      </trkpt>
      <trkpt lat="48.59145" lon="2.02505">
        <ele>145</ele>
        <time>2010-05-15T14:32:10Z</time>
      </trkpt>
      <trkpt lat="48.59144" lon="2.02511">
        <ele>145</ele>
        <time>2010-05-15T14:32:11Z</time>
      </trkpt>
      <trkpt lat="48.59143" lon="2.02517">
        <ele>145</ele>
        <time>2010-05-15T14:32:12Z</time>
      </trkpt>
      <trkpt lat="48.59144" lon="2.02522">
        <ele>145</ele>
        <time>2010-05-15T14:32:13Z</time>
      </trkpt>
      <trkpt lat="48.59143" lon="2.02529">
        <ele>145</ele>
        <time>2010-05-15T14:32:14Z</time>
      </trkpt>
      <trkpt lat="48.59144" lon="2.02535">
        <ele>145</ele>
        <time>2010-05-15T14:32:15Z</time>
      </trkpt>
      <trkpt lat="48.59144" lon="2.02541">
        <ele>144</ele>
        <time>2010-05-15T14:32:16Z</time>
      </trkpt>
      <trkpt lat="48.59146" lon="2.02552">
        <ele>143</ele>
        <time>2010-05-15T14:32:17Z</time>
      </trkpt>
      <trkpt lat="48.59146" lon="2.02561">
        <ele>142</ele>
        <time>2010-05-15T14:32:18Z</time>
      </trkpt>
      <trkpt lat="48.59146" lon="2.02567">
        <ele>141</ele>
        <time>2010-05-15T14:32:19Z</time>
      </trkpt>
      <trkpt lat="48.59145" lon="2.02572">
        <ele>140</ele>
        <time>2010-05-15T14:32:20Z</time>
      </trkpt>
      <trkpt lat="48.59145" lon="2.02576">
        <ele>139</ele>
        <time>2010-05-15T14:32:21Z</time>
      </trkpt>
      <trkpt lat="48.59144" lon="2.02581">
        <ele>138</ele>
        <time>2010-05-15T14:32:22Z</time>
      </trkpt>
      <trkpt lat="48.59144" lon="2.02585">
        <ele>137</ele>
        <time>2010-05-15T14:32:23Z</time>
      </trkpt>
      <trkpt lat="48.59143" lon="2.0259">
        <ele>136</ele>
        <time>2010-05-15T14:32:24Z</time>
      </trkpt>
      <trkpt lat="48.59143" lon="2.02597">
        <ele>135</ele>
        <time>2010-05-15T14:32:25Z</time>
      </trkpt>
      <trkpt lat="48.59145" lon="2.02606">
        <ele>134</ele>
        <time>2010-05-15T14:32:26Z</time>
      </trkpt>
      <trkpt lat="48.59144" lon="2.02611">
        <ele>133</ele>
        <time>2010-05-15T14:32:27Z</time>
      </trkpt>
      <trkpt lat="48.59144" lon="2.02616">
        <ele>132</ele>
        <time>2010-05-15T14:32:28Z</time>
      </trkpt>
      <trkpt lat="48.59143" lon="2.02621">
        <ele>132</ele>
        <time>2010-05-15T14:32:29Z</time>
      </trkpt>
      <trkpt lat="48.59143" lon="2.02626">
        <ele>131</ele>
        <time>2010-05-15T14:32:30Z</time>
      </trkpt>
      <trkpt lat="48.59142" lon="2.02632">
        <ele>131</ele>
        <time>2010-05-15T14:32:31Z</time>
      </trkpt>
      <trkpt lat="48.59141" lon="2.02637">
        <ele>131</ele>
        <time>2010-05-15T14:32:32Z</time>
      </trkpt>
      <trkpt lat="48.5914" lon="2.02642">
        <ele>131</ele>
        <time>2010-05-15T14:32:33Z</time>
      </trkpt>
      <trkpt lat="48.5914" lon="2.02647">
        <ele>131</ele>
        <time>2010-05-15T14:32:34Z</time>
      </trkpt>
      <trkpt lat="48.59139" lon="2.02653">
        <ele>131</ele>
        <time>2010-05-15T14:32:35Z</time>
      </trkpt>
      <trkpt lat="48.59139" lon="2.02659">
        <ele>131</ele>
        <time>2010-05-15T14:32:36Z</time>
      </trkpt>
      <trkpt lat="48.59139" lon="2.02665">
        <ele>131</ele>
        <time>2010-05-15T14:32:37Z</time>
      </trkpt>
      <trkpt lat="48.59139" lon="2.02671">
        <ele>131</ele>
        <time>2010-05-15T14:32:38Z</time>
      </trkpt>
      <trkpt lat="48.59139" lon="2.02677">
        <ele>131</ele>
        <time>2010-05-15T14:32:39Z</time>
      </trkpt>
      <trkpt lat="48.59139" lon="2.02684">
        <ele>131</ele>
        <time>2010-05-15T14:32:40Z</time>
      </trkpt>
      <trkpt lat="48.59137" lon="2.0269">
        <ele>131</ele>
        <time>2010-05-15T14:32:41Z</time>
      </trkpt>
      <trkpt lat="48.59137" lon="2.02697">
        <ele>131</ele>
        <time>2010-05-15T14:32:42Z</time>
      </trkpt>
      <trkpt lat="48.59137" lon="2.02703">
        <ele>131</ele>
        <time>2010-05-15T14:32:43Z</time>
      </trkpt>
      <trkpt lat="48.59137" lon="2.02708">
        <ele>131</ele>
        <time>2010-05-15T14:32:44Z</time>
      </trkpt>
      <trkpt lat="48.59137" lon="2.02713">
        <ele>131</ele>
        <time>2010-05-15T14:32:45Z</time>
      </trkpt>
      <trkpt lat="48.59137" lon="2.02717">
        <ele>131</ele>
        <time>2010-05-15T14:32:46Z</time>
      </trkpt>
      <trkpt lat="48.59137" lon="2.02722">
        <ele>131</ele>
        <time>2010-05-15T14:32:47Z</time>
      </trkpt>
      <trkpt lat="48.59137" lon="2.02727">
        <ele>131</ele>
        <time>2010-05-15T14:32:48Z</time>
      </trkpt>
      <trkpt lat="48.59136" lon="2.02729">
        <ele>131</ele>
        <time>2010-05-15T14:32:49Z</time>
      </trkpt>
      <trkpt lat="48.59136" lon="2.02732">
        <ele>131</ele>
        <time>2010-05-15T14:32:50Z</time>
      </trkpt>
      <trkpt lat="48.59136" lon="2.02734">
        <ele>131</ele>
        <time>2010-05-15T14:32:51Z</time>
      </trkpt>
      <trkpt lat="48.59137" lon="2.02736">
        <ele>131</ele>
        <time>2010-05-15T14:32:53Z</time>
      </trkpt>
      <trkpt lat="48.59137" lon="2.02739">
        <ele>131</ele>
        <time>2010-05-15T14:32:54Z</time>
      </trkpt>
      <trkpt lat="48.59137" lon="2.02741">
        <ele>131</ele>
        <time>2010-05-15T14:32:55Z</time>
      </trkpt>
      <trkpt lat="48.59138" lon="2.02744">
        <ele>131</ele>
        <time>2010-05-15T14:32:56Z</time>
      </trkpt>
      <trkpt lat="48.59138" lon="2.02746">
        <ele>131</ele>
        <time>2010-05-15T14:32:57Z</time>
      </trkpt>
      <trkpt lat="48.59138" lon="2.02749">
        <ele>131</ele>
        <time>2010-05-15T14:32:58Z</time>
      </trkpt>
      <trkpt lat="48.59138" lon="2.02752">
        <ele>131</ele>
        <time>2010-05-15T14:32:59Z</time>
      </trkpt>
      <trkpt lat="48.59137" lon="2.02756">
        <ele>131</ele>
        <time>2010-05-15T14:33:00Z</time>
      </trkpt>
      <trkpt lat="48.59136" lon="2.0276">
        <ele>131</ele>
        <time>2010-05-15T14:33:01Z</time>
      </trkpt>
      <trkpt lat="48.59135" lon="2.02765">
        <ele>131</ele>
        <time>2010-05-15T14:33:02Z</time>
      </trkpt>
      <trkpt lat="48.59135" lon="2.0277">
        <ele>131</ele>
        <time>2010-05-15T14:33:03Z</time>
      </trkpt>
      <trkpt lat="48.59134" lon="2.02775">
        <ele>131</ele>
        <time>2010-05-15T14:33:04Z</time>
      </trkpt>
      <trkpt lat="48.59133" lon="2.02779">
        <ele>132</ele>
        <time>2010-05-15T14:33:05Z</time>
      </trkpt>
      <trkpt lat="48.59133" lon="2.02783">
        <ele>133</ele>
        <time>2010-05-15T14:33:06Z</time>
      </trkpt>
      <trkpt lat="48.59134" lon="2.02788">
        <ele>134</ele>
        <time>2010-05-15T14:33:07Z</time>
      </trkpt>
      <trkpt lat="48.59133" lon="2.02793">
        <ele>134</ele>
        <time>2010-05-15T14:33:08Z</time>
      </trkpt>
      <trkpt lat="48.59132" lon="2.02798">
        <ele>135</ele>
        <time>2010-05-15T14:33:09Z</time>
      </trkpt>
      <trkpt lat="48.59132" lon="2.02803">
        <ele>136</ele>
        <time>2010-05-15T14:33:10Z</time>
      </trkpt>
      <trkpt lat="48.5913" lon="2.02809">
        <ele>137</ele>
        <time>2010-05-15T14:33:11Z</time>
      </trkpt>
      <trkpt lat="48.59128" lon="2.02815">
        <ele>138</ele>
        <time>2010-05-15T14:33:12Z</time>
      </trkpt>
      <trkpt lat="48.59128" lon="2.0282">
        <ele>139</ele>
        <time>2010-05-15T14:33:13Z</time>
      </trkpt>
      <trkpt lat="48.59128" lon="2.02827">
        <ele>139</ele>
        <time>2010-05-15T14:33:14Z</time>
      </trkpt>
      <trkpt lat="48.59128" lon="2.02833">
        <ele>140</ele>
        <time>2010-05-15T14:33:15Z</time>
      </trkpt>
      <trkpt lat="48.59128" lon="2.02839">
        <ele>140</ele>
        <time>2010-05-15T14:33:16Z</time>
      </trkpt>
      <trkpt lat="48.59127" lon="2.02845">
        <ele>140</ele>
        <time>2010-05-15T14:33:17Z</time>
      </trkpt>
      <trkpt lat="48.59129" lon="2.02853">
        <ele>140</ele>
        <time>2010-05-15T14:33:18Z</time>
      </trkpt>
      <trkpt lat="48.59129" lon="2.02859">
        <ele>140</ele>
        <time>2010-05-15T14:33:19Z</time>
      </trkpt>
      <trkpt lat="48.59129" lon="2.02865">
        <ele>140</ele>
        <time>2010-05-15T14:33:20Z</time>
      </trkpt>
      <trkpt lat="48.5913" lon="2.02871">
        <ele>140</ele>
        <time>2010-05-15T14:33:21Z</time>
      </trkpt>
      <trkpt lat="48.5913" lon="2.02877">
        <ele>140</ele>
        <time>2010-05-15T14:33:22Z</time>
      </trkpt>
      <trkpt lat="48.59131" lon="2.02883">
        <ele>140</ele>
        <time>2010-05-15T14:33:23Z</time>
      </trkpt>
      <trkpt lat="48.59131" lon="2.0289">
        <ele>140</ele>
        <time>2010-05-15T14:33:24Z</time>
      </trkpt>
      <trkpt lat="48.59131" lon="2.02895">
        <ele>140</ele>
        <time>2010-05-15T14:33:25Z</time>
      </trkpt>
      <trkpt lat="48.5913" lon="2.029">
        <ele>139</ele>
        <time>2010-05-15T14:33:26Z</time>
      </trkpt>
      <trkpt lat="48.59131" lon="2.02904">
        <ele>138</ele>
        <time>2010-05-15T14:33:27Z</time>
      </trkpt>
      <trkpt lat="48.59131" lon="2.02912">
        <ele>137</ele>
        <time>2010-05-15T14:33:28Z</time>
      </trkpt>
      <trkpt lat="48.59131" lon="2.02919">
        <ele>136</ele>
        <time>2010-05-15T14:33:29Z</time>
      </trkpt>
      <trkpt lat="48.59131" lon="2.02925">
        <ele>135</ele>
        <time>2010-05-15T14:33:30Z</time>
      </trkpt>
      <trkpt lat="48.59132" lon="2.02931">
        <ele>134</ele>
        <time>2010-05-15T14:33:31Z</time>
      </trkpt>
      <trkpt lat="48.59133" lon="2.02937">
        <ele>133</ele>
        <time>2010-05-15T14:33:32Z</time>
      </trkpt>
      <trkpt lat="48.59133" lon="2.02943">
        <ele>132</ele>
        <time>2010-05-15T14:33:33Z</time>
      </trkpt>
      <trkpt lat="48.59133" lon="2.0295">
        <ele>131</ele>
        <time>2010-05-15T14:33:34Z</time>
      </trkpt>
      <trkpt lat="48.59134" lon="2.02955">
        <ele>130</ele>
        <time>2010-05-15T14:33:35Z</time>
      </trkpt>
      <trkpt lat="48.59134" lon="2.02962">
        <ele>129</ele>
        <time>2010-05-15T14:33:36Z</time>
      </trkpt>
      <trkpt lat="48.59135" lon="2.02967">
        <ele>129</ele>
        <time>2010-05-15T14:33:37Z</time>
      </trkpt>
      <trkpt lat="48.59136" lon="2.02974">
        <ele>129</ele>
        <time>2010-05-15T14:33:38Z</time>
      </trkpt>
      <trkpt lat="48.59137" lon="2.0298">
        <ele>129</ele>
        <time>2010-05-15T14:33:39Z</time>
      </trkpt>
      <trkpt lat="48.59137" lon="2.02986">
        <ele>129</ele>
        <time>2010-05-15T14:33:40Z</time>
      </trkpt>
      <trkpt lat="48.59138" lon="2.02991">
        <ele>129</ele>
        <time>2010-05-15T14:33:41Z</time>
      </trkpt>
      <trkpt lat="48.59139" lon="2.02997">
        <ele>129</ele>
        <time>2010-05-15T14:33:42Z</time>
      </trkpt>
      <trkpt lat="48.5914" lon="2.03003">
        <ele>129</ele>
        <time>2010-05-15T14:33:43Z</time>
      </trkpt>
      <trkpt lat="48.59141" lon="2.03011">
        <ele>129</ele>
        <time>2010-05-15T14:33:44Z</time>
      </trkpt>
      <trkpt lat="48.59142" lon="2.03018">
        <ele>129</ele>
        <time>2010-05-15T14:33:45Z</time>
      </trkpt>
      <trkpt lat="48.59143" lon="2.03025">
        <ele>129</ele>
        <time>2010-05-15T14:33:46Z</time>
      </trkpt>
      <trkpt lat="48.59144" lon="2.03032">
        <ele>128</ele>
        <time>2010-05-15T14:33:47Z</time>
      </trkpt>
      <trkpt lat="48.59145" lon="2.03039">
        <ele>127</ele>
        <time>2010-05-15T14:33:48Z</time>
      </trkpt>
      <trkpt lat="48.59146" lon="2.03047">
        <ele>126</ele>
        <time>2010-05-15T14:33:49Z</time>
      </trkpt>
      <trkpt lat="48.59148" lon="2.03055">
        <ele>125</ele>
        <time>2010-05-15T14:33:50Z</time>
      </trkpt>
      <trkpt lat="48.59149" lon="2.0306">
        <ele>125</ele>
        <time>2010-05-15T14:33:51Z</time>
      </trkpt>
      <trkpt lat="48.5915" lon="2.03067">
        <ele>124</ele>
        <time>2010-05-15T14:33:52Z</time>
      </trkpt>
      <trkpt lat="48.5915" lon="2.03073">
        <ele>124</ele>
        <time>2010-05-15T14:33:53Z</time>
      </trkpt>
      <trkpt lat="48.59151" lon="2.03079">
        <ele>123</ele>
        <time>2010-05-15T14:33:54Z</time>
      </trkpt>
      <trkpt lat="48.59152" lon="2.03086">
        <ele>123</ele>
        <time>2010-05-15T14:33:55Z</time>
      </trkpt>
      <trkpt lat="48.59153" lon="2.03092">
        <ele>123</ele>
        <time>2010-05-15T14:33:56Z</time>
      </trkpt>
      <trkpt lat="48.59154" lon="2.03099">
        <ele>123</ele>
        <time>2010-05-15T14:33:57Z</time>
      </trkpt>
      <trkpt lat="48.59155" lon="2.03105">
        <ele>123</ele>
        <time>2010-05-15T14:33:58Z</time>
      </trkpt>
      <trkpt lat="48.59155" lon="2.03111">
        <ele>123</ele>
        <time>2010-05-15T14:33:59Z</time>
      </trkpt>
      <trkpt lat="48.59156" lon="2.03118">
        <ele>123</ele>
        <time>2010-05-15T14:34:00Z</time>
      </trkpt>
      <trkpt lat="48.59156" lon="2.03124">
        <ele>123</ele>
        <time>2010-05-15T14:34:01Z</time>
      </trkpt>
      <trkpt lat="48.59156" lon="2.0313">
        <ele>123</ele>
        <time>2010-05-15T14:34:02Z</time>
      </trkpt>
      <trkpt lat="48.59157" lon="2.03136">
        <ele>123</ele>
        <time>2010-05-15T14:34:03Z</time>
      </trkpt>
      <trkpt lat="48.59157" lon="2.03141">
        <ele>123</ele>
        <time>2010-05-15T14:34:04Z</time>
      </trkpt>
      <trkpt lat="48.59157" lon="2.03148">
        <ele>123</ele>
        <time>2010-05-15T14:34:05Z</time>
      </trkpt>
      <trkpt lat="48.59157" lon="2.03155">
        <ele>123</ele>
        <time>2010-05-15T14:34:06Z</time>
      </trkpt>
      <trkpt lat="48.59156" lon="2.03161">
        <ele>123</ele>
        <time>2010-05-15T14:34:07Z</time>
      </trkpt>
      <trkpt lat="48.59156" lon="2.03168">
        <ele>123</ele>
        <time>2010-05-15T14:34:08Z</time>
      </trkpt>
      <trkpt lat="48.59156" lon="2.03173">
        <ele>123</ele>
        <time>2010-05-15T14:34:09Z</time>
      </trkpt>
      <trkpt lat="48.59156" lon="2.0318">
        <ele>123</ele>
        <time>2010-05-15T14:34:10Z</time>
      </trkpt>
      <trkpt lat="48.59155" lon="2.03187">
        <ele>123</ele>
        <time>2010-05-15T14:34:11Z</time>
      </trkpt>
      <trkpt lat="48.59154" lon="2.03194">
        <ele>123</ele>
        <time>2010-05-15T14:34:12Z</time>
      </trkpt>
      <trkpt lat="48.59153" lon="2.03201">
        <ele>123</ele>
        <time>2010-05-15T14:34:13Z</time>
      </trkpt>
      <trkpt lat="48.59153" lon="2.03209">
        <ele>123</ele>
        <time>2010-05-15T14:34:14Z</time>
      </trkpt>
      <trkpt lat="48.59153" lon="2.03217">
        <ele>123</ele>
        <time>2010-05-15T14:34:15Z</time>
      </trkpt>
      <trkpt lat="48.59153" lon="2.03225">
        <ele>123</ele>
        <time>2010-05-15T14:34:16Z</time>
      </trkpt>
      <trkpt lat="48.59153" lon="2.03233">
        <ele>123</ele>
        <time>2010-05-15T14:34:17Z</time>
      </trkpt>
      <trkpt lat="48.59153" lon="2.03241">
        <ele>123</ele>
        <time>2010-05-15T14:34:18Z</time>
      </trkpt>
      <trkpt lat="48.59153" lon="2.03249">
        <ele>123</ele>
        <time>2010-05-15T14:34:19Z</time>
      </trkpt>
      <trkpt lat="48.59154" lon="2.03257">
        <ele>123</ele>
        <time>2010-05-15T14:34:20Z</time>
      </trkpt>
      <trkpt lat="48.59154" lon="2.03265">
        <ele>123</ele>
        <time>2010-05-15T14:34:21Z</time>
      </trkpt>
      <trkpt lat="48.59155" lon="2.03273">
        <ele>123</ele>
        <time>2010-05-15T14:34:22Z</time>
      </trkpt>
      <trkpt lat="48.59155" lon="2.03282">
        <ele>123</ele>
        <time>2010-05-15T14:34:23Z</time>
      </trkpt>
      <trkpt lat="48.59154" lon="2.03289">
        <ele>123</ele>
        <time>2010-05-15T14:34:24Z</time>
      </trkpt>
      <trkpt lat="48.59154" lon="2.03297">
        <ele>123</ele>
        <time>2010-05-15T14:34:25Z</time>
      </trkpt>
      <trkpt lat="48.59154" lon="2.03305">
        <ele>123</ele>
        <time>2010-05-15T14:34:26Z</time>
      </trkpt>
      <trkpt lat="48.59154" lon="2.03312">
        <ele>123</ele>
        <time>2010-05-15T14:34:27Z</time>
      </trkpt>
      <trkpt lat="48.59154" lon="2.03319">
        <ele>124</ele>
        <time>2010-05-15T14:34:28Z</time>
      </trkpt>
      <trkpt lat="48.59154" lon="2.03326">
        <ele>124</ele>
        <time>2010-05-15T14:34:29Z</time>
      </trkpt>
      <trkpt lat="48.59154" lon="2.03333">
        <ele>124</ele>
        <time>2010-05-15T14:34:30Z</time>
      </trkpt>
      <trkpt lat="48.59154" lon="2.0334">
        <ele>124</ele>
        <time>2010-05-15T14:34:31Z</time>
      </trkpt>
      <trkpt lat="48.59155" lon="2.03347">
        <ele>124</ele>
        <time>2010-05-15T14:34:32Z</time>
      </trkpt>
      <trkpt lat="48.59155" lon="2.03354">
        <ele>124</ele>
        <time>2010-05-15T14:34:33Z</time>
      </trkpt>
      <trkpt lat="48.59156" lon="2.03362">
        <ele>124</ele>
        <time>2010-05-15T14:34:34Z</time>
      </trkpt>
      <trkpt lat="48.59157" lon="2.0337">
        <ele>124</ele>
        <time>2010-05-15T14:34:35Z</time>
      </trkpt>
      <trkpt lat="48.59158" lon="2.03378">
        <ele>124</ele>
        <time>2010-05-15T14:34:36Z</time>
      </trkpt>
      <trkpt lat="48.59159" lon="2.03385">
        <ele>124</ele>
        <time>2010-05-15T14:34:37Z</time>
      </trkpt>
      <trkpt lat="48.5916" lon="2.03393">
        <ele>124</ele>
        <time>2010-05-15T14:34:38Z</time>
      </trkpt>
      <trkpt lat="48.5916" lon="2.03401">
        <ele>124</ele>
        <time>2010-05-15T14:34:39Z</time>
      </trkpt>
      <trkpt lat="48.59161" lon="2.03409">
        <ele>124</ele>
        <time>2010-05-15T14:34:40Z</time>
      </trkpt>
      <trkpt lat="48.59162" lon="2.03418">
        <ele>124</ele>
        <time>2010-05-15T14:34:41Z</time>
      </trkpt>
      <trkpt lat="48.59162" lon="2.03426">
        <ele>124</ele>
        <time>2010-05-15T14:34:42Z</time>
      </trkpt>
      <trkpt lat="48.59163" lon="2.03434">
        <ele>124</ele>
        <time>2010-05-15T14:34:43Z</time>
      </trkpt>
      <trkpt lat="48.59164" lon="2.03442">
        <ele>124</ele>
        <time>2010-05-15T14:34:44Z</time>
      </trkpt>
      <trkpt lat="48.59165" lon="2.0345">
        <ele>124</ele>
        <time>2010-05-15T14:34:45Z</time>
      </trkpt>
      <trkpt lat="48.59166" lon="2.03458">
        <ele>124</ele>
        <time>2010-05-15T14:34:46Z</time>
      </trkpt>
      <trkpt lat="48.59166" lon="2.03466">
        <ele>124</ele>
        <time>2010-05-15T14:34:47Z</time>
      </trkpt>
      <trkpt lat="48.59167" lon="2.03474">
        <ele>124</ele>
        <time>2010-05-15T14:34:48Z</time>
      </trkpt>
      <trkpt lat="48.59167" lon="2.03481">
        <ele>124</ele>
        <time>2010-05-15T14:34:49Z</time>
      </trkpt>
      <trkpt lat="48.59168" lon="2.03489">
        <ele>124</ele>
        <time>2010-05-15T14:34:50Z</time>
      </trkpt>
      <trkpt lat="48.59169" lon="2.03495">
        <ele>124</ele>
        <time>2010-05-15T14:34:51Z</time>
      </trkpt>
      <trkpt lat="48.5917" lon="2.03501">
        <ele>124</ele>
        <time>2010-05-15T14:34:52Z</time>
      </trkpt>
      <trkpt lat="48.5917" lon="2.03509">
        <ele>124</ele>
        <time>2010-05-15T14:34:53Z</time>
      </trkpt>
      <trkpt lat="48.5917" lon="2.03516">
        <ele>124</ele>
        <time>2010-05-15T14:34:54Z</time>
      </trkpt>
      <trkpt lat="48.5917" lon="2.03522">
        <ele>124</ele>
        <time>2010-05-15T14:34:55Z</time>
      </trkpt>
      <trkpt lat="48.5917" lon="2.03527">
        <ele>124</ele>
        <time>2010-05-15T14:34:56Z</time>
      </trkpt>
      <trkpt lat="48.59169" lon="2.03531">
        <ele>124</ele>
        <time>2010-05-15T14:34:57Z</time>
      </trkpt>
      <trkpt lat="48.59169" lon="2.03535">
        <ele>124</ele>
        <time>2010-05-15T14:34:58Z</time>
      </trkpt>
      <trkpt lat="48.59168" lon="2.03539">
        <ele>124</ele>
        <time>2010-05-15T14:34:59Z</time>
      </trkpt>
      <trkpt lat="48.59168" lon="2.03543">
        <ele>124</ele>
        <time>2010-05-15T14:35:00Z</time>
      </trkpt>
      <trkpt lat="48.59167" lon="2.03546">
        <ele>125</ele>
        <time>2010-05-15T14:35:01Z</time>
      </trkpt>
      <trkpt lat="48.59167" lon="2.03549">
        <ele>126</ele>
        <time>2010-05-15T14:35:02Z</time>
      </trkpt>
      <trkpt lat="48.59167" lon="2.03551">
        <ele>127</ele>
        <time>2010-05-15T14:35:03Z</time>
      </trkpt>
      <trkpt lat="48.59166" lon="2.03553">
        <ele>127</ele>
        <time>2010-05-15T14:35:04Z</time>
      </trkpt>
      <trkpt lat="48.59166" lon="2.03556">
        <ele>128</ele>
        <time>2010-05-15T14:35:05Z</time>
      </trkpt>
      <trkpt lat="48.59166" lon="2.03558">
        <ele>129</ele>
        <time>2010-05-15T14:35:06Z</time>
      </trkpt>
      <trkpt lat="48.59166" lon="2.03561">
        <ele>130</ele>
        <time>2010-05-15T14:35:08Z</time>
      </trkpt>
      <trkpt lat="48.59166" lon="2.03564">
        <ele>131</ele>
        <time>2010-05-15T14:35:10Z</time>
      </trkpt>
      <trkpt lat="48.59166" lon="2.03566">
        <ele>132</ele>
        <time>2010-05-15T14:35:11Z</time>
      </trkpt>
      <trkpt lat="48.59166" lon="2.03568">
        <ele>133</ele>
        <time>2010-05-15T14:35:13Z</time>
      </trkpt>
      <trkpt lat="48.59165" lon="2.03571">
        <ele>133</ele>
        <time>2010-05-15T14:35:15Z</time>
      </trkpt>
      <trkpt lat="48.59164" lon="2.03573">
        <ele>134</ele>
        <time>2010-05-15T14:35:17Z</time>
      </trkpt>
      <trkpt lat="48.59164" lon="2.03577">
        <ele>135</ele>
        <time>2010-05-15T14:35:19Z</time>
      </trkpt>
      <trkpt lat="48.59163" lon="2.0358">
        <ele>136</ele>
        <time>2010-05-15T14:35:21Z</time>
      </trkpt>
      <trkpt lat="48.59163" lon="2.03582">
        <ele>136</ele>
        <time>2010-05-15T14:35:22Z</time>
      </trkpt>
      <trkpt lat="48.59163" lon="2.03584">
        <ele>137</ele>
        <time>2010-05-15T14:35:24Z</time>
      </trkpt>
      <trkpt lat="48.59163" lon="2.03587">
        <ele>138</ele>
        <time>2010-05-15T14:35:26Z</time>
      </trkpt>
      <trkpt lat="48.59163" lon="2.03592">
        <ele>138</ele>
        <time>2010-05-15T14:35:27Z</time>
      </trkpt>
      <trkpt lat="48.59164" lon="2.03596">
        <ele>138</ele>
        <time>2010-05-15T14:35:28Z</time>
      </trkpt>
      <trkpt lat="48.59163" lon="2.03598">
        <ele>138</ele>
        <time>2010-05-15T14:35:29Z</time>
      </trkpt>
      <trkpt lat="48.59164" lon="2.036">
        <ele>138</ele>
        <time>2010-05-15T14:35:32Z</time>
      </trkpt>
      <trkpt lat="48.59165" lon="2.03602">
        <ele>138</ele>
        <time>2010-05-15T14:35:33Z</time>
      </trkpt>
      <trkpt lat="48.59165" lon="2.03606">
        <ele>137</ele>
        <time>2010-05-15T14:35:34Z</time>
      </trkpt>
      <trkpt lat="48.59165" lon="2.03609">
        <ele>136</ele>
        <time>2010-05-15T14:35:35Z</time>
      </trkpt>
      <trkpt lat="48.59165" lon="2.0361">
        <ele>135</ele>
        <time>2010-05-15T14:35:36Z</time>
      </trkpt>
      <trkpt lat="48.59164" lon="2.03612">
        <ele>134</ele>
        <time>2010-05-15T14:35:37Z</time>
      </trkpt>
      <trkpt lat="48.59164" lon="2.03615">
        <ele>133</ele>
        <time>2010-05-15T14:35:38Z</time>
      </trkpt>
      <trkpt lat="48.59165" lon="2.03617">
        <ele>133</ele>
        <time>2010-05-15T14:35:39Z</time>
      </trkpt>
      <trkpt lat="48.59165" lon="2.03619">
        <ele>133</ele>
        <time>2010-05-15T14:35:40Z</time>
      </trkpt>
      <trkpt lat="48.59164" lon="2.03621">
        <ele>133</ele>
        <time>2010-05-15T14:35:41Z</time>
      </trkpt>
      <trkpt lat="48.59164" lon="2.03623">
        <ele>133</ele>
        <time>2010-05-15T14:35:42Z</time>
      </trkpt>
      <trkpt lat="48.59164" lon="2.03625">
        <ele>133</ele>
        <time>2010-05-15T14:35:43Z</time>
      </trkpt>
      <trkpt lat="48.59163" lon="2.03627">
        <ele>133</ele>
        <time>2010-05-15T14:35:44Z</time>
      </trkpt>
      <trkpt lat="48.59163" lon="2.03631">
        <ele>133</ele>
        <time>2010-05-15T14:35:45Z</time>
      </trkpt>
      <trkpt lat="48.59162" lon="2.03633">
        <ele>133</ele>
        <time>2010-05-15T14:35:46Z</time>
      </trkpt>
      <trkpt lat="48.59162" lon="2.03635">
        <ele>133</ele>
        <time>2010-05-15T14:35:47Z</time>
      </trkpt>
      <trkpt lat="48.59162" lon="2.03638">
        <ele>133</ele>
        <time>2010-05-15T14:35:48Z</time>
      </trkpt>
      <trkpt lat="48.59162" lon="2.0364">
        <ele>133</ele>
        <time>2010-05-15T14:35:49Z</time>
      </trkpt>
      <trkpt lat="48.59162" lon="2.03643">
        <ele>133</ele>
        <time>2010-05-15T14:35:50Z</time>
      </trkpt>
      <trkpt lat="48.59162" lon="2.03645">
        <ele>133</ele>
        <time>2010-05-15T14:35:51Z</time>
      </trkpt>
      <trkpt lat="48.59162" lon="2.03647">
        <ele>133</ele>
        <time>2010-05-15T14:35:52Z</time>
      </trkpt>
      <trkpt lat="48.59162" lon="2.03649">
        <ele>133</ele>
        <time>2010-05-15T14:35:53Z</time>
      </trkpt>
      <trkpt lat="48.59162" lon="2.03651">
        <ele>133</ele>
        <time>2010-05-15T14:35:54Z</time>
      </trkpt>
      <trkpt lat="48.5916" lon="2.03654">
        <ele>133</ele>
        <time>2010-05-15T14:35:56Z</time>
      </trkpt>
      <trkpt lat="48.59159" lon="2.03656">
        <ele>133</ele>
        <time>2010-05-15T14:35:57Z</time>
      </trkpt>
      <trkpt lat="48.59158" lon="2.03657">
        <ele>133</ele>
        <time>2010-05-15T14:35:58Z</time>
      </trkpt>
      <trkpt lat="48.59158" lon="2.03659">
        <ele>133</ele>
        <time>2010-05-15T14:35:59Z</time>
      </trkpt>
      <trkpt lat="48.59158" lon="2.03661">
        <ele>133</ele>
        <time>2010-05-15T14:36:00Z</time>
      </trkpt>
      <trkpt lat="48.59157" lon="2.03662">
        <ele>133</ele>
        <time>2010-05-15T14:36:01Z</time>
      </trkpt>
      <trkpt lat="48.59157" lon="2.03664">
        <ele>133</ele>
        <time>2010-05-15T14:36:02Z</time>
      </trkpt>
      <trkpt lat="48.59157" lon="2.03667">
        <ele>134</ele>
        <time>2010-05-15T14:36:03Z</time>
      </trkpt>
      <trkpt lat="48.59157" lon="2.03668">
        <ele>135</ele>
        <time>2010-05-15T14:36:04Z</time>
      </trkpt>
      <trkpt lat="48.59156" lon="2.0367">
        <ele>136</ele>
        <time>2010-05-15T14:36:05Z</time>
      </trkpt>
      <trkpt lat="48.59156" lon="2.03674">
        <ele>137</ele>
        <time>2010-05-15T14:36:06Z</time>
      </trkpt>
      <trkpt lat="48.59156" lon="2.03676">
        <ele>137</ele>
        <time>2010-05-15T14:36:07Z</time>
      </trkpt>
      <trkpt lat="48.59156" lon="2.03678">
        <ele>137</ele>
        <time>2010-05-15T14:36:08Z</time>
      </trkpt>
      <trkpt lat="48.59156" lon="2.03679">
        <ele>137</ele>
        <time>2010-05-15T14:36:09Z</time>
      </trkpt>
      <trkpt lat="48.59155" lon="2.03681">
        <ele>138</ele>
        <time>2010-05-15T14:36:10Z</time>
      </trkpt>
      <trkpt lat="48.59155" lon="2.03683">
        <ele>138</ele>
        <time>2010-05-15T14:36:11Z</time>
      </trkpt>
      <trkpt lat="48.59155" lon="2.03685">
        <ele>139</ele>
        <time>2010-05-15T14:36:12Z</time>
      </trkpt>
      <trkpt lat="48.59155" lon="2.03687">
        <ele>140</ele>
        <time>2010-05-15T14:36:13Z</time>
      </trkpt>
      <trkpt lat="48.59155" lon="2.0369">
        <ele>141</ele>
        <time>2010-05-15T14:36:15Z</time>
      </trkpt>
      <trkpt lat="48.59154" lon="2.03692">
        <ele>143</ele>
        <time>2010-05-15T14:36:17Z</time>
      </trkpt>
      <trkpt lat="48.59153" lon="2.03695">
        <ele>145</ele>
        <time>2010-05-15T14:36:19Z</time>
      </trkpt>
      <trkpt lat="48.59153" lon="2.03697">
        <ele>145</ele>
        <time>2010-05-15T14:36:20Z</time>
      </trkpt>
      <trkpt lat="48.59152" lon="2.03699">
        <ele>146</ele>
        <time>2010-05-15T14:36:21Z</time>
      </trkpt>
      <trkpt lat="48.59151" lon="2.03701">
        <ele>146</ele>
        <time>2010-05-15T14:36:22Z</time>
      </trkpt>
      <trkpt lat="48.59151" lon="2.03704">
        <ele>147</ele>
        <time>2010-05-15T14:36:23Z</time>
      </trkpt>
      <trkpt lat="48.5915" lon="2.03707">
        <ele>147</ele>
        <time>2010-05-15T14:36:24Z</time>
      </trkpt>
      <trkpt lat="48.59149" lon="2.0371">
        <ele>147</ele>
        <time>2010-05-15T14:36:25Z</time>
      </trkpt>
      <trkpt lat="48.59149" lon="2.03712">
        <ele>148</ele>
        <time>2010-05-15T14:36:26Z</time>
      </trkpt>
      <trkpt lat="48.59149" lon="2.03715">
        <ele>149</ele>
        <time>2010-05-15T14:36:27Z</time>
      </trkpt>
      <trkpt lat="48.59148" lon="2.03716">
        <ele>149</ele>
        <time>2010-05-15T14:36:28Z</time>
      </trkpt>
      <trkpt lat="48.59148" lon="2.03719">
        <ele>151</ele>
        <time>2010-05-15T14:36:30Z</time>
      </trkpt>
      <trkpt lat="48.59147" lon="2.03723">
        <ele>152</ele>
        <time>2010-05-15T14:36:32Z</time>
      </trkpt>
      <trkpt lat="48.59147" lon="2.03726">
        <ele>152</ele>
        <time>2010-05-15T14:36:33Z</time>
      </trkpt>
      <trkpt lat="48.59148" lon="2.03728">
        <ele>152</ele>
        <time>2010-05-15T14:36:35Z</time>
      </trkpt>
      <trkpt lat="48.59148" lon="2.0373">
        <ele>152</ele>
        <time>2010-05-15T14:36:37Z</time>
      </trkpt>
      <trkpt lat="48.59148" lon="2.03733">
        <ele>152</ele>
        <time>2010-05-15T14:36:39Z</time>
      </trkpt>
      <trkpt lat="48.59148" lon="2.03735">
        <ele>153</ele>
        <time>2010-05-15T14:36:40Z</time>
      </trkpt>
      <trkpt lat="48.59147" lon="2.03737">
        <ele>153</ele>
        <time>2010-05-15T14:36:41Z</time>
      </trkpt>
      <trkpt lat="48.59147" lon="2.03739">
        <ele>154</ele>
        <time>2010-05-15T14:36:42Z</time>
      </trkpt>
      <trkpt lat="48.59147" lon="2.03741">
        <ele>154</ele>
        <time>2010-05-15T14:36:43Z</time>
      </trkpt>
      <trkpt lat="48.59146" lon="2.03744">
        <ele>156</ele>
        <time>2010-05-15T14:36:45Z</time>
      </trkpt>
      <trkpt lat="48.59147" lon="2.03746">
        <ele>157</ele>
        <time>2010-05-15T14:36:47Z</time>
      </trkpt>
      <trkpt lat="48.59147" lon="2.03749">
        <ele>158</ele>
        <time>2010-05-15T14:36:49Z</time>
      </trkpt>
      <trkpt lat="48.59147" lon="2.03751">
        <ele>158</ele>
        <time>2010-05-15T14:36:51Z</time>
      </trkpt>
      <trkpt lat="48.59147" lon="2.03754">
        <ele>158</ele>
        <time>2010-05-15T14:36:52Z</time>
      </trkpt>
      <trkpt lat="48.59146" lon="2.03757">
        <ele>159</ele>
        <time>2010-05-15T14:36:53Z</time>
      </trkpt>
      <trkpt lat="48.59146" lon="2.03759">
        <ele>159</ele>
        <time>2010-05-15T14:36:54Z</time>
      </trkpt>
      <trkpt lat="48.59146" lon="2.03761">
        <ele>160</ele>
        <time>2010-05-15T14:36:55Z</time>
      </trkpt>
      <trkpt lat="48.59146" lon="2.03764">
        <ele>161</ele>
        <time>2010-05-15T14:36:57Z</time>
      </trkpt>
      <trkpt lat="48.59146" lon="2.03767">
        <ele>162</ele>
        <time>2010-05-15T14:36:59Z</time>
      </trkpt>
      <trkpt lat="48.59145" lon="2.03769">
        <ele>162</ele>
        <time>2010-05-15T14:37:00Z</time>
      </trkpt>
      <trkpt lat="48.59145" lon="2.03771">
        <ele>163</ele>
        <time>2010-05-15T14:37:01Z</time>
      </trkpt>
      <trkpt lat="48.59145" lon="2.03773">
        <ele>163</ele>
        <time>2010-05-15T14:37:02Z</time>
      </trkpt>
      <trkpt lat="48.59145" lon="2.03776">
        <ele>163</ele>
        <time>2010-05-15T14:37:04Z</time>
      </trkpt>
      <trkpt lat="48.59144" lon="2.03778">
        <ele>163</ele>
        <time>2010-05-15T14:37:05Z</time>
      </trkpt>
      <trkpt lat="48.59144" lon="2.0378">
        <ele>164</ele>
        <time>2010-05-15T14:37:06Z</time>
      </trkpt>
      <trkpt lat="48.59144" lon="2.03782">
        <ele>164</ele>
        <time>2010-05-15T14:37:07Z</time>
      </trkpt>
      <trkpt lat="48.59143" lon="2.03785">
        <ele>165</ele>
        <time>2010-05-15T14:37:08Z</time>
      </trkpt>
      <trkpt lat="48.59143" lon="2.03787">
        <ele>166</ele>
        <time>2010-05-15T14:37:09Z</time>
      </trkpt>
      <trkpt lat="48.59143" lon="2.0379">
        <ele>166</ele>
        <time>2010-05-15T14:37:10Z</time>
      </trkpt>
      <trkpt lat="48.59143" lon="2.03795">
        <ele>167</ele>
        <time>2010-05-15T14:37:11Z</time>
      </trkpt>
      <trkpt lat="48.59143" lon="2.03799">
        <ele>168</ele>
        <time>2010-05-15T14:37:12Z</time>
      </trkpt>
      <trkpt lat="48.59142" lon="2.03803">
        <ele>169</ele>
        <time>2010-05-15T14:37:13Z</time>
      </trkpt>
      <trkpt lat="48.59142" lon="2.03806">
        <ele>169</ele>
        <time>2010-05-15T14:37:14Z</time>
      </trkpt>
      <trkpt lat="48.59142" lon="2.0381">
        <ele>170</ele>
        <time>2010-05-15T14:37:15Z</time>
      </trkpt>
      <trkpt lat="48.59142" lon="2.03813">
        <ele>171</ele>
        <time>2010-05-15T14:37:16Z</time>
      </trkpt>
      <trkpt lat="48.59142" lon="2.03815">
        <ele>172</ele>
        <time>2010-05-15T14:37:17Z</time>
      </trkpt>
      <trkpt lat="48.59142" lon="2.03817">
        <ele>173</ele>
        <time>2010-05-15T14:37:18Z</time>
      </trkpt>
      <trkpt lat="48.59142" lon="2.03819">
        <ele>173</ele>
        <time>2010-05-15T14:37:19Z</time>
      </trkpt>
      <trkpt lat="48.59143" lon="2.0382">
        <ele>174</ele>
        <time>2010-05-15T14:37:20Z</time>
      </trkpt>
      <trkpt lat="48.59143" lon="2.03822">
        <ele>174</ele>
        <time>2010-05-15T14:37:21Z</time>
      </trkpt>
      <trkpt lat="48.59143" lon="2.03824">
        <ele>175</ele>
        <time>2010-05-15T14:37:22Z</time>
      </trkpt>
      <trkpt lat="48.59143" lon="2.03826">
        <ele>175</ele>
        <time>2010-05-15T14:37:23Z</time>
      </trkpt>
      <trkpt lat="48.59144" lon="2.03829">
        <ele>175</ele>
        <time>2010-05-15T14:37:29Z</time>
      </trkpt>
      <trkpt lat="48.59144" lon="2.0383">
        <ele>175</ele>
        <time>2010-05-15T14:37:30Z</time>
      </trkpt>
      <trkpt lat="48.59144" lon="2.03832">
        <ele>175</ele>
        <time>2010-05-15T14:37:32Z</time>
      </trkpt>
      <trkpt lat="48.59145" lon="2.03835">
        <ele>175</ele>
        <time>2010-05-15T14:37:33Z</time>
      </trkpt>
      <trkpt lat="48.59146" lon="2.03838">
        <ele>175</ele>
        <time>2010-05-15T14:37:34Z</time>
      </trkpt>
      <trkpt lat="48.59147" lon="2.03841">
        <ele>175</ele>
        <time>2010-05-15T14:37:36Z</time>
      </trkpt>
      <trkpt lat="48.59148" lon="2.03843">
        <ele>175</ele>
        <time>2010-05-15T14:37:37Z</time>
      </trkpt>
      <trkpt lat="48.59148" lon="2.03846">
        <ele>175</ele>
        <time>2010-05-15T14:37:38Z</time>
      </trkpt>
      <trkpt lat="48.59149" lon="2.03847">
        <ele>175</ele>
        <time>2010-05-15T14:37:39Z</time>
      </trkpt>
      <trkpt lat="48.59149" lon="2.0385">
        <ele>174</ele>
        <time>2010-05-15T14:37:40Z</time>
      </trkpt>
      <trkpt lat="48.59149" lon="2.03851">
        <ele>174</ele>
        <time>2010-05-15T14:37:41Z</time>
      </trkpt>
      <trkpt lat="48.5915" lon="2.03854">
        <ele>173</ele>
        <time>2010-05-15T14:37:42Z</time>
      </trkpt>
      <trkpt lat="48.5915" lon="2.03856">
        <ele>173</ele>
        <time>2010-05-15T14:37:43Z</time>
      </trkpt>
      <trkpt lat="48.59151" lon="2.03858">
        <ele>172</ele>
        <time>2010-05-15T14:37:44Z</time>
      </trkpt>
      <trkpt lat="48.59151" lon="2.0386">
        <ele>172</ele>
        <time>2010-05-15T14:37:45Z</time>
      </trkpt>
      <trkpt lat="48.59152" lon="2.03863">
        <ele>171</ele>
        <time>2010-05-15T14:37:46Z</time>
      </trkpt>
      <trkpt lat="48.59152" lon="2.03866">
        <ele>171</ele>
        <time>2010-05-15T14:37:47Z</time>
      </trkpt>
      <trkpt lat="48.59152" lon="2.03868">
        <ele>171</ele>
        <time>2010-05-15T14:37:48Z</time>
      </trkpt>
      <trkpt lat="48.59153" lon="2.03871">
        <ele>170</ele>
        <time>2010-05-15T14:37:49Z</time>
      </trkpt>
      <trkpt lat="48.59153" lon="2.03874">
        <ele>170</ele>
        <time>2010-05-15T14:37:50Z</time>
      </trkpt>
      <trkpt lat="48.59153" lon="2.03877">
        <ele>170</ele>
        <time>2010-05-15T14:37:51Z</time>
      </trkpt>
      <trkpt lat="48.59153" lon="2.0388">
        <ele>170</ele>
        <time>2010-05-15T14:37:52Z</time>
      </trkpt>
      <trkpt lat="48.59154" lon="2.03882">
        <ele>170</ele>
        <time>2010-05-15T14:37:53Z</time>
      </trkpt>
      <trkpt lat="48.59154" lon="2.03884">
        <ele>170</ele>
        <time>2010-05-15T14:37:54Z</time>
      </trkpt>
      <trkpt lat="48.59154" lon="2.03886">
        <ele>170</ele>
        <time>2010-05-15T14:37:55Z</time>
      </trkpt>
      <trkpt lat="48.59155" lon="2.03888">
        <ele>170</ele>
        <time>2010-05-15T14:37:56Z</time>
      </trkpt>
      <trkpt lat="48.59156" lon="2.03892">
        <ele>170</ele>
        <time>2010-05-15T14:37:58Z</time>
      </trkpt>
      <trkpt lat="48.59156" lon="2.03894">
        <ele>170</ele>
        <time>2010-05-15T14:37:59Z</time>
      </trkpt>
      <trkpt lat="48.59157" lon="2.03896">
        <ele>170</ele>
        <time>2010-05-15T14:38:00Z</time>
      </trkpt>
      <trkpt lat="48.59157" lon="2.03898">
        <ele>170</ele>
        <time>2010-05-15T14:38:01Z</time>
      </trkpt>
      <trkpt lat="48.59157" lon="2.03901">
        <ele>170</ele>
        <time>2010-05-15T14:38:03Z</time>
      </trkpt>
      <trkpt lat="48.59157" lon="2.03903">
        <ele>170</ele>
        <time>2010-05-15T14:38:04Z</time>
      </trkpt>
      <trkpt lat="48.5916" lon="2.03908">
        <ele>170</ele>
        <time>2010-05-15T14:38:05Z</time>
      </trkpt>
      <trkpt lat="48.5916" lon="2.0391">
        <ele>170</ele>
        <time>2010-05-15T14:38:06Z</time>
      </trkpt>
      <trkpt lat="48.59161" lon="2.03913">
        <ele>170</ele>
        <time>2010-05-15T14:38:07Z</time>
      </trkpt>
      <trkpt lat="48.5916" lon="2.03915">
        <ele>169</ele>
        <time>2010-05-15T14:38:08Z</time>
      </trkpt>
      <trkpt lat="48.5916" lon="2.03917">
        <ele>169</ele>
        <time>2010-05-15T14:38:09Z</time>
      </trkpt>
      <trkpt lat="48.5916" lon="2.0392">
        <ele>169</ele>
        <time>2010-05-15T14:38:10Z</time>
      </trkpt>
      <trkpt lat="48.5916" lon="2.03923">
        <ele>169</ele>
        <time>2010-05-15T14:38:11Z</time>
      </trkpt>
      <trkpt lat="48.59159" lon="2.03925">
        <ele>169</ele>
        <time>2010-05-15T14:38:12Z</time>
      </trkpt>
      <trkpt lat="48.59159" lon="2.03926">
        <ele>169</ele>
        <time>2010-05-15T14:38:13Z</time>
      </trkpt>
      <trkpt lat="48.59158" lon="2.03928">
        <ele>169</ele>
        <time>2010-05-15T14:38:14Z</time>
      </trkpt>
      <trkpt lat="48.59158" lon="2.03931">
        <ele>169</ele>
        <time>2010-05-15T14:38:15Z</time>
      </trkpt>
      <trkpt lat="48.59157" lon="2.03934">
        <ele>169</ele>
        <time>2010-05-15T14:38:16Z</time>
      </trkpt>
      <trkpt lat="48.59157" lon="2.03936">
        <ele>169</ele>
        <time>2010-05-15T14:38:17Z</time>
      </trkpt>
      <trkpt lat="48.59157" lon="2.03937">
        <ele>169</ele>
        <time>2010-05-15T14:38:18Z</time>
      </trkpt>
      <trkpt lat="48.59157" lon="2.03939">
        <ele>170</ele>
        <time>2010-05-15T14:38:19Z</time>
      </trkpt>
      <trkpt lat="48.59156" lon="2.03942">
        <ele>170</ele>
        <time>2010-05-15T14:38:20Z</time>
      </trkpt>
      <trkpt lat="48.59156" lon="2.03944">
        <ele>170</ele>
        <time>2010-05-15T14:38:21Z</time>
      </trkpt>
      <trkpt lat="48.59155" lon="2.03946">
        <ele>171</ele>
        <time>2010-05-15T14:38:22Z</time>
      </trkpt>
      <trkpt lat="48.59155" lon="2.03948">
        <ele>171</ele>
        <time>2010-05-15T14:38:23Z</time>
      </trkpt>
      <trkpt lat="48.59156" lon="2.03951">
        <ele>172</ele>
        <time>2010-05-15T14:38:25Z</time>
      </trkpt>
      <trkpt lat="48.59155" lon="2.03953">
        <ele>172</ele>
        <time>2010-05-15T14:38:26Z</time>
      </trkpt>
      <trkpt lat="48.59155" lon="2.03955">
        <ele>172</ele>
        <time>2010-05-15T14:38:27Z</time>
      </trkpt>
      <trkpt lat="48.59155" lon="2.03958">
        <ele>173</ele>
        <time>2010-05-15T14:38:29Z</time>
      </trkpt>
      <trkpt lat="48.59155" lon="2.03959">
        <ele>173</ele>
        <time>2010-05-15T14:38:30Z</time>
      </trkpt>
      <trkpt lat="48.59154" lon="2.03962">
        <ele>173</ele>
        <time>2010-05-15T14:38:32Z</time>
      </trkpt>
      <trkpt lat="48.59155" lon="2.03965">
        <ele>174</ele>
        <time>2010-05-15T14:38:34Z</time>
      </trkpt>
      <trkpt lat="48.59154" lon="2.03966">
        <ele>174</ele>
        <time>2010-05-15T14:38:35Z</time>
      </trkpt>
      <trkpt lat="48.59154" lon="2.03968">
        <ele>175</ele>
        <time>2010-05-15T14:38:36Z</time>
      </trkpt>
      <trkpt lat="48.59154" lon="2.03971">
        <ele>175</ele>
        <time>2010-05-15T14:38:37Z</time>
      </trkpt>
      <trkpt lat="48.59154" lon="2.03972">
        <ele>175</ele>
        <time>2010-05-15T14:38:38Z</time>
      </trkpt>
      <trkpt lat="48.59153" lon="2.03974">
        <ele>175</ele>
        <time>2010-05-15T14:38:39Z</time>
      </trkpt>
      <trkpt lat="48.59153" lon="2.03977">
        <ele>175</ele>
        <time>2010-05-15T14:38:40Z</time>
      </trkpt>
      <trkpt lat="48.59153" lon="2.03979">
        <ele>176</ele>
        <time>2010-05-15T14:38:41Z</time>
      </trkpt>
      <trkpt lat="48.59153" lon="2.03981">
        <ele>176</ele>
        <time>2010-05-15T14:38:42Z</time>
      </trkpt>
      <trkpt lat="48.59153" lon="2.03984">
        <ele>176</ele>
        <time>2010-05-15T14:38:43Z</time>
      </trkpt>
      <trkpt lat="48.59154" lon="2.03988">
        <ele>177</ele>
        <time>2010-05-15T14:38:45Z</time>
      </trkpt>
      <trkpt lat="48.59154" lon="2.0399">
        <ele>177</ele>
        <time>2010-05-15T14:38:46Z</time>
      </trkpt>
      <trkpt lat="48.59154" lon="2.03993">
        <ele>177</ele>
        <time>2010-05-15T14:38:47Z</time>
      </trkpt>
      <trkpt lat="48.59154" lon="2.03995">
        <ele>177</ele>
        <time>2010-05-15T14:38:48Z</time>
      </trkpt>
      <trkpt lat="48.59155" lon="2.03998">
        <ele>177</ele>
        <time>2010-05-15T14:38:49Z</time>
      </trkpt>
      <trkpt lat="48.59156" lon="2.04001">
        <ele>178</ele>
        <time>2010-05-15T14:38:50Z</time>
      </trkpt>
      <trkpt lat="48.59157" lon="2.04003">
        <ele>178</ele>
        <time>2010-05-15T14:38:51Z</time>
      </trkpt>
      <trkpt lat="48.59158" lon="2.04006">
        <ele>179</ele>
        <time>2010-05-15T14:38:52Z</time>
      </trkpt>
      <trkpt lat="48.59158" lon="2.04008">
        <ele>180</ele>
        <time>2010-05-15T14:38:53Z</time>
      </trkpt>
      <trkpt lat="48.59159" lon="2.0401">
        <ele>181</ele>
        <time>2010-05-15T14:38:54Z</time>
      </trkpt>
      <trkpt lat="48.5916" lon="2.04012">
        <ele>181</ele>
        <time>2010-05-15T14:38:55Z</time>
      </trkpt>
      <trkpt lat="48.5916" lon="2.04014">
        <ele>181</ele>
        <time>2010-05-15T14:38:56Z</time>
      </trkpt>
      <trkpt lat="48.59161" lon="2.04018">
        <ele>181</ele>
        <time>2010-05-15T14:38:57Z</time>
      </trkpt>
      <trkpt lat="48.59162" lon="2.04021">
        <ele>181</ele>
        <time>2010-05-15T14:38:58Z</time>
      </trkpt>
      <trkpt lat="48.59165" lon="2.04027">
        <ele>181</ele>
        <time>2010-05-15T14:39:00Z</time>
      </trkpt>
      <trkpt lat="48.59168" lon="2.0403">
        <ele>181</ele>
        <time>2010-05-15T14:39:01Z</time>
      </trkpt>
      <trkpt lat="48.59169" lon="2.04032">
        <ele>181</ele>
        <time>2010-05-15T14:39:03Z</time>
      </trkpt>
      <trkpt lat="48.59171" lon="2.04035">
        <ele>180</ele>
        <time>2010-05-15T14:39:05Z</time>
      </trkpt>
      <trkpt lat="48.59174" lon="2.04039">
        <ele>180</ele>
        <time>2010-05-15T14:39:07Z</time>
      </trkpt>
      <trkpt lat="48.59176" lon="2.04042">
        <ele>180</ele>
        <time>2010-05-15T14:39:09Z</time>
      </trkpt>
      <trkpt lat="48.59178" lon="2.04047">
        <ele>180</ele>
        <time>2010-05-15T14:39:11Z</time>
      </trkpt>
      <trkpt lat="48.59179" lon="2.04049">
        <ele>180</ele>
        <time>2010-05-15T14:39:12Z</time>
      </trkpt>
      <trkpt lat="48.59181" lon="2.04053">
        <ele>180</ele>
        <time>2010-05-15T14:39:13Z</time>
      </trkpt>
      <trkpt lat="48.59181" lon="2.04055">
        <ele>179</ele>
        <time>2010-05-15T14:39:14Z</time>
      </trkpt>
      <trkpt lat="48.59182" lon="2.04057">
        <ele>178</ele>
        <time>2010-05-15T14:39:15Z</time>
      </trkpt>
      <trkpt lat="48.59184" lon="2.04061">
        <ele>177</ele>
        <time>2010-05-15T14:39:17Z</time>
      </trkpt>
      <trkpt lat="48.59186" lon="2.04064">
        <ele>177</ele>
        <time>2010-05-15T14:39:19Z</time>
      </trkpt>
      <trkpt lat="48.59187" lon="2.04065">
        <ele>177</ele>
        <time>2010-05-15T14:39:20Z</time>
      </trkpt>
      <trkpt lat="48.59189" lon="2.04068">
        <ele>177</ele>
        <time>2010-05-15T14:39:21Z</time>
      </trkpt>
      <trkpt lat="48.5919" lon="2.04068">
        <ele>177</ele>
        <time>2010-05-15T14:39:22Z</time>
      </trkpt>
      <trkpt lat="48.59191" lon="2.0407">
        <ele>177</ele>
        <time>2010-05-15T14:39:23Z</time>
      </trkpt>
      <trkpt lat="48.59193" lon="2.04072">
        <ele>177</ele>
        <time>2010-05-15T14:39:25Z</time>
      </trkpt>
      <trkpt lat="48.59195" lon="2.04074">
        <ele>177</ele>
        <time>2010-05-15T14:39:27Z</time>
      </trkpt>
      <trkpt lat="48.59198" lon="2.04076">
        <ele>177</ele>
        <time>2010-05-15T14:39:29Z</time>
      </trkpt>
      <trkpt lat="48.592" lon="2.04079">
        <ele>177</ele>
        <time>2010-05-15T14:39:33Z</time>
      </trkpt>
      <trkpt lat="48.59202" lon="2.04076">
        <ele>176</ele>
        <time>2010-05-15T14:39:35Z</time>
      </trkpt>
      <trkpt lat="48.59205" lon="2.04079">
        <ele>176</ele>
        <time>2010-05-15T14:39:36Z</time>
      </trkpt>
      <trkpt lat="48.59206" lon="2.04079">
        <ele>175</ele>
        <time>2010-05-15T14:39:37Z</time>
      </trkpt>
      <trkpt lat="48.59209" lon="2.04081">
        <ele>174</ele>
        <time>2010-05-15T14:39:38Z</time>
      </trkpt>
      <trkpt lat="48.59212" lon="2.04082">
        <ele>174</ele>
        <time>2010-05-15T14:39:39Z</time>
      </trkpt>
      <trkpt lat="48.59214" lon="2.04084">
        <ele>174</ele>
        <time>2010-05-15T14:39:41Z</time>
      </trkpt>
      <trkpt lat="48.59215" lon="2.04087">
        <ele>173</ele>
        <time>2010-05-15T14:39:42Z</time>
      </trkpt>
      <trkpt lat="48.59216" lon="2.04089">
        <ele>173</ele>
        <time>2010-05-15T14:39:43Z</time>
      </trkpt>
      <trkpt lat="48.59218" lon="2.04091">
        <ele>173</ele>
        <time>2010-05-15T14:39:44Z</time>
      </trkpt>
      <trkpt lat="48.59219" lon="2.04094">
        <ele>173</ele>
        <time>2010-05-15T14:39:45Z</time>
      </trkpt>
      <trkpt lat="48.59221" lon="2.04097">
        <ele>172</ele>
        <time>2010-05-15T14:39:46Z</time>
      </trkpt>
      <trkpt lat="48.59225" lon="2.041">
        <ele>172</ele>
        <time>2010-05-15T14:39:47Z</time>
      </trkpt>
      <trkpt lat="48.59228" lon="2.04103">
        <ele>172</ele>
        <time>2010-05-15T14:39:48Z</time>
      </trkpt>
      <trkpt lat="48.59231" lon="2.04106">
        <ele>172</ele>
        <time>2010-05-15T14:39:49Z</time>
      </trkpt>
      <trkpt lat="48.59233" lon="2.04109">
        <ele>172</ele>
        <time>2010-05-15T14:39:50Z</time>
      </trkpt>
      <trkpt lat="48.59236" lon="2.04114">
        <ele>172</ele>
        <time>2010-05-15T14:39:51Z</time>
      </trkpt>
      <trkpt lat="48.59238" lon="2.04117">
        <ele>173</ele>
        <time>2010-05-15T14:39:52Z</time>
      </trkpt>
      <trkpt lat="48.59241" lon="2.04121">
        <ele>174</ele>
        <time>2010-05-15T14:39:53Z</time>
      </trkpt>
      <trkpt lat="48.59243" lon="2.04124">
        <ele>175</ele>
        <time>2010-05-15T14:39:54Z</time>
      </trkpt>
      <trkpt lat="48.59246" lon="2.04128">
        <ele>176</ele>
        <time>2010-05-15T14:39:55Z</time>
      </trkpt>
      <trkpt lat="48.59248" lon="2.04133">
        <ele>176</ele>
        <time>2010-05-15T14:39:56Z</time>
      </trkpt>
      <trkpt lat="48.5925" lon="2.04139">
        <ele>176</ele>
        <time>2010-05-15T14:39:57Z</time>
      </trkpt>
      <trkpt lat="48.59251" lon="2.04142">
        <ele>176</ele>
        <time>2010-05-15T14:39:58Z</time>
      </trkpt>
      <trkpt lat="48.59252" lon="2.04145">
        <ele>176</ele>
        <time>2010-05-15T14:39:59Z</time>
      </trkpt>
      <trkpt lat="48.59254" lon="2.04147">
        <ele>176</ele>
        <time>2010-05-15T14:40:00Z</time>
      </trkpt>
      <trkpt lat="48.5926" lon="2.04153">
        <ele>176</ele>
        <time>2010-05-15T14:40:03Z</time>
      </trkpt>
      <trkpt lat="48.59265" lon="2.04157">
        <ele>176</ele>
        <time>2010-05-15T14:40:04Z</time>
      </trkpt>
      <trkpt lat="48.59268" lon="2.04158">
        <ele>176</ele>
        <time>2010-05-15T14:40:05Z</time>
      </trkpt>
      <trkpt lat="48.5927" lon="2.04161">
        <ele>177</ele>
        <time>2010-05-15T14:40:06Z</time>
      </trkpt>
      <trkpt lat="48.59272" lon="2.04162">
        <ele>177</ele>
        <time>2010-05-15T14:40:07Z</time>
      </trkpt>
      <trkpt lat="48.59273" lon="2.04164">
        <ele>178</ele>
        <time>2010-05-15T14:40:08Z</time>
      </trkpt>
      <trkpt lat="48.59275" lon="2.04168">
        <ele>178</ele>
        <time>2010-05-15T14:40:09Z</time>
      </trkpt>
      <trkpt lat="48.59276" lon="2.0417">
        <ele>178</ele>
        <time>2010-05-15T14:40:10Z</time>
      </trkpt>
      <trkpt lat="48.59278" lon="2.04173">
        <ele>178</ele>
        <time>2010-05-15T14:40:12Z</time>
      </trkpt>
      <trkpt lat="48.59279" lon="2.04173">
        <ele>178</ele>
        <time>2010-05-15T14:40:13Z</time>
      </trkpt>
      <trkpt lat="48.5928" lon="2.04175">
        <ele>178</ele>
        <time>2010-05-15T14:40:14Z</time>
      </trkpt>
      <trkpt lat="48.59281" lon="2.04177">
        <ele>178</ele>
        <time>2010-05-15T14:40:15Z</time>
      </trkpt>
      <trkpt lat="48.5928" lon="2.0418">
        <ele>178</ele>
        <time>2010-05-15T14:40:16Z</time>
      </trkpt>
      <trkpt lat="48.5928" lon="2.04183">
        <ele>178</ele>
        <time>2010-05-15T14:40:17Z</time>
      </trkpt>
      <trkpt lat="48.59281" lon="2.04185">
        <ele>178</ele>
        <time>2010-05-15T14:40:18Z</time>
      </trkpt>
      <trkpt lat="48.59282" lon="2.04189">
        <ele>178</ele>
        <time>2010-05-15T14:40:19Z</time>
      </trkpt>
      <trkpt lat="48.59282" lon="2.04191">
        <ele>178</ele>
        <time>2010-05-15T14:40:20Z</time>
      </trkpt>
      <trkpt lat="48.59283" lon="2.04193">
        <ele>178</ele>
        <time>2010-05-15T14:40:21Z</time>
      </trkpt>
      <trkpt lat="48.59283" lon="2.04195">
        <ele>178</ele>
        <time>2010-05-15T14:40:22Z</time>
      </trkpt>
      <trkpt lat="48.59284" lon="2.04197">
        <ele>178</ele>
        <time>2010-05-15T14:40:23Z</time>
      </trkpt>
      <trkpt lat="48.59286" lon="2.04198">
        <ele>178</ele>
        <time>2010-05-15T14:40:24Z</time>
      </trkpt>
      <trkpt lat="48.59288" lon="2.042">
        <ele>178</ele>
        <time>2010-05-15T14:40:26Z</time>
      </trkpt>
      <trkpt lat="48.59288" lon="2.04202">
        <ele>178</ele>
        <time>2010-05-15T14:40:27Z</time>
      </trkpt>
      <trkpt lat="48.59289" lon="2.04204">
        <ele>178</ele>
        <time>2010-05-15T14:40:28Z</time>
      </trkpt>
      <trkpt lat="48.59289" lon="2.04206">
        <ele>178</ele>
        <time>2010-05-15T14:40:30Z</time>
      </trkpt>
      <trkpt lat="48.59289" lon="2.04208">
        <ele>178</ele>
        <time>2010-05-15T14:40:31Z</time>
      </trkpt>
      <trkpt lat="48.5929" lon="2.04211">
        <ele>178</ele>
        <time>2010-05-15T14:40:32Z</time>
      </trkpt>
      <trkpt lat="48.5929" lon="2.04213">
        <ele>178</ele>
        <time>2010-05-15T14:40:33Z</time>
      </trkpt>
      <trkpt lat="48.5929" lon="2.04216">
        <ele>178</ele>
        <time>2010-05-15T14:40:34Z</time>
      </trkpt>
      <trkpt lat="48.5929" lon="2.04218">
        <ele>178</ele>
        <time>2010-05-15T14:40:35Z</time>
      </trkpt>
      <trkpt lat="48.59289" lon="2.04221">
        <ele>179</ele>
        <time>2010-05-15T14:40:36Z</time>
      </trkpt>
      <trkpt lat="48.59289" lon="2.04224">
        <ele>180</ele>
        <time>2010-05-15T14:40:37Z</time>
      </trkpt>
      <trkpt lat="48.59289" lon="2.04225">
        <ele>181</ele>
        <time>2010-05-15T14:40:38Z</time>
      </trkpt>
      <trkpt lat="48.5929" lon="2.04228">
        <ele>183</ele>
        <time>2010-05-15T14:40:40Z</time>
      </trkpt>
      <trkpt lat="48.59291" lon="2.0423">
        <ele>185</ele>
        <time>2010-05-15T14:40:42Z</time>
      </trkpt>
      <trkpt lat="48.59293" lon="2.04233">
        <ele>187</ele>
        <time>2010-05-15T14:40:44Z</time>
      </trkpt>
      <trkpt lat="48.59293" lon="2.04236">
        <ele>188</ele>
        <time>2010-05-15T14:40:46Z</time>
      </trkpt>
      <trkpt lat="48.59294" lon="2.04238">
        <ele>188</ele>
        <time>2010-05-15T14:40:47Z</time>
      </trkpt>
      <trkpt lat="48.59296" lon="2.04241">
        <ele>188</ele>
        <time>2010-05-15T14:40:49Z</time>
      </trkpt>
      <trkpt lat="48.59297" lon="2.04244">
        <ele>188</ele>
        <time>2010-05-15T14:40:51Z</time>
      </trkpt>
      <trkpt lat="48.59299" lon="2.0425">
        <ele>188</ele>
        <time>2010-05-15T14:40:52Z</time>
      </trkpt>
      <trkpt lat="48.593" lon="2.04253">
        <ele>188</ele>
        <time>2010-05-15T14:40:53Z</time>
      </trkpt>
      <trkpt lat="48.593" lon="2.04257">
        <ele>189</ele>
        <time>2010-05-15T14:40:54Z</time>
      </trkpt>
      <trkpt lat="48.59301" lon="2.04259">
        <ele>190</ele>
        <time>2010-05-15T14:40:55Z</time>
      </trkpt>
      <trkpt lat="48.59303" lon="2.04264">
        <ele>191</ele>
        <time>2010-05-15T14:40:56Z</time>
      </trkpt>
      <trkpt lat="48.59307" lon="2.04269">
        <ele>191</ele>
        <time>2010-05-15T14:40:57Z</time>
      </trkpt>
      <trkpt lat="48.5931" lon="2.04276">
        <ele>191</ele>
        <time>2010-05-15T14:40:58Z</time>
      </trkpt>
      <trkpt lat="48.59312" lon="2.04279">
        <ele>191</ele>
        <time>2010-05-15T14:40:59Z</time>
      </trkpt>
      <trkpt lat="48.59313" lon="2.04283">
        <ele>191</ele>
        <time>2010-05-15T14:41:00Z</time>
      </trkpt>
      <trkpt lat="48.59316" lon="2.04289">
        <ele>191</ele>
        <time>2010-05-15T14:41:01Z</time>
      </trkpt>
      <trkpt lat="48.59319" lon="2.04295">
        <ele>191</ele>
        <time>2010-05-15T14:41:02Z</time>
      </trkpt>
      <trkpt lat="48.5932" lon="2.04299">
        <ele>191</ele>
        <time>2010-05-15T14:41:03Z</time>
      </trkpt>
      <trkpt lat="48.59322" lon="2.04303">
        <ele>191</ele>
        <time>2010-05-15T14:41:04Z</time>
      </trkpt>
      <trkpt lat="48.59325" lon="2.04306">
        <ele>191</ele>
        <time>2010-05-15T14:41:05Z</time>
      </trkpt>
      <trkpt lat="48.5933" lon="2.04317">
        <ele>191</ele>
        <time>2010-05-15T14:41:06Z</time>
      </trkpt>
      <trkpt lat="48.59334" lon="2.04323">
        <ele>191</ele>
        <time>2010-05-15T14:41:07Z</time>
      </trkpt>
      <trkpt lat="48.59338" lon="2.04327">
        <ele>191</ele>
        <time>2010-05-15T14:41:08Z</time>
      </trkpt>
      <trkpt lat="48.59339" lon="2.04328">
        <ele>190</ele>
        <time>2010-05-15T14:41:10Z</time>
      </trkpt>
      <trkpt lat="48.59339" lon="2.0433">
        <ele>189</ele>
        <time>2010-05-15T14:41:11Z</time>
      </trkpt>
      <trkpt lat="48.59339" lon="2.04333">
        <ele>188</ele>
        <time>2010-05-15T14:41:12Z</time>
      </trkpt>
      <trkpt lat="48.5934" lon="2.04336">
        <ele>186</ele>
        <time>2010-05-15T14:41:14Z</time>
      </trkpt>
      <trkpt lat="48.5934" lon="2.04341">
        <ele>186</ele>
        <time>2010-05-15T14:41:16Z</time>
      </trkpt>
      <trkpt lat="48.5934" lon="2.04343">
        <ele>186</ele>
        <time>2010-05-15T14:41:17Z</time>
      </trkpt>
      <trkpt lat="48.59341" lon="2.04345">
        <ele>186</ele>
        <time>2010-05-15T14:41:18Z</time>
      </trkpt>
      <trkpt lat="48.59342" lon="2.04348">
        <ele>186</ele>
        <time>2010-05-15T14:41:19Z</time>
      </trkpt>
      <trkpt lat="48.59342" lon="2.04349">
        <ele>186</ele>
        <time>2010-05-15T14:41:20Z</time>
      </trkpt>
      <trkpt lat="48.59343" lon="2.04352">
        <ele>186</ele>
        <time>2010-05-15T14:41:21Z</time>
      </trkpt>
      <trkpt lat="48.59343" lon="2.04354">
        <ele>186</ele>
        <time>2010-05-15T14:41:22Z</time>
      </trkpt>
      <trkpt lat="48.59344" lon="2.04357">
        <ele>186</ele>
        <time>2010-05-15T14:41:23Z</time>
      </trkpt>
      <trkpt lat="48.59345" lon="2.04361">
        <ele>186</ele>
        <time>2010-05-15T14:41:25Z</time>
      </trkpt>
      <trkpt lat="48.59346" lon="2.04365">
        <ele>186</ele>
        <time>2010-05-15T14:41:27Z</time>
      </trkpt>
      <trkpt lat="48.59346" lon="2.04367">
        <ele>186</ele>
        <time>2010-05-15T14:41:28Z</time>
      </trkpt>
      <trkpt lat="48.59347" lon="2.04369">
        <ele>186</ele>
        <time>2010-05-15T14:41:29Z</time>
      </trkpt>
      <trkpt lat="48.59348" lon="2.0437">
        <ele>186</ele>
        <time>2010-05-15T14:41:31Z</time>
      </trkpt>
      <trkpt lat="48.59351" lon="2.04372">
        <ele>186</ele>
        <time>2010-05-15T14:41:32Z</time>
      </trkpt>
      <trkpt lat="48.59352" lon="2.04374">
        <ele>186</ele>
        <time>2010-05-15T14:41:34Z</time>
      </trkpt>
      <trkpt lat="48.59353" lon="2.04377">
        <ele>186</ele>
        <time>2010-05-15T14:41:35Z</time>
      </trkpt>
      <trkpt lat="48.59355" lon="2.04381">
        <ele>186</ele>
        <time>2010-05-15T14:41:37Z</time>
      </trkpt>
      <trkpt lat="48.59356" lon="2.04384">
        <ele>186</ele>
        <time>2010-05-15T14:41:39Z</time>
      </trkpt>
      <trkpt lat="48.59358" lon="2.04386">
        <ele>186</ele>
        <time>2010-05-15T14:41:41Z</time>
      </trkpt>
      <trkpt lat="48.59359" lon="2.04388">
        <ele>186</ele>
        <time>2010-05-15T14:41:42Z</time>
      </trkpt>
      <trkpt lat="48.59361" lon="2.04391">
        <ele>186</ele>
        <time>2010-05-15T14:41:43Z</time>
      </trkpt>
      <trkpt lat="48.59362" lon="2.04393">
        <ele>186</ele>
        <time>2010-05-15T14:41:44Z</time>
      </trkpt>
      <trkpt lat="48.59363" lon="2.04395">
        <ele>186</ele>
        <time>2010-05-15T14:41:45Z</time>
      </trkpt>
      <trkpt lat="48.59365" lon="2.04396">
        <ele>186</ele>
        <time>2010-05-15T14:41:46Z</time>
      </trkpt>
      <trkpt lat="48.59366" lon="2.04398">
        <ele>186</ele>
        <time>2010-05-15T14:41:47Z</time>
      </trkpt>
      <trkpt lat="48.59368" lon="2.04401">
        <ele>186</ele>
        <time>2010-05-15T14:41:49Z</time>
      </trkpt>
      <trkpt lat="48.59369" lon="2.04403">
        <ele>186</ele>
        <time>2010-05-15T14:41:50Z</time>
      </trkpt>
      <trkpt lat="48.5937" lon="2.04406">
        <ele>186</ele>
        <time>2010-05-15T14:41:52Z</time>
      </trkpt>
      <trkpt lat="48.59371" lon="2.04408">
        <ele>186</ele>
        <time>2010-05-15T14:41:53Z</time>
      </trkpt>
      <trkpt lat="48.59375" lon="2.04417">
        <ele>186</ele>
        <time>2010-05-15T14:41:55Z</time>
      </trkpt>
      <trkpt lat="48.59377" lon="2.04421">
        <ele>185</ele>
        <time>2010-05-15T14:41:56Z</time>
      </trkpt>
      <trkpt lat="48.59379" lon="2.04425">
        <ele>184</ele>
        <time>2010-05-15T14:41:57Z</time>
      </trkpt>
      <trkpt lat="48.59381" lon="2.04427">
        <ele>183</ele>
        <time>2010-05-15T14:41:58Z</time>
      </trkpt>
      <trkpt lat="48.59382" lon="2.04431">
        <ele>181</ele>
        <time>2010-05-15T14:42:00Z</time>
      </trkpt>
      <trkpt lat="48.59385" lon="2.04434">
        <ele>180</ele>
        <time>2010-05-15T14:42:01Z</time>
      </trkpt>
      <trkpt lat="48.59386" lon="2.04436">
        <ele>178</ele>
        <time>2010-05-15T14:42:03Z</time>
      </trkpt>
      <trkpt lat="48.59388" lon="2.0444">
        <ele>176</ele>
        <time>2010-05-15T14:42:05Z</time>
      </trkpt>
      <trkpt lat="48.5939" lon="2.04442">
        <ele>175</ele>
        <time>2010-05-15T14:42:06Z</time>
      </trkpt>
      <trkpt lat="48.59391" lon="2.04445">
        <ele>174</ele>
        <time>2010-05-15T14:42:07Z</time>
      </trkpt>
      <trkpt lat="48.59392" lon="2.04447">
        <ele>173</ele>
        <time>2010-05-15T14:42:08Z</time>
      </trkpt>
      <trkpt lat="48.59394" lon="2.04448">
        <ele>173</ele>
        <time>2010-05-15T14:42:10Z</time>
      </trkpt>
      <trkpt lat="48.59396" lon="2.04449">
        <ele>173</ele>
        <time>2010-05-15T14:42:11Z</time>
      </trkpt>
      <trkpt lat="48.59397" lon="2.04452">
        <ele>173</ele>
        <time>2010-05-15T14:42:12Z</time>
      </trkpt>
      <trkpt lat="48.59398" lon="2.04454">
        <ele>173</ele>
        <time>2010-05-15T14:42:13Z</time>
      </trkpt>
      <trkpt lat="48.594" lon="2.04457">
        <ele>173</ele>
        <time>2010-05-15T14:42:15Z</time>
      </trkpt>
      <trkpt lat="48.59402" lon="2.04459">
        <ele>173</ele>
        <time>2010-05-15T14:42:17Z</time>
      </trkpt>
      <trkpt lat="48.59404" lon="2.04461">
        <ele>173</ele>
        <time>2010-05-15T14:42:18Z</time>
      </trkpt>
      <trkpt lat="48.59405" lon="2.04464">
        <ele>172</ele>
        <time>2010-05-15T14:42:20Z</time>
      </trkpt>
      <trkpt lat="48.59406" lon="2.04467">
        <ele>172</ele>
        <time>2010-05-15T14:42:22Z</time>
      </trkpt>
      <trkpt lat="48.59408" lon="2.0447">
        <ele>172</ele>
        <time>2010-05-15T14:42:24Z</time>
      </trkpt>
      <trkpt lat="48.59409" lon="2.04471">
        <ele>172</ele>
        <time>2010-05-15T14:42:25Z</time>
      </trkpt>
      <trkpt lat="48.5941" lon="2.04473">
        <ele>172</ele>
        <time>2010-05-15T14:42:26Z</time>
      </trkpt>
      <trkpt lat="48.59411" lon="2.04476">
        <ele>171</ele>
        <time>2010-05-15T14:42:27Z</time>
      </trkpt>
      <trkpt lat="48.59412" lon="2.04479">
        <ele>171</ele>
        <time>2010-05-15T14:42:28Z</time>
      </trkpt>
      <trkpt lat="48.59413" lon="2.04481">
        <ele>171</ele>
        <time>2010-05-15T14:42:29Z</time>
      </trkpt>
      <trkpt lat="48.59414" lon="2.04483">
        <ele>170</ele>
        <time>2010-05-15T14:42:30Z</time>
      </trkpt>
      <trkpt lat="48.59414" lon="2.04486">
        <ele>170</ele>
        <time>2010-05-15T14:42:31Z</time>
      </trkpt>
      <trkpt lat="48.59416" lon="2.04488">
        <ele>170</ele>
        <time>2010-05-15T14:42:32Z</time>
      </trkpt>
      <trkpt lat="48.59417" lon="2.0449">
        <ele>170</ele>
        <time>2010-05-15T14:42:33Z</time>
      </trkpt>
      <trkpt lat="48.59418" lon="2.04492">
        <ele>170</ele>
        <time>2010-05-15T14:42:34Z</time>
      </trkpt>
      <trkpt lat="48.59419" lon="2.04495">
        <ele>170</ele>
        <time>2010-05-15T14:42:35Z</time>
      </trkpt>
      <trkpt lat="48.5942" lon="2.04496">
        <ele>170</ele>
        <time>2010-05-15T14:42:36Z</time>
      </trkpt>
      <trkpt lat="48.59421" lon="2.04498">
        <ele>170</ele>
        <time>2010-05-15T14:42:37Z</time>
      </trkpt>
      <trkpt lat="48.59423" lon="2.045">
        <ele>170</ele>
        <time>2010-05-15T14:42:39Z</time>
      </trkpt>
      <trkpt lat="48.59424" lon="2.04502">
        <ele>170</ele>
        <time>2010-05-15T14:42:40Z</time>
      </trkpt>
      <trkpt lat="48.59425" lon="2.04505">
        <ele>170</ele>
        <time>2010-05-15T14:42:42Z</time>
      </trkpt>
      <trkpt lat="48.59427" lon="2.04507">
        <ele>170</ele>
        <time>2010-05-15T14:42:44Z</time>
      </trkpt>
      <trkpt lat="48.59428" lon="2.0451">
        <ele>170</ele>
        <time>2010-05-15T14:42:45Z</time>
      </trkpt>
      <trkpt lat="48.59429" lon="2.04513">
        <ele>170</ele>
        <time>2010-05-15T14:42:46Z</time>
      </trkpt>
      <trkpt lat="48.5943" lon="2.04515">
        <ele>170</ele>
        <time>2010-05-15T14:42:47Z</time>
      </trkpt>
      <trkpt lat="48.59431" lon="2.04519">
        <ele>170</ele>
        <time>2010-05-15T14:42:48Z</time>
      </trkpt>
      <trkpt lat="48.59431" lon="2.04522">
        <ele>170</ele>
        <time>2010-05-15T14:42:49Z</time>
      </trkpt>
      <trkpt lat="48.59432" lon="2.04524">
        <ele>170</ele>
        <time>2010-05-15T14:42:50Z</time>
      </trkpt>
      <trkpt lat="48.59433" lon="2.04526">
        <ele>170</ele>
        <time>2010-05-15T14:42:51Z</time>
      </trkpt>
      <trkpt lat="48.59435" lon="2.0453">
        <ele>170</ele>
        <time>2010-05-15T14:42:52Z</time>
      </trkpt>
      <trkpt lat="48.59438" lon="2.04533">
        <ele>170</ele>
        <time>2010-05-15T14:42:53Z</time>
      </trkpt>
      <trkpt lat="48.59441" lon="2.04536">
        <ele>170</ele>
        <time>2010-05-15T14:42:54Z</time>
      </trkpt>
      <trkpt lat="48.59442" lon="2.04539">
        <ele>170</ele>
        <time>2010-05-15T14:42:55Z</time>
      </trkpt>
      <trkpt lat="48.59445" lon="2.04542">
        <ele>170</ele>
        <time>2010-05-15T14:42:56Z</time>
      </trkpt>
      <trkpt lat="48.59447" lon="2.04545">
        <ele>171</ele>
        <time>2010-05-15T14:42:57Z</time>
      </trkpt>
      <trkpt lat="48.59449" lon="2.04548">
        <ele>172</ele>
        <time>2010-05-15T14:42:58Z</time>
      </trkpt>
      <trkpt lat="48.5945" lon="2.04551">
        <ele>173</ele>
        <time>2010-05-15T14:42:59Z</time>
      </trkpt>
      <trkpt lat="48.59452" lon="2.04554">
        <ele>173</ele>
        <time>2010-05-15T14:43:00Z</time>
      </trkpt>
      <trkpt lat="48.59453" lon="2.04557">
        <ele>173</ele>
        <time>2010-05-15T14:43:01Z</time>
      </trkpt>
      <trkpt lat="48.59453" lon="2.04559">
        <ele>173</ele>
        <time>2010-05-15T14:43:02Z</time>
      </trkpt>
      <trkpt lat="48.59455" lon="2.04561">
        <ele>173</ele>
        <time>2010-05-15T14:43:04Z</time>
      </trkpt>
      <trkpt lat="48.59457" lon="2.04564">
        <ele>173</ele>
        <time>2010-05-15T14:43:06Z</time>
      </trkpt>
      <trkpt lat="48.59458" lon="2.04565">
        <ele>174</ele>
        <time>2010-05-15T14:43:07Z</time>
      </trkpt>
      <trkpt lat="48.59459" lon="2.04567">
        <ele>174</ele>
        <time>2010-05-15T14:43:08Z</time>
      </trkpt>
      <trkpt lat="48.5946" lon="2.0457">
        <ele>174</ele>
        <time>2010-05-15T14:43:09Z</time>
      </trkpt>
      <trkpt lat="48.59461" lon="2.04572">
        <ele>174</ele>
        <time>2010-05-15T14:43:10Z</time>
      </trkpt>
      <trkpt lat="48.59463" lon="2.04573">
        <ele>174</ele>
        <time>2010-05-15T14:43:11Z</time>
      </trkpt>
      <trkpt lat="48.59465" lon="2.04574">
        <ele>174</ele>
        <time>2010-05-15T14:43:12Z</time>
      </trkpt>
      <trkpt lat="48.59466" lon="2.04576">
        <ele>174</ele>
        <time>2010-05-15T14:43:13Z</time>
      </trkpt>
      <trkpt lat="48.59467" lon="2.04578">
        <ele>174</ele>
        <time>2010-05-15T14:43:14Z</time>
      </trkpt>
      <trkpt lat="48.59469" lon="2.04579">
        <ele>174</ele>
        <time>2010-05-15T14:43:15Z</time>
      </trkpt>
      <trkpt lat="48.5947" lon="2.04581">
        <ele>174</ele>
        <time>2010-05-15T14:43:16Z</time>
      </trkpt>
      <trkpt lat="48.59471" lon="2.04582">
        <ele>173</ele>
        <time>2010-05-15T14:43:18Z</time>
      </trkpt>
      <trkpt lat="48.59472" lon="2.04584">
        <ele>173</ele>
        <time>2010-05-15T14:43:20Z</time>
      </trkpt>
      <trkpt lat="48.59474" lon="2.04586">
        <ele>173</ele>
        <time>2010-05-15T14:43:22Z</time>
      </trkpt>
      <trkpt lat="48.59474" lon="2.04588">
        <ele>173</ele>
        <time>2010-05-15T14:43:24Z</time>
      </trkpt>
      <trkpt lat="48.59477" lon="2.04593">
        <ele>174</ele>
        <time>2010-05-15T14:43:26Z</time>
      </trkpt>
      <trkpt lat="48.59479" lon="2.04597">
        <ele>174</ele>
        <time>2010-05-15T14:43:28Z</time>
      </trkpt>
      <trkpt lat="48.5948" lon="2.04598">
        <ele>174</ele>
        <time>2010-05-15T14:43:29Z</time>
      </trkpt>
      <trkpt lat="48.59481" lon="2.04601">
        <ele>174</ele>
        <time>2010-05-15T14:43:30Z</time>
      </trkpt>
      <trkpt lat="48.59483" lon="2.04603">
        <ele>174</ele>
        <time>2010-05-15T14:43:32Z</time>
      </trkpt>
      <trkpt lat="48.59485" lon="2.04607">
        <ele>174</ele>
        <time>2010-05-15T14:43:34Z</time>
      </trkpt>
      <trkpt lat="48.59487" lon="2.04608">
        <ele>174</ele>
        <time>2010-05-15T14:43:35Z</time>
      </trkpt>
      <trkpt lat="48.59488" lon="2.0461">
        <ele>174</ele>
        <time>2010-05-15T14:43:36Z</time>
      </trkpt>
      <trkpt lat="48.59489" lon="2.04612">
        <ele>174</ele>
        <time>2010-05-15T14:43:37Z</time>
      </trkpt>
      <trkpt lat="48.5949" lon="2.04615">
        <ele>174</ele>
        <time>2010-05-15T14:43:39Z</time>
      </trkpt>
      <trkpt lat="48.5949" lon="2.04618">
        <ele>174</ele>
        <time>2010-05-15T14:43:40Z</time>
      </trkpt>
      <trkpt lat="48.59491" lon="2.0462">
        <ele>174</ele>
        <time>2010-05-15T14:43:41Z</time>
      </trkpt>
      <trkpt lat="48.59491" lon="2.04621">
        <ele>174</ele>
        <time>2010-05-15T14:43:42Z</time>
      </trkpt>
      <trkpt lat="48.59493" lon="2.04624">
        <ele>174</ele>
        <time>2010-05-15T14:43:43Z</time>
      </trkpt>
      <trkpt lat="48.59495" lon="2.04627">
        <ele>174</ele>
        <time>2010-05-15T14:43:44Z</time>
      </trkpt>
      <trkpt lat="48.59496" lon="2.0463">
        <ele>174</ele>
        <time>2010-05-15T14:43:45Z</time>
      </trkpt>
      <trkpt lat="48.59496" lon="2.04632">
        <ele>174</ele>
        <time>2010-05-15T14:43:46Z</time>
      </trkpt>
      <trkpt lat="48.59497" lon="2.04635">
        <ele>174</ele>
        <time>2010-05-15T14:43:47Z</time>
      </trkpt>
      <trkpt lat="48.59499" lon="2.04639">
        <ele>174</ele>
        <time>2010-05-15T14:43:49Z</time>
      </trkpt>
      <trkpt lat="48.59501" lon="2.04641">
        <ele>174</ele>
        <time>2010-05-15T14:43:50Z</time>
      </trkpt>
      <trkpt lat="48.59501" lon="2.04645">
        <ele>174</ele>
        <time>2010-05-15T14:43:51Z</time>
      </trkpt>
      <trkpt lat="48.59503" lon="2.04647">
        <ele>174</ele>
        <time>2010-05-15T14:43:52Z</time>
      </trkpt>
      <trkpt lat="48.59505" lon="2.04649">
        <ele>174</ele>
        <time>2010-05-15T14:43:53Z</time>
      </trkpt>
      <trkpt lat="48.59507" lon="2.04651">
        <ele>174</ele>
        <time>2010-05-15T14:43:54Z</time>
      </trkpt>
      <trkpt lat="48.59508" lon="2.04652">
        <ele>174</ele>
        <time>2010-05-15T14:43:55Z</time>
      </trkpt>
      <trkpt lat="48.59509" lon="2.04654">
        <ele>174</ele>
        <time>2010-05-15T14:43:56Z</time>
      </trkpt>
      <trkpt lat="48.59511" lon="2.04658">
        <ele>174</ele>
        <time>2010-05-15T14:43:58Z</time>
      </trkpt>
      <trkpt lat="48.5951" lon="2.0466">
        <ele>174</ele>
        <time>2010-05-15T14:44:00Z</time>
      </trkpt>
      <trkpt lat="48.59512" lon="2.04662">
        <ele>174</ele>
        <time>2010-05-15T14:44:02Z</time>
      </trkpt>
      <trkpt lat="48.59512" lon="2.04664">
        <ele>174</ele>
        <time>2010-05-15T14:44:03Z</time>
      </trkpt>
      <trkpt lat="48.59513" lon="2.04667">
        <ele>174</ele>
        <time>2010-05-15T14:44:05Z</time>
      </trkpt>
      <trkpt lat="48.59513" lon="2.04669">
        <ele>174</ele>
        <time>2010-05-15T14:44:06Z</time>
      </trkpt>
      <trkpt lat="48.59515" lon="2.04672">
        <ele>174</ele>
        <time>2010-05-15T14:44:08Z</time>
      </trkpt>
      <trkpt lat="48.59516" lon="2.04673">
        <ele>174</ele>
        <time>2010-05-15T14:44:09Z</time>
      </trkpt>
      <trkpt lat="48.59517" lon="2.04674">
        <ele>175</ele>
        <time>2010-05-15T14:44:10Z</time>
      </trkpt>
      <trkpt lat="48.59518" lon="2.04677">
        <ele>175</ele>
        <time>2010-05-15T14:44:11Z</time>
      </trkpt>
      <trkpt lat="48.59518" lon="2.04679">
        <ele>176</ele>
        <time>2010-05-15T14:44:12Z</time>
      </trkpt>
      <trkpt lat="48.59518" lon="2.04681">
        <ele>176</ele>
        <time>2010-05-15T14:44:13Z</time>
      </trkpt>
      <trkpt lat="48.5952" lon="2.04682">
        <ele>177</ele>
        <time>2010-05-15T14:44:14Z</time>
      </trkpt>
      <trkpt lat="48.59521" lon="2.04685">
        <ele>177</ele>
        <time>2010-05-15T14:44:15Z</time>
      </trkpt>
      <trkpt lat="48.59523" lon="2.04686">
        <ele>177</ele>
        <time>2010-05-15T14:44:16Z</time>
      </trkpt>
      <trkpt lat="48.59525" lon="2.04688">
        <ele>178</ele>
        <time>2010-05-15T14:44:17Z</time>
      </trkpt>
      <trkpt lat="48.59527" lon="2.04688">
        <ele>179</ele>
        <time>2010-05-15T14:44:18Z</time>
      </trkpt>
      <trkpt lat="48.59531" lon="2.04693">
        <ele>179</ele>
        <time>2010-05-15T14:44:19Z</time>
      </trkpt>
      <trkpt lat="48.59533" lon="2.04694">
        <ele>179</ele>
        <time>2010-05-15T14:44:20Z</time>
      </trkpt>
      <trkpt lat="48.59534" lon="2.04695">
        <ele>179</ele>
        <time>2010-05-15T14:44:21Z</time>
      </trkpt>
      <trkpt lat="48.59536" lon="2.04698">
        <ele>179</ele>
        <time>2010-05-15T14:44:23Z</time>
      </trkpt>
      <trkpt lat="48.59539" lon="2.04703">
        <ele>179</ele>
        <time>2010-05-15T14:44:24Z</time>
      </trkpt>
      <trkpt lat="48.5954" lon="2.04706">
        <ele>179</ele>
        <time>2010-05-15T14:44:25Z</time>
      </trkpt>
      <trkpt lat="48.59543" lon="2.04709">
        <ele>179</ele>
        <time>2010-05-15T14:44:26Z</time>
      </trkpt>
      <trkpt lat="48.59544" lon="2.0471">
        <ele>179</ele>
        <time>2010-05-15T14:44:27Z</time>
      </trkpt>
      <trkpt lat="48.59546" lon="2.04715">
        <ele>178</ele>
        <time>2010-05-15T14:44:29Z</time>
      </trkpt>
      <trkpt lat="48.59547" lon="2.04717">
        <ele>177</ele>
        <time>2010-05-15T14:44:30Z</time>
      </trkpt>
      <trkpt lat="48.59552" lon="2.04723">
        <ele>176</ele>
        <time>2010-05-15T14:44:32Z</time>
      </trkpt>
      <trkpt lat="48.59553" lon="2.04727">
        <ele>175</ele>
        <time>2010-05-15T14:44:33Z</time>
      </trkpt>
      <trkpt lat="48.59554" lon="2.0473">
        <ele>174</ele>
        <time>2010-05-15T14:44:34Z</time>
      </trkpt>
      <trkpt lat="48.59555" lon="2.04733">
        <ele>173</ele>
        <time>2010-05-15T14:44:35Z</time>
      </trkpt>
      <trkpt lat="48.59557" lon="2.04735">
        <ele>172</ele>
        <time>2010-05-15T14:44:36Z</time>
      </trkpt>
      <trkpt lat="48.59559" lon="2.04737">
        <ele>171</ele>
        <time>2010-05-15T14:44:37Z</time>
      </trkpt>
      <trkpt lat="48.59561" lon="2.04739">
        <ele>170</ele>
        <time>2010-05-15T14:44:38Z</time>
      </trkpt>
      <trkpt lat="48.59563" lon="2.04741">
        <ele>169</ele>
        <time>2010-05-15T14:44:39Z</time>
      </trkpt>
      <trkpt lat="48.59565" lon="2.04743">
        <ele>169</ele>
        <time>2010-05-15T14:44:41Z</time>
      </trkpt>
      <trkpt lat="48.59566" lon="2.04746">
        <ele>168</ele>
        <time>2010-05-15T14:44:42Z</time>
      </trkpt>
      <trkpt lat="48.59568" lon="2.04748">
        <ele>168</ele>
        <time>2010-05-15T14:44:43Z</time>
      </trkpt>
      <trkpt lat="48.59569" lon="2.04749">
        <ele>168</ele>
        <time>2010-05-15T14:44:44Z</time>
      </trkpt>
      <trkpt lat="48.5957" lon="2.04749">
        <ele>168</ele>
        <time>2010-05-15T14:44:45Z</time>
      </trkpt>
      <trkpt lat="48.59572" lon="2.04749">
        <ele>168</ele>
        <time>2010-05-15T14:44:46Z</time>
      </trkpt>
      <trkpt lat="48.59574" lon="2.04749">
        <ele>168</ele>
        <time>2010-05-15T14:44:47Z</time>
      </trkpt>
      <trkpt lat="48.59575" lon="2.0475">
        <ele>168</ele>
        <time>2010-05-15T14:44:48Z</time>
      </trkpt>
      <trkpt lat="48.59576" lon="2.04752">
        <ele>168</ele>
        <time>2010-05-15T14:44:49Z</time>
      </trkpt>
      <trkpt lat="48.59577" lon="2.04754">
        <ele>168</ele>
        <time>2010-05-15T14:44:50Z</time>
      </trkpt>
      <trkpt lat="48.59578" lon="2.04756">
        <ele>168</ele>
        <time>2010-05-15T14:44:52Z</time>
      </trkpt>
      <trkpt lat="48.5958" lon="2.04758">
        <ele>168</ele>
        <time>2010-05-15T14:44:53Z</time>
      </trkpt>
      <trkpt lat="48.59581" lon="2.04759">
        <ele>168</ele>
        <time>2010-05-15T14:44:54Z</time>
      </trkpt>
      <trkpt lat="48.59583" lon="2.04761">
        <ele>168</ele>
        <time>2010-05-15T14:44:55Z</time>
      </trkpt>
      <trkpt lat="48.59584" lon="2.04763">
        <ele>168</ele>
        <time>2010-05-15T14:44:56Z</time>
      </trkpt>
      <trkpt lat="48.59586" lon="2.04765">
        <ele>168</ele>
        <time>2010-05-15T14:44:57Z</time>
      </trkpt>
      <trkpt lat="48.59588" lon="2.04767">
        <ele>168</ele>
        <time>2010-05-15T14:44:58Z</time>
      </trkpt>
      <trkpt lat="48.59589" lon="2.04766">
        <ele>168</ele>
        <time>2010-05-15T14:44:59Z</time>
      </trkpt>
      <trkpt lat="48.59591" lon="2.04767">
        <ele>168</ele>
        <time>2010-05-15T14:45:00Z</time>
      </trkpt>
      <trkpt lat="48.59592" lon="2.04768">
        <ele>168</ele>
        <time>2010-05-15T14:45:01Z</time>
      </trkpt>
      <trkpt lat="48.59594" lon="2.04768">
        <ele>168</ele>
        <time>2010-05-15T14:45:02Z</time>
      </trkpt>
      <trkpt lat="48.59596" lon="2.04769">
        <ele>168</ele>
        <time>2010-05-15T14:45:03Z</time>
      </trkpt>
      <trkpt lat="48.59598" lon="2.04769">
        <ele>168</ele>
        <time>2010-05-15T14:45:04Z</time>
      </trkpt>
      <trkpt lat="48.59601" lon="2.0477">
        <ele>168</ele>
        <time>2010-05-15T14:45:07Z</time>
      </trkpt>
      <trkpt lat="48.59603" lon="2.04771">
        <ele>168</ele>
        <time>2010-05-15T14:45:08Z</time>
      </trkpt>
      <trkpt lat="48.59604" lon="2.04775">
        <ele>168</ele>
        <time>2010-05-15T14:45:09Z</time>
      </trkpt>
      <trkpt lat="48.59607" lon="2.04775">
        <ele>168</ele>
        <time>2010-05-15T14:45:10Z</time>
      </trkpt>
      <trkpt lat="48.5961" lon="2.04778">
        <ele>168</ele>
        <time>2010-05-15T14:45:12Z</time>
      </trkpt>
      <trkpt lat="48.59612" lon="2.04781">
        <ele>170</ele>
        <time>2010-05-15T14:45:14Z</time>
      </trkpt>
      <trkpt lat="48.59614" lon="2.04782">
        <ele>171</ele>
        <time>2010-05-15T14:45:15Z</time>
      </trkpt>
      <trkpt lat="48.59616" lon="2.04785">
        <ele>171</ele>
        <time>2010-05-15T14:45:17Z</time>
      </trkpt>
      <trkpt lat="48.59617" lon="2.04786">
        <ele>171</ele>
        <time>2010-05-15T14:45:18Z</time>
      </trkpt>
      <trkpt lat="48.5962" lon="2.04788">
        <ele>171</ele>
        <time>2010-05-15T14:45:20Z</time>
      </trkpt>
      <trkpt lat="48.59622" lon="2.04789">
        <ele>171</ele>
        <time>2010-05-15T14:45:21Z</time>
      </trkpt>
      <trkpt lat="48.59625" lon="2.04791">
        <ele>171</ele>
        <time>2010-05-15T14:45:24Z</time>
      </trkpt>
      <trkpt lat="48.59627" lon="2.04793">
        <ele>171</ele>
        <time>2010-05-15T14:45:25Z</time>
      </trkpt>
      <trkpt lat="48.59631" lon="2.04796">
        <ele>171</ele>
        <time>2010-05-15T14:45:26Z</time>
      </trkpt>
      <trkpt lat="48.59633" lon="2.04798">
        <ele>171</ele>
        <time>2010-05-15T14:45:28Z</time>
      </trkpt>
      <trkpt lat="48.59634" lon="2.04799">
        <ele>171</ele>
        <time>2010-05-15T14:45:29Z</time>
      </trkpt>
      <trkpt lat="48.59636" lon="2.048">
        <ele>171</ele>
        <time>2010-05-15T14:45:32Z</time>
      </trkpt>
      <trkpt lat="48.59638" lon="2.04799">
        <ele>171</ele>
        <time>2010-05-15T14:45:34Z</time>
      </trkpt>
      <trkpt lat="48.5964" lon="2.04799">
        <ele>171</ele>
        <time>2010-05-15T14:45:35Z</time>
      </trkpt>
      <trkpt lat="48.59641" lon="2.04799">
        <ele>169</ele>
        <time>2010-05-15T14:45:37Z</time>
      </trkpt>
      <trkpt lat="48.59643" lon="2.048">
        <ele>168</ele>
        <time>2010-05-15T14:45:38Z</time>
      </trkpt>
      <trkpt lat="48.59645" lon="2.04802">
        <ele>166</ele>
        <time>2010-05-15T14:45:40Z</time>
      </trkpt>
      <trkpt lat="48.59645" lon="2.048">
        <ele>165</ele>
        <time>2010-05-15T14:45:46Z</time>
      </trkpt>
      <trkpt lat="48.59643" lon="2.04799">
        <ele>163</ele>
        <time>2010-05-15T14:45:48Z</time>
      </trkpt>
      <trkpt lat="48.59642" lon="2.04799">
        <ele>162</ele>
        <time>2010-05-15T14:45:49Z</time>
      </trkpt>
      <trkpt lat="48.5964" lon="2.04801">
        <ele>161</ele>
        <time>2010-05-15T14:45:51Z</time>
      </trkpt>
      <trkpt lat="48.59639" lon="2.04801">
        <ele>161</ele>
        <time>2010-05-15T14:45:53Z</time>
      </trkpt>
      <trkpt lat="48.59637" lon="2.04802">
        <ele>161</ele>
        <time>2010-05-15T14:45:56Z</time>
      </trkpt>
      <trkpt lat="48.59636" lon="2.04801">
        <ele>160</ele>
        <time>2010-05-15T14:45:58Z</time>
      </trkpt>
      <trkpt lat="48.59635" lon="2.04802">
        <ele>160</ele>
        <time>2010-05-15T14:46:00Z</time>
      </trkpt>
      <trkpt lat="48.59637" lon="2.04802">
        <ele>160</ele>
        <time>2010-05-15T14:46:01Z</time>
      </trkpt>
      <trkpt lat="48.59638" lon="2.04802">
        <ele>160</ele>
        <time>2010-05-15T14:46:03Z</time>
      </trkpt>
      <trkpt lat="48.59639" lon="2.04804">
        <ele>161</ele>
        <time>2010-05-15T14:46:06Z</time>
      </trkpt>
      <trkpt lat="48.59641" lon="2.04804">
        <ele>163</ele>
        <time>2010-05-15T14:46:08Z</time>
      </trkpt>
      <trkpt lat="48.59642" lon="2.04805">
        <ele>165</ele>
        <time>2010-05-15T14:46:10Z</time>
      </trkpt>
      <trkpt lat="48.59644" lon="2.04805">
        <ele>168</ele>
        <time>2010-05-15T14:46:13Z</time>
      </trkpt>
      <trkpt lat="48.59645" lon="2.04807">
        <ele>171</ele>
        <time>2010-05-15T14:46:16Z</time>
      </trkpt>
      <trkpt lat="48.59647" lon="2.04808">
        <ele>172</ele>
        <time>2010-05-15T14:46:18Z</time>
      </trkpt>
      <trkpt lat="48.59648" lon="2.04808">
        <ele>172</ele>
        <time>2010-05-15T14:46:19Z</time>
      </trkpt>
      <trkpt lat="48.5965" lon="2.04808">
        <ele>172</ele>
        <time>2010-05-15T14:46:20Z</time>
      </trkpt>
      <trkpt lat="48.59651" lon="2.04808">
        <ele>172</ele>
        <time>2010-05-15T14:46:21Z</time>
      </trkpt>
      <trkpt lat="48.59652" lon="2.04809">
        <ele>172</ele>
        <time>2010-05-15T14:46:22Z</time>
      </trkpt>
      <trkpt lat="48.59654" lon="2.0481">
        <ele>172</ele>
        <time>2010-05-15T14:46:24Z</time>
      </trkpt>
      <trkpt lat="48.59657" lon="2.04813">
        <ele>172</ele>
        <time>2010-05-15T14:46:27Z</time>
      </trkpt>
      <trkpt lat="48.59658" lon="2.04814">
        <ele>172</ele>
        <time>2010-05-15T14:46:28Z</time>
      </trkpt>
      <trkpt lat="48.5966" lon="2.04816">
        <ele>172</ele>
        <time>2010-05-15T14:46:30Z</time>
      </trkpt>
      <trkpt lat="48.59662" lon="2.04817">
        <ele>172</ele>
        <time>2010-05-15T14:46:31Z</time>
      </trkpt>
      <trkpt lat="48.59664" lon="2.04818">
        <ele>172</ele>
        <time>2010-05-15T14:46:32Z</time>
      </trkpt>
      <trkpt lat="48.59667" lon="2.04819">
        <ele>170</ele>
        <time>2010-05-15T14:46:34Z</time>
      </trkpt>
      <trkpt lat="48.59668" lon="2.04819">
        <ele>169</ele>
        <time>2010-05-15T14:46:35Z</time>
      </trkpt>
      <trkpt lat="48.5967" lon="2.04819">
        <ele>169</ele>
        <time>2010-05-15T14:46:36Z</time>
      </trkpt>
      <trkpt lat="48.59672" lon="2.04819">
        <ele>169</ele>
        <time>2010-05-15T14:46:37Z</time>
      </trkpt>
      <trkpt lat="48.59675" lon="2.04818">
        <ele>168</ele>
        <time>2010-05-15T14:46:38Z</time>
      </trkpt>
      <trkpt lat="48.59676" lon="2.04819">
        <ele>167</ele>
        <time>2010-05-15T14:46:39Z</time>
      </trkpt>
      <trkpt lat="48.59677" lon="2.0482">
        <ele>167</ele>
        <time>2010-05-15T14:46:40Z</time>
      </trkpt>
      <trkpt lat="48.59679" lon="2.04821">
        <ele>167</ele>
        <time>2010-05-15T14:46:41Z</time>
      </trkpt>
      <trkpt lat="48.59681" lon="2.04822">
        <ele>166</ele>
        <time>2010-05-15T14:46:42Z</time>
      </trkpt>
      <trkpt lat="48.59682" lon="2.04821">
        <ele>166</ele>
        <time>2010-05-15T14:46:43Z</time>
      </trkpt>
      <trkpt lat="48.59683" lon="2.04822">
        <ele>166</ele>
        <time>2010-05-15T14:46:45Z</time>
      </trkpt>
      <trkpt lat="48.59684" lon="2.04823">
        <ele>165</ele>
        <time>2010-05-15T14:46:47Z</time>
      </trkpt>
      <trkpt lat="48.59687" lon="2.04825">
        <ele>165</ele>
        <time>2010-05-15T14:46:48Z</time>
      </trkpt>
      <trkpt lat="48.59689" lon="2.04825">
        <ele>164</ele>
        <time>2010-05-15T14:46:49Z</time>
      </trkpt>
      <trkpt lat="48.59691" lon="2.04823">
        <ele>163</ele>
        <time>2010-05-15T14:46:51Z</time>
      </trkpt>
      <trkpt lat="48.59693" lon="2.04822">
        <ele>162</ele>
        <time>2010-05-15T14:46:53Z</time>
      </trkpt>
      <trkpt lat="48.59694" lon="2.04821">
        <ele>161</ele>
        <time>2010-05-15T14:46:54Z</time>
      </trkpt>
      <trkpt lat="48.59696" lon="2.04821">
        <ele>161</ele>
        <time>2010-05-15T14:46:55Z</time>
      </trkpt>
      <trkpt lat="48.59698" lon="2.04823">
        <ele>160</ele>
        <time>2010-05-15T14:46:58Z</time>
      </trkpt>
      <trkpt lat="48.59701" lon="2.04822">
        <ele>160</ele>
        <time>2010-05-15T14:46:59Z</time>
      </trkpt>
      <trkpt lat="48.59703" lon="2.04822">
        <ele>160</ele>
        <time>2010-05-15T14:47:00Z</time>
      </trkpt>
      <trkpt lat="48.59704" lon="2.04823">
        <ele>160</ele>
        <time>2010-05-15T14:47:01Z</time>
      </trkpt>
      <trkpt lat="48.59705" lon="2.04825">
        <ele>160</ele>
        <time>2010-05-15T14:47:02Z</time>
      </trkpt>
      <trkpt lat="48.59706" lon="2.04826">
        <ele>160</ele>
        <time>2010-05-15T14:47:03Z</time>
      </trkpt>
      <trkpt lat="48.59708" lon="2.04829">
        <ele>160</ele>
        <time>2010-05-15T14:47:04Z</time>
      </trkpt>
      <trkpt lat="48.5971" lon="2.04831">
        <ele>160</ele>
        <time>2010-05-15T14:47:06Z</time>
      </trkpt>
      <trkpt lat="48.59712" lon="2.04833">
        <ele>160</ele>
        <time>2010-05-15T14:47:07Z</time>
      </trkpt>
      <trkpt lat="48.59715" lon="2.04837">
        <ele>159</ele>
        <time>2010-05-15T14:47:09Z</time>
      </trkpt>
      <trkpt lat="48.59716" lon="2.04839">
        <ele>158</ele>
        <time>2010-05-15T14:47:10Z</time>
      </trkpt>
      <trkpt lat="48.59718" lon="2.04842">
        <ele>158</ele>
        <time>2010-05-15T14:47:11Z</time>
      </trkpt>
      <trkpt lat="48.5972" lon="2.04844">
        <ele>155</ele>
        <time>2010-05-15T14:47:14Z</time>
      </trkpt>
      <trkpt lat="48.59721" lon="2.04847">
        <ele>154</ele>
        <time>2010-05-15T14:47:16Z</time>
      </trkpt>
      <trkpt lat="48.59723" lon="2.04849">
        <ele>152</ele>
        <time>2010-05-15T14:47:18Z</time>
      </trkpt>
      <trkpt lat="48.59724" lon="2.04851">
        <ele>151</ele>
        <time>2010-05-15T14:47:19Z</time>
      </trkpt>
      <trkpt lat="48.59725" lon="2.04852">
        <ele>151</ele>
        <time>2010-05-15T14:47:20Z</time>
      </trkpt>
      <trkpt lat="48.59727" lon="2.04853">
        <ele>151</ele>
        <time>2010-05-15T14:47:21Z</time>
      </trkpt>
      <trkpt lat="48.59728" lon="2.04855">
        <ele>151</ele>
        <time>2010-05-15T14:47:22Z</time>
      </trkpt>
      <trkpt lat="48.59731" lon="2.04858">
        <ele>151</ele>
        <time>2010-05-15T14:47:24Z</time>
      </trkpt>
      <trkpt lat="48.59732" lon="2.04859">
        <ele>151</ele>
        <time>2010-05-15T14:47:26Z</time>
      </trkpt>
      <trkpt lat="48.59734" lon="2.04859">
        <ele>151</ele>
        <time>2010-05-15T14:47:27Z</time>
      </trkpt>
      <trkpt lat="48.59735" lon="2.04859">
        <ele>151</ele>
        <time>2010-05-15T14:47:28Z</time>
      </trkpt>
      <trkpt lat="48.59738" lon="2.04862">
        <ele>151</ele>
        <time>2010-05-15T14:47:30Z</time>
      </trkpt>
      <trkpt lat="48.59739" lon="2.04863">
        <ele>151</ele>
        <time>2010-05-15T14:47:31Z</time>
      </trkpt>
      <trkpt lat="48.5974" lon="2.04865">
        <ele>151</ele>
        <time>2010-05-15T14:47:32Z</time>
      </trkpt>
      <trkpt lat="48.59742" lon="2.04866">
        <ele>151</ele>
        <time>2010-05-15T14:47:33Z</time>
      </trkpt>
      <trkpt lat="48.59743" lon="2.04868">
        <ele>151</ele>
        <time>2010-05-15T14:47:34Z</time>
      </trkpt>
      <trkpt lat="48.59744" lon="2.0487">
        <ele>151</ele>
        <time>2010-05-15T14:47:35Z</time>
      </trkpt>
      <trkpt lat="48.59745" lon="2.04872">
        <ele>151</ele>
        <time>2010-05-15T14:47:36Z</time>
      </trkpt>
      <trkpt lat="48.59748" lon="2.04872">
        <ele>151</ele>
        <time>2010-05-15T14:47:37Z</time>
      </trkpt>
      <trkpt lat="48.59749" lon="2.04873">
        <ele>151</ele>
        <time>2010-05-15T14:47:38Z</time>
      </trkpt>
      <trkpt lat="48.5975" lon="2.04875">
        <ele>151</ele>
        <time>2010-05-15T14:47:39Z</time>
      </trkpt>
      <trkpt lat="48.59752" lon="2.04876">
        <ele>151</ele>
        <time>2010-05-15T14:47:40Z</time>
      </trkpt>
      <trkpt lat="48.59752" lon="2.04878">
        <ele>151</ele>
        <time>2010-05-15T14:47:42Z</time>
      </trkpt>
      <trkpt lat="48.59754" lon="2.04879">
        <ele>151</ele>
        <time>2010-05-15T14:47:43Z</time>
      </trkpt>
      <trkpt lat="48.59756" lon="2.04881">
        <ele>151</ele>
        <time>2010-05-15T14:47:44Z</time>
      </trkpt>
      <trkpt lat="48.59758" lon="2.04884">
        <ele>151</ele>
        <time>2010-05-15T14:47:45Z</time>
      </trkpt>
      <trkpt lat="48.59761" lon="2.04885">
        <ele>151</ele>
        <time>2010-05-15T14:47:46Z</time>
      </trkpt>
      <trkpt lat="48.59766" lon="2.04887">
        <ele>151</ele>
        <time>2010-05-15T14:47:47Z</time>
      </trkpt>
      <trkpt lat="48.59769" lon="2.04889">
        <ele>152</ele>
        <time>2010-05-15T14:47:48Z</time>
      </trkpt>
      <trkpt lat="48.59774" lon="2.04891">
        <ele>152</ele>
        <time>2010-05-15T14:47:49Z</time>
      </trkpt>
      <trkpt lat="48.59777" lon="2.04894">
        <ele>152</ele>
        <time>2010-05-15T14:47:50Z</time>
      </trkpt>
      <trkpt lat="48.59782" lon="2.04897">
        <ele>152</ele>
        <time>2010-05-15T14:47:51Z</time>
      </trkpt>
      <trkpt lat="48.59785" lon="2.049">
        <ele>152</ele>
        <time>2010-05-15T14:47:52Z</time>
      </trkpt>
      <trkpt lat="48.5979" lon="2.04904">
        <ele>152</ele>
        <time>2010-05-15T14:47:53Z</time>
      </trkpt>
      <trkpt lat="48.59796" lon="2.04907">
        <ele>152</ele>
        <time>2010-05-15T14:47:54Z</time>
      </trkpt>
      <trkpt lat="48.598" lon="2.04909">
        <ele>153</ele>
        <time>2010-05-15T14:47:55Z</time>
      </trkpt>
      <trkpt lat="48.59803" lon="2.04911">
        <ele>153</ele>
        <time>2010-05-15T14:47:56Z</time>
      </trkpt>
      <trkpt lat="48.59807" lon="2.04914">
        <ele>153</ele>
        <time>2010-05-15T14:47:57Z</time>
      </trkpt>
      <trkpt lat="48.59809" lon="2.04914">
        <ele>153</ele>
        <time>2010-05-15T14:47:58Z</time>
      </trkpt>
      <trkpt lat="48.59811" lon="2.04917">
        <ele>153</ele>
        <time>2010-05-15T14:48:00Z</time>
      </trkpt>
      <trkpt lat="48.59815" lon="2.04919">
        <ele>153</ele>
        <time>2010-05-15T14:48:02Z</time>
      </trkpt>
      <trkpt lat="48.59817" lon="2.0492">
        <ele>153</ele>
        <time>2010-05-15T14:48:03Z</time>
      </trkpt>
      <trkpt lat="48.59818" lon="2.0492">
        <ele>153</ele>
        <time>2010-05-15T14:48:04Z</time>
      </trkpt>
      <trkpt lat="48.5982" lon="2.04921">
        <ele>153</ele>
        <time>2010-05-15T14:48:05Z</time>
      </trkpt>
      <trkpt lat="48.59822" lon="2.04922">
        <ele>153</ele>
        <time>2010-05-15T14:48:06Z</time>
      </trkpt>
      <trkpt lat="48.59824" lon="2.04922">
        <ele>153</ele>
        <time>2010-05-15T14:48:07Z</time>
      </trkpt>
      <trkpt lat="48.59825" lon="2.04921">
        <ele>153</ele>
        <time>2010-05-15T14:48:08Z</time>
      </trkpt>
      <trkpt lat="48.59826" lon="2.04922">
        <ele>153</ele>
        <time>2010-05-15T14:48:09Z</time>
      </trkpt>
      <trkpt lat="48.59828" lon="2.04923">
        <ele>153</ele>
        <time>2010-05-15T14:48:11Z</time>
      </trkpt>
      <trkpt lat="48.59829" lon="2.04923">
        <ele>153</ele>
        <time>2010-05-15T14:48:13Z</time>
      </trkpt>
      <trkpt lat="48.5983" lon="2.04924">
        <ele>153</ele>
        <time>2010-05-15T14:48:14Z</time>
      </trkpt>
      <trkpt lat="48.59832" lon="2.04925">
        <ele>153</ele>
        <time>2010-05-15T14:48:15Z</time>
      </trkpt>
      <trkpt lat="48.59834" lon="2.04926">
        <ele>153</ele>
        <time>2010-05-15T14:48:16Z</time>
      </trkpt>
      <trkpt lat="48.59835" lon="2.04926">
        <ele>153</ele>
        <time>2010-05-15T14:48:17Z</time>
      </trkpt>
      <trkpt lat="48.59836" lon="2.04928">
        <ele>153</ele>
        <time>2010-05-15T14:48:18Z</time>
      </trkpt>
      <trkpt lat="48.59837" lon="2.04931">
        <ele>153</ele>
        <time>2010-05-15T14:48:19Z</time>
      </trkpt>
      <trkpt lat="48.59838" lon="2.04931">
        <ele>153</ele>
        <time>2010-05-15T14:48:20Z</time>
      </trkpt>
      <trkpt lat="48.5984" lon="2.04933">
        <ele>153</ele>
        <time>2010-05-15T14:48:21Z</time>
      </trkpt>
      <trkpt lat="48.59843" lon="2.04935">
        <ele>151</ele>
        <time>2010-05-15T14:48:23Z</time>
      </trkpt>
      <trkpt lat="48.59844" lon="2.04935">
        <ele>151</ele>
        <time>2010-05-15T14:48:24Z</time>
      </trkpt>
      <trkpt lat="48.59846" lon="2.04936">
        <ele>151</ele>
        <time>2010-05-15T14:48:25Z</time>
      </trkpt>
      <trkpt lat="48.59848" lon="2.04938">
        <ele>151</ele>
        <time>2010-05-15T14:48:26Z</time>
      </trkpt>
      <trkpt lat="48.59851" lon="2.04941">
        <ele>151</ele>
        <time>2010-05-15T14:48:28Z</time>
      </trkpt>
      <trkpt lat="48.59851" lon="2.04943">
        <ele>151</ele>
        <time>2010-05-15T14:48:30Z</time>
      </trkpt>
      <trkpt lat="48.59853" lon="2.04944">
        <ele>151</ele>
        <time>2010-05-15T14:48:31Z</time>
      </trkpt>
      <trkpt lat="48.59855" lon="2.04946">
        <ele>151</ele>
        <time>2010-05-15T14:48:33Z</time>
      </trkpt>
      <trkpt lat="48.59857" lon="2.04947">
        <ele>151</ele>
        <time>2010-05-15T14:48:34Z</time>
      </trkpt>
      <trkpt lat="48.59859" lon="2.04948">
        <ele>151</ele>
        <time>2010-05-15T14:48:35Z</time>
      </trkpt>
      <trkpt lat="48.59861" lon="2.04949">
        <ele>151</ele>
        <time>2010-05-15T14:48:36Z</time>
      </trkpt>
      <trkpt lat="48.59864" lon="2.0495">
        <ele>151</ele>
        <time>2010-05-15T14:48:37Z</time>
      </trkpt>
      <trkpt lat="48.59866" lon="2.0495">
        <ele>151</ele>
        <time>2010-05-15T14:48:38Z</time>
      </trkpt>
      <trkpt lat="48.59867" lon="2.04952">
        <ele>151</ele>
        <time>2010-05-15T14:48:39Z</time>
      </trkpt>
      <trkpt lat="48.5987" lon="2.04954">
        <ele>150</ele>
        <time>2010-05-15T14:48:41Z</time>
      </trkpt>
      <trkpt lat="48.59871" lon="2.04955">
        <ele>149</ele>
        <time>2010-05-15T14:48:42Z</time>
      </trkpt>
      <trkpt lat="48.59873" lon="2.04956">
        <ele>149</ele>
        <time>2010-05-15T14:48:43Z</time>
      </trkpt>
      <trkpt lat="48.59876" lon="2.04957">
        <ele>148</ele>
        <time>2010-05-15T14:48:44Z</time>
      </trkpt>
      <trkpt lat="48.59878" lon="2.04959">
        <ele>147</ele>
        <time>2010-05-15T14:48:45Z</time>
      </trkpt>
      <trkpt lat="48.5988" lon="2.0496">
        <ele>146</ele>
        <time>2010-05-15T14:48:46Z</time>
      </trkpt>
      <trkpt lat="48.59882" lon="2.04961">
        <ele>145</ele>
        <time>2010-05-15T14:48:47Z</time>
      </trkpt>
      <trkpt lat="48.59883" lon="2.04962">
        <ele>144</ele>
        <time>2010-05-15T14:48:48Z</time>
      </trkpt>
      <trkpt lat="48.59885" lon="2.04964">
        <ele>144</ele>
        <time>2010-05-15T14:48:49Z</time>
      </trkpt>
      <trkpt lat="48.59887" lon="2.04965">
        <ele>143</ele>
        <time>2010-05-15T14:48:50Z</time>
      </trkpt>
      <trkpt lat="48.59888" lon="2.04965">
        <ele>142</ele>
        <time>2010-05-15T14:48:51Z</time>
      </trkpt>
      <trkpt lat="48.5989" lon="2.04967">
        <ele>142</ele>
        <time>2010-05-15T14:48:52Z</time>
      </trkpt>
      <trkpt lat="48.59892" lon="2.04968">
        <ele>141</ele>
        <time>2010-05-15T14:48:53Z</time>
      </trkpt>
      <trkpt lat="48.59893" lon="2.04968">
        <ele>141</ele>
        <time>2010-05-15T14:48:54Z</time>
      </trkpt>
      <trkpt lat="48.59894" lon="2.04968">
        <ele>141</ele>
        <time>2010-05-15T14:48:55Z</time>
      </trkpt>
      <trkpt lat="48.59896" lon="2.04969">
        <ele>141</ele>
        <time>2010-05-15T14:48:56Z</time>
      </trkpt>
      <trkpt lat="48.59898" lon="2.04971">
        <ele>141</ele>
        <time>2010-05-15T14:48:57Z</time>
      </trkpt>
      <trkpt lat="48.599" lon="2.04972">
        <ele>141</ele>
        <time>2010-05-15T14:48:58Z</time>
      </trkpt>
      <trkpt lat="48.59902" lon="2.04973">
        <ele>141</ele>
        <time>2010-05-15T14:48:59Z</time>
      </trkpt>
      <trkpt lat="48.59904" lon="2.04974">
        <ele>141</ele>
        <time>2010-05-15T14:49:00Z</time>
      </trkpt>
      <trkpt lat="48.59905" lon="2.04975">
        <ele>141</ele>
        <time>2010-05-15T14:49:01Z</time>
      </trkpt>
      <trkpt lat="48.59905" lon="2.04978">
        <ele>141</ele>
        <time>2010-05-15T14:49:03Z</time>
      </trkpt>
      <trkpt lat="48.59907" lon="2.0498">
        <ele>140</ele>
        <time>2010-05-15T14:49:04Z</time>
      </trkpt>
      <trkpt lat="48.59908" lon="2.04981">
        <ele>139</ele>
        <time>2010-05-15T14:49:05Z</time>
      </trkpt>
      <trkpt lat="48.5991" lon="2.04982">
        <ele>138</ele>
        <time>2010-05-15T14:49:06Z</time>
      </trkpt>
      <trkpt lat="48.59912" lon="2.04985">
        <ele>137</ele>
        <time>2010-05-15T14:49:08Z</time>
      </trkpt>
      <trkpt lat="48.59912" lon="2.04987">
        <ele>137</ele>
        <time>2010-05-15T14:49:10Z</time>
      </trkpt>
      <trkpt lat="48.59912" lon="2.04989">
        <ele>137</ele>
        <time>2010-05-15T14:49:11Z</time>
      </trkpt>
      <trkpt lat="48.59912" lon="2.04991">
        <ele>137</ele>
        <time>2010-05-15T14:49:12Z</time>
      </trkpt>
      <trkpt lat="48.59911" lon="2.04993">
        <ele>137</ele>
        <time>2010-05-15T14:49:13Z</time>
      </trkpt>
      <trkpt lat="48.59913" lon="2.04995">
        <ele>137</ele>
        <time>2010-05-15T14:49:15Z</time>
      </trkpt>
      <trkpt lat="48.59914" lon="2.04998">
        <ele>137</ele>
        <time>2010-05-15T14:49:17Z</time>
      </trkpt>
      <trkpt lat="48.59915" lon="2.05001">
        <ele>139</ele>
        <time>2010-05-15T14:49:19Z</time>
      </trkpt>
      <trkpt lat="48.59915" lon="2.05003">
        <ele>141</ele>
        <time>2010-05-15T14:49:21Z</time>
      </trkpt>
      <trkpt lat="48.59914" lon="2.05005">
        <ele>142</ele>
        <time>2010-05-15T14:49:22Z</time>
      </trkpt>
      <trkpt lat="48.59913" lon="2.05008">
        <ele>143</ele>
        <time>2010-05-15T14:49:23Z</time>
      </trkpt>
      <trkpt lat="48.59913" lon="2.05011">
        <ele>143</ele>
        <time>2010-05-15T14:49:24Z</time>
      </trkpt>
      <trkpt lat="48.59913" lon="2.05014">
        <ele>143</ele>
        <time>2010-05-15T14:49:25Z</time>
      </trkpt>
      <trkpt lat="48.59912" lon="2.05016">
        <ele>143</ele>
        <time>2010-05-15T14:49:26Z</time>
      </trkpt>
      <trkpt lat="48.59911" lon="2.0502">
        <ele>143</ele>
        <time>2010-05-15T14:49:28Z</time>
      </trkpt>
      <trkpt lat="48.59911" lon="2.05022">
        <ele>143</ele>
        <time>2010-05-15T14:49:29Z</time>
      </trkpt>
      <trkpt lat="48.59911" lon="2.05025">
        <ele>143</ele>
        <time>2010-05-15T14:49:30Z</time>
      </trkpt>
      <trkpt lat="48.59912" lon="2.05027">
        <ele>143</ele>
        <time>2010-05-15T14:49:31Z</time>
      </trkpt>
      <trkpt lat="48.59912" lon="2.05029">
        <ele>143</ele>
        <time>2010-05-15T14:49:32Z</time>
      </trkpt>
      <trkpt lat="48.59912" lon="2.05031">
        <ele>144</ele>
        <time>2010-05-15T14:49:33Z</time>
      </trkpt>
      <trkpt lat="48.59912" lon="2.05033">
        <ele>145</ele>
        <time>2010-05-15T14:49:34Z</time>
      </trkpt>
      <trkpt lat="48.59912" lon="2.05035">
        <ele>146</ele>
        <time>2010-05-15T14:49:35Z</time>
      </trkpt>
      <trkpt lat="48.59911" lon="2.05039">
        <ele>147</ele>
        <time>2010-05-15T14:49:36Z</time>
      </trkpt>
      <trkpt lat="48.59911" lon="2.05042">
        <ele>147</ele>
        <time>2010-05-15T14:49:37Z</time>
      </trkpt>
      <trkpt lat="48.59911" lon="2.05044">
        <ele>147</ele>
        <time>2010-05-15T14:49:38Z</time>
      </trkpt>
      <trkpt lat="48.59911" lon="2.05047">
        <ele>147</ele>
        <time>2010-05-15T14:49:39Z</time>
      </trkpt>
      <trkpt lat="48.5991" lon="2.05051">
        <ele>147</ele>
        <time>2010-05-15T14:49:40Z</time>
      </trkpt>
      <trkpt lat="48.5991" lon="2.05053">
        <ele>147</ele>
        <time>2010-05-15T14:49:41Z</time>
      </trkpt>
      <trkpt lat="48.59911" lon="2.05055">
        <ele>147</ele>
        <time>2010-05-15T14:49:42Z</time>
      </trkpt>
      <trkpt lat="48.59911" lon="2.05056">
        <ele>147</ele>
        <time>2010-05-15T14:49:43Z</time>
      </trkpt>
      <trkpt lat="48.5991" lon="2.05058">
        <ele>147</ele>
        <time>2010-05-15T14:49:44Z</time>
      </trkpt>
      <trkpt lat="48.59909" lon="2.0506">
        <ele>147</ele>
        <time>2010-05-15T14:49:45Z</time>
      </trkpt>
      <trkpt lat="48.59908" lon="2.05062">
        <ele>147</ele>
        <time>2010-05-15T14:49:46Z</time>
      </trkpt>
      <trkpt lat="48.59908" lon="2.05064">
        <ele>147</ele>
        <time>2010-05-15T14:49:47Z</time>
      </trkpt>
      <trkpt lat="48.59908" lon="2.05066">
        <ele>147</ele>
        <time>2010-05-15T14:49:48Z</time>
      </trkpt>
      <trkpt lat="48.59908" lon="2.05068">
        <ele>147</ele>
        <time>2010-05-15T14:49:49Z</time>
      </trkpt>
      <trkpt lat="48.59908" lon="2.0507">
        <ele>147</ele>
        <time>2010-05-15T14:49:50Z</time>
      </trkpt>
      <trkpt lat="48.59908" lon="2.05071">
        <ele>147</ele>
        <time>2010-05-15T14:49:51Z</time>
      </trkpt>
      <trkpt lat="48.59908" lon="2.05073">
        <ele>147</ele>
        <time>2010-05-15T14:49:52Z</time>
      </trkpt>
      <trkpt lat="48.59908" lon="2.05075">
        <ele>147</ele>
        <time>2010-05-15T14:49:53Z</time>
      </trkpt>
      <trkpt lat="48.59908" lon="2.05077">
        <ele>147</ele>
        <time>2010-05-15T14:49:54Z</time>
      </trkpt>
      <trkpt lat="48.59908" lon="2.05079">
        <ele>148</ele>
        <time>2010-05-15T14:49:55Z</time>
      </trkpt>
      <trkpt lat="48.59908" lon="2.05082">
        <ele>148</ele>
        <time>2010-05-15T14:49:56Z</time>
      </trkpt>
      <trkpt lat="48.59908" lon="2.05084">
        <ele>148</ele>
        <time>2010-05-15T14:49:57Z</time>
      </trkpt>
      <trkpt lat="48.59908" lon="2.05085">
        <ele>149</ele>
        <time>2010-05-15T14:49:58Z</time>
      </trkpt>
      <trkpt lat="48.59908" lon="2.05088">
        <ele>149</ele>
        <time>2010-05-15T14:49:59Z</time>
      </trkpt>
      <trkpt lat="48.59908" lon="2.0509">
        <ele>149</ele>
        <time>2010-05-15T14:50:00Z</time>
      </trkpt>
      <trkpt lat="48.59908" lon="2.05092">
        <ele>149</ele>
        <time>2010-05-15T14:50:01Z</time>
      </trkpt>
      <trkpt lat="48.59907" lon="2.05095">
        <ele>149</ele>
        <time>2010-05-15T14:50:02Z</time>
      </trkpt>
      <trkpt lat="48.59907" lon="2.05098">
        <ele>149</ele>
        <time>2010-05-15T14:50:03Z</time>
      </trkpt>
      <trkpt lat="48.59906" lon="2.051">
        <ele>149</ele>
        <time>2010-05-15T14:50:04Z</time>
      </trkpt>
      <trkpt lat="48.59905" lon="2.05103">
        <ele>149</ele>
        <time>2010-05-15T14:50:05Z</time>
      </trkpt>
      <trkpt lat="48.59904" lon="2.05106">
        <ele>149</ele>
        <time>2010-05-15T14:50:06Z</time>
      </trkpt>
      <trkpt lat="48.59903" lon="2.05108">
        <ele>149</ele>
        <time>2010-05-15T14:50:07Z</time>
      </trkpt>
      <trkpt lat="48.59903" lon="2.05111">
        <ele>149</ele>
        <time>2010-05-15T14:50:08Z</time>
      </trkpt>
      <trkpt lat="48.59902" lon="2.05113">
        <ele>149</ele>
        <time>2010-05-15T14:50:09Z</time>
      </trkpt>
      <trkpt lat="48.59902" lon="2.05115">
        <ele>149</ele>
        <time>2010-05-15T14:50:10Z</time>
      </trkpt>
      <trkpt lat="48.59901" lon="2.05118">
        <ele>149</ele>
        <time>2010-05-15T14:50:11Z</time>
      </trkpt>
      <trkpt lat="48.599" lon="2.05122">
        <ele>149</ele>
        <time>2010-05-15T14:50:12Z</time>
      </trkpt>
      <trkpt lat="48.599" lon="2.05124">
        <ele>149</ele>
        <time>2010-05-15T14:50:13Z</time>
      </trkpt>
      <trkpt lat="48.599" lon="2.05126">
        <ele>149</ele>
        <time>2010-05-15T14:50:14Z</time>
      </trkpt>
      <trkpt lat="48.599" lon="2.05131">
        <ele>149</ele>
        <time>2010-05-15T14:50:15Z</time>
      </trkpt>
      <trkpt lat="48.599" lon="2.05133">
        <ele>149</ele>
        <time>2010-05-15T14:50:16Z</time>
      </trkpt>
      <trkpt lat="48.59899" lon="2.05136">
        <ele>149</ele>
        <time>2010-05-15T14:50:17Z</time>
      </trkpt>
      <trkpt lat="48.59898" lon="2.05138">
        <ele>149</ele>
        <time>2010-05-15T14:50:18Z</time>
      </trkpt>
      <trkpt lat="48.59898" lon="2.05142">
        <ele>148</ele>
        <time>2010-05-15T14:50:19Z</time>
      </trkpt>
      <trkpt lat="48.59898" lon="2.05146">
        <ele>147</ele>
        <time>2010-05-15T14:50:20Z</time>
      </trkpt>
      <trkpt lat="48.59897" lon="2.05149">
        <ele>146</ele>
        <time>2010-05-15T14:50:21Z</time>
      </trkpt>
      <trkpt lat="48.59897" lon="2.05151">
        <ele>145</ele>
        <time>2010-05-15T14:50:22Z</time>
      </trkpt>
      <trkpt lat="48.59897" lon="2.05153">
        <ele>144</ele>
        <time>2010-05-15T14:50:23Z</time>
      </trkpt>
      <trkpt lat="48.59896" lon="2.05155">
        <ele>144</ele>
        <time>2010-05-15T14:50:24Z</time>
      </trkpt>
      <trkpt lat="48.59895" lon="2.05157">
        <ele>144</ele>
        <time>2010-05-15T14:50:25Z</time>
      </trkpt>
      <trkpt lat="48.59895" lon="2.05159">
        <ele>144</ele>
        <time>2010-05-15T14:50:26Z</time>
      </trkpt>
      <trkpt lat="48.59894" lon="2.05161">
        <ele>144</ele>
        <time>2010-05-15T14:50:27Z</time>
      </trkpt>
      <trkpt lat="48.59894" lon="2.05164">
        <ele>144</ele>
        <time>2010-05-15T14:50:28Z</time>
      </trkpt>
      <trkpt lat="48.59894" lon="2.05166">
        <ele>144</ele>
        <time>2010-05-15T14:50:29Z</time>
      </trkpt>
      <trkpt lat="48.59894" lon="2.05167">
        <ele>144</ele>
        <time>2010-05-15T14:50:30Z</time>
      </trkpt>
      <trkpt lat="48.59894" lon="2.05169">
        <ele>144</ele>
        <time>2010-05-15T14:50:31Z</time>
      </trkpt>
      <trkpt lat="48.59893" lon="2.05172">
        <ele>144</ele>
        <time>2010-05-15T14:50:32Z</time>
      </trkpt>
      <trkpt lat="48.59893" lon="2.05174">
        <ele>144</ele>
        <time>2010-05-15T14:50:33Z</time>
      </trkpt>
      <trkpt lat="48.59893" lon="2.05176">
        <ele>144</ele>
        <time>2010-05-15T14:50:34Z</time>
      </trkpt>
      <trkpt lat="48.59893" lon="2.05178">
        <ele>144</ele>
        <time>2010-05-15T14:50:35Z</time>
      </trkpt>
      <trkpt lat="48.59894" lon="2.0518">
        <ele>144</ele>
        <time>2010-05-15T14:50:36Z</time>
      </trkpt>
      <trkpt lat="48.59894" lon="2.05182">
        <ele>144</ele>
        <time>2010-05-15T14:50:37Z</time>
      </trkpt>
      <trkpt lat="48.59893" lon="2.05184">
        <ele>144</ele>
        <time>2010-05-15T14:50:38Z</time>
      </trkpt>
      <trkpt lat="48.59893" lon="2.05186">
        <ele>144</ele>
        <time>2010-05-15T14:50:39Z</time>
      </trkpt>
      <trkpt lat="48.59893" lon="2.05187">
        <ele>144</ele>
        <time>2010-05-15T14:50:40Z</time>
      </trkpt>
      <trkpt lat="48.59892" lon="2.05191">
        <ele>144</ele>
        <time>2010-05-15T14:50:42Z</time>
      </trkpt>
      <trkpt lat="48.59891" lon="2.05193">
        <ele>144</ele>
        <time>2010-05-15T14:50:43Z</time>
      </trkpt>
      <trkpt lat="48.5989" lon="2.05195">
        <ele>144</ele>
        <time>2010-05-15T14:50:44Z</time>
      </trkpt>
      <trkpt lat="48.5989" lon="2.05197">
        <ele>144</ele>
        <time>2010-05-15T14:50:45Z</time>
      </trkpt>
      <trkpt lat="48.59889" lon="2.05199">
        <ele>144</ele>
        <time>2010-05-15T14:50:46Z</time>
      </trkpt>
      <trkpt lat="48.59888" lon="2.05202">
        <ele>144</ele>
        <time>2010-05-15T14:50:47Z</time>
      </trkpt>
      <trkpt lat="48.59887" lon="2.05205">
        <ele>144</ele>
        <time>2010-05-15T14:50:48Z</time>
      </trkpt>
      <trkpt lat="48.59885" lon="2.05209">
        <ele>144</ele>
        <time>2010-05-15T14:50:49Z</time>
      </trkpt>
      <trkpt lat="48.59884" lon="2.05213">
        <ele>144</ele>
        <time>2010-05-15T14:50:50Z</time>
      </trkpt>
      <trkpt lat="48.59883" lon="2.0522">
        <ele>144</ele>
        <time>2010-05-15T14:50:51Z</time>
      </trkpt>
      <trkpt lat="48.59883" lon="2.05222">
        <ele>144</ele>
        <time>2010-05-15T14:50:52Z</time>
      </trkpt>
      <trkpt lat="48.59883" lon="2.05224">
        <ele>144</ele>
        <time>2010-05-15T14:50:53Z</time>
      </trkpt>
      <trkpt lat="48.59883" lon="2.05226">
        <ele>144</ele>
        <time>2010-05-15T14:50:54Z</time>
      </trkpt>
      <trkpt lat="48.59883" lon="2.05228">
        <ele>144</ele>
        <time>2010-05-15T14:50:55Z</time>
      </trkpt>
      <trkpt lat="48.59883" lon="2.05231">
        <ele>144</ele>
        <time>2010-05-15T14:50:56Z</time>
      </trkpt>
      <trkpt lat="48.59882" lon="2.05234">
        <ele>144</ele>
        <time>2010-05-15T14:50:57Z</time>
      </trkpt>
      <trkpt lat="48.59882" lon="2.05237">
        <ele>144</ele>
        <time>2010-05-15T14:50:58Z</time>
      </trkpt>
      <trkpt lat="48.59883" lon="2.05239">
        <ele>144</ele>
        <time>2010-05-15T14:50:59Z</time>
      </trkpt>
      <trkpt lat="48.59884" lon="2.05242">
        <ele>145</ele>
        <time>2010-05-15T14:51:00Z</time>
      </trkpt>
      <trkpt lat="48.59884" lon="2.05245">
        <ele>146</ele>
        <time>2010-05-15T14:51:01Z</time>
      </trkpt>
      <trkpt lat="48.59886" lon="2.05249">
        <ele>146</ele>
        <time>2010-05-15T14:51:02Z</time>
      </trkpt>
      <trkpt lat="48.59887" lon="2.05251">
        <ele>147</ele>
        <time>2010-05-15T14:51:03Z</time>
      </trkpt>
      <trkpt lat="48.59887" lon="2.05253">
        <ele>147</ele>
        <time>2010-05-15T14:51:04Z</time>
      </trkpt>
      <trkpt lat="48.59888" lon="2.05255">
        <ele>147</ele>
        <time>2010-05-15T14:51:05Z</time>
      </trkpt>
      <trkpt lat="48.59889" lon="2.05258">
        <ele>147</ele>
        <time>2010-05-15T14:51:06Z</time>
      </trkpt>
      <trkpt lat="48.59891" lon="2.05258">
        <ele>147</ele>
        <time>2010-05-15T14:51:07Z</time>
      </trkpt>
      <trkpt lat="48.59892" lon="2.0526">
        <ele>147</ele>
        <time>2010-05-15T14:51:08Z</time>
      </trkpt>
      <trkpt lat="48.59894" lon="2.0526">
        <ele>147</ele>
        <time>2010-05-15T14:51:09Z</time>
      </trkpt>
      <trkpt lat="48.59895" lon="2.0526">
        <ele>147</ele>
        <time>2010-05-15T14:51:10Z</time>
      </trkpt>
      <trkpt lat="48.59897" lon="2.05262">
        <ele>147</ele>
        <time>2010-05-15T14:51:12Z</time>
      </trkpt>
      <trkpt lat="48.59899" lon="2.05264">
        <ele>148</ele>
        <time>2010-05-15T14:51:14Z</time>
      </trkpt>
      <trkpt lat="48.59899" lon="2.05267">
        <ele>148</ele>
        <time>2010-05-15T14:51:16Z</time>
      </trkpt>
      <trkpt lat="48.599" lon="2.05269">
        <ele>148</ele>
        <time>2010-05-15T14:51:18Z</time>
      </trkpt>
      <trkpt lat="48.59902" lon="2.05276">
        <ele>148</ele>
        <time>2010-05-15T14:51:19Z</time>
      </trkpt>
      <trkpt lat="48.59904" lon="2.05278">
        <ele>148</ele>
        <time>2010-05-15T14:51:20Z</time>
      </trkpt>
      <trkpt lat="48.59906" lon="2.0528">
        <ele>148</ele>
        <time>2010-05-15T14:51:21Z</time>
      </trkpt>
      <trkpt lat="48.59908" lon="2.05283">
        <ele>148</ele>
        <time>2010-05-15T14:51:22Z</time>
      </trkpt>
      <trkpt lat="48.5991" lon="2.05285">
        <ele>147</ele>
        <time>2010-05-15T14:51:23Z</time>
      </trkpt>
      <trkpt lat="48.59912" lon="2.0529">
        <ele>147</ele>
        <time>2010-05-15T14:51:24Z</time>
      </trkpt>
      <trkpt lat="48.59913" lon="2.05292">
        <ele>147</ele>
        <time>2010-05-15T14:51:25Z</time>
      </trkpt>
      <trkpt lat="48.59914" lon="2.05296">
        <ele>147</ele>
        <time>2010-05-15T14:51:26Z</time>
      </trkpt>
      <trkpt lat="48.59915" lon="2.05299">
        <ele>147</ele>
        <time>2010-05-15T14:51:27Z</time>
      </trkpt>
      <trkpt lat="48.59915" lon="2.05301">
        <ele>147</ele>
        <time>2010-05-15T14:51:28Z</time>
      </trkpt>
      <trkpt lat="48.59916" lon="2.05303">
        <ele>147</ele>
        <time>2010-05-15T14:51:29Z</time>
      </trkpt>
      <trkpt lat="48.59918" lon="2.05307">
        <ele>147</ele>
        <time>2010-05-15T14:51:30Z</time>
      </trkpt>
      <trkpt lat="48.59921" lon="2.05311">
        <ele>146</ele>
        <time>2010-05-15T14:51:32Z</time>
      </trkpt>
      <trkpt lat="48.59923" lon="2.05313">
        <ele>145</ele>
        <time>2010-05-15T14:51:33Z</time>
      </trkpt>
      <trkpt lat="48.59924" lon="2.05315">
        <ele>144</ele>
        <time>2010-05-15T14:51:34Z</time>
      </trkpt>
      <trkpt lat="48.59926" lon="2.05316">
        <ele>143</ele>
        <time>2010-05-15T14:51:35Z</time>
      </trkpt>
      <trkpt lat="48.59928" lon="2.05318">
        <ele>142</ele>
        <time>2010-05-15T14:51:36Z</time>
      </trkpt>
      <trkpt lat="48.59929" lon="2.0532">
        <ele>141</ele>
        <time>2010-05-15T14:51:37Z</time>
      </trkpt>
      <trkpt lat="48.5993" lon="2.05322">
        <ele>140</ele>
        <time>2010-05-15T14:51:38Z</time>
      </trkpt>
      <trkpt lat="48.59931" lon="2.05325">
        <ele>139</ele>
        <time>2010-05-15T14:51:39Z</time>
      </trkpt>
      <trkpt lat="48.59932" lon="2.05327">
        <ele>138</ele>
        <time>2010-05-15T14:51:40Z</time>
      </trkpt>
      <trkpt lat="48.59934" lon="2.05329">
        <ele>137</ele>
        <time>2010-05-15T14:51:41Z</time>
      </trkpt>
      <trkpt lat="48.59936" lon="2.05331">
        <ele>136</ele>
        <time>2010-05-15T14:51:42Z</time>
      </trkpt>
      <trkpt lat="48.59937" lon="2.05332">
        <ele>136</ele>
        <time>2010-05-15T14:51:43Z</time>
      </trkpt>
      <trkpt lat="48.59939" lon="2.05334">
        <ele>135</ele>
        <time>2010-05-15T14:51:44Z</time>
      </trkpt>
      <trkpt lat="48.5994" lon="2.05335">
        <ele>135</ele>
        <time>2010-05-15T14:51:45Z</time>
      </trkpt>
      <trkpt lat="48.59942" lon="2.05337">
        <ele>135</ele>
        <time>2010-05-15T14:51:46Z</time>
      </trkpt>
      <trkpt lat="48.59943" lon="2.05338">
        <ele>135</ele>
        <time>2010-05-15T14:51:47Z</time>
      </trkpt>
      <trkpt lat="48.59945" lon="2.05338">
        <ele>135</ele>
        <time>2010-05-15T14:51:48Z</time>
      </trkpt>
      <trkpt lat="48.59947" lon="2.05339">
        <ele>134</ele>
        <time>2010-05-15T14:51:49Z</time>
      </trkpt>
      <trkpt lat="48.59949" lon="2.05341">
        <ele>132</ele>
        <time>2010-05-15T14:51:51Z</time>
      </trkpt>
      <trkpt lat="48.5995" lon="2.05343">
        <ele>130</ele>
        <time>2010-05-15T14:51:53Z</time>
      </trkpt>
      <trkpt lat="48.59952" lon="2.05346">
        <ele>128</ele>
        <time>2010-05-15T14:51:55Z</time>
      </trkpt>
      <trkpt lat="48.59954" lon="2.05349">
        <ele>128</ele>
        <time>2010-05-15T14:51:56Z</time>
      </trkpt>
      <trkpt lat="48.59955" lon="2.05351">
        <ele>128</ele>
        <time>2010-05-15T14:51:57Z</time>
      </trkpt>
      <trkpt lat="48.59956" lon="2.05353">
        <ele>128</ele>
        <time>2010-05-15T14:51:58Z</time>
      </trkpt>
      <trkpt lat="48.59957" lon="2.05355">
        <ele>128</ele>
        <time>2010-05-15T14:51:59Z</time>
      </trkpt>
      <trkpt lat="48.59958" lon="2.05357">
        <ele>128</ele>
        <time>2010-05-15T14:52:00Z</time>
      </trkpt>
      <trkpt lat="48.59959" lon="2.05359">
        <ele>128</ele>
        <time>2010-05-15T14:52:01Z</time>
      </trkpt>
      <trkpt lat="48.59961" lon="2.05361">
        <ele>128</ele>
        <time>2010-05-15T14:52:03Z</time>
      </trkpt>
      <trkpt lat="48.59962" lon="2.05363">
        <ele>128</ele>
        <time>2010-05-15T14:52:05Z</time>
      </trkpt>
      <trkpt lat="48.59963" lon="2.05365">
        <ele>128</ele>
        <time>2010-05-15T14:52:06Z</time>
      </trkpt>
      <trkpt lat="48.59964" lon="2.05366">
        <ele>128</ele>
        <time>2010-05-15T14:52:07Z</time>
      </trkpt>
      <trkpt lat="48.59966" lon="2.05368">
        <ele>129</ele>
        <time>2010-05-15T14:52:09Z</time>
      </trkpt>
      <trkpt lat="48.59968" lon="2.05371">
        <ele>130</ele>
        <time>2010-05-15T14:52:11Z</time>
      </trkpt>
      <trkpt lat="48.59968" lon="2.05373">
        <ele>131</ele>
        <time>2010-05-15T14:52:12Z</time>
      </trkpt>
      <trkpt lat="48.59969" lon="2.05375">
        <ele>131</ele>
        <time>2010-05-15T14:52:13Z</time>
      </trkpt>
      <trkpt lat="48.5997" lon="2.05378">
        <ele>131</ele>
        <time>2010-05-15T14:52:14Z</time>
      </trkpt>
      <trkpt lat="48.5997" lon="2.0538">
        <ele>131</ele>
        <time>2010-05-15T14:52:15Z</time>
      </trkpt>
      <trkpt lat="48.5997" lon="2.05382">
        <ele>131</ele>
        <time>2010-05-15T14:52:16Z</time>
      </trkpt>
      <trkpt lat="48.5997" lon="2.05384">
        <ele>131</ele>
        <time>2010-05-15T14:52:17Z</time>
      </trkpt>
      <trkpt lat="48.5997" lon="2.05386">
        <ele>131</ele>
        <time>2010-05-15T14:52:18Z</time>
      </trkpt>
      <trkpt lat="48.59971" lon="2.05388">
        <ele>131</ele>
        <time>2010-05-15T14:52:19Z</time>
      </trkpt>
      <trkpt lat="48.59971" lon="2.0539">
        <ele>131</ele>
        <time>2010-05-15T14:52:20Z</time>
      </trkpt>
      <trkpt lat="48.59972" lon="2.05392">
        <ele>131</ele>
        <time>2010-05-15T14:52:21Z</time>
      </trkpt>
      <trkpt lat="48.59973" lon="2.05395">
        <ele>131</ele>
        <time>2010-05-15T14:52:22Z</time>
      </trkpt>
      <trkpt lat="48.59974" lon="2.05397">
        <ele>131</ele>
        <time>2010-05-15T14:52:23Z</time>
      </trkpt>
      <trkpt lat="48.59976" lon="2.05398">
        <ele>131</ele>
        <time>2010-05-15T14:52:24Z</time>
      </trkpt>
      <trkpt lat="48.59977" lon="2.054">
        <ele>131</ele>
        <time>2010-05-15T14:52:25Z</time>
      </trkpt>
      <trkpt lat="48.59978" lon="2.05402">
        <ele>131</ele>
        <time>2010-05-15T14:52:26Z</time>
      </trkpt>
      <trkpt lat="48.59979" lon="2.05403">
        <ele>131</ele>
        <time>2010-05-15T14:52:27Z</time>
      </trkpt>
      <trkpt lat="48.5998" lon="2.05405">
        <ele>131</ele>
        <time>2010-05-15T14:52:28Z</time>
      </trkpt>
      <trkpt lat="48.59981" lon="2.05406">
        <ele>131</ele>
        <time>2010-05-15T14:52:29Z</time>
      </trkpt>
      <trkpt lat="48.59982" lon="2.05408">
        <ele>131</ele>
        <time>2010-05-15T14:52:30Z</time>
      </trkpt>
      <trkpt lat="48.59983" lon="2.0541">
        <ele>131</ele>
        <time>2010-05-15T14:52:31Z</time>
      </trkpt>
      <trkpt lat="48.59983" lon="2.05413">
        <ele>131</ele>
        <time>2010-05-15T14:52:32Z</time>
      </trkpt>
      <trkpt lat="48.59984" lon="2.05415">
        <ele>131</ele>
        <time>2010-05-15T14:52:33Z</time>
      </trkpt>
      <trkpt lat="48.59985" lon="2.05417">
        <ele>131</ele>
        <time>2010-05-15T14:52:34Z</time>
      </trkpt>
      <trkpt lat="48.59986" lon="2.05419">
        <ele>131</ele>
        <time>2010-05-15T14:52:35Z</time>
      </trkpt>
      <trkpt lat="48.59987" lon="2.05421">
        <ele>131</ele>
        <time>2010-05-15T14:52:36Z</time>
      </trkpt>
      <trkpt lat="48.59988" lon="2.05423">
        <ele>131</ele>
        <time>2010-05-15T14:52:37Z</time>
      </trkpt>
      <trkpt lat="48.59988" lon="2.05426">
        <ele>131</ele>
        <time>2010-05-15T14:52:38Z</time>
      </trkpt>
      <trkpt lat="48.59989" lon="2.05428">
        <ele>131</ele>
        <time>2010-05-15T14:52:39Z</time>
      </trkpt>
      <trkpt lat="48.5999" lon="2.0543">
        <ele>131</ele>
        <time>2010-05-15T14:52:40Z</time>
      </trkpt>
      <trkpt lat="48.59991" lon="2.05432">
        <ele>131</ele>
        <time>2010-05-15T14:52:41Z</time>
      </trkpt>
      <trkpt lat="48.59993" lon="2.05434">
        <ele>131</ele>
        <time>2010-05-15T14:52:42Z</time>
      </trkpt>
      <trkpt lat="48.59994" lon="2.05436">
        <ele>131</ele>
        <time>2010-05-15T14:52:43Z</time>
      </trkpt>
      <trkpt lat="48.59994" lon="2.05438">
        <ele>131</ele>
        <time>2010-05-15T14:52:44Z</time>
      </trkpt>
      <trkpt lat="48.59995" lon="2.0544">
        <ele>132</ele>
        <time>2010-05-15T14:52:45Z</time>
      </trkpt>
      <trkpt lat="48.59996" lon="2.05443">
        <ele>132</ele>
        <time>2010-05-15T14:52:46Z</time>
      </trkpt>
      <trkpt lat="48.59996" lon="2.05445">
        <ele>133</ele>
        <time>2010-05-15T14:52:47Z</time>
      </trkpt>
      <trkpt lat="48.59996" lon="2.05447">
        <ele>133</ele>
        <time>2010-05-15T14:52:48Z</time>
      </trkpt>
      <trkpt lat="48.59997" lon="2.05453">
        <ele>133</ele>
        <time>2010-05-15T14:52:49Z</time>
      </trkpt>
      <trkpt lat="48.59999" lon="2.05457">
        <ele>133</ele>
        <time>2010-05-15T14:52:51Z</time>
      </trkpt>
      <trkpt lat="48.6" lon="2.05459">
        <ele>133</ele>
        <time>2010-05-15T14:52:52Z</time>
      </trkpt>
      <trkpt lat="48.60001" lon="2.05461">
        <ele>133</ele>
        <time>2010-05-15T14:52:53Z</time>
      </trkpt>
      <trkpt lat="48.60002" lon="2.05464">
        <ele>133</ele>
        <time>2010-05-15T14:52:55Z</time>
      </trkpt>
      <trkpt lat="48.60004" lon="2.05467">
        <ele>133</ele>
        <time>2010-05-15T14:52:57Z</time>
      </trkpt>
      <trkpt lat="48.60005" lon="2.05469">
        <ele>133</ele>
        <time>2010-05-15T14:52:58Z</time>
      </trkpt>
      <trkpt lat="48.60005" lon="2.0547">
        <ele>133</ele>
        <time>2010-05-15T14:52:59Z</time>
      </trkpt>
      <trkpt lat="48.60006" lon="2.05473">
        <ele>133</ele>
        <time>2010-05-15T14:53:00Z</time>
      </trkpt>
      <trkpt lat="48.60007" lon="2.05477">
        <ele>133</ele>
        <time>2010-05-15T14:53:02Z</time>
      </trkpt>
      <trkpt lat="48.60007" lon="2.0548">
        <ele>134</ele>
        <time>2010-05-15T14:53:03Z</time>
      </trkpt>
      <trkpt lat="48.60007" lon="2.05484">
        <ele>135</ele>
        <time>2010-05-15T14:53:04Z</time>
      </trkpt>
      <trkpt lat="48.60008" lon="2.05487">
        <ele>136</ele>
        <time>2010-05-15T14:53:05Z</time>
      </trkpt>
      <trkpt lat="48.60009" lon="2.0549">
        <ele>137</ele>
        <time>2010-05-15T14:53:06Z</time>
      </trkpt>
      <trkpt lat="48.6001" lon="2.05493">
        <ele>138</ele>
        <time>2010-05-15T14:53:07Z</time>
      </trkpt>
      <trkpt lat="48.6001" lon="2.05496">
        <ele>139</ele>
        <time>2010-05-15T14:53:08Z</time>
      </trkpt>
      <trkpt lat="48.60012" lon="2.05499">
        <ele>141</ele>
        <time>2010-05-15T14:53:10Z</time>
      </trkpt>
      <trkpt lat="48.60013" lon="2.055">
        <ele>142</ele>
        <time>2010-05-15T14:53:11Z</time>
      </trkpt>
      <trkpt lat="48.60014" lon="2.05501">
        <ele>143</ele>
        <time>2010-05-15T14:53:12Z</time>
      </trkpt>
      <trkpt lat="48.60016" lon="2.05503">
        <ele>143</ele>
        <time>2010-05-15T14:53:13Z</time>
      </trkpt>
      <trkpt lat="48.60016" lon="2.05504">
        <ele>143</ele>
        <time>2010-05-15T14:53:14Z</time>
      </trkpt>
      <trkpt lat="48.60017" lon="2.05506">
        <ele>143</ele>
        <time>2010-05-15T14:53:16Z</time>
      </trkpt>
      <trkpt lat="48.60019" lon="2.05508">
        <ele>143</ele>
        <time>2010-05-15T14:53:18Z</time>
      </trkpt>
      <trkpt lat="48.60022" lon="2.05511">
        <ele>143</ele>
        <time>2010-05-15T14:53:20Z</time>
      </trkpt>
      <trkpt lat="48.60024" lon="2.05513">
        <ele>143</ele>
        <time>2010-05-15T14:53:22Z</time>
      </trkpt>
      <trkpt lat="48.60024" lon="2.05513">
        <ele>143</ele>
        <time>2010-05-15T14:53:22Z</time>
      </trkpt>
    </trkseg>
  </trk>
</gpx>